<?xml version="1.0" encoding="UTF-8" standalone="no" ?>
<gpx xmlns="http://www.topografix.com/GPX/1/1" xmlns:xsi="http://www.w3.org/2001/XMLSchema-instance" xsi:schemaLocation="http://www.topografix.com/GPX/1/1 http://www.topografix.com/GPX/1/1/gpx.xsd" version="1.1" creator="VisuGPX - https://www.visugpx.com">
  <metadata>
    <name>2019-09-17 Beau tour depuis le Markstein</name>
  </metadata>
  <trk>
    <name><![CDATA[Randonnée matinale]]></name>
    <trkseg>
      <trkpt lat="47.92422" lon="7.01013">
        <ele>1169.7</ele>
        <time>2019-09-17T07:05:41Z</time>
      </trkpt>
      <trkpt lat="47.92424" lon="7.0101">
        <ele>1169.2</ele>
        <time>2019-09-17T07:05:44Z</time>
      </trkpt>
      <trkpt lat="47.92427" lon="7.01013">
        <ele>1168.5</ele>
        <time>2019-09-17T07:05:45Z</time>
      </trkpt>
      <trkpt lat="47.92424" lon="7.01014">
        <ele>1168</ele>
        <time>2019-09-17T07:06:20Z</time>
      </trkpt>
      <trkpt lat="47.92422" lon="7.01017">
        <ele>1167.4</ele>
        <time>2019-09-17T07:07:19Z</time>
      </trkpt>
      <trkpt lat="47.92419" lon="7.01016">
        <ele>1166.8</ele>
        <time>2019-09-17T07:07:25Z</time>
      </trkpt>
      <trkpt lat="47.92417" lon="7.01019">
        <ele>1166.2</ele>
        <time>2019-09-17T07:07:29Z</time>
      </trkpt>
      <trkpt lat="47.92413" lon="7.01022">
        <ele>1165.3</ele>
        <time>2019-09-17T07:07:31Z</time>
      </trkpt>
      <trkpt lat="47.9241" lon="7.01022">
        <ele>1164.6</ele>
        <time>2019-09-17T07:07:34Z</time>
      </trkpt>
      <trkpt lat="47.92407" lon="7.0102">
        <ele>1164</ele>
        <time>2019-09-17T07:07:36Z</time>
      </trkpt>
      <trkpt lat="47.92404" lon="7.01019">
        <ele>1163.4</ele>
        <time>2019-09-17T07:07:39Z</time>
      </trkpt>
      <trkpt lat="47.92402" lon="7.01011">
        <ele>1162.2</ele>
        <time>2019-09-17T07:08:02Z</time>
      </trkpt>
      <trkpt lat="47.924" lon="7.01007">
        <ele>1161.5</ele>
        <time>2019-09-17T07:08:05Z</time>
      </trkpt>
      <trkpt lat="47.92396" lon="7.01005">
        <ele>1160.8</ele>
        <time>2019-09-17T07:08:10Z</time>
      </trkpt>
      <trkpt lat="47.92394" lon="7.01001">
        <ele>1160.2</ele>
        <time>2019-09-17T07:08:13Z</time>
      </trkpt>
      <trkpt lat="47.92392" lon="7.00998">
        <ele>1159.7</ele>
        <time>2019-09-17T07:08:17Z</time>
      </trkpt>
      <trkpt lat="47.9239" lon="7.00994">
        <ele>1159.3</ele>
        <time>2019-09-17T07:08:21Z</time>
      </trkpt>
      <trkpt lat="47.92388" lon="7.00991">
        <ele>1158.8</ele>
        <time>2019-09-17T07:08:23Z</time>
      </trkpt>
      <trkpt lat="47.92385" lon="7.0099">
        <ele>1158.4</ele>
        <time>2019-09-17T07:08:25Z</time>
      </trkpt>
      <trkpt lat="47.92382" lon="7.0099">
        <ele>1158.1</ele>
        <time>2019-09-17T07:08:28Z</time>
      </trkpt>
      <trkpt lat="47.92378" lon="7.0099">
        <ele>1157.7</ele>
        <time>2019-09-17T07:08:33Z</time>
      </trkpt>
      <trkpt lat="47.92375" lon="7.00991">
        <ele>1157.3</ele>
        <time>2019-09-17T07:08:35Z</time>
      </trkpt>
      <trkpt lat="47.92371" lon="7.0099">
        <ele>1156.9</ele>
        <time>2019-09-17T07:08:37Z</time>
      </trkpt>
      <trkpt lat="47.92368" lon="7.00991">
        <ele>1156.5</ele>
        <time>2019-09-17T07:08:39Z</time>
      </trkpt>
      <trkpt lat="47.92366" lon="7.00994">
        <ele>1156.1</ele>
        <time>2019-09-17T07:08:41Z</time>
      </trkpt>
      <trkpt lat="47.92363" lon="7.00997">
        <ele>1155.7</ele>
        <time>2019-09-17T07:08:44Z</time>
      </trkpt>
      <trkpt lat="47.9236" lon="7.01001">
        <ele>1155.1</ele>
        <time>2019-09-17T07:08:48Z</time>
      </trkpt>
      <trkpt lat="47.92358" lon="7.00997">
        <ele>1154.7</ele>
        <time>2019-09-17T07:08:51Z</time>
      </trkpt>
      <trkpt lat="47.92355" lon="7.00993">
        <ele>1151.5</ele>
        <time>2019-09-17T07:08:54Z</time>
      </trkpt>
      <trkpt lat="47.92352" lon="7.00991">
        <ele>1150.8</ele>
        <time>2019-09-17T07:08:56Z</time>
      </trkpt>
      <trkpt lat="47.9235" lon="7.00987">
        <ele>1149.9</ele>
        <time>2019-09-17T07:08:59Z</time>
      </trkpt>
      <trkpt lat="47.92348" lon="7.00983">
        <ele>1149.2</ele>
        <time>2019-09-17T07:09:02Z</time>
      </trkpt>
      <trkpt lat="47.92346" lon="7.00978">
        <ele>1148.4</ele>
        <time>2019-09-17T07:09:05Z</time>
      </trkpt>
      <trkpt lat="47.92343" lon="7.00974">
        <ele>1147.5</ele>
        <time>2019-09-17T07:09:08Z</time>
      </trkpt>
      <trkpt lat="47.92341" lon="7.00971">
        <ele>1146.8</ele>
        <time>2019-09-17T07:09:10Z</time>
      </trkpt>
      <trkpt lat="47.92338" lon="7.00967">
        <ele>1146.1</ele>
        <time>2019-09-17T07:09:12Z</time>
      </trkpt>
      <trkpt lat="47.92336" lon="7.00964">
        <ele>1145.5</ele>
        <time>2019-09-17T07:09:14Z</time>
      </trkpt>
      <trkpt lat="47.92333" lon="7.00961">
        <ele>1144.8</ele>
        <time>2019-09-17T07:09:16Z</time>
      </trkpt>
      <trkpt lat="47.92331" lon="7.00957">
        <ele>1144.2</ele>
        <time>2019-09-17T07:09:18Z</time>
      </trkpt>
      <trkpt lat="47.92329" lon="7.00955">
        <ele>1143.6</ele>
        <time>2019-09-17T07:09:20Z</time>
      </trkpt>
      <trkpt lat="47.92327" lon="7.00952">
        <ele>1143</ele>
        <time>2019-09-17T07:09:22Z</time>
      </trkpt>
      <trkpt lat="47.92325" lon="7.00949">
        <ele>1142.4</ele>
        <time>2019-09-17T07:09:25Z</time>
      </trkpt>
      <trkpt lat="47.92323" lon="7.00945">
        <ele>1141.7</ele>
        <time>2019-09-17T07:09:28Z</time>
      </trkpt>
      <trkpt lat="47.92321" lon="7.00942">
        <ele>1140.9</ele>
        <time>2019-09-17T07:09:30Z</time>
      </trkpt>
      <trkpt lat="47.92318" lon="7.00939">
        <ele>1140.3</ele>
        <time>2019-09-17T07:09:32Z</time>
      </trkpt>
      <trkpt lat="47.92316" lon="7.00936">
        <ele>1139.5</ele>
        <time>2019-09-17T07:09:34Z</time>
      </trkpt>
      <trkpt lat="47.92314" lon="7.00934">
        <ele>1138.8</ele>
        <time>2019-09-17T07:09:36Z</time>
      </trkpt>
      <trkpt lat="47.92311" lon="7.0093">
        <ele>1137.8</ele>
        <time>2019-09-17T07:09:39Z</time>
      </trkpt>
      <trkpt lat="47.92309" lon="7.00927">
        <ele>1137</ele>
        <time>2019-09-17T07:09:41Z</time>
      </trkpt>
      <trkpt lat="47.92308" lon="7.00922">
        <ele>1136.2</ele>
        <time>2019-09-17T07:09:43Z</time>
      </trkpt>
      <trkpt lat="47.92307" lon="7.00918">
        <ele>1135.3</ele>
        <time>2019-09-17T07:09:45Z</time>
      </trkpt>
      <trkpt lat="47.92306" lon="7.00913">
        <ele>1134.4</ele>
        <time>2019-09-17T07:09:47Z</time>
      </trkpt>
      <trkpt lat="47.92305" lon="7.00909">
        <ele>1133.5</ele>
        <time>2019-09-17T07:09:49Z</time>
      </trkpt>
      <trkpt lat="47.92304" lon="7.00905">
        <ele>1132.6</ele>
        <time>2019-09-17T07:09:51Z</time>
      </trkpt>
      <trkpt lat="47.92302" lon="7.00901">
        <ele>1131</ele>
        <time>2019-09-17T07:09:53Z</time>
      </trkpt>
      <trkpt lat="47.923" lon="7.00896">
        <ele>1129.8</ele>
        <time>2019-09-17T07:09:56Z</time>
      </trkpt>
      <trkpt lat="47.92298" lon="7.00892">
        <ele>1128.7</ele>
        <time>2019-09-17T07:09:59Z</time>
      </trkpt>
      <trkpt lat="47.92296" lon="7.00889">
        <ele>1127.8</ele>
        <time>2019-09-17T07:10:02Z</time>
      </trkpt>
      <trkpt lat="47.92293" lon="7.00888">
        <ele>1126.9</ele>
        <time>2019-09-17T07:10:05Z</time>
      </trkpt>
      <trkpt lat="47.92289" lon="7.00886">
        <ele>1125.8</ele>
        <time>2019-09-17T07:10:08Z</time>
      </trkpt>
      <trkpt lat="47.92287" lon="7.00885">
        <ele>1125</ele>
        <time>2019-09-17T07:10:10Z</time>
      </trkpt>
      <trkpt lat="47.92284" lon="7.00885">
        <ele>1124.1</ele>
        <time>2019-09-17T07:10:12Z</time>
      </trkpt>
      <trkpt lat="47.92281" lon="7.00884">
        <ele>1123.3</ele>
        <time>2019-09-17T07:10:14Z</time>
      </trkpt>
      <trkpt lat="47.92277" lon="7.00883">
        <ele>1122.4</ele>
        <time>2019-09-17T07:10:16Z</time>
      </trkpt>
      <trkpt lat="47.92274" lon="7.00882">
        <ele>1121.9</ele>
        <time>2019-09-17T07:10:19Z</time>
      </trkpt>
      <trkpt lat="47.9227" lon="7.00882">
        <ele>1121.5</ele>
        <time>2019-09-17T07:10:22Z</time>
      </trkpt>
      <trkpt lat="47.92266" lon="7.00881">
        <ele>1121</ele>
        <time>2019-09-17T07:10:25Z</time>
      </trkpt>
      <trkpt lat="47.92263" lon="7.00881">
        <ele>1120.7</ele>
        <time>2019-09-17T07:10:27Z</time>
      </trkpt>
      <trkpt lat="47.9226" lon="7.00881">
        <ele>1120.3</ele>
        <time>2019-09-17T07:10:29Z</time>
      </trkpt>
      <trkpt lat="47.92258" lon="7.00881">
        <ele>1119.9</ele>
        <time>2019-09-17T07:10:31Z</time>
      </trkpt>
      <trkpt lat="47.92255" lon="7.0088">
        <ele>1119.6</ele>
        <time>2019-09-17T07:10:33Z</time>
      </trkpt>
      <trkpt lat="47.92252" lon="7.0088">
        <ele>1119.2</ele>
        <time>2019-09-17T07:10:35Z</time>
      </trkpt>
      <trkpt lat="47.92249" lon="7.0088">
        <ele>1118.8</ele>
        <time>2019-09-17T07:10:37Z</time>
      </trkpt>
      <trkpt lat="47.92246" lon="7.00879">
        <ele>1118.5</ele>
        <time>2019-09-17T07:10:39Z</time>
      </trkpt>
      <trkpt lat="47.92243" lon="7.00879">
        <ele>1118.2</ele>
        <time>2019-09-17T07:10:41Z</time>
      </trkpt>
      <trkpt lat="47.9224" lon="7.00878">
        <ele>1117.8</ele>
        <time>2019-09-17T07:10:43Z</time>
      </trkpt>
      <trkpt lat="47.92237" lon="7.00877">
        <ele>1117.4</ele>
        <time>2019-09-17T07:10:45Z</time>
      </trkpt>
      <trkpt lat="47.92235" lon="7.00876">
        <ele>1117.1</ele>
        <time>2019-09-17T07:10:47Z</time>
      </trkpt>
      <trkpt lat="47.92231" lon="7.00876">
        <ele>1116.9</ele>
        <time>2019-09-17T07:10:49Z</time>
      </trkpt>
      <trkpt lat="47.92227" lon="7.00876">
        <ele>1116.8</ele>
        <time>2019-09-17T07:10:52Z</time>
      </trkpt>
      <trkpt lat="47.92224" lon="7.00876">
        <ele>1116.7</ele>
        <time>2019-09-17T07:10:54Z</time>
      </trkpt>
      <trkpt lat="47.9222" lon="7.00876">
        <ele>1116.5</ele>
        <time>2019-09-17T07:10:57Z</time>
      </trkpt>
      <trkpt lat="47.92217" lon="7.00876">
        <ele>1116.4</ele>
        <time>2019-09-17T07:11:00Z</time>
      </trkpt>
      <trkpt lat="47.92213" lon="7.00876">
        <ele>1116.2</ele>
        <time>2019-09-17T07:11:03Z</time>
      </trkpt>
      <trkpt lat="47.92211" lon="7.00876">
        <ele>1116</ele>
        <time>2019-09-17T07:11:05Z</time>
      </trkpt>
      <trkpt lat="47.92208" lon="7.00875">
        <ele>1115.9</ele>
        <time>2019-09-17T07:11:07Z</time>
      </trkpt>
      <trkpt lat="47.92205" lon="7.00878">
        <ele>1115.7</ele>
        <time>2019-09-17T07:11:10Z</time>
      </trkpt>
      <trkpt lat="47.92203" lon="7.00881">
        <ele>1115.6</ele>
        <time>2019-09-17T07:11:14Z</time>
      </trkpt>
      <trkpt lat="47.92201" lon="7.00884">
        <ele>1115.4</ele>
        <time>2019-09-17T07:11:17Z</time>
      </trkpt>
      <trkpt lat="47.92199" lon="7.00887">
        <ele>1115.3</ele>
        <time>2019-09-17T07:11:20Z</time>
      </trkpt>
      <trkpt lat="47.92196" lon="7.0089">
        <ele>1115.2</ele>
        <time>2019-09-17T07:11:23Z</time>
      </trkpt>
      <trkpt lat="47.92193" lon="7.00894">
        <ele>1115.1</ele>
        <time>2019-09-17T07:11:26Z</time>
      </trkpt>
      <trkpt lat="47.92191" lon="7.00897">
        <ele>1115</ele>
        <time>2019-09-17T07:11:29Z</time>
      </trkpt>
      <trkpt lat="47.92189" lon="7.00901">
        <ele>1114.8</ele>
        <time>2019-09-17T07:11:32Z</time>
      </trkpt>
      <trkpt lat="47.92188" lon="7.00905">
        <ele>1114.7</ele>
        <time>2019-09-17T07:11:35Z</time>
      </trkpt>
      <trkpt lat="47.92186" lon="7.00909">
        <ele>1114.6</ele>
        <time>2019-09-17T07:11:38Z</time>
      </trkpt>
      <trkpt lat="47.92183" lon="7.00912">
        <ele>1114.4</ele>
        <time>2019-09-17T07:11:41Z</time>
      </trkpt>
      <trkpt lat="47.92179" lon="7.00914">
        <ele>1114.3</ele>
        <time>2019-09-17T07:11:44Z</time>
      </trkpt>
      <trkpt lat="47.92176" lon="7.00916">
        <ele>1114.1</ele>
        <time>2019-09-17T07:11:47Z</time>
      </trkpt>
      <trkpt lat="47.92173" lon="7.00917">
        <ele>1114</ele>
        <time>2019-09-17T07:11:49Z</time>
      </trkpt>
      <trkpt lat="47.92169" lon="7.00918">
        <ele>1113.8</ele>
        <time>2019-09-17T07:11:52Z</time>
      </trkpt>
      <trkpt lat="47.92166" lon="7.0092">
        <ele>1113.6</ele>
        <time>2019-09-17T07:11:55Z</time>
      </trkpt>
      <trkpt lat="47.92162" lon="7.00921">
        <ele>1113.4</ele>
        <time>2019-09-17T07:12:06Z</time>
      </trkpt>
      <trkpt lat="47.9216" lon="7.0092">
        <ele>1113.2</ele>
        <time>2019-09-17T07:12:08Z</time>
      </trkpt>
      <trkpt lat="47.92156" lon="7.00919">
        <ele>1113.1</ele>
        <time>2019-09-17T07:12:11Z</time>
      </trkpt>
      <trkpt lat="47.92153" lon="7.00917">
        <ele>1113</ele>
        <time>2019-09-17T07:12:14Z</time>
      </trkpt>
      <trkpt lat="47.9215" lon="7.00915">
        <ele>1112.9</ele>
        <time>2019-09-17T07:12:17Z</time>
      </trkpt>
      <trkpt lat="47.92147" lon="7.00913">
        <ele>1112.8</ele>
        <time>2019-09-17T07:12:20Z</time>
      </trkpt>
      <trkpt lat="47.92145" lon="7.00911">
        <ele>1112.7</ele>
        <time>2019-09-17T07:12:22Z</time>
      </trkpt>
      <trkpt lat="47.92141" lon="7.00909">
        <ele>1112.6</ele>
        <time>2019-09-17T07:12:24Z</time>
      </trkpt>
      <trkpt lat="47.92138" lon="7.00907">
        <ele>1112.5</ele>
        <time>2019-09-17T07:12:25Z</time>
      </trkpt>
      <trkpt lat="47.92134" lon="7.00905">
        <ele>1112.3</ele>
        <time>2019-09-17T07:12:27Z</time>
      </trkpt>
      <trkpt lat="47.92131" lon="7.00904">
        <ele>1112.2</ele>
        <time>2019-09-17T07:12:29Z</time>
      </trkpt>
      <trkpt lat="47.92128" lon="7.00902">
        <ele>1112</ele>
        <time>2019-09-17T07:12:32Z</time>
      </trkpt>
      <trkpt lat="47.92125" lon="7.00901">
        <ele>1111.7</ele>
        <time>2019-09-17T07:12:35Z</time>
      </trkpt>
      <trkpt lat="47.92122" lon="7.009">
        <ele>1111.5</ele>
        <time>2019-09-17T07:12:37Z</time>
      </trkpt>
      <trkpt lat="47.92118" lon="7.00899">
        <ele>1111.4</ele>
        <time>2019-09-17T07:12:40Z</time>
      </trkpt>
      <trkpt lat="47.92115" lon="7.00898">
        <ele>1111.2</ele>
        <time>2019-09-17T07:12:43Z</time>
      </trkpt>
      <trkpt lat="47.92112" lon="7.00897">
        <ele>1111.1</ele>
        <time>2019-09-17T07:12:46Z</time>
      </trkpt>
      <trkpt lat="47.92109" lon="7.00894">
        <ele>1110.9</ele>
        <time>2019-09-17T07:12:49Z</time>
      </trkpt>
      <trkpt lat="47.92107" lon="7.00892">
        <ele>1110.6</ele>
        <time>2019-09-17T07:12:52Z</time>
      </trkpt>
      <trkpt lat="47.92106" lon="7.00886">
        <ele>1110.3</ele>
        <time>2019-09-17T07:13:24Z</time>
      </trkpt>
      <trkpt lat="47.92103" lon="7.00883">
        <ele>1110</ele>
        <time>2019-09-17T07:13:27Z</time>
      </trkpt>
      <trkpt lat="47.921" lon="7.00883">
        <ele>1109.7</ele>
        <time>2019-09-17T07:13:32Z</time>
      </trkpt>
      <trkpt lat="47.92097" lon="7.00881">
        <ele>1109.5</ele>
        <time>2019-09-17T07:13:37Z</time>
      </trkpt>
      <trkpt lat="47.92094" lon="7.0088">
        <ele>1109.2</ele>
        <time>2019-09-17T07:13:45Z</time>
      </trkpt>
      <trkpt lat="47.92091" lon="7.0088">
        <ele>1109</ele>
        <time>2019-09-17T07:13:52Z</time>
      </trkpt>
      <trkpt lat="47.92088" lon="7.00879">
        <ele>1108.7</ele>
        <time>2019-09-17T07:13:55Z</time>
      </trkpt>
      <trkpt lat="47.92085" lon="7.00879">
        <ele>1108.5</ele>
        <time>2019-09-17T07:13:58Z</time>
      </trkpt>
      <trkpt lat="47.92083" lon="7.00878">
        <ele>1108.2</ele>
        <time>2019-09-17T07:14:03Z</time>
      </trkpt>
      <trkpt lat="47.92079" lon="7.00877">
        <ele>1107.8</ele>
        <time>2019-09-17T07:14:06Z</time>
      </trkpt>
      <trkpt lat="47.92076" lon="7.00877">
        <ele>1107.6</ele>
        <time>2019-09-17T07:14:08Z</time>
      </trkpt>
      <trkpt lat="47.92073" lon="7.00876">
        <ele>1107.3</ele>
        <time>2019-09-17T07:14:12Z</time>
      </trkpt>
      <trkpt lat="47.92071" lon="7.00874">
        <ele>1107</ele>
        <time>2019-09-17T07:14:17Z</time>
      </trkpt>
      <trkpt lat="47.92067" lon="7.00873">
        <ele>1106.6</ele>
        <time>2019-09-17T07:14:20Z</time>
      </trkpt>
      <trkpt lat="47.92064" lon="7.00872">
        <ele>1106.2</ele>
        <time>2019-09-17T07:14:23Z</time>
      </trkpt>
      <trkpt lat="47.92061" lon="7.00873">
        <ele>1105.9</ele>
        <time>2019-09-17T07:14:26Z</time>
      </trkpt>
      <trkpt lat="47.92059" lon="7.00873">
        <ele>1105.5</ele>
        <time>2019-09-17T07:14:30Z</time>
      </trkpt>
      <trkpt lat="47.92056" lon="7.00873">
        <ele>1105.1</ele>
        <time>2019-09-17T07:14:38Z</time>
      </trkpt>
      <trkpt lat="47.9205" lon="7.00874">
        <ele>1104.2</ele>
        <time>2019-09-17T07:16:46Z</time>
      </trkpt>
      <trkpt lat="47.92052" lon="7.00872">
        <ele>1103.8</ele>
        <time>2019-09-17T07:17:16Z</time>
      </trkpt>
      <trkpt lat="47.92055" lon="7.00869">
        <ele>1103.3</ele>
        <time>2019-09-17T07:17:35Z</time>
      </trkpt>
      <trkpt lat="47.92052" lon="7.0087">
        <ele>1102.9</ele>
        <time>2019-09-17T07:17:44Z</time>
      </trkpt>
      <trkpt lat="47.92049" lon="7.00869">
        <ele>1102.5</ele>
        <time>2019-09-17T07:17:46Z</time>
      </trkpt>
      <trkpt lat="47.92044" lon="7.00867">
        <ele>1101.9</ele>
        <time>2019-09-17T07:17:48Z</time>
      </trkpt>
      <trkpt lat="47.92041" lon="7.00865">
        <ele>1101.6</ele>
        <time>2019-09-17T07:17:51Z</time>
      </trkpt>
      <trkpt lat="47.92039" lon="7.00862">
        <ele>1101.3</ele>
        <time>2019-09-17T07:17:55Z</time>
      </trkpt>
      <trkpt lat="47.92037" lon="7.0086">
        <ele>1101</ele>
        <time>2019-09-17T07:17:59Z</time>
      </trkpt>
      <trkpt lat="47.92034" lon="7.0086">
        <ele>1100.8</ele>
        <time>2019-09-17T07:18:02Z</time>
      </trkpt>
      <trkpt lat="47.9203" lon="7.00861">
        <ele>1100.5</ele>
        <time>2019-09-17T07:18:06Z</time>
      </trkpt>
      <trkpt lat="47.92027" lon="7.00861">
        <ele>1100.3</ele>
        <time>2019-09-17T07:18:09Z</time>
      </trkpt>
      <trkpt lat="47.92024" lon="7.00857">
        <ele>1100.1</ele>
        <time>2019-09-17T07:18:12Z</time>
      </trkpt>
      <trkpt lat="47.92021" lon="7.00854">
        <ele>1100</ele>
        <time>2019-09-17T07:18:14Z</time>
      </trkpt>
      <trkpt lat="47.92017" lon="7.00852">
        <ele>1099.8</ele>
        <time>2019-09-17T07:18:17Z</time>
      </trkpt>
      <trkpt lat="47.92015" lon="7.00851">
        <ele>1099.7</ele>
        <time>2019-09-17T07:18:21Z</time>
      </trkpt>
      <trkpt lat="47.92014" lon="7.00847">
        <ele>1099.6</ele>
        <time>2019-09-17T07:18:24Z</time>
      </trkpt>
      <trkpt lat="47.92012" lon="7.00844">
        <ele>1099.5</ele>
        <time>2019-09-17T07:18:26Z</time>
      </trkpt>
      <trkpt lat="47.9201" lon="7.00841">
        <ele>1099.3</ele>
        <time>2019-09-17T07:18:28Z</time>
      </trkpt>
      <trkpt lat="47.92007" lon="7.00839">
        <ele>1099.2</ele>
        <time>2019-09-17T07:18:30Z</time>
      </trkpt>
      <trkpt lat="47.92005" lon="7.00837">
        <ele>1099.1</ele>
        <time>2019-09-17T07:18:32Z</time>
      </trkpt>
      <trkpt lat="47.92002" lon="7.00835">
        <ele>1099</ele>
        <time>2019-09-17T07:18:34Z</time>
      </trkpt>
      <trkpt lat="47.91999" lon="7.00834">
        <ele>1098.9</ele>
        <time>2019-09-17T07:18:36Z</time>
      </trkpt>
      <trkpt lat="47.91997" lon="7.00832">
        <ele>1098.7</ele>
        <time>2019-09-17T07:18:38Z</time>
      </trkpt>
      <trkpt lat="47.91994" lon="7.00831">
        <ele>1098.6</ele>
        <time>2019-09-17T07:18:41Z</time>
      </trkpt>
      <trkpt lat="47.91991" lon="7.0083">
        <ele>1098.4</ele>
        <time>2019-09-17T07:18:44Z</time>
      </trkpt>
      <trkpt lat="47.91989" lon="7.00828">
        <ele>1098.2</ele>
        <time>2019-09-17T07:18:46Z</time>
      </trkpt>
      <trkpt lat="47.91985" lon="7.00828">
        <ele>1098.1</ele>
        <time>2019-09-17T07:18:50Z</time>
      </trkpt>
      <trkpt lat="47.91982" lon="7.00828">
        <ele>1097.9</ele>
        <time>2019-09-17T07:18:53Z</time>
      </trkpt>
      <trkpt lat="47.91978" lon="7.00827">
        <ele>1097.8</ele>
        <time>2019-09-17T07:18:56Z</time>
      </trkpt>
      <trkpt lat="47.91975" lon="7.00825">
        <ele>1097.8</ele>
        <time>2019-09-17T07:18:59Z</time>
      </trkpt>
      <trkpt lat="47.9197" lon="7.00823">
        <ele>1097.7</ele>
        <time>2019-09-17T07:19:02Z</time>
      </trkpt>
      <trkpt lat="47.91967" lon="7.00821">
        <ele>1097.6</ele>
        <time>2019-09-17T07:19:03Z</time>
      </trkpt>
      <trkpt lat="47.91964" lon="7.0082">
        <ele>1097.6</ele>
        <time>2019-09-17T07:19:04Z</time>
      </trkpt>
      <trkpt lat="47.9196" lon="7.00818">
        <ele>1097.6</ele>
        <time>2019-09-17T07:19:06Z</time>
      </trkpt>
      <trkpt lat="47.91956" lon="7.00817">
        <ele>1097.6</ele>
        <time>2019-09-17T07:19:08Z</time>
      </trkpt>
      <trkpt lat="47.91953" lon="7.00815">
        <ele>1097.6</ele>
        <time>2019-09-17T07:19:10Z</time>
      </trkpt>
      <trkpt lat="47.9195" lon="7.00814">
        <ele>1097.6</ele>
        <time>2019-09-17T07:19:12Z</time>
      </trkpt>
      <trkpt lat="47.91946" lon="7.00813">
        <ele>1097.5</ele>
        <time>2019-09-17T07:19:14Z</time>
      </trkpt>
      <trkpt lat="47.91944" lon="7.00811">
        <ele>1097.5</ele>
        <time>2019-09-17T07:19:16Z</time>
      </trkpt>
      <trkpt lat="47.91941" lon="7.0081">
        <ele>1097.5</ele>
        <time>2019-09-17T07:19:19Z</time>
      </trkpt>
      <trkpt lat="47.91938" lon="7.00808">
        <ele>1097.5</ele>
        <time>2019-09-17T07:19:22Z</time>
      </trkpt>
      <trkpt lat="47.91935" lon="7.00806">
        <ele>1097.5</ele>
        <time>2019-09-17T07:19:26Z</time>
      </trkpt>
      <trkpt lat="47.91932" lon="7.00804">
        <ele>1097.5</ele>
        <time>2019-09-17T07:19:30Z</time>
      </trkpt>
      <trkpt lat="47.91929" lon="7.008">
        <ele>1097.5</ele>
        <time>2019-09-17T07:19:33Z</time>
      </trkpt>
      <trkpt lat="47.91926" lon="7.00797">
        <ele>1097.5</ele>
        <time>2019-09-17T07:19:35Z</time>
      </trkpt>
      <trkpt lat="47.91923" lon="7.00795">
        <ele>1097.5</ele>
        <time>2019-09-17T07:19:37Z</time>
      </trkpt>
      <trkpt lat="47.91921" lon="7.00792">
        <ele>1097.5</ele>
        <time>2019-09-17T07:19:39Z</time>
      </trkpt>
      <trkpt lat="47.91918" lon="7.0079">
        <ele>1097.5</ele>
        <time>2019-09-17T07:19:41Z</time>
      </trkpt>
      <trkpt lat="47.91915" lon="7.00789">
        <ele>1097.5</ele>
        <time>2019-09-17T07:19:44Z</time>
      </trkpt>
      <trkpt lat="47.91912" lon="7.00792">
        <ele>1097.5</ele>
        <time>2019-09-17T07:19:48Z</time>
      </trkpt>
      <trkpt lat="47.9191" lon="7.00788">
        <ele>1097.5</ele>
        <time>2019-09-17T07:19:51Z</time>
      </trkpt>
      <trkpt lat="47.91907" lon="7.00792">
        <ele>1097.5</ele>
        <time>2019-09-17T07:19:57Z</time>
      </trkpt>
      <trkpt lat="47.91905" lon="7.00792">
        <ele>1097.5</ele>
        <time>2019-09-17T07:20:00Z</time>
      </trkpt>
      <trkpt lat="47.91902" lon="7.00793">
        <ele>1097.5</ele>
        <time>2019-09-17T07:20:07Z</time>
      </trkpt>
      <trkpt lat="47.91899" lon="7.00792">
        <ele>1097.5</ele>
        <time>2019-09-17T07:20:10Z</time>
      </trkpt>
      <trkpt lat="47.91895" lon="7.0079">
        <ele>1097.5</ele>
        <time>2019-09-17T07:20:12Z</time>
      </trkpt>
      <trkpt lat="47.91893" lon="7.00787">
        <ele>1097.5</ele>
        <time>2019-09-17T07:20:15Z</time>
      </trkpt>
      <trkpt lat="47.9189" lon="7.00787">
        <ele>1097.5</ele>
        <time>2019-09-17T07:20:18Z</time>
      </trkpt>
      <trkpt lat="47.91886" lon="7.00786">
        <ele>1097.5</ele>
        <time>2019-09-17T07:20:21Z</time>
      </trkpt>
      <trkpt lat="47.91882" lon="7.00784">
        <ele>1097.5</ele>
        <time>2019-09-17T07:20:24Z</time>
      </trkpt>
      <trkpt lat="47.91879" lon="7.00782">
        <ele>1097.5</ele>
        <time>2019-09-17T07:20:29Z</time>
      </trkpt>
      <trkpt lat="47.91876" lon="7.00781">
        <ele>1097.5</ele>
        <time>2019-09-17T07:20:32Z</time>
      </trkpt>
      <trkpt lat="47.91873" lon="7.00782">
        <ele>1097.5</ele>
        <time>2019-09-17T07:20:36Z</time>
      </trkpt>
      <trkpt lat="47.9187" lon="7.00781">
        <ele>1097.5</ele>
        <time>2019-09-17T07:20:39Z</time>
      </trkpt>
      <trkpt lat="47.91867" lon="7.00779">
        <ele>1097.5</ele>
        <time>2019-09-17T07:20:41Z</time>
      </trkpt>
      <trkpt lat="47.91863" lon="7.00776">
        <ele>1097.5</ele>
        <time>2019-09-17T07:20:43Z</time>
      </trkpt>
      <trkpt lat="47.9186" lon="7.00773">
        <ele>1097.5</ele>
        <time>2019-09-17T07:20:45Z</time>
      </trkpt>
      <trkpt lat="47.91857" lon="7.0077">
        <ele>1097.5</ele>
        <time>2019-09-17T07:20:47Z</time>
      </trkpt>
      <trkpt lat="47.91854" lon="7.00769">
        <ele>1097.5</ele>
        <time>2019-09-17T07:20:49Z</time>
      </trkpt>
      <trkpt lat="47.91851" lon="7.00767">
        <ele>1097.5</ele>
        <time>2019-09-17T07:20:51Z</time>
      </trkpt>
      <trkpt lat="47.91848" lon="7.00764">
        <ele>1097.5</ele>
        <time>2019-09-17T07:20:54Z</time>
      </trkpt>
      <trkpt lat="47.91846" lon="7.00762">
        <ele>1097.5</ele>
        <time>2019-09-17T07:20:57Z</time>
      </trkpt>
      <trkpt lat="47.91843" lon="7.00761">
        <ele>1097.5</ele>
        <time>2019-09-17T07:21:01Z</time>
      </trkpt>
      <trkpt lat="47.91841" lon="7.00757">
        <ele>1097.5</ele>
        <time>2019-09-17T07:21:05Z</time>
      </trkpt>
      <trkpt lat="47.91838" lon="7.00754">
        <ele>1097.6</ele>
        <time>2019-09-17T07:21:08Z</time>
      </trkpt>
      <trkpt lat="47.91836" lon="7.00752">
        <ele>1097.6</ele>
        <time>2019-09-17T07:21:10Z</time>
      </trkpt>
      <trkpt lat="47.91834" lon="7.00749">
        <ele>1097.6</ele>
        <time>2019-09-17T07:21:12Z</time>
      </trkpt>
      <trkpt lat="47.91832" lon="7.00745">
        <ele>1097.6</ele>
        <time>2019-09-17T07:21:15Z</time>
      </trkpt>
      <trkpt lat="47.91829" lon="7.00742">
        <ele>1097.6</ele>
        <time>2019-09-17T07:21:18Z</time>
      </trkpt>
      <trkpt lat="47.91826" lon="7.00739">
        <ele>1097.7</ele>
        <time>2019-09-17T07:21:20Z</time>
      </trkpt>
      <trkpt lat="47.91824" lon="7.00735">
        <ele>1097.7</ele>
        <time>2019-09-17T07:21:22Z</time>
      </trkpt>
      <trkpt lat="47.91823" lon="7.00731">
        <ele>1097.7</ele>
        <time>2019-09-17T07:21:24Z</time>
      </trkpt>
      <trkpt lat="47.91821" lon="7.00727">
        <ele>1097.7</ele>
        <time>2019-09-17T07:21:26Z</time>
      </trkpt>
      <trkpt lat="47.91819" lon="7.00723">
        <ele>1097.8</ele>
        <time>2019-09-17T07:21:28Z</time>
      </trkpt>
      <trkpt lat="47.91816" lon="7.0072">
        <ele>1097.8</ele>
        <time>2019-09-17T07:21:30Z</time>
      </trkpt>
      <trkpt lat="47.91815" lon="7.00716">
        <ele>1097.9</ele>
        <time>2019-09-17T07:21:33Z</time>
      </trkpt>
      <trkpt lat="47.91814" lon="7.0071">
        <ele>1098</ele>
        <time>2019-09-17T07:21:36Z</time>
      </trkpt>
      <trkpt lat="47.91812" lon="7.00706">
        <ele>1098</ele>
        <time>2019-09-17T07:21:38Z</time>
      </trkpt>
      <trkpt lat="47.9181" lon="7.00702">
        <ele>1098.1</ele>
        <time>2019-09-17T07:21:40Z</time>
      </trkpt>
      <trkpt lat="47.91808" lon="7.00698">
        <ele>1098.2</ele>
        <time>2019-09-17T07:21:42Z</time>
      </trkpt>
      <trkpt lat="47.91806" lon="7.00694">
        <ele>1098.3</ele>
        <time>2019-09-17T07:21:44Z</time>
      </trkpt>
      <trkpt lat="47.91804" lon="7.00688">
        <ele>1098.5</ele>
        <time>2019-09-17T07:21:46Z</time>
      </trkpt>
      <trkpt lat="47.91801" lon="7.00684">
        <ele>1098.6</ele>
        <time>2019-09-17T07:21:48Z</time>
      </trkpt>
      <trkpt lat="47.91799" lon="7.0068">
        <ele>1098.7</ele>
        <time>2019-09-17T07:21:50Z</time>
      </trkpt>
      <trkpt lat="47.91797" lon="7.00675">
        <ele>1098.9</ele>
        <time>2019-09-17T07:21:59Z</time>
      </trkpt>
      <trkpt lat="47.91794" lon="7.00671">
        <ele>1099</ele>
        <time>2019-09-17T07:22:02Z</time>
      </trkpt>
      <trkpt lat="47.91793" lon="7.00667">
        <ele>1099.1</ele>
        <time>2019-09-17T07:22:06Z</time>
      </trkpt>
      <trkpt lat="47.91792" lon="7.00663">
        <ele>1099.2</ele>
        <time>2019-09-17T07:22:09Z</time>
      </trkpt>
      <trkpt lat="47.9179" lon="7.00659">
        <ele>1099.3</ele>
        <time>2019-09-17T07:22:12Z</time>
      </trkpt>
      <trkpt lat="47.91787" lon="7.00655">
        <ele>1099.3</ele>
        <time>2019-09-17T07:22:15Z</time>
      </trkpt>
      <trkpt lat="47.91784" lon="7.00652">
        <ele>1099.4</ele>
        <time>2019-09-17T07:22:18Z</time>
      </trkpt>
      <trkpt lat="47.91782" lon="7.00649">
        <ele>1099.4</ele>
        <time>2019-09-17T07:22:22Z</time>
      </trkpt>
      <trkpt lat="47.91778" lon="7.00645">
        <ele>1099.3</ele>
        <time>2019-09-17T07:22:25Z</time>
      </trkpt>
      <trkpt lat="47.91775" lon="7.00642">
        <ele>1099.3</ele>
        <time>2019-09-17T07:22:27Z</time>
      </trkpt>
      <trkpt lat="47.9177" lon="7.00641">
        <ele>1099.2</ele>
        <time>2019-09-17T07:22:29Z</time>
      </trkpt>
      <trkpt lat="47.91767" lon="7.00639">
        <ele>1099.2</ele>
        <time>2019-09-17T07:22:31Z</time>
      </trkpt>
      <trkpt lat="47.91763" lon="7.00636">
        <ele>1099.1</ele>
        <time>2019-09-17T07:22:33Z</time>
      </trkpt>
      <trkpt lat="47.91759" lon="7.00633">
        <ele>1099</ele>
        <time>2019-09-17T07:22:35Z</time>
      </trkpt>
      <trkpt lat="47.91756" lon="7.00631">
        <ele>1098.9</ele>
        <time>2019-09-17T07:22:37Z</time>
      </trkpt>
      <trkpt lat="47.91754" lon="7.00628">
        <ele>1098.8</ele>
        <time>2019-09-17T07:22:39Z</time>
      </trkpt>
      <trkpt lat="47.91751" lon="7.00626">
        <ele>1098.7</ele>
        <time>2019-09-17T07:22:41Z</time>
      </trkpt>
      <trkpt lat="47.91747" lon="7.00626">
        <ele>1098.6</ele>
        <time>2019-09-17T07:22:44Z</time>
      </trkpt>
      <trkpt lat="47.91743" lon="7.00626">
        <ele>1098.4</ele>
        <time>2019-09-17T07:22:47Z</time>
      </trkpt>
      <trkpt lat="47.9174" lon="7.00625">
        <ele>1098.3</ele>
        <time>2019-09-17T07:22:50Z</time>
      </trkpt>
      <trkpt lat="47.91737" lon="7.00623">
        <ele>1098.1</ele>
        <time>2019-09-17T07:22:53Z</time>
      </trkpt>
      <trkpt lat="47.91734" lon="7.00621">
        <ele>1097.8</ele>
        <time>2019-09-17T07:22:55Z</time>
      </trkpt>
      <trkpt lat="47.91732" lon="7.0062">
        <ele>1097.6</ele>
        <time>2019-09-17T07:22:57Z</time>
      </trkpt>
      <trkpt lat="47.91728" lon="7.00619">
        <ele>1097.2</ele>
        <time>2019-09-17T07:22:59Z</time>
      </trkpt>
      <trkpt lat="47.91725" lon="7.00618">
        <ele>1096.8</ele>
        <time>2019-09-17T07:23:01Z</time>
      </trkpt>
      <trkpt lat="47.91722" lon="7.00618">
        <ele>1096.5</ele>
        <time>2019-09-17T07:23:04Z</time>
      </trkpt>
      <trkpt lat="47.9172" lon="7.00617">
        <ele>1096.2</ele>
        <time>2019-09-17T07:23:07Z</time>
      </trkpt>
      <trkpt lat="47.91716" lon="7.00617">
        <ele>1095.9</ele>
        <time>2019-09-17T07:23:10Z</time>
      </trkpt>
      <trkpt lat="47.91714" lon="7.00614">
        <ele>1095.4</ele>
        <time>2019-09-17T07:23:13Z</time>
      </trkpt>
      <trkpt lat="47.91712" lon="7.00611">
        <ele>1095.1</ele>
        <time>2019-09-17T07:23:15Z</time>
      </trkpt>
      <trkpt lat="47.91708" lon="7.0061">
        <ele>1094.7</ele>
        <time>2019-09-17T07:23:17Z</time>
      </trkpt>
      <trkpt lat="47.91704" lon="7.0061">
        <ele>1094.3</ele>
        <time>2019-09-17T07:23:19Z</time>
      </trkpt>
      <trkpt lat="47.91701" lon="7.00608">
        <ele>1094</ele>
        <time>2019-09-17T07:23:21Z</time>
      </trkpt>
      <trkpt lat="47.91698" lon="7.00606">
        <ele>1093.7</ele>
        <time>2019-09-17T07:23:23Z</time>
      </trkpt>
      <trkpt lat="47.91695" lon="7.00606">
        <ele>1093.5</ele>
        <time>2019-09-17T07:23:25Z</time>
      </trkpt>
      <trkpt lat="47.91692" lon="7.00604">
        <ele>1093.3</ele>
        <time>2019-09-17T07:23:27Z</time>
      </trkpt>
      <trkpt lat="47.9169" lon="7.00601">
        <ele>1093.1</ele>
        <time>2019-09-17T07:23:29Z</time>
      </trkpt>
      <trkpt lat="47.91688" lon="7.00598">
        <ele>1092.8</ele>
        <time>2019-09-17T07:23:31Z</time>
      </trkpt>
      <trkpt lat="47.91685" lon="7.00596">
        <ele>1092.6</ele>
        <time>2019-09-17T07:23:33Z</time>
      </trkpt>
      <trkpt lat="47.91682" lon="7.00594">
        <ele>1092.3</ele>
        <time>2019-09-17T07:23:35Z</time>
      </trkpt>
      <trkpt lat="47.91679" lon="7.00593">
        <ele>1092</ele>
        <time>2019-09-17T07:23:37Z</time>
      </trkpt>
      <trkpt lat="47.91676" lon="7.00593">
        <ele>1091.7</ele>
        <time>2019-09-17T07:23:39Z</time>
      </trkpt>
      <trkpt lat="47.91672" lon="7.00592">
        <ele>1091.4</ele>
        <time>2019-09-17T07:23:41Z</time>
      </trkpt>
      <trkpt lat="47.91668" lon="7.0059">
        <ele>1091.1</ele>
        <time>2019-09-17T07:23:43Z</time>
      </trkpt>
      <trkpt lat="47.91665" lon="7.0059">
        <ele>1090.8</ele>
        <time>2019-09-17T07:23:45Z</time>
      </trkpt>
      <trkpt lat="47.91662" lon="7.00589">
        <ele>1090.6</ele>
        <time>2019-09-17T07:23:47Z</time>
      </trkpt>
      <trkpt lat="47.91659" lon="7.00588">
        <ele>1090.2</ele>
        <time>2019-09-17T07:23:49Z</time>
      </trkpt>
      <trkpt lat="47.91656" lon="7.00587">
        <ele>1090</ele>
        <time>2019-09-17T07:23:51Z</time>
      </trkpt>
      <trkpt lat="47.91652" lon="7.00586">
        <ele>1089.7</ele>
        <time>2019-09-17T07:23:54Z</time>
      </trkpt>
      <trkpt lat="47.91649" lon="7.00586">
        <ele>1089.4</ele>
        <time>2019-09-17T07:23:58Z</time>
      </trkpt>
      <trkpt lat="47.91646" lon="7.00586">
        <ele>1089.2</ele>
        <time>2019-09-17T07:24:00Z</time>
      </trkpt>
      <trkpt lat="47.91643" lon="7.00586">
        <ele>1088.9</ele>
        <time>2019-09-17T07:24:02Z</time>
      </trkpt>
      <trkpt lat="47.91639" lon="7.00586">
        <ele>1088.6</ele>
        <time>2019-09-17T07:24:04Z</time>
      </trkpt>
      <trkpt lat="47.91636" lon="7.00586">
        <ele>1088.3</ele>
        <time>2019-09-17T07:24:06Z</time>
      </trkpt>
      <trkpt lat="47.91633" lon="7.00586">
        <ele>1088</ele>
        <time>2019-09-17T07:24:08Z</time>
      </trkpt>
      <trkpt lat="47.9163" lon="7.00585">
        <ele>1087.7</ele>
        <time>2019-09-17T07:24:10Z</time>
      </trkpt>
      <trkpt lat="47.91626" lon="7.00585">
        <ele>1087.4</ele>
        <time>2019-09-17T07:24:12Z</time>
      </trkpt>
      <trkpt lat="47.91622" lon="7.00584">
        <ele>1087.2</ele>
        <time>2019-09-17T07:24:14Z</time>
      </trkpt>
      <trkpt lat="47.91619" lon="7.00584">
        <ele>1086.9</ele>
        <time>2019-09-17T07:24:16Z</time>
      </trkpt>
      <trkpt lat="47.91615" lon="7.00584">
        <ele>1086.7</ele>
        <time>2019-09-17T07:24:18Z</time>
      </trkpt>
      <trkpt lat="47.91612" lon="7.00584">
        <ele>1086.4</ele>
        <time>2019-09-17T07:24:21Z</time>
      </trkpt>
      <trkpt lat="47.91609" lon="7.00584">
        <ele>1086.2</ele>
        <time>2019-09-17T07:24:24Z</time>
      </trkpt>
      <trkpt lat="47.91606" lon="7.00583">
        <ele>1086</ele>
        <time>2019-09-17T07:24:27Z</time>
      </trkpt>
      <trkpt lat="47.91605" lon="7.00579">
        <ele>1085.9</ele>
        <time>2019-09-17T07:24:31Z</time>
      </trkpt>
      <trkpt lat="47.91603" lon="7.00577">
        <ele>1085.7</ele>
        <time>2019-09-17T07:24:33Z</time>
      </trkpt>
      <trkpt lat="47.916" lon="7.00574">
        <ele>1085.5</ele>
        <time>2019-09-17T07:24:35Z</time>
      </trkpt>
      <trkpt lat="47.91597" lon="7.00572">
        <ele>1085.3</ele>
        <time>2019-09-17T07:24:37Z</time>
      </trkpt>
      <trkpt lat="47.91594" lon="7.00569">
        <ele>1085</ele>
        <time>2019-09-17T07:24:40Z</time>
      </trkpt>
      <trkpt lat="47.91591" lon="7.00567">
        <ele>1084.8</ele>
        <time>2019-09-17T07:24:43Z</time>
      </trkpt>
      <trkpt lat="47.91587" lon="7.00566">
        <ele>1084.6</ele>
        <time>2019-09-17T07:24:48Z</time>
      </trkpt>
      <trkpt lat="47.91583" lon="7.00566">
        <ele>1084.4</ele>
        <time>2019-09-17T07:24:51Z</time>
      </trkpt>
      <trkpt lat="47.9158" lon="7.00565">
        <ele>1084.4</ele>
        <time>2019-09-17T07:24:54Z</time>
      </trkpt>
      <trkpt lat="47.91577" lon="7.00566">
        <ele>1084.4</ele>
        <time>2019-09-17T07:24:59Z</time>
      </trkpt>
      <trkpt lat="47.91573" lon="7.00568">
        <ele>1085</ele>
        <time>2019-09-17T07:25:03Z</time>
      </trkpt>
      <trkpt lat="47.9157" lon="7.0057">
        <ele>1085</ele>
        <time>2019-09-17T07:25:05Z</time>
      </trkpt>
      <trkpt lat="47.91567" lon="7.00571">
        <ele>1085.1</ele>
        <time>2019-09-17T07:25:08Z</time>
      </trkpt>
      <trkpt lat="47.91564" lon="7.00572">
        <ele>1085.7</ele>
        <time>2019-09-17T07:25:10Z</time>
      </trkpt>
      <trkpt lat="47.91561" lon="7.00573">
        <ele>1085.8</ele>
        <time>2019-09-17T07:25:12Z</time>
      </trkpt>
      <trkpt lat="47.91558" lon="7.00573">
        <ele>1086</ele>
        <time>2019-09-17T07:25:16Z</time>
      </trkpt>
      <trkpt lat="47.91555" lon="7.00572">
        <ele>1086.2</ele>
        <time>2019-09-17T07:25:18Z</time>
      </trkpt>
      <trkpt lat="47.91552" lon="7.00572">
        <ele>1086</ele>
        <time>2019-09-17T07:25:20Z</time>
      </trkpt>
      <trkpt lat="47.91548" lon="7.00572">
        <ele>1086.6</ele>
        <time>2019-09-17T07:25:22Z</time>
      </trkpt>
      <trkpt lat="47.91545" lon="7.00572">
        <ele>1087.1</ele>
        <time>2019-09-17T07:25:24Z</time>
      </trkpt>
      <trkpt lat="47.91541" lon="7.00572">
        <ele>1087.4</ele>
        <time>2019-09-17T07:25:27Z</time>
      </trkpt>
      <trkpt lat="47.91539" lon="7.00572">
        <ele>1087.6</ele>
        <time>2019-09-17T07:25:30Z</time>
      </trkpt>
      <trkpt lat="47.91535" lon="7.00573">
        <ele>1087.8</ele>
        <time>2019-09-17T07:25:34Z</time>
      </trkpt>
      <trkpt lat="47.91533" lon="7.00575">
        <ele>1088.1</ele>
        <time>2019-09-17T07:25:37Z</time>
      </trkpt>
      <trkpt lat="47.9153" lon="7.00576">
        <ele>1088.4</ele>
        <time>2019-09-17T07:25:41Z</time>
      </trkpt>
      <trkpt lat="47.91527" lon="7.00574">
        <ele>1088.7</ele>
        <time>2019-09-17T07:25:44Z</time>
      </trkpt>
      <trkpt lat="47.91524" lon="7.00573">
        <ele>1089</ele>
        <time>2019-09-17T07:25:47Z</time>
      </trkpt>
      <trkpt lat="47.91521" lon="7.00573">
        <ele>1089.3</ele>
        <time>2019-09-17T07:25:53Z</time>
      </trkpt>
      <trkpt lat="47.91518" lon="7.00572">
        <ele>1089.6</ele>
        <time>2019-09-17T07:25:57Z</time>
      </trkpt>
      <trkpt lat="47.91514" lon="7.00572">
        <ele>1089.9</ele>
        <time>2019-09-17T07:26:00Z</time>
      </trkpt>
      <trkpt lat="47.91511" lon="7.00573">
        <ele>1090.2</ele>
        <time>2019-09-17T07:26:03Z</time>
      </trkpt>
      <trkpt lat="47.91508" lon="7.00571">
        <ele>1090.4</ele>
        <time>2019-09-17T07:26:06Z</time>
      </trkpt>
      <trkpt lat="47.91504" lon="7.00571">
        <ele>1091.2</ele>
        <time>2019-09-17T07:26:09Z</time>
      </trkpt>
      <trkpt lat="47.91501" lon="7.00573">
        <ele>1091.6</ele>
        <time>2019-09-17T07:26:13Z</time>
      </trkpt>
      <trkpt lat="47.91498" lon="7.00574">
        <ele>1092</ele>
        <time>2019-09-17T07:26:17Z</time>
      </trkpt>
      <trkpt lat="47.91495" lon="7.00576">
        <ele>1092.3</ele>
        <time>2019-09-17T07:26:20Z</time>
      </trkpt>
      <trkpt lat="47.91492" lon="7.00578">
        <ele>1092.6</ele>
        <time>2019-09-17T07:26:22Z</time>
      </trkpt>
      <trkpt lat="47.91489" lon="7.0058">
        <ele>1092.9</ele>
        <time>2019-09-17T07:26:25Z</time>
      </trkpt>
      <trkpt lat="47.91486" lon="7.00582">
        <ele>1093</ele>
        <time>2019-09-17T07:26:31Z</time>
      </trkpt>
      <trkpt lat="47.91483" lon="7.00581">
        <ele>1093.2</ele>
        <time>2019-09-17T07:26:34Z</time>
      </trkpt>
      <trkpt lat="47.9148" lon="7.0058">
        <ele>1093.4</ele>
        <time>2019-09-17T07:26:37Z</time>
      </trkpt>
      <trkpt lat="47.91477" lon="7.00581">
        <ele>1093.6</ele>
        <time>2019-09-17T07:26:41Z</time>
      </trkpt>
      <trkpt lat="47.91474" lon="7.00581">
        <ele>1093.8</ele>
        <time>2019-09-17T07:26:44Z</time>
      </trkpt>
      <trkpt lat="47.91471" lon="7.00579">
        <ele>1094.1</ele>
        <time>2019-09-17T07:26:46Z</time>
      </trkpt>
      <trkpt lat="47.91468" lon="7.00579">
        <ele>1094.3</ele>
        <time>2019-09-17T07:26:48Z</time>
      </trkpt>
      <trkpt lat="47.91465" lon="7.00578">
        <ele>1094.4</ele>
        <time>2019-09-17T07:26:51Z</time>
      </trkpt>
      <trkpt lat="47.91467" lon="7.00575">
        <ele>1094.4</ele>
        <time>2019-09-17T07:26:56Z</time>
      </trkpt>
      <trkpt lat="47.91464" lon="7.00572">
        <ele>1094.5</ele>
        <time>2019-09-17T07:27:05Z</time>
      </trkpt>
      <trkpt lat="47.91461" lon="7.00572">
        <ele>1094.6</ele>
        <time>2019-09-17T07:27:08Z</time>
      </trkpt>
      <trkpt lat="47.91457" lon="7.00573">
        <ele>1094.7</ele>
        <time>2019-09-17T07:27:14Z</time>
      </trkpt>
      <trkpt lat="47.91456" lon="7.00569">
        <ele>1094.6</ele>
        <time>2019-09-17T07:27:20Z</time>
      </trkpt>
      <trkpt lat="47.91455" lon="7.00566">
        <ele>1094.7</ele>
        <time>2019-09-17T07:27:22Z</time>
      </trkpt>
      <trkpt lat="47.91452" lon="7.00562">
        <ele>1094.6</ele>
        <time>2019-09-17T07:27:24Z</time>
      </trkpt>
      <trkpt lat="47.9145" lon="7.00559">
        <ele>1094.6</ele>
        <time>2019-09-17T07:27:26Z</time>
      </trkpt>
      <trkpt lat="47.91448" lon="7.00556">
        <ele>1094.6</ele>
        <time>2019-09-17T07:27:30Z</time>
      </trkpt>
      <trkpt lat="47.91444" lon="7.00552">
        <ele>1094.6</ele>
        <time>2019-09-17T07:27:32Z</time>
      </trkpt>
      <trkpt lat="47.91441" lon="7.00549">
        <ele>1094.7</ele>
        <time>2019-09-17T07:27:34Z</time>
      </trkpt>
      <trkpt lat="47.91438" lon="7.00548">
        <ele>1094.8</ele>
        <time>2019-09-17T07:27:36Z</time>
      </trkpt>
      <trkpt lat="47.91435" lon="7.00545">
        <ele>1094.7</ele>
        <time>2019-09-17T07:27:39Z</time>
      </trkpt>
      <trkpt lat="47.91433" lon="7.00543">
        <ele>1094.8</ele>
        <time>2019-09-17T07:27:42Z</time>
      </trkpt>
      <trkpt lat="47.9143" lon="7.00542">
        <ele>1094.9</ele>
        <time>2019-09-17T07:27:47Z</time>
      </trkpt>
      <trkpt lat="47.91427" lon="7.00541">
        <ele>1094.7</ele>
        <time>2019-09-17T07:27:54Z</time>
      </trkpt>
      <trkpt lat="47.91425" lon="7.00538">
        <ele>1094.7</ele>
        <time>2019-09-17T07:28:00Z</time>
      </trkpt>
      <trkpt lat="47.91422" lon="7.00542">
        <ele>1095</ele>
        <time>2019-09-17T07:28:04Z</time>
      </trkpt>
      <trkpt lat="47.91419" lon="7.00545">
        <ele>1095</ele>
        <time>2019-09-17T07:28:08Z</time>
      </trkpt>
      <trkpt lat="47.91416" lon="7.00544">
        <ele>1095.1</ele>
        <time>2019-09-17T07:28:11Z</time>
      </trkpt>
      <trkpt lat="47.91413" lon="7.00542">
        <ele>1095.1</ele>
        <time>2019-09-17T07:28:13Z</time>
      </trkpt>
      <trkpt lat="47.91409" lon="7.0054">
        <ele>1094.9</ele>
        <time>2019-09-17T07:28:15Z</time>
      </trkpt>
      <trkpt lat="47.91406" lon="7.00539">
        <ele>1094.9</ele>
        <time>2019-09-17T07:28:18Z</time>
      </trkpt>
      <trkpt lat="47.91403" lon="7.00537">
        <ele>1094.6</ele>
        <time>2019-09-17T07:28:22Z</time>
      </trkpt>
      <trkpt lat="47.914" lon="7.00536">
        <ele>1094.6</ele>
        <time>2019-09-17T07:28:24Z</time>
      </trkpt>
      <trkpt lat="47.91397" lon="7.00535">
        <ele>1094.5</ele>
        <time>2019-09-17T07:28:28Z</time>
      </trkpt>
      <trkpt lat="47.91393" lon="7.00534">
        <ele>1094.5</ele>
        <time>2019-09-17T07:28:31Z</time>
      </trkpt>
      <trkpt lat="47.91389" lon="7.00534">
        <ele>1094.5</ele>
        <time>2019-09-17T07:28:34Z</time>
      </trkpt>
      <trkpt lat="47.91386" lon="7.00534">
        <ele>1094.5</ele>
        <time>2019-09-17T07:28:36Z</time>
      </trkpt>
      <trkpt lat="47.91383" lon="7.00535">
        <ele>1094.4</ele>
        <time>2019-09-17T07:28:38Z</time>
      </trkpt>
      <trkpt lat="47.9138" lon="7.00536">
        <ele>1094.4</ele>
        <time>2019-09-17T07:28:40Z</time>
      </trkpt>
      <trkpt lat="47.91377" lon="7.00535">
        <ele>1094.3</ele>
        <time>2019-09-17T07:28:43Z</time>
      </trkpt>
      <trkpt lat="47.91374" lon="7.00537">
        <ele>1094.2</ele>
        <time>2019-09-17T07:28:46Z</time>
      </trkpt>
      <trkpt lat="47.91371" lon="7.00536">
        <ele>1094.1</ele>
        <time>2019-09-17T07:28:49Z</time>
      </trkpt>
      <trkpt lat="47.91368" lon="7.00536">
        <ele>1094</ele>
        <time>2019-09-17T07:28:52Z</time>
      </trkpt>
      <trkpt lat="47.91364" lon="7.00538">
        <ele>1094</ele>
        <time>2019-09-17T07:28:55Z</time>
      </trkpt>
      <trkpt lat="47.91361" lon="7.0054">
        <ele>1093.9</ele>
        <time>2019-09-17T07:28:58Z</time>
      </trkpt>
      <trkpt lat="47.91358" lon="7.0054">
        <ele>1093.6</ele>
        <time>2019-09-17T07:29:02Z</time>
      </trkpt>
      <trkpt lat="47.91354" lon="7.00539">
        <ele>1093.4</ele>
        <time>2019-09-17T07:29:05Z</time>
      </trkpt>
      <trkpt lat="47.9135" lon="7.00538">
        <ele>1093.3</ele>
        <time>2019-09-17T07:29:10Z</time>
      </trkpt>
      <trkpt lat="47.91347" lon="7.00537">
        <ele>1093.1</ele>
        <time>2019-09-17T07:29:12Z</time>
      </trkpt>
      <trkpt lat="47.91343" lon="7.00535">
        <ele>1093</ele>
        <time>2019-09-17T07:29:14Z</time>
      </trkpt>
      <trkpt lat="47.91341" lon="7.00534">
        <ele>1092.9</ele>
        <time>2019-09-17T07:29:16Z</time>
      </trkpt>
      <trkpt lat="47.91338" lon="7.00531">
        <ele>1092.9</ele>
        <time>2019-09-17T07:29:19Z</time>
      </trkpt>
      <trkpt lat="47.91335" lon="7.00528">
        <ele>1092.8</ele>
        <time>2019-09-17T07:29:21Z</time>
      </trkpt>
      <trkpt lat="47.91332" lon="7.00527">
        <ele>1092.7</ele>
        <time>2019-09-17T07:29:23Z</time>
      </trkpt>
      <trkpt lat="47.91328" lon="7.00527">
        <ele>1092.7</ele>
        <time>2019-09-17T07:29:26Z</time>
      </trkpt>
      <trkpt lat="47.91325" lon="7.00527">
        <ele>1092.7</ele>
        <time>2019-09-17T07:29:29Z</time>
      </trkpt>
      <trkpt lat="47.91321" lon="7.00529">
        <ele>1092.5</ele>
        <time>2019-09-17T07:29:33Z</time>
      </trkpt>
      <trkpt lat="47.91317" lon="7.0053">
        <ele>1092.4</ele>
        <time>2019-09-17T07:29:36Z</time>
      </trkpt>
      <trkpt lat="47.91315" lon="7.00531">
        <ele>1092.3</ele>
        <time>2019-09-17T07:29:38Z</time>
      </trkpt>
      <trkpt lat="47.91311" lon="7.00532">
        <ele>1092.2</ele>
        <time>2019-09-17T07:29:40Z</time>
      </trkpt>
      <trkpt lat="47.91307" lon="7.00533">
        <ele>1091.9</ele>
        <time>2019-09-17T07:29:42Z</time>
      </trkpt>
      <trkpt lat="47.91304" lon="7.00532">
        <ele>1092</ele>
        <time>2019-09-17T07:29:46Z</time>
      </trkpt>
      <trkpt lat="47.91302" lon="7.0053">
        <ele>1091.9</ele>
        <time>2019-09-17T07:29:48Z</time>
      </trkpt>
      <trkpt lat="47.91298" lon="7.00527">
        <ele>1091.9</ele>
        <time>2019-09-17T07:29:50Z</time>
      </trkpt>
      <trkpt lat="47.91295" lon="7.00525">
        <ele>1091.8</ele>
        <time>2019-09-17T07:29:52Z</time>
      </trkpt>
      <trkpt lat="47.91293" lon="7.00523">
        <ele>1091.7</ele>
        <time>2019-09-17T07:29:56Z</time>
      </trkpt>
      <trkpt lat="47.91291" lon="7.00521">
        <ele>1091.7</ele>
        <time>2019-09-17T07:30:00Z</time>
      </trkpt>
      <trkpt lat="47.91288" lon="7.00519">
        <ele>1091.5</ele>
        <time>2019-09-17T07:30:03Z</time>
      </trkpt>
      <trkpt lat="47.91285" lon="7.00517">
        <ele>1091.4</ele>
        <time>2019-09-17T07:30:08Z</time>
      </trkpt>
      <trkpt lat="47.91282" lon="7.00515">
        <ele>1091</ele>
        <time>2019-09-17T07:30:10Z</time>
      </trkpt>
      <trkpt lat="47.9128" lon="7.00512">
        <ele>1090.9</ele>
        <time>2019-09-17T07:30:14Z</time>
      </trkpt>
      <trkpt lat="47.91277" lon="7.00511">
        <ele>1090.2</ele>
        <time>2019-09-17T07:30:17Z</time>
      </trkpt>
      <trkpt lat="47.91274" lon="7.00511">
        <ele>1090</ele>
        <time>2019-09-17T07:30:20Z</time>
      </trkpt>
      <trkpt lat="47.91272" lon="7.00514">
        <ele>1090.5</ele>
        <time>2019-09-17T07:30:25Z</time>
      </trkpt>
      <trkpt lat="47.91269" lon="7.00517">
        <ele>1090.7</ele>
        <time>2019-09-17T07:30:28Z</time>
      </trkpt>
      <trkpt lat="47.91266" lon="7.00521">
        <ele>1090.8</ele>
        <time>2019-09-17T07:30:31Z</time>
      </trkpt>
      <trkpt lat="47.91264" lon="7.00524">
        <ele>1090.7</ele>
        <time>2019-09-17T07:30:34Z</time>
      </trkpt>
      <trkpt lat="47.91262" lon="7.00527">
        <ele>1090.7</ele>
        <time>2019-09-17T07:30:37Z</time>
      </trkpt>
      <trkpt lat="47.91259" lon="7.00529">
        <ele>1090.6</ele>
        <time>2019-09-17T07:30:40Z</time>
      </trkpt>
      <trkpt lat="47.91256" lon="7.0053">
        <ele>1090.3</ele>
        <time>2019-09-17T07:30:42Z</time>
      </trkpt>
      <trkpt lat="47.91252" lon="7.00532">
        <ele>1090</ele>
        <time>2019-09-17T07:30:44Z</time>
      </trkpt>
      <trkpt lat="47.91249" lon="7.00533">
        <ele>1089.4</ele>
        <time>2019-09-17T07:30:47Z</time>
      </trkpt>
      <trkpt lat="47.91245" lon="7.00535">
        <ele>1089</ele>
        <time>2019-09-17T07:30:49Z</time>
      </trkpt>
      <trkpt lat="47.91242" lon="7.00536">
        <ele>1088.5</ele>
        <time>2019-09-17T07:30:52Z</time>
      </trkpt>
      <trkpt lat="47.91239" lon="7.00538">
        <ele>1088.2</ele>
        <time>2019-09-17T07:30:56Z</time>
      </trkpt>
      <trkpt lat="47.91236" lon="7.00541">
        <ele>1087.7</ele>
        <time>2019-09-17T07:30:58Z</time>
      </trkpt>
      <trkpt lat="47.91232" lon="7.00542">
        <ele>1087.3</ele>
        <time>2019-09-17T07:31:00Z</time>
      </trkpt>
      <trkpt lat="47.91228" lon="7.00544">
        <ele>1086.3</ele>
        <time>2019-09-17T07:31:02Z</time>
      </trkpt>
      <trkpt lat="47.91225" lon="7.00546">
        <ele>1085.7</ele>
        <time>2019-09-17T07:31:04Z</time>
      </trkpt>
      <trkpt lat="47.91222" lon="7.00548">
        <ele>1085.1</ele>
        <time>2019-09-17T07:31:06Z</time>
      </trkpt>
      <trkpt lat="47.91219" lon="7.00549">
        <ele>1084.5</ele>
        <time>2019-09-17T07:31:08Z</time>
      </trkpt>
      <trkpt lat="47.91216" lon="7.0055">
        <ele>1083.9</ele>
        <time>2019-09-17T07:31:10Z</time>
      </trkpt>
      <trkpt lat="47.91214" lon="7.00551">
        <ele>1083.2</ele>
        <time>2019-09-17T07:31:12Z</time>
      </trkpt>
      <trkpt lat="47.91212" lon="7.00554">
        <ele>1083.2</ele>
        <time>2019-09-17T07:31:14Z</time>
      </trkpt>
      <trkpt lat="47.91209" lon="7.00556">
        <ele>1082.5</ele>
        <time>2019-09-17T07:31:16Z</time>
      </trkpt>
      <trkpt lat="47.91208" lon="7.00561">
        <ele>1081.8</ele>
        <time>2019-09-17T07:31:18Z</time>
      </trkpt>
      <trkpt lat="47.91205" lon="7.00562">
        <ele>1081.2</ele>
        <time>2019-09-17T07:31:21Z</time>
      </trkpt>
      <trkpt lat="47.91203" lon="7.00564">
        <ele>1080.4</ele>
        <time>2019-09-17T07:31:24Z</time>
      </trkpt>
      <trkpt lat="47.91199" lon="7.00564">
        <ele>1079.7</ele>
        <time>2019-09-17T07:31:27Z</time>
      </trkpt>
      <trkpt lat="47.91196" lon="7.00565">
        <ele>1079</ele>
        <time>2019-09-17T07:31:29Z</time>
      </trkpt>
      <trkpt lat="47.91193" lon="7.00565">
        <ele>1078.3</ele>
        <time>2019-09-17T07:31:31Z</time>
      </trkpt>
      <trkpt lat="47.9119" lon="7.00566">
        <ele>1077.6</ele>
        <time>2019-09-17T07:31:33Z</time>
      </trkpt>
      <trkpt lat="47.91186" lon="7.00568">
        <ele>1076.8</ele>
        <time>2019-09-17T07:31:36Z</time>
      </trkpt>
      <trkpt lat="47.91183" lon="7.00571">
        <ele>1076.2</ele>
        <time>2019-09-17T07:31:39Z</time>
      </trkpt>
      <trkpt lat="47.9118" lon="7.00574">
        <ele>1075.5</ele>
        <time>2019-09-17T07:31:42Z</time>
      </trkpt>
      <trkpt lat="47.91178" lon="7.00576">
        <ele>1075</ele>
        <time>2019-09-17T07:31:45Z</time>
      </trkpt>
      <trkpt lat="47.91174" lon="7.00578">
        <ele>1073.8</ele>
        <time>2019-09-17T07:31:48Z</time>
      </trkpt>
      <trkpt lat="47.9117" lon="7.00581">
        <ele>1073.2</ele>
        <time>2019-09-17T07:31:51Z</time>
      </trkpt>
      <trkpt lat="47.91167" lon="7.00583">
        <ele>1072.7</ele>
        <time>2019-09-17T07:31:54Z</time>
      </trkpt>
      <trkpt lat="47.91164" lon="7.00584">
        <ele>1072.2</ele>
        <time>2019-09-17T07:31:57Z</time>
      </trkpt>
      <trkpt lat="47.91161" lon="7.00588">
        <ele>1071.4</ele>
        <time>2019-09-17T07:32:00Z</time>
      </trkpt>
      <trkpt lat="47.91158" lon="7.00591">
        <ele>1070.7</ele>
        <time>2019-09-17T07:32:03Z</time>
      </trkpt>
      <trkpt lat="47.91156" lon="7.00594">
        <ele>1069.9</ele>
        <time>2019-09-17T07:32:05Z</time>
      </trkpt>
      <trkpt lat="47.91154" lon="7.00597">
        <ele>1069</ele>
        <time>2019-09-17T07:32:07Z</time>
      </trkpt>
      <trkpt lat="47.91151" lon="7.006">
        <ele>1068.6</ele>
        <time>2019-09-17T07:32:09Z</time>
      </trkpt>
      <trkpt lat="47.91149" lon="7.00602">
        <ele>1068.1</ele>
        <time>2019-09-17T07:32:11Z</time>
      </trkpt>
      <trkpt lat="47.91146" lon="7.00606">
        <ele>1067.7</ele>
        <time>2019-09-17T07:32:14Z</time>
      </trkpt>
      <trkpt lat="47.91143" lon="7.00608">
        <ele>1066.7</ele>
        <time>2019-09-17T07:32:17Z</time>
      </trkpt>
      <trkpt lat="47.91141" lon="7.00611">
        <ele>1065.8</ele>
        <time>2019-09-17T07:32:20Z</time>
      </trkpt>
      <trkpt lat="47.91137" lon="7.00614">
        <ele>1065.3</ele>
        <time>2019-09-17T07:32:23Z</time>
      </trkpt>
      <trkpt lat="47.91134" lon="7.00616">
        <ele>1064.3</ele>
        <time>2019-09-17T07:32:25Z</time>
      </trkpt>
      <trkpt lat="47.91131" lon="7.00618">
        <ele>1063.9</ele>
        <time>2019-09-17T07:32:27Z</time>
      </trkpt>
      <trkpt lat="47.91128" lon="7.00619">
        <ele>1063</ele>
        <time>2019-09-17T07:32:29Z</time>
      </trkpt>
      <trkpt lat="47.91124" lon="7.0062">
        <ele>1062.4</ele>
        <time>2019-09-17T07:32:32Z</time>
      </trkpt>
      <trkpt lat="47.9112" lon="7.00622">
        <ele>1062</ele>
        <time>2019-09-17T07:32:35Z</time>
      </trkpt>
      <trkpt lat="47.91117" lon="7.00624">
        <ele>1061.3</ele>
        <time>2019-09-17T07:32:37Z</time>
      </trkpt>
      <trkpt lat="47.91114" lon="7.00626">
        <ele>1061</ele>
        <time>2019-09-17T07:32:39Z</time>
      </trkpt>
      <trkpt lat="47.91111" lon="7.00627">
        <ele>1060.7</ele>
        <time>2019-09-17T07:32:41Z</time>
      </trkpt>
      <trkpt lat="47.91108" lon="7.00629">
        <ele>1060.1</ele>
        <time>2019-09-17T07:32:47Z</time>
      </trkpt>
      <trkpt lat="47.91104" lon="7.00631">
        <ele>1059.8</ele>
        <time>2019-09-17T07:32:50Z</time>
      </trkpt>
      <trkpt lat="47.91101" lon="7.00632">
        <ele>1059.4</ele>
        <time>2019-09-17T07:32:53Z</time>
      </trkpt>
      <trkpt lat="47.91098" lon="7.00633">
        <ele>1059.4</ele>
        <time>2019-09-17T07:32:56Z</time>
      </trkpt>
      <trkpt lat="47.91095" lon="7.00633">
        <ele>1059.3</ele>
        <time>2019-09-17T07:32:59Z</time>
      </trkpt>
      <trkpt lat="47.91092" lon="7.00631">
        <ele>1059.4</ele>
        <time>2019-09-17T07:33:01Z</time>
      </trkpt>
      <trkpt lat="47.91088" lon="7.0063">
        <ele>1059.4</ele>
        <time>2019-09-17T07:33:04Z</time>
      </trkpt>
      <trkpt lat="47.91085" lon="7.00629">
        <ele>1059.3</ele>
        <time>2019-09-17T07:33:07Z</time>
      </trkpt>
      <trkpt lat="47.91082" lon="7.00629">
        <ele>1059</ele>
        <time>2019-09-17T07:33:11Z</time>
      </trkpt>
      <trkpt lat="47.91079" lon="7.00627">
        <ele>1058.9</ele>
        <time>2019-09-17T07:33:13Z</time>
      </trkpt>
      <trkpt lat="47.91075" lon="7.00626">
        <ele>1058.7</ele>
        <time>2019-09-17T07:33:16Z</time>
      </trkpt>
      <trkpt lat="47.91072" lon="7.00624">
        <ele>1058.6</ele>
        <time>2019-09-17T07:33:19Z</time>
      </trkpt>
      <trkpt lat="47.91068" lon="7.00623">
        <ele>1058.3</ele>
        <time>2019-09-17T07:33:22Z</time>
      </trkpt>
      <trkpt lat="47.91065" lon="7.00622">
        <ele>1058.1</ele>
        <time>2019-09-17T07:33:24Z</time>
      </trkpt>
      <trkpt lat="47.91061" lon="7.00619">
        <ele>1057.4</ele>
        <time>2019-09-17T07:33:26Z</time>
      </trkpt>
      <trkpt lat="47.91057" lon="7.00618">
        <ele>1056.8</ele>
        <time>2019-09-17T07:33:28Z</time>
      </trkpt>
      <trkpt lat="47.91054" lon="7.00617">
        <ele>1056.3</ele>
        <time>2019-09-17T07:33:30Z</time>
      </trkpt>
      <trkpt lat="47.91049" lon="7.00615">
        <ele>1055.4</ele>
        <time>2019-09-17T07:33:32Z</time>
      </trkpt>
      <trkpt lat="47.91045" lon="7.00614">
        <ele>1054.7</ele>
        <time>2019-09-17T07:33:33Z</time>
      </trkpt>
      <trkpt lat="47.91042" lon="7.00613">
        <ele>1054.3</ele>
        <time>2019-09-17T07:33:34Z</time>
      </trkpt>
      <trkpt lat="47.9104" lon="7.00612">
        <ele>1053.9</ele>
        <time>2019-09-17T07:33:35Z</time>
      </trkpt>
      <trkpt lat="47.91035" lon="7.00611">
        <ele>1053</ele>
        <time>2019-09-17T07:33:37Z</time>
      </trkpt>
      <trkpt lat="47.91032" lon="7.00609">
        <ele>1052.2</ele>
        <time>2019-09-17T07:33:39Z</time>
      </trkpt>
      <trkpt lat="47.91029" lon="7.00607">
        <ele>1051.7</ele>
        <time>2019-09-17T07:33:41Z</time>
      </trkpt>
      <trkpt lat="47.91025" lon="7.00605">
        <ele>1050.8</ele>
        <time>2019-09-17T07:33:43Z</time>
      </trkpt>
      <trkpt lat="47.91021" lon="7.00604">
        <ele>1049.6</ele>
        <time>2019-09-17T07:33:45Z</time>
      </trkpt>
      <trkpt lat="47.91017" lon="7.00602">
        <ele>1049.1</ele>
        <time>2019-09-17T07:33:47Z</time>
      </trkpt>
      <trkpt lat="47.91013" lon="7.00601">
        <ele>1048.1</ele>
        <time>2019-09-17T07:33:49Z</time>
      </trkpt>
      <trkpt lat="47.91011" lon="7.006">
        <ele>1047.6</ele>
        <time>2019-09-17T07:33:51Z</time>
      </trkpt>
      <trkpt lat="47.91007" lon="7.00599">
        <ele>1047.1</ele>
        <time>2019-09-17T07:33:54Z</time>
      </trkpt>
      <trkpt lat="47.91003" lon="7.006">
        <ele>1045.9</ele>
        <time>2019-09-17T07:33:57Z</time>
      </trkpt>
      <trkpt lat="47.91" lon="7.006">
        <ele>1045.2</ele>
        <time>2019-09-17T07:34:00Z</time>
      </trkpt>
      <trkpt lat="47.90997" lon="7.006">
        <ele>1044.5</ele>
        <time>2019-09-17T07:34:04Z</time>
      </trkpt>
      <trkpt lat="47.90993" lon="7.00599">
        <ele>1043.9</ele>
        <time>2019-09-17T07:34:07Z</time>
      </trkpt>
      <trkpt lat="47.90991" lon="7.00598">
        <ele>1043.3</ele>
        <time>2019-09-17T07:34:09Z</time>
      </trkpt>
      <trkpt lat="47.90987" lon="7.00596">
        <ele>1042.3</ele>
        <time>2019-09-17T07:34:12Z</time>
      </trkpt>
      <trkpt lat="47.90985" lon="7.00594">
        <ele>1041.8</ele>
        <time>2019-09-17T07:34:15Z</time>
      </trkpt>
      <trkpt lat="47.90981" lon="7.00591">
        <ele>1040.2</ele>
        <time>2019-09-17T07:34:18Z</time>
      </trkpt>
      <trkpt lat="47.90978" lon="7.00589">
        <ele>1039.1</ele>
        <time>2019-09-17T07:34:20Z</time>
      </trkpt>
      <trkpt lat="47.90974" lon="7.00586">
        <ele>1038.5</ele>
        <time>2019-09-17T07:34:22Z</time>
      </trkpt>
      <trkpt lat="47.90972" lon="7.00585">
        <ele>1037.8</ele>
        <time>2019-09-17T07:34:24Z</time>
      </trkpt>
      <trkpt lat="47.90968" lon="7.00585">
        <ele>1037.2</ele>
        <time>2019-09-17T07:34:27Z</time>
      </trkpt>
      <trkpt lat="47.90965" lon="7.00587">
        <ele>1036.6</ele>
        <time>2019-09-17T07:34:33Z</time>
      </trkpt>
      <trkpt lat="47.90962" lon="7.00587">
        <ele>1036.1</ele>
        <time>2019-09-17T07:34:37Z</time>
      </trkpt>
      <trkpt lat="47.90959" lon="7.00586">
        <ele>1035.5</ele>
        <time>2019-09-17T07:34:43Z</time>
      </trkpt>
      <trkpt lat="47.90957" lon="7.00584">
        <ele>1034.6</ele>
        <time>2019-09-17T07:34:47Z</time>
      </trkpt>
      <trkpt lat="47.90954" lon="7.00582">
        <ele>1034.1</ele>
        <time>2019-09-17T07:34:51Z</time>
      </trkpt>
      <trkpt lat="47.9095" lon="7.0058">
        <ele>1033.6</ele>
        <time>2019-09-17T07:35:01Z</time>
      </trkpt>
      <trkpt lat="47.90947" lon="7.0058">
        <ele>1032.6</ele>
        <time>2019-09-17T07:35:12Z</time>
      </trkpt>
      <trkpt lat="47.90947" lon="7.00576">
        <ele>1032.5</ele>
        <time>2019-09-17T07:35:15Z</time>
      </trkpt>
      <trkpt lat="47.90948" lon="7.00571">
        <ele>1031.4</ele>
        <time>2019-09-17T07:35:18Z</time>
      </trkpt>
      <trkpt lat="47.90949" lon="7.00566">
        <ele>1030.8</ele>
        <time>2019-09-17T07:35:22Z</time>
      </trkpt>
      <trkpt lat="47.90951" lon="7.00562">
        <ele>1030.7</ele>
        <time>2019-09-17T07:35:26Z</time>
      </trkpt>
      <trkpt lat="47.9095" lon="7.00557">
        <ele>1030</ele>
        <time>2019-09-17T07:35:33Z</time>
      </trkpt>
      <trkpt lat="47.90947" lon="7.00555">
        <ele>1029.5</ele>
        <time>2019-09-17T07:35:37Z</time>
      </trkpt>
      <trkpt lat="47.90944" lon="7.00553">
        <ele>1028.2</ele>
        <time>2019-09-17T07:35:43Z</time>
      </trkpt>
      <trkpt lat="47.90941" lon="7.00551">
        <ele>1027.6</ele>
        <time>2019-09-17T07:35:47Z</time>
      </trkpt>
      <trkpt lat="47.90938" lon="7.00549">
        <ele>1025.7</ele>
        <time>2019-09-17T07:35:50Z</time>
      </trkpt>
      <trkpt lat="47.90935" lon="7.00547">
        <ele>1025.1</ele>
        <time>2019-09-17T07:35:53Z</time>
      </trkpt>
      <trkpt lat="47.90932" lon="7.00544">
        <ele>1023.9</ele>
        <time>2019-09-17T07:35:56Z</time>
      </trkpt>
      <trkpt lat="47.90928" lon="7.00542">
        <ele>1023.4</ele>
        <time>2019-09-17T07:35:59Z</time>
      </trkpt>
      <trkpt lat="47.90926" lon="7.00539">
        <ele>1022</ele>
        <time>2019-09-17T07:36:02Z</time>
      </trkpt>
      <trkpt lat="47.90923" lon="7.00535">
        <ele>1020.6</ele>
        <time>2019-09-17T07:36:05Z</time>
      </trkpt>
      <trkpt lat="47.90922" lon="7.00532">
        <ele>1019.8</ele>
        <time>2019-09-17T07:36:08Z</time>
      </trkpt>
      <trkpt lat="47.9092" lon="7.00527">
        <ele>1018.4</ele>
        <time>2019-09-17T07:36:11Z</time>
      </trkpt>
      <trkpt lat="47.90918" lon="7.00524">
        <ele>1017</ele>
        <time>2019-09-17T07:36:14Z</time>
      </trkpt>
      <trkpt lat="47.90915" lon="7.00521">
        <ele>1016.4</ele>
        <time>2019-09-17T07:36:17Z</time>
      </trkpt>
      <trkpt lat="47.90913" lon="7.00518">
        <ele>1015.7</ele>
        <time>2019-09-17T07:36:20Z</time>
      </trkpt>
      <trkpt lat="47.90911" lon="7.00515">
        <ele>1014.4</ele>
        <time>2019-09-17T07:36:24Z</time>
      </trkpt>
      <trkpt lat="47.90909" lon="7.00511">
        <ele>1013</ele>
        <time>2019-09-17T07:36:27Z</time>
      </trkpt>
      <trkpt lat="47.90906" lon="7.00508">
        <ele>1012.5</ele>
        <time>2019-09-17T07:36:30Z</time>
      </trkpt>
      <trkpt lat="47.90905" lon="7.00504">
        <ele>1011.6</ele>
        <time>2019-09-17T07:36:35Z</time>
      </trkpt>
      <trkpt lat="47.90904" lon="7.005">
        <ele>1010.7</ele>
        <time>2019-09-17T07:36:39Z</time>
      </trkpt>
      <trkpt lat="47.909" lon="7.00491">
        <ele>1007.9</ele>
        <time>2019-09-17T07:36:41Z</time>
      </trkpt>
      <trkpt lat="47.90899" lon="7.00487">
        <ele>1007.1</ele>
        <time>2019-09-17T07:36:42Z</time>
      </trkpt>
      <trkpt lat="47.90897" lon="7.00483">
        <ele>1005.7</ele>
        <time>2019-09-17T07:36:44Z</time>
      </trkpt>
      <trkpt lat="47.90894" lon="7.00478">
        <ele>1005</ele>
        <time>2019-09-17T07:36:47Z</time>
      </trkpt>
      <trkpt lat="47.90891" lon="7.00474">
        <ele>1004.4</ele>
        <time>2019-09-17T07:36:50Z</time>
      </trkpt>
      <trkpt lat="47.90889" lon="7.00472">
        <ele>1003.8</ele>
        <time>2019-09-17T07:36:55Z</time>
      </trkpt>
      <trkpt lat="47.90886" lon="7.00468">
        <ele>1003.2</ele>
        <time>2019-09-17T07:36:58Z</time>
      </trkpt>
      <trkpt lat="47.90884" lon="7.00462">
        <ele>1002.5</ele>
        <time>2019-09-17T07:37:00Z</time>
      </trkpt>
      <trkpt lat="47.90882" lon="7.00459">
        <ele>1002.1</ele>
        <time>2019-09-17T07:37:01Z</time>
      </trkpt>
      <trkpt lat="47.90879" lon="7.00454">
        <ele>1001.6</ele>
        <time>2019-09-17T07:37:03Z</time>
      </trkpt>
      <trkpt lat="47.90877" lon="7.00449">
        <ele>1001</ele>
        <time>2019-09-17T07:37:05Z</time>
      </trkpt>
      <trkpt lat="47.90875" lon="7.00443">
        <ele>1000.4</ele>
        <time>2019-09-17T07:37:07Z</time>
      </trkpt>
      <trkpt lat="47.90875" lon="7.00437">
        <ele>999.9</ele>
        <time>2019-09-17T07:37:10Z</time>
      </trkpt>
      <trkpt lat="47.90877" lon="7.00433">
        <ele>999.4</ele>
        <time>2019-09-17T07:37:15Z</time>
      </trkpt>
      <trkpt lat="47.90878" lon="7.00429">
        <ele>996</ele>
        <time>2019-09-17T07:37:19Z</time>
      </trkpt>
      <trkpt lat="47.90877" lon="7.00424">
        <ele>995.8</ele>
        <time>2019-09-17T07:37:22Z</time>
      </trkpt>
      <trkpt lat="47.90876" lon="7.00419">
        <ele>995.5</ele>
        <time>2019-09-17T07:37:26Z</time>
      </trkpt>
      <trkpt lat="47.90874" lon="7.00415">
        <ele>994.8</ele>
        <time>2019-09-17T07:37:28Z</time>
      </trkpt>
      <trkpt lat="47.90874" lon="7.00407">
        <ele>993.7</ele>
        <time>2019-09-17T07:37:31Z</time>
      </trkpt>
      <trkpt lat="47.90873" lon="7.00402">
        <ele>993</ele>
        <time>2019-09-17T07:37:33Z</time>
      </trkpt>
      <trkpt lat="47.90873" lon="7.00396">
        <ele>992.5</ele>
        <time>2019-09-17T07:37:35Z</time>
      </trkpt>
      <trkpt lat="47.90872" lon="7.00392">
        <ele>992</ele>
        <time>2019-09-17T07:37:37Z</time>
      </trkpt>
      <trkpt lat="47.90871" lon="7.00388">
        <ele>991.5</ele>
        <time>2019-09-17T07:37:39Z</time>
      </trkpt>
      <trkpt lat="47.90869" lon="7.00384">
        <ele>990.8</ele>
        <time>2019-09-17T07:37:41Z</time>
      </trkpt>
      <trkpt lat="47.90866" lon="7.00381">
        <ele>990.3</ele>
        <time>2019-09-17T07:37:45Z</time>
      </trkpt>
      <trkpt lat="47.90864" lon="7.00377">
        <ele>989.9</ele>
        <time>2019-09-17T07:37:48Z</time>
      </trkpt>
      <trkpt lat="47.90862" lon="7.00373">
        <ele>989.3</ele>
        <time>2019-09-17T07:37:51Z</time>
      </trkpt>
      <trkpt lat="47.90861" lon="7.00369">
        <ele>988.7</ele>
        <time>2019-09-17T07:37:53Z</time>
      </trkpt>
      <trkpt lat="47.9086" lon="7.00363">
        <ele>988</ele>
        <time>2019-09-17T07:37:55Z</time>
      </trkpt>
      <trkpt lat="47.9086" lon="7.00359">
        <ele>987.3</ele>
        <time>2019-09-17T07:37:58Z</time>
      </trkpt>
      <trkpt lat="47.9086" lon="7.00353">
        <ele>986.5</ele>
        <time>2019-09-17T07:38:01Z</time>
      </trkpt>
      <trkpt lat="47.9086" lon="7.00347">
        <ele>985.8</ele>
        <time>2019-09-17T07:38:04Z</time>
      </trkpt>
      <trkpt lat="47.90859" lon="7.00341">
        <ele>984.9</ele>
        <time>2019-09-17T07:38:07Z</time>
      </trkpt>
      <trkpt lat="47.90858" lon="7.00334">
        <ele>984.4</ele>
        <time>2019-09-17T07:38:09Z</time>
      </trkpt>
      <trkpt lat="47.90858" lon="7.0033">
        <ele>984.1</ele>
        <time>2019-09-17T07:38:11Z</time>
      </trkpt>
      <trkpt lat="47.90857" lon="7.00325">
        <ele>983.5</ele>
        <time>2019-09-17T07:38:14Z</time>
      </trkpt>
      <trkpt lat="47.90856" lon="7.0032">
        <ele>982.9</ele>
        <time>2019-09-17T07:38:16Z</time>
      </trkpt>
      <trkpt lat="47.90854" lon="7.00316">
        <ele>982.9</ele>
        <time>2019-09-17T07:38:20Z</time>
      </trkpt>
      <trkpt lat="47.90853" lon="7.0031">
        <ele>982.9</ele>
        <time>2019-09-17T07:38:23Z</time>
      </trkpt>
      <trkpt lat="47.90852" lon="7.00305">
        <ele>982.7</ele>
        <time>2019-09-17T07:38:26Z</time>
      </trkpt>
      <trkpt lat="47.90851" lon="7.00299">
        <ele>982.1</ele>
        <time>2019-09-17T07:38:28Z</time>
      </trkpt>
      <trkpt lat="47.90849" lon="7.00295">
        <ele>981.7</ele>
        <time>2019-09-17T07:38:29Z</time>
      </trkpt>
      <trkpt lat="47.90848" lon="7.00291">
        <ele>981.1</ele>
        <time>2019-09-17T07:38:30Z</time>
      </trkpt>
      <trkpt lat="47.90846" lon="7.00285">
        <ele>980.2</ele>
        <time>2019-09-17T07:38:32Z</time>
      </trkpt>
      <trkpt lat="47.90844" lon="7.0028">
        <ele>979.8</ele>
        <time>2019-09-17T07:38:34Z</time>
      </trkpt>
      <trkpt lat="47.90843" lon="7.00275">
        <ele>979.5</ele>
        <time>2019-09-17T07:38:36Z</time>
      </trkpt>
      <trkpt lat="47.90842" lon="7.0027">
        <ele>979</ele>
        <time>2019-09-17T07:38:38Z</time>
      </trkpt>
      <trkpt lat="47.90841" lon="7.00266">
        <ele>978.5</ele>
        <time>2019-09-17T07:38:40Z</time>
      </trkpt>
      <trkpt lat="47.9084" lon="7.00262">
        <ele>978.1</ele>
        <time>2019-09-17T07:38:42Z</time>
      </trkpt>
      <trkpt lat="47.90839" lon="7.00257">
        <ele>977.4</ele>
        <time>2019-09-17T07:38:44Z</time>
      </trkpt>
      <trkpt lat="47.90839" lon="7.00252">
        <ele>976.7</ele>
        <time>2019-09-17T07:38:46Z</time>
      </trkpt>
      <trkpt lat="47.90839" lon="7.00246">
        <ele>975.9</ele>
        <time>2019-09-17T07:38:48Z</time>
      </trkpt>
      <trkpt lat="47.90839" lon="7.00241">
        <ele>975.2</ele>
        <time>2019-09-17T07:38:50Z</time>
      </trkpt>
      <trkpt lat="47.90839" lon="7.00236">
        <ele>974.5</ele>
        <time>2019-09-17T07:38:52Z</time>
      </trkpt>
      <trkpt lat="47.90839" lon="7.00232">
        <ele>973.8</ele>
        <time>2019-09-17T07:38:54Z</time>
      </trkpt>
      <trkpt lat="47.9084" lon="7.00227">
        <ele>973</ele>
        <time>2019-09-17T07:38:57Z</time>
      </trkpt>
      <trkpt lat="47.90841" lon="7.00222">
        <ele>971.7</ele>
        <time>2019-09-17T07:39:00Z</time>
      </trkpt>
      <trkpt lat="47.90841" lon="7.00217">
        <ele>970.6</ele>
        <time>2019-09-17T07:39:02Z</time>
      </trkpt>
      <trkpt lat="47.90842" lon="7.00212">
        <ele>970</ele>
        <time>2019-09-17T07:39:04Z</time>
      </trkpt>
      <trkpt lat="47.90842" lon="7.00207">
        <ele>969.8</ele>
        <time>2019-09-17T07:39:07Z</time>
      </trkpt>
      <trkpt lat="47.90843" lon="7.00201">
        <ele>969.6</ele>
        <time>2019-09-17T07:39:12Z</time>
      </trkpt>
      <trkpt lat="47.90843" lon="7.00196">
        <ele>969.4</ele>
        <time>2019-09-17T07:39:14Z</time>
      </trkpt>
      <trkpt lat="47.90844" lon="7.00192">
        <ele>969.2</ele>
        <time>2019-09-17T07:39:16Z</time>
      </trkpt>
      <trkpt lat="47.90843" lon="7.00188">
        <ele>968.7</ele>
        <time>2019-09-17T07:39:18Z</time>
      </trkpt>
      <trkpt lat="47.90843" lon="7.00183">
        <ele>968.2</ele>
        <time>2019-09-17T07:39:20Z</time>
      </trkpt>
      <trkpt lat="47.90843" lon="7.00177">
        <ele>967.7</ele>
        <time>2019-09-17T07:39:22Z</time>
      </trkpt>
      <trkpt lat="47.90842" lon="7.00173">
        <ele>967.5</ele>
        <time>2019-09-17T07:39:24Z</time>
      </trkpt>
      <trkpt lat="47.90841" lon="7.00169">
        <ele>967.2</ele>
        <time>2019-09-17T07:39:26Z</time>
      </trkpt>
      <trkpt lat="47.90839" lon="7.00165">
        <ele>966.6</ele>
        <time>2019-09-17T07:39:29Z</time>
      </trkpt>
      <trkpt lat="47.90838" lon="7.00161">
        <ele>965.9</ele>
        <time>2019-09-17T07:39:35Z</time>
      </trkpt>
      <trkpt lat="47.90836" lon="7.00158">
        <ele>965.9</ele>
        <time>2019-09-17T07:39:41Z</time>
      </trkpt>
      <trkpt lat="47.90835" lon="7.00153">
        <ele>965.3</ele>
        <time>2019-09-17T07:39:47Z</time>
      </trkpt>
      <trkpt lat="47.90836" lon="7.00148">
        <ele>964.8</ele>
        <time>2019-09-17T07:39:50Z</time>
      </trkpt>
      <trkpt lat="47.90837" lon="7.00144">
        <ele>964.2</ele>
        <time>2019-09-17T07:39:53Z</time>
      </trkpt>
      <trkpt lat="47.90838" lon="7.0014">
        <ele>963</ele>
        <time>2019-09-17T07:39:56Z</time>
      </trkpt>
      <trkpt lat="47.90839" lon="7.00136">
        <ele>962.4</ele>
        <time>2019-09-17T07:39:58Z</time>
      </trkpt>
      <trkpt lat="47.90839" lon="7.00131">
        <ele>961.8</ele>
        <time>2019-09-17T07:40:01Z</time>
      </trkpt>
      <trkpt lat="47.90839" lon="7.00126">
        <ele>961.2</ele>
        <time>2019-09-17T07:40:03Z</time>
      </trkpt>
      <trkpt lat="47.90838" lon="7.0012">
        <ele>960.2</ele>
        <time>2019-09-17T07:40:05Z</time>
      </trkpt>
      <trkpt lat="47.90837" lon="7.00115">
        <ele>960.3</ele>
        <time>2019-09-17T07:40:07Z</time>
      </trkpt>
      <trkpt lat="47.90836" lon="7.00111">
        <ele>959.8</ele>
        <time>2019-09-17T07:40:09Z</time>
      </trkpt>
      <trkpt lat="47.90835" lon="7.00107">
        <ele>959.4</ele>
        <time>2019-09-17T07:40:11Z</time>
      </trkpt>
      <trkpt lat="47.90835" lon="7.00102">
        <ele>958.8</ele>
        <time>2019-09-17T07:40:13Z</time>
      </trkpt>
      <trkpt lat="47.90835" lon="7.00097">
        <ele>958.2</ele>
        <time>2019-09-17T07:40:15Z</time>
      </trkpt>
      <trkpt lat="47.90836" lon="7.00092">
        <ele>957.6</ele>
        <time>2019-09-17T07:40:19Z</time>
      </trkpt>
      <trkpt lat="47.90836" lon="7.00088">
        <ele>956.9</ele>
        <time>2019-09-17T07:40:22Z</time>
      </trkpt>
      <trkpt lat="47.90835" lon="7.00083">
        <ele>956.2</ele>
        <time>2019-09-17T07:40:25Z</time>
      </trkpt>
      <trkpt lat="47.90835" lon="7.00078">
        <ele>954.8</ele>
        <time>2019-09-17T07:40:27Z</time>
      </trkpt>
      <trkpt lat="47.90834" lon="7.00073">
        <ele>954.7</ele>
        <time>2019-09-17T07:40:29Z</time>
      </trkpt>
      <trkpt lat="47.90836" lon="7.00069">
        <ele>953.5</ele>
        <time>2019-09-17T07:40:32Z</time>
      </trkpt>
      <trkpt lat="47.90836" lon="7.00064">
        <ele>952.8</ele>
        <time>2019-09-17T07:40:37Z</time>
      </trkpt>
      <trkpt lat="47.90836" lon="7.0006">
        <ele>952.1</ele>
        <time>2019-09-17T07:40:40Z</time>
      </trkpt>
      <trkpt lat="47.90836" lon="7.00055">
        <ele>951.3</ele>
        <time>2019-09-17T07:40:42Z</time>
      </trkpt>
      <trkpt lat="47.90836" lon="7.0005">
        <ele>950.5</ele>
        <time>2019-09-17T07:40:44Z</time>
      </trkpt>
      <trkpt lat="47.90836" lon="7.00045">
        <ele>949.6</ele>
        <time>2019-09-17T07:40:47Z</time>
      </trkpt>
      <trkpt lat="47.90836" lon="7.0004">
        <ele>948.7</ele>
        <time>2019-09-17T07:40:50Z</time>
      </trkpt>
      <trkpt lat="47.90837" lon="7.00035">
        <ele>947.8</ele>
        <time>2019-09-17T07:40:53Z</time>
      </trkpt>
      <trkpt lat="47.90836" lon="7.00031">
        <ele>946.8</ele>
        <time>2019-09-17T07:40:59Z</time>
      </trkpt>
      <trkpt lat="47.90835" lon="7.00027">
        <ele>945.9</ele>
        <time>2019-09-17T07:41:06Z</time>
      </trkpt>
      <trkpt lat="47.90833" lon="7.00025">
        <ele>945.1</ele>
        <time>2019-09-17T07:41:09Z</time>
      </trkpt>
      <trkpt lat="47.90831" lon="7.00021">
        <ele>944.2</ele>
        <time>2019-09-17T07:41:12Z</time>
      </trkpt>
      <trkpt lat="47.90831" lon="7.00015">
        <ele>943.2</ele>
        <time>2019-09-17T07:41:15Z</time>
      </trkpt>
      <trkpt lat="47.90829" lon="7.00009">
        <ele>940.9</ele>
        <time>2019-09-17T07:41:18Z</time>
      </trkpt>
      <trkpt lat="47.90827" lon="7.00005">
        <ele>939.7</ele>
        <time>2019-09-17T07:41:20Z</time>
      </trkpt>
      <trkpt lat="47.90826" lon="7">
        <ele>938.4</ele>
        <time>2019-09-17T07:41:23Z</time>
      </trkpt>
      <trkpt lat="47.90827" lon="6.99996">
        <ele>937.2</ele>
        <time>2019-09-17T07:41:25Z</time>
      </trkpt>
      <trkpt lat="47.90828" lon="6.99992">
        <ele>936</ele>
        <time>2019-09-17T07:41:27Z</time>
      </trkpt>
      <trkpt lat="47.90829" lon="6.99987">
        <ele>934.9</ele>
        <time>2019-09-17T07:41:29Z</time>
      </trkpt>
      <trkpt lat="47.90829" lon="6.99982">
        <ele>933.8</ele>
        <time>2019-09-17T07:41:32Z</time>
      </trkpt>
      <trkpt lat="47.90827" lon="6.99978">
        <ele>932.7</ele>
        <time>2019-09-17T07:41:47Z</time>
      </trkpt>
      <trkpt lat="47.90825" lon="6.99975">
        <ele>932.6</ele>
        <time>2019-09-17T07:41:52Z</time>
      </trkpt>
      <trkpt lat="47.90822" lon="6.99973">
        <ele>931.3</ele>
        <time>2019-09-17T07:41:56Z</time>
      </trkpt>
      <trkpt lat="47.9082" lon="6.99969">
        <ele>930.1</ele>
        <time>2019-09-17T07:42:00Z</time>
      </trkpt>
      <trkpt lat="47.90819" lon="6.99964">
        <ele>928.7</ele>
        <time>2019-09-17T07:42:06Z</time>
      </trkpt>
      <trkpt lat="47.90818" lon="6.9996">
        <ele>927.4</ele>
        <time>2019-09-17T07:42:09Z</time>
      </trkpt>
      <trkpt lat="47.90816" lon="6.99956">
        <ele>925.9</ele>
        <time>2019-09-17T07:42:13Z</time>
      </trkpt>
      <trkpt lat="47.90815" lon="6.99951">
        <ele>924.5</ele>
        <time>2019-09-17T07:42:17Z</time>
      </trkpt>
      <trkpt lat="47.90814" lon="6.99947">
        <ele>922.8</ele>
        <time>2019-09-17T07:42:19Z</time>
      </trkpt>
      <trkpt lat="47.90813" lon="6.99941">
        <ele>920.1</ele>
        <time>2019-09-17T07:42:21Z</time>
      </trkpt>
      <trkpt lat="47.90814" lon="6.99935">
        <ele>918.7</ele>
        <time>2019-09-17T07:42:24Z</time>
      </trkpt>
      <trkpt lat="47.90815" lon="6.9993">
        <ele>917.6</ele>
        <time>2019-09-17T07:42:27Z</time>
      </trkpt>
      <trkpt lat="47.90815" lon="6.99926">
        <ele>916.1</ele>
        <time>2019-09-17T07:42:40Z</time>
      </trkpt>
      <trkpt lat="47.90814" lon="6.99923">
        <ele>914.3</ele>
        <time>2019-09-17T07:42:45Z</time>
      </trkpt>
      <trkpt lat="47.90812" lon="6.99919">
        <ele>912.7</ele>
        <time>2019-09-17T07:42:51Z</time>
      </trkpt>
      <trkpt lat="47.9081" lon="6.99916">
        <ele>912.4</ele>
        <time>2019-09-17T07:42:55Z</time>
      </trkpt>
      <trkpt lat="47.90807" lon="6.99914">
        <ele>910.4</ele>
        <time>2019-09-17T07:43:04Z</time>
      </trkpt>
      <trkpt lat="47.90805" lon="6.99911">
        <ele>910.1</ele>
        <time>2019-09-17T07:43:08Z</time>
      </trkpt>
      <trkpt lat="47.90801" lon="6.99908">
        <ele>908.1</ele>
        <time>2019-09-17T07:43:11Z</time>
      </trkpt>
      <trkpt lat="47.90798" lon="6.99906">
        <ele>906.1</ele>
        <time>2019-09-17T07:43:13Z</time>
      </trkpt>
      <trkpt lat="47.90795" lon="6.99903">
        <ele>905.9</ele>
        <time>2019-09-17T07:43:16Z</time>
      </trkpt>
      <trkpt lat="47.90792" lon="6.99902">
        <ele>904.1</ele>
        <time>2019-09-17T07:43:20Z</time>
      </trkpt>
      <trkpt lat="47.90789" lon="6.99899">
        <ele>903.9</ele>
        <time>2019-09-17T07:43:25Z</time>
      </trkpt>
      <trkpt lat="47.90786" lon="6.99897">
        <ele>902.3</ele>
        <time>2019-09-17T07:43:29Z</time>
      </trkpt>
      <trkpt lat="47.90786" lon="6.99893">
        <ele>900.9</ele>
        <time>2019-09-17T07:43:32Z</time>
      </trkpt>
      <trkpt lat="47.90788" lon="6.99888">
        <ele>899.5</ele>
        <time>2019-09-17T07:43:35Z</time>
      </trkpt>
      <trkpt lat="47.9079" lon="6.99884">
        <ele>898.3</ele>
        <time>2019-09-17T07:43:38Z</time>
      </trkpt>
      <trkpt lat="47.90791" lon="6.99878">
        <ele>896.9</ele>
        <time>2019-09-17T07:43:41Z</time>
      </trkpt>
      <trkpt lat="47.90792" lon="6.99875">
        <ele>895.6</ele>
        <time>2019-09-17T07:43:43Z</time>
      </trkpt>
      <trkpt lat="47.90794" lon="6.9987">
        <ele>894.1</ele>
        <time>2019-09-17T07:43:46Z</time>
      </trkpt>
      <trkpt lat="47.90797" lon="6.99867">
        <ele>892.6</ele>
        <time>2019-09-17T07:43:49Z</time>
      </trkpt>
      <trkpt lat="47.908" lon="6.99865">
        <ele>892.8</ele>
        <time>2019-09-17T07:43:51Z</time>
      </trkpt>
      <trkpt lat="47.90803" lon="6.99862">
        <ele>891.4</ele>
        <time>2019-09-17T07:43:53Z</time>
      </trkpt>
      <trkpt lat="47.90805" lon="6.99859">
        <ele>890.1</ele>
        <time>2019-09-17T07:43:55Z</time>
      </trkpt>
      <trkpt lat="47.90808" lon="6.99854">
        <ele>888.9</ele>
        <time>2019-09-17T07:43:58Z</time>
      </trkpt>
      <trkpt lat="47.9081" lon="6.99851">
        <ele>889.2</ele>
        <time>2019-09-17T07:44:00Z</time>
      </trkpt>
      <trkpt lat="47.9081" lon="6.99845">
        <ele>886.6</ele>
        <time>2019-09-17T07:44:02Z</time>
      </trkpt>
      <trkpt lat="47.90807" lon="6.99846">
        <ele>886.4</ele>
        <time>2019-09-17T07:44:05Z</time>
      </trkpt>
      <trkpt lat="47.90805" lon="6.9985">
        <ele>887.4</ele>
        <time>2019-09-17T07:44:08Z</time>
      </trkpt>
      <trkpt lat="47.90803" lon="6.99854">
        <ele>888.5</ele>
        <time>2019-09-17T07:44:11Z</time>
      </trkpt>
      <trkpt lat="47.908" lon="6.99854">
        <ele>888.3</ele>
        <time>2019-09-17T07:44:15Z</time>
      </trkpt>
      <trkpt lat="47.90798" lon="6.99851">
        <ele>886.9</ele>
        <time>2019-09-17T07:44:19Z</time>
      </trkpt>
      <trkpt lat="47.90795" lon="6.99847">
        <ele>886.8</ele>
        <time>2019-09-17T07:44:22Z</time>
      </trkpt>
      <trkpt lat="47.90792" lon="6.99845">
        <ele>885.4</ele>
        <time>2019-09-17T07:44:24Z</time>
      </trkpt>
      <trkpt lat="47.90788" lon="6.99843">
        <ele>885.1</ele>
        <time>2019-09-17T07:44:26Z</time>
      </trkpt>
      <trkpt lat="47.90785" lon="6.99842">
        <ele>883.8</ele>
        <time>2019-09-17T07:44:28Z</time>
      </trkpt>
      <trkpt lat="47.90781" lon="6.9984">
        <ele>883.6</ele>
        <time>2019-09-17T07:44:31Z</time>
      </trkpt>
      <trkpt lat="47.90778" lon="6.9984">
        <ele>883.5</ele>
        <time>2019-09-17T07:44:34Z</time>
      </trkpt>
      <trkpt lat="47.90774" lon="6.9984">
        <ele>883.4</ele>
        <time>2019-09-17T07:44:37Z</time>
      </trkpt>
      <trkpt lat="47.90772" lon="6.99842">
        <ele>884.5</ele>
        <time>2019-09-17T07:44:41Z</time>
      </trkpt>
      <trkpt lat="47.90769" lon="6.99844">
        <ele>884.4</ele>
        <time>2019-09-17T07:44:44Z</time>
      </trkpt>
      <trkpt lat="47.90767" lon="6.99843">
        <ele>884.2</ele>
        <time>2019-09-17T07:44:46Z</time>
      </trkpt>
      <trkpt lat="47.90763" lon="6.99842">
        <ele>884</ele>
        <time>2019-09-17T07:44:48Z</time>
      </trkpt>
      <trkpt lat="47.90761" lon="6.9984">
        <ele>882.6</ele>
        <time>2019-09-17T07:44:50Z</time>
      </trkpt>
      <trkpt lat="47.90758" lon="6.99838">
        <ele>882.4</ele>
        <time>2019-09-17T07:44:55Z</time>
      </trkpt>
      <trkpt lat="47.90756" lon="6.99834">
        <ele>880.9</ele>
        <time>2019-09-17T07:44:58Z</time>
      </trkpt>
      <trkpt lat="47.90755" lon="6.99829">
        <ele>877.6</ele>
        <time>2019-09-17T07:45:00Z</time>
      </trkpt>
      <trkpt lat="47.90754" lon="6.99824">
        <ele>876.2</ele>
        <time>2019-09-17T07:45:02Z</time>
      </trkpt>
      <trkpt lat="47.90752" lon="6.99818">
        <ele>875</ele>
        <time>2019-09-17T07:45:04Z</time>
      </trkpt>
      <trkpt lat="47.90751" lon="6.99813">
        <ele>873.6</ele>
        <time>2019-09-17T07:45:06Z</time>
      </trkpt>
      <trkpt lat="47.9075" lon="6.99807">
        <ele>871.4</ele>
        <time>2019-09-17T07:45:09Z</time>
      </trkpt>
      <trkpt lat="47.9075" lon="6.99803">
        <ele>870.4</ele>
        <time>2019-09-17T07:45:12Z</time>
      </trkpt>
      <trkpt lat="47.90748" lon="6.99799">
        <ele>869.3</ele>
        <time>2019-09-17T07:45:14Z</time>
      </trkpt>
      <trkpt lat="47.90747" lon="6.99795">
        <ele>869.1</ele>
        <time>2019-09-17T07:45:16Z</time>
      </trkpt>
      <trkpt lat="47.90746" lon="6.99791">
        <ele>868</ele>
        <time>2019-09-17T07:45:18Z</time>
      </trkpt>
      <trkpt lat="47.90746" lon="6.99785">
        <ele>865.5</ele>
        <time>2019-09-17T07:45:21Z</time>
      </trkpt>
      <trkpt lat="47.90746" lon="6.9978">
        <ele>864.2</ele>
        <time>2019-09-17T07:45:24Z</time>
      </trkpt>
      <trkpt lat="47.90746" lon="6.99775">
        <ele>862.8</ele>
        <time>2019-09-17T07:45:27Z</time>
      </trkpt>
      <trkpt lat="47.90746" lon="6.99771">
        <ele>861.4</ele>
        <time>2019-09-17T07:45:30Z</time>
      </trkpt>
      <trkpt lat="47.90745" lon="6.99766">
        <ele>860.1</ele>
        <time>2019-09-17T07:45:33Z</time>
      </trkpt>
      <trkpt lat="47.90744" lon="6.99761">
        <ele>858.9</ele>
        <time>2019-09-17T07:45:36Z</time>
      </trkpt>
      <trkpt lat="47.90743" lon="6.99756">
        <ele>857.7</ele>
        <time>2019-09-17T07:45:40Z</time>
      </trkpt>
      <trkpt lat="47.90744" lon="6.99752">
        <ele>856.6</ele>
        <time>2019-09-17T07:45:43Z</time>
      </trkpt>
      <trkpt lat="47.90742" lon="6.99747">
        <ele>854.3</ele>
        <time>2019-09-17T07:45:46Z</time>
      </trkpt>
      <trkpt lat="47.90741" lon="6.99744">
        <ele>854.3</ele>
        <time>2019-09-17T07:45:49Z</time>
      </trkpt>
      <trkpt lat="47.90739" lon="6.9974">
        <ele>853.2</ele>
        <time>2019-09-17T07:45:52Z</time>
      </trkpt>
      <trkpt lat="47.90738" lon="6.99735">
        <ele>852</ele>
        <time>2019-09-17T07:45:56Z</time>
      </trkpt>
      <trkpt lat="47.90737" lon="6.9973">
        <ele>849.5</ele>
        <time>2019-09-17T07:45:59Z</time>
      </trkpt>
      <trkpt lat="47.90735" lon="6.99726">
        <ele>848.4</ele>
        <time>2019-09-17T07:46:02Z</time>
      </trkpt>
      <trkpt lat="47.90733" lon="6.99723">
        <ele>848.6</ele>
        <time>2019-09-17T07:46:05Z</time>
      </trkpt>
      <trkpt lat="47.90733" lon="6.99719">
        <ele>847.4</ele>
        <time>2019-09-17T07:46:08Z</time>
      </trkpt>
      <trkpt lat="47.90732" lon="6.99715">
        <ele>846.3</ele>
        <time>2019-09-17T07:46:11Z</time>
      </trkpt>
      <trkpt lat="47.9073" lon="6.99712">
        <ele>845.5</ele>
        <time>2019-09-17T07:46:15Z</time>
      </trkpt>
      <trkpt lat="47.90728" lon="6.99708">
        <ele>844.6</ele>
        <time>2019-09-17T07:46:21Z</time>
      </trkpt>
      <trkpt lat="47.90726" lon="6.99704">
        <ele>843.5</ele>
        <time>2019-09-17T07:46:24Z</time>
      </trkpt>
      <trkpt lat="47.90725" lon="6.99699">
        <ele>842.6</ele>
        <time>2019-09-17T07:46:27Z</time>
      </trkpt>
      <trkpt lat="47.90723" lon="6.99694">
        <ele>841.4</ele>
        <time>2019-09-17T07:46:30Z</time>
      </trkpt>
      <trkpt lat="47.90721" lon="6.9969">
        <ele>840.4</ele>
        <time>2019-09-17T07:46:33Z</time>
      </trkpt>
      <trkpt lat="47.9072" lon="6.99687">
        <ele>839.2</ele>
        <time>2019-09-17T07:46:35Z</time>
      </trkpt>
      <trkpt lat="47.90719" lon="6.99681">
        <ele>838.2</ele>
        <time>2019-09-17T07:46:38Z</time>
      </trkpt>
      <trkpt lat="47.90717" lon="6.99676">
        <ele>837.1</ele>
        <time>2019-09-17T07:46:41Z</time>
      </trkpt>
      <trkpt lat="47.90717" lon="6.99672">
        <ele>836.1</ele>
        <time>2019-09-17T07:46:43Z</time>
      </trkpt>
      <trkpt lat="47.90716" lon="6.99667">
        <ele>835.2</ele>
        <time>2019-09-17T07:46:45Z</time>
      </trkpt>
      <trkpt lat="47.90717" lon="6.99663">
        <ele>834</ele>
        <time>2019-09-17T07:46:47Z</time>
      </trkpt>
      <trkpt lat="47.90717" lon="6.99657">
        <ele>831.9</ele>
        <time>2019-09-17T07:46:50Z</time>
      </trkpt>
      <trkpt lat="47.90717" lon="6.99653">
        <ele>830.8</ele>
        <time>2019-09-17T07:46:52Z</time>
      </trkpt>
      <trkpt lat="47.90715" lon="6.99647">
        <ele>829.9</ele>
        <time>2019-09-17T07:46:55Z</time>
      </trkpt>
      <trkpt lat="47.90714" lon="6.99644">
        <ele>828.9</ele>
        <time>2019-09-17T07:46:58Z</time>
      </trkpt>
      <trkpt lat="47.90711" lon="6.9964">
        <ele>827.8</ele>
        <time>2019-09-17T07:47:01Z</time>
      </trkpt>
      <trkpt lat="47.90709" lon="6.99635">
        <ele>826.9</ele>
        <time>2019-09-17T07:47:04Z</time>
      </trkpt>
      <trkpt lat="47.90708" lon="6.9963">
        <ele>826.1</ele>
        <time>2019-09-17T07:47:07Z</time>
      </trkpt>
      <trkpt lat="47.9071" lon="6.99626">
        <ele>825</ele>
        <time>2019-09-17T07:47:10Z</time>
      </trkpt>
      <trkpt lat="47.90711" lon="6.99621">
        <ele>824.2</ele>
        <time>2019-09-17T07:47:14Z</time>
      </trkpt>
      <trkpt lat="47.90712" lon="6.99617">
        <ele>823</ele>
        <time>2019-09-17T07:47:18Z</time>
      </trkpt>
      <trkpt lat="47.90708" lon="6.99618">
        <ele>823.3</ele>
        <time>2019-09-17T07:47:35Z</time>
      </trkpt>
      <trkpt lat="47.90706" lon="6.99615">
        <ele>823.6</ele>
        <time>2019-09-17T07:47:40Z</time>
      </trkpt>
      <trkpt lat="47.90705" lon="6.99611">
        <ele>822.9</ele>
        <time>2019-09-17T07:47:43Z</time>
      </trkpt>
      <trkpt lat="47.90704" lon="6.99606">
        <ele>822</ele>
        <time>2019-09-17T07:47:47Z</time>
      </trkpt>
      <trkpt lat="47.90703" lon="6.99601">
        <ele>820.1</ele>
        <time>2019-09-17T07:47:50Z</time>
      </trkpt>
      <trkpt lat="47.90702" lon="6.99597">
        <ele>819.3</ele>
        <time>2019-09-17T07:47:53Z</time>
      </trkpt>
      <trkpt lat="47.90701" lon="6.99592">
        <ele>818.3</ele>
        <time>2019-09-17T07:47:55Z</time>
      </trkpt>
      <trkpt lat="47.907" lon="6.99588">
        <ele>817.3</ele>
        <time>2019-09-17T07:47:57Z</time>
      </trkpt>
      <trkpt lat="47.907" lon="6.99583">
        <ele>816.4</ele>
        <time>2019-09-17T07:47:59Z</time>
      </trkpt>
      <trkpt lat="47.907" lon="6.99577">
        <ele>815.4</ele>
        <time>2019-09-17T07:48:01Z</time>
      </trkpt>
      <trkpt lat="47.90698" lon="6.99573">
        <ele>814.9</ele>
        <time>2019-09-17T07:48:03Z</time>
      </trkpt>
      <trkpt lat="47.90699" lon="6.99566">
        <ele>813.2</ele>
        <time>2019-09-17T07:48:06Z</time>
      </trkpt>
      <trkpt lat="47.90698" lon="6.99561">
        <ele>812.3</ele>
        <time>2019-09-17T07:48:09Z</time>
      </trkpt>
      <trkpt lat="47.90696" lon="6.99556">
        <ele>811.8</ele>
        <time>2019-09-17T07:48:12Z</time>
      </trkpt>
      <trkpt lat="47.90695" lon="6.99552">
        <ele>810.9</ele>
        <time>2019-09-17T07:48:15Z</time>
      </trkpt>
      <trkpt lat="47.90696" lon="6.99548">
        <ele>810</ele>
        <time>2019-09-17T07:48:23Z</time>
      </trkpt>
      <trkpt lat="47.90699" lon="6.99545">
        <ele>808.8</ele>
        <time>2019-09-17T07:48:27Z</time>
      </trkpt>
      <trkpt lat="47.90699" lon="6.9954">
        <ele>807.9</ele>
        <time>2019-09-17T07:48:31Z</time>
      </trkpt>
      <trkpt lat="47.90696" lon="6.99538">
        <ele>808.3</ele>
        <time>2019-09-17T07:48:34Z</time>
      </trkpt>
      <trkpt lat="47.90694" lon="6.99535">
        <ele>807.9</ele>
        <time>2019-09-17T07:48:37Z</time>
      </trkpt>
      <trkpt lat="47.90691" lon="6.99534">
        <ele>807.9</ele>
        <time>2019-09-17T07:48:39Z</time>
      </trkpt>
      <trkpt lat="47.90688" lon="6.99535">
        <ele>808.4</ele>
        <time>2019-09-17T07:48:42Z</time>
      </trkpt>
      <trkpt lat="47.90684" lon="6.99537">
        <ele>808.5</ele>
        <time>2019-09-17T07:48:45Z</time>
      </trkpt>
      <trkpt lat="47.9068" lon="6.99538">
        <ele>809.3</ele>
        <time>2019-09-17T07:48:48Z</time>
      </trkpt>
      <trkpt lat="47.90677" lon="6.99537">
        <ele>808.6</ele>
        <time>2019-09-17T07:48:50Z</time>
      </trkpt>
      <trkpt lat="47.90675" lon="6.99535">
        <ele>808.6</ele>
        <time>2019-09-17T07:48:54Z</time>
      </trkpt>
      <trkpt lat="47.90672" lon="6.99533">
        <ele>807.9</ele>
        <time>2019-09-17T07:48:58Z</time>
      </trkpt>
      <trkpt lat="47.90669" lon="6.9953">
        <ele>807.8</ele>
        <time>2019-09-17T07:49:01Z</time>
      </trkpt>
      <trkpt lat="47.90666" lon="6.99527">
        <ele>807.1</ele>
        <time>2019-09-17T07:49:04Z</time>
      </trkpt>
      <trkpt lat="47.90664" lon="6.99524">
        <ele>806.4</ele>
        <time>2019-09-17T07:49:08Z</time>
      </trkpt>
      <trkpt lat="47.90661" lon="6.99522">
        <ele>806.1</ele>
        <time>2019-09-17T07:49:10Z</time>
      </trkpt>
      <trkpt lat="47.90659" lon="6.99519">
        <ele>805.4</ele>
        <time>2019-09-17T07:49:12Z</time>
      </trkpt>
      <trkpt lat="47.90656" lon="6.99515">
        <ele>804.7</ele>
        <time>2019-09-17T07:49:16Z</time>
      </trkpt>
      <trkpt lat="47.90654" lon="6.99511">
        <ele>804.2</ele>
        <time>2019-09-17T07:49:19Z</time>
      </trkpt>
      <trkpt lat="47.90651" lon="6.99509">
        <ele>803.9</ele>
        <time>2019-09-17T07:49:23Z</time>
      </trkpt>
      <trkpt lat="47.90648" lon="6.99505">
        <ele>803</ele>
        <time>2019-09-17T07:49:25Z</time>
      </trkpt>
      <trkpt lat="47.90645" lon="6.99501">
        <ele>802.1</ele>
        <time>2019-09-17T07:49:27Z</time>
      </trkpt>
      <trkpt lat="47.90642" lon="6.99498">
        <ele>801.1</ele>
        <time>2019-09-17T07:49:29Z</time>
      </trkpt>
      <trkpt lat="47.9064" lon="6.99495">
        <ele>800.6</ele>
        <time>2019-09-17T07:49:31Z</time>
      </trkpt>
      <trkpt lat="47.90638" lon="6.99491">
        <ele>799.7</ele>
        <time>2019-09-17T07:49:33Z</time>
      </trkpt>
      <trkpt lat="47.90635" lon="6.99487">
        <ele>798.7</ele>
        <time>2019-09-17T07:49:36Z</time>
      </trkpt>
      <trkpt lat="47.90633" lon="6.99484">
        <ele>797.9</ele>
        <time>2019-09-17T07:49:38Z</time>
      </trkpt>
      <trkpt lat="47.90631" lon="6.9948">
        <ele>797.5</ele>
        <time>2019-09-17T07:49:41Z</time>
      </trkpt>
      <trkpt lat="47.90629" lon="6.99476">
        <ele>796.6</ele>
        <time>2019-09-17T07:49:44Z</time>
      </trkpt>
      <trkpt lat="47.90627" lon="6.99472">
        <ele>795.7</ele>
        <time>2019-09-17T07:49:46Z</time>
      </trkpt>
      <trkpt lat="47.90625" lon="6.99468">
        <ele>794.8</ele>
        <time>2019-09-17T07:49:49Z</time>
      </trkpt>
      <trkpt lat="47.90623" lon="6.99465">
        <ele>794.8</ele>
        <time>2019-09-17T07:49:52Z</time>
      </trkpt>
      <trkpt lat="47.90624" lon="6.99461">
        <ele>794.3</ele>
        <time>2019-09-17T07:50:32Z</time>
      </trkpt>
      <trkpt lat="47.90623" lon="6.99456">
        <ele>793.8</ele>
        <time>2019-09-17T07:50:36Z</time>
      </trkpt>
      <trkpt lat="47.90622" lon="6.99452">
        <ele>793.2</ele>
        <time>2019-09-17T07:50:40Z</time>
      </trkpt>
      <trkpt lat="47.90622" lon="6.99448">
        <ele>792.1</ele>
        <time>2019-09-17T07:50:43Z</time>
      </trkpt>
      <trkpt lat="47.90622" lon="6.99443">
        <ele>791.3</ele>
        <time>2019-09-17T07:50:47Z</time>
      </trkpt>
      <trkpt lat="47.90622" lon="6.99435">
        <ele>790.6</ele>
        <time>2019-09-17T07:50:49Z</time>
      </trkpt>
      <trkpt lat="47.90622" lon="6.99429">
        <ele>789.1</ele>
        <time>2019-09-17T07:50:50Z</time>
      </trkpt>
      <trkpt lat="47.90623" lon="6.99424">
        <ele>788.1</ele>
        <time>2019-09-17T07:50:51Z</time>
      </trkpt>
      <trkpt lat="47.90623" lon="6.99419">
        <ele>787.1</ele>
        <time>2019-09-17T07:50:53Z</time>
      </trkpt>
      <trkpt lat="47.90621" lon="6.99416">
        <ele>785.7</ele>
        <time>2019-09-17T07:50:56Z</time>
      </trkpt>
      <trkpt lat="47.90619" lon="6.99412">
        <ele>784.7</ele>
        <time>2019-09-17T07:50:58Z</time>
      </trkpt>
      <trkpt lat="47.90617" lon="6.99411">
        <ele>784.3</ele>
        <time>2019-09-17T07:51:02Z</time>
      </trkpt>
      <trkpt lat="47.90614" lon="6.99408">
        <ele>782.8</ele>
        <time>2019-09-17T07:51:05Z</time>
      </trkpt>
      <trkpt lat="47.90612" lon="6.99407">
        <ele>782.2</ele>
        <time>2019-09-17T07:51:08Z</time>
      </trkpt>
      <trkpt lat="47.90609" lon="6.99403">
        <ele>780.6</ele>
        <time>2019-09-17T07:51:12Z</time>
      </trkpt>
      <trkpt lat="47.90607" lon="6.99399">
        <ele>778.9</ele>
        <time>2019-09-17T07:51:17Z</time>
      </trkpt>
      <trkpt lat="47.90604" lon="6.99397">
        <ele>778.3</ele>
        <time>2019-09-17T07:51:21Z</time>
      </trkpt>
      <trkpt lat="47.90601" lon="6.99395">
        <ele>776.5</ele>
        <time>2019-09-17T07:51:24Z</time>
      </trkpt>
      <trkpt lat="47.90598" lon="6.99393">
        <ele>775.9</ele>
        <time>2019-09-17T07:51:26Z</time>
      </trkpt>
      <trkpt lat="47.90594" lon="6.99392">
        <ele>775.1</ele>
        <time>2019-09-17T07:51:29Z</time>
      </trkpt>
      <trkpt lat="47.90591" lon="6.9939">
        <ele>773.1</ele>
        <time>2019-09-17T07:51:32Z</time>
      </trkpt>
      <trkpt lat="47.90588" lon="6.99388">
        <ele>772.3</ele>
        <time>2019-09-17T07:51:34Z</time>
      </trkpt>
      <trkpt lat="47.90584" lon="6.99386">
        <ele>770.1</ele>
        <time>2019-09-17T07:51:36Z</time>
      </trkpt>
      <trkpt lat="47.90582" lon="6.99386">
        <ele>769.2</ele>
        <time>2019-09-17T07:51:38Z</time>
      </trkpt>
      <trkpt lat="47.90578" lon="6.99387">
        <ele>767.4</ele>
        <time>2019-09-17T07:51:41Z</time>
      </trkpt>
      <trkpt lat="47.90575" lon="6.99387">
        <ele>766.5</ele>
        <time>2019-09-17T07:51:44Z</time>
      </trkpt>
      <trkpt lat="47.90571" lon="6.99384">
        <ele>765.7</ele>
        <time>2019-09-17T07:51:47Z</time>
      </trkpt>
      <trkpt lat="47.90568" lon="6.99381">
        <ele>763.7</ele>
        <time>2019-09-17T07:51:50Z</time>
      </trkpt>
      <trkpt lat="47.90566" lon="6.99379">
        <ele>762.8</ele>
        <time>2019-09-17T07:51:53Z</time>
      </trkpt>
      <trkpt lat="47.90562" lon="6.99379">
        <ele>762</ele>
        <time>2019-09-17T07:51:56Z</time>
      </trkpt>
      <trkpt lat="47.90559" lon="6.99379">
        <ele>761.1</ele>
        <time>2019-09-17T07:51:59Z</time>
      </trkpt>
      <trkpt lat="47.90556" lon="6.99378">
        <ele>758.9</ele>
        <time>2019-09-17T07:52:02Z</time>
      </trkpt>
      <trkpt lat="47.90553" lon="6.99377">
        <ele>757.9</ele>
        <time>2019-09-17T07:52:05Z</time>
      </trkpt>
      <trkpt lat="47.9055" lon="6.99376">
        <ele>755.9</ele>
        <time>2019-09-17T07:52:08Z</time>
      </trkpt>
      <trkpt lat="47.90547" lon="6.99375">
        <ele>755.9</ele>
        <time>2019-09-17T07:52:11Z</time>
      </trkpt>
      <trkpt lat="47.90544" lon="6.99374">
        <ele>754</ele>
        <time>2019-09-17T07:52:14Z</time>
      </trkpt>
      <trkpt lat="47.90541" lon="6.99373">
        <ele>751.9</ele>
        <time>2019-09-17T07:52:17Z</time>
      </trkpt>
      <trkpt lat="47.90538" lon="6.99372">
        <ele>750.9</ele>
        <time>2019-09-17T07:52:20Z</time>
      </trkpt>
      <trkpt lat="47.90535" lon="6.99372">
        <ele>749.9</ele>
        <time>2019-09-17T07:52:23Z</time>
      </trkpt>
      <trkpt lat="47.90533" lon="6.9937">
        <ele>749.9</ele>
        <time>2019-09-17T07:52:26Z</time>
      </trkpt>
      <trkpt lat="47.9053" lon="6.99368">
        <ele>747.5</ele>
        <time>2019-09-17T07:52:29Z</time>
      </trkpt>
      <trkpt lat="47.90527" lon="6.99367">
        <ele>746.3</ele>
        <time>2019-09-17T07:52:32Z</time>
      </trkpt>
      <trkpt lat="47.90524" lon="6.99368">
        <ele>744</ele>
        <time>2019-09-17T07:52:36Z</time>
      </trkpt>
      <trkpt lat="47.9052" lon="6.99368">
        <ele>743</ele>
        <time>2019-09-17T07:52:39Z</time>
      </trkpt>
      <trkpt lat="47.90516" lon="6.99367">
        <ele>742</ele>
        <time>2019-09-17T07:52:42Z</time>
      </trkpt>
      <trkpt lat="47.90513" lon="6.99366">
        <ele>739.8</ele>
        <time>2019-09-17T07:52:44Z</time>
      </trkpt>
      <trkpt lat="47.9051" lon="6.99364">
        <ele>738.8</ele>
        <time>2019-09-17T07:52:47Z</time>
      </trkpt>
      <trkpt lat="47.90507" lon="6.99362">
        <ele>737.8</ele>
        <time>2019-09-17T07:52:50Z</time>
      </trkpt>
      <trkpt lat="47.90504" lon="6.9936">
        <ele>735.6</ele>
        <time>2019-09-17T07:52:53Z</time>
      </trkpt>
      <trkpt lat="47.90503" lon="6.99357">
        <ele>733.5</ele>
        <time>2019-09-17T07:52:56Z</time>
      </trkpt>
      <trkpt lat="47.90501" lon="6.99354">
        <ele>732.5</ele>
        <time>2019-09-17T07:52:59Z</time>
      </trkpt>
      <trkpt lat="47.90499" lon="6.9935">
        <ele>731.4</ele>
        <time>2019-09-17T07:53:02Z</time>
      </trkpt>
      <trkpt lat="47.90497" lon="6.99347">
        <ele>729.4</ele>
        <time>2019-09-17T07:53:05Z</time>
      </trkpt>
      <trkpt lat="47.90494" lon="6.99344">
        <ele>727.5</ele>
        <time>2019-09-17T07:53:08Z</time>
      </trkpt>
      <trkpt lat="47.90492" lon="6.9934">
        <ele>727.5</ele>
        <time>2019-09-17T07:53:11Z</time>
      </trkpt>
      <trkpt lat="47.9049" lon="6.99337">
        <ele>725.6</ele>
        <time>2019-09-17T07:53:14Z</time>
      </trkpt>
      <trkpt lat="47.90489" lon="6.99334">
        <ele>723.8</ele>
        <time>2019-09-17T07:53:17Z</time>
      </trkpt>
      <trkpt lat="47.90487" lon="6.9933">
        <ele>722.8</ele>
        <time>2019-09-17T07:53:21Z</time>
      </trkpt>
      <trkpt lat="47.90485" lon="6.99326">
        <ele>721.1</ele>
        <time>2019-09-17T07:53:24Z</time>
      </trkpt>
      <trkpt lat="47.90483" lon="6.99323">
        <ele>719.4</ele>
        <time>2019-09-17T07:53:28Z</time>
      </trkpt>
      <trkpt lat="47.90479" lon="6.99321">
        <ele>718.7</ele>
        <time>2019-09-17T07:53:32Z</time>
      </trkpt>
      <trkpt lat="47.90477" lon="6.99317">
        <ele>717</ele>
        <time>2019-09-17T07:53:36Z</time>
      </trkpt>
      <trkpt lat="47.90473" lon="6.99315">
        <ele>716.2</ele>
        <time>2019-09-17T07:53:39Z</time>
      </trkpt>
      <trkpt lat="47.9047" lon="6.99313">
        <ele>714.6</ele>
        <time>2019-09-17T07:53:42Z</time>
      </trkpt>
      <trkpt lat="47.90467" lon="6.99312">
        <ele>713.8</ele>
        <time>2019-09-17T07:53:45Z</time>
      </trkpt>
      <trkpt lat="47.90463" lon="6.99312">
        <ele>712.4</ele>
        <time>2019-09-17T07:53:48Z</time>
      </trkpt>
      <trkpt lat="47.90459" lon="6.99312">
        <ele>711.7</ele>
        <time>2019-09-17T07:53:51Z</time>
      </trkpt>
      <trkpt lat="47.90457" lon="6.99312">
        <ele>711.1</ele>
        <time>2019-09-17T07:53:54Z</time>
      </trkpt>
      <trkpt lat="47.90453" lon="6.99311">
        <ele>710.5</ele>
        <time>2019-09-17T07:53:57Z</time>
      </trkpt>
      <trkpt lat="47.90453" lon="6.99305">
        <ele>709.2</ele>
        <time>2019-09-17T07:54:02Z</time>
      </trkpt>
      <trkpt lat="47.90451" lon="6.99302">
        <ele>708.5</ele>
        <time>2019-09-17T07:54:05Z</time>
      </trkpt>
      <trkpt lat="47.90449" lon="6.993">
        <ele>707.2</ele>
        <time>2019-09-17T07:54:09Z</time>
      </trkpt>
      <trkpt lat="47.90446" lon="6.99298">
        <ele>707.3</ele>
        <time>2019-09-17T07:54:12Z</time>
      </trkpt>
      <trkpt lat="47.90443" lon="6.99296">
        <ele>705.4</ele>
        <time>2019-09-17T07:54:16Z</time>
      </trkpt>
      <trkpt lat="47.9044" lon="6.99295">
        <ele>704.8</ele>
        <time>2019-09-17T07:54:19Z</time>
      </trkpt>
      <trkpt lat="47.90437" lon="6.99295">
        <ele>704.2</ele>
        <time>2019-09-17T07:54:22Z</time>
      </trkpt>
      <trkpt lat="47.90433" lon="6.99292">
        <ele>703.1</ele>
        <time>2019-09-17T07:54:24Z</time>
      </trkpt>
      <trkpt lat="47.9043" lon="6.99289">
        <ele>702.6</ele>
        <time>2019-09-17T07:54:26Z</time>
      </trkpt>
      <trkpt lat="47.90428" lon="6.99286">
        <ele>701.5</ele>
        <time>2019-09-17T07:54:28Z</time>
      </trkpt>
      <trkpt lat="47.90425" lon="6.99283">
        <ele>700.3</ele>
        <time>2019-09-17T07:54:30Z</time>
      </trkpt>
      <trkpt lat="47.90424" lon="6.99279">
        <ele>699.7</ele>
        <time>2019-09-17T07:54:32Z</time>
      </trkpt>
      <trkpt lat="47.90421" lon="6.99276">
        <ele>699.2</ele>
        <time>2019-09-17T07:54:35Z</time>
      </trkpt>
      <trkpt lat="47.90418" lon="6.99274">
        <ele>698.1</ele>
        <time>2019-09-17T07:54:38Z</time>
      </trkpt>
      <trkpt lat="47.90415" lon="6.9927">
        <ele>696.9</ele>
        <time>2019-09-17T07:54:41Z</time>
      </trkpt>
      <trkpt lat="47.90413" lon="6.99266">
        <ele>695.8</ele>
        <time>2019-09-17T07:54:44Z</time>
      </trkpt>
      <trkpt lat="47.90411" lon="6.99261">
        <ele>694.8</ele>
        <time>2019-09-17T07:54:47Z</time>
      </trkpt>
      <trkpt lat="47.90409" lon="6.99256">
        <ele>694.2</ele>
        <time>2019-09-17T07:54:50Z</time>
      </trkpt>
      <trkpt lat="47.90407" lon="6.99254">
        <ele>693.8</ele>
        <time>2019-09-17T07:54:52Z</time>
      </trkpt>
      <trkpt lat="47.90403" lon="6.99252">
        <ele>692.9</ele>
        <time>2019-09-17T07:54:55Z</time>
      </trkpt>
      <trkpt lat="47.90401" lon="6.9925">
        <ele>692.5</ele>
        <time>2019-09-17T07:54:57Z</time>
      </trkpt>
      <trkpt lat="47.90397" lon="6.99249">
        <ele>691.2</ele>
        <time>2019-09-17T07:55:00Z</time>
      </trkpt>
      <trkpt lat="47.90393" lon="6.99247">
        <ele>690.8</ele>
        <time>2019-09-17T07:55:03Z</time>
      </trkpt>
      <trkpt lat="47.9039" lon="6.99247">
        <ele>690.4</ele>
        <time>2019-09-17T07:55:06Z</time>
      </trkpt>
      <trkpt lat="47.90387" lon="6.99246">
        <ele>690</ele>
        <time>2019-09-17T07:55:09Z</time>
      </trkpt>
      <trkpt lat="47.90384" lon="6.99243">
        <ele>688.9</ele>
        <time>2019-09-17T07:55:15Z</time>
      </trkpt>
      <trkpt lat="47.90381" lon="6.99242">
        <ele>688.5</ele>
        <time>2019-09-17T07:55:18Z</time>
      </trkpt>
      <trkpt lat="47.90378" lon="6.99241">
        <ele>687.4</ele>
        <time>2019-09-17T07:55:21Z</time>
      </trkpt>
      <trkpt lat="47.90376" lon="6.99238">
        <ele>687</ele>
        <time>2019-09-17T07:55:24Z</time>
      </trkpt>
      <trkpt lat="47.90373" lon="6.99234">
        <ele>685.8</ele>
        <time>2019-09-17T07:55:27Z</time>
      </trkpt>
      <trkpt lat="47.9037" lon="6.9923">
        <ele>684.5</ele>
        <time>2019-09-17T07:55:29Z</time>
      </trkpt>
      <trkpt lat="47.90367" lon="6.99227">
        <ele>683.3</ele>
        <time>2019-09-17T07:55:32Z</time>
      </trkpt>
      <trkpt lat="47.90365" lon="6.99223">
        <ele>682</ele>
        <time>2019-09-17T07:55:35Z</time>
      </trkpt>
      <trkpt lat="47.90363" lon="6.9922">
        <ele>681.6</ele>
        <time>2019-09-17T07:55:39Z</time>
      </trkpt>
      <trkpt lat="47.9036" lon="6.99218">
        <ele>680.7</ele>
        <time>2019-09-17T07:55:42Z</time>
      </trkpt>
      <trkpt lat="47.90357" lon="6.99216">
        <ele>679.8</ele>
        <time>2019-09-17T07:55:44Z</time>
      </trkpt>
      <trkpt lat="47.90354" lon="6.99215">
        <ele>678.5</ele>
        <time>2019-09-17T07:55:46Z</time>
      </trkpt>
      <trkpt lat="47.9035" lon="6.99213">
        <ele>678.1</ele>
        <time>2019-09-17T07:55:49Z</time>
      </trkpt>
      <trkpt lat="47.90346" lon="6.99213">
        <ele>677.6</ele>
        <time>2019-09-17T07:55:52Z</time>
      </trkpt>
      <trkpt lat="47.90342" lon="6.99212">
        <ele>676.6</ele>
        <time>2019-09-17T07:55:55Z</time>
      </trkpt>
      <trkpt lat="47.90338" lon="6.99211">
        <ele>675.2</ele>
        <time>2019-09-17T07:55:57Z</time>
      </trkpt>
      <trkpt lat="47.90335" lon="6.99209">
        <ele>674.6</ele>
        <time>2019-09-17T07:55:59Z</time>
      </trkpt>
      <trkpt lat="47.90334" lon="6.99204">
        <ele>673.7</ele>
        <time>2019-09-17T07:56:04Z</time>
      </trkpt>
      <trkpt lat="47.90333" lon="6.992">
        <ele>672.1</ele>
        <time>2019-09-17T07:56:07Z</time>
      </trkpt>
      <trkpt lat="47.90332" lon="6.99197">
        <ele>671</ele>
        <time>2019-09-17T07:56:12Z</time>
      </trkpt>
      <trkpt lat="47.9033" lon="6.99193">
        <ele>669.3</ele>
        <time>2019-09-17T07:56:17Z</time>
      </trkpt>
      <trkpt lat="47.90329" lon="6.99189">
        <ele>668.2</ele>
        <time>2019-09-17T07:56:20Z</time>
      </trkpt>
      <trkpt lat="47.90326" lon="6.99186">
        <ele>667.6</ele>
        <time>2019-09-17T07:56:23Z</time>
      </trkpt>
      <trkpt lat="47.90323" lon="6.99181">
        <ele>664.9</ele>
        <time>2019-09-17T07:56:37Z</time>
      </trkpt>
      <trkpt lat="47.90321" lon="6.99184">
        <ele>665.6</ele>
        <time>2019-09-17T07:56:43Z</time>
      </trkpt>
      <trkpt lat="47.90318" lon="6.99182">
        <ele>665.1</ele>
        <time>2019-09-17T07:56:46Z</time>
      </trkpt>
      <trkpt lat="47.90315" lon="6.9918">
        <ele>663.5</ele>
        <time>2019-09-17T07:56:50Z</time>
      </trkpt>
      <trkpt lat="47.90312" lon="6.99178">
        <ele>663</ele>
        <time>2019-09-17T07:56:53Z</time>
      </trkpt>
      <trkpt lat="47.90309" lon="6.99176">
        <ele>661.4</ele>
        <time>2019-09-17T07:56:55Z</time>
      </trkpt>
      <trkpt lat="47.90306" lon="6.99173">
        <ele>660.9</ele>
        <time>2019-09-17T07:56:57Z</time>
      </trkpt>
      <trkpt lat="47.90303" lon="6.9917">
        <ele>659.2</ele>
        <time>2019-09-17T07:57:00Z</time>
      </trkpt>
      <trkpt lat="47.903" lon="6.99168">
        <ele>657.5</ele>
        <time>2019-09-17T07:57:03Z</time>
      </trkpt>
      <trkpt lat="47.90297" lon="6.99166">
        <ele>656.9</ele>
        <time>2019-09-17T07:57:06Z</time>
      </trkpt>
      <trkpt lat="47.90294" lon="6.99165">
        <ele>656.4</ele>
        <time>2019-09-17T07:57:08Z</time>
      </trkpt>
      <trkpt lat="47.90291" lon="6.99164">
        <ele>654.6</ele>
        <time>2019-09-17T07:57:10Z</time>
      </trkpt>
      <trkpt lat="47.90288" lon="6.99163">
        <ele>653.6</ele>
        <time>2019-09-17T07:57:12Z</time>
      </trkpt>
      <trkpt lat="47.90285" lon="6.99162">
        <ele>653.1</ele>
        <time>2019-09-17T07:57:14Z</time>
      </trkpt>
      <trkpt lat="47.90282" lon="6.99161">
        <ele>653.1</ele>
        <time>2019-09-17T07:57:16Z</time>
      </trkpt>
      <trkpt lat="47.90279" lon="6.99159">
        <ele>650.7</ele>
        <time>2019-09-17T07:57:19Z</time>
      </trkpt>
      <trkpt lat="47.90276" lon="6.99158">
        <ele>650.1</ele>
        <time>2019-09-17T07:57:22Z</time>
      </trkpt>
      <trkpt lat="47.90274" lon="6.99155">
        <ele>648.9</ele>
        <time>2019-09-17T07:57:25Z</time>
      </trkpt>
      <trkpt lat="47.90272" lon="6.99152">
        <ele>648.3</ele>
        <time>2019-09-17T07:57:28Z</time>
      </trkpt>
      <trkpt lat="47.90269" lon="6.99148">
        <ele>646.6</ele>
        <time>2019-09-17T07:57:32Z</time>
      </trkpt>
      <trkpt lat="47.90266" lon="6.99144">
        <ele>644.8</ele>
        <time>2019-09-17T07:57:35Z</time>
      </trkpt>
      <trkpt lat="47.90263" lon="6.99142">
        <ele>643.1</ele>
        <time>2019-09-17T07:57:38Z</time>
      </trkpt>
      <trkpt lat="47.9026" lon="6.99142">
        <ele>642.8</ele>
        <time>2019-09-17T07:57:41Z</time>
      </trkpt>
      <trkpt lat="47.90256" lon="6.99142">
        <ele>642.4</ele>
        <time>2019-09-17T07:57:44Z</time>
      </trkpt>
      <trkpt lat="47.90253" lon="6.99141">
        <ele>641.5</ele>
        <time>2019-09-17T07:57:47Z</time>
      </trkpt>
      <trkpt lat="47.9025" lon="6.99142">
        <ele>641</ele>
        <time>2019-09-17T07:57:50Z</time>
      </trkpt>
      <trkpt lat="47.90246" lon="6.99141">
        <ele>640.6</ele>
        <time>2019-09-17T07:57:53Z</time>
      </trkpt>
      <trkpt lat="47.90243" lon="6.9914">
        <ele>640.1</ele>
        <time>2019-09-17T07:57:56Z</time>
      </trkpt>
      <trkpt lat="47.90243" lon="6.99136">
        <ele>638.8</ele>
        <time>2019-09-17T07:58:00Z</time>
      </trkpt>
      <trkpt lat="47.90242" lon="6.9913">
        <ele>637.6</ele>
        <time>2019-09-17T07:58:03Z</time>
      </trkpt>
      <trkpt lat="47.90242" lon="6.99126">
        <ele>636.3</ele>
        <time>2019-09-17T07:58:05Z</time>
      </trkpt>
      <trkpt lat="47.9024" lon="6.99122">
        <ele>634.6</ele>
        <time>2019-09-17T07:58:08Z</time>
      </trkpt>
      <trkpt lat="47.90238" lon="6.99118">
        <ele>632.9</ele>
        <time>2019-09-17T07:58:11Z</time>
      </trkpt>
      <trkpt lat="47.90234" lon="6.99116">
        <ele>631.1</ele>
        <time>2019-09-17T07:58:14Z</time>
      </trkpt>
      <trkpt lat="47.90231" lon="6.99114">
        <ele>630.7</ele>
        <time>2019-09-17T07:58:17Z</time>
      </trkpt>
      <trkpt lat="47.90229" lon="6.99112">
        <ele>628.8</ele>
        <time>2019-09-17T07:58:20Z</time>
      </trkpt>
      <trkpt lat="47.90226" lon="6.9911">
        <ele>628.4</ele>
        <time>2019-09-17T07:58:22Z</time>
      </trkpt>
      <trkpt lat="47.90223" lon="6.99109">
        <ele>628</ele>
        <time>2019-09-17T07:58:24Z</time>
      </trkpt>
      <trkpt lat="47.90219" lon="6.99108">
        <ele>625.8</ele>
        <time>2019-09-17T07:58:26Z</time>
      </trkpt>
      <trkpt lat="47.90215" lon="6.99107">
        <ele>625.5</ele>
        <time>2019-09-17T07:58:28Z</time>
      </trkpt>
      <trkpt lat="47.90212" lon="6.99107">
        <ele>625.2</ele>
        <time>2019-09-17T07:58:32Z</time>
      </trkpt>
      <trkpt lat="47.90208" lon="6.99106">
        <ele>625</ele>
        <time>2019-09-17T07:58:35Z</time>
      </trkpt>
      <trkpt lat="47.90204" lon="6.99105">
        <ele>624.6</ele>
        <time>2019-09-17T07:58:37Z</time>
      </trkpt>
      <trkpt lat="47.902" lon="6.99104">
        <ele>623.1</ele>
        <time>2019-09-17T07:58:39Z</time>
      </trkpt>
      <trkpt lat="47.90197" lon="6.99102">
        <ele>622.9</ele>
        <time>2019-09-17T07:58:41Z</time>
      </trkpt>
      <trkpt lat="47.90194" lon="6.991">
        <ele>622.8</ele>
        <time>2019-09-17T07:58:43Z</time>
      </trkpt>
      <trkpt lat="47.90191" lon="6.99098">
        <ele>621.3</ele>
        <time>2019-09-17T07:58:46Z</time>
      </trkpt>
      <trkpt lat="47.90187" lon="6.99096">
        <ele>621</ele>
        <time>2019-09-17T07:58:49Z</time>
      </trkpt>
      <trkpt lat="47.90184" lon="6.99093">
        <ele>619.6</ele>
        <time>2019-09-17T07:58:51Z</time>
      </trkpt>
      <trkpt lat="47.90182" lon="6.99091">
        <ele>619.5</ele>
        <time>2019-09-17T07:58:53Z</time>
      </trkpt>
      <trkpt lat="47.90179" lon="6.99089">
        <ele>618.1</ele>
        <time>2019-09-17T07:58:56Z</time>
      </trkpt>
      <trkpt lat="47.90176" lon="6.99086">
        <ele>616.6</ele>
        <time>2019-09-17T07:58:59Z</time>
      </trkpt>
      <trkpt lat="47.90174" lon="6.99083">
        <ele>616.5</ele>
        <time>2019-09-17T07:59:02Z</time>
      </trkpt>
      <trkpt lat="47.9017" lon="6.99081">
        <ele>615.2</ele>
        <time>2019-09-17T07:59:05Z</time>
      </trkpt>
      <trkpt lat="47.90166" lon="6.9908">
        <ele>615</ele>
        <time>2019-09-17T07:59:08Z</time>
      </trkpt>
      <trkpt lat="47.90163" lon="6.9908">
        <ele>615</ele>
        <time>2019-09-17T07:59:10Z</time>
      </trkpt>
      <trkpt lat="47.90159" lon="6.99079">
        <ele>614.8</ele>
        <time>2019-09-17T07:59:12Z</time>
      </trkpt>
      <trkpt lat="47.90156" lon="6.99081">
        <ele>614.7</ele>
        <time>2019-09-17T07:59:14Z</time>
      </trkpt>
      <trkpt lat="47.90153" lon="6.99082">
        <ele>614.6</ele>
        <time>2019-09-17T07:59:16Z</time>
      </trkpt>
      <trkpt lat="47.9015" lon="6.99084">
        <ele>615.5</ele>
        <time>2019-09-17T07:59:18Z</time>
      </trkpt>
      <trkpt lat="47.90148" lon="6.99086">
        <ele>615.3</ele>
        <time>2019-09-17T07:59:20Z</time>
      </trkpt>
      <trkpt lat="47.90145" lon="6.99088">
        <ele>616.1</ele>
        <time>2019-09-17T07:59:22Z</time>
      </trkpt>
      <trkpt lat="47.90142" lon="6.9909">
        <ele>615.8</ele>
        <time>2019-09-17T07:59:24Z</time>
      </trkpt>
      <trkpt lat="47.90139" lon="6.99092">
        <ele>616.4</ele>
        <time>2019-09-17T07:59:26Z</time>
      </trkpt>
      <trkpt lat="47.90137" lon="6.99095">
        <ele>616.1</ele>
        <time>2019-09-17T07:59:28Z</time>
      </trkpt>
      <trkpt lat="47.90135" lon="6.99098">
        <ele>616.6</ele>
        <time>2019-09-17T07:59:30Z</time>
      </trkpt>
      <trkpt lat="47.90132" lon="6.99101">
        <ele>617.1</ele>
        <time>2019-09-17T07:59:32Z</time>
      </trkpt>
      <trkpt lat="47.90129" lon="6.99104">
        <ele>617.6</ele>
        <time>2019-09-17T07:59:35Z</time>
      </trkpt>
      <trkpt lat="47.90126" lon="6.99107">
        <ele>617.3</ele>
        <time>2019-09-17T07:59:37Z</time>
      </trkpt>
      <trkpt lat="47.90124" lon="6.99111">
        <ele>617.6</ele>
        <time>2019-09-17T07:59:39Z</time>
      </trkpt>
      <trkpt lat="47.90121" lon="6.99114">
        <ele>618.3</ele>
        <time>2019-09-17T07:59:41Z</time>
      </trkpt>
      <trkpt lat="47.90119" lon="6.99118">
        <ele>618.4</ele>
        <time>2019-09-17T07:59:43Z</time>
      </trkpt>
      <trkpt lat="47.90117" lon="6.99122">
        <ele>618.4</ele>
        <time>2019-09-17T07:59:45Z</time>
      </trkpt>
      <trkpt lat="47.90115" lon="6.99126">
        <ele>618.3</ele>
        <time>2019-09-17T07:59:47Z</time>
      </trkpt>
      <trkpt lat="47.90113" lon="6.99129">
        <ele>618.3</ele>
        <time>2019-09-17T07:59:49Z</time>
      </trkpt>
      <trkpt lat="47.90111" lon="6.99134">
        <ele>618</ele>
        <time>2019-09-17T07:59:52Z</time>
      </trkpt>
      <trkpt lat="47.90108" lon="6.99138">
        <ele>617.7</ele>
        <time>2019-09-17T07:59:55Z</time>
      </trkpt>
      <trkpt lat="47.90106" lon="6.9914">
        <ele>617.3</ele>
        <time>2019-09-17T07:59:58Z</time>
      </trkpt>
      <trkpt lat="47.90103" lon="6.99144">
        <ele>616.9</ele>
        <time>2019-09-17T08:00:01Z</time>
      </trkpt>
      <trkpt lat="47.90101" lon="6.99146">
        <ele>616.3</ele>
        <time>2019-09-17T08:00:03Z</time>
      </trkpt>
      <trkpt lat="47.90098" lon="6.99149">
        <ele>615.8</ele>
        <time>2019-09-17T08:00:05Z</time>
      </trkpt>
      <trkpt lat="47.90095" lon="6.99151">
        <ele>615.2</ele>
        <time>2019-09-17T08:00:07Z</time>
      </trkpt>
      <trkpt lat="47.90092" lon="6.99152">
        <ele>614.8</ele>
        <time>2019-09-17T08:00:09Z</time>
      </trkpt>
      <trkpt lat="47.90089" lon="6.99154">
        <ele>614.1</ele>
        <time>2019-09-17T08:00:11Z</time>
      </trkpt>
      <trkpt lat="47.90086" lon="6.99155">
        <ele>613.4</ele>
        <time>2019-09-17T08:00:13Z</time>
      </trkpt>
      <trkpt lat="47.90083" lon="6.99157">
        <ele>612.9</ele>
        <time>2019-09-17T08:00:16Z</time>
      </trkpt>
      <trkpt lat="47.9008" lon="6.9916">
        <ele>612.3</ele>
        <time>2019-09-17T08:00:19Z</time>
      </trkpt>
      <trkpt lat="47.90077" lon="6.99159">
        <ele>611.4</ele>
        <time>2019-09-17T08:00:25Z</time>
      </trkpt>
      <trkpt lat="47.90074" lon="6.99158">
        <ele>610.8</ele>
        <time>2019-09-17T08:00:29Z</time>
      </trkpt>
      <trkpt lat="47.90071" lon="6.99158">
        <ele>610.2</ele>
        <time>2019-09-17T08:00:32Z</time>
      </trkpt>
      <trkpt lat="47.90068" lon="6.99158">
        <ele>609.6</ele>
        <time>2019-09-17T08:00:35Z</time>
      </trkpt>
      <trkpt lat="47.90064" lon="6.99158">
        <ele>608.3</ele>
        <time>2019-09-17T08:00:38Z</time>
      </trkpt>
      <trkpt lat="47.9006" lon="6.99156">
        <ele>607.5</ele>
        <time>2019-09-17T08:00:40Z</time>
      </trkpt>
      <trkpt lat="47.90056" lon="6.99154">
        <ele>606.5</ele>
        <time>2019-09-17T08:00:42Z</time>
      </trkpt>
      <trkpt lat="47.90052" lon="6.99151">
        <ele>604.9</ele>
        <time>2019-09-17T08:00:44Z</time>
      </trkpt>
      <trkpt lat="47.90049" lon="6.99148">
        <ele>604.1</ele>
        <time>2019-09-17T08:00:46Z</time>
      </trkpt>
      <trkpt lat="47.90046" lon="6.99145">
        <ele>603.9</ele>
        <time>2019-09-17T08:00:48Z</time>
      </trkpt>
      <trkpt lat="47.90044" lon="6.99142">
        <ele>603</ele>
        <time>2019-09-17T08:00:50Z</time>
      </trkpt>
      <trkpt lat="47.90041" lon="6.9914">
        <ele>602.3</ele>
        <time>2019-09-17T08:00:53Z</time>
      </trkpt>
      <trkpt lat="47.90039" lon="6.99136">
        <ele>601.4</ele>
        <time>2019-09-17T08:00:56Z</time>
      </trkpt>
      <trkpt lat="47.90036" lon="6.99131">
        <ele>600.5</ele>
        <time>2019-09-17T08:00:59Z</time>
      </trkpt>
      <trkpt lat="47.90034" lon="6.99128">
        <ele>599.6</ele>
        <time>2019-09-17T08:01:01Z</time>
      </trkpt>
      <trkpt lat="47.90032" lon="6.99125">
        <ele>599.5</ele>
        <time>2019-09-17T08:01:03Z</time>
      </trkpt>
      <trkpt lat="47.9003" lon="6.99122">
        <ele>598.7</ele>
        <time>2019-09-17T08:01:05Z</time>
      </trkpt>
      <trkpt lat="47.90028" lon="6.99119">
        <ele>597.7</ele>
        <time>2019-09-17T08:01:07Z</time>
      </trkpt>
      <trkpt lat="47.90025" lon="6.99114">
        <ele>596.8</ele>
        <time>2019-09-17T08:01:10Z</time>
      </trkpt>
      <trkpt lat="47.90024" lon="6.9911">
        <ele>596.6</ele>
        <time>2019-09-17T08:01:12Z</time>
      </trkpt>
      <trkpt lat="47.90022" lon="6.99105">
        <ele>595.6</ele>
        <time>2019-09-17T08:01:14Z</time>
      </trkpt>
      <trkpt lat="47.90021" lon="6.99101">
        <ele>595.5</ele>
        <time>2019-09-17T08:01:16Z</time>
      </trkpt>
      <trkpt lat="47.90021" lon="6.99095">
        <ele>595.3</ele>
        <time>2019-09-17T08:01:19Z</time>
      </trkpt>
      <trkpt lat="47.90021" lon="6.9909">
        <ele>594.9</ele>
        <time>2019-09-17T08:01:23Z</time>
      </trkpt>
      <trkpt lat="47.90023" lon="6.99085">
        <ele>594.7</ele>
        <time>2019-09-17T08:01:26Z</time>
      </trkpt>
      <trkpt lat="47.90024" lon="6.9908">
        <ele>595.3</ele>
        <time>2019-09-17T08:01:29Z</time>
      </trkpt>
      <trkpt lat="47.90026" lon="6.99076">
        <ele>595</ele>
        <time>2019-09-17T08:01:32Z</time>
      </trkpt>
      <trkpt lat="47.90027" lon="6.9907">
        <ele>595.5</ele>
        <time>2019-09-17T08:01:35Z</time>
      </trkpt>
      <trkpt lat="47.90028" lon="6.99065">
        <ele>594.7</ele>
        <time>2019-09-17T08:01:38Z</time>
      </trkpt>
      <trkpt lat="47.9003" lon="6.99059">
        <ele>594.9</ele>
        <time>2019-09-17T08:01:41Z</time>
      </trkpt>
      <trkpt lat="47.90031" lon="6.99055">
        <ele>594.4</ele>
        <time>2019-09-17T08:01:43Z</time>
      </trkpt>
      <trkpt lat="47.90032" lon="6.9905">
        <ele>594.4</ele>
        <time>2019-09-17T08:01:46Z</time>
      </trkpt>
      <trkpt lat="47.90034" lon="6.99047">
        <ele>593.8</ele>
        <time>2019-09-17T08:01:48Z</time>
      </trkpt>
      <trkpt lat="47.90035" lon="6.99043">
        <ele>593.7</ele>
        <time>2019-09-17T08:01:50Z</time>
      </trkpt>
      <trkpt lat="47.90037" lon="6.99039">
        <ele>593</ele>
        <time>2019-09-17T08:01:52Z</time>
      </trkpt>
      <trkpt lat="47.90038" lon="6.99035">
        <ele>593</ele>
        <time>2019-09-17T08:01:54Z</time>
      </trkpt>
      <trkpt lat="47.90038" lon="6.9903">
        <ele>591.9</ele>
        <time>2019-09-17T08:01:57Z</time>
      </trkpt>
      <trkpt lat="47.90039" lon="6.99026">
        <ele>591</ele>
        <time>2019-09-17T08:01:59Z</time>
      </trkpt>
      <trkpt lat="47.9004" lon="6.99021">
        <ele>590</ele>
        <time>2019-09-17T08:02:01Z</time>
      </trkpt>
      <trkpt lat="47.90041" lon="6.99017">
        <ele>589.4</ele>
        <time>2019-09-17T08:02:03Z</time>
      </trkpt>
      <trkpt lat="47.90042" lon="6.99012">
        <ele>588.3</ele>
        <time>2019-09-17T08:02:05Z</time>
      </trkpt>
      <trkpt lat="47.90043" lon="6.99007">
        <ele>587.2</ele>
        <time>2019-09-17T08:02:07Z</time>
      </trkpt>
      <trkpt lat="47.90044" lon="6.99004">
        <ele>586.5</ele>
        <time>2019-09-17T08:02:09Z</time>
      </trkpt>
      <trkpt lat="47.90045" lon="6.99">
        <ele>585.4</ele>
        <time>2019-09-17T08:02:11Z</time>
      </trkpt>
      <trkpt lat="47.90044" lon="6.98994">
        <ele>584.4</ele>
        <time>2019-09-17T08:02:14Z</time>
      </trkpt>
      <trkpt lat="47.90042" lon="6.9899">
        <ele>583.1</ele>
        <time>2019-09-17T08:02:17Z</time>
      </trkpt>
      <trkpt lat="47.90039" lon="6.9899">
        <ele>582.7</ele>
        <time>2019-09-17T08:02:19Z</time>
      </trkpt>
      <trkpt lat="47.90035" lon="6.98988">
        <ele>582.4</ele>
        <time>2019-09-17T08:02:21Z</time>
      </trkpt>
      <trkpt lat="47.90032" lon="6.98987">
        <ele>581.1</ele>
        <time>2019-09-17T08:02:23Z</time>
      </trkpt>
      <trkpt lat="47.90029" lon="6.98987">
        <ele>580.8</ele>
        <time>2019-09-17T08:02:25Z</time>
      </trkpt>
      <trkpt lat="47.90026" lon="6.98986">
        <ele>580.1</ele>
        <time>2019-09-17T08:02:28Z</time>
      </trkpt>
      <trkpt lat="47.90023" lon="6.98983">
        <ele>579.1</ele>
        <time>2019-09-17T08:02:31Z</time>
      </trkpt>
      <trkpt lat="47.90021" lon="6.98981">
        <ele>578.8</ele>
        <time>2019-09-17T08:02:34Z</time>
      </trkpt>
      <trkpt lat="47.90019" lon="6.98978">
        <ele>577.4</ele>
        <time>2019-09-17T08:02:37Z</time>
      </trkpt>
      <trkpt lat="47.90016" lon="6.98976">
        <ele>577.1</ele>
        <time>2019-09-17T08:02:40Z</time>
      </trkpt>
      <trkpt lat="47.90013" lon="6.98974">
        <ele>575.7</ele>
        <time>2019-09-17T08:02:43Z</time>
      </trkpt>
      <trkpt lat="47.90009" lon="6.98974">
        <ele>575.3</ele>
        <time>2019-09-17T08:02:46Z</time>
      </trkpt>
      <trkpt lat="47.90006" lon="6.98974">
        <ele>574.6</ele>
        <time>2019-09-17T08:02:49Z</time>
      </trkpt>
      <trkpt lat="47.90002" lon="6.98972">
        <ele>574.2</ele>
        <time>2019-09-17T08:02:52Z</time>
      </trkpt>
      <trkpt lat="47.89999" lon="6.98971">
        <ele>573.7</ele>
        <time>2019-09-17T08:02:54Z</time>
      </trkpt>
      <trkpt lat="47.89996" lon="6.9897">
        <ele>572</ele>
        <time>2019-09-17T08:02:56Z</time>
      </trkpt>
      <trkpt lat="47.89993" lon="6.98969">
        <ele>571.6</ele>
        <time>2019-09-17T08:02:58Z</time>
      </trkpt>
      <trkpt lat="47.8999" lon="6.98968">
        <ele>571.1</ele>
        <time>2019-09-17T08:03:00Z</time>
      </trkpt>
      <trkpt lat="47.89987" lon="6.98968">
        <ele>570.7</ele>
        <time>2019-09-17T08:03:02Z</time>
      </trkpt>
      <trkpt lat="47.89984" lon="6.98969">
        <ele>570.2</ele>
        <time>2019-09-17T08:03:04Z</time>
      </trkpt>
      <trkpt lat="47.89981" lon="6.98969">
        <ele>569.6</ele>
        <time>2019-09-17T08:03:06Z</time>
      </trkpt>
      <trkpt lat="47.89978" lon="6.98969">
        <ele>569</ele>
        <time>2019-09-17T08:03:08Z</time>
      </trkpt>
      <trkpt lat="47.89976" lon="6.9897">
        <ele>568.3</ele>
        <time>2019-09-17T08:03:10Z</time>
      </trkpt>
      <trkpt lat="47.89973" lon="6.98972">
        <ele>568.8</ele>
        <time>2019-09-17T08:03:13Z</time>
      </trkpt>
      <trkpt lat="47.8997" lon="6.98975">
        <ele>568.1</ele>
        <time>2019-09-17T08:03:15Z</time>
      </trkpt>
      <trkpt lat="47.89967" lon="6.98976">
        <ele>568.5</ele>
        <time>2019-09-17T08:03:17Z</time>
      </trkpt>
      <trkpt lat="47.89964" lon="6.98975">
        <ele>567.9</ele>
        <time>2019-09-17T08:03:20Z</time>
      </trkpt>
      <trkpt lat="47.8996" lon="6.98975">
        <ele>567.2</ele>
        <time>2019-09-17T08:03:23Z</time>
      </trkpt>
      <trkpt lat="47.89957" lon="6.98975">
        <ele>565</ele>
        <time>2019-09-17T08:03:26Z</time>
      </trkpt>
      <trkpt lat="47.89954" lon="6.98973">
        <ele>564.4</ele>
        <time>2019-09-17T08:03:29Z</time>
      </trkpt>
      <trkpt lat="47.89951" lon="6.98971">
        <ele>563.8</ele>
        <time>2019-09-17T08:03:32Z</time>
      </trkpt>
      <trkpt lat="47.89951" lon="6.98966">
        <ele>561.6</ele>
        <time>2019-09-17T08:03:36Z</time>
      </trkpt>
      <trkpt lat="47.89953" lon="6.98969">
        <ele>563.3</ele>
        <time>2019-09-17T08:03:45Z</time>
      </trkpt>
      <trkpt lat="47.89953" lon="6.98976">
        <ele>565.5</ele>
        <time>2019-09-17T08:03:47Z</time>
      </trkpt>
      <trkpt lat="47.89952" lon="6.98979">
        <ele>565.5</ele>
        <time>2019-09-17T08:03:49Z</time>
      </trkpt>
      <trkpt lat="47.8995" lon="6.98983">
        <ele>565.8</ele>
        <time>2019-09-17T08:03:52Z</time>
      </trkpt>
      <trkpt lat="47.89949" lon="6.98988">
        <ele>567.5</ele>
        <time>2019-09-17T08:03:55Z</time>
      </trkpt>
      <trkpt lat="47.89947" lon="6.98993">
        <ele>567.6</ele>
        <time>2019-09-17T08:03:58Z</time>
      </trkpt>
      <trkpt lat="47.89944" lon="6.98998">
        <ele>567.6</ele>
        <time>2019-09-17T08:04:01Z</time>
      </trkpt>
      <trkpt lat="47.89941" lon="6.99004">
        <ele>567.5</ele>
        <time>2019-09-17T08:04:03Z</time>
      </trkpt>
      <trkpt lat="47.89939" lon="6.9901">
        <ele>568.2</ele>
        <time>2019-09-17T08:04:05Z</time>
      </trkpt>
      <trkpt lat="47.89936" lon="6.99014">
        <ele>568</ele>
        <time>2019-09-17T08:04:07Z</time>
      </trkpt>
      <trkpt lat="47.89935" lon="6.99018">
        <ele>568.5</ele>
        <time>2019-09-17T08:04:09Z</time>
      </trkpt>
      <trkpt lat="47.89933" lon="6.99023">
        <ele>568.2</ele>
        <time>2019-09-17T08:04:12Z</time>
      </trkpt>
      <trkpt lat="47.89931" lon="6.99027">
        <ele>568.5</ele>
        <time>2019-09-17T08:04:15Z</time>
      </trkpt>
      <trkpt lat="47.8993" lon="6.99032">
        <ele>568.1</ele>
        <time>2019-09-17T08:04:18Z</time>
      </trkpt>
      <trkpt lat="47.89929" lon="6.99037">
        <ele>568.4</ele>
        <time>2019-09-17T08:04:21Z</time>
      </trkpt>
      <trkpt lat="47.89926" lon="6.99041">
        <ele>568</ele>
        <time>2019-09-17T08:04:24Z</time>
      </trkpt>
      <trkpt lat="47.89923" lon="6.99044">
        <ele>567.4</ele>
        <time>2019-09-17T08:04:27Z</time>
      </trkpt>
      <trkpt lat="47.89922" lon="6.99048">
        <ele>566.5</ele>
        <time>2019-09-17T08:04:30Z</time>
      </trkpt>
      <trkpt lat="47.89922" lon="6.99052">
        <ele>566.8</ele>
        <time>2019-09-17T08:04:34Z</time>
      </trkpt>
      <trkpt lat="47.89923" lon="6.99057">
        <ele>568.3</ele>
        <time>2019-09-17T08:04:37Z</time>
      </trkpt>
      <trkpt lat="47.89923" lon="6.99062">
        <ele>568.5</ele>
        <time>2019-09-17T08:04:40Z</time>
      </trkpt>
      <trkpt lat="47.89924" lon="6.99067">
        <ele>568.7</ele>
        <time>2019-09-17T08:04:42Z</time>
      </trkpt>
      <trkpt lat="47.89924" lon="6.99072">
        <ele>568.9</ele>
        <time>2019-09-17T08:04:44Z</time>
      </trkpt>
      <trkpt lat="47.89923" lon="6.99076">
        <ele>569</ele>
        <time>2019-09-17T08:04:46Z</time>
      </trkpt>
      <trkpt lat="47.89921" lon="6.99081">
        <ele>568</ele>
        <time>2019-09-17T08:04:49Z</time>
      </trkpt>
      <trkpt lat="47.8992" lon="6.99085">
        <ele>567.1</ele>
        <time>2019-09-17T08:04:51Z</time>
      </trkpt>
      <trkpt lat="47.89918" lon="6.9909">
        <ele>567.1</ele>
        <time>2019-09-17T08:04:54Z</time>
      </trkpt>
      <trkpt lat="47.89917" lon="6.99095">
        <ele>566</ele>
        <time>2019-09-17T08:04:57Z</time>
      </trkpt>
      <trkpt lat="47.89915" lon="6.991">
        <ele>565.9</ele>
        <time>2019-09-17T08:04:59Z</time>
      </trkpt>
      <trkpt lat="47.89914" lon="6.99104">
        <ele>564.8</ele>
        <time>2019-09-17T08:05:02Z</time>
      </trkpt>
      <trkpt lat="47.89912" lon="6.99108">
        <ele>564.8</ele>
        <time>2019-09-17T08:05:05Z</time>
      </trkpt>
      <trkpt lat="47.89909" lon="6.99112">
        <ele>563.7</ele>
        <time>2019-09-17T08:05:08Z</time>
      </trkpt>
      <trkpt lat="47.89908" lon="6.99115">
        <ele>562.5</ele>
        <time>2019-09-17T08:05:10Z</time>
      </trkpt>
      <trkpt lat="47.89906" lon="6.9912">
        <ele>562.4</ele>
        <time>2019-09-17T08:05:12Z</time>
      </trkpt>
      <trkpt lat="47.89904" lon="6.99125">
        <ele>561.2</ele>
        <time>2019-09-17T08:05:14Z</time>
      </trkpt>
      <trkpt lat="47.89903" lon="6.9913">
        <ele>560.9</ele>
        <time>2019-09-17T08:05:16Z</time>
      </trkpt>
      <trkpt lat="47.89902" lon="6.99134">
        <ele>559.8</ele>
        <time>2019-09-17T08:05:18Z</time>
      </trkpt>
      <trkpt lat="47.899" lon="6.99139">
        <ele>559.5</ele>
        <time>2019-09-17T08:05:21Z</time>
      </trkpt>
      <trkpt lat="47.899" lon="6.99143">
        <ele>559.3</ele>
        <time>2019-09-17T08:05:23Z</time>
      </trkpt>
      <trkpt lat="47.89899" lon="6.99147">
        <ele>558</ele>
        <time>2019-09-17T08:05:25Z</time>
      </trkpt>
      <trkpt lat="47.89898" lon="6.99152">
        <ele>557.8</ele>
        <time>2019-09-17T08:05:27Z</time>
      </trkpt>
      <trkpt lat="47.89898" lon="6.99157">
        <ele>557.5</ele>
        <time>2019-09-17T08:05:29Z</time>
      </trkpt>
      <trkpt lat="47.89897" lon="6.99161">
        <ele>557.3</ele>
        <time>2019-09-17T08:05:31Z</time>
      </trkpt>
      <trkpt lat="47.89896" lon="6.99166">
        <ele>555.9</ele>
        <time>2019-09-17T08:05:34Z</time>
      </trkpt>
      <trkpt lat="47.89894" lon="6.99171">
        <ele>555.6</ele>
        <time>2019-09-17T08:05:37Z</time>
      </trkpt>
      <trkpt lat="47.89894" lon="6.99176">
        <ele>555.4</ele>
        <time>2019-09-17T08:05:39Z</time>
      </trkpt>
      <trkpt lat="47.89894" lon="6.99182">
        <ele>554.8</ele>
        <time>2019-09-17T08:05:42Z</time>
      </trkpt>
      <trkpt lat="47.89895" lon="6.99186">
        <ele>554.4</ele>
        <time>2019-09-17T08:05:44Z</time>
      </trkpt>
      <trkpt lat="47.89894" lon="6.99191">
        <ele>554.1</ele>
        <time>2019-09-17T08:05:47Z</time>
      </trkpt>
      <trkpt lat="47.89894" lon="6.99195">
        <ele>553.7</ele>
        <time>2019-09-17T08:05:50Z</time>
      </trkpt>
      <trkpt lat="47.89895" lon="6.992">
        <ele>553.3</ele>
        <time>2019-09-17T08:05:53Z</time>
      </trkpt>
      <trkpt lat="47.89896" lon="6.99204">
        <ele>552.9</ele>
        <time>2019-09-17T08:05:55Z</time>
      </trkpt>
      <trkpt lat="47.89896" lon="6.99209">
        <ele>552.5</ele>
        <time>2019-09-17T08:05:59Z</time>
      </trkpt>
      <trkpt lat="47.89898" lon="6.99213">
        <ele>553.3</ele>
        <time>2019-09-17T08:06:03Z</time>
      </trkpt>
      <trkpt lat="47.89894" lon="6.99214">
        <ele>552.1</ele>
        <time>2019-09-17T08:06:07Z</time>
      </trkpt>
      <trkpt lat="47.89891" lon="6.99213">
        <ele>551</ele>
        <time>2019-09-17T08:06:10Z</time>
      </trkpt>
      <trkpt lat="47.89887" lon="6.99212">
        <ele>548.5</ele>
        <time>2019-09-17T08:06:13Z</time>
      </trkpt>
      <trkpt lat="47.89884" lon="6.99213">
        <ele>547.3</ele>
        <time>2019-09-17T08:06:16Z</time>
      </trkpt>
      <trkpt lat="47.89882" lon="6.99216">
        <ele>545.7</ele>
        <time>2019-09-17T08:06:19Z</time>
      </trkpt>
      <trkpt lat="47.89882" lon="6.99221">
        <ele>545.4</ele>
        <time>2019-09-17T08:06:22Z</time>
      </trkpt>
      <trkpt lat="47.89882" lon="6.99227">
        <ele>546.2</ele>
        <time>2019-09-17T08:06:25Z</time>
      </trkpt>
      <trkpt lat="47.89883" lon="6.99232">
        <ele>545.9</ele>
        <time>2019-09-17T08:06:28Z</time>
      </trkpt>
      <trkpt lat="47.89884" lon="6.99236">
        <ele>545.6</ele>
        <time>2019-09-17T08:06:30Z</time>
      </trkpt>
      <trkpt lat="47.89886" lon="6.9924">
        <ele>546.6</ele>
        <time>2019-09-17T08:06:32Z</time>
      </trkpt>
      <trkpt lat="47.89887" lon="6.99245">
        <ele>546.4</ele>
        <time>2019-09-17T08:06:35Z</time>
      </trkpt>
      <trkpt lat="47.89887" lon="6.99251">
        <ele>546</ele>
        <time>2019-09-17T08:06:37Z</time>
      </trkpt>
      <trkpt lat="47.89888" lon="6.99256">
        <ele>547.2</ele>
        <time>2019-09-17T08:06:39Z</time>
      </trkpt>
      <trkpt lat="47.89889" lon="6.99259">
        <ele>547.2</ele>
        <time>2019-09-17T08:06:41Z</time>
      </trkpt>
      <trkpt lat="47.89891" lon="6.99263">
        <ele>547.1</ele>
        <time>2019-09-17T08:06:44Z</time>
      </trkpt>
      <trkpt lat="47.89892" lon="6.99269">
        <ele>548.3</ele>
        <time>2019-09-17T08:06:47Z</time>
      </trkpt>
      <trkpt lat="47.8989" lon="6.99273">
        <ele>546.8</ele>
        <time>2019-09-17T08:06:50Z</time>
      </trkpt>
      <trkpt lat="47.89887" lon="6.99273">
        <ele>545.5</ele>
        <time>2019-09-17T08:06:52Z</time>
      </trkpt>
      <trkpt lat="47.89885" lon="6.99274">
        <ele>544.2</ele>
        <time>2019-09-17T08:06:54Z</time>
      </trkpt>
      <trkpt lat="47.89882" lon="6.99274">
        <ele>542.9</ele>
        <time>2019-09-17T08:06:56Z</time>
      </trkpt>
      <trkpt lat="47.89878" lon="6.99273">
        <ele>541.7</ele>
        <time>2019-09-17T08:06:59Z</time>
      </trkpt>
      <trkpt lat="47.89877" lon="6.99277">
        <ele>541.7</ele>
        <time>2019-09-17T08:07:03Z</time>
      </trkpt>
      <trkpt lat="47.89878" lon="6.99281">
        <ele>541.6</ele>
        <time>2019-09-17T08:07:09Z</time>
      </trkpt>
      <trkpt lat="47.89876" lon="6.99285">
        <ele>540.4</ele>
        <time>2019-09-17T08:07:14Z</time>
      </trkpt>
      <trkpt lat="47.89873" lon="6.99288">
        <ele>539.4</ele>
        <time>2019-09-17T08:07:17Z</time>
      </trkpt>
      <trkpt lat="47.8987" lon="6.99289">
        <ele>538.2</ele>
        <time>2019-09-17T08:07:20Z</time>
      </trkpt>
      <trkpt lat="47.89867" lon="6.99289">
        <ele>537.1</ele>
        <time>2019-09-17T08:07:26Z</time>
      </trkpt>
      <trkpt lat="47.89863" lon="6.9929">
        <ele>535.8</ele>
        <time>2019-09-17T08:07:28Z</time>
      </trkpt>
      <trkpt lat="47.89859" lon="6.99291">
        <ele>533.3</ele>
        <time>2019-09-17T08:07:30Z</time>
      </trkpt>
      <trkpt lat="47.89855" lon="6.9929">
        <ele>532.1</ele>
        <time>2019-09-17T08:07:32Z</time>
      </trkpt>
      <trkpt lat="47.8985" lon="6.99291">
        <ele>530</ele>
        <time>2019-09-17T08:07:34Z</time>
      </trkpt>
      <trkpt lat="47.89845" lon="6.99291">
        <ele>529</ele>
        <time>2019-09-17T08:07:36Z</time>
      </trkpt>
      <trkpt lat="47.89841" lon="6.99291">
        <ele>526.9</ele>
        <time>2019-09-17T08:07:38Z</time>
      </trkpt>
      <trkpt lat="47.89837" lon="6.99292">
        <ele>525.8</ele>
        <time>2019-09-17T08:07:40Z</time>
      </trkpt>
      <trkpt lat="47.89834" lon="6.99291">
        <ele>524.8</ele>
        <time>2019-09-17T08:07:42Z</time>
      </trkpt>
      <trkpt lat="47.89831" lon="6.99291">
        <ele>523.7</ele>
        <time>2019-09-17T08:07:44Z</time>
      </trkpt>
      <trkpt lat="47.89827" lon="6.9929">
        <ele>521.7</ele>
        <time>2019-09-17T08:07:47Z</time>
      </trkpt>
      <trkpt lat="47.89824" lon="6.99291">
        <ele>520.7</ele>
        <time>2019-09-17T08:07:49Z</time>
      </trkpt>
      <trkpt lat="47.89821" lon="6.99291">
        <ele>519.9</ele>
        <time>2019-09-17T08:07:52Z</time>
      </trkpt>
      <trkpt lat="47.89818" lon="6.99294">
        <ele>518.9</ele>
        <time>2019-09-17T08:07:55Z</time>
      </trkpt>
      <trkpt lat="47.89815" lon="6.99294">
        <ele>518.1</ele>
        <time>2019-09-17T08:07:59Z</time>
      </trkpt>
      <trkpt lat="47.89813" lon="6.99298">
        <ele>518.1</ele>
        <time>2019-09-17T08:08:02Z</time>
      </trkpt>
      <trkpt lat="47.89811" lon="6.99302">
        <ele>517.2</ele>
        <time>2019-09-17T08:08:05Z</time>
      </trkpt>
      <trkpt lat="47.89807" lon="6.99301">
        <ele>515.5</ele>
        <time>2019-09-17T08:08:08Z</time>
      </trkpt>
      <trkpt lat="47.89804" lon="6.993">
        <ele>514.6</ele>
        <time>2019-09-17T08:08:10Z</time>
      </trkpt>
      <trkpt lat="47.89801" lon="6.99297">
        <ele>513.7</ele>
        <time>2019-09-17T08:08:12Z</time>
      </trkpt>
      <trkpt lat="47.89798" lon="6.99294">
        <ele>512.9</ele>
        <time>2019-09-17T08:08:14Z</time>
      </trkpt>
      <trkpt lat="47.89796" lon="6.99289">
        <ele>513</ele>
        <time>2019-09-17T08:08:17Z</time>
      </trkpt>
      <trkpt lat="47.89795" lon="6.99285">
        <ele>512.3</ele>
        <time>2019-09-17T08:08:20Z</time>
      </trkpt>
      <trkpt lat="47.89795" lon="6.9928">
        <ele>512.3</ele>
        <time>2019-09-17T08:08:23Z</time>
      </trkpt>
      <trkpt lat="47.89794" lon="6.99276">
        <ele>512.4</ele>
        <time>2019-09-17T08:08:26Z</time>
      </trkpt>
      <trkpt lat="47.89793" lon="6.99271">
        <ele>512.4</ele>
        <time>2019-09-17T08:08:30Z</time>
      </trkpt>
      <trkpt lat="47.89792" lon="6.99267">
        <ele>511.5</ele>
        <time>2019-09-17T08:08:33Z</time>
      </trkpt>
      <trkpt lat="47.8979" lon="6.99264">
        <ele>511.5</ele>
        <time>2019-09-17T08:08:36Z</time>
      </trkpt>
      <trkpt lat="47.89788" lon="6.99261">
        <ele>510.6</ele>
        <time>2019-09-17T08:08:39Z</time>
      </trkpt>
      <trkpt lat="47.89786" lon="6.99258">
        <ele>509.5</ele>
        <time>2019-09-17T08:08:42Z</time>
      </trkpt>
      <trkpt lat="47.89783" lon="6.99255">
        <ele>508.4</ele>
        <time>2019-09-17T08:08:46Z</time>
      </trkpt>
      <trkpt lat="47.8978" lon="6.99254">
        <ele>507.2</ele>
        <time>2019-09-17T08:08:49Z</time>
      </trkpt>
      <trkpt lat="47.89777" lon="6.99253">
        <ele>506.1</ele>
        <time>2019-09-17T08:08:52Z</time>
      </trkpt>
      <trkpt lat="47.89775" lon="6.99249">
        <ele>504.8</ele>
        <time>2019-09-17T08:08:55Z</time>
      </trkpt>
      <trkpt lat="47.89773" lon="6.99245">
        <ele>503.6</ele>
        <time>2019-09-17T08:08:58Z</time>
      </trkpt>
      <trkpt lat="47.8977" lon="6.99241">
        <ele>503.6</ele>
        <time>2019-09-17T08:09:01Z</time>
      </trkpt>
      <trkpt lat="47.89767" lon="6.9924">
        <ele>501.5</ele>
        <time>2019-09-17T08:09:04Z</time>
      </trkpt>
      <trkpt lat="47.89764" lon="6.99238">
        <ele>500.6</ele>
        <time>2019-09-17T08:09:06Z</time>
      </trkpt>
      <trkpt lat="47.8976" lon="6.99237">
        <ele>499.4</ele>
        <time>2019-09-17T08:09:08Z</time>
      </trkpt>
      <trkpt lat="47.89756" lon="6.99235">
        <ele>498.5</ele>
        <time>2019-09-17T08:09:10Z</time>
      </trkpt>
      <trkpt lat="47.89753" lon="6.99234">
        <ele>496.8</ele>
        <time>2019-09-17T08:09:12Z</time>
      </trkpt>
      <trkpt lat="47.8975" lon="6.99233">
        <ele>495.9</ele>
        <time>2019-09-17T08:09:14Z</time>
      </trkpt>
      <trkpt lat="47.89746" lon="6.99234">
        <ele>495</ele>
        <time>2019-09-17T08:09:17Z</time>
      </trkpt>
      <trkpt lat="47.89743" lon="6.99235">
        <ele>494.2</ele>
        <time>2019-09-17T08:09:20Z</time>
      </trkpt>
      <trkpt lat="47.8974" lon="6.99234">
        <ele>493.4</ele>
        <time>2019-09-17T08:09:23Z</time>
      </trkpt>
      <trkpt lat="47.89737" lon="6.99231">
        <ele>492.4</ele>
        <time>2019-09-17T08:09:26Z</time>
      </trkpt>
      <trkpt lat="47.89734" lon="6.99228">
        <ele>491.3</ele>
        <time>2019-09-17T08:09:30Z</time>
      </trkpt>
      <trkpt lat="47.89732" lon="6.99225">
        <ele>490.7</ele>
        <time>2019-09-17T08:09:34Z</time>
      </trkpt>
      <trkpt lat="47.8973" lon="6.99221">
        <ele>489.7</ele>
        <time>2019-09-17T08:09:37Z</time>
      </trkpt>
      <trkpt lat="47.89726" lon="6.99219">
        <ele>488.7</ele>
        <time>2019-09-17T08:09:40Z</time>
      </trkpt>
      <trkpt lat="47.89722" lon="6.99218">
        <ele>488</ele>
        <time>2019-09-17T08:09:42Z</time>
      </trkpt>
      <trkpt lat="47.89718" lon="6.99218">
        <ele>486.8</ele>
        <time>2019-09-17T08:09:44Z</time>
      </trkpt>
      <trkpt lat="47.89716" lon="6.99214">
        <ele>486.4</ele>
        <time>2019-09-17T08:09:48Z</time>
      </trkpt>
      <trkpt lat="47.89715" lon="6.9921">
        <ele>485.6</ele>
        <time>2019-09-17T08:09:51Z</time>
      </trkpt>
      <trkpt lat="47.89713" lon="6.99206">
        <ele>484.8</ele>
        <time>2019-09-17T08:09:54Z</time>
      </trkpt>
      <trkpt lat="47.8971" lon="6.99203">
        <ele>484.3</ele>
        <time>2019-09-17T08:09:57Z</time>
      </trkpt>
      <trkpt lat="47.89707" lon="6.99199">
        <ele>483.8</ele>
        <time>2019-09-17T08:10:00Z</time>
      </trkpt>
      <trkpt lat="47.89705" lon="6.99195">
        <ele>483.5</ele>
        <time>2019-09-17T08:10:02Z</time>
      </trkpt>
      <trkpt lat="47.89703" lon="6.99191">
        <ele>482.1</ele>
        <time>2019-09-17T08:10:05Z</time>
      </trkpt>
      <trkpt lat="47.89701" lon="6.99188">
        <ele>481.6</ele>
        <time>2019-09-17T08:10:07Z</time>
      </trkpt>
      <trkpt lat="47.89698" lon="6.99186">
        <ele>481</ele>
        <time>2019-09-17T08:10:09Z</time>
      </trkpt>
      <trkpt lat="47.89695" lon="6.99184">
        <ele>480.5</ele>
        <time>2019-09-17T08:10:13Z</time>
      </trkpt>
      <trkpt lat="47.89692" lon="6.99181">
        <ele>480.1</ele>
        <time>2019-09-17T08:10:15Z</time>
      </trkpt>
      <trkpt lat="47.89689" lon="6.99179">
        <ele>479.6</ele>
        <time>2019-09-17T08:10:17Z</time>
      </trkpt>
      <trkpt lat="47.89686" lon="6.99178">
        <ele>479.1</ele>
        <time>2019-09-17T08:10:20Z</time>
      </trkpt>
      <trkpt lat="47.89684" lon="6.99174">
        <ele>478.6</ele>
        <time>2019-09-17T08:10:23Z</time>
      </trkpt>
      <trkpt lat="47.89684" lon="6.9917">
        <ele>478.2</ele>
        <time>2019-09-17T08:10:28Z</time>
      </trkpt>
      <trkpt lat="47.89682" lon="6.99167">
        <ele>477.7</ele>
        <time>2019-09-17T08:10:34Z</time>
      </trkpt>
      <trkpt lat="47.89679" lon="6.99166">
        <ele>477.2</ele>
        <time>2019-09-17T08:10:37Z</time>
      </trkpt>
      <trkpt lat="47.89677" lon="6.99164">
        <ele>476.6</ele>
        <time>2019-09-17T08:10:40Z</time>
      </trkpt>
      <trkpt lat="47.89674" lon="6.99165">
        <ele>476</ele>
        <time>2019-09-17T08:10:43Z</time>
      </trkpt>
      <trkpt lat="47.8967" lon="6.99167">
        <ele>475.3</ele>
        <time>2019-09-17T08:10:46Z</time>
      </trkpt>
      <trkpt lat="47.89667" lon="6.99169">
        <ele>474.6</ele>
        <time>2019-09-17T08:10:48Z</time>
      </trkpt>
      <trkpt lat="47.89664" lon="6.9917">
        <ele>474.1</ele>
        <time>2019-09-17T08:10:50Z</time>
      </trkpt>
      <trkpt lat="47.8966" lon="6.99171">
        <ele>473.4</ele>
        <time>2019-09-17T08:10:53Z</time>
      </trkpt>
      <trkpt lat="47.89657" lon="6.99172">
        <ele>472.9</ele>
        <time>2019-09-17T08:10:55Z</time>
      </trkpt>
      <trkpt lat="47.89654" lon="6.99171">
        <ele>472.5</ele>
        <time>2019-09-17T08:10:59Z</time>
      </trkpt>
      <trkpt lat="47.89652" lon="6.99167">
        <ele>472</ele>
        <time>2019-09-17T08:11:02Z</time>
      </trkpt>
      <trkpt lat="47.89652" lon="6.99162">
        <ele>471.5</ele>
        <time>2019-09-17T08:11:04Z</time>
      </trkpt>
      <trkpt lat="47.89652" lon="6.99157">
        <ele>471.1</ele>
        <time>2019-09-17T08:11:05Z</time>
      </trkpt>
      <trkpt lat="47.89652" lon="6.99153">
        <ele>470.7</ele>
        <time>2019-09-17T08:11:06Z</time>
      </trkpt>
      <trkpt lat="47.89652" lon="6.99146">
        <ele>470</ele>
        <time>2019-09-17T08:11:08Z</time>
      </trkpt>
      <trkpt lat="47.89653" lon="6.99141">
        <ele>469.5</ele>
        <time>2019-09-17T08:11:10Z</time>
      </trkpt>
      <trkpt lat="47.89653" lon="6.99136">
        <ele>469.1</ele>
        <time>2019-09-17T08:11:12Z</time>
      </trkpt>
      <trkpt lat="47.89654" lon="6.99132">
        <ele>468.6</ele>
        <time>2019-09-17T08:11:15Z</time>
      </trkpt>
      <trkpt lat="47.89656" lon="6.99128">
        <ele>468.1</ele>
        <time>2019-09-17T08:11:19Z</time>
      </trkpt>
      <trkpt lat="47.89657" lon="6.99123">
        <ele>467.5</ele>
        <time>2019-09-17T08:11:22Z</time>
      </trkpt>
      <trkpt lat="47.89659" lon="6.9912">
        <ele>467</ele>
        <time>2019-09-17T08:11:27Z</time>
      </trkpt>
      <trkpt lat="47.89661" lon="6.99116">
        <ele>466.5</ele>
        <time>2019-09-17T08:11:31Z</time>
      </trkpt>
      <trkpt lat="47.89662" lon="6.99112">
        <ele>466</ele>
        <time>2019-09-17T08:11:33Z</time>
      </trkpt>
      <trkpt lat="47.89663" lon="6.99107">
        <ele>465.4</ele>
        <time>2019-09-17T08:11:36Z</time>
      </trkpt>
      <trkpt lat="47.89664" lon="6.99103">
        <ele>465</ele>
        <time>2019-09-17T08:11:38Z</time>
      </trkpt>
      <trkpt lat="47.89665" lon="6.99098">
        <ele>464.5</ele>
        <time>2019-09-17T08:11:40Z</time>
      </trkpt>
      <trkpt lat="47.89665" lon="6.99093">
        <ele>464</ele>
        <time>2019-09-17T08:11:42Z</time>
      </trkpt>
      <trkpt lat="47.89666" lon="6.99088">
        <ele>463.6</ele>
        <time>2019-09-17T08:11:44Z</time>
      </trkpt>
      <trkpt lat="47.89665" lon="6.99083">
        <ele>463.1</ele>
        <time>2019-09-17T08:11:47Z</time>
      </trkpt>
      <trkpt lat="47.89663" lon="6.9908">
        <ele>462.7</ele>
        <time>2019-09-17T08:11:49Z</time>
      </trkpt>
      <trkpt lat="47.89661" lon="6.99077">
        <ele>461.2</ele>
        <time>2019-09-17T08:11:53Z</time>
      </trkpt>
      <trkpt lat="47.89658" lon="6.99072">
        <ele>460</ele>
        <time>2019-09-17T08:11:56Z</time>
      </trkpt>
      <trkpt lat="47.89656" lon="6.99069">
        <ele>459.3</ele>
        <time>2019-09-17T08:11:58Z</time>
      </trkpt>
      <trkpt lat="47.89654" lon="6.99066">
        <ele>458.7</ele>
        <time>2019-09-17T08:12:00Z</time>
      </trkpt>
      <trkpt lat="47.89651" lon="6.99062">
        <ele>457.7</ele>
        <time>2019-09-17T08:12:02Z</time>
      </trkpt>
      <trkpt lat="47.89649" lon="6.99059">
        <ele>456.9</ele>
        <time>2019-09-17T08:12:04Z</time>
      </trkpt>
      <trkpt lat="47.89647" lon="6.99056">
        <ele>456.3</ele>
        <time>2019-09-17T08:12:07Z</time>
      </trkpt>
      <trkpt lat="47.89644" lon="6.99053">
        <ele>455.6</ele>
        <time>2019-09-17T08:12:10Z</time>
      </trkpt>
      <trkpt lat="47.89641" lon="6.99049">
        <ele>455.1</ele>
        <time>2019-09-17T08:12:12Z</time>
      </trkpt>
      <trkpt lat="47.89639" lon="6.99047">
        <ele>454.6</ele>
        <time>2019-09-17T08:12:14Z</time>
      </trkpt>
      <trkpt lat="47.89636" lon="6.99042">
        <ele>454</ele>
        <time>2019-09-17T08:12:16Z</time>
      </trkpt>
      <trkpt lat="47.89632" lon="6.99039">
        <ele>453.4</ele>
        <time>2019-09-17T08:12:18Z</time>
      </trkpt>
      <trkpt lat="47.89629" lon="6.99034">
        <ele>452.8</ele>
        <time>2019-09-17T08:12:20Z</time>
      </trkpt>
      <trkpt lat="47.89627" lon="6.99031">
        <ele>452.3</ele>
        <time>2019-09-17T08:12:22Z</time>
      </trkpt>
      <trkpt lat="47.89625" lon="6.99027">
        <ele>451.9</ele>
        <time>2019-09-17T08:12:24Z</time>
      </trkpt>
      <trkpt lat="47.89622" lon="6.99024">
        <ele>451.4</ele>
        <time>2019-09-17T08:12:26Z</time>
      </trkpt>
      <trkpt lat="47.89619" lon="6.99021">
        <ele>451</ele>
        <time>2019-09-17T08:12:28Z</time>
      </trkpt>
      <trkpt lat="47.89617" lon="6.99018">
        <ele>450.6</ele>
        <time>2019-09-17T08:12:30Z</time>
      </trkpt>
      <trkpt lat="47.89614" lon="6.99016">
        <ele>450.1</ele>
        <time>2019-09-17T08:12:32Z</time>
      </trkpt>
      <trkpt lat="47.89612" lon="6.99013">
        <ele>449.7</ele>
        <time>2019-09-17T08:12:34Z</time>
      </trkpt>
      <trkpt lat="47.89609" lon="6.9901">
        <ele>449.2</ele>
        <time>2019-09-17T08:12:37Z</time>
      </trkpt>
      <trkpt lat="47.89606" lon="6.99008">
        <ele>448.8</ele>
        <time>2019-09-17T08:12:39Z</time>
      </trkpt>
      <trkpt lat="47.89603" lon="6.99005">
        <ele>448.1</ele>
        <time>2019-09-17T08:12:42Z</time>
      </trkpt>
      <trkpt lat="47.896" lon="6.99003">
        <ele>447.7</ele>
        <time>2019-09-17T08:12:44Z</time>
      </trkpt>
      <trkpt lat="47.89598" lon="6.99001">
        <ele>447.2</ele>
        <time>2019-09-17T08:12:46Z</time>
      </trkpt>
      <trkpt lat="47.89595" lon="6.99">
        <ele>446.7</ele>
        <time>2019-09-17T08:12:48Z</time>
      </trkpt>
      <trkpt lat="47.89593" lon="6.98997">
        <ele>446.2</ele>
        <time>2019-09-17T08:12:50Z</time>
      </trkpt>
      <trkpt lat="47.8959" lon="6.98994">
        <ele>445.5</ele>
        <time>2019-09-17T08:12:53Z</time>
      </trkpt>
      <trkpt lat="47.89587" lon="6.98991">
        <ele>445</ele>
        <time>2019-09-17T08:12:55Z</time>
      </trkpt>
      <trkpt lat="47.89585" lon="6.98988">
        <ele>444.5</ele>
        <time>2019-09-17T08:12:57Z</time>
      </trkpt>
      <trkpt lat="47.89583" lon="6.98984">
        <ele>443.9</ele>
        <time>2019-09-17T08:13:00Z</time>
      </trkpt>
      <trkpt lat="47.89581" lon="6.98979">
        <ele>443.7</ele>
        <time>2019-09-17T08:13:03Z</time>
      </trkpt>
      <trkpt lat="47.89581" lon="6.98975">
        <ele>443.5</ele>
        <time>2019-09-17T08:13:05Z</time>
      </trkpt>
      <trkpt lat="47.8958" lon="6.9897">
        <ele>443.4</ele>
        <time>2019-09-17T08:13:07Z</time>
      </trkpt>
      <trkpt lat="47.8958" lon="6.98965">
        <ele>443.1</ele>
        <time>2019-09-17T08:13:09Z</time>
      </trkpt>
      <trkpt lat="47.8958" lon="6.98959">
        <ele>443</ele>
        <time>2019-09-17T08:13:11Z</time>
      </trkpt>
      <trkpt lat="47.8958" lon="6.98953">
        <ele>443</ele>
        <time>2019-09-17T08:13:13Z</time>
      </trkpt>
      <trkpt lat="47.8958" lon="6.98947">
        <ele>442.9</ele>
        <time>2019-09-17T08:13:15Z</time>
      </trkpt>
      <trkpt lat="47.8958" lon="6.98943">
        <ele>442.8</ele>
        <time>2019-09-17T08:13:17Z</time>
      </trkpt>
      <trkpt lat="47.8958" lon="6.98939">
        <ele>442.8</ele>
        <time>2019-09-17T08:13:19Z</time>
      </trkpt>
      <trkpt lat="47.8958" lon="6.98934">
        <ele>442.5</ele>
        <time>2019-09-17T08:13:23Z</time>
      </trkpt>
      <trkpt lat="47.89579" lon="6.98929">
        <ele>442.4</ele>
        <time>2019-09-17T08:13:26Z</time>
      </trkpt>
      <trkpt lat="47.89579" lon="6.98925">
        <ele>442.3</ele>
        <time>2019-09-17T08:13:29Z</time>
      </trkpt>
      <trkpt lat="47.89579" lon="6.98918">
        <ele>442.2</ele>
        <time>2019-09-17T08:13:32Z</time>
      </trkpt>
      <trkpt lat="47.89579" lon="6.98914">
        <ele>442.1</ele>
        <time>2019-09-17T08:13:35Z</time>
      </trkpt>
      <trkpt lat="47.89579" lon="6.98907">
        <ele>442</ele>
        <time>2019-09-17T08:13:38Z</time>
      </trkpt>
      <trkpt lat="47.8958" lon="6.98901">
        <ele>441.8</ele>
        <time>2019-09-17T08:13:40Z</time>
      </trkpt>
      <trkpt lat="47.8958" lon="6.98897">
        <ele>441.8</ele>
        <time>2019-09-17T08:13:41Z</time>
      </trkpt>
      <trkpt lat="47.8958" lon="6.98892">
        <ele>441.7</ele>
        <time>2019-09-17T08:13:42Z</time>
      </trkpt>
      <trkpt lat="47.89581" lon="6.98888">
        <ele>441.7</ele>
        <time>2019-09-17T08:13:43Z</time>
      </trkpt>
      <trkpt lat="47.89581" lon="6.98881">
        <ele>441.6</ele>
        <time>2019-09-17T08:13:45Z</time>
      </trkpt>
      <trkpt lat="47.89582" lon="6.98875">
        <ele>441.5</ele>
        <time>2019-09-17T08:13:47Z</time>
      </trkpt>
      <trkpt lat="47.89582" lon="6.98871">
        <ele>441.4</ele>
        <time>2019-09-17T08:13:49Z</time>
      </trkpt>
      <trkpt lat="47.89582" lon="6.98866">
        <ele>441.4</ele>
        <time>2019-09-17T08:13:51Z</time>
      </trkpt>
      <trkpt lat="47.89582" lon="6.98862">
        <ele>441.3</ele>
        <time>2019-09-17T08:13:53Z</time>
      </trkpt>
      <trkpt lat="47.89581" lon="6.98856">
        <ele>441.2</ele>
        <time>2019-09-17T08:13:56Z</time>
      </trkpt>
      <trkpt lat="47.8958" lon="6.98851">
        <ele>441.2</ele>
        <time>2019-09-17T08:13:59Z</time>
      </trkpt>
      <trkpt lat="47.8958" lon="6.98846">
        <ele>441.1</ele>
        <time>2019-09-17T08:14:01Z</time>
      </trkpt>
      <trkpt lat="47.8958" lon="6.98842">
        <ele>441</ele>
        <time>2019-09-17T08:14:03Z</time>
      </trkpt>
      <trkpt lat="47.8958" lon="6.98836">
        <ele>440.9</ele>
        <time>2019-09-17T08:14:05Z</time>
      </trkpt>
      <trkpt lat="47.8958" lon="6.98832">
        <ele>440.8</ele>
        <time>2019-09-17T08:14:07Z</time>
      </trkpt>
      <trkpt lat="47.8958" lon="6.98827">
        <ele>440.7</ele>
        <time>2019-09-17T08:14:09Z</time>
      </trkpt>
      <trkpt lat="47.8958" lon="6.98822">
        <ele>440.6</ele>
        <time>2019-09-17T08:14:11Z</time>
      </trkpt>
      <trkpt lat="47.89581" lon="6.98818">
        <ele>440.5</ele>
        <time>2019-09-17T08:14:13Z</time>
      </trkpt>
      <trkpt lat="47.89582" lon="6.98814">
        <ele>440.4</ele>
        <time>2019-09-17T08:14:15Z</time>
      </trkpt>
      <trkpt lat="47.89583" lon="6.9881">
        <ele>440.4</ele>
        <time>2019-09-17T08:14:21Z</time>
      </trkpt>
      <trkpt lat="47.89583" lon="6.98804">
        <ele>440.3</ele>
        <time>2019-09-17T08:14:23Z</time>
      </trkpt>
      <trkpt lat="47.89584" lon="6.98799">
        <ele>440.2</ele>
        <time>2019-09-17T08:14:25Z</time>
      </trkpt>
      <trkpt lat="47.89584" lon="6.98793">
        <ele>440.1</ele>
        <time>2019-09-17T08:14:27Z</time>
      </trkpt>
      <trkpt lat="47.89584" lon="6.98789">
        <ele>440</ele>
        <time>2019-09-17T08:14:29Z</time>
      </trkpt>
      <trkpt lat="47.89584" lon="6.98785">
        <ele>439.9</ele>
        <time>2019-09-17T08:14:31Z</time>
      </trkpt>
      <trkpt lat="47.89584" lon="6.9878">
        <ele>439.9</ele>
        <time>2019-09-17T08:14:33Z</time>
      </trkpt>
      <trkpt lat="47.89584" lon="6.98776">
        <ele>439.8</ele>
        <time>2019-09-17T08:14:35Z</time>
      </trkpt>
      <trkpt lat="47.89583" lon="6.98769">
        <ele>439.7</ele>
        <time>2019-09-17T08:14:37Z</time>
      </trkpt>
      <trkpt lat="47.89582" lon="6.98762">
        <ele>439.6</ele>
        <time>2019-09-17T08:14:39Z</time>
      </trkpt>
      <trkpt lat="47.89581" lon="6.98757">
        <ele>439.6</ele>
        <time>2019-09-17T08:14:41Z</time>
      </trkpt>
      <trkpt lat="47.8958" lon="6.98753">
        <ele>439.5</ele>
        <time>2019-09-17T08:14:45Z</time>
      </trkpt>
      <trkpt lat="47.89577" lon="6.98748">
        <ele>439.5</ele>
        <time>2019-09-17T08:14:48Z</time>
      </trkpt>
      <trkpt lat="47.89575" lon="6.98744">
        <ele>439.4</ele>
        <time>2019-09-17T08:14:50Z</time>
      </trkpt>
      <trkpt lat="47.89574" lon="6.98741">
        <ele>439.4</ele>
        <time>2019-09-17T08:14:52Z</time>
      </trkpt>
      <trkpt lat="47.89572" lon="6.98735">
        <ele>439.3</ele>
        <time>2019-09-17T08:14:54Z</time>
      </trkpt>
      <trkpt lat="47.8957" lon="6.98729">
        <ele>439.2</ele>
        <time>2019-09-17T08:14:56Z</time>
      </trkpt>
      <trkpt lat="47.89569" lon="6.98724">
        <ele>439.2</ele>
        <time>2019-09-17T08:14:58Z</time>
      </trkpt>
      <trkpt lat="47.89568" lon="6.9872">
        <ele>439.2</ele>
        <time>2019-09-17T08:15:00Z</time>
      </trkpt>
      <trkpt lat="47.89567" lon="6.98716">
        <ele>439.2</ele>
        <time>2019-09-17T08:15:02Z</time>
      </trkpt>
      <trkpt lat="47.89566" lon="6.9871">
        <ele>439.1</ele>
        <time>2019-09-17T08:15:05Z</time>
      </trkpt>
      <trkpt lat="47.89565" lon="6.98706">
        <ele>439.1</ele>
        <time>2019-09-17T08:15:07Z</time>
      </trkpt>
      <trkpt lat="47.89563" lon="6.98701">
        <ele>439.1</ele>
        <time>2019-09-17T08:15:09Z</time>
      </trkpt>
      <trkpt lat="47.89562" lon="6.98696">
        <ele>439.1</ele>
        <time>2019-09-17T08:15:11Z</time>
      </trkpt>
      <trkpt lat="47.89562" lon="6.98692">
        <ele>439.1</ele>
        <time>2019-09-17T08:15:13Z</time>
      </trkpt>
      <trkpt lat="47.89564" lon="6.98688">
        <ele>439.1</ele>
        <time>2019-09-17T08:15:15Z</time>
      </trkpt>
      <trkpt lat="47.89567" lon="6.98685">
        <ele>439.1</ele>
        <time>2019-09-17T08:15:17Z</time>
      </trkpt>
      <trkpt lat="47.89569" lon="6.98682">
        <ele>439.1</ele>
        <time>2019-09-17T08:15:19Z</time>
      </trkpt>
      <trkpt lat="47.89571" lon="6.98679">
        <ele>439.1</ele>
        <time>2019-09-17T08:15:21Z</time>
      </trkpt>
      <trkpt lat="47.89573" lon="6.98676">
        <ele>439.1</ele>
        <time>2019-09-17T08:15:23Z</time>
      </trkpt>
      <trkpt lat="47.89575" lon="6.98673">
        <ele>439.2</ele>
        <time>2019-09-17T08:15:25Z</time>
      </trkpt>
      <trkpt lat="47.89578" lon="6.98671">
        <ele>439.2</ele>
        <time>2019-09-17T08:15:27Z</time>
      </trkpt>
      <trkpt lat="47.8958" lon="6.98669">
        <ele>439.2</ele>
        <time>2019-09-17T08:15:29Z</time>
      </trkpt>
      <trkpt lat="47.89583" lon="6.98667">
        <ele>439.3</ele>
        <time>2019-09-17T08:15:31Z</time>
      </trkpt>
      <trkpt lat="47.89586" lon="6.98664">
        <ele>439.3</ele>
        <time>2019-09-17T08:15:34Z</time>
      </trkpt>
      <trkpt lat="47.89589" lon="6.98662">
        <ele>439.4</ele>
        <time>2019-09-17T08:15:36Z</time>
      </trkpt>
      <trkpt lat="47.89592" lon="6.98659">
        <ele>439.4</ele>
        <time>2019-09-17T08:15:38Z</time>
      </trkpt>
      <trkpt lat="47.89595" lon="6.98656">
        <ele>439.4</ele>
        <time>2019-09-17T08:15:41Z</time>
      </trkpt>
      <trkpt lat="47.89597" lon="6.98653">
        <ele>439.5</ele>
        <time>2019-09-17T08:15:43Z</time>
      </trkpt>
      <trkpt lat="47.89599" lon="6.9865">
        <ele>439.5</ele>
        <time>2019-09-17T08:15:45Z</time>
      </trkpt>
      <trkpt lat="47.89602" lon="6.98647">
        <ele>439.6</ele>
        <time>2019-09-17T08:15:47Z</time>
      </trkpt>
      <trkpt lat="47.89604" lon="6.98644">
        <ele>439.6</ele>
        <time>2019-09-17T08:15:49Z</time>
      </trkpt>
      <trkpt lat="47.89607" lon="6.98642">
        <ele>439.6</ele>
        <time>2019-09-17T08:15:51Z</time>
      </trkpt>
      <trkpt lat="47.89609" lon="6.98638">
        <ele>439.6</ele>
        <time>2019-09-17T08:15:56Z</time>
      </trkpt>
      <trkpt lat="47.89612" lon="6.98635">
        <ele>439.6</ele>
        <time>2019-09-17T08:15:58Z</time>
      </trkpt>
      <trkpt lat="47.89616" lon="6.9863">
        <ele>439.6</ele>
        <time>2019-09-17T08:16:00Z</time>
      </trkpt>
      <trkpt lat="47.89619" lon="6.98625">
        <ele>439.6</ele>
        <time>2019-09-17T08:16:02Z</time>
      </trkpt>
      <trkpt lat="47.89622" lon="6.98622">
        <ele>439.6</ele>
        <time>2019-09-17T08:16:05Z</time>
      </trkpt>
      <trkpt lat="47.89624" lon="6.98619">
        <ele>439.6</ele>
        <time>2019-09-17T08:16:08Z</time>
      </trkpt>
      <trkpt lat="47.89627" lon="6.98616">
        <ele>439.6</ele>
        <time>2019-09-17T08:16:11Z</time>
      </trkpt>
      <trkpt lat="47.8963" lon="6.98612">
        <ele>439.6</ele>
        <time>2019-09-17T08:16:14Z</time>
      </trkpt>
      <trkpt lat="47.89633" lon="6.98609">
        <ele>439.6</ele>
        <time>2019-09-17T08:16:16Z</time>
      </trkpt>
      <trkpt lat="47.89635" lon="6.98606">
        <ele>439.6</ele>
        <time>2019-09-17T08:16:19Z</time>
      </trkpt>
      <trkpt lat="47.89637" lon="6.98602">
        <ele>439.6</ele>
        <time>2019-09-17T08:16:22Z</time>
      </trkpt>
      <trkpt lat="47.8964" lon="6.98597">
        <ele>439.6</ele>
        <time>2019-09-17T08:16:24Z</time>
      </trkpt>
      <trkpt lat="47.89643" lon="6.98592">
        <ele>439.5</ele>
        <time>2019-09-17T08:16:26Z</time>
      </trkpt>
      <trkpt lat="47.89646" lon="6.98588">
        <ele>439.5</ele>
        <time>2019-09-17T08:16:28Z</time>
      </trkpt>
      <trkpt lat="47.89648" lon="6.98585">
        <ele>439.5</ele>
        <time>2019-09-17T08:16:30Z</time>
      </trkpt>
      <trkpt lat="47.89651" lon="6.98582">
        <ele>439.5</ele>
        <time>2019-09-17T08:16:32Z</time>
      </trkpt>
      <trkpt lat="47.89653" lon="6.98579">
        <ele>439.5</ele>
        <time>2019-09-17T08:16:34Z</time>
      </trkpt>
      <trkpt lat="47.89655" lon="6.98575">
        <ele>439.5</ele>
        <time>2019-09-17T08:16:36Z</time>
      </trkpt>
      <trkpt lat="47.89656" lon="6.98571">
        <ele>439.5</ele>
        <time>2019-09-17T08:16:38Z</time>
      </trkpt>
      <trkpt lat="47.89658" lon="6.98567">
        <ele>439.6</ele>
        <time>2019-09-17T08:16:40Z</time>
      </trkpt>
      <trkpt lat="47.8966" lon="6.98563">
        <ele>439.6</ele>
        <time>2019-09-17T08:16:42Z</time>
      </trkpt>
      <trkpt lat="47.89663" lon="6.9856">
        <ele>439.6</ele>
        <time>2019-09-17T08:16:45Z</time>
      </trkpt>
      <trkpt lat="47.89665" lon="6.98557">
        <ele>439.7</ele>
        <time>2019-09-17T08:16:47Z</time>
      </trkpt>
      <trkpt lat="47.89667" lon="6.98553">
        <ele>439.7</ele>
        <time>2019-09-17T08:16:49Z</time>
      </trkpt>
      <trkpt lat="47.8967" lon="6.98549">
        <ele>439.7</ele>
        <time>2019-09-17T08:16:51Z</time>
      </trkpt>
      <trkpt lat="47.89673" lon="6.98546">
        <ele>439.8</ele>
        <time>2019-09-17T08:16:53Z</time>
      </trkpt>
      <trkpt lat="47.89675" lon="6.98542">
        <ele>439.8</ele>
        <time>2019-09-17T08:16:55Z</time>
      </trkpt>
      <trkpt lat="47.89677" lon="6.98538">
        <ele>439.9</ele>
        <time>2019-09-17T08:16:57Z</time>
      </trkpt>
      <trkpt lat="47.89678" lon="6.98534">
        <ele>439.9</ele>
        <time>2019-09-17T08:16:59Z</time>
      </trkpt>
      <trkpt lat="47.8968" lon="6.9853">
        <ele>440</ele>
        <time>2019-09-17T08:17:01Z</time>
      </trkpt>
      <trkpt lat="47.89682" lon="6.98527">
        <ele>440</ele>
        <time>2019-09-17T08:17:03Z</time>
      </trkpt>
      <trkpt lat="47.89685" lon="6.98525">
        <ele>440.1</ele>
        <time>2019-09-17T08:17:07Z</time>
      </trkpt>
      <trkpt lat="47.89688" lon="6.98522">
        <ele>440.1</ele>
        <time>2019-09-17T08:17:11Z</time>
      </trkpt>
      <trkpt lat="47.8969" lon="6.98519">
        <ele>440.2</ele>
        <time>2019-09-17T08:17:13Z</time>
      </trkpt>
      <trkpt lat="47.89692" lon="6.98515">
        <ele>440.2</ele>
        <time>2019-09-17T08:17:15Z</time>
      </trkpt>
      <trkpt lat="47.89694" lon="6.98511">
        <ele>440.3</ele>
        <time>2019-09-17T08:17:18Z</time>
      </trkpt>
      <trkpt lat="47.89694" lon="6.98506">
        <ele>440.3</ele>
        <time>2019-09-17T08:17:20Z</time>
      </trkpt>
      <trkpt lat="47.89694" lon="6.98502">
        <ele>440.4</ele>
        <time>2019-09-17T08:17:23Z</time>
      </trkpt>
      <trkpt lat="47.89693" lon="6.98498">
        <ele>440.4</ele>
        <time>2019-09-17T08:17:26Z</time>
      </trkpt>
      <trkpt lat="47.89693" lon="6.98492">
        <ele>440.5</ele>
        <time>2019-09-17T08:17:29Z</time>
      </trkpt>
      <trkpt lat="47.89692" lon="6.98488">
        <ele>440.5</ele>
        <time>2019-09-17T08:17:31Z</time>
      </trkpt>
      <trkpt lat="47.89692" lon="6.98482">
        <ele>440.5</ele>
        <time>2019-09-17T08:17:33Z</time>
      </trkpt>
      <trkpt lat="47.8969" lon="6.98476">
        <ele>440.4</ele>
        <time>2019-09-17T08:17:35Z</time>
      </trkpt>
      <trkpt lat="47.89689" lon="6.9847">
        <ele>440.3</ele>
        <time>2019-09-17T08:17:37Z</time>
      </trkpt>
      <trkpt lat="47.89688" lon="6.98464">
        <ele>440.2</ele>
        <time>2019-09-17T08:17:39Z</time>
      </trkpt>
      <trkpt lat="47.89686" lon="6.98461">
        <ele>440.2</ele>
        <time>2019-09-17T08:17:41Z</time>
      </trkpt>
      <trkpt lat="47.89684" lon="6.98457">
        <ele>440.2</ele>
        <time>2019-09-17T08:17:43Z</time>
      </trkpt>
      <trkpt lat="47.89683" lon="6.98453">
        <ele>440.1</ele>
        <time>2019-09-17T08:17:46Z</time>
      </trkpt>
      <trkpt lat="47.89681" lon="6.98448">
        <ele>440.1</ele>
        <time>2019-09-17T08:17:49Z</time>
      </trkpt>
      <trkpt lat="47.89679" lon="6.98444">
        <ele>440</ele>
        <time>2019-09-17T08:17:51Z</time>
      </trkpt>
      <trkpt lat="47.89677" lon="6.98439">
        <ele>440</ele>
        <time>2019-09-17T08:17:53Z</time>
      </trkpt>
      <trkpt lat="47.89675" lon="6.98435">
        <ele>440</ele>
        <time>2019-09-17T08:17:55Z</time>
      </trkpt>
      <trkpt lat="47.89674" lon="6.98432">
        <ele>440</ele>
        <time>2019-09-17T08:17:57Z</time>
      </trkpt>
      <trkpt lat="47.89672" lon="6.98428">
        <ele>439.9</ele>
        <time>2019-09-17T08:17:59Z</time>
      </trkpt>
      <trkpt lat="47.8967" lon="6.98425">
        <ele>439.9</ele>
        <time>2019-09-17T08:18:01Z</time>
      </trkpt>
      <trkpt lat="47.89668" lon="6.98421">
        <ele>439.9</ele>
        <time>2019-09-17T08:18:03Z</time>
      </trkpt>
      <trkpt lat="47.89667" lon="6.98417">
        <ele>439.9</ele>
        <time>2019-09-17T08:18:05Z</time>
      </trkpt>
      <trkpt lat="47.89665" lon="6.98414">
        <ele>439.9</ele>
        <time>2019-09-17T08:18:07Z</time>
      </trkpt>
      <trkpt lat="47.89663" lon="6.9841">
        <ele>439.9</ele>
        <time>2019-09-17T08:18:09Z</time>
      </trkpt>
      <trkpt lat="47.89661" lon="6.98407">
        <ele>439.9</ele>
        <time>2019-09-17T08:18:11Z</time>
      </trkpt>
      <trkpt lat="47.89659" lon="6.98404">
        <ele>439.9</ele>
        <time>2019-09-17T08:18:13Z</time>
      </trkpt>
      <trkpt lat="47.89658" lon="6.98401">
        <ele>439.9</ele>
        <time>2019-09-17T08:18:15Z</time>
      </trkpt>
      <trkpt lat="47.89656" lon="6.98398">
        <ele>439.9</ele>
        <time>2019-09-17T08:18:17Z</time>
      </trkpt>
      <trkpt lat="47.89653" lon="6.98394">
        <ele>439.9</ele>
        <time>2019-09-17T08:18:19Z</time>
      </trkpt>
      <trkpt lat="47.89651" lon="6.98391">
        <ele>439.9</ele>
        <time>2019-09-17T08:18:22Z</time>
      </trkpt>
      <trkpt lat="47.89648" lon="6.98386">
        <ele>439.9</ele>
        <time>2019-09-17T08:18:25Z</time>
      </trkpt>
      <trkpt lat="47.89646" lon="6.98382">
        <ele>439.9</ele>
        <time>2019-09-17T08:18:27Z</time>
      </trkpt>
      <trkpt lat="47.89644" lon="6.98378">
        <ele>439.9</ele>
        <time>2019-09-17T08:18:29Z</time>
      </trkpt>
      <trkpt lat="47.89642" lon="6.98374">
        <ele>439.9</ele>
        <time>2019-09-17T08:18:32Z</time>
      </trkpt>
      <trkpt lat="47.89641" lon="6.9837">
        <ele>439.9</ele>
        <time>2019-09-17T08:18:34Z</time>
      </trkpt>
      <trkpt lat="47.89639" lon="6.98366">
        <ele>439.9</ele>
        <time>2019-09-17T08:18:36Z</time>
      </trkpt>
      <trkpt lat="47.89637" lon="6.98362">
        <ele>439.9</ele>
        <time>2019-09-17T08:18:38Z</time>
      </trkpt>
      <trkpt lat="47.89635" lon="6.98358">
        <ele>440</ele>
        <time>2019-09-17T08:18:40Z</time>
      </trkpt>
      <trkpt lat="47.89634" lon="6.98353">
        <ele>440</ele>
        <time>2019-09-17T08:18:42Z</time>
      </trkpt>
      <trkpt lat="47.89633" lon="6.98348">
        <ele>440</ele>
        <time>2019-09-17T08:18:44Z</time>
      </trkpt>
      <trkpt lat="47.89631" lon="6.98344">
        <ele>440</ele>
        <time>2019-09-17T08:18:46Z</time>
      </trkpt>
      <trkpt lat="47.89629" lon="6.9834">
        <ele>440.1</ele>
        <time>2019-09-17T08:18:48Z</time>
      </trkpt>
      <trkpt lat="47.89627" lon="6.98336">
        <ele>440.1</ele>
        <time>2019-09-17T08:18:50Z</time>
      </trkpt>
      <trkpt lat="47.89626" lon="6.98332">
        <ele>440.1</ele>
        <time>2019-09-17T08:18:52Z</time>
      </trkpt>
      <trkpt lat="47.89624" lon="6.98327">
        <ele>440.1</ele>
        <time>2019-09-17T08:18:55Z</time>
      </trkpt>
      <trkpt lat="47.89622" lon="6.98322">
        <ele>440.1</ele>
        <time>2019-09-17T08:18:58Z</time>
      </trkpt>
      <trkpt lat="47.89621" lon="6.98318">
        <ele>440.1</ele>
        <time>2019-09-17T08:19:00Z</time>
      </trkpt>
      <trkpt lat="47.89619" lon="6.98313">
        <ele>440.1</ele>
        <time>2019-09-17T08:19:02Z</time>
      </trkpt>
      <trkpt lat="47.89618" lon="6.98307">
        <ele>440.1</ele>
        <time>2019-09-17T08:19:04Z</time>
      </trkpt>
      <trkpt lat="47.89617" lon="6.98303">
        <ele>440.1</ele>
        <time>2019-09-17T08:19:06Z</time>
      </trkpt>
      <trkpt lat="47.89616" lon="6.98298">
        <ele>440.1</ele>
        <time>2019-09-17T08:19:08Z</time>
      </trkpt>
      <trkpt lat="47.89615" lon="6.98294">
        <ele>440</ele>
        <time>2019-09-17T08:19:10Z</time>
      </trkpt>
      <trkpt lat="47.89613" lon="6.9829">
        <ele>440</ele>
        <time>2019-09-17T08:19:12Z</time>
      </trkpt>
      <trkpt lat="47.89611" lon="6.98285">
        <ele>440</ele>
        <time>2019-09-17T08:19:14Z</time>
      </trkpt>
      <trkpt lat="47.8961" lon="6.9828">
        <ele>439.9</ele>
        <time>2019-09-17T08:19:17Z</time>
      </trkpt>
      <trkpt lat="47.89608" lon="6.98275">
        <ele>439.9</ele>
        <time>2019-09-17T08:19:20Z</time>
      </trkpt>
      <trkpt lat="47.89606" lon="6.98271">
        <ele>439.9</ele>
        <time>2019-09-17T08:19:23Z</time>
      </trkpt>
      <trkpt lat="47.89607" lon="6.98267">
        <ele>439.9</ele>
        <time>2019-09-17T08:19:26Z</time>
      </trkpt>
      <trkpt lat="47.89608" lon="6.98263">
        <ele>439.8</ele>
        <time>2019-09-17T08:20:25Z</time>
      </trkpt>
      <trkpt lat="47.89611" lon="6.98263">
        <ele>439.8</ele>
        <time>2019-09-17T08:20:27Z</time>
      </trkpt>
      <trkpt lat="47.89614" lon="6.98261">
        <ele>439.8</ele>
        <time>2019-09-17T08:20:29Z</time>
      </trkpt>
      <trkpt lat="47.89615" lon="6.98257">
        <ele>439.8</ele>
        <time>2019-09-17T08:20:31Z</time>
      </trkpt>
      <trkpt lat="47.89618" lon="6.98252">
        <ele>439.8</ele>
        <time>2019-09-17T08:20:33Z</time>
      </trkpt>
      <trkpt lat="47.89621" lon="6.98248">
        <ele>439.8</ele>
        <time>2019-09-17T08:20:35Z</time>
      </trkpt>
      <trkpt lat="47.89623" lon="6.98245">
        <ele>439.8</ele>
        <time>2019-09-17T08:20:37Z</time>
      </trkpt>
      <trkpt lat="47.89625" lon="6.98241">
        <ele>439.7</ele>
        <time>2019-09-17T08:20:39Z</time>
      </trkpt>
      <trkpt lat="47.89627" lon="6.98236">
        <ele>439.7</ele>
        <time>2019-09-17T08:20:41Z</time>
      </trkpt>
      <trkpt lat="47.89629" lon="6.98232">
        <ele>439.7</ele>
        <time>2019-09-17T08:20:45Z</time>
      </trkpt>
      <trkpt lat="47.89629" lon="6.98228">
        <ele>439.7</ele>
        <time>2019-09-17T08:20:48Z</time>
      </trkpt>
      <trkpt lat="47.89629" lon="6.98224">
        <ele>439.7</ele>
        <time>2019-09-17T08:20:50Z</time>
      </trkpt>
      <trkpt lat="47.89632" lon="6.98217">
        <ele>439.6</ele>
        <time>2019-09-17T08:20:52Z</time>
      </trkpt>
      <trkpt lat="47.89633" lon="6.9821">
        <ele>439.6</ele>
        <time>2019-09-17T08:20:54Z</time>
      </trkpt>
      <trkpt lat="47.89634" lon="6.98206">
        <ele>439.6</ele>
        <time>2019-09-17T08:20:56Z</time>
      </trkpt>
      <trkpt lat="47.89635" lon="6.98201">
        <ele>439.6</ele>
        <time>2019-09-17T08:20:58Z</time>
      </trkpt>
      <trkpt lat="47.89636" lon="6.98197">
        <ele>439.6</ele>
        <time>2019-09-17T08:21:00Z</time>
      </trkpt>
      <trkpt lat="47.89638" lon="6.98193">
        <ele>439.6</ele>
        <time>2019-09-17T08:21:02Z</time>
      </trkpt>
      <trkpt lat="47.8964" lon="6.98189">
        <ele>439.6</ele>
        <time>2019-09-17T08:21:04Z</time>
      </trkpt>
      <trkpt lat="47.89641" lon="6.98183">
        <ele>439.5</ele>
        <time>2019-09-17T08:21:06Z</time>
      </trkpt>
      <trkpt lat="47.89643" lon="6.98176">
        <ele>439.5</ele>
        <time>2019-09-17T08:21:08Z</time>
      </trkpt>
      <trkpt lat="47.89644" lon="6.98172">
        <ele>439.5</ele>
        <time>2019-09-17T08:21:12Z</time>
      </trkpt>
      <trkpt lat="47.89646" lon="6.98168">
        <ele>439.5</ele>
        <time>2019-09-17T08:21:15Z</time>
      </trkpt>
      <trkpt lat="47.89648" lon="6.98165">
        <ele>439.5</ele>
        <time>2019-09-17T08:21:19Z</time>
      </trkpt>
      <trkpt lat="47.8965" lon="6.98161">
        <ele>439.5</ele>
        <time>2019-09-17T08:21:21Z</time>
      </trkpt>
      <trkpt lat="47.89653" lon="6.98157">
        <ele>439.5</ele>
        <time>2019-09-17T08:21:24Z</time>
      </trkpt>
      <trkpt lat="47.89656" lon="6.98153">
        <ele>439.5</ele>
        <time>2019-09-17T08:21:26Z</time>
      </trkpt>
      <trkpt lat="47.89657" lon="6.98147">
        <ele>439.4</ele>
        <time>2019-09-17T08:21:28Z</time>
      </trkpt>
      <trkpt lat="47.89659" lon="6.98142">
        <ele>439.5</ele>
        <time>2019-09-17T08:21:30Z</time>
      </trkpt>
      <trkpt lat="47.8966" lon="6.98138">
        <ele>439.6</ele>
        <time>2019-09-17T08:21:32Z</time>
      </trkpt>
      <trkpt lat="47.89661" lon="6.98134">
        <ele>439.6</ele>
        <time>2019-09-17T08:21:34Z</time>
      </trkpt>
      <trkpt lat="47.89661" lon="6.98129">
        <ele>439.7</ele>
        <time>2019-09-17T08:21:36Z</time>
      </trkpt>
      <trkpt lat="47.89662" lon="6.98122">
        <ele>439.8</ele>
        <time>2019-09-17T08:21:38Z</time>
      </trkpt>
      <trkpt lat="47.89663" lon="6.98117">
        <ele>439.9</ele>
        <time>2019-09-17T08:21:39Z</time>
      </trkpt>
      <trkpt lat="47.89665" lon="6.98112">
        <ele>440</ele>
        <time>2019-09-17T08:21:41Z</time>
      </trkpt>
      <trkpt lat="47.89666" lon="6.98108">
        <ele>440</ele>
        <time>2019-09-17T08:21:43Z</time>
      </trkpt>
      <trkpt lat="47.89668" lon="6.98104">
        <ele>440</ele>
        <time>2019-09-17T08:21:45Z</time>
      </trkpt>
      <trkpt lat="47.89669" lon="6.98099">
        <ele>440.1</ele>
        <time>2019-09-17T08:21:48Z</time>
      </trkpt>
      <trkpt lat="47.89671" lon="6.98096">
        <ele>440.1</ele>
        <time>2019-09-17T08:21:51Z</time>
      </trkpt>
      <trkpt lat="47.89673" lon="6.98093">
        <ele>440.1</ele>
        <time>2019-09-17T08:21:54Z</time>
      </trkpt>
      <trkpt lat="47.89675" lon="6.98088">
        <ele>440.1</ele>
        <time>2019-09-17T08:21:57Z</time>
      </trkpt>
      <trkpt lat="47.89676" lon="6.98084">
        <ele>440.2</ele>
        <time>2019-09-17T08:21:59Z</time>
      </trkpt>
      <trkpt lat="47.89676" lon="6.9808">
        <ele>440.2</ele>
        <time>2019-09-17T08:22:01Z</time>
      </trkpt>
      <trkpt lat="47.89678" lon="6.98076">
        <ele>440.2</ele>
        <time>2019-09-17T08:22:03Z</time>
      </trkpt>
      <trkpt lat="47.89679" lon="6.98072">
        <ele>440.2</ele>
        <time>2019-09-17T08:22:05Z</time>
      </trkpt>
      <trkpt lat="47.89681" lon="6.98064">
        <ele>440.2</ele>
        <time>2019-09-17T08:22:07Z</time>
      </trkpt>
      <trkpt lat="47.89682" lon="6.9806">
        <ele>440.2</ele>
        <time>2019-09-17T08:22:10Z</time>
      </trkpt>
      <trkpt lat="47.89684" lon="6.98056">
        <ele>440.2</ele>
        <time>2019-09-17T08:22:14Z</time>
      </trkpt>
      <trkpt lat="47.89686" lon="6.98051">
        <ele>440.2</ele>
        <time>2019-09-17T08:22:17Z</time>
      </trkpt>
      <trkpt lat="47.89687" lon="6.98047">
        <ele>440.2</ele>
        <time>2019-09-17T08:22:19Z</time>
      </trkpt>
      <trkpt lat="47.89689" lon="6.98043">
        <ele>440.2</ele>
        <time>2019-09-17T08:22:20Z</time>
      </trkpt>
      <trkpt lat="47.8969" lon="6.98038">
        <ele>440.2</ele>
        <time>2019-09-17T08:22:21Z</time>
      </trkpt>
      <trkpt lat="47.89692" lon="6.98033">
        <ele>440.2</ele>
        <time>2019-09-17T08:22:22Z</time>
      </trkpt>
      <trkpt lat="47.89694" lon="6.98028">
        <ele>440.2</ele>
        <time>2019-09-17T08:22:24Z</time>
      </trkpt>
      <trkpt lat="47.89695" lon="6.98024">
        <ele>440.2</ele>
        <time>2019-09-17T08:22:26Z</time>
      </trkpt>
      <trkpt lat="47.89697" lon="6.98019">
        <ele>440.2</ele>
        <time>2019-09-17T08:22:28Z</time>
      </trkpt>
      <trkpt lat="47.89699" lon="6.98014">
        <ele>440.2</ele>
        <time>2019-09-17T08:22:30Z</time>
      </trkpt>
      <trkpt lat="47.89701" lon="6.98009">
        <ele>440.1</ele>
        <time>2019-09-17T08:22:32Z</time>
      </trkpt>
      <trkpt lat="47.89703" lon="6.98006">
        <ele>440.1</ele>
        <time>2019-09-17T08:22:34Z</time>
      </trkpt>
      <trkpt lat="47.89704" lon="6.98002">
        <ele>440.1</ele>
        <time>2019-09-17T08:22:36Z</time>
      </trkpt>
      <trkpt lat="47.89705" lon="6.97998">
        <ele>440.1</ele>
        <time>2019-09-17T08:22:38Z</time>
      </trkpt>
      <trkpt lat="47.89706" lon="6.97993">
        <ele>440.1</ele>
        <time>2019-09-17T08:22:43Z</time>
      </trkpt>
      <trkpt lat="47.89708" lon="6.97989">
        <ele>440</ele>
        <time>2019-09-17T08:22:46Z</time>
      </trkpt>
      <trkpt lat="47.8971" lon="6.97986">
        <ele>440</ele>
        <time>2019-09-17T08:22:48Z</time>
      </trkpt>
      <trkpt lat="47.89712" lon="6.97982">
        <ele>440</ele>
        <time>2019-09-17T08:22:50Z</time>
      </trkpt>
      <trkpt lat="47.89714" lon="6.97978">
        <ele>439.9</ele>
        <time>2019-09-17T08:22:53Z</time>
      </trkpt>
      <trkpt lat="47.89717" lon="6.97973">
        <ele>439.9</ele>
        <time>2019-09-17T08:22:55Z</time>
      </trkpt>
      <trkpt lat="47.89719" lon="6.97969">
        <ele>440</ele>
        <time>2019-09-17T08:22:56Z</time>
      </trkpt>
      <trkpt lat="47.89722" lon="6.97963">
        <ele>440</ele>
        <time>2019-09-17T08:22:58Z</time>
      </trkpt>
      <trkpt lat="47.89723" lon="6.97958">
        <ele>440.1</ele>
        <time>2019-09-17T08:23:00Z</time>
      </trkpt>
      <trkpt lat="47.89725" lon="6.97954">
        <ele>440.1</ele>
        <time>2019-09-17T08:23:02Z</time>
      </trkpt>
      <trkpt lat="47.89727" lon="6.97948">
        <ele>440.2</ele>
        <time>2019-09-17T08:23:04Z</time>
      </trkpt>
      <trkpt lat="47.89729" lon="6.97943">
        <ele>440.2</ele>
        <time>2019-09-17T08:23:06Z</time>
      </trkpt>
      <trkpt lat="47.89731" lon="6.97938">
        <ele>440.3</ele>
        <time>2019-09-17T08:23:08Z</time>
      </trkpt>
      <trkpt lat="47.89732" lon="6.97935">
        <ele>440.4</ele>
        <time>2019-09-17T08:23:10Z</time>
      </trkpt>
      <trkpt lat="47.89732" lon="6.97929">
        <ele>440.5</ele>
        <time>2019-09-17T08:23:13Z</time>
      </trkpt>
      <trkpt lat="47.89733" lon="6.97925">
        <ele>440.5</ele>
        <time>2019-09-17T08:23:15Z</time>
      </trkpt>
      <trkpt lat="47.89735" lon="6.9792">
        <ele>440.6</ele>
        <time>2019-09-17T08:23:18Z</time>
      </trkpt>
      <trkpt lat="47.89736" lon="6.97915">
        <ele>440.6</ele>
        <time>2019-09-17T08:23:21Z</time>
      </trkpt>
      <trkpt lat="47.89737" lon="6.97911">
        <ele>440.6</ele>
        <time>2019-09-17T08:23:24Z</time>
      </trkpt>
      <trkpt lat="47.89739" lon="6.97906">
        <ele>440.7</ele>
        <time>2019-09-17T08:23:27Z</time>
      </trkpt>
      <trkpt lat="47.8974" lon="6.97901">
        <ele>440.7</ele>
        <time>2019-09-17T08:23:30Z</time>
      </trkpt>
      <trkpt lat="47.89741" lon="6.97898">
        <ele>440.7</ele>
        <time>2019-09-17T08:23:32Z</time>
      </trkpt>
      <trkpt lat="47.89742" lon="6.97893">
        <ele>440.7</ele>
        <time>2019-09-17T08:23:34Z</time>
      </trkpt>
      <trkpt lat="47.89743" lon="6.97888">
        <ele>440.8</ele>
        <time>2019-09-17T08:23:36Z</time>
      </trkpt>
      <trkpt lat="47.89743" lon="6.97882">
        <ele>440.8</ele>
        <time>2019-09-17T08:23:38Z</time>
      </trkpt>
      <trkpt lat="47.89743" lon="6.97877">
        <ele>440.8</ele>
        <time>2019-09-17T08:23:40Z</time>
      </trkpt>
      <trkpt lat="47.89742" lon="6.97872">
        <ele>440.8</ele>
        <time>2019-09-17T08:23:43Z</time>
      </trkpt>
      <trkpt lat="47.89741" lon="6.97868">
        <ele>440.9</ele>
        <time>2019-09-17T08:23:45Z</time>
      </trkpt>
      <trkpt lat="47.8974" lon="6.97863">
        <ele>440.9</ele>
        <time>2019-09-17T08:23:48Z</time>
      </trkpt>
      <trkpt lat="47.89739" lon="6.97857">
        <ele>440.9</ele>
        <time>2019-09-17T08:23:51Z</time>
      </trkpt>
      <trkpt lat="47.89736" lon="6.97853">
        <ele>440.9</ele>
        <time>2019-09-17T08:23:54Z</time>
      </trkpt>
      <trkpt lat="47.89735" lon="6.97848">
        <ele>441</ele>
        <time>2019-09-17T08:23:57Z</time>
      </trkpt>
      <trkpt lat="47.89734" lon="6.97843">
        <ele>441</ele>
        <time>2019-09-17T08:23:59Z</time>
      </trkpt>
      <trkpt lat="47.89732" lon="6.97838">
        <ele>441</ele>
        <time>2019-09-17T08:24:01Z</time>
      </trkpt>
      <trkpt lat="47.89732" lon="6.97831">
        <ele>441</ele>
        <time>2019-09-17T08:24:03Z</time>
      </trkpt>
      <trkpt lat="47.89732" lon="6.97824">
        <ele>441</ele>
        <time>2019-09-17T08:24:05Z</time>
      </trkpt>
      <trkpt lat="47.89733" lon="6.97819">
        <ele>441.1</ele>
        <time>2019-09-17T08:24:07Z</time>
      </trkpt>
      <trkpt lat="47.89735" lon="6.97817">
        <ele>441.1</ele>
        <time>2019-09-17T08:24:10Z</time>
      </trkpt>
      <trkpt lat="47.89737" lon="6.97811">
        <ele>441.1</ele>
        <time>2019-09-17T08:24:13Z</time>
      </trkpt>
      <trkpt lat="47.89739" lon="6.97808">
        <ele>441.7</ele>
        <time>2019-09-17T08:24:16Z</time>
      </trkpt>
      <trkpt lat="47.89743" lon="6.97804">
        <ele>442.2</ele>
        <time>2019-09-17T08:24:19Z</time>
      </trkpt>
      <trkpt lat="47.89746" lon="6.978">
        <ele>442.4</ele>
        <time>2019-09-17T08:24:20Z</time>
      </trkpt>
      <trkpt lat="47.89749" lon="6.97796">
        <ele>442.6</ele>
        <time>2019-09-17T08:24:21Z</time>
      </trkpt>
      <trkpt lat="47.89752" lon="6.97792">
        <ele>442.9</ele>
        <time>2019-09-17T08:24:22Z</time>
      </trkpt>
      <trkpt lat="47.89755" lon="6.97789">
        <ele>443.1</ele>
        <time>2019-09-17T08:24:23Z</time>
      </trkpt>
      <trkpt lat="47.89758" lon="6.97784">
        <ele>443.3</ele>
        <time>2019-09-17T08:24:25Z</time>
      </trkpt>
      <trkpt lat="47.89761" lon="6.9778">
        <ele>443.6</ele>
        <time>2019-09-17T08:24:27Z</time>
      </trkpt>
      <trkpt lat="47.89764" lon="6.97777">
        <ele>443.8</ele>
        <time>2019-09-17T08:24:29Z</time>
      </trkpt>
      <trkpt lat="47.89766" lon="6.97774">
        <ele>444</ele>
        <time>2019-09-17T08:24:31Z</time>
      </trkpt>
      <trkpt lat="47.89768" lon="6.97769">
        <ele>444.2</ele>
        <time>2019-09-17T08:24:34Z</time>
      </trkpt>
      <trkpt lat="47.8977" lon="6.97766">
        <ele>444.4</ele>
        <time>2019-09-17T08:24:36Z</time>
      </trkpt>
      <trkpt lat="47.89772" lon="6.97764">
        <ele>444.6</ele>
        <time>2019-09-17T08:24:38Z</time>
      </trkpt>
      <trkpt lat="47.89774" lon="6.97761">
        <ele>444.7</ele>
        <time>2019-09-17T08:24:40Z</time>
      </trkpt>
      <trkpt lat="47.89777" lon="6.97758">
        <ele>444.9</ele>
        <time>2019-09-17T08:24:42Z</time>
      </trkpt>
      <trkpt lat="47.89779" lon="6.97753">
        <ele>445.1</ele>
        <time>2019-09-17T08:24:45Z</time>
      </trkpt>
      <trkpt lat="47.89781" lon="6.97749">
        <ele>445.4</ele>
        <time>2019-09-17T08:24:48Z</time>
      </trkpt>
      <trkpt lat="47.89783" lon="6.97744">
        <ele>445.7</ele>
        <time>2019-09-17T08:24:51Z</time>
      </trkpt>
      <trkpt lat="47.89785" lon="6.97742">
        <ele>446</ele>
        <time>2019-09-17T08:24:54Z</time>
      </trkpt>
      <trkpt lat="47.89788" lon="6.97738">
        <ele>446.4</ele>
        <time>2019-09-17T08:24:57Z</time>
      </trkpt>
      <trkpt lat="47.89791" lon="6.97734">
        <ele>446.7</ele>
        <time>2019-09-17T08:25:00Z</time>
      </trkpt>
      <trkpt lat="47.89793" lon="6.97731">
        <ele>446.9</ele>
        <time>2019-09-17T08:25:02Z</time>
      </trkpt>
      <trkpt lat="47.89795" lon="6.97727">
        <ele>447.1</ele>
        <time>2019-09-17T08:25:04Z</time>
      </trkpt>
      <trkpt lat="47.89798" lon="6.97724">
        <ele>447.4</ele>
        <time>2019-09-17T08:25:07Z</time>
      </trkpt>
      <trkpt lat="47.898" lon="6.97721">
        <ele>447.6</ele>
        <time>2019-09-17T08:25:09Z</time>
      </trkpt>
      <trkpt lat="47.89801" lon="6.97717">
        <ele>447.8</ele>
        <time>2019-09-17T08:25:11Z</time>
      </trkpt>
      <trkpt lat="47.89802" lon="6.97713">
        <ele>448.1</ele>
        <time>2019-09-17T08:25:13Z</time>
      </trkpt>
      <trkpt lat="47.89805" lon="6.9771">
        <ele>448.3</ele>
        <time>2019-09-17T08:25:15Z</time>
      </trkpt>
      <trkpt lat="47.89807" lon="6.97706">
        <ele>448.5</ele>
        <time>2019-09-17T08:25:17Z</time>
      </trkpt>
      <trkpt lat="47.8981" lon="6.97703">
        <ele>448.7</ele>
        <time>2019-09-17T08:25:19Z</time>
      </trkpt>
      <trkpt lat="47.89813" lon="6.97698">
        <ele>449</ele>
        <time>2019-09-17T08:25:21Z</time>
      </trkpt>
      <trkpt lat="47.89815" lon="6.97693">
        <ele>449.3</ele>
        <time>2019-09-17T08:25:23Z</time>
      </trkpt>
      <trkpt lat="47.89817" lon="6.97689">
        <ele>449.7</ele>
        <time>2019-09-17T08:25:25Z</time>
      </trkpt>
      <trkpt lat="47.89819" lon="6.97685">
        <ele>450</ele>
        <time>2019-09-17T08:25:27Z</time>
      </trkpt>
      <trkpt lat="47.89821" lon="6.97681">
        <ele>450.3</ele>
        <time>2019-09-17T08:25:30Z</time>
      </trkpt>
      <trkpt lat="47.89822" lon="6.97677">
        <ele>450.5</ele>
        <time>2019-09-17T08:25:33Z</time>
      </trkpt>
      <trkpt lat="47.89824" lon="6.97673">
        <ele>450.7</ele>
        <time>2019-09-17T08:25:35Z</time>
      </trkpt>
      <trkpt lat="47.89825" lon="6.97669">
        <ele>450.9</ele>
        <time>2019-09-17T08:25:37Z</time>
      </trkpt>
      <trkpt lat="47.89826" lon="6.97665">
        <ele>451.1</ele>
        <time>2019-09-17T08:25:39Z</time>
      </trkpt>
      <trkpt lat="47.89826" lon="6.97661">
        <ele>451.2</ele>
        <time>2019-09-17T08:25:41Z</time>
      </trkpt>
      <trkpt lat="47.89827" lon="6.97655">
        <ele>451.7</ele>
        <time>2019-09-17T08:25:44Z</time>
      </trkpt>
      <trkpt lat="47.89827" lon="6.9765">
        <ele>452</ele>
        <time>2019-09-17T08:25:48Z</time>
      </trkpt>
      <trkpt lat="47.89827" lon="6.97645">
        <ele>452.2</ele>
        <time>2019-09-17T08:25:50Z</time>
      </trkpt>
      <trkpt lat="47.89827" lon="6.9764">
        <ele>452.5</ele>
        <time>2019-09-17T08:25:52Z</time>
      </trkpt>
      <trkpt lat="47.89828" lon="6.97635">
        <ele>452.8</ele>
        <time>2019-09-17T08:25:55Z</time>
      </trkpt>
      <trkpt lat="47.8983" lon="6.9763">
        <ele>453</ele>
        <time>2019-09-17T08:26:00Z</time>
      </trkpt>
      <trkpt lat="47.89831" lon="6.97625">
        <ele>453.3</ele>
        <time>2019-09-17T08:26:02Z</time>
      </trkpt>
      <trkpt lat="47.89832" lon="6.97618">
        <ele>453.7</ele>
        <time>2019-09-17T08:26:04Z</time>
      </trkpt>
      <trkpt lat="47.89832" lon="6.97614">
        <ele>454.1</ele>
        <time>2019-09-17T08:26:05Z</time>
      </trkpt>
      <trkpt lat="47.89832" lon="6.97607">
        <ele>454.5</ele>
        <time>2019-09-17T08:26:07Z</time>
      </trkpt>
      <trkpt lat="47.89833" lon="6.97601">
        <ele>454.9</ele>
        <time>2019-09-17T08:26:09Z</time>
      </trkpt>
      <trkpt lat="47.89834" lon="6.97596">
        <ele>455.2</ele>
        <time>2019-09-17T08:26:11Z</time>
      </trkpt>
      <trkpt lat="47.89835" lon="6.97591">
        <ele>455.7</ele>
        <time>2019-09-17T08:26:14Z</time>
      </trkpt>
      <trkpt lat="47.89836" lon="6.97585">
        <ele>455.9</ele>
        <time>2019-09-17T08:26:17Z</time>
      </trkpt>
      <trkpt lat="47.89836" lon="6.9758">
        <ele>456.2</ele>
        <time>2019-09-17T08:26:19Z</time>
      </trkpt>
      <trkpt lat="47.89836" lon="6.97576">
        <ele>456.4</ele>
        <time>2019-09-17T08:26:21Z</time>
      </trkpt>
      <trkpt lat="47.89836" lon="6.97571">
        <ele>456.6</ele>
        <time>2019-09-17T08:26:23Z</time>
      </trkpt>
      <trkpt lat="47.89835" lon="6.97566">
        <ele>456.8</ele>
        <time>2019-09-17T08:26:25Z</time>
      </trkpt>
      <trkpt lat="47.89835" lon="6.97561">
        <ele>457</ele>
        <time>2019-09-17T08:26:27Z</time>
      </trkpt>
      <trkpt lat="47.89834" lon="6.97556">
        <ele>457.4</ele>
        <time>2019-09-17T08:26:30Z</time>
      </trkpt>
      <trkpt lat="47.89835" lon="6.97551">
        <ele>457.8</ele>
        <time>2019-09-17T08:26:32Z</time>
      </trkpt>
      <trkpt lat="47.89835" lon="6.97546">
        <ele>458.1</ele>
        <time>2019-09-17T08:26:34Z</time>
      </trkpt>
      <trkpt lat="47.89836" lon="6.9754">
        <ele>458.5</ele>
        <time>2019-09-17T08:26:37Z</time>
      </trkpt>
      <trkpt lat="47.89836" lon="6.97536">
        <ele>458.7</ele>
        <time>2019-09-17T08:26:39Z</time>
      </trkpt>
      <trkpt lat="47.89836" lon="6.97532">
        <ele>459</ele>
        <time>2019-09-17T08:26:41Z</time>
      </trkpt>
      <trkpt lat="47.89836" lon="6.97528">
        <ele>459.3</ele>
        <time>2019-09-17T08:26:43Z</time>
      </trkpt>
      <trkpt lat="47.89837" lon="6.97523">
        <ele>459.5</ele>
        <time>2019-09-17T08:26:46Z</time>
      </trkpt>
      <trkpt lat="47.89837" lon="6.97517">
        <ele>459.8</ele>
        <time>2019-09-17T08:26:49Z</time>
      </trkpt>
      <trkpt lat="47.89838" lon="6.97512">
        <ele>460.1</ele>
        <time>2019-09-17T08:26:51Z</time>
      </trkpt>
      <trkpt lat="47.89839" lon="6.97508">
        <ele>460.4</ele>
        <time>2019-09-17T08:26:53Z</time>
      </trkpt>
      <trkpt lat="47.8984" lon="6.97504">
        <ele>460.8</ele>
        <time>2019-09-17T08:26:55Z</time>
      </trkpt>
      <trkpt lat="47.89841" lon="6.975">
        <ele>461.1</ele>
        <time>2019-09-17T08:26:57Z</time>
      </trkpt>
      <trkpt lat="47.89842" lon="6.97496">
        <ele>461.4</ele>
        <time>2019-09-17T08:26:59Z</time>
      </trkpt>
      <trkpt lat="47.89844" lon="6.97493">
        <ele>461.7</ele>
        <time>2019-09-17T08:27:01Z</time>
      </trkpt>
      <trkpt lat="47.89846" lon="6.97489">
        <ele>462</ele>
        <time>2019-09-17T08:27:03Z</time>
      </trkpt>
      <trkpt lat="47.89848" lon="6.97486">
        <ele>462.2</ele>
        <time>2019-09-17T08:27:05Z</time>
      </trkpt>
      <trkpt lat="47.8985" lon="6.97482">
        <ele>462.7</ele>
        <time>2019-09-17T08:27:07Z</time>
      </trkpt>
      <trkpt lat="47.89852" lon="6.97478">
        <ele>463.1</ele>
        <time>2019-09-17T08:27:09Z</time>
      </trkpt>
      <trkpt lat="47.89854" lon="6.97474">
        <ele>463.5</ele>
        <time>2019-09-17T08:27:11Z</time>
      </trkpt>
      <trkpt lat="47.89856" lon="6.9747">
        <ele>463.7</ele>
        <time>2019-09-17T08:27:13Z</time>
      </trkpt>
      <trkpt lat="47.89858" lon="6.97466">
        <ele>464.1</ele>
        <time>2019-09-17T08:27:15Z</time>
      </trkpt>
      <trkpt lat="47.8986" lon="6.97462">
        <ele>464.4</ele>
        <time>2019-09-17T08:27:17Z</time>
      </trkpt>
      <trkpt lat="47.89862" lon="6.97458">
        <ele>464.7</ele>
        <time>2019-09-17T08:27:19Z</time>
      </trkpt>
      <trkpt lat="47.89864" lon="6.97453">
        <ele>465</ele>
        <time>2019-09-17T08:27:22Z</time>
      </trkpt>
      <trkpt lat="47.89866" lon="6.97449">
        <ele>465.3</ele>
        <time>2019-09-17T08:27:24Z</time>
      </trkpt>
      <trkpt lat="47.89867" lon="6.97445">
        <ele>465.6</ele>
        <time>2019-09-17T08:27:26Z</time>
      </trkpt>
      <trkpt lat="47.89869" lon="6.97442">
        <ele>465.9</ele>
        <time>2019-09-17T08:27:28Z</time>
      </trkpt>
      <trkpt lat="47.89871" lon="6.97438">
        <ele>466.2</ele>
        <time>2019-09-17T08:27:30Z</time>
      </trkpt>
      <trkpt lat="47.89873" lon="6.97433">
        <ele>466.6</ele>
        <time>2019-09-17T08:27:32Z</time>
      </trkpt>
      <trkpt lat="47.89875" lon="6.97429">
        <ele>466.9</ele>
        <time>2019-09-17T08:27:34Z</time>
      </trkpt>
      <trkpt lat="47.89876" lon="6.97425">
        <ele>467.2</ele>
        <time>2019-09-17T08:27:36Z</time>
      </trkpt>
      <trkpt lat="47.89878" lon="6.97421">
        <ele>467.5</ele>
        <time>2019-09-17T08:27:38Z</time>
      </trkpt>
      <trkpt lat="47.8988" lon="6.97417">
        <ele>467.8</ele>
        <time>2019-09-17T08:27:41Z</time>
      </trkpt>
      <trkpt lat="47.89882" lon="6.97412">
        <ele>468.2</ele>
        <time>2019-09-17T08:27:44Z</time>
      </trkpt>
      <trkpt lat="47.89883" lon="6.97408">
        <ele>468.4</ele>
        <time>2019-09-17T08:27:46Z</time>
      </trkpt>
      <trkpt lat="47.89884" lon="6.97404">
        <ele>468.7</ele>
        <time>2019-09-17T08:27:48Z</time>
      </trkpt>
      <trkpt lat="47.89885" lon="6.974">
        <ele>469</ele>
        <time>2019-09-17T08:27:50Z</time>
      </trkpt>
      <trkpt lat="47.89886" lon="6.97395">
        <ele>469.4</ele>
        <time>2019-09-17T08:27:53Z</time>
      </trkpt>
      <trkpt lat="47.89886" lon="6.97391">
        <ele>469.7</ele>
        <time>2019-09-17T08:27:56Z</time>
      </trkpt>
      <trkpt lat="47.89886" lon="6.97386">
        <ele>470</ele>
        <time>2019-09-17T08:27:59Z</time>
      </trkpt>
      <trkpt lat="47.89887" lon="6.97382">
        <ele>470.4</ele>
        <time>2019-09-17T08:28:03Z</time>
      </trkpt>
      <trkpt lat="47.89888" lon="6.97377">
        <ele>470.7</ele>
        <time>2019-09-17T08:28:06Z</time>
      </trkpt>
      <trkpt lat="47.89889" lon="6.97373">
        <ele>470.9</ele>
        <time>2019-09-17T08:28:09Z</time>
      </trkpt>
      <trkpt lat="47.8989" lon="6.97368">
        <ele>471.2</ele>
        <time>2019-09-17T08:28:12Z</time>
      </trkpt>
      <trkpt lat="47.89892" lon="6.97365">
        <ele>471.5</ele>
        <time>2019-09-17T08:28:15Z</time>
      </trkpt>
      <trkpt lat="47.89893" lon="6.97361">
        <ele>471.8</ele>
        <time>2019-09-17T08:28:17Z</time>
      </trkpt>
      <trkpt lat="47.89895" lon="6.97357">
        <ele>472</ele>
        <time>2019-09-17T08:28:19Z</time>
      </trkpt>
      <trkpt lat="47.89897" lon="6.97352">
        <ele>472.3</ele>
        <time>2019-09-17T08:28:21Z</time>
      </trkpt>
      <trkpt lat="47.89898" lon="6.97347">
        <ele>472.5</ele>
        <time>2019-09-17T08:28:23Z</time>
      </trkpt>
      <trkpt lat="47.89899" lon="6.97344">
        <ele>472.7</ele>
        <time>2019-09-17T08:28:25Z</time>
      </trkpt>
      <trkpt lat="47.89901" lon="6.9734">
        <ele>472.9</ele>
        <time>2019-09-17T08:28:27Z</time>
      </trkpt>
      <trkpt lat="47.89901" lon="6.97335">
        <ele>473.2</ele>
        <time>2019-09-17T08:28:30Z</time>
      </trkpt>
      <trkpt lat="47.899" lon="6.9733">
        <ele>473.8</ele>
        <time>2019-09-17T08:28:33Z</time>
      </trkpt>
      <trkpt lat="47.89899" lon="6.97326">
        <ele>474</ele>
        <time>2019-09-17T08:28:35Z</time>
      </trkpt>
      <trkpt lat="47.89899" lon="6.97322">
        <ele>474.3</ele>
        <time>2019-09-17T08:28:40Z</time>
      </trkpt>
      <trkpt lat="47.89897" lon="6.97317">
        <ele>474.6</ele>
        <time>2019-09-17T08:28:43Z</time>
      </trkpt>
      <trkpt lat="47.89895" lon="6.97314">
        <ele>474.9</ele>
        <time>2019-09-17T08:28:46Z</time>
      </trkpt>
      <trkpt lat="47.89892" lon="6.97312">
        <ele>475.2</ele>
        <time>2019-09-17T08:28:49Z</time>
      </trkpt>
      <trkpt lat="47.8989" lon="6.97309">
        <ele>475.4</ele>
        <time>2019-09-17T08:28:51Z</time>
      </trkpt>
      <trkpt lat="47.89888" lon="6.97305">
        <ele>475.7</ele>
        <time>2019-09-17T08:28:54Z</time>
      </trkpt>
      <trkpt lat="47.89888" lon="6.973">
        <ele>476</ele>
        <time>2019-09-17T08:28:57Z</time>
      </trkpt>
      <trkpt lat="47.89888" lon="6.97295">
        <ele>476.4</ele>
        <time>2019-09-17T08:29:01Z</time>
      </trkpt>
      <trkpt lat="47.89888" lon="6.97291">
        <ele>476.4</ele>
        <time>2019-09-17T08:29:03Z</time>
      </trkpt>
      <trkpt lat="47.89889" lon="6.97284">
        <ele>477.4</ele>
        <time>2019-09-17T08:29:06Z</time>
      </trkpt>
      <trkpt lat="47.8989" lon="6.97277">
        <ele>478.5</ele>
        <time>2019-09-17T08:29:08Z</time>
      </trkpt>
      <trkpt lat="47.89891" lon="6.97271">
        <ele>479.5</ele>
        <time>2019-09-17T08:29:10Z</time>
      </trkpt>
      <trkpt lat="47.89891" lon="6.97267">
        <ele>480.2</ele>
        <time>2019-09-17T08:29:12Z</time>
      </trkpt>
      <trkpt lat="47.89891" lon="6.97262">
        <ele>481</ele>
        <time>2019-09-17T08:29:15Z</time>
      </trkpt>
      <trkpt lat="47.8989" lon="6.97257">
        <ele>481.7</ele>
        <time>2019-09-17T08:29:18Z</time>
      </trkpt>
      <trkpt lat="47.89889" lon="6.97254">
        <ele>482.2</ele>
        <time>2019-09-17T08:29:21Z</time>
      </trkpt>
      <trkpt lat="47.89888" lon="6.9725">
        <ele>482.9</ele>
        <time>2019-09-17T08:29:25Z</time>
      </trkpt>
      <trkpt lat="47.89887" lon="6.97245">
        <ele>483.6</ele>
        <time>2019-09-17T08:29:29Z</time>
      </trkpt>
      <trkpt lat="47.89886" lon="6.97241">
        <ele>484.2</ele>
        <time>2019-09-17T08:29:33Z</time>
      </trkpt>
      <trkpt lat="47.89884" lon="6.97237">
        <ele>484.6</ele>
        <time>2019-09-17T08:29:37Z</time>
      </trkpt>
      <trkpt lat="47.89882" lon="6.97233">
        <ele>485.1</ele>
        <time>2019-09-17T08:29:40Z</time>
      </trkpt>
      <trkpt lat="47.89881" lon="6.97229">
        <ele>485.6</ele>
        <time>2019-09-17T08:29:43Z</time>
      </trkpt>
      <trkpt lat="47.89878" lon="6.97226">
        <ele>486</ele>
        <time>2019-09-17T08:29:47Z</time>
      </trkpt>
      <trkpt lat="47.89877" lon="6.97223">
        <ele>486.4</ele>
        <time>2019-09-17T08:29:51Z</time>
      </trkpt>
      <trkpt lat="47.89877" lon="6.97217">
        <ele>487</ele>
        <time>2019-09-17T08:29:54Z</time>
      </trkpt>
      <trkpt lat="47.89878" lon="6.97212">
        <ele>487.8</ele>
        <time>2019-09-17T08:29:56Z</time>
      </trkpt>
      <trkpt lat="47.89878" lon="6.97208">
        <ele>488.6</ele>
        <time>2019-09-17T08:29:58Z</time>
      </trkpt>
      <trkpt lat="47.89879" lon="6.97203">
        <ele>489.4</ele>
        <time>2019-09-17T08:30:01Z</time>
      </trkpt>
      <trkpt lat="47.89878" lon="6.97197">
        <ele>490</ele>
        <time>2019-09-17T08:30:04Z</time>
      </trkpt>
      <trkpt lat="47.89878" lon="6.97193">
        <ele>490.6</ele>
        <time>2019-09-17T08:30:07Z</time>
      </trkpt>
      <trkpt lat="47.89878" lon="6.97187">
        <ele>491.4</ele>
        <time>2019-09-17T08:30:10Z</time>
      </trkpt>
      <trkpt lat="47.89878" lon="6.97182">
        <ele>492.2</ele>
        <time>2019-09-17T08:30:13Z</time>
      </trkpt>
      <trkpt lat="47.89878" lon="6.97176">
        <ele>493</ele>
        <time>2019-09-17T08:30:16Z</time>
      </trkpt>
      <trkpt lat="47.89877" lon="6.97171">
        <ele>493.7</ele>
        <time>2019-09-17T08:30:19Z</time>
      </trkpt>
      <trkpt lat="47.89876" lon="6.97166">
        <ele>494.1</ele>
        <time>2019-09-17T08:30:22Z</time>
      </trkpt>
      <trkpt lat="47.89875" lon="6.97162">
        <ele>494.5</ele>
        <time>2019-09-17T08:30:25Z</time>
      </trkpt>
      <trkpt lat="47.89874" lon="6.97157">
        <ele>494.9</ele>
        <time>2019-09-17T08:30:29Z</time>
      </trkpt>
      <trkpt lat="47.89873" lon="6.97152">
        <ele>495.3</ele>
        <time>2019-09-17T08:30:33Z</time>
      </trkpt>
      <trkpt lat="47.89872" lon="6.97147">
        <ele>495.8</ele>
        <time>2019-09-17T08:30:36Z</time>
      </trkpt>
      <trkpt lat="47.89871" lon="6.97142">
        <ele>496.2</ele>
        <time>2019-09-17T08:30:38Z</time>
      </trkpt>
      <trkpt lat="47.8987" lon="6.97137">
        <ele>496.7</ele>
        <time>2019-09-17T08:30:41Z</time>
      </trkpt>
      <trkpt lat="47.8987" lon="6.97133">
        <ele>497.1</ele>
        <time>2019-09-17T08:30:43Z</time>
      </trkpt>
      <trkpt lat="47.8987" lon="6.97127">
        <ele>497.8</ele>
        <time>2019-09-17T08:30:46Z</time>
      </trkpt>
      <trkpt lat="47.8987" lon="6.97122">
        <ele>498.5</ele>
        <time>2019-09-17T08:30:48Z</time>
      </trkpt>
      <trkpt lat="47.8987" lon="6.97118">
        <ele>499.1</ele>
        <time>2019-09-17T08:30:50Z</time>
      </trkpt>
      <trkpt lat="47.8987" lon="6.97112">
        <ele>499.7</ele>
        <time>2019-09-17T08:30:53Z</time>
      </trkpt>
      <trkpt lat="47.8987" lon="6.97108">
        <ele>500.2</ele>
        <time>2019-09-17T08:30:55Z</time>
      </trkpt>
      <trkpt lat="47.8987" lon="6.97104">
        <ele>500.6</ele>
        <time>2019-09-17T08:30:58Z</time>
      </trkpt>
      <trkpt lat="47.89871" lon="6.97099">
        <ele>500.8</ele>
        <time>2019-09-17T08:31:01Z</time>
      </trkpt>
      <trkpt lat="47.8987" lon="6.97093">
        <ele>501.1</ele>
        <time>2019-09-17T08:31:05Z</time>
      </trkpt>
      <trkpt lat="47.89869" lon="6.97088">
        <ele>501.4</ele>
        <time>2019-09-17T08:31:08Z</time>
      </trkpt>
      <trkpt lat="47.89868" lon="6.97084">
        <ele>501.7</ele>
        <time>2019-09-17T08:31:11Z</time>
      </trkpt>
      <trkpt lat="47.89867" lon="6.9708">
        <ele>501.9</ele>
        <time>2019-09-17T08:31:13Z</time>
      </trkpt>
      <trkpt lat="47.89866" lon="6.97075">
        <ele>502</ele>
        <time>2019-09-17T08:31:16Z</time>
      </trkpt>
      <trkpt lat="47.89865" lon="6.9707">
        <ele>502.1</ele>
        <time>2019-09-17T08:31:19Z</time>
      </trkpt>
      <trkpt lat="47.89864" lon="6.97066">
        <ele>502.3</ele>
        <time>2019-09-17T08:31:22Z</time>
      </trkpt>
      <trkpt lat="47.89861" lon="6.97062">
        <ele>502.4</ele>
        <time>2019-09-17T08:31:25Z</time>
      </trkpt>
      <trkpt lat="47.89859" lon="6.97058">
        <ele>502.4</ele>
        <time>2019-09-17T08:31:28Z</time>
      </trkpt>
      <trkpt lat="47.89857" lon="6.97055">
        <ele>502.5</ele>
        <time>2019-09-17T08:31:31Z</time>
      </trkpt>
      <trkpt lat="47.89855" lon="6.97051">
        <ele>502.6</ele>
        <time>2019-09-17T08:31:34Z</time>
      </trkpt>
      <trkpt lat="47.89853" lon="6.97047">
        <ele>502.8</ele>
        <time>2019-09-17T08:31:37Z</time>
      </trkpt>
      <trkpt lat="47.89852" lon="6.97042">
        <ele>502.9</ele>
        <time>2019-09-17T08:31:40Z</time>
      </trkpt>
      <trkpt lat="47.89852" lon="6.97037">
        <ele>502.8</ele>
        <time>2019-09-17T08:31:42Z</time>
      </trkpt>
      <trkpt lat="47.89852" lon="6.97032">
        <ele>502.6</ele>
        <time>2019-09-17T08:31:44Z</time>
      </trkpt>
      <trkpt lat="47.89851" lon="6.97029">
        <ele>502.9</ele>
        <time>2019-09-17T08:31:46Z</time>
      </trkpt>
      <trkpt lat="47.89851" lon="6.97024">
        <ele>503.4</ele>
        <time>2019-09-17T08:31:48Z</time>
      </trkpt>
      <trkpt lat="47.89852" lon="6.97019">
        <ele>503.8</ele>
        <time>2019-09-17T08:31:50Z</time>
      </trkpt>
      <trkpt lat="47.89853" lon="6.97015">
        <ele>504.3</ele>
        <time>2019-09-17T08:31:52Z</time>
      </trkpt>
      <trkpt lat="47.89855" lon="6.9701">
        <ele>504.8</ele>
        <time>2019-09-17T08:31:54Z</time>
      </trkpt>
      <trkpt lat="47.89857" lon="6.97005">
        <ele>505.3</ele>
        <time>2019-09-17T08:31:56Z</time>
      </trkpt>
      <trkpt lat="47.89859" lon="6.97">
        <ele>506.2</ele>
        <time>2019-09-17T08:31:58Z</time>
      </trkpt>
      <trkpt lat="47.89861" lon="6.96996">
        <ele>506.8</ele>
        <time>2019-09-17T08:32:00Z</time>
      </trkpt>
      <trkpt lat="47.89863" lon="6.9699">
        <ele>507.8</ele>
        <time>2019-09-17T08:32:03Z</time>
      </trkpt>
      <trkpt lat="47.89865" lon="6.96986">
        <ele>508.5</ele>
        <time>2019-09-17T08:32:05Z</time>
      </trkpt>
      <trkpt lat="47.89867" lon="6.96982">
        <ele>509.2</ele>
        <time>2019-09-17T08:32:07Z</time>
      </trkpt>
      <trkpt lat="47.89869" lon="6.96977">
        <ele>510.1</ele>
        <time>2019-09-17T08:32:10Z</time>
      </trkpt>
      <trkpt lat="47.89871" lon="6.96973">
        <ele>510.8</ele>
        <time>2019-09-17T08:32:12Z</time>
      </trkpt>
      <trkpt lat="47.89873" lon="6.9697">
        <ele>511.4</ele>
        <time>2019-09-17T08:32:14Z</time>
      </trkpt>
      <trkpt lat="47.89875" lon="6.96967">
        <ele>512</ele>
        <time>2019-09-17T08:32:16Z</time>
      </trkpt>
      <trkpt lat="47.89877" lon="6.96963">
        <ele>512.6</ele>
        <time>2019-09-17T08:32:19Z</time>
      </trkpt>
      <trkpt lat="47.8988" lon="6.9696">
        <ele>513</ele>
        <time>2019-09-17T08:32:22Z</time>
      </trkpt>
      <trkpt lat="47.89882" lon="6.96956">
        <ele>513.5</ele>
        <time>2019-09-17T08:32:25Z</time>
      </trkpt>
      <trkpt lat="47.89884" lon="6.96953">
        <ele>513.9</ele>
        <time>2019-09-17T08:32:28Z</time>
      </trkpt>
      <trkpt lat="47.89886" lon="6.96948">
        <ele>514.4</ele>
        <time>2019-09-17T08:32:31Z</time>
      </trkpt>
      <trkpt lat="47.89888" lon="6.96944">
        <ele>515</ele>
        <time>2019-09-17T08:32:34Z</time>
      </trkpt>
      <trkpt lat="47.8989" lon="6.96941">
        <ele>515.6</ele>
        <time>2019-09-17T08:32:37Z</time>
      </trkpt>
      <trkpt lat="47.89893" lon="6.96937">
        <ele>516.2</ele>
        <time>2019-09-17T08:32:40Z</time>
      </trkpt>
      <trkpt lat="47.89896" lon="6.96934">
        <ele>516.8</ele>
        <time>2019-09-17T08:32:43Z</time>
      </trkpt>
      <trkpt lat="47.89899" lon="6.96932">
        <ele>517.4</ele>
        <time>2019-09-17T08:32:46Z</time>
      </trkpt>
      <trkpt lat="47.89902" lon="6.96935">
        <ele>518</ele>
        <time>2019-09-17T08:32:49Z</time>
      </trkpt>
      <trkpt lat="47.89905" lon="6.96936">
        <ele>518.5</ele>
        <time>2019-09-17T08:32:53Z</time>
      </trkpt>
      <trkpt lat="47.8991" lon="6.9694">
        <ele>518.9</ele>
        <time>2019-09-17T08:33:14Z</time>
      </trkpt>
      <trkpt lat="47.89913" lon="6.96942">
        <ele>519.1</ele>
        <time>2019-09-17T08:33:17Z</time>
      </trkpt>
      <trkpt lat="47.89915" lon="6.96943">
        <ele>519.2</ele>
        <time>2019-09-17T08:33:19Z</time>
      </trkpt>
      <trkpt lat="47.89918" lon="6.96945">
        <ele>519.4</ele>
        <time>2019-09-17T08:33:21Z</time>
      </trkpt>
      <trkpt lat="47.89921" lon="6.96945">
        <ele>519.6</ele>
        <time>2019-09-17T08:33:23Z</time>
      </trkpt>
      <trkpt lat="47.89925" lon="6.96946">
        <ele>519.8</ele>
        <time>2019-09-17T08:33:28Z</time>
      </trkpt>
      <trkpt lat="47.89928" lon="6.96946">
        <ele>520</ele>
        <time>2019-09-17T08:33:32Z</time>
      </trkpt>
      <trkpt lat="47.89931" lon="6.96945">
        <ele>520.2</ele>
        <time>2019-09-17T08:33:34Z</time>
      </trkpt>
      <trkpt lat="47.89934" lon="6.96944">
        <ele>520.5</ele>
        <time>2019-09-17T08:33:36Z</time>
      </trkpt>
      <trkpt lat="47.89937" lon="6.96942">
        <ele>521</ele>
        <time>2019-09-17T08:33:39Z</time>
      </trkpt>
      <trkpt lat="47.8994" lon="6.96941">
        <ele>521.5</ele>
        <time>2019-09-17T08:33:41Z</time>
      </trkpt>
      <trkpt lat="47.89944" lon="6.9694">
        <ele>522</ele>
        <time>2019-09-17T08:33:43Z</time>
      </trkpt>
      <trkpt lat="47.89948" lon="6.9694">
        <ele>522.7</ele>
        <time>2019-09-17T08:33:45Z</time>
      </trkpt>
      <trkpt lat="47.89952" lon="6.96941">
        <ele>523.4</ele>
        <time>2019-09-17T08:33:47Z</time>
      </trkpt>
      <trkpt lat="47.89955" lon="6.96943">
        <ele>524.1</ele>
        <time>2019-09-17T08:33:49Z</time>
      </trkpt>
      <trkpt lat="47.89958" lon="6.96946">
        <ele>524.7</ele>
        <time>2019-09-17T08:33:52Z</time>
      </trkpt>
      <trkpt lat="47.8996" lon="6.96948">
        <ele>525.3</ele>
        <time>2019-09-17T08:33:53Z</time>
      </trkpt>
      <trkpt lat="47.89962" lon="6.96951">
        <ele>525.9</ele>
        <time>2019-09-17T08:33:54Z</time>
      </trkpt>
      <trkpt lat="47.89965" lon="6.96954">
        <ele>526.6</ele>
        <time>2019-09-17T08:33:56Z</time>
      </trkpt>
      <trkpt lat="47.89968" lon="6.96958">
        <ele>527.5</ele>
        <time>2019-09-17T08:33:59Z</time>
      </trkpt>
      <trkpt lat="47.8997" lon="6.96962">
        <ele>527.9</ele>
        <time>2019-09-17T08:34:01Z</time>
      </trkpt>
      <trkpt lat="47.89973" lon="6.96965">
        <ele>528.1</ele>
        <time>2019-09-17T08:34:03Z</time>
      </trkpt>
      <trkpt lat="47.89975" lon="6.96968">
        <ele>528.3</ele>
        <time>2019-09-17T08:34:05Z</time>
      </trkpt>
      <trkpt lat="47.89978" lon="6.96971">
        <ele>528.6</ele>
        <time>2019-09-17T08:34:08Z</time>
      </trkpt>
      <trkpt lat="47.8998" lon="6.96973">
        <ele>528.8</ele>
        <time>2019-09-17T08:34:10Z</time>
      </trkpt>
      <trkpt lat="47.89983" lon="6.96977">
        <ele>529.1</ele>
        <time>2019-09-17T08:34:12Z</time>
      </trkpt>
      <trkpt lat="47.89985" lon="6.9698">
        <ele>529.3</ele>
        <time>2019-09-17T08:34:14Z</time>
      </trkpt>
      <trkpt lat="47.89988" lon="6.96983">
        <ele>530.3</ele>
        <time>2019-09-17T08:34:17Z</time>
      </trkpt>
      <trkpt lat="47.89991" lon="6.96986">
        <ele>530.9</ele>
        <time>2019-09-17T08:34:19Z</time>
      </trkpt>
      <trkpt lat="47.89993" lon="6.96987">
        <ele>531.6</ele>
        <time>2019-09-17T08:34:21Z</time>
      </trkpt>
      <trkpt lat="47.89997" lon="6.96988">
        <ele>532.5</ele>
        <time>2019-09-17T08:34:24Z</time>
      </trkpt>
      <trkpt lat="47.90001" lon="6.96987">
        <ele>533.2</ele>
        <time>2019-09-17T08:34:28Z</time>
      </trkpt>
      <trkpt lat="47.90004" lon="6.96987">
        <ele>534</ele>
        <time>2019-09-17T08:34:31Z</time>
      </trkpt>
      <trkpt lat="47.90007" lon="6.96988">
        <ele>534.6</ele>
        <time>2019-09-17T08:34:35Z</time>
      </trkpt>
      <trkpt lat="47.9001" lon="6.96989">
        <ele>535.3</ele>
        <time>2019-09-17T08:34:37Z</time>
      </trkpt>
      <trkpt lat="47.90013" lon="6.9699">
        <ele>535.9</ele>
        <time>2019-09-17T08:34:40Z</time>
      </trkpt>
      <trkpt lat="47.90016" lon="6.96992">
        <ele>536.6</ele>
        <time>2019-09-17T08:34:43Z</time>
      </trkpt>
      <trkpt lat="47.90019" lon="6.96992">
        <ele>537.2</ele>
        <time>2019-09-17T08:34:45Z</time>
      </trkpt>
      <trkpt lat="47.90022" lon="6.96993">
        <ele>538</ele>
        <time>2019-09-17T08:34:48Z</time>
      </trkpt>
      <trkpt lat="47.90026" lon="6.96992">
        <ele>538.6</ele>
        <time>2019-09-17T08:34:51Z</time>
      </trkpt>
      <trkpt lat="47.9003" lon="6.96992">
        <ele>539.1</ele>
        <time>2019-09-17T08:34:54Z</time>
      </trkpt>
      <trkpt lat="47.90033" lon="6.96994">
        <ele>539.6</ele>
        <time>2019-09-17T08:34:57Z</time>
      </trkpt>
      <trkpt lat="47.90036" lon="6.96995">
        <ele>540.3</ele>
        <time>2019-09-17T08:34:59Z</time>
      </trkpt>
      <trkpt lat="47.9004" lon="6.96998">
        <ele>540.9</ele>
        <time>2019-09-17T08:35:02Z</time>
      </trkpt>
      <trkpt lat="47.90043" lon="6.97002">
        <ele>541.4</ele>
        <time>2019-09-17T08:35:05Z</time>
      </trkpt>
      <trkpt lat="47.90046" lon="6.97006">
        <ele>542.1</ele>
        <time>2019-09-17T08:35:07Z</time>
      </trkpt>
      <trkpt lat="47.90048" lon="6.97009">
        <ele>542.8</ele>
        <time>2019-09-17T08:35:09Z</time>
      </trkpt>
      <trkpt lat="47.90051" lon="6.97012">
        <ele>543.5</ele>
        <time>2019-09-17T08:35:12Z</time>
      </trkpt>
      <trkpt lat="47.90054" lon="6.97013">
        <ele>544.4</ele>
        <time>2019-09-17T08:35:16Z</time>
      </trkpt>
      <trkpt lat="47.90057" lon="6.97011">
        <ele>545.4</ele>
        <time>2019-09-17T08:35:19Z</time>
      </trkpt>
      <trkpt lat="47.9006" lon="6.97013">
        <ele>546.3</ele>
        <time>2019-09-17T08:35:23Z</time>
      </trkpt>
      <trkpt lat="47.90062" lon="6.97009">
        <ele>547.4</ele>
        <time>2019-09-17T08:35:34Z</time>
      </trkpt>
      <trkpt lat="47.90063" lon="6.97005">
        <ele>547.5</ele>
        <time>2019-09-17T08:35:38Z</time>
      </trkpt>
      <trkpt lat="47.90063" lon="6.97001">
        <ele>547.5</ele>
        <time>2019-09-17T08:35:42Z</time>
      </trkpt>
      <trkpt lat="47.90064" lon="6.96997">
        <ele>548.5</ele>
        <time>2019-09-17T08:35:45Z</time>
      </trkpt>
      <trkpt lat="47.90065" lon="6.96993">
        <ele>548.6</ele>
        <time>2019-09-17T08:35:48Z</time>
      </trkpt>
      <trkpt lat="47.90067" lon="6.9699">
        <ele>549.5</ele>
        <time>2019-09-17T08:35:50Z</time>
      </trkpt>
      <trkpt lat="47.90069" lon="6.96986">
        <ele>550.4</ele>
        <time>2019-09-17T08:35:52Z</time>
      </trkpt>
      <trkpt lat="47.90073" lon="6.96985">
        <ele>551.2</ele>
        <time>2019-09-17T08:35:55Z</time>
      </trkpt>
      <trkpt lat="47.90076" lon="6.96987">
        <ele>552</ele>
        <time>2019-09-17T08:35:58Z</time>
      </trkpt>
      <trkpt lat="47.90078" lon="6.9699">
        <ele>552</ele>
        <time>2019-09-17T08:36:01Z</time>
      </trkpt>
      <trkpt lat="47.9008" lon="6.96994">
        <ele>552.8</ele>
        <time>2019-09-17T08:36:04Z</time>
      </trkpt>
      <trkpt lat="47.90081" lon="6.96999">
        <ele>553.6</ele>
        <time>2019-09-17T08:36:07Z</time>
      </trkpt>
      <trkpt lat="47.90081" lon="6.97004">
        <ele>553.5</ele>
        <time>2019-09-17T08:36:10Z</time>
      </trkpt>
      <trkpt lat="47.90081" lon="6.97008">
        <ele>553.4</ele>
        <time>2019-09-17T08:36:12Z</time>
      </trkpt>
      <trkpt lat="47.90081" lon="6.97013">
        <ele>553.2</ele>
        <time>2019-09-17T08:36:14Z</time>
      </trkpt>
      <trkpt lat="47.90082" lon="6.9702">
        <ele>553</ele>
        <time>2019-09-17T08:36:16Z</time>
      </trkpt>
      <trkpt lat="47.90082" lon="6.97025">
        <ele>552.8</ele>
        <time>2019-09-17T08:36:18Z</time>
      </trkpt>
      <trkpt lat="47.90083" lon="6.9703">
        <ele>552.6</ele>
        <time>2019-09-17T08:36:20Z</time>
      </trkpt>
      <trkpt lat="47.90083" lon="6.97034">
        <ele>552.5</ele>
        <time>2019-09-17T08:36:22Z</time>
      </trkpt>
      <trkpt lat="47.90084" lon="6.97038">
        <ele>552.3</ele>
        <time>2019-09-17T08:36:25Z</time>
      </trkpt>
      <trkpt lat="47.90084" lon="6.97042">
        <ele>552.9</ele>
        <time>2019-09-17T08:36:27Z</time>
      </trkpt>
      <trkpt lat="47.90085" lon="6.97047">
        <ele>552.6</ele>
        <time>2019-09-17T08:36:29Z</time>
      </trkpt>
      <trkpt lat="47.90086" lon="6.97052">
        <ele>552.4</ele>
        <time>2019-09-17T08:36:32Z</time>
      </trkpt>
      <trkpt lat="47.90087" lon="6.97057">
        <ele>552.9</ele>
        <time>2019-09-17T08:36:35Z</time>
      </trkpt>
      <trkpt lat="47.90089" lon="6.9706">
        <ele>552.7</ele>
        <time>2019-09-17T08:36:39Z</time>
      </trkpt>
      <trkpt lat="47.90092" lon="6.97063">
        <ele>553.2</ele>
        <time>2019-09-17T08:36:43Z</time>
      </trkpt>
      <trkpt lat="47.90093" lon="6.97058">
        <ele>554.1</ele>
        <time>2019-09-17T08:36:48Z</time>
      </trkpt>
      <trkpt lat="47.90093" lon="6.97054">
        <ele>554.4</ele>
        <time>2019-09-17T08:36:55Z</time>
      </trkpt>
      <trkpt lat="47.90096" lon="6.97056">
        <ele>555.1</ele>
        <time>2019-09-17T08:37:06Z</time>
      </trkpt>
      <trkpt lat="47.90098" lon="6.97058">
        <ele>554.8</ele>
        <time>2019-09-17T08:37:09Z</time>
      </trkpt>
      <trkpt lat="47.90099" lon="6.97062">
        <ele>555.3</ele>
        <time>2019-09-17T08:37:12Z</time>
      </trkpt>
      <trkpt lat="47.90101" lon="6.97065">
        <ele>556</ele>
        <time>2019-09-17T08:37:15Z</time>
      </trkpt>
      <trkpt lat="47.90103" lon="6.97069">
        <ele>555.8</ele>
        <time>2019-09-17T08:37:19Z</time>
      </trkpt>
      <trkpt lat="47.90105" lon="6.97073">
        <ele>556.3</ele>
        <time>2019-09-17T08:37:23Z</time>
      </trkpt>
      <trkpt lat="47.90108" lon="6.97074">
        <ele>556.7</ele>
        <time>2019-09-17T08:37:28Z</time>
      </trkpt>
      <trkpt lat="47.90111" lon="6.97077">
        <ele>557.4</ele>
        <time>2019-09-17T08:37:32Z</time>
      </trkpt>
      <trkpt lat="47.90113" lon="6.97081">
        <ele>557.7</ele>
        <time>2019-09-17T08:37:49Z</time>
      </trkpt>
      <trkpt lat="47.90114" lon="6.97076">
        <ele>558.1</ele>
        <time>2019-09-17T08:38:01Z</time>
      </trkpt>
      <trkpt lat="47.90117" lon="6.97074">
        <ele>559.2</ele>
        <time>2019-09-17T08:38:07Z</time>
      </trkpt>
      <trkpt lat="47.9012" lon="6.97073">
        <ele>559.8</ele>
        <time>2019-09-17T08:38:10Z</time>
      </trkpt>
      <trkpt lat="47.90123" lon="6.97072">
        <ele>560.4</ele>
        <time>2019-09-17T08:38:13Z</time>
      </trkpt>
      <trkpt lat="47.90126" lon="6.97074">
        <ele>561</ele>
        <time>2019-09-17T08:38:16Z</time>
      </trkpt>
      <trkpt lat="47.90129" lon="6.97078">
        <ele>561</ele>
        <time>2019-09-17T08:38:18Z</time>
      </trkpt>
      <trkpt lat="47.90131" lon="6.97081">
        <ele>560.8</ele>
        <time>2019-09-17T08:38:20Z</time>
      </trkpt>
      <trkpt lat="47.90133" lon="6.97086">
        <ele>560.1</ele>
        <time>2019-09-17T08:38:22Z</time>
      </trkpt>
      <trkpt lat="47.90133" lon="6.97091">
        <ele>559.5</ele>
        <time>2019-09-17T08:38:24Z</time>
      </trkpt>
      <trkpt lat="47.90133" lon="6.97095">
        <ele>558.8</ele>
        <time>2019-09-17T08:38:28Z</time>
      </trkpt>
      <trkpt lat="47.90133" lon="6.97099">
        <ele>557.9</ele>
        <time>2019-09-17T08:38:52Z</time>
      </trkpt>
      <trkpt lat="47.90133" lon="6.97095">
        <ele>558.8</ele>
        <time>2019-09-17T08:39:03Z</time>
      </trkpt>
      <trkpt lat="47.90135" lon="6.9709">
        <ele>559.6</ele>
        <time>2019-09-17T08:39:06Z</time>
      </trkpt>
      <trkpt lat="47.90135" lon="6.97085">
        <ele>560.4</ele>
        <time>2019-09-17T08:39:08Z</time>
      </trkpt>
      <trkpt lat="47.90137" lon="6.9708">
        <ele>561.5</ele>
        <time>2019-09-17T08:39:11Z</time>
      </trkpt>
      <trkpt lat="47.90139" lon="6.97077">
        <ele>562.5</ele>
        <time>2019-09-17T08:39:14Z</time>
      </trkpt>
      <trkpt lat="47.9014" lon="6.97073">
        <ele>563.3</ele>
        <time>2019-09-17T08:39:21Z</time>
      </trkpt>
      <trkpt lat="47.90142" lon="6.97069">
        <ele>564.4</ele>
        <time>2019-09-17T08:39:26Z</time>
      </trkpt>
      <trkpt lat="47.90144" lon="6.97066">
        <ele>564.4</ele>
        <time>2019-09-17T08:39:30Z</time>
      </trkpt>
      <trkpt lat="47.90145" lon="6.97062">
        <ele>565.4</ele>
        <time>2019-09-17T08:39:32Z</time>
      </trkpt>
      <trkpt lat="47.90147" lon="6.97059">
        <ele>566.2</ele>
        <time>2019-09-17T08:39:35Z</time>
      </trkpt>
      <trkpt lat="47.90148" lon="6.97054">
        <ele>567.2</ele>
        <time>2019-09-17T08:39:38Z</time>
      </trkpt>
      <trkpt lat="47.9015" lon="6.97051">
        <ele>568.2</ele>
        <time>2019-09-17T08:39:40Z</time>
      </trkpt>
      <trkpt lat="47.90153" lon="6.97047">
        <ele>568.9</ele>
        <time>2019-09-17T08:39:42Z</time>
      </trkpt>
      <trkpt lat="47.90155" lon="6.97042">
        <ele>569.8</ele>
        <time>2019-09-17T08:39:44Z</time>
      </trkpt>
      <trkpt lat="47.90157" lon="6.97039">
        <ele>570.7</ele>
        <time>2019-09-17T08:39:46Z</time>
      </trkpt>
      <trkpt lat="47.9016" lon="6.97036">
        <ele>570.9</ele>
        <time>2019-09-17T08:39:49Z</time>
      </trkpt>
      <trkpt lat="47.90161" lon="6.97032">
        <ele>571.6</ele>
        <time>2019-09-17T08:39:53Z</time>
      </trkpt>
      <trkpt lat="47.90163" lon="6.97029">
        <ele>572.5</ele>
        <time>2019-09-17T08:39:57Z</time>
      </trkpt>
      <trkpt lat="47.90164" lon="6.97025">
        <ele>573.3</ele>
        <time>2019-09-17T08:40:02Z</time>
      </trkpt>
      <trkpt lat="47.90165" lon="6.97021">
        <ele>574.1</ele>
        <time>2019-09-17T08:40:07Z</time>
      </trkpt>
      <trkpt lat="47.90167" lon="6.97016">
        <ele>574.8</ele>
        <time>2019-09-17T08:40:10Z</time>
      </trkpt>
      <trkpt lat="47.9017" lon="6.97012">
        <ele>575.5</ele>
        <time>2019-09-17T08:40:13Z</time>
      </trkpt>
      <trkpt lat="47.90173" lon="6.97008">
        <ele>576.2</ele>
        <time>2019-09-17T08:40:16Z</time>
      </trkpt>
      <trkpt lat="47.90175" lon="6.97005">
        <ele>577</ele>
        <time>2019-09-17T08:40:18Z</time>
      </trkpt>
      <trkpt lat="47.90177" lon="6.97001">
        <ele>577.1</ele>
        <time>2019-09-17T08:40:20Z</time>
      </trkpt>
      <trkpt lat="47.9018" lon="6.96998">
        <ele>577.8</ele>
        <time>2019-09-17T08:40:22Z</time>
      </trkpt>
      <trkpt lat="47.90182" lon="6.96994">
        <ele>578.5</ele>
        <time>2019-09-17T08:40:24Z</time>
      </trkpt>
      <trkpt lat="47.90184" lon="6.96991">
        <ele>579</ele>
        <time>2019-09-17T08:40:27Z</time>
      </trkpt>
      <trkpt lat="47.90185" lon="6.96987">
        <ele>579.5</ele>
        <time>2019-09-17T08:40:31Z</time>
      </trkpt>
      <trkpt lat="47.90187" lon="6.96984">
        <ele>579.5</ele>
        <time>2019-09-17T08:40:34Z</time>
      </trkpt>
      <trkpt lat="47.90189" lon="6.9698">
        <ele>579.8</ele>
        <time>2019-09-17T08:40:37Z</time>
      </trkpt>
      <trkpt lat="47.90191" lon="6.96977">
        <ele>580.1</ele>
        <time>2019-09-17T08:40:39Z</time>
      </trkpt>
      <trkpt lat="47.90192" lon="6.96973">
        <ele>580.3</ele>
        <time>2019-09-17T08:40:41Z</time>
      </trkpt>
      <trkpt lat="47.90194" lon="6.96969">
        <ele>580.6</ele>
        <time>2019-09-17T08:40:43Z</time>
      </trkpt>
      <trkpt lat="47.90197" lon="6.96965">
        <ele>580.8</ele>
        <time>2019-09-17T08:40:45Z</time>
      </trkpt>
      <trkpt lat="47.90199" lon="6.96961">
        <ele>581.1</ele>
        <time>2019-09-17T08:40:47Z</time>
      </trkpt>
      <trkpt lat="47.90201" lon="6.96958">
        <ele>581.1</ele>
        <time>2019-09-17T08:40:50Z</time>
      </trkpt>
      <trkpt lat="47.90204" lon="6.96955">
        <ele>581.5</ele>
        <time>2019-09-17T08:40:53Z</time>
      </trkpt>
      <trkpt lat="47.90206" lon="6.96953">
        <ele>581.9</ele>
        <time>2019-09-17T08:40:56Z</time>
      </trkpt>
      <trkpt lat="47.90208" lon="6.96949">
        <ele>582.4</ele>
        <time>2019-09-17T08:41:00Z</time>
      </trkpt>
      <trkpt lat="47.9021" lon="6.96945">
        <ele>582.3</ele>
        <time>2019-09-17T08:41:04Z</time>
      </trkpt>
      <trkpt lat="47.90213" lon="6.96943">
        <ele>582.9</ele>
        <time>2019-09-17T08:41:07Z</time>
      </trkpt>
      <trkpt lat="47.90215" lon="6.96941">
        <ele>583.5</ele>
        <time>2019-09-17T08:41:11Z</time>
      </trkpt>
      <trkpt lat="47.90217" lon="6.96937">
        <ele>583.3</ele>
        <time>2019-09-17T08:41:14Z</time>
      </trkpt>
      <trkpt lat="47.90219" lon="6.96933">
        <ele>584</ele>
        <time>2019-09-17T08:41:18Z</time>
      </trkpt>
      <trkpt lat="47.90221" lon="6.9693">
        <ele>584.4</ele>
        <time>2019-09-17T08:41:21Z</time>
      </trkpt>
      <trkpt lat="47.90223" lon="6.96927">
        <ele>584.8</ele>
        <time>2019-09-17T08:41:24Z</time>
      </trkpt>
      <trkpt lat="47.90225" lon="6.96922">
        <ele>585.4</ele>
        <time>2019-09-17T08:41:27Z</time>
      </trkpt>
      <trkpt lat="47.90227" lon="6.96921">
        <ele>585.2</ele>
        <time>2019-09-17T08:41:30Z</time>
      </trkpt>
      <trkpt lat="47.9023" lon="6.96919">
        <ele>585.6</ele>
        <time>2019-09-17T08:41:33Z</time>
      </trkpt>
      <trkpt lat="47.90232" lon="6.96914">
        <ele>585.9</ele>
        <time>2019-09-17T08:41:39Z</time>
      </trkpt>
      <trkpt lat="47.90233" lon="6.9691">
        <ele>586.3</ele>
        <time>2019-09-17T08:41:44Z</time>
      </trkpt>
      <trkpt lat="47.90235" lon="6.96906">
        <ele>586.9</ele>
        <time>2019-09-17T08:41:48Z</time>
      </trkpt>
      <trkpt lat="47.90236" lon="6.96902">
        <ele>587.4</ele>
        <time>2019-09-17T08:41:51Z</time>
      </trkpt>
      <trkpt lat="47.90237" lon="6.96897">
        <ele>588.1</ele>
        <time>2019-09-17T08:41:54Z</time>
      </trkpt>
      <trkpt lat="47.90238" lon="6.96892">
        <ele>588.7</ele>
        <time>2019-09-17T08:41:57Z</time>
      </trkpt>
      <trkpt lat="47.90239" lon="6.96888">
        <ele>589.3</ele>
        <time>2019-09-17T08:42:00Z</time>
      </trkpt>
      <trkpt lat="47.90241" lon="6.96882">
        <ele>589.9</ele>
        <time>2019-09-17T08:42:03Z</time>
      </trkpt>
      <trkpt lat="47.90242" lon="6.96878">
        <ele>590.5</ele>
        <time>2019-09-17T08:42:05Z</time>
      </trkpt>
      <trkpt lat="47.90244" lon="6.96874">
        <ele>591.1</ele>
        <time>2019-09-17T08:42:08Z</time>
      </trkpt>
      <trkpt lat="47.90246" lon="6.96869">
        <ele>591.8</ele>
        <time>2019-09-17T08:42:12Z</time>
      </trkpt>
      <trkpt lat="47.90248" lon="6.96864">
        <ele>592.4</ele>
        <time>2019-09-17T08:42:15Z</time>
      </trkpt>
      <trkpt lat="47.9025" lon="6.9686">
        <ele>593.1</ele>
        <time>2019-09-17T08:42:17Z</time>
      </trkpt>
      <trkpt lat="47.90253" lon="6.96855">
        <ele>593.9</ele>
        <time>2019-09-17T08:42:19Z</time>
      </trkpt>
      <trkpt lat="47.90256" lon="6.96852">
        <ele>594.7</ele>
        <time>2019-09-17T08:42:21Z</time>
      </trkpt>
      <trkpt lat="47.90258" lon="6.96848">
        <ele>595.5</ele>
        <time>2019-09-17T08:42:23Z</time>
      </trkpt>
      <trkpt lat="47.9026" lon="6.96845">
        <ele>596.2</ele>
        <time>2019-09-17T08:42:25Z</time>
      </trkpt>
      <trkpt lat="47.90262" lon="6.96844">
        <ele>596.3</ele>
        <time>2019-09-17T08:42:27Z</time>
      </trkpt>
      <trkpt lat="47.90265" lon="6.9684">
        <ele>596.8</ele>
        <time>2019-09-17T08:42:30Z</time>
      </trkpt>
      <trkpt lat="47.90266" lon="6.96836">
        <ele>597.4</ele>
        <time>2019-09-17T08:42:34Z</time>
      </trkpt>
      <trkpt lat="47.90268" lon="6.96832">
        <ele>597.9</ele>
        <time>2019-09-17T08:42:37Z</time>
      </trkpt>
      <trkpt lat="47.90271" lon="6.96829">
        <ele>598.3</ele>
        <time>2019-09-17T08:42:40Z</time>
      </trkpt>
      <trkpt lat="47.90273" lon="6.96826">
        <ele>598.4</ele>
        <time>2019-09-17T08:42:43Z</time>
      </trkpt>
      <trkpt lat="47.90275" lon="6.96823">
        <ele>598.9</ele>
        <time>2019-09-17T08:42:46Z</time>
      </trkpt>
      <trkpt lat="47.90277" lon="6.9682">
        <ele>599.4</ele>
        <time>2019-09-17T08:42:50Z</time>
      </trkpt>
      <trkpt lat="47.9028" lon="6.96817">
        <ele>599.6</ele>
        <time>2019-09-17T08:42:53Z</time>
      </trkpt>
      <trkpt lat="47.90282" lon="6.96816">
        <ele>600.2</ele>
        <time>2019-09-17T08:42:55Z</time>
      </trkpt>
      <trkpt lat="47.90285" lon="6.96812">
        <ele>600.7</ele>
        <time>2019-09-17T08:42:57Z</time>
      </trkpt>
      <trkpt lat="47.90288" lon="6.96808">
        <ele>600.9</ele>
        <time>2019-09-17T08:42:59Z</time>
      </trkpt>
      <trkpt lat="47.9029" lon="6.96805">
        <ele>601.6</ele>
        <time>2019-09-17T08:43:02Z</time>
      </trkpt>
      <trkpt lat="47.90291" lon="6.96801">
        <ele>602.3</ele>
        <time>2019-09-17T08:43:05Z</time>
      </trkpt>
      <trkpt lat="47.90294" lon="6.96799">
        <ele>603</ele>
        <time>2019-09-17T08:43:10Z</time>
      </trkpt>
      <trkpt lat="47.90297" lon="6.96798">
        <ele>603.2</ele>
        <time>2019-09-17T08:43:13Z</time>
      </trkpt>
      <trkpt lat="47.903" lon="6.96796">
        <ele>603.3</ele>
        <time>2019-09-17T08:43:15Z</time>
      </trkpt>
      <trkpt lat="47.90304" lon="6.96795">
        <ele>603.9</ele>
        <time>2019-09-17T08:43:17Z</time>
      </trkpt>
      <trkpt lat="47.90306" lon="6.96793">
        <ele>604</ele>
        <time>2019-09-17T08:43:19Z</time>
      </trkpt>
      <trkpt lat="47.90309" lon="6.96791">
        <ele>604.6</ele>
        <time>2019-09-17T08:43:21Z</time>
      </trkpt>
      <trkpt lat="47.90312" lon="6.96788">
        <ele>604.8</ele>
        <time>2019-09-17T08:43:22Z</time>
      </trkpt>
      <trkpt lat="47.90315" lon="6.96784">
        <ele>605.4</ele>
        <time>2019-09-17T08:43:24Z</time>
      </trkpt>
      <trkpt lat="47.90318" lon="6.9678">
        <ele>606.1</ele>
        <time>2019-09-17T08:43:30Z</time>
      </trkpt>
      <trkpt lat="47.9032" lon="6.96778">
        <ele>606.8</ele>
        <time>2019-09-17T08:43:33Z</time>
      </trkpt>
      <trkpt lat="47.90322" lon="6.96775">
        <ele>606.8</ele>
        <time>2019-09-17T08:43:35Z</time>
      </trkpt>
      <trkpt lat="47.90324" lon="6.96772">
        <ele>607.6</ele>
        <time>2019-09-17T08:43:37Z</time>
      </trkpt>
      <trkpt lat="47.90326" lon="6.96767">
        <ele>608.4</ele>
        <time>2019-09-17T08:43:39Z</time>
      </trkpt>
      <trkpt lat="47.90329" lon="6.96762">
        <ele>609.3</ele>
        <time>2019-09-17T08:43:41Z</time>
      </trkpt>
      <trkpt lat="47.9033" lon="6.96757">
        <ele>609.8</ele>
        <time>2019-09-17T08:43:44Z</time>
      </trkpt>
      <trkpt lat="47.90332" lon="6.96753">
        <ele>610.6</ele>
        <time>2019-09-17T08:43:46Z</time>
      </trkpt>
      <trkpt lat="47.90332" lon="6.96749">
        <ele>611.1</ele>
        <time>2019-09-17T08:43:48Z</time>
      </trkpt>
      <trkpt lat="47.90329" lon="6.96748">
        <ele>611.3</ele>
        <time>2019-09-17T08:43:57Z</time>
      </trkpt>
      <trkpt lat="47.90326" lon="6.96746">
        <ele>611</ele>
        <time>2019-09-17T08:44:00Z</time>
      </trkpt>
      <trkpt lat="47.90323" lon="6.9674">
        <ele>611.2</ele>
        <time>2019-09-17T08:44:03Z</time>
      </trkpt>
      <trkpt lat="47.9032" lon="6.96735">
        <ele>611.9</ele>
        <time>2019-09-17T08:44:05Z</time>
      </trkpt>
      <trkpt lat="47.90319" lon="6.9673">
        <ele>612.4</ele>
        <time>2019-09-17T08:44:07Z</time>
      </trkpt>
      <trkpt lat="47.90318" lon="6.96725">
        <ele>612.9</ele>
        <time>2019-09-17T08:44:09Z</time>
      </trkpt>
      <trkpt lat="47.90318" lon="6.9672">
        <ele>613.5</ele>
        <time>2019-09-17T08:44:11Z</time>
      </trkpt>
      <trkpt lat="47.90319" lon="6.96715">
        <ele>614.2</ele>
        <time>2019-09-17T08:44:13Z</time>
      </trkpt>
      <trkpt lat="47.90322" lon="6.96714">
        <ele>614.8</ele>
        <time>2019-09-17T08:44:16Z</time>
      </trkpt>
      <trkpt lat="47.90324" lon="6.9671">
        <ele>615.6</ele>
        <time>2019-09-17T08:44:20Z</time>
      </trkpt>
      <trkpt lat="47.90326" lon="6.96705">
        <ele>616.7</ele>
        <time>2019-09-17T08:44:23Z</time>
      </trkpt>
      <trkpt lat="47.9033" lon="6.96701">
        <ele>617.8</ele>
        <time>2019-09-17T08:44:24Z</time>
      </trkpt>
      <trkpt lat="47.90334" lon="6.96697">
        <ele>618.8</ele>
        <time>2019-09-17T08:44:25Z</time>
      </trkpt>
      <trkpt lat="47.90337" lon="6.96693">
        <ele>619.5</ele>
        <time>2019-09-17T08:44:26Z</time>
      </trkpt>
      <trkpt lat="47.9034" lon="6.9669">
        <ele>620</ele>
        <time>2019-09-17T08:44:27Z</time>
      </trkpt>
      <trkpt lat="47.90342" lon="6.96688">
        <ele>620.4</ele>
        <time>2019-09-17T08:44:28Z</time>
      </trkpt>
      <trkpt lat="47.90346" lon="6.96685">
        <ele>621</ele>
        <time>2019-09-17T08:44:30Z</time>
      </trkpt>
      <trkpt lat="47.90349" lon="6.96683">
        <ele>621.4</ele>
        <time>2019-09-17T08:44:32Z</time>
      </trkpt>
      <trkpt lat="47.90352" lon="6.96682">
        <ele>622</ele>
        <time>2019-09-17T08:44:35Z</time>
      </trkpt>
      <trkpt lat="47.90355" lon="6.96681">
        <ele>622.5</ele>
        <time>2019-09-17T08:44:37Z</time>
      </trkpt>
      <trkpt lat="47.90358" lon="6.9668">
        <ele>623.1</ele>
        <time>2019-09-17T08:44:39Z</time>
      </trkpt>
      <trkpt lat="47.90362" lon="6.96679">
        <ele>624.3</ele>
        <time>2019-09-17T08:44:42Z</time>
      </trkpt>
      <trkpt lat="47.90366" lon="6.96678">
        <ele>624.7</ele>
        <time>2019-09-17T08:44:44Z</time>
      </trkpt>
      <trkpt lat="47.90369" lon="6.96677">
        <ele>625.1</ele>
        <time>2019-09-17T08:44:47Z</time>
      </trkpt>
      <trkpt lat="47.90372" lon="6.96675">
        <ele>625.4</ele>
        <time>2019-09-17T08:44:50Z</time>
      </trkpt>
      <trkpt lat="47.90375" lon="6.96674">
        <ele>625.5</ele>
        <time>2019-09-17T08:44:53Z</time>
      </trkpt>
      <trkpt lat="47.90378" lon="6.96673">
        <ele>625.6</ele>
        <time>2019-09-17T08:44:56Z</time>
      </trkpt>
      <trkpt lat="47.90381" lon="6.96673">
        <ele>625.7</ele>
        <time>2019-09-17T08:44:59Z</time>
      </trkpt>
      <trkpt lat="47.90384" lon="6.96674">
        <ele>626</ele>
        <time>2019-09-17T08:45:03Z</time>
      </trkpt>
      <trkpt lat="47.90387" lon="6.96674">
        <ele>626.3</ele>
        <time>2019-09-17T08:45:06Z</time>
      </trkpt>
      <trkpt lat="47.9039" lon="6.96674">
        <ele>626.5</ele>
        <time>2019-09-17T08:45:10Z</time>
      </trkpt>
      <trkpt lat="47.90393" lon="6.96672">
        <ele>626.6</ele>
        <time>2019-09-17T08:45:13Z</time>
      </trkpt>
      <trkpt lat="47.90397" lon="6.96672">
        <ele>626.7</ele>
        <time>2019-09-17T08:45:16Z</time>
      </trkpt>
      <trkpt lat="47.904" lon="6.96673">
        <ele>626.7</ele>
        <time>2019-09-17T08:45:19Z</time>
      </trkpt>
      <trkpt lat="47.90403" lon="6.96673">
        <ele>626.8</ele>
        <time>2019-09-17T08:45:22Z</time>
      </trkpt>
      <trkpt lat="47.90407" lon="6.96672">
        <ele>626.9</ele>
        <time>2019-09-17T08:45:24Z</time>
      </trkpt>
      <trkpt lat="47.9041" lon="6.9667">
        <ele>627.1</ele>
        <time>2019-09-17T08:45:26Z</time>
      </trkpt>
      <trkpt lat="47.90413" lon="6.96668">
        <ele>627.4</ele>
        <time>2019-09-17T08:45:28Z</time>
      </trkpt>
      <trkpt lat="47.90416" lon="6.96666">
        <ele>627.7</ele>
        <time>2019-09-17T08:45:30Z</time>
      </trkpt>
      <trkpt lat="47.90418" lon="6.96662">
        <ele>627.8</ele>
        <time>2019-09-17T08:45:32Z</time>
      </trkpt>
      <trkpt lat="47.90421" lon="6.96658">
        <ele>627.8</ele>
        <time>2019-09-17T08:45:34Z</time>
      </trkpt>
      <trkpt lat="47.90425" lon="6.96657">
        <ele>627.9</ele>
        <time>2019-09-17T08:45:38Z</time>
      </trkpt>
      <trkpt lat="47.90428" lon="6.96655">
        <ele>628.1</ele>
        <time>2019-09-17T08:45:41Z</time>
      </trkpt>
      <trkpt lat="47.90431" lon="6.96654">
        <ele>628.3</ele>
        <time>2019-09-17T08:45:44Z</time>
      </trkpt>
      <trkpt lat="47.90435" lon="6.96652">
        <ele>628.3</ele>
        <time>2019-09-17T08:45:48Z</time>
      </trkpt>
      <trkpt lat="47.90438" lon="6.96651">
        <ele>628.3</ele>
        <time>2019-09-17T08:45:50Z</time>
      </trkpt>
      <trkpt lat="47.9044" lon="6.9665">
        <ele>628.3</ele>
        <time>2019-09-17T08:45:52Z</time>
      </trkpt>
      <trkpt lat="47.90444" lon="6.9665">
        <ele>628.3</ele>
        <time>2019-09-17T08:45:55Z</time>
      </trkpt>
      <trkpt lat="47.90448" lon="6.9665">
        <ele>628.3</ele>
        <time>2019-09-17T08:45:58Z</time>
      </trkpt>
      <trkpt lat="47.90452" lon="6.96651">
        <ele>628.3</ele>
        <time>2019-09-17T08:46:00Z</time>
      </trkpt>
      <trkpt lat="47.90456" lon="6.96653">
        <ele>628.1</ele>
        <time>2019-09-17T08:46:02Z</time>
      </trkpt>
      <trkpt lat="47.9046" lon="6.96654">
        <ele>628</ele>
        <time>2019-09-17T08:46:04Z</time>
      </trkpt>
      <trkpt lat="47.90463" lon="6.96655">
        <ele>627.7</ele>
        <time>2019-09-17T08:46:06Z</time>
      </trkpt>
      <trkpt lat="47.90467" lon="6.96654">
        <ele>627.5</ele>
        <time>2019-09-17T08:46:08Z</time>
      </trkpt>
      <trkpt lat="47.90469" lon="6.96653">
        <ele>627.4</ele>
        <time>2019-09-17T08:46:10Z</time>
      </trkpt>
      <trkpt lat="47.90472" lon="6.96651">
        <ele>627.3</ele>
        <time>2019-09-17T08:46:12Z</time>
      </trkpt>
      <trkpt lat="47.90475" lon="6.9665">
        <ele>627.2</ele>
        <time>2019-09-17T08:46:17Z</time>
      </trkpt>
      <trkpt lat="47.90477" lon="6.96647">
        <ele>627</ele>
        <time>2019-09-17T08:46:22Z</time>
      </trkpt>
      <trkpt lat="47.90478" lon="6.96642">
        <ele>626.8</ele>
        <time>2019-09-17T08:46:25Z</time>
      </trkpt>
      <trkpt lat="47.9048" lon="6.96638">
        <ele>626.8</ele>
        <time>2019-09-17T08:46:28Z</time>
      </trkpt>
      <trkpt lat="47.90482" lon="6.96635">
        <ele>627</ele>
        <time>2019-09-17T08:46:32Z</time>
      </trkpt>
      <trkpt lat="47.90484" lon="6.96631">
        <ele>627.1</ele>
        <time>2019-09-17T08:46:37Z</time>
      </trkpt>
      <trkpt lat="47.90486" lon="6.96628">
        <ele>627.5</ele>
        <time>2019-09-17T08:46:40Z</time>
      </trkpt>
      <trkpt lat="47.90488" lon="6.96625">
        <ele>627.9</ele>
        <time>2019-09-17T08:46:42Z</time>
      </trkpt>
      <trkpt lat="47.9049" lon="6.96621">
        <ele>628.4</ele>
        <time>2019-09-17T08:46:45Z</time>
      </trkpt>
      <trkpt lat="47.90491" lon="6.96617">
        <ele>628.5</ele>
        <time>2019-09-17T08:46:48Z</time>
      </trkpt>
      <trkpt lat="47.90493" lon="6.96613">
        <ele>628.7</ele>
        <time>2019-09-17T08:46:51Z</time>
      </trkpt>
      <trkpt lat="47.90494" lon="6.96607">
        <ele>629.2</ele>
        <time>2019-09-17T08:46:54Z</time>
      </trkpt>
      <trkpt lat="47.90495" lon="6.96603">
        <ele>629.8</ele>
        <time>2019-09-17T08:46:56Z</time>
      </trkpt>
      <trkpt lat="47.90496" lon="6.96598">
        <ele>630.6</ele>
        <time>2019-09-17T08:46:59Z</time>
      </trkpt>
      <trkpt lat="47.90498" lon="6.96593">
        <ele>631.2</ele>
        <time>2019-09-17T08:47:02Z</time>
      </trkpt>
      <trkpt lat="47.90499" lon="6.96588">
        <ele>631.7</ele>
        <time>2019-09-17T08:47:05Z</time>
      </trkpt>
      <trkpt lat="47.905" lon="6.96584">
        <ele>632.3</ele>
        <time>2019-09-17T08:47:09Z</time>
      </trkpt>
      <trkpt lat="47.90502" lon="6.96581">
        <ele>633.3</ele>
        <time>2019-09-17T08:47:15Z</time>
      </trkpt>
      <trkpt lat="47.90504" lon="6.96577">
        <ele>634.3</ele>
        <time>2019-09-17T08:47:20Z</time>
      </trkpt>
      <trkpt lat="47.90507" lon="6.96574">
        <ele>635</ele>
        <time>2019-09-17T08:47:23Z</time>
      </trkpt>
      <trkpt lat="47.90509" lon="6.9657">
        <ele>635.6</ele>
        <time>2019-09-17T08:47:26Z</time>
      </trkpt>
      <trkpt lat="47.90512" lon="6.96566">
        <ele>636.4</ele>
        <time>2019-09-17T08:47:29Z</time>
      </trkpt>
      <trkpt lat="47.90515" lon="6.9656">
        <ele>637.6</ele>
        <time>2019-09-17T08:47:31Z</time>
      </trkpt>
      <trkpt lat="47.90517" lon="6.96556">
        <ele>638.3</ele>
        <time>2019-09-17T08:47:32Z</time>
      </trkpt>
      <trkpt lat="47.90518" lon="6.96553">
        <ele>638.7</ele>
        <time>2019-09-17T08:47:33Z</time>
      </trkpt>
      <trkpt lat="47.90521" lon="6.96547">
        <ele>639.3</ele>
        <time>2019-09-17T08:47:35Z</time>
      </trkpt>
      <trkpt lat="47.90524" lon="6.96542">
        <ele>639.8</ele>
        <time>2019-09-17T08:47:37Z</time>
      </trkpt>
      <trkpt lat="47.90526" lon="6.96538">
        <ele>640.2</ele>
        <time>2019-09-17T08:47:39Z</time>
      </trkpt>
      <trkpt lat="47.90528" lon="6.96534">
        <ele>640.6</ele>
        <time>2019-09-17T08:47:42Z</time>
      </trkpt>
      <trkpt lat="47.90531" lon="6.96531">
        <ele>641.7</ele>
        <time>2019-09-17T08:47:45Z</time>
      </trkpt>
      <trkpt lat="47.90533" lon="6.96528">
        <ele>642.7</ele>
        <time>2019-09-17T08:47:48Z</time>
      </trkpt>
      <trkpt lat="47.90534" lon="6.96524">
        <ele>643.7</ele>
        <time>2019-09-17T08:47:52Z</time>
      </trkpt>
      <trkpt lat="47.90534" lon="6.9652">
        <ele>644.2</ele>
        <time>2019-09-17T08:47:56Z</time>
      </trkpt>
      <trkpt lat="47.90536" lon="6.96516">
        <ele>644.6</ele>
        <time>2019-09-17T08:48:00Z</time>
      </trkpt>
      <trkpt lat="47.90537" lon="6.96512">
        <ele>645</ele>
        <time>2019-09-17T08:48:03Z</time>
      </trkpt>
      <trkpt lat="47.90539" lon="6.96508">
        <ele>645.7</ele>
        <time>2019-09-17T08:48:06Z</time>
      </trkpt>
      <trkpt lat="47.9054" lon="6.96504">
        <ele>646.5</ele>
        <time>2019-09-17T08:48:09Z</time>
      </trkpt>
      <trkpt lat="47.90542" lon="6.96501">
        <ele>647.3</ele>
        <time>2019-09-17T08:48:12Z</time>
      </trkpt>
      <trkpt lat="47.90544" lon="6.96497">
        <ele>647.9</ele>
        <time>2019-09-17T08:48:16Z</time>
      </trkpt>
      <trkpt lat="47.90546" lon="6.96494">
        <ele>648.3</ele>
        <time>2019-09-17T08:48:20Z</time>
      </trkpt>
      <trkpt lat="47.90548" lon="6.9649">
        <ele>648.7</ele>
        <time>2019-09-17T08:48:24Z</time>
      </trkpt>
      <trkpt lat="47.9055" lon="6.96486">
        <ele>649.1</ele>
        <time>2019-09-17T08:48:29Z</time>
      </trkpt>
      <trkpt lat="47.90551" lon="6.96483">
        <ele>649.4</ele>
        <time>2019-09-17T08:48:32Z</time>
      </trkpt>
      <trkpt lat="47.90553" lon="6.96478">
        <ele>649.8</ele>
        <time>2019-09-17T08:48:35Z</time>
      </trkpt>
      <trkpt lat="47.90553" lon="6.96473">
        <ele>650.4</ele>
        <time>2019-09-17T08:48:39Z</time>
      </trkpt>
      <trkpt lat="47.90555" lon="6.96471">
        <ele>651.2</ele>
        <time>2019-09-17T08:48:42Z</time>
      </trkpt>
      <trkpt lat="47.90558" lon="6.96469">
        <ele>652</ele>
        <time>2019-09-17T08:48:44Z</time>
      </trkpt>
      <trkpt lat="47.9056" lon="6.96465">
        <ele>652.6</ele>
        <time>2019-09-17T08:48:46Z</time>
      </trkpt>
      <trkpt lat="47.90562" lon="6.96462">
        <ele>653</ele>
        <time>2019-09-17T08:48:48Z</time>
      </trkpt>
      <trkpt lat="47.90564" lon="6.96459">
        <ele>653.5</ele>
        <time>2019-09-17T08:48:52Z</time>
      </trkpt>
      <trkpt lat="47.90566" lon="6.96455">
        <ele>654.2</ele>
        <time>2019-09-17T08:48:56Z</time>
      </trkpt>
      <trkpt lat="47.90568" lon="6.9645">
        <ele>655.5</ele>
        <time>2019-09-17T08:49:01Z</time>
      </trkpt>
      <trkpt lat="47.90569" lon="6.96445">
        <ele>656.7</ele>
        <time>2019-09-17T08:49:04Z</time>
      </trkpt>
      <trkpt lat="47.9057" lon="6.96441">
        <ele>657.5</ele>
        <time>2019-09-17T08:49:08Z</time>
      </trkpt>
      <trkpt lat="47.90572" lon="6.96437">
        <ele>658.1</ele>
        <time>2019-09-17T08:49:11Z</time>
      </trkpt>
      <trkpt lat="47.90574" lon="6.96434">
        <ele>658.7</ele>
        <time>2019-09-17T08:49:15Z</time>
      </trkpt>
      <trkpt lat="47.90576" lon="6.96431">
        <ele>659.2</ele>
        <time>2019-09-17T08:49:17Z</time>
      </trkpt>
      <trkpt lat="47.90579" lon="6.96427">
        <ele>659.7</ele>
        <time>2019-09-17T08:49:19Z</time>
      </trkpt>
      <trkpt lat="47.9058" lon="6.96423">
        <ele>660.2</ele>
        <time>2019-09-17T08:49:22Z</time>
      </trkpt>
      <trkpt lat="47.90583" lon="6.9642">
        <ele>661.1</ele>
        <time>2019-09-17T08:49:26Z</time>
      </trkpt>
      <trkpt lat="47.90585" lon="6.96415">
        <ele>662.1</ele>
        <time>2019-09-17T08:49:30Z</time>
      </trkpt>
      <trkpt lat="47.90587" lon="6.96411">
        <ele>663</ele>
        <time>2019-09-17T08:49:33Z</time>
      </trkpt>
      <trkpt lat="47.90589" lon="6.96408">
        <ele>663.7</ele>
        <time>2019-09-17T08:49:35Z</time>
      </trkpt>
      <trkpt lat="47.90592" lon="6.96405">
        <ele>664.5</ele>
        <time>2019-09-17T08:49:37Z</time>
      </trkpt>
      <trkpt lat="47.90594" lon="6.96401">
        <ele>665.7</ele>
        <time>2019-09-17T08:49:39Z</time>
      </trkpt>
      <trkpt lat="47.90597" lon="6.96396">
        <ele>667.2</ele>
        <time>2019-09-17T08:49:41Z</time>
      </trkpt>
      <trkpt lat="47.90599" lon="6.96392">
        <ele>668.3</ele>
        <time>2019-09-17T08:49:43Z</time>
      </trkpt>
      <trkpt lat="47.906" lon="6.96388">
        <ele>669.4</ele>
        <time>2019-09-17T08:49:46Z</time>
      </trkpt>
      <trkpt lat="47.90601" lon="6.96383">
        <ele>670.5</ele>
        <time>2019-09-17T08:49:50Z</time>
      </trkpt>
      <trkpt lat="47.90602" lon="6.96379">
        <ele>670.7</ele>
        <time>2019-09-17T08:49:54Z</time>
      </trkpt>
      <trkpt lat="47.90603" lon="6.96375">
        <ele>670.9</ele>
        <time>2019-09-17T08:49:57Z</time>
      </trkpt>
      <trkpt lat="47.90605" lon="6.9637">
        <ele>671.4</ele>
        <time>2019-09-17T08:50:00Z</time>
      </trkpt>
      <trkpt lat="47.90607" lon="6.96366">
        <ele>672.3</ele>
        <time>2019-09-17T08:50:02Z</time>
      </trkpt>
      <trkpt lat="47.9061" lon="6.96363">
        <ele>673.3</ele>
        <time>2019-09-17T08:50:05Z</time>
      </trkpt>
      <trkpt lat="47.90612" lon="6.96359">
        <ele>673.9</ele>
        <time>2019-09-17T08:50:08Z</time>
      </trkpt>
      <trkpt lat="47.90614" lon="6.96355">
        <ele>674.3</ele>
        <time>2019-09-17T08:50:10Z</time>
      </trkpt>
      <trkpt lat="47.90615" lon="6.96351">
        <ele>674.7</ele>
        <time>2019-09-17T08:50:13Z</time>
      </trkpt>
      <trkpt lat="47.90617" lon="6.96347">
        <ele>675.5</ele>
        <time>2019-09-17T08:50:16Z</time>
      </trkpt>
      <trkpt lat="47.90618" lon="6.96343">
        <ele>676.2</ele>
        <time>2019-09-17T08:50:20Z</time>
      </trkpt>
      <trkpt lat="47.90621" lon="6.96341">
        <ele>677</ele>
        <time>2019-09-17T08:50:23Z</time>
      </trkpt>
      <trkpt lat="47.90624" lon="6.96338">
        <ele>677.8</ele>
        <time>2019-09-17T08:50:27Z</time>
      </trkpt>
      <trkpt lat="47.90626" lon="6.96335">
        <ele>678.7</ele>
        <time>2019-09-17T08:50:31Z</time>
      </trkpt>
      <trkpt lat="47.90628" lon="6.96331">
        <ele>678.9</ele>
        <time>2019-09-17T08:50:35Z</time>
      </trkpt>
      <trkpt lat="47.9063" lon="6.96327">
        <ele>678.8</ele>
        <time>2019-09-17T08:50:39Z</time>
      </trkpt>
      <trkpt lat="47.90633" lon="6.96325">
        <ele>678.9</ele>
        <time>2019-09-17T08:50:43Z</time>
      </trkpt>
      <trkpt lat="47.90635" lon="6.96321">
        <ele>679.1</ele>
        <time>2019-09-17T08:50:47Z</time>
      </trkpt>
      <trkpt lat="47.90638" lon="6.96317">
        <ele>679.3</ele>
        <time>2019-09-17T08:50:50Z</time>
      </trkpt>
      <trkpt lat="47.9064" lon="6.96314">
        <ele>679.4</ele>
        <time>2019-09-17T08:50:53Z</time>
      </trkpt>
      <trkpt lat="47.90642" lon="6.96312">
        <ele>679.4</ele>
        <time>2019-09-17T08:50:56Z</time>
      </trkpt>
      <trkpt lat="47.90645" lon="6.96308">
        <ele>679.7</ele>
        <time>2019-09-17T08:51:00Z</time>
      </trkpt>
      <trkpt lat="47.90647" lon="6.96304">
        <ele>680.2</ele>
        <time>2019-09-17T08:51:04Z</time>
      </trkpt>
      <trkpt lat="47.90649" lon="6.96301">
        <ele>680.6</ele>
        <time>2019-09-17T08:51:08Z</time>
      </trkpt>
      <trkpt lat="47.90651" lon="6.96298">
        <ele>680.6</ele>
        <time>2019-09-17T08:51:12Z</time>
      </trkpt>
      <trkpt lat="47.90653" lon="6.96294">
        <ele>680.7</ele>
        <time>2019-09-17T08:51:17Z</time>
      </trkpt>
      <trkpt lat="47.90655" lon="6.9629">
        <ele>681.2</ele>
        <time>2019-09-17T08:51:22Z</time>
      </trkpt>
      <trkpt lat="47.90657" lon="6.96286">
        <ele>682.1</ele>
        <time>2019-09-17T08:51:26Z</time>
      </trkpt>
      <trkpt lat="47.90658" lon="6.96282">
        <ele>682.9</ele>
        <time>2019-09-17T08:51:30Z</time>
      </trkpt>
      <trkpt lat="47.9066" lon="6.96279">
        <ele>683.6</ele>
        <time>2019-09-17T08:51:33Z</time>
      </trkpt>
      <trkpt lat="47.90663" lon="6.96276">
        <ele>684.2</ele>
        <time>2019-09-17T08:51:36Z</time>
      </trkpt>
      <trkpt lat="47.90664" lon="6.96273">
        <ele>684.8</ele>
        <time>2019-09-17T08:51:39Z</time>
      </trkpt>
      <trkpt lat="47.90666" lon="6.96269">
        <ele>685.5</ele>
        <time>2019-09-17T08:51:42Z</time>
      </trkpt>
      <trkpt lat="47.90668" lon="6.96266">
        <ele>686.1</ele>
        <time>2019-09-17T08:51:45Z</time>
      </trkpt>
      <trkpt lat="47.90671" lon="6.96263">
        <ele>686.9</ele>
        <time>2019-09-17T08:51:48Z</time>
      </trkpt>
      <trkpt lat="47.90672" lon="6.96259">
        <ele>687.6</ele>
        <time>2019-09-17T08:51:51Z</time>
      </trkpt>
      <trkpt lat="47.90673" lon="6.96254">
        <ele>688.4</ele>
        <time>2019-09-17T08:51:54Z</time>
      </trkpt>
      <trkpt lat="47.90675" lon="6.9625">
        <ele>689.1</ele>
        <time>2019-09-17T08:51:57Z</time>
      </trkpt>
      <trkpt lat="47.90677" lon="6.96248">
        <ele>690.1</ele>
        <time>2019-09-17T08:52:02Z</time>
      </trkpt>
      <trkpt lat="47.90679" lon="6.96245">
        <ele>691.2</ele>
        <time>2019-09-17T08:52:10Z</time>
      </trkpt>
      <trkpt lat="47.90682" lon="6.96243">
        <ele>692.3</ele>
        <time>2019-09-17T08:52:13Z</time>
      </trkpt>
      <trkpt lat="47.90684" lon="6.96241">
        <ele>693.2</ele>
        <time>2019-09-17T08:52:16Z</time>
      </trkpt>
      <trkpt lat="47.90686" lon="6.96237">
        <ele>694</ele>
        <time>2019-09-17T08:52:20Z</time>
      </trkpt>
      <trkpt lat="47.90688" lon="6.96234">
        <ele>694.7</ele>
        <time>2019-09-17T08:52:23Z</time>
      </trkpt>
      <trkpt lat="47.9069" lon="6.96231">
        <ele>695.5</ele>
        <time>2019-09-17T08:52:26Z</time>
      </trkpt>
      <trkpt lat="47.90692" lon="6.96227">
        <ele>696.3</ele>
        <time>2019-09-17T08:52:29Z</time>
      </trkpt>
      <trkpt lat="47.90694" lon="6.96224">
        <ele>697</ele>
        <time>2019-09-17T08:52:34Z</time>
      </trkpt>
      <trkpt lat="47.90696" lon="6.9622">
        <ele>697.5</ele>
        <time>2019-09-17T08:52:38Z</time>
      </trkpt>
      <trkpt lat="47.90699" lon="6.96216">
        <ele>697.8</ele>
        <time>2019-09-17T08:52:41Z</time>
      </trkpt>
      <trkpt lat="47.90701" lon="6.96213">
        <ele>698</ele>
        <time>2019-09-17T08:52:44Z</time>
      </trkpt>
      <trkpt lat="47.90702" lon="6.96209">
        <ele>698.2</ele>
        <time>2019-09-17T08:52:47Z</time>
      </trkpt>
      <trkpt lat="47.90704" lon="6.96205">
        <ele>698.4</ele>
        <time>2019-09-17T08:52:52Z</time>
      </trkpt>
      <trkpt lat="47.90707" lon="6.96202">
        <ele>698.7</ele>
        <time>2019-09-17T08:52:55Z</time>
      </trkpt>
      <trkpt lat="47.9071" lon="6.96198">
        <ele>698.9</ele>
        <time>2019-09-17T08:52:57Z</time>
      </trkpt>
      <trkpt lat="47.90712" lon="6.96194">
        <ele>699.1</ele>
        <time>2019-09-17T08:52:59Z</time>
      </trkpt>
      <trkpt lat="47.90715" lon="6.96191">
        <ele>699.4</ele>
        <time>2019-09-17T08:53:02Z</time>
      </trkpt>
      <trkpt lat="47.90717" lon="6.96188">
        <ele>699.6</ele>
        <time>2019-09-17T08:53:05Z</time>
      </trkpt>
      <trkpt lat="47.9072" lon="6.96186">
        <ele>700</ele>
        <time>2019-09-17T08:53:09Z</time>
      </trkpt>
      <trkpt lat="47.90722" lon="6.96182">
        <ele>701.3</ele>
        <time>2019-09-17T08:53:14Z</time>
      </trkpt>
      <trkpt lat="47.90722" lon="6.96178">
        <ele>702.4</ele>
        <time>2019-09-17T08:53:18Z</time>
      </trkpt>
      <trkpt lat="47.90719" lon="6.96179">
        <ele>703.5</ele>
        <time>2019-09-17T08:53:22Z</time>
      </trkpt>
      <trkpt lat="47.90715" lon="6.9618">
        <ele>704.7</ele>
        <time>2019-09-17T08:53:26Z</time>
      </trkpt>
      <trkpt lat="47.90712" lon="6.9618">
        <ele>706.2</ele>
        <time>2019-09-17T08:53:29Z</time>
      </trkpt>
      <trkpt lat="47.90708" lon="6.9618">
        <ele>708.1</ele>
        <time>2019-09-17T08:53:32Z</time>
      </trkpt>
      <trkpt lat="47.90705" lon="6.9618">
        <ele>709.4</ele>
        <time>2019-09-17T08:53:34Z</time>
      </trkpt>
      <trkpt lat="47.90701" lon="6.96181">
        <ele>709.8</ele>
        <time>2019-09-17T08:53:37Z</time>
      </trkpt>
      <trkpt lat="47.90698" lon="6.96181">
        <ele>710.2</ele>
        <time>2019-09-17T08:53:40Z</time>
      </trkpt>
      <trkpt lat="47.90694" lon="6.9618">
        <ele>710.8</ele>
        <time>2019-09-17T08:53:43Z</time>
      </trkpt>
      <trkpt lat="47.90691" lon="6.96179">
        <ele>711.5</ele>
        <time>2019-09-17T08:53:46Z</time>
      </trkpt>
      <trkpt lat="47.90689" lon="6.96179">
        <ele>712.1</ele>
        <time>2019-09-17T08:53:49Z</time>
      </trkpt>
      <trkpt lat="47.90685" lon="6.96179">
        <ele>712.6</ele>
        <time>2019-09-17T08:53:53Z</time>
      </trkpt>
      <trkpt lat="47.90681" lon="6.96179">
        <ele>712.8</ele>
        <time>2019-09-17T08:53:57Z</time>
      </trkpt>
      <trkpt lat="47.90678" lon="6.96178">
        <ele>713.1</ele>
        <time>2019-09-17T08:54:00Z</time>
      </trkpt>
      <trkpt lat="47.90674" lon="6.96178">
        <ele>713.4</ele>
        <time>2019-09-17T08:54:03Z</time>
      </trkpt>
      <trkpt lat="47.90671" lon="6.96179">
        <ele>713.6</ele>
        <time>2019-09-17T08:54:06Z</time>
      </trkpt>
      <trkpt lat="47.90668" lon="6.9618">
        <ele>713.9</ele>
        <time>2019-09-17T08:54:09Z</time>
      </trkpt>
      <trkpt lat="47.90665" lon="6.96181">
        <ele>714.5</ele>
        <time>2019-09-17T08:54:12Z</time>
      </trkpt>
      <trkpt lat="47.90662" lon="6.96182">
        <ele>715.1</ele>
        <time>2019-09-17T08:54:15Z</time>
      </trkpt>
      <trkpt lat="47.90659" lon="6.96185">
        <ele>715.1</ele>
        <time>2019-09-17T08:54:18Z</time>
      </trkpt>
      <trkpt lat="47.90655" lon="6.96186">
        <ele>714.7</ele>
        <time>2019-09-17T08:54:21Z</time>
      </trkpt>
      <trkpt lat="47.90651" lon="6.96186">
        <ele>714.3</ele>
        <time>2019-09-17T08:54:24Z</time>
      </trkpt>
      <trkpt lat="47.90647" lon="6.96187">
        <ele>713.8</ele>
        <time>2019-09-17T08:54:27Z</time>
      </trkpt>
      <trkpt lat="47.90644" lon="6.96187">
        <ele>713.4</ele>
        <time>2019-09-17T08:54:30Z</time>
      </trkpt>
      <trkpt lat="47.90641" lon="6.96187">
        <ele>713</ele>
        <time>2019-09-17T08:54:33Z</time>
      </trkpt>
      <trkpt lat="47.90637" lon="6.96187">
        <ele>712.6</ele>
        <time>2019-09-17T08:54:36Z</time>
      </trkpt>
      <trkpt lat="47.90634" lon="6.96187">
        <ele>712.2</ele>
        <time>2019-09-17T08:54:39Z</time>
      </trkpt>
      <trkpt lat="47.90631" lon="6.96187">
        <ele>711.8</ele>
        <time>2019-09-17T08:54:42Z</time>
      </trkpt>
      <trkpt lat="47.90629" lon="6.96183">
        <ele>711.4</ele>
        <time>2019-09-17T08:54:46Z</time>
      </trkpt>
      <trkpt lat="47.9063" lon="6.96178">
        <ele>711.1</ele>
        <time>2019-09-17T08:54:50Z</time>
      </trkpt>
      <trkpt lat="47.90631" lon="6.96174">
        <ele>711.2</ele>
        <time>2019-09-17T08:54:54Z</time>
      </trkpt>
      <trkpt lat="47.90632" lon="6.96169">
        <ele>711.4</ele>
        <time>2019-09-17T08:54:58Z</time>
      </trkpt>
      <trkpt lat="47.90634" lon="6.96164">
        <ele>711.6</ele>
        <time>2019-09-17T08:55:01Z</time>
      </trkpt>
      <trkpt lat="47.90636" lon="6.9616">
        <ele>711.8</ele>
        <time>2019-09-17T08:55:03Z</time>
      </trkpt>
      <trkpt lat="47.90638" lon="6.96156">
        <ele>712.5</ele>
        <time>2019-09-17T08:55:06Z</time>
      </trkpt>
      <trkpt lat="47.90639" lon="6.96151">
        <ele>713.2</ele>
        <time>2019-09-17T08:55:09Z</time>
      </trkpt>
      <trkpt lat="47.90639" lon="6.96146">
        <ele>714</ele>
        <time>2019-09-17T08:55:12Z</time>
      </trkpt>
      <trkpt lat="47.90637" lon="6.96143">
        <ele>714.8</ele>
        <time>2019-09-17T08:55:15Z</time>
      </trkpt>
      <trkpt lat="47.90634" lon="6.9614">
        <ele>715.8</ele>
        <time>2019-09-17T08:55:18Z</time>
      </trkpt>
      <trkpt lat="47.90633" lon="6.96135">
        <ele>717</ele>
        <time>2019-09-17T08:55:21Z</time>
      </trkpt>
      <trkpt lat="47.90631" lon="6.96131">
        <ele>718</ele>
        <time>2019-09-17T08:55:24Z</time>
      </trkpt>
      <trkpt lat="47.90628" lon="6.96129">
        <ele>718.8</ele>
        <time>2019-09-17T08:55:28Z</time>
      </trkpt>
      <trkpt lat="47.90626" lon="6.96126">
        <ele>719.5</ele>
        <time>2019-09-17T08:55:31Z</time>
      </trkpt>
      <trkpt lat="47.90625" lon="6.96121">
        <ele>720.7</ele>
        <time>2019-09-17T08:55:34Z</time>
      </trkpt>
      <trkpt lat="47.90628" lon="6.9612">
        <ele>721.8</ele>
        <time>2019-09-17T08:55:37Z</time>
      </trkpt>
      <trkpt lat="47.90632" lon="6.96119">
        <ele>723.2</ele>
        <time>2019-09-17T08:55:40Z</time>
      </trkpt>
      <trkpt lat="47.90634" lon="6.96117">
        <ele>724.1</ele>
        <time>2019-09-17T08:55:42Z</time>
      </trkpt>
      <trkpt lat="47.90638" lon="6.96116">
        <ele>725.1</ele>
        <time>2019-09-17T08:55:44Z</time>
      </trkpt>
      <trkpt lat="47.90641" lon="6.96116">
        <ele>725.1</ele>
        <time>2019-09-17T08:55:47Z</time>
      </trkpt>
      <trkpt lat="47.90643" lon="6.96119">
        <ele>725.1</ele>
        <time>2019-09-17T08:55:50Z</time>
      </trkpt>
      <trkpt lat="47.90647" lon="6.96119">
        <ele>725.1</ele>
        <time>2019-09-17T08:55:52Z</time>
      </trkpt>
      <trkpt lat="47.90651" lon="6.9612">
        <ele>725.2</ele>
        <time>2019-09-17T08:55:54Z</time>
      </trkpt>
      <trkpt lat="47.90654" lon="6.96121">
        <ele>725.2</ele>
        <time>2019-09-17T08:55:56Z</time>
      </trkpt>
      <trkpt lat="47.90657" lon="6.96121">
        <ele>725.2</ele>
        <time>2019-09-17T08:55:59Z</time>
      </trkpt>
      <trkpt lat="47.9066" lon="6.9612">
        <ele>725.3</ele>
        <time>2019-09-17T08:56:03Z</time>
      </trkpt>
      <trkpt lat="47.90664" lon="6.96119">
        <ele>725.3</ele>
        <time>2019-09-17T08:56:06Z</time>
      </trkpt>
      <trkpt lat="47.90668" lon="6.96119">
        <ele>725.3</ele>
        <time>2019-09-17T08:56:09Z</time>
      </trkpt>
      <trkpt lat="47.90672" lon="6.96119">
        <ele>725.4</ele>
        <time>2019-09-17T08:56:11Z</time>
      </trkpt>
      <trkpt lat="47.90675" lon="6.96118">
        <ele>725.4</ele>
        <time>2019-09-17T08:56:13Z</time>
      </trkpt>
      <trkpt lat="47.90678" lon="6.96116">
        <ele>725.4</ele>
        <time>2019-09-17T08:56:18Z</time>
      </trkpt>
      <trkpt lat="47.90682" lon="6.96116">
        <ele>725.4</ele>
        <time>2019-09-17T08:56:21Z</time>
      </trkpt>
      <trkpt lat="47.90686" lon="6.96115">
        <ele>725.4</ele>
        <time>2019-09-17T08:56:23Z</time>
      </trkpt>
      <trkpt lat="47.90689" lon="6.96114">
        <ele>725.4</ele>
        <time>2019-09-17T08:56:25Z</time>
      </trkpt>
      <trkpt lat="47.90692" lon="6.96113">
        <ele>725.5</ele>
        <time>2019-09-17T08:56:27Z</time>
      </trkpt>
      <trkpt lat="47.90695" lon="6.96112">
        <ele>725.5</ele>
        <time>2019-09-17T08:56:29Z</time>
      </trkpt>
      <trkpt lat="47.90698" lon="6.96111">
        <ele>725.5</ele>
        <time>2019-09-17T08:56:31Z</time>
      </trkpt>
      <trkpt lat="47.90703" lon="6.9611">
        <ele>725.6</ele>
        <time>2019-09-17T08:56:33Z</time>
      </trkpt>
      <trkpt lat="47.90707" lon="6.9611">
        <ele>725.6</ele>
        <time>2019-09-17T08:56:35Z</time>
      </trkpt>
      <trkpt lat="47.90711" lon="6.96109">
        <ele>725.7</ele>
        <time>2019-09-17T08:56:37Z</time>
      </trkpt>
      <trkpt lat="47.90714" lon="6.96108">
        <ele>725.7</ele>
        <time>2019-09-17T08:56:39Z</time>
      </trkpt>
      <trkpt lat="47.90717" lon="6.96107">
        <ele>725.9</ele>
        <time>2019-09-17T08:56:41Z</time>
      </trkpt>
      <trkpt lat="47.90721" lon="6.96106">
        <ele>726</ele>
        <time>2019-09-17T08:56:44Z</time>
      </trkpt>
      <trkpt lat="47.90723" lon="6.96105">
        <ele>726.1</ele>
        <time>2019-09-17T08:56:46Z</time>
      </trkpt>
      <trkpt lat="47.90726" lon="6.96105">
        <ele>726.2</ele>
        <time>2019-09-17T08:56:48Z</time>
      </trkpt>
      <trkpt lat="47.90729" lon="6.96104">
        <ele>726.2</ele>
        <time>2019-09-17T08:56:50Z</time>
      </trkpt>
      <trkpt lat="47.90733" lon="6.96103">
        <ele>726.4</ele>
        <time>2019-09-17T08:56:53Z</time>
      </trkpt>
      <trkpt lat="47.90736" lon="6.96103">
        <ele>726.5</ele>
        <time>2019-09-17T08:56:55Z</time>
      </trkpt>
      <trkpt lat="47.90738" lon="6.96102">
        <ele>726.5</ele>
        <time>2019-09-17T08:56:57Z</time>
      </trkpt>
      <trkpt lat="47.90741" lon="6.96102">
        <ele>726.7</ele>
        <time>2019-09-17T08:56:59Z</time>
      </trkpt>
      <trkpt lat="47.90745" lon="6.96102">
        <ele>726.9</ele>
        <time>2019-09-17T08:57:02Z</time>
      </trkpt>
      <trkpt lat="47.90748" lon="6.96102">
        <ele>727</ele>
        <time>2019-09-17T08:57:04Z</time>
      </trkpt>
      <trkpt lat="47.90751" lon="6.96101">
        <ele>727.2</ele>
        <time>2019-09-17T08:57:06Z</time>
      </trkpt>
      <trkpt lat="47.90754" lon="6.96102">
        <ele>727.3</ele>
        <time>2019-09-17T08:57:08Z</time>
      </trkpt>
      <trkpt lat="47.90758" lon="6.96102">
        <ele>727.5</ele>
        <time>2019-09-17T08:57:11Z</time>
      </trkpt>
      <trkpt lat="47.90762" lon="6.961">
        <ele>727.6</ele>
        <time>2019-09-17T08:57:14Z</time>
      </trkpt>
      <trkpt lat="47.90766" lon="6.961">
        <ele>727.8</ele>
        <time>2019-09-17T08:57:17Z</time>
      </trkpt>
      <trkpt lat="47.90769" lon="6.961">
        <ele>727.9</ele>
        <time>2019-09-17T08:57:20Z</time>
      </trkpt>
      <trkpt lat="47.90768" lon="6.96104">
        <ele>728</ele>
        <time>2019-09-17T08:57:47Z</time>
      </trkpt>
      <trkpt lat="47.90767" lon="6.96099">
        <ele>728.2</ele>
        <time>2019-09-17T08:57:56Z</time>
      </trkpt>
      <trkpt lat="47.90768" lon="6.96095">
        <ele>728.3</ele>
        <time>2019-09-17T08:58:01Z</time>
      </trkpt>
      <trkpt lat="47.9077" lon="6.96089">
        <ele>728.5</ele>
        <time>2019-09-17T08:58:04Z</time>
      </trkpt>
      <trkpt lat="47.9077" lon="6.96085">
        <ele>728.6</ele>
        <time>2019-09-17T08:58:06Z</time>
      </trkpt>
      <trkpt lat="47.90771" lon="6.96081">
        <ele>728.7</ele>
        <time>2019-09-17T08:58:08Z</time>
      </trkpt>
      <trkpt lat="47.90771" lon="6.96076">
        <ele>728.9</ele>
        <time>2019-09-17T08:58:10Z</time>
      </trkpt>
      <trkpt lat="47.90772" lon="6.9607">
        <ele>729.2</ele>
        <time>2019-09-17T08:58:12Z</time>
      </trkpt>
      <trkpt lat="47.90773" lon="6.96065">
        <ele>729.3</ele>
        <time>2019-09-17T08:58:14Z</time>
      </trkpt>
      <trkpt lat="47.90773" lon="6.9606">
        <ele>729.5</ele>
        <time>2019-09-17T08:58:18Z</time>
      </trkpt>
      <trkpt lat="47.90772" lon="6.96056">
        <ele>729.7</ele>
        <time>2019-09-17T08:58:23Z</time>
      </trkpt>
      <trkpt lat="47.90773" lon="6.96051">
        <ele>730</ele>
        <time>2019-09-17T08:58:28Z</time>
      </trkpt>
      <trkpt lat="47.90775" lon="6.96048">
        <ele>730.4</ele>
        <time>2019-09-17T08:58:31Z</time>
      </trkpt>
      <trkpt lat="47.90776" lon="6.96043">
        <ele>731.3</ele>
        <time>2019-09-17T08:58:33Z</time>
      </trkpt>
      <trkpt lat="47.90776" lon="6.96039">
        <ele>732.4</ele>
        <time>2019-09-17T08:58:39Z</time>
      </trkpt>
      <trkpt lat="47.90777" lon="6.96035">
        <ele>733.3</ele>
        <time>2019-09-17T08:58:45Z</time>
      </trkpt>
      <trkpt lat="47.90777" lon="6.9603">
        <ele>734.6</ele>
        <time>2019-09-17T08:58:50Z</time>
      </trkpt>
      <trkpt lat="47.90778" lon="6.96026">
        <ele>735.5</ele>
        <time>2019-09-17T08:58:54Z</time>
      </trkpt>
      <trkpt lat="47.90779" lon="6.96022">
        <ele>736.2</ele>
        <time>2019-09-17T08:58:57Z</time>
      </trkpt>
      <trkpt lat="47.90778" lon="6.96017">
        <ele>737</ele>
        <time>2019-09-17T08:59:03Z</time>
      </trkpt>
      <trkpt lat="47.90778" lon="6.96011">
        <ele>738</ele>
        <time>2019-09-17T08:59:06Z</time>
      </trkpt>
      <trkpt lat="47.90779" lon="6.96007">
        <ele>738.8</ele>
        <time>2019-09-17T08:59:10Z</time>
      </trkpt>
      <trkpt lat="47.90779" lon="6.96002">
        <ele>739.7</ele>
        <time>2019-09-17T08:59:13Z</time>
      </trkpt>
      <trkpt lat="47.9078" lon="6.95998">
        <ele>740.5</ele>
        <time>2019-09-17T08:59:17Z</time>
      </trkpt>
      <trkpt lat="47.90781" lon="6.95993">
        <ele>741.3</ele>
        <time>2019-09-17T08:59:19Z</time>
      </trkpt>
      <trkpt lat="47.90781" lon="6.95988">
        <ele>742</ele>
        <time>2019-09-17T08:59:21Z</time>
      </trkpt>
      <trkpt lat="47.90782" lon="6.95984">
        <ele>742.7</ele>
        <time>2019-09-17T08:59:24Z</time>
      </trkpt>
      <trkpt lat="47.90783" lon="6.95979">
        <ele>743.5</ele>
        <time>2019-09-17T08:59:27Z</time>
      </trkpt>
      <trkpt lat="47.90784" lon="6.95976">
        <ele>744.1</ele>
        <time>2019-09-17T08:59:30Z</time>
      </trkpt>
      <trkpt lat="47.90785" lon="6.95971">
        <ele>744.7</ele>
        <time>2019-09-17T08:59:33Z</time>
      </trkpt>
      <trkpt lat="47.90786" lon="6.95967">
        <ele>745.4</ele>
        <time>2019-09-17T08:59:36Z</time>
      </trkpt>
      <trkpt lat="47.90787" lon="6.95962">
        <ele>746.1</ele>
        <time>2019-09-17T08:59:39Z</time>
      </trkpt>
      <trkpt lat="47.90787" lon="6.95957">
        <ele>746.7</ele>
        <time>2019-09-17T08:59:42Z</time>
      </trkpt>
      <trkpt lat="47.90788" lon="6.95953">
        <ele>747.4</ele>
        <time>2019-09-17T08:59:45Z</time>
      </trkpt>
      <trkpt lat="47.9079" lon="6.95949">
        <ele>748.1</ele>
        <time>2019-09-17T08:59:48Z</time>
      </trkpt>
      <trkpt lat="47.90792" lon="6.95944">
        <ele>748.9</ele>
        <time>2019-09-17T08:59:51Z</time>
      </trkpt>
      <trkpt lat="47.90793" lon="6.9594">
        <ele>749.5</ele>
        <time>2019-09-17T08:59:54Z</time>
      </trkpt>
      <trkpt lat="47.90794" lon="6.95936">
        <ele>750.3</ele>
        <time>2019-09-17T08:59:58Z</time>
      </trkpt>
      <trkpt lat="47.90795" lon="6.95932">
        <ele>750.8</ele>
        <time>2019-09-17T09:00:02Z</time>
      </trkpt>
      <trkpt lat="47.90795" lon="6.95927">
        <ele>751.4</ele>
        <time>2019-09-17T09:00:06Z</time>
      </trkpt>
      <trkpt lat="47.90796" lon="6.95923">
        <ele>752.1</ele>
        <time>2019-09-17T09:00:10Z</time>
      </trkpt>
      <trkpt lat="47.90797" lon="6.95919">
        <ele>752.6</ele>
        <time>2019-09-17T09:00:13Z</time>
      </trkpt>
      <trkpt lat="47.90799" lon="6.95914">
        <ele>753.4</ele>
        <time>2019-09-17T09:00:16Z</time>
      </trkpt>
      <trkpt lat="47.908" lon="6.9591">
        <ele>753.9</ele>
        <time>2019-09-17T09:00:18Z</time>
      </trkpt>
      <trkpt lat="47.90801" lon="6.95905">
        <ele>754.5</ele>
        <time>2019-09-17T09:00:20Z</time>
      </trkpt>
      <trkpt lat="47.90803" lon="6.95901">
        <ele>754.9</ele>
        <time>2019-09-17T09:00:23Z</time>
      </trkpt>
      <trkpt lat="47.90805" lon="6.95895">
        <ele>755.3</ele>
        <time>2019-09-17T09:00:26Z</time>
      </trkpt>
      <trkpt lat="47.90806" lon="6.9589">
        <ele>755.7</ele>
        <time>2019-09-17T09:00:29Z</time>
      </trkpt>
      <trkpt lat="47.90807" lon="6.95885">
        <ele>756.1</ele>
        <time>2019-09-17T09:00:32Z</time>
      </trkpt>
      <trkpt lat="47.90808" lon="6.95881">
        <ele>756.4</ele>
        <time>2019-09-17T09:00:35Z</time>
      </trkpt>
      <trkpt lat="47.90809" lon="6.95876">
        <ele>756.9</ele>
        <time>2019-09-17T09:00:38Z</time>
      </trkpt>
      <trkpt lat="47.90809" lon="6.95872">
        <ele>757.3</ele>
        <time>2019-09-17T09:00:41Z</time>
      </trkpt>
      <trkpt lat="47.9081" lon="6.95867">
        <ele>757.9</ele>
        <time>2019-09-17T09:00:44Z</time>
      </trkpt>
      <trkpt lat="47.90809" lon="6.95861">
        <ele>758.4</ele>
        <time>2019-09-17T09:00:47Z</time>
      </trkpt>
      <trkpt lat="47.9081" lon="6.95857">
        <ele>758.8</ele>
        <time>2019-09-17T09:00:49Z</time>
      </trkpt>
      <trkpt lat="47.90809" lon="6.95852">
        <ele>759.2</ele>
        <time>2019-09-17T09:00:52Z</time>
      </trkpt>
      <trkpt lat="47.90809" lon="6.95847">
        <ele>759.8</ele>
        <time>2019-09-17T09:00:56Z</time>
      </trkpt>
      <trkpt lat="47.9081" lon="6.95843">
        <ele>760.2</ele>
        <time>2019-09-17T09:00:58Z</time>
      </trkpt>
      <trkpt lat="47.90811" lon="6.95839">
        <ele>760.6</ele>
        <time>2019-09-17T09:01:00Z</time>
      </trkpt>
      <trkpt lat="47.90812" lon="6.95834">
        <ele>761.1</ele>
        <time>2019-09-17T09:01:02Z</time>
      </trkpt>
      <trkpt lat="47.90813" lon="6.9583">
        <ele>761.6</ele>
        <time>2019-09-17T09:01:04Z</time>
      </trkpt>
      <trkpt lat="47.90814" lon="6.95826">
        <ele>762.1</ele>
        <time>2019-09-17T09:01:06Z</time>
      </trkpt>
      <trkpt lat="47.90816" lon="6.95822">
        <ele>762.7</ele>
        <time>2019-09-17T09:01:08Z</time>
      </trkpt>
      <trkpt lat="47.90818" lon="6.95817">
        <ele>763.3</ele>
        <time>2019-09-17T09:01:10Z</time>
      </trkpt>
      <trkpt lat="47.90819" lon="6.95814">
        <ele>763.9</ele>
        <time>2019-09-17T09:01:12Z</time>
      </trkpt>
      <trkpt lat="47.90821" lon="6.9581">
        <ele>764.4</ele>
        <time>2019-09-17T09:01:14Z</time>
      </trkpt>
      <trkpt lat="47.90824" lon="6.95806">
        <ele>765</ele>
        <time>2019-09-17T09:01:17Z</time>
      </trkpt>
      <trkpt lat="47.90826" lon="6.95803">
        <ele>765.4</ele>
        <time>2019-09-17T09:01:21Z</time>
      </trkpt>
      <trkpt lat="47.90829" lon="6.95802">
        <ele>765.7</ele>
        <time>2019-09-17T09:01:25Z</time>
      </trkpt>
      <trkpt lat="47.90832" lon="6.95799">
        <ele>766.1</ele>
        <time>2019-09-17T09:01:30Z</time>
      </trkpt>
      <trkpt lat="47.90834" lon="6.95797">
        <ele>766.5</ele>
        <time>2019-09-17T09:01:33Z</time>
      </trkpt>
      <trkpt lat="47.90836" lon="6.95794">
        <ele>766.9</ele>
        <time>2019-09-17T09:01:36Z</time>
      </trkpt>
      <trkpt lat="47.90838" lon="6.95791">
        <ele>767.3</ele>
        <time>2019-09-17T09:01:39Z</time>
      </trkpt>
      <trkpt lat="47.9084" lon="6.95788">
        <ele>767.6</ele>
        <time>2019-09-17T09:01:41Z</time>
      </trkpt>
      <trkpt lat="47.90843" lon="6.95785">
        <ele>767.9</ele>
        <time>2019-09-17T09:01:43Z</time>
      </trkpt>
      <trkpt lat="47.90846" lon="6.95783">
        <ele>768.2</ele>
        <time>2019-09-17T09:01:45Z</time>
      </trkpt>
      <trkpt lat="47.90849" lon="6.95781">
        <ele>768.5</ele>
        <time>2019-09-17T09:01:47Z</time>
      </trkpt>
      <trkpt lat="47.90852" lon="6.95778">
        <ele>768.8</ele>
        <time>2019-09-17T09:01:49Z</time>
      </trkpt>
      <trkpt lat="47.90855" lon="6.95775">
        <ele>769</ele>
        <time>2019-09-17T09:01:52Z</time>
      </trkpt>
      <trkpt lat="47.90857" lon="6.95772">
        <ele>769.2</ele>
        <time>2019-09-17T09:01:54Z</time>
      </trkpt>
      <trkpt lat="47.90859" lon="6.95769">
        <ele>769.3</ele>
        <time>2019-09-17T09:01:56Z</time>
      </trkpt>
      <trkpt lat="47.9086" lon="6.95765">
        <ele>769.5</ele>
        <time>2019-09-17T09:01:58Z</time>
      </trkpt>
      <trkpt lat="47.90862" lon="6.95761">
        <ele>769.6</ele>
        <time>2019-09-17T09:02:00Z</time>
      </trkpt>
      <trkpt lat="47.90865" lon="6.95757">
        <ele>769.8</ele>
        <time>2019-09-17T09:02:02Z</time>
      </trkpt>
      <trkpt lat="47.90867" lon="6.95754">
        <ele>770.1</ele>
        <time>2019-09-17T09:02:04Z</time>
      </trkpt>
      <trkpt lat="47.90869" lon="6.9575">
        <ele>770.3</ele>
        <time>2019-09-17T09:02:06Z</time>
      </trkpt>
      <trkpt lat="47.90871" lon="6.95747">
        <ele>770.5</ele>
        <time>2019-09-17T09:02:08Z</time>
      </trkpt>
      <trkpt lat="47.90871" lon="6.95743">
        <ele>770.7</ele>
        <time>2019-09-17T09:02:12Z</time>
      </trkpt>
      <trkpt lat="47.90871" lon="6.95739">
        <ele>770.9</ele>
        <time>2019-09-17T09:02:17Z</time>
      </trkpt>
      <trkpt lat="47.90873" lon="6.95736">
        <ele>771.2</ele>
        <time>2019-09-17T09:02:30Z</time>
      </trkpt>
      <trkpt lat="47.90875" lon="6.95732">
        <ele>771.5</ele>
        <time>2019-09-17T09:02:33Z</time>
      </trkpt>
      <trkpt lat="47.90877" lon="6.95727">
        <ele>771.9</ele>
        <time>2019-09-17T09:02:36Z</time>
      </trkpt>
      <trkpt lat="47.90879" lon="6.95722">
        <ele>772.3</ele>
        <time>2019-09-17T09:02:39Z</time>
      </trkpt>
      <trkpt lat="47.90879" lon="6.95718">
        <ele>772.7</ele>
        <time>2019-09-17T09:02:42Z</time>
      </trkpt>
      <trkpt lat="47.90881" lon="6.95714">
        <ele>773.1</ele>
        <time>2019-09-17T09:02:45Z</time>
      </trkpt>
      <trkpt lat="47.90882" lon="6.95709">
        <ele>773.7</ele>
        <time>2019-09-17T09:02:49Z</time>
      </trkpt>
      <trkpt lat="47.90884" lon="6.95705">
        <ele>774.1</ele>
        <time>2019-09-17T09:02:51Z</time>
      </trkpt>
      <trkpt lat="47.90886" lon="6.95701">
        <ele>774.5</ele>
        <time>2019-09-17T09:02:53Z</time>
      </trkpt>
      <trkpt lat="47.90888" lon="6.95695">
        <ele>775</ele>
        <time>2019-09-17T09:02:55Z</time>
      </trkpt>
      <trkpt lat="47.9089" lon="6.9569">
        <ele>775.5</ele>
        <time>2019-09-17T09:02:57Z</time>
      </trkpt>
      <trkpt lat="47.90891" lon="6.95685">
        <ele>776.1</ele>
        <time>2019-09-17T09:02:59Z</time>
      </trkpt>
      <trkpt lat="47.90893" lon="6.9568">
        <ele>776.8</ele>
        <time>2019-09-17T09:03:01Z</time>
      </trkpt>
      <trkpt lat="47.90893" lon="6.95676">
        <ele>777.3</ele>
        <time>2019-09-17T09:03:03Z</time>
      </trkpt>
      <trkpt lat="47.90892" lon="6.95671">
        <ele>777.8</ele>
        <time>2019-09-17T09:03:06Z</time>
      </trkpt>
      <trkpt lat="47.90893" lon="6.95665">
        <ele>778.4</ele>
        <time>2019-09-17T09:03:09Z</time>
      </trkpt>
      <trkpt lat="47.90893" lon="6.95661">
        <ele>779.3</ele>
        <time>2019-09-17T09:03:12Z</time>
      </trkpt>
      <trkpt lat="47.90894" lon="6.95657">
        <ele>780.1</ele>
        <time>2019-09-17T09:03:15Z</time>
      </trkpt>
      <trkpt lat="47.90896" lon="6.95653">
        <ele>780.2</ele>
        <time>2019-09-17T09:03:18Z</time>
      </trkpt>
      <trkpt lat="47.90898" lon="6.95649">
        <ele>781.1</ele>
        <time>2019-09-17T09:03:21Z</time>
      </trkpt>
      <trkpt lat="47.90899" lon="6.95645">
        <ele>780.9</ele>
        <time>2019-09-17T09:03:23Z</time>
      </trkpt>
      <trkpt lat="47.90901" lon="6.9564">
        <ele>781.7</ele>
        <time>2019-09-17T09:03:25Z</time>
      </trkpt>
      <trkpt lat="47.90902" lon="6.95635">
        <ele>781.9</ele>
        <time>2019-09-17T09:03:28Z</time>
      </trkpt>
      <trkpt lat="47.90903" lon="6.95631">
        <ele>782.8</ele>
        <time>2019-09-17T09:03:31Z</time>
      </trkpt>
      <trkpt lat="47.90904" lon="6.95627">
        <ele>782.9</ele>
        <time>2019-09-17T09:03:34Z</time>
      </trkpt>
      <trkpt lat="47.90906" lon="6.95622">
        <ele>783.7</ele>
        <time>2019-09-17T09:03:37Z</time>
      </trkpt>
      <trkpt lat="47.90907" lon="6.95618">
        <ele>783.7</ele>
        <time>2019-09-17T09:03:40Z</time>
      </trkpt>
      <trkpt lat="47.90908" lon="6.95613">
        <ele>784.5</ele>
        <time>2019-09-17T09:03:44Z</time>
      </trkpt>
      <trkpt lat="47.9091" lon="6.95609">
        <ele>784.5</ele>
        <time>2019-09-17T09:03:49Z</time>
      </trkpt>
      <trkpt lat="47.90912" lon="6.95604">
        <ele>785.1</ele>
        <time>2019-09-17T09:03:52Z</time>
      </trkpt>
      <trkpt lat="47.90913" lon="6.956">
        <ele>785.6</ele>
        <time>2019-09-17T09:03:55Z</time>
      </trkpt>
      <trkpt lat="47.90913" lon="6.95596">
        <ele>786.1</ele>
        <time>2019-09-17T09:04:01Z</time>
      </trkpt>
      <trkpt lat="47.90916" lon="6.95593">
        <ele>786.8</ele>
        <time>2019-09-17T09:04:04Z</time>
      </trkpt>
      <trkpt lat="47.90918" lon="6.9559">
        <ele>787.4</ele>
        <time>2019-09-17T09:04:06Z</time>
      </trkpt>
      <trkpt lat="47.90921" lon="6.95587">
        <ele>788</ele>
        <time>2019-09-17T09:04:09Z</time>
      </trkpt>
      <trkpt lat="47.90922" lon="6.95583">
        <ele>788.5</ele>
        <time>2019-09-17T09:04:14Z</time>
      </trkpt>
      <trkpt lat="47.90924" lon="6.95579">
        <ele>788.9</ele>
        <time>2019-09-17T09:04:19Z</time>
      </trkpt>
      <trkpt lat="47.90926" lon="6.95575">
        <ele>789.5</ele>
        <time>2019-09-17T09:04:24Z</time>
      </trkpt>
      <trkpt lat="47.90927" lon="6.95571">
        <ele>790</ele>
        <time>2019-09-17T09:04:26Z</time>
      </trkpt>
      <trkpt lat="47.90929" lon="6.95567">
        <ele>790.4</ele>
        <time>2019-09-17T09:04:29Z</time>
      </trkpt>
      <trkpt lat="47.9093" lon="6.95563">
        <ele>790.6</ele>
        <time>2019-09-17T09:04:33Z</time>
      </trkpt>
      <trkpt lat="47.90932" lon="6.9556">
        <ele>791</ele>
        <time>2019-09-17T09:04:42Z</time>
      </trkpt>
      <trkpt lat="47.90935" lon="6.95556">
        <ele>791.3</ele>
        <time>2019-09-17T09:04:46Z</time>
      </trkpt>
      <trkpt lat="47.90936" lon="6.95552">
        <ele>791.6</ele>
        <time>2019-09-17T09:04:48Z</time>
      </trkpt>
      <trkpt lat="47.90938" lon="6.95548">
        <ele>792</ele>
        <time>2019-09-17T09:04:51Z</time>
      </trkpt>
      <trkpt lat="47.90941" lon="6.95543">
        <ele>792.4</ele>
        <time>2019-09-17T09:04:54Z</time>
      </trkpt>
      <trkpt lat="47.90943" lon="6.95539">
        <ele>792.7</ele>
        <time>2019-09-17T09:04:56Z</time>
      </trkpt>
      <trkpt lat="47.90946" lon="6.95537">
        <ele>792.9</ele>
        <time>2019-09-17T09:05:00Z</time>
      </trkpt>
      <trkpt lat="47.90949" lon="6.95533">
        <ele>793.1</ele>
        <time>2019-09-17T09:05:03Z</time>
      </trkpt>
      <trkpt lat="47.90953" lon="6.95528">
        <ele>793.4</ele>
        <time>2019-09-17T09:05:05Z</time>
      </trkpt>
      <trkpt lat="47.90956" lon="6.95523">
        <ele>793.6</ele>
        <time>2019-09-17T09:05:07Z</time>
      </trkpt>
      <trkpt lat="47.90958" lon="6.95521">
        <ele>793.8</ele>
        <time>2019-09-17T09:05:09Z</time>
      </trkpt>
      <trkpt lat="47.9096" lon="6.95519">
        <ele>794</ele>
        <time>2019-09-17T09:05:30Z</time>
      </trkpt>
      <trkpt lat="47.90962" lon="6.95514">
        <ele>794.2</ele>
        <time>2019-09-17T09:05:33Z</time>
      </trkpt>
      <trkpt lat="47.90964" lon="6.95509">
        <ele>794.4</ele>
        <time>2019-09-17T09:05:35Z</time>
      </trkpt>
      <trkpt lat="47.90965" lon="6.95504">
        <ele>794.6</ele>
        <time>2019-09-17T09:05:37Z</time>
      </trkpt>
      <trkpt lat="47.90966" lon="6.95499">
        <ele>794.8</ele>
        <time>2019-09-17T09:05:39Z</time>
      </trkpt>
      <trkpt lat="47.90967" lon="6.95494">
        <ele>795</ele>
        <time>2019-09-17T09:05:41Z</time>
      </trkpt>
      <trkpt lat="47.90967" lon="6.95489">
        <ele>795.1</ele>
        <time>2019-09-17T09:05:43Z</time>
      </trkpt>
      <trkpt lat="47.90968" lon="6.95484">
        <ele>795.4</ele>
        <time>2019-09-17T09:05:46Z</time>
      </trkpt>
      <trkpt lat="47.9097" lon="6.9548">
        <ele>795.5</ele>
        <time>2019-09-17T09:05:48Z</time>
      </trkpt>
      <trkpt lat="47.90972" lon="6.95476">
        <ele>795.7</ele>
        <time>2019-09-17T09:05:50Z</time>
      </trkpt>
      <trkpt lat="47.90974" lon="6.95472">
        <ele>795.9</ele>
        <time>2019-09-17T09:05:52Z</time>
      </trkpt>
      <trkpt lat="47.90977" lon="6.95468">
        <ele>796.2</ele>
        <time>2019-09-17T09:05:55Z</time>
      </trkpt>
      <trkpt lat="47.90979" lon="6.95465">
        <ele>796.4</ele>
        <time>2019-09-17T09:05:57Z</time>
      </trkpt>
      <trkpt lat="47.90982" lon="6.95462">
        <ele>796.6</ele>
        <time>2019-09-17T09:05:59Z</time>
      </trkpt>
      <trkpt lat="47.90984" lon="6.95459">
        <ele>796.9</ele>
        <time>2019-09-17T09:06:01Z</time>
      </trkpt>
      <trkpt lat="47.90987" lon="6.95457">
        <ele>797.2</ele>
        <time>2019-09-17T09:06:04Z</time>
      </trkpt>
      <trkpt lat="47.90989" lon="6.95454">
        <ele>797.5</ele>
        <time>2019-09-17T09:06:11Z</time>
      </trkpt>
      <trkpt lat="47.90991" lon="6.95451">
        <ele>797.7</ele>
        <time>2019-09-17T09:06:14Z</time>
      </trkpt>
      <trkpt lat="47.90993" lon="6.95447">
        <ele>798</ele>
        <time>2019-09-17T09:06:17Z</time>
      </trkpt>
      <trkpt lat="47.90995" lon="6.95443">
        <ele>798.2</ele>
        <time>2019-09-17T09:06:20Z</time>
      </trkpt>
      <trkpt lat="47.90998" lon="6.9544">
        <ele>798.4</ele>
        <time>2019-09-17T09:06:23Z</time>
      </trkpt>
      <trkpt lat="47.91001" lon="6.95436">
        <ele>798.6</ele>
        <time>2019-09-17T09:06:24Z</time>
      </trkpt>
      <trkpt lat="47.91004" lon="6.95431">
        <ele>798.9</ele>
        <time>2019-09-17T09:06:26Z</time>
      </trkpt>
      <trkpt lat="47.91007" lon="6.95427">
        <ele>799.3</ele>
        <time>2019-09-17T09:06:28Z</time>
      </trkpt>
      <trkpt lat="47.9101" lon="6.95423">
        <ele>799.8</ele>
        <time>2019-09-17T09:06:30Z</time>
      </trkpt>
      <trkpt lat="47.91012" lon="6.9542">
        <ele>800.2</ele>
        <time>2019-09-17T09:06:32Z</time>
      </trkpt>
      <trkpt lat="47.91015" lon="6.95415">
        <ele>800.7</ele>
        <time>2019-09-17T09:06:35Z</time>
      </trkpt>
      <trkpt lat="47.91018" lon="6.95411">
        <ele>801.2</ele>
        <time>2019-09-17T09:06:38Z</time>
      </trkpt>
      <trkpt lat="47.9102" lon="6.95408">
        <ele>801.5</ele>
        <time>2019-09-17T09:06:40Z</time>
      </trkpt>
      <trkpt lat="47.91022" lon="6.95405">
        <ele>801.7</ele>
        <time>2019-09-17T09:06:42Z</time>
      </trkpt>
      <trkpt lat="47.91024" lon="6.95402">
        <ele>802</ele>
        <time>2019-09-17T09:06:44Z</time>
      </trkpt>
      <trkpt lat="47.91026" lon="6.95399">
        <ele>802.4</ele>
        <time>2019-09-17T09:06:47Z</time>
      </trkpt>
      <trkpt lat="47.91029" lon="6.95396">
        <ele>802.7</ele>
        <time>2019-09-17T09:06:49Z</time>
      </trkpt>
      <trkpt lat="47.91032" lon="6.95392">
        <ele>803.2</ele>
        <time>2019-09-17T09:06:52Z</time>
      </trkpt>
      <trkpt lat="47.91034" lon="6.9539">
        <ele>803.4</ele>
        <time>2019-09-17T09:06:54Z</time>
      </trkpt>
      <trkpt lat="47.91037" lon="6.95386">
        <ele>803.7</ele>
        <time>2019-09-17T09:06:57Z</time>
      </trkpt>
      <trkpt lat="47.9104" lon="6.95383">
        <ele>804</ele>
        <time>2019-09-17T09:07:00Z</time>
      </trkpt>
      <trkpt lat="47.91042" lon="6.95379">
        <ele>804.3</ele>
        <time>2019-09-17T09:07:03Z</time>
      </trkpt>
      <trkpt lat="47.91045" lon="6.95376">
        <ele>804.5</ele>
        <time>2019-09-17T09:07:06Z</time>
      </trkpt>
      <trkpt lat="47.91047" lon="6.95372">
        <ele>804.8</ele>
        <time>2019-09-17T09:07:09Z</time>
      </trkpt>
      <trkpt lat="47.91048" lon="6.95368">
        <ele>805</ele>
        <time>2019-09-17T09:07:12Z</time>
      </trkpt>
      <trkpt lat="47.9105" lon="6.95364">
        <ele>805.2</ele>
        <time>2019-09-17T09:07:14Z</time>
      </trkpt>
      <trkpt lat="47.91052" lon="6.95361">
        <ele>805.4</ele>
        <time>2019-09-17T09:07:16Z</time>
      </trkpt>
      <trkpt lat="47.91054" lon="6.95357">
        <ele>805.6</ele>
        <time>2019-09-17T09:07:18Z</time>
      </trkpt>
      <trkpt lat="47.91056" lon="6.95354">
        <ele>805.8</ele>
        <time>2019-09-17T09:07:20Z</time>
      </trkpt>
      <trkpt lat="47.91058" lon="6.95351">
        <ele>805.9</ele>
        <time>2019-09-17T09:07:22Z</time>
      </trkpt>
      <trkpt lat="47.9106" lon="6.95347">
        <ele>806.1</ele>
        <time>2019-09-17T09:07:24Z</time>
      </trkpt>
      <trkpt lat="47.91062" lon="6.95343">
        <ele>806.3</ele>
        <time>2019-09-17T09:07:26Z</time>
      </trkpt>
      <trkpt lat="47.91064" lon="6.95339">
        <ele>806.5</ele>
        <time>2019-09-17T09:07:28Z</time>
      </trkpt>
      <trkpt lat="47.91067" lon="6.95336">
        <ele>806.6</ele>
        <time>2019-09-17T09:07:30Z</time>
      </trkpt>
      <trkpt lat="47.91069" lon="6.95333">
        <ele>806.8</ele>
        <time>2019-09-17T09:07:32Z</time>
      </trkpt>
      <trkpt lat="47.91071" lon="6.9533">
        <ele>807.1</ele>
        <time>2019-09-17T09:07:34Z</time>
      </trkpt>
      <trkpt lat="47.91073" lon="6.95327">
        <ele>807.3</ele>
        <time>2019-09-17T09:07:36Z</time>
      </trkpt>
      <trkpt lat="47.91076" lon="6.95323">
        <ele>807.6</ele>
        <time>2019-09-17T09:07:38Z</time>
      </trkpt>
      <trkpt lat="47.91078" lon="6.9532">
        <ele>808</ele>
        <time>2019-09-17T09:07:40Z</time>
      </trkpt>
      <trkpt lat="47.91081" lon="6.95316">
        <ele>808.4</ele>
        <time>2019-09-17T09:07:43Z</time>
      </trkpt>
      <trkpt lat="47.91083" lon="6.95312">
        <ele>808.7</ele>
        <time>2019-09-17T09:07:46Z</time>
      </trkpt>
      <trkpt lat="47.91085" lon="6.9531">
        <ele>809</ele>
        <time>2019-09-17T09:07:48Z</time>
      </trkpt>
      <trkpt lat="47.91087" lon="6.95305">
        <ele>809.4</ele>
        <time>2019-09-17T09:07:51Z</time>
      </trkpt>
      <trkpt lat="47.91089" lon="6.95302">
        <ele>809.8</ele>
        <time>2019-09-17T09:07:54Z</time>
      </trkpt>
      <trkpt lat="47.91092" lon="6.95298">
        <ele>810.2</ele>
        <time>2019-09-17T09:07:57Z</time>
      </trkpt>
      <trkpt lat="47.91095" lon="6.95293">
        <ele>810.7</ele>
        <time>2019-09-17T09:08:00Z</time>
      </trkpt>
      <trkpt lat="47.91098" lon="6.95292">
        <ele>811</ele>
        <time>2019-09-17T09:08:03Z</time>
      </trkpt>
      <trkpt lat="47.91099" lon="6.95288">
        <ele>811.3</ele>
        <time>2019-09-17T09:08:06Z</time>
      </trkpt>
      <trkpt lat="47.911" lon="6.95284">
        <ele>811.7</ele>
        <time>2019-09-17T09:08:09Z</time>
      </trkpt>
      <trkpt lat="47.91102" lon="6.95279">
        <ele>812.1</ele>
        <time>2019-09-17T09:08:12Z</time>
      </trkpt>
      <trkpt lat="47.91104" lon="6.95274">
        <ele>812.4</ele>
        <time>2019-09-17T09:08:15Z</time>
      </trkpt>
      <trkpt lat="47.91106" lon="6.9527">
        <ele>812.8</ele>
        <time>2019-09-17T09:08:19Z</time>
      </trkpt>
      <trkpt lat="47.91109" lon="6.95263">
        <ele>813.3</ele>
        <time>2019-09-17T09:08:21Z</time>
      </trkpt>
      <trkpt lat="47.9111" lon="6.95257">
        <ele>813.7</ele>
        <time>2019-09-17T09:08:24Z</time>
      </trkpt>
      <trkpt lat="47.91112" lon="6.95252">
        <ele>814.1</ele>
        <time>2019-09-17T09:08:28Z</time>
      </trkpt>
      <trkpt lat="47.91113" lon="6.95248">
        <ele>814.4</ele>
        <time>2019-09-17T09:08:31Z</time>
      </trkpt>
      <trkpt lat="47.91114" lon="6.95243">
        <ele>814.8</ele>
        <time>2019-09-17T09:08:34Z</time>
      </trkpt>
      <trkpt lat="47.91115" lon="6.9524">
        <ele>815.1</ele>
        <time>2019-09-17T09:08:37Z</time>
      </trkpt>
      <trkpt lat="47.91116" lon="6.95235">
        <ele>815.6</ele>
        <time>2019-09-17T09:08:39Z</time>
      </trkpt>
      <trkpt lat="47.91117" lon="6.95231">
        <ele>816.1</ele>
        <time>2019-09-17T09:08:41Z</time>
      </trkpt>
      <trkpt lat="47.91119" lon="6.95227">
        <ele>816.6</ele>
        <time>2019-09-17T09:08:43Z</time>
      </trkpt>
      <trkpt lat="47.9112" lon="6.95223">
        <ele>817.1</ele>
        <time>2019-09-17T09:08:45Z</time>
      </trkpt>
      <trkpt lat="47.91121" lon="6.95219">
        <ele>816.7</ele>
        <time>2019-09-17T09:08:47Z</time>
      </trkpt>
      <trkpt lat="47.91124" lon="6.95217">
        <ele>816.2</ele>
        <time>2019-09-17T09:08:52Z</time>
      </trkpt>
      <trkpt lat="47.91127" lon="6.95215">
        <ele>815.9</ele>
        <time>2019-09-17T09:08:56Z</time>
      </trkpt>
      <trkpt lat="47.9113" lon="6.95212">
        <ele>815.6</ele>
        <time>2019-09-17T09:08:59Z</time>
      </trkpt>
      <trkpt lat="47.91133" lon="6.9521">
        <ele>815.2</ele>
        <time>2019-09-17T09:09:01Z</time>
      </trkpt>
      <trkpt lat="47.91135" lon="6.95208">
        <ele>814.9</ele>
        <time>2019-09-17T09:09:03Z</time>
      </trkpt>
      <trkpt lat="47.91138" lon="6.95205">
        <ele>814.6</ele>
        <time>2019-09-17T09:09:07Z</time>
      </trkpt>
      <trkpt lat="47.91141" lon="6.95201">
        <ele>814.4</ele>
        <time>2019-09-17T09:09:10Z</time>
      </trkpt>
      <trkpt lat="47.91144" lon="6.95198">
        <ele>814.2</ele>
        <time>2019-09-17T09:09:12Z</time>
      </trkpt>
      <trkpt lat="47.91147" lon="6.95194">
        <ele>814</ele>
        <time>2019-09-17T09:09:14Z</time>
      </trkpt>
      <trkpt lat="47.91149" lon="6.95191">
        <ele>813.9</ele>
        <time>2019-09-17T09:09:16Z</time>
      </trkpt>
      <trkpt lat="47.91151" lon="6.95187">
        <ele>813.9</ele>
        <time>2019-09-17T09:09:19Z</time>
      </trkpt>
      <trkpt lat="47.91154" lon="6.95183">
        <ele>813.9</ele>
        <time>2019-09-17T09:09:22Z</time>
      </trkpt>
      <trkpt lat="47.91156" lon="6.95178">
        <ele>813.9</ele>
        <time>2019-09-17T09:09:25Z</time>
      </trkpt>
      <trkpt lat="47.91157" lon="6.95174">
        <ele>813.9</ele>
        <time>2019-09-17T09:09:28Z</time>
      </trkpt>
      <trkpt lat="47.9116" lon="6.95171">
        <ele>813.9</ele>
        <time>2019-09-17T09:09:31Z</time>
      </trkpt>
      <trkpt lat="47.91162" lon="6.95167">
        <ele>813.8</ele>
        <time>2019-09-17T09:09:33Z</time>
      </trkpt>
      <trkpt lat="47.91163" lon="6.95164">
        <ele>813.8</ele>
        <time>2019-09-17T09:09:35Z</time>
      </trkpt>
      <trkpt lat="47.91165" lon="6.95161">
        <ele>813.8</ele>
        <time>2019-09-17T09:09:37Z</time>
      </trkpt>
      <trkpt lat="47.91168" lon="6.95157">
        <ele>813.8</ele>
        <time>2019-09-17T09:09:40Z</time>
      </trkpt>
      <trkpt lat="47.91169" lon="6.95153">
        <ele>813.8</ele>
        <time>2019-09-17T09:09:42Z</time>
      </trkpt>
      <trkpt lat="47.91171" lon="6.9515">
        <ele>813.8</ele>
        <time>2019-09-17T09:09:44Z</time>
      </trkpt>
      <trkpt lat="47.91173" lon="6.95146">
        <ele>813.8</ele>
        <time>2019-09-17T09:09:46Z</time>
      </trkpt>
      <trkpt lat="47.91175" lon="6.95142">
        <ele>813.8</ele>
        <time>2019-09-17T09:09:48Z</time>
      </trkpt>
      <trkpt lat="47.91177" lon="6.95137">
        <ele>814</ele>
        <time>2019-09-17T09:09:51Z</time>
      </trkpt>
      <trkpt lat="47.91177" lon="6.95132">
        <ele>814.1</ele>
        <time>2019-09-17T09:09:54Z</time>
      </trkpt>
      <trkpt lat="47.91177" lon="6.95127">
        <ele>814.3</ele>
        <time>2019-09-17T09:09:58Z</time>
      </trkpt>
      <trkpt lat="47.91177" lon="6.95121">
        <ele>814.5</ele>
        <time>2019-09-17T09:10:01Z</time>
      </trkpt>
      <trkpt lat="47.91178" lon="6.95116">
        <ele>814.7</ele>
        <time>2019-09-17T09:10:04Z</time>
      </trkpt>
      <trkpt lat="47.91178" lon="6.95111">
        <ele>814.8</ele>
        <time>2019-09-17T09:10:06Z</time>
      </trkpt>
      <trkpt lat="47.91178" lon="6.95105">
        <ele>815</ele>
        <time>2019-09-17T09:10:08Z</time>
      </trkpt>
      <trkpt lat="47.91178" lon="6.95099">
        <ele>815.2</ele>
        <time>2019-09-17T09:10:10Z</time>
      </trkpt>
      <trkpt lat="47.91178" lon="6.95095">
        <ele>815.4</ele>
        <time>2019-09-17T09:10:12Z</time>
      </trkpt>
      <trkpt lat="47.91179" lon="6.9509">
        <ele>815.5</ele>
        <time>2019-09-17T09:10:14Z</time>
      </trkpt>
      <trkpt lat="47.91179" lon="6.95086">
        <ele>815.6</ele>
        <time>2019-09-17T09:10:16Z</time>
      </trkpt>
      <trkpt lat="47.91179" lon="6.95082">
        <ele>815.7</ele>
        <time>2019-09-17T09:10:18Z</time>
      </trkpt>
      <trkpt lat="47.91179" lon="6.95077">
        <ele>815.8</ele>
        <time>2019-09-17T09:10:20Z</time>
      </trkpt>
      <trkpt lat="47.91178" lon="6.95072">
        <ele>815.9</ele>
        <time>2019-09-17T09:10:23Z</time>
      </trkpt>
      <trkpt lat="47.91178" lon="6.95067">
        <ele>815.9</ele>
        <time>2019-09-17T09:10:26Z</time>
      </trkpt>
      <trkpt lat="47.91177" lon="6.95061">
        <ele>816</ele>
        <time>2019-09-17T09:10:29Z</time>
      </trkpt>
      <trkpt lat="47.91176" lon="6.95056">
        <ele>816.1</ele>
        <time>2019-09-17T09:10:31Z</time>
      </trkpt>
      <trkpt lat="47.91175" lon="6.9505">
        <ele>816.1</ele>
        <time>2019-09-17T09:10:33Z</time>
      </trkpt>
      <trkpt lat="47.91174" lon="6.95046">
        <ele>816</ele>
        <time>2019-09-17T09:10:35Z</time>
      </trkpt>
      <trkpt lat="47.91173" lon="6.95042">
        <ele>816</ele>
        <time>2019-09-17T09:10:37Z</time>
      </trkpt>
      <trkpt lat="47.91172" lon="6.95037">
        <ele>815.9</ele>
        <time>2019-09-17T09:10:39Z</time>
      </trkpt>
      <trkpt lat="47.91171" lon="6.95033">
        <ele>816</ele>
        <time>2019-09-17T09:10:41Z</time>
      </trkpt>
      <trkpt lat="47.9117" lon="6.95028">
        <ele>816.1</ele>
        <time>2019-09-17T09:10:43Z</time>
      </trkpt>
      <trkpt lat="47.91169" lon="6.95022">
        <ele>816.2</ele>
        <time>2019-09-17T09:10:46Z</time>
      </trkpt>
      <trkpt lat="47.91169" lon="6.95017">
        <ele>816.3</ele>
        <time>2019-09-17T09:10:49Z</time>
      </trkpt>
      <trkpt lat="47.91168" lon="6.95013">
        <ele>816.4</ele>
        <time>2019-09-17T09:10:51Z</time>
      </trkpt>
      <trkpt lat="47.91167" lon="6.95008">
        <ele>816.5</ele>
        <time>2019-09-17T09:10:53Z</time>
      </trkpt>
      <trkpt lat="47.91166" lon="6.95004">
        <ele>816.6</ele>
        <time>2019-09-17T09:10:55Z</time>
      </trkpt>
      <trkpt lat="47.91164" lon="6.95">
        <ele>816.7</ele>
        <time>2019-09-17T09:10:57Z</time>
      </trkpt>
      <trkpt lat="47.91163" lon="6.94995">
        <ele>816.7</ele>
        <time>2019-09-17T09:10:59Z</time>
      </trkpt>
      <trkpt lat="47.91162" lon="6.9499">
        <ele>816.8</ele>
        <time>2019-09-17T09:11:01Z</time>
      </trkpt>
      <trkpt lat="47.91161" lon="6.94986">
        <ele>816.5</ele>
        <time>2019-09-17T09:11:03Z</time>
      </trkpt>
      <trkpt lat="47.9116" lon="6.94981">
        <ele>816.3</ele>
        <time>2019-09-17T09:11:05Z</time>
      </trkpt>
      <trkpt lat="47.91159" lon="6.94976">
        <ele>816.1</ele>
        <time>2019-09-17T09:11:07Z</time>
      </trkpt>
      <trkpt lat="47.91158" lon="6.94972">
        <ele>816</ele>
        <time>2019-09-17T09:11:09Z</time>
      </trkpt>
      <trkpt lat="47.91156" lon="6.94968">
        <ele>815.9</ele>
        <time>2019-09-17T09:11:11Z</time>
      </trkpt>
      <trkpt lat="47.91155" lon="6.94964">
        <ele>815.7</ele>
        <time>2019-09-17T09:11:13Z</time>
      </trkpt>
      <trkpt lat="47.91154" lon="6.94959">
        <ele>815.5</ele>
        <time>2019-09-17T09:11:15Z</time>
      </trkpt>
      <trkpt lat="47.91153" lon="6.94954">
        <ele>815.3</ele>
        <time>2019-09-17T09:11:18Z</time>
      </trkpt>
      <trkpt lat="47.91151" lon="6.94949">
        <ele>815.3</ele>
        <time>2019-09-17T09:11:21Z</time>
      </trkpt>
      <trkpt lat="47.91149" lon="6.94944">
        <ele>815.4</ele>
        <time>2019-09-17T09:11:23Z</time>
      </trkpt>
      <trkpt lat="47.91147" lon="6.9494">
        <ele>815.4</ele>
        <time>2019-09-17T09:11:25Z</time>
      </trkpt>
      <trkpt lat="47.91146" lon="6.94936">
        <ele>815.4</ele>
        <time>2019-09-17T09:11:27Z</time>
      </trkpt>
      <trkpt lat="47.91144" lon="6.94932">
        <ele>815.4</ele>
        <time>2019-09-17T09:11:30Z</time>
      </trkpt>
      <trkpt lat="47.91142" lon="6.94928">
        <ele>815.5</ele>
        <time>2019-09-17T09:11:33Z</time>
      </trkpt>
      <trkpt lat="47.9114" lon="6.94923">
        <ele>815.5</ele>
        <time>2019-09-17T09:11:36Z</time>
      </trkpt>
      <trkpt lat="47.91139" lon="6.94919">
        <ele>815.5</ele>
        <time>2019-09-17T09:11:38Z</time>
      </trkpt>
      <trkpt lat="47.91137" lon="6.94914">
        <ele>815.4</ele>
        <time>2019-09-17T09:11:40Z</time>
      </trkpt>
      <trkpt lat="47.91135" lon="6.94909">
        <ele>815.2</ele>
        <time>2019-09-17T09:11:42Z</time>
      </trkpt>
      <trkpt lat="47.91133" lon="6.94905">
        <ele>815.1</ele>
        <time>2019-09-17T09:11:44Z</time>
      </trkpt>
      <trkpt lat="47.91131" lon="6.949">
        <ele>815</ele>
        <time>2019-09-17T09:11:46Z</time>
      </trkpt>
      <trkpt lat="47.91129" lon="6.94895">
        <ele>814.9</ele>
        <time>2019-09-17T09:11:49Z</time>
      </trkpt>
      <trkpt lat="47.91128" lon="6.94892">
        <ele>814.8</ele>
        <time>2019-09-17T09:11:51Z</time>
      </trkpt>
      <trkpt lat="47.91126" lon="6.94886">
        <ele>814.6</ele>
        <time>2019-09-17T09:11:54Z</time>
      </trkpt>
      <trkpt lat="47.91124" lon="6.94883">
        <ele>814.6</ele>
        <time>2019-09-17T09:11:56Z</time>
      </trkpt>
      <trkpt lat="47.91122" lon="6.94877">
        <ele>814.5</ele>
        <time>2019-09-17T09:11:59Z</time>
      </trkpt>
      <trkpt lat="47.91121" lon="6.94874">
        <ele>814.5</ele>
        <time>2019-09-17T09:12:01Z</time>
      </trkpt>
      <trkpt lat="47.91119" lon="6.9487">
        <ele>814.6</ele>
        <time>2019-09-17T09:12:03Z</time>
      </trkpt>
      <trkpt lat="47.91118" lon="6.94866">
        <ele>814.5</ele>
        <time>2019-09-17T09:12:05Z</time>
      </trkpt>
      <trkpt lat="47.91116" lon="6.94862">
        <ele>814.4</ele>
        <time>2019-09-17T09:12:07Z</time>
      </trkpt>
      <trkpt lat="47.91115" lon="6.94858">
        <ele>814.2</ele>
        <time>2019-09-17T09:12:09Z</time>
      </trkpt>
      <trkpt lat="47.91113" lon="6.94853">
        <ele>814</ele>
        <time>2019-09-17T09:12:11Z</time>
      </trkpt>
      <trkpt lat="47.91112" lon="6.94848">
        <ele>813.8</ele>
        <time>2019-09-17T09:12:13Z</time>
      </trkpt>
      <trkpt lat="47.91112" lon="6.94844">
        <ele>813.6</ele>
        <time>2019-09-17T09:12:15Z</time>
      </trkpt>
      <trkpt lat="47.9111" lon="6.9484">
        <ele>813.5</ele>
        <time>2019-09-17T09:12:17Z</time>
      </trkpt>
      <trkpt lat="47.9111" lon="6.94836">
        <ele>813.3</ele>
        <time>2019-09-17T09:12:19Z</time>
      </trkpt>
      <trkpt lat="47.91111" lon="6.94832">
        <ele>813.1</ele>
        <time>2019-09-17T09:12:22Z</time>
      </trkpt>
      <trkpt lat="47.91112" lon="6.94828">
        <ele>812.8</ele>
        <time>2019-09-17T09:12:25Z</time>
      </trkpt>
      <trkpt lat="47.91113" lon="6.94823">
        <ele>812.5</ele>
        <time>2019-09-17T09:12:28Z</time>
      </trkpt>
      <trkpt lat="47.91112" lon="6.94819">
        <ele>812.2</ele>
        <time>2019-09-17T09:12:32Z</time>
      </trkpt>
      <trkpt lat="47.91111" lon="6.94813">
        <ele>811.7</ele>
        <time>2019-09-17T09:12:35Z</time>
      </trkpt>
      <trkpt lat="47.9111" lon="6.94808">
        <ele>811.1</ele>
        <time>2019-09-17T09:12:38Z</time>
      </trkpt>
      <trkpt lat="47.91109" lon="6.94804">
        <ele>810.7</ele>
        <time>2019-09-17T09:12:40Z</time>
      </trkpt>
      <trkpt lat="47.91108" lon="6.948">
        <ele>810.3</ele>
        <time>2019-09-17T09:12:42Z</time>
      </trkpt>
      <trkpt lat="47.91107" lon="6.94795">
        <ele>810</ele>
        <time>2019-09-17T09:12:44Z</time>
      </trkpt>
      <trkpt lat="47.91106" lon="6.94788">
        <ele>809.8</ele>
        <time>2019-09-17T09:12:46Z</time>
      </trkpt>
      <trkpt lat="47.91106" lon="6.94782">
        <ele>809.3</ele>
        <time>2019-09-17T09:12:48Z</time>
      </trkpt>
      <trkpt lat="47.91106" lon="6.94777">
        <ele>808.8</ele>
        <time>2019-09-17T09:12:50Z</time>
      </trkpt>
      <trkpt lat="47.91107" lon="6.94772">
        <ele>808.6</ele>
        <time>2019-09-17T09:12:52Z</time>
      </trkpt>
      <trkpt lat="47.91107" lon="6.94767">
        <ele>808.4</ele>
        <time>2019-09-17T09:12:54Z</time>
      </trkpt>
      <trkpt lat="47.91108" lon="6.94762">
        <ele>808.2</ele>
        <time>2019-09-17T09:12:56Z</time>
      </trkpt>
      <trkpt lat="47.91108" lon="6.94758">
        <ele>808</ele>
        <time>2019-09-17T09:12:58Z</time>
      </trkpt>
      <trkpt lat="47.91108" lon="6.94753">
        <ele>807.9</ele>
        <time>2019-09-17T09:13:00Z</time>
      </trkpt>
      <trkpt lat="47.9111" lon="6.94749">
        <ele>807.8</ele>
        <time>2019-09-17T09:13:02Z</time>
      </trkpt>
      <trkpt lat="47.91111" lon="6.94744">
        <ele>807.8</ele>
        <time>2019-09-17T09:13:04Z</time>
      </trkpt>
      <trkpt lat="47.91112" lon="6.9474">
        <ele>807.8</ele>
        <time>2019-09-17T09:13:07Z</time>
      </trkpt>
      <trkpt lat="47.91112" lon="6.94735">
        <ele>807.8</ele>
        <time>2019-09-17T09:13:10Z</time>
      </trkpt>
      <trkpt lat="47.91112" lon="6.9473">
        <ele>808</ele>
        <time>2019-09-17T09:13:14Z</time>
      </trkpt>
      <trkpt lat="47.91113" lon="6.94721">
        <ele>808.5</ele>
        <time>2019-09-17T09:13:17Z</time>
      </trkpt>
      <trkpt lat="47.91113" lon="6.94716">
        <ele>809.2</ele>
        <time>2019-09-17T09:13:18Z</time>
      </trkpt>
      <trkpt lat="47.91113" lon="6.94712">
        <ele>809.8</ele>
        <time>2019-09-17T09:13:19Z</time>
      </trkpt>
      <trkpt lat="47.91113" lon="6.94705">
        <ele>810.2</ele>
        <time>2019-09-17T09:13:21Z</time>
      </trkpt>
      <trkpt lat="47.91113" lon="6.94701">
        <ele>810.2</ele>
        <time>2019-09-17T09:13:23Z</time>
      </trkpt>
      <trkpt lat="47.91113" lon="6.94696">
        <ele>810.2</ele>
        <time>2019-09-17T09:13:25Z</time>
      </trkpt>
      <trkpt lat="47.91114" lon="6.94691">
        <ele>810.5</ele>
        <time>2019-09-17T09:13:27Z</time>
      </trkpt>
      <trkpt lat="47.91114" lon="6.94686">
        <ele>810.7</ele>
        <time>2019-09-17T09:13:29Z</time>
      </trkpt>
      <trkpt lat="47.91114" lon="6.94681">
        <ele>811</ele>
        <time>2019-09-17T09:13:31Z</time>
      </trkpt>
      <trkpt lat="47.91114" lon="6.94676">
        <ele>811.3</ele>
        <time>2019-09-17T09:13:33Z</time>
      </trkpt>
      <trkpt lat="47.91113" lon="6.9467">
        <ele>811.7</ele>
        <time>2019-09-17T09:13:36Z</time>
      </trkpt>
      <trkpt lat="47.91114" lon="6.94666">
        <ele>812.1</ele>
        <time>2019-09-17T09:13:38Z</time>
      </trkpt>
      <trkpt lat="47.91114" lon="6.9466">
        <ele>812.5</ele>
        <time>2019-09-17T09:13:40Z</time>
      </trkpt>
      <trkpt lat="47.91114" lon="6.94655">
        <ele>812.9</ele>
        <time>2019-09-17T09:13:42Z</time>
      </trkpt>
      <trkpt lat="47.91114" lon="6.9465">
        <ele>813.3</ele>
        <time>2019-09-17T09:13:44Z</time>
      </trkpt>
      <trkpt lat="47.91114" lon="6.94645">
        <ele>813.7</ele>
        <time>2019-09-17T09:13:46Z</time>
      </trkpt>
      <trkpt lat="47.91115" lon="6.9464">
        <ele>814.1</ele>
        <time>2019-09-17T09:13:48Z</time>
      </trkpt>
      <trkpt lat="47.91115" lon="6.94636">
        <ele>814.5</ele>
        <time>2019-09-17T09:13:50Z</time>
      </trkpt>
      <trkpt lat="47.91116" lon="6.9463">
        <ele>815</ele>
        <time>2019-09-17T09:13:53Z</time>
      </trkpt>
      <trkpt lat="47.91116" lon="6.94624">
        <ele>815.5</ele>
        <time>2019-09-17T09:13:56Z</time>
      </trkpt>
      <trkpt lat="47.91117" lon="6.94619">
        <ele>816</ele>
        <time>2019-09-17T09:13:58Z</time>
      </trkpt>
      <trkpt lat="47.91117" lon="6.94615">
        <ele>816.3</ele>
        <time>2019-09-17T09:14:00Z</time>
      </trkpt>
      <trkpt lat="47.91117" lon="6.9461">
        <ele>816.8</ele>
        <time>2019-09-17T09:14:02Z</time>
      </trkpt>
      <trkpt lat="47.91117" lon="6.94606">
        <ele>817.2</ele>
        <time>2019-09-17T09:14:04Z</time>
      </trkpt>
      <trkpt lat="47.91118" lon="6.94601">
        <ele>817.6</ele>
        <time>2019-09-17T09:14:07Z</time>
      </trkpt>
      <trkpt lat="47.91119" lon="6.94597">
        <ele>818</ele>
        <time>2019-09-17T09:14:10Z</time>
      </trkpt>
      <trkpt lat="47.91119" lon="6.94592">
        <ele>818.5</ele>
        <time>2019-09-17T09:14:13Z</time>
      </trkpt>
      <trkpt lat="47.9112" lon="6.94586">
        <ele>819</ele>
        <time>2019-09-17T09:14:16Z</time>
      </trkpt>
      <trkpt lat="47.91121" lon="6.94582">
        <ele>819.5</ele>
        <time>2019-09-17T09:14:18Z</time>
      </trkpt>
      <trkpt lat="47.91122" lon="6.94578">
        <ele>819.9</ele>
        <time>2019-09-17T09:14:20Z</time>
      </trkpt>
      <trkpt lat="47.91123" lon="6.94574">
        <ele>820.2</ele>
        <time>2019-09-17T09:14:22Z</time>
      </trkpt>
      <trkpt lat="47.91125" lon="6.94571">
        <ele>820.4</ele>
        <time>2019-09-17T09:14:24Z</time>
      </trkpt>
      <trkpt lat="47.91127" lon="6.94567">
        <ele>820.6</ele>
        <time>2019-09-17T09:14:26Z</time>
      </trkpt>
      <trkpt lat="47.91128" lon="6.94564">
        <ele>820.8</ele>
        <time>2019-09-17T09:14:28Z</time>
      </trkpt>
      <trkpt lat="47.91131" lon="6.94559">
        <ele>821.1</ele>
        <time>2019-09-17T09:14:31Z</time>
      </trkpt>
      <trkpt lat="47.91132" lon="6.94556">
        <ele>821.2</ele>
        <time>2019-09-17T09:14:33Z</time>
      </trkpt>
      <trkpt lat="47.91133" lon="6.94552">
        <ele>821.4</ele>
        <time>2019-09-17T09:14:35Z</time>
      </trkpt>
      <trkpt lat="47.91135" lon="6.94548">
        <ele>821.7</ele>
        <time>2019-09-17T09:14:37Z</time>
      </trkpt>
      <trkpt lat="47.91136" lon="6.94543">
        <ele>822</ele>
        <time>2019-09-17T09:14:40Z</time>
      </trkpt>
      <trkpt lat="47.91136" lon="6.94537">
        <ele>822.3</ele>
        <time>2019-09-17T09:14:43Z</time>
      </trkpt>
      <trkpt lat="47.91136" lon="6.94533">
        <ele>822.6</ele>
        <time>2019-09-17T09:14:47Z</time>
      </trkpt>
      <trkpt lat="47.91138" lon="6.94528">
        <ele>823</ele>
        <time>2019-09-17T09:14:51Z</time>
      </trkpt>
      <trkpt lat="47.91138" lon="6.94523">
        <ele>823.4</ele>
        <time>2019-09-17T09:14:55Z</time>
      </trkpt>
      <trkpt lat="47.91139" lon="6.94519">
        <ele>823.8</ele>
        <time>2019-09-17T09:14:58Z</time>
      </trkpt>
      <trkpt lat="47.91138" lon="6.94515">
        <ele>824.1</ele>
        <time>2019-09-17T09:15:02Z</time>
      </trkpt>
      <trkpt lat="47.91137" lon="6.94511">
        <ele>824.5</ele>
        <time>2019-09-17T09:15:07Z</time>
      </trkpt>
      <trkpt lat="47.91139" lon="6.94507">
        <ele>825</ele>
        <time>2019-09-17T09:15:10Z</time>
      </trkpt>
      <trkpt lat="47.91141" lon="6.94503">
        <ele>825.4</ele>
        <time>2019-09-17T09:15:12Z</time>
      </trkpt>
      <trkpt lat="47.91143" lon="6.94499">
        <ele>825.5</ele>
        <time>2019-09-17T09:15:14Z</time>
      </trkpt>
      <trkpt lat="47.91145" lon="6.94496">
        <ele>825.8</ele>
        <time>2019-09-17T09:15:16Z</time>
      </trkpt>
      <trkpt lat="47.91147" lon="6.94491">
        <ele>826</ele>
        <time>2019-09-17T09:15:18Z</time>
      </trkpt>
      <trkpt lat="47.91149" lon="6.94485">
        <ele>826.2</ele>
        <time>2019-09-17T09:15:20Z</time>
      </trkpt>
      <trkpt lat="47.9115" lon="6.9448">
        <ele>826.4</ele>
        <time>2019-09-17T09:15:22Z</time>
      </trkpt>
      <trkpt lat="47.91152" lon="6.94475">
        <ele>826.6</ele>
        <time>2019-09-17T09:15:24Z</time>
      </trkpt>
      <trkpt lat="47.91153" lon="6.9447">
        <ele>826.7</ele>
        <time>2019-09-17T09:15:26Z</time>
      </trkpt>
      <trkpt lat="47.91154" lon="6.94466">
        <ele>826.9</ele>
        <time>2019-09-17T09:15:28Z</time>
      </trkpt>
      <trkpt lat="47.91155" lon="6.94461">
        <ele>827.1</ele>
        <time>2019-09-17T09:15:30Z</time>
      </trkpt>
      <trkpt lat="47.91157" lon="6.94457">
        <ele>827.3</ele>
        <time>2019-09-17T09:15:33Z</time>
      </trkpt>
      <trkpt lat="47.91158" lon="6.94452">
        <ele>827.5</ele>
        <time>2019-09-17T09:15:35Z</time>
      </trkpt>
      <trkpt lat="47.9116" lon="6.94447">
        <ele>827.6</ele>
        <time>2019-09-17T09:15:37Z</time>
      </trkpt>
      <trkpt lat="47.9116" lon="6.94443">
        <ele>827.8</ele>
        <time>2019-09-17T09:15:39Z</time>
      </trkpt>
      <trkpt lat="47.91161" lon="6.94439">
        <ele>827.9</ele>
        <time>2019-09-17T09:15:41Z</time>
      </trkpt>
      <trkpt lat="47.91162" lon="6.94434">
        <ele>828.1</ele>
        <time>2019-09-17T09:15:44Z</time>
      </trkpt>
      <trkpt lat="47.91163" lon="6.9443">
        <ele>828.2</ele>
        <time>2019-09-17T09:15:46Z</time>
      </trkpt>
      <trkpt lat="47.91164" lon="6.94426">
        <ele>828.4</ele>
        <time>2019-09-17T09:15:48Z</time>
      </trkpt>
      <trkpt lat="47.91164" lon="6.94421">
        <ele>828.6</ele>
        <time>2019-09-17T09:15:50Z</time>
      </trkpt>
      <trkpt lat="47.91165" lon="6.94417">
        <ele>828.7</ele>
        <time>2019-09-17T09:15:52Z</time>
      </trkpt>
      <trkpt lat="47.91166" lon="6.94412">
        <ele>828.9</ele>
        <time>2019-09-17T09:15:56Z</time>
      </trkpt>
      <trkpt lat="47.91167" lon="6.94406">
        <ele>829.1</ele>
        <time>2019-09-17T09:15:59Z</time>
      </trkpt>
      <trkpt lat="47.91169" lon="6.94402">
        <ele>829.3</ele>
        <time>2019-09-17T09:16:01Z</time>
      </trkpt>
      <trkpt lat="47.9117" lon="6.94397">
        <ele>829.5</ele>
        <time>2019-09-17T09:16:03Z</time>
      </trkpt>
      <trkpt lat="47.91172" lon="6.94392">
        <ele>829.7</ele>
        <time>2019-09-17T09:16:06Z</time>
      </trkpt>
      <trkpt lat="47.91173" lon="6.94386">
        <ele>829.9</ele>
        <time>2019-09-17T09:16:09Z</time>
      </trkpt>
      <trkpt lat="47.91173" lon="6.94382">
        <ele>830</ele>
        <time>2019-09-17T09:16:12Z</time>
      </trkpt>
      <trkpt lat="47.91174" lon="6.94378">
        <ele>830.1</ele>
        <time>2019-09-17T09:16:14Z</time>
      </trkpt>
      <trkpt lat="47.91174" lon="6.94374">
        <ele>830.2</ele>
        <time>2019-09-17T09:16:16Z</time>
      </trkpt>
      <trkpt lat="47.91175" lon="6.94369">
        <ele>830.3</ele>
        <time>2019-09-17T09:16:19Z</time>
      </trkpt>
      <trkpt lat="47.91176" lon="6.94365">
        <ele>830.3</ele>
        <time>2019-09-17T09:16:21Z</time>
      </trkpt>
      <trkpt lat="47.91176" lon="6.9436">
        <ele>830.4</ele>
        <time>2019-09-17T09:16:24Z</time>
      </trkpt>
      <trkpt lat="47.91177" lon="6.94356">
        <ele>830.5</ele>
        <time>2019-09-17T09:16:28Z</time>
      </trkpt>
      <trkpt lat="47.91176" lon="6.9435">
        <ele>830.6</ele>
        <time>2019-09-17T09:16:31Z</time>
      </trkpt>
      <trkpt lat="47.91176" lon="6.94346">
        <ele>830.7</ele>
        <time>2019-09-17T09:16:33Z</time>
      </trkpt>
      <trkpt lat="47.91176" lon="6.94341">
        <ele>830.8</ele>
        <time>2019-09-17T09:16:35Z</time>
      </trkpt>
      <trkpt lat="47.91175" lon="6.94337">
        <ele>830.9</ele>
        <time>2019-09-17T09:16:37Z</time>
      </trkpt>
      <trkpt lat="47.91175" lon="6.94332">
        <ele>831</ele>
        <time>2019-09-17T09:16:41Z</time>
      </trkpt>
      <trkpt lat="47.91174" lon="6.94327">
        <ele>831.1</ele>
        <time>2019-09-17T09:16:44Z</time>
      </trkpt>
      <trkpt lat="47.91174" lon="6.94321">
        <ele>831.2</ele>
        <time>2019-09-17T09:16:47Z</time>
      </trkpt>
      <trkpt lat="47.91173" lon="6.94315">
        <ele>831.4</ele>
        <time>2019-09-17T09:16:50Z</time>
      </trkpt>
      <trkpt lat="47.91172" lon="6.9431">
        <ele>831.5</ele>
        <time>2019-09-17T09:16:52Z</time>
      </trkpt>
      <trkpt lat="47.91171" lon="6.94305">
        <ele>831.7</ele>
        <time>2019-09-17T09:16:54Z</time>
      </trkpt>
      <trkpt lat="47.91171" lon="6.943">
        <ele>831.8</ele>
        <time>2019-09-17T09:16:56Z</time>
      </trkpt>
      <trkpt lat="47.91171" lon="6.94296">
        <ele>832</ele>
        <time>2019-09-17T09:16:58Z</time>
      </trkpt>
      <trkpt lat="47.91172" lon="6.94292">
        <ele>832.2</ele>
        <time>2019-09-17T09:17:01Z</time>
      </trkpt>
      <trkpt lat="47.91173" lon="6.94286">
        <ele>832.5</ele>
        <time>2019-09-17T09:17:05Z</time>
      </trkpt>
      <trkpt lat="47.91174" lon="6.94283">
        <ele>832.8</ele>
        <time>2019-09-17T09:17:07Z</time>
      </trkpt>
      <trkpt lat="47.91176" lon="6.94279">
        <ele>833.2</ele>
        <time>2019-09-17T09:17:09Z</time>
      </trkpt>
      <trkpt lat="47.91178" lon="6.94275">
        <ele>833.6</ele>
        <time>2019-09-17T09:17:11Z</time>
      </trkpt>
      <trkpt lat="47.91179" lon="6.9427">
        <ele>834</ele>
        <time>2019-09-17T09:17:13Z</time>
      </trkpt>
      <trkpt lat="47.91181" lon="6.94266">
        <ele>834.4</ele>
        <time>2019-09-17T09:17:15Z</time>
      </trkpt>
      <trkpt lat="47.91182" lon="6.94262">
        <ele>834.7</ele>
        <time>2019-09-17T09:17:17Z</time>
      </trkpt>
      <trkpt lat="47.91184" lon="6.94258">
        <ele>835.1</ele>
        <time>2019-09-17T09:17:19Z</time>
      </trkpt>
      <trkpt lat="47.91186" lon="6.94253">
        <ele>835.5</ele>
        <time>2019-09-17T09:17:21Z</time>
      </trkpt>
      <trkpt lat="47.91187" lon="6.94249">
        <ele>835.8</ele>
        <time>2019-09-17T09:17:23Z</time>
      </trkpt>
      <trkpt lat="47.91189" lon="6.94244">
        <ele>836.3</ele>
        <time>2019-09-17T09:17:26Z</time>
      </trkpt>
      <trkpt lat="47.91191" lon="6.94239">
        <ele>836.8</ele>
        <time>2019-09-17T09:17:29Z</time>
      </trkpt>
      <trkpt lat="47.91192" lon="6.94234">
        <ele>837.3</ele>
        <time>2019-09-17T09:17:32Z</time>
      </trkpt>
      <trkpt lat="47.91193" lon="6.94229">
        <ele>837.6</ele>
        <time>2019-09-17T09:17:35Z</time>
      </trkpt>
      <trkpt lat="47.91194" lon="6.94225">
        <ele>837.9</ele>
        <time>2019-09-17T09:17:37Z</time>
      </trkpt>
      <trkpt lat="47.91194" lon="6.9422">
        <ele>838.2</ele>
        <time>2019-09-17T09:17:40Z</time>
      </trkpt>
      <trkpt lat="47.91195" lon="6.94215">
        <ele>838.4</ele>
        <time>2019-09-17T09:17:43Z</time>
      </trkpt>
      <trkpt lat="47.91195" lon="6.9421">
        <ele>838.7</ele>
        <time>2019-09-17T09:17:46Z</time>
      </trkpt>
      <trkpt lat="47.91195" lon="6.94205">
        <ele>838.9</ele>
        <time>2019-09-17T09:17:49Z</time>
      </trkpt>
      <trkpt lat="47.91195" lon="6.94201">
        <ele>839.2</ele>
        <time>2019-09-17T09:17:52Z</time>
      </trkpt>
      <trkpt lat="47.91196" lon="6.94195">
        <ele>839.6</ele>
        <time>2019-09-17T09:17:55Z</time>
      </trkpt>
      <trkpt lat="47.91197" lon="6.9419">
        <ele>839.9</ele>
        <time>2019-09-17T09:17:58Z</time>
      </trkpt>
      <trkpt lat="47.91198" lon="6.94186">
        <ele>840.2</ele>
        <time>2019-09-17T09:18:00Z</time>
      </trkpt>
      <trkpt lat="47.912" lon="6.94181">
        <ele>840.5</ele>
        <time>2019-09-17T09:18:03Z</time>
      </trkpt>
      <trkpt lat="47.91201" lon="6.94177">
        <ele>840.8</ele>
        <time>2019-09-17T09:18:05Z</time>
      </trkpt>
      <trkpt lat="47.91203" lon="6.94172">
        <ele>841.1</ele>
        <time>2019-09-17T09:18:08Z</time>
      </trkpt>
      <trkpt lat="47.91205" lon="6.94168">
        <ele>841.3</ele>
        <time>2019-09-17T09:18:10Z</time>
      </trkpt>
      <trkpt lat="47.91207" lon="6.94164">
        <ele>841.5</ele>
        <time>2019-09-17T09:18:12Z</time>
      </trkpt>
      <trkpt lat="47.91209" lon="6.9416">
        <ele>841.8</ele>
        <time>2019-09-17T09:18:14Z</time>
      </trkpt>
      <trkpt lat="47.91211" lon="6.94156">
        <ele>842.1</ele>
        <time>2019-09-17T09:18:16Z</time>
      </trkpt>
      <trkpt lat="47.91213" lon="6.94152">
        <ele>842.4</ele>
        <time>2019-09-17T09:18:18Z</time>
      </trkpt>
      <trkpt lat="47.91215" lon="6.94148">
        <ele>842.7</ele>
        <time>2019-09-17T09:18:21Z</time>
      </trkpt>
      <trkpt lat="47.91217" lon="6.94144">
        <ele>843</ele>
        <time>2019-09-17T09:18:23Z</time>
      </trkpt>
      <trkpt lat="47.91219" lon="6.9414">
        <ele>843.2</ele>
        <time>2019-09-17T09:18:25Z</time>
      </trkpt>
      <trkpt lat="47.9122" lon="6.94135">
        <ele>843.5</ele>
        <time>2019-09-17T09:18:28Z</time>
      </trkpt>
      <trkpt lat="47.91222" lon="6.9413">
        <ele>843.7</ele>
        <time>2019-09-17T09:18:31Z</time>
      </trkpt>
      <trkpt lat="47.91223" lon="6.94125">
        <ele>843.9</ele>
        <time>2019-09-17T09:18:34Z</time>
      </trkpt>
      <trkpt lat="47.91224" lon="6.9412">
        <ele>844.1</ele>
        <time>2019-09-17T09:18:37Z</time>
      </trkpt>
      <trkpt lat="47.91225" lon="6.94115">
        <ele>844.3</ele>
        <time>2019-09-17T09:18:40Z</time>
      </trkpt>
      <trkpt lat="47.91225" lon="6.9411">
        <ele>844.5</ele>
        <time>2019-09-17T09:18:44Z</time>
      </trkpt>
      <trkpt lat="47.91225" lon="6.94106">
        <ele>844.6</ele>
        <time>2019-09-17T09:18:47Z</time>
      </trkpt>
      <trkpt lat="47.91225" lon="6.94101">
        <ele>844.7</ele>
        <time>2019-09-17T09:18:50Z</time>
      </trkpt>
      <trkpt lat="47.91225" lon="6.94097">
        <ele>844.9</ele>
        <time>2019-09-17T09:18:53Z</time>
      </trkpt>
      <trkpt lat="47.91225" lon="6.94093">
        <ele>845</ele>
        <time>2019-09-17T09:18:56Z</time>
      </trkpt>
      <trkpt lat="47.91226" lon="6.94088">
        <ele>845.2</ele>
        <time>2019-09-17T09:18:59Z</time>
      </trkpt>
      <trkpt lat="47.91226" lon="6.94083">
        <ele>845.4</ele>
        <time>2019-09-17T09:19:02Z</time>
      </trkpt>
      <trkpt lat="47.91226" lon="6.94078">
        <ele>845.6</ele>
        <time>2019-09-17T09:19:05Z</time>
      </trkpt>
      <trkpt lat="47.91227" lon="6.94073">
        <ele>845.9</ele>
        <time>2019-09-17T09:19:07Z</time>
      </trkpt>
      <trkpt lat="47.91227" lon="6.94068">
        <ele>846.2</ele>
        <time>2019-09-17T09:19:09Z</time>
      </trkpt>
      <trkpt lat="47.91229" lon="6.94062">
        <ele>846.5</ele>
        <time>2019-09-17T09:19:11Z</time>
      </trkpt>
      <trkpt lat="47.91231" lon="6.94056">
        <ele>846.9</ele>
        <time>2019-09-17T09:19:13Z</time>
      </trkpt>
      <trkpt lat="47.91232" lon="6.94051">
        <ele>847.2</ele>
        <time>2019-09-17T09:19:15Z</time>
      </trkpt>
      <trkpt lat="47.91234" lon="6.94046">
        <ele>847.5</ele>
        <time>2019-09-17T09:19:17Z</time>
      </trkpt>
      <trkpt lat="47.91235" lon="6.9404">
        <ele>847.8</ele>
        <time>2019-09-17T09:19:19Z</time>
      </trkpt>
      <trkpt lat="47.91237" lon="6.94036">
        <ele>848.1</ele>
        <time>2019-09-17T09:19:21Z</time>
      </trkpt>
      <trkpt lat="47.91238" lon="6.94032">
        <ele>848.3</ele>
        <time>2019-09-17T09:19:23Z</time>
      </trkpt>
      <trkpt lat="47.9124" lon="6.94028">
        <ele>848.4</ele>
        <time>2019-09-17T09:19:25Z</time>
      </trkpt>
      <trkpt lat="47.91242" lon="6.94025">
        <ele>848.5</ele>
        <time>2019-09-17T09:19:27Z</time>
      </trkpt>
      <trkpt lat="47.91245" lon="6.94021">
        <ele>848.6</ele>
        <time>2019-09-17T09:19:30Z</time>
      </trkpt>
      <trkpt lat="47.91247" lon="6.94017">
        <ele>848.7</ele>
        <time>2019-09-17T09:19:32Z</time>
      </trkpt>
      <trkpt lat="47.91248" lon="6.94012">
        <ele>848.7</ele>
        <time>2019-09-17T09:19:34Z</time>
      </trkpt>
      <trkpt lat="47.91249" lon="6.94008">
        <ele>848.7</ele>
        <time>2019-09-17T09:19:36Z</time>
      </trkpt>
      <trkpt lat="47.9125" lon="6.94004">
        <ele>848.8</ele>
        <time>2019-09-17T09:19:38Z</time>
      </trkpt>
      <trkpt lat="47.9125" lon="6.93999">
        <ele>848.8</ele>
        <time>2019-09-17T09:19:41Z</time>
      </trkpt>
      <trkpt lat="47.9125" lon="6.93994">
        <ele>848.8</ele>
        <time>2019-09-17T09:19:44Z</time>
      </trkpt>
      <trkpt lat="47.9125" lon="6.93989">
        <ele>848.9</ele>
        <time>2019-09-17T09:19:46Z</time>
      </trkpt>
      <trkpt lat="47.91249" lon="6.93984">
        <ele>848.9</ele>
        <time>2019-09-17T09:19:48Z</time>
      </trkpt>
      <trkpt lat="47.91249" lon="6.93979">
        <ele>849</ele>
        <time>2019-09-17T09:19:50Z</time>
      </trkpt>
      <trkpt lat="47.91248" lon="6.93974">
        <ele>849.1</ele>
        <time>2019-09-17T09:19:52Z</time>
      </trkpt>
      <trkpt lat="47.91249" lon="6.93968">
        <ele>849.2</ele>
        <time>2019-09-17T09:19:54Z</time>
      </trkpt>
      <trkpt lat="47.91249" lon="6.93964">
        <ele>849.3</ele>
        <time>2019-09-17T09:19:56Z</time>
      </trkpt>
      <trkpt lat="47.91249" lon="6.9396">
        <ele>849.4</ele>
        <time>2019-09-17T09:19:58Z</time>
      </trkpt>
      <trkpt lat="47.9125" lon="6.93956">
        <ele>849.6</ele>
        <time>2019-09-17T09:20:00Z</time>
      </trkpt>
      <trkpt lat="47.91251" lon="6.93951">
        <ele>849.7</ele>
        <time>2019-09-17T09:20:02Z</time>
      </trkpt>
      <trkpt lat="47.91251" lon="6.93947">
        <ele>849.9</ele>
        <time>2019-09-17T09:20:04Z</time>
      </trkpt>
      <trkpt lat="47.91252" lon="6.93942">
        <ele>850.1</ele>
        <time>2019-09-17T09:20:06Z</time>
      </trkpt>
      <trkpt lat="47.91252" lon="6.93937">
        <ele>850.3</ele>
        <time>2019-09-17T09:20:09Z</time>
      </trkpt>
      <trkpt lat="47.91254" lon="6.93931">
        <ele>850.6</ele>
        <time>2019-09-17T09:20:12Z</time>
      </trkpt>
      <trkpt lat="47.91255" lon="6.93926">
        <ele>850.9</ele>
        <time>2019-09-17T09:20:15Z</time>
      </trkpt>
      <trkpt lat="47.91256" lon="6.93921">
        <ele>851.2</ele>
        <time>2019-09-17T09:20:18Z</time>
      </trkpt>
      <trkpt lat="47.91258" lon="6.93916">
        <ele>851.6</ele>
        <time>2019-09-17T09:20:21Z</time>
      </trkpt>
      <trkpt lat="47.9126" lon="6.93912">
        <ele>852</ele>
        <time>2019-09-17T09:20:24Z</time>
      </trkpt>
      <trkpt lat="47.91262" lon="6.93909">
        <ele>852.3</ele>
        <time>2019-09-17T09:20:26Z</time>
      </trkpt>
      <trkpt lat="47.91264" lon="6.93904">
        <ele>852.7</ele>
        <time>2019-09-17T09:20:28Z</time>
      </trkpt>
      <trkpt lat="47.91266" lon="6.939">
        <ele>853.1</ele>
        <time>2019-09-17T09:20:30Z</time>
      </trkpt>
      <trkpt lat="47.91267" lon="6.93896">
        <ele>853.5</ele>
        <time>2019-09-17T09:20:32Z</time>
      </trkpt>
      <trkpt lat="47.91269" lon="6.93891">
        <ele>854</ele>
        <time>2019-09-17T09:20:34Z</time>
      </trkpt>
      <trkpt lat="47.91271" lon="6.93887">
        <ele>854.4</ele>
        <time>2019-09-17T09:20:36Z</time>
      </trkpt>
      <trkpt lat="47.91273" lon="6.93884">
        <ele>854.8</ele>
        <time>2019-09-17T09:20:38Z</time>
      </trkpt>
      <trkpt lat="47.91275" lon="6.93879">
        <ele>855.4</ele>
        <time>2019-09-17T09:20:40Z</time>
      </trkpt>
      <trkpt lat="47.91277" lon="6.93874">
        <ele>856</ele>
        <time>2019-09-17T09:20:42Z</time>
      </trkpt>
      <trkpt lat="47.91278" lon="6.9387">
        <ele>856.5</ele>
        <time>2019-09-17T09:20:44Z</time>
      </trkpt>
      <trkpt lat="47.9128" lon="6.93866">
        <ele>857.1</ele>
        <time>2019-09-17T09:20:47Z</time>
      </trkpt>
      <trkpt lat="47.91281" lon="6.93862">
        <ele>857.5</ele>
        <time>2019-09-17T09:20:50Z</time>
      </trkpt>
      <trkpt lat="47.91283" lon="6.93859">
        <ele>858</ele>
        <time>2019-09-17T09:20:53Z</time>
      </trkpt>
      <trkpt lat="47.91285" lon="6.93856">
        <ele>858.5</ele>
        <time>2019-09-17T09:20:56Z</time>
      </trkpt>
      <trkpt lat="47.91287" lon="6.93852">
        <ele>859</ele>
        <time>2019-09-17T09:20:59Z</time>
      </trkpt>
      <trkpt lat="47.9129" lon="6.93848">
        <ele>859.7</ele>
        <time>2019-09-17T09:21:02Z</time>
      </trkpt>
      <trkpt lat="47.91292" lon="6.93844">
        <ele>860.3</ele>
        <time>2019-09-17T09:21:04Z</time>
      </trkpt>
      <trkpt lat="47.91294" lon="6.93841">
        <ele>860.7</ele>
        <time>2019-09-17T09:21:06Z</time>
      </trkpt>
      <trkpt lat="47.91296" lon="6.93837">
        <ele>861.2</ele>
        <time>2019-09-17T09:21:08Z</time>
      </trkpt>
      <trkpt lat="47.91298" lon="6.93834">
        <ele>861.7</ele>
        <time>2019-09-17T09:21:11Z</time>
      </trkpt>
      <trkpt lat="47.91301" lon="6.9383">
        <ele>862.2</ele>
        <time>2019-09-17T09:21:14Z</time>
      </trkpt>
      <trkpt lat="47.91303" lon="6.93826">
        <ele>862.5</ele>
        <time>2019-09-17T09:21:17Z</time>
      </trkpt>
      <trkpt lat="47.91305" lon="6.93823">
        <ele>862.8</ele>
        <time>2019-09-17T09:21:19Z</time>
      </trkpt>
      <trkpt lat="47.91307" lon="6.9382">
        <ele>862.9</ele>
        <time>2019-09-17T09:21:21Z</time>
      </trkpt>
      <trkpt lat="47.91309" lon="6.93816">
        <ele>863</ele>
        <time>2019-09-17T09:21:23Z</time>
      </trkpt>
      <trkpt lat="47.91312" lon="6.93813">
        <ele>863.2</ele>
        <time>2019-09-17T09:21:25Z</time>
      </trkpt>
      <trkpt lat="47.91314" lon="6.9381">
        <ele>863.3</ele>
        <time>2019-09-17T09:21:27Z</time>
      </trkpt>
      <trkpt lat="47.91317" lon="6.93807">
        <ele>863.4</ele>
        <time>2019-09-17T09:21:30Z</time>
      </trkpt>
      <trkpt lat="47.9132" lon="6.93806">
        <ele>863.4</ele>
        <time>2019-09-17T09:21:32Z</time>
      </trkpt>
      <trkpt lat="47.91323" lon="6.93805">
        <ele>863.5</ele>
        <time>2019-09-17T09:21:34Z</time>
      </trkpt>
      <trkpt lat="47.91326" lon="6.93804">
        <ele>863.6</ele>
        <time>2019-09-17T09:21:36Z</time>
      </trkpt>
      <trkpt lat="47.91329" lon="6.938">
        <ele>863.7</ele>
        <time>2019-09-17T09:21:39Z</time>
      </trkpt>
      <trkpt lat="47.91332" lon="6.93797">
        <ele>863.8</ele>
        <time>2019-09-17T09:21:42Z</time>
      </trkpt>
      <trkpt lat="47.91334" lon="6.93795">
        <ele>864</ele>
        <time>2019-09-17T09:21:45Z</time>
      </trkpt>
      <trkpt lat="47.91337" lon="6.93793">
        <ele>864.2</ele>
        <time>2019-09-17T09:21:48Z</time>
      </trkpt>
      <trkpt lat="47.91341" lon="6.93792">
        <ele>864.5</ele>
        <time>2019-09-17T09:21:52Z</time>
      </trkpt>
      <trkpt lat="47.91343" lon="6.9379">
        <ele>864.7</ele>
        <time>2019-09-17T09:21:55Z</time>
      </trkpt>
      <trkpt lat="47.91346" lon="6.93788">
        <ele>865</ele>
        <time>2019-09-17T09:21:58Z</time>
      </trkpt>
      <trkpt lat="47.9135" lon="6.93787">
        <ele>865.3</ele>
        <time>2019-09-17T09:22:01Z</time>
      </trkpt>
      <trkpt lat="47.91352" lon="6.93785">
        <ele>865.6</ele>
        <time>2019-09-17T09:22:03Z</time>
      </trkpt>
      <trkpt lat="47.91356" lon="6.93782">
        <ele>865.9</ele>
        <time>2019-09-17T09:22:05Z</time>
      </trkpt>
      <trkpt lat="47.91359" lon="6.93781">
        <ele>866.2</ele>
        <time>2019-09-17T09:22:07Z</time>
      </trkpt>
      <trkpt lat="47.91362" lon="6.93779">
        <ele>866.6</ele>
        <time>2019-09-17T09:22:09Z</time>
      </trkpt>
      <trkpt lat="47.91366" lon="6.93777">
        <ele>866.9</ele>
        <time>2019-09-17T09:22:11Z</time>
      </trkpt>
      <trkpt lat="47.91369" lon="6.93775">
        <ele>867.2</ele>
        <time>2019-09-17T09:22:13Z</time>
      </trkpt>
      <trkpt lat="47.91372" lon="6.93773">
        <ele>867.5</ele>
        <time>2019-09-17T09:22:15Z</time>
      </trkpt>
      <trkpt lat="47.91375" lon="6.9377">
        <ele>867.9</ele>
        <time>2019-09-17T09:22:17Z</time>
      </trkpt>
      <trkpt lat="47.91379" lon="6.93766">
        <ele>868.3</ele>
        <time>2019-09-17T09:22:19Z</time>
      </trkpt>
      <trkpt lat="47.91382" lon="6.93763">
        <ele>868.7</ele>
        <time>2019-09-17T09:22:21Z</time>
      </trkpt>
      <trkpt lat="47.91385" lon="6.93761">
        <ele>868.9</ele>
        <time>2019-09-17T09:22:23Z</time>
      </trkpt>
      <trkpt lat="47.91388" lon="6.93759">
        <ele>869.2</ele>
        <time>2019-09-17T09:22:25Z</time>
      </trkpt>
      <trkpt lat="47.91391" lon="6.93757">
        <ele>869.4</ele>
        <time>2019-09-17T09:22:28Z</time>
      </trkpt>
      <trkpt lat="47.91394" lon="6.93755">
        <ele>869.5</ele>
        <time>2019-09-17T09:22:30Z</time>
      </trkpt>
      <trkpt lat="47.91396" lon="6.93752">
        <ele>869.6</ele>
        <time>2019-09-17T09:22:32Z</time>
      </trkpt>
      <trkpt lat="47.91398" lon="6.93749">
        <ele>869.7</ele>
        <time>2019-09-17T09:22:34Z</time>
      </trkpt>
      <trkpt lat="47.91402" lon="6.93746">
        <ele>869.7</ele>
        <time>2019-09-17T09:22:36Z</time>
      </trkpt>
      <trkpt lat="47.91404" lon="6.93744">
        <ele>869.7</ele>
        <time>2019-09-17T09:22:38Z</time>
      </trkpt>
      <trkpt lat="47.91406" lon="6.93742">
        <ele>869.7</ele>
        <time>2019-09-17T09:22:40Z</time>
      </trkpt>
      <trkpt lat="47.91409" lon="6.9374">
        <ele>869.7</ele>
        <time>2019-09-17T09:22:42Z</time>
      </trkpt>
      <trkpt lat="47.91413" lon="6.93738">
        <ele>869.6</ele>
        <time>2019-09-17T09:22:45Z</time>
      </trkpt>
      <trkpt lat="47.91416" lon="6.93736">
        <ele>869.4</ele>
        <time>2019-09-17T09:22:48Z</time>
      </trkpt>
      <trkpt lat="47.91419" lon="6.93734">
        <ele>869.3</ele>
        <time>2019-09-17T09:22:51Z</time>
      </trkpt>
      <trkpt lat="47.91423" lon="6.93732">
        <ele>869</ele>
        <time>2019-09-17T09:22:54Z</time>
      </trkpt>
      <trkpt lat="47.91426" lon="6.93728">
        <ele>868.8</ele>
        <time>2019-09-17T09:22:57Z</time>
      </trkpt>
      <trkpt lat="47.91428" lon="6.93725">
        <ele>868.6</ele>
        <time>2019-09-17T09:22:59Z</time>
      </trkpt>
      <trkpt lat="47.91431" lon="6.93722">
        <ele>868.5</ele>
        <time>2019-09-17T09:23:02Z</time>
      </trkpt>
      <trkpt lat="47.91434" lon="6.93719">
        <ele>868.4</ele>
        <time>2019-09-17T09:23:05Z</time>
      </trkpt>
      <trkpt lat="47.91436" lon="6.93715">
        <ele>868.4</ele>
        <time>2019-09-17T09:23:07Z</time>
      </trkpt>
      <trkpt lat="47.91438" lon="6.93712">
        <ele>868.4</ele>
        <time>2019-09-17T09:23:09Z</time>
      </trkpt>
      <trkpt lat="47.9144" lon="6.93708">
        <ele>868.5</ele>
        <time>2019-09-17T09:23:12Z</time>
      </trkpt>
      <trkpt lat="47.91442" lon="6.93704">
        <ele>868.7</ele>
        <time>2019-09-17T09:23:17Z</time>
      </trkpt>
      <trkpt lat="47.91443" lon="6.93699">
        <ele>868.8</ele>
        <time>2019-09-17T09:23:21Z</time>
      </trkpt>
      <trkpt lat="47.91445" lon="6.93695">
        <ele>869</ele>
        <time>2019-09-17T09:23:25Z</time>
      </trkpt>
      <trkpt lat="47.91446" lon="6.93691">
        <ele>869.1</ele>
        <time>2019-09-17T09:23:28Z</time>
      </trkpt>
      <trkpt lat="47.91448" lon="6.93686">
        <ele>869.6</ele>
        <time>2019-09-17T09:23:31Z</time>
      </trkpt>
      <trkpt lat="47.91449" lon="6.93681">
        <ele>870</ele>
        <time>2019-09-17T09:23:33Z</time>
      </trkpt>
      <trkpt lat="47.91451" lon="6.93677">
        <ele>870.5</ele>
        <time>2019-09-17T09:23:35Z</time>
      </trkpt>
      <trkpt lat="47.91452" lon="6.93673">
        <ele>871.1</ele>
        <time>2019-09-17T09:23:38Z</time>
      </trkpt>
      <trkpt lat="47.91453" lon="6.93668">
        <ele>871.6</ele>
        <time>2019-09-17T09:23:41Z</time>
      </trkpt>
      <trkpt lat="47.91453" lon="6.93664">
        <ele>872.2</ele>
        <time>2019-09-17T09:23:44Z</time>
      </trkpt>
      <trkpt lat="47.91453" lon="6.93659">
        <ele>872.8</ele>
        <time>2019-09-17T09:23:47Z</time>
      </trkpt>
      <trkpt lat="47.91454" lon="6.93655">
        <ele>873.3</ele>
        <time>2019-09-17T09:23:50Z</time>
      </trkpt>
      <trkpt lat="47.91455" lon="6.9365">
        <ele>873.8</ele>
        <time>2019-09-17T09:23:53Z</time>
      </trkpt>
      <trkpt lat="47.91456" lon="6.93646">
        <ele>874.1</ele>
        <time>2019-09-17T09:23:55Z</time>
      </trkpt>
      <trkpt lat="47.91457" lon="6.93642">
        <ele>874.6</ele>
        <time>2019-09-17T09:23:57Z</time>
      </trkpt>
      <trkpt lat="47.91459" lon="6.93638">
        <ele>875.1</ele>
        <time>2019-09-17T09:23:59Z</time>
      </trkpt>
      <trkpt lat="47.9146" lon="6.93634">
        <ele>875.7</ele>
        <time>2019-09-17T09:24:01Z</time>
      </trkpt>
      <trkpt lat="47.91461" lon="6.9363">
        <ele>876.1</ele>
        <time>2019-09-17T09:24:03Z</time>
      </trkpt>
      <trkpt lat="47.91463" lon="6.93626">
        <ele>876.5</ele>
        <time>2019-09-17T09:24:05Z</time>
      </trkpt>
      <trkpt lat="47.91464" lon="6.93622">
        <ele>877</ele>
        <time>2019-09-17T09:24:07Z</time>
      </trkpt>
      <trkpt lat="47.91465" lon="6.93616">
        <ele>877.6</ele>
        <time>2019-09-17T09:24:10Z</time>
      </trkpt>
      <trkpt lat="47.91466" lon="6.93611">
        <ele>878.1</ele>
        <time>2019-09-17T09:24:12Z</time>
      </trkpt>
      <trkpt lat="47.91467" lon="6.93607">
        <ele>878.4</ele>
        <time>2019-09-17T09:24:14Z</time>
      </trkpt>
      <trkpt lat="47.91469" lon="6.93604">
        <ele>878.7</ele>
        <time>2019-09-17T09:24:16Z</time>
      </trkpt>
      <trkpt lat="47.91471" lon="6.936">
        <ele>879.1</ele>
        <time>2019-09-17T09:24:18Z</time>
      </trkpt>
      <trkpt lat="47.91473" lon="6.93596">
        <ele>879.4</ele>
        <time>2019-09-17T09:24:20Z</time>
      </trkpt>
      <trkpt lat="47.91476" lon="6.93592">
        <ele>879.9</ele>
        <time>2019-09-17T09:24:23Z</time>
      </trkpt>
      <trkpt lat="47.91478" lon="6.93588">
        <ele>880.2</ele>
        <time>2019-09-17T09:24:25Z</time>
      </trkpt>
      <trkpt lat="47.9148" lon="6.93584">
        <ele>880.5</ele>
        <time>2019-09-17T09:24:27Z</time>
      </trkpt>
      <trkpt lat="47.91483" lon="6.93581">
        <ele>880.8</ele>
        <time>2019-09-17T09:24:29Z</time>
      </trkpt>
      <trkpt lat="47.91485" lon="6.93577">
        <ele>881</ele>
        <time>2019-09-17T09:24:31Z</time>
      </trkpt>
      <trkpt lat="47.91487" lon="6.93574">
        <ele>881.2</ele>
        <time>2019-09-17T09:24:33Z</time>
      </trkpt>
      <trkpt lat="47.91489" lon="6.93569">
        <ele>881.4</ele>
        <time>2019-09-17T09:24:35Z</time>
      </trkpt>
      <trkpt lat="47.91492" lon="6.93565">
        <ele>881.6</ele>
        <time>2019-09-17T09:24:37Z</time>
      </trkpt>
      <trkpt lat="47.91494" lon="6.93561">
        <ele>881.7</ele>
        <time>2019-09-17T09:24:39Z</time>
      </trkpt>
      <trkpt lat="47.91495" lon="6.93557">
        <ele>881.8</ele>
        <time>2019-09-17T09:24:41Z</time>
      </trkpt>
      <trkpt lat="47.91496" lon="6.93552">
        <ele>881.9</ele>
        <time>2019-09-17T09:24:43Z</time>
      </trkpt>
      <trkpt lat="47.91497" lon="6.93548">
        <ele>882</ele>
        <time>2019-09-17T09:24:45Z</time>
      </trkpt>
      <trkpt lat="47.91499" lon="6.93543">
        <ele>882</ele>
        <time>2019-09-17T09:24:47Z</time>
      </trkpt>
      <trkpt lat="47.915" lon="6.93538">
        <ele>882.1</ele>
        <time>2019-09-17T09:24:49Z</time>
      </trkpt>
      <trkpt lat="47.91502" lon="6.93534">
        <ele>882.2</ele>
        <time>2019-09-17T09:24:51Z</time>
      </trkpt>
      <trkpt lat="47.91504" lon="6.93531">
        <ele>882.2</ele>
        <time>2019-09-17T09:24:53Z</time>
      </trkpt>
      <trkpt lat="47.91506" lon="6.93528">
        <ele>882.3</ele>
        <time>2019-09-17T09:24:55Z</time>
      </trkpt>
      <trkpt lat="47.91509" lon="6.93525">
        <ele>882.4</ele>
        <time>2019-09-17T09:24:57Z</time>
      </trkpt>
      <trkpt lat="47.91511" lon="6.93522">
        <ele>882.5</ele>
        <time>2019-09-17T09:24:59Z</time>
      </trkpt>
      <trkpt lat="47.91513" lon="6.93519">
        <ele>882.7</ele>
        <time>2019-09-17T09:25:01Z</time>
      </trkpt>
      <trkpt lat="47.91516" lon="6.93516">
        <ele>882.9</ele>
        <time>2019-09-17T09:25:03Z</time>
      </trkpt>
      <trkpt lat="47.91519" lon="6.93515">
        <ele>883.2</ele>
        <time>2019-09-17T09:25:05Z</time>
      </trkpt>
      <trkpt lat="47.91522" lon="6.93514">
        <ele>883.5</ele>
        <time>2019-09-17T09:25:07Z</time>
      </trkpt>
      <trkpt lat="47.91524" lon="6.93513">
        <ele>883.7</ele>
        <time>2019-09-17T09:25:09Z</time>
      </trkpt>
      <trkpt lat="47.91527" lon="6.9351">
        <ele>883.9</ele>
        <time>2019-09-17T09:25:11Z</time>
      </trkpt>
      <trkpt lat="47.9153" lon="6.93508">
        <ele>884.2</ele>
        <time>2019-09-17T09:25:13Z</time>
      </trkpt>
      <trkpt lat="47.91533" lon="6.93507">
        <ele>884.4</ele>
        <time>2019-09-17T09:25:15Z</time>
      </trkpt>
      <trkpt lat="47.91536" lon="6.93506">
        <ele>884.7</ele>
        <time>2019-09-17T09:25:17Z</time>
      </trkpt>
      <trkpt lat="47.91538" lon="6.93505">
        <ele>885</ele>
        <time>2019-09-17T09:25:19Z</time>
      </trkpt>
      <trkpt lat="47.91541" lon="6.93504">
        <ele>885.3</ele>
        <time>2019-09-17T09:25:21Z</time>
      </trkpt>
      <trkpt lat="47.91544" lon="6.93503">
        <ele>885.6</ele>
        <time>2019-09-17T09:25:25Z</time>
      </trkpt>
      <trkpt lat="47.91547" lon="6.935">
        <ele>885.9</ele>
        <time>2019-09-17T09:25:30Z</time>
      </trkpt>
      <trkpt lat="47.91549" lon="6.93497">
        <ele>886.2</ele>
        <time>2019-09-17T09:25:34Z</time>
      </trkpt>
      <trkpt lat="47.91551" lon="6.93495">
        <ele>886.5</ele>
        <time>2019-09-17T09:25:37Z</time>
      </trkpt>
      <trkpt lat="47.91554" lon="6.93491">
        <ele>886.8</ele>
        <time>2019-09-17T09:25:40Z</time>
      </trkpt>
      <trkpt lat="47.91557" lon="6.93488">
        <ele>887</ele>
        <time>2019-09-17T09:25:43Z</time>
      </trkpt>
      <trkpt lat="47.9156" lon="6.93484">
        <ele>887.2</ele>
        <time>2019-09-17T09:25:46Z</time>
      </trkpt>
      <trkpt lat="47.91563" lon="6.93482">
        <ele>887.4</ele>
        <time>2019-09-17T09:25:48Z</time>
      </trkpt>
      <trkpt lat="47.91566" lon="6.93481">
        <ele>887.5</ele>
        <time>2019-09-17T09:25:50Z</time>
      </trkpt>
      <trkpt lat="47.9157" lon="6.9348">
        <ele>887.6</ele>
        <time>2019-09-17T09:25:52Z</time>
      </trkpt>
      <trkpt lat="47.91573" lon="6.93478">
        <ele>887.8</ele>
        <time>2019-09-17T09:25:54Z</time>
      </trkpt>
      <trkpt lat="47.91576" lon="6.93475">
        <ele>887.9</ele>
        <time>2019-09-17T09:25:56Z</time>
      </trkpt>
      <trkpt lat="47.91579" lon="6.93472">
        <ele>888</ele>
        <time>2019-09-17T09:25:58Z</time>
      </trkpt>
      <trkpt lat="47.91582" lon="6.93468">
        <ele>888.1</ele>
        <time>2019-09-17T09:26:00Z</time>
      </trkpt>
      <trkpt lat="47.91585" lon="6.93465">
        <ele>888.3</ele>
        <time>2019-09-17T09:26:02Z</time>
      </trkpt>
      <trkpt lat="47.91588" lon="6.93462">
        <ele>888.4</ele>
        <time>2019-09-17T09:26:04Z</time>
      </trkpt>
      <trkpt lat="47.91591" lon="6.93459">
        <ele>888.4</ele>
        <time>2019-09-17T09:26:06Z</time>
      </trkpt>
      <trkpt lat="47.91594" lon="6.93455">
        <ele>888.5</ele>
        <time>2019-09-17T09:26:08Z</time>
      </trkpt>
      <trkpt lat="47.91597" lon="6.93452">
        <ele>888.6</ele>
        <time>2019-09-17T09:26:10Z</time>
      </trkpt>
      <trkpt lat="47.916" lon="6.93449">
        <ele>888.6</ele>
        <time>2019-09-17T09:26:12Z</time>
      </trkpt>
      <trkpt lat="47.91602" lon="6.93445">
        <ele>888.6</ele>
        <time>2019-09-17T09:26:15Z</time>
      </trkpt>
      <trkpt lat="47.91604" lon="6.93442">
        <ele>888.6</ele>
        <time>2019-09-17T09:26:17Z</time>
      </trkpt>
      <trkpt lat="47.91605" lon="6.93437">
        <ele>888.5</ele>
        <time>2019-09-17T09:26:20Z</time>
      </trkpt>
      <trkpt lat="47.91606" lon="6.93433">
        <ele>888.5</ele>
        <time>2019-09-17T09:26:22Z</time>
      </trkpt>
      <trkpt lat="47.91607" lon="6.93428">
        <ele>888.4</ele>
        <time>2019-09-17T09:26:24Z</time>
      </trkpt>
      <trkpt lat="47.91607" lon="6.93423">
        <ele>888.3</ele>
        <time>2019-09-17T09:26:27Z</time>
      </trkpt>
      <trkpt lat="47.91607" lon="6.93418">
        <ele>888.2</ele>
        <time>2019-09-17T09:26:30Z</time>
      </trkpt>
      <trkpt lat="47.91607" lon="6.93414">
        <ele>888.1</ele>
        <time>2019-09-17T09:26:32Z</time>
      </trkpt>
      <trkpt lat="47.91607" lon="6.93409">
        <ele>888</ele>
        <time>2019-09-17T09:26:34Z</time>
      </trkpt>
      <trkpt lat="47.91607" lon="6.93404">
        <ele>888</ele>
        <time>2019-09-17T09:26:36Z</time>
      </trkpt>
      <trkpt lat="47.91607" lon="6.93399">
        <ele>887.9</ele>
        <time>2019-09-17T09:26:38Z</time>
      </trkpt>
      <trkpt lat="47.91606" lon="6.93394">
        <ele>887.9</ele>
        <time>2019-09-17T09:26:40Z</time>
      </trkpt>
      <trkpt lat="47.91607" lon="6.9339">
        <ele>887.8</ele>
        <time>2019-09-17T09:26:42Z</time>
      </trkpt>
      <trkpt lat="47.91608" lon="6.93386">
        <ele>887.8</ele>
        <time>2019-09-17T09:26:44Z</time>
      </trkpt>
      <trkpt lat="47.9161" lon="6.9338">
        <ele>887.7</ele>
        <time>2019-09-17T09:26:47Z</time>
      </trkpt>
      <trkpt lat="47.91611" lon="6.93376">
        <ele>887.6</ele>
        <time>2019-09-17T09:26:49Z</time>
      </trkpt>
      <trkpt lat="47.91614" lon="6.93372">
        <ele>887.6</ele>
        <time>2019-09-17T09:26:51Z</time>
      </trkpt>
      <trkpt lat="47.91616" lon="6.9337">
        <ele>887.5</ele>
        <time>2019-09-17T09:26:53Z</time>
      </trkpt>
      <trkpt lat="47.91619" lon="6.93367">
        <ele>887.4</ele>
        <time>2019-09-17T09:26:56Z</time>
      </trkpt>
      <trkpt lat="47.91621" lon="6.93364">
        <ele>887.3</ele>
        <time>2019-09-17T09:26:59Z</time>
      </trkpt>
      <trkpt lat="47.91623" lon="6.93359">
        <ele>887.3</ele>
        <time>2019-09-17T09:27:02Z</time>
      </trkpt>
      <trkpt lat="47.91625" lon="6.93354">
        <ele>887.2</ele>
        <time>2019-09-17T09:27:05Z</time>
      </trkpt>
      <trkpt lat="47.91627" lon="6.93351">
        <ele>887.1</ele>
        <time>2019-09-17T09:27:07Z</time>
      </trkpt>
      <trkpt lat="47.9163" lon="6.93347">
        <ele>887.1</ele>
        <time>2019-09-17T09:27:10Z</time>
      </trkpt>
      <trkpt lat="47.91632" lon="6.93344">
        <ele>887</ele>
        <time>2019-09-17T09:27:12Z</time>
      </trkpt>
      <trkpt lat="47.91634" lon="6.9334">
        <ele>886.9</ele>
        <time>2019-09-17T09:27:15Z</time>
      </trkpt>
      <trkpt lat="47.91636" lon="6.93337">
        <ele>886.9</ele>
        <time>2019-09-17T09:27:18Z</time>
      </trkpt>
      <trkpt lat="47.91639" lon="6.93333">
        <ele>886.8</ele>
        <time>2019-09-17T09:27:21Z</time>
      </trkpt>
      <trkpt lat="47.91643" lon="6.93332">
        <ele>886.7</ele>
        <time>2019-09-17T09:27:24Z</time>
      </trkpt>
      <trkpt lat="47.91646" lon="6.9333">
        <ele>886.7</ele>
        <time>2019-09-17T09:27:26Z</time>
      </trkpt>
      <trkpt lat="47.91649" lon="6.93328">
        <ele>886.6</ele>
        <time>2019-09-17T09:27:28Z</time>
      </trkpt>
      <trkpt lat="47.91651" lon="6.93326">
        <ele>886.5</ele>
        <time>2019-09-17T09:27:30Z</time>
      </trkpt>
      <trkpt lat="47.91655" lon="6.93323">
        <ele>886.5</ele>
        <time>2019-09-17T09:27:33Z</time>
      </trkpt>
      <trkpt lat="47.91658" lon="6.9332">
        <ele>886.5</ele>
        <time>2019-09-17T09:27:36Z</time>
      </trkpt>
      <trkpt lat="47.91661" lon="6.93317">
        <ele>886.5</ele>
        <time>2019-09-17T09:27:39Z</time>
      </trkpt>
      <trkpt lat="47.91664" lon="6.93313">
        <ele>886.6</ele>
        <time>2019-09-17T09:27:42Z</time>
      </trkpt>
      <trkpt lat="47.91666" lon="6.9331">
        <ele>886.6</ele>
        <time>2019-09-17T09:27:45Z</time>
      </trkpt>
      <trkpt lat="47.91669" lon="6.93307">
        <ele>886.7</ele>
        <time>2019-09-17T09:27:49Z</time>
      </trkpt>
      <trkpt lat="47.91671" lon="6.93305">
        <ele>886.8</ele>
        <time>2019-09-17T09:27:52Z</time>
      </trkpt>
      <trkpt lat="47.91674" lon="6.93303">
        <ele>886.8</ele>
        <time>2019-09-17T09:27:55Z</time>
      </trkpt>
      <trkpt lat="47.91676" lon="6.933">
        <ele>886.9</ele>
        <time>2019-09-17T09:27:58Z</time>
      </trkpt>
      <trkpt lat="47.91678" lon="6.93298">
        <ele>886.9</ele>
        <time>2019-09-17T09:28:01Z</time>
      </trkpt>
      <trkpt lat="47.91681" lon="6.93296">
        <ele>887</ele>
        <time>2019-09-17T09:28:04Z</time>
      </trkpt>
      <trkpt lat="47.91683" lon="6.93293">
        <ele>887</ele>
        <time>2019-09-17T09:28:06Z</time>
      </trkpt>
      <trkpt lat="47.91685" lon="6.93291">
        <ele>887.1</ele>
        <time>2019-09-17T09:28:08Z</time>
      </trkpt>
      <trkpt lat="47.91688" lon="6.93287">
        <ele>887.2</ele>
        <time>2019-09-17T09:28:11Z</time>
      </trkpt>
      <trkpt lat="47.9169" lon="6.93284">
        <ele>887.3</ele>
        <time>2019-09-17T09:28:13Z</time>
      </trkpt>
      <trkpt lat="47.91692" lon="6.93281">
        <ele>887.4</ele>
        <time>2019-09-17T09:28:15Z</time>
      </trkpt>
      <trkpt lat="47.91694" lon="6.93278">
        <ele>887.4</ele>
        <time>2019-09-17T09:28:17Z</time>
      </trkpt>
      <trkpt lat="47.91698" lon="6.93275">
        <ele>887.6</ele>
        <time>2019-09-17T09:28:20Z</time>
      </trkpt>
      <trkpt lat="47.91701" lon="6.93273">
        <ele>887.8</ele>
        <time>2019-09-17T09:28:22Z</time>
      </trkpt>
      <trkpt lat="47.91703" lon="6.93271">
        <ele>888</ele>
        <time>2019-09-17T09:28:24Z</time>
      </trkpt>
      <trkpt lat="47.91706" lon="6.93268">
        <ele>888.2</ele>
        <time>2019-09-17T09:28:26Z</time>
      </trkpt>
      <trkpt lat="47.91709" lon="6.93265">
        <ele>888.5</ele>
        <time>2019-09-17T09:28:28Z</time>
      </trkpt>
      <trkpt lat="47.91711" lon="6.93263">
        <ele>888.7</ele>
        <time>2019-09-17T09:28:30Z</time>
      </trkpt>
      <trkpt lat="47.91714" lon="6.9326">
        <ele>889</ele>
        <time>2019-09-17T09:28:32Z</time>
      </trkpt>
      <trkpt lat="47.91717" lon="6.93257">
        <ele>889.3</ele>
        <time>2019-09-17T09:28:34Z</time>
      </trkpt>
      <trkpt lat="47.9172" lon="6.93255">
        <ele>889.6</ele>
        <time>2019-09-17T09:28:36Z</time>
      </trkpt>
      <trkpt lat="47.91723" lon="6.93253">
        <ele>889.8</ele>
        <time>2019-09-17T09:28:38Z</time>
      </trkpt>
      <trkpt lat="47.91726" lon="6.93249">
        <ele>890</ele>
        <time>2019-09-17T09:28:41Z</time>
      </trkpt>
      <trkpt lat="47.91728" lon="6.93247">
        <ele>890.2</ele>
        <time>2019-09-17T09:28:43Z</time>
      </trkpt>
      <trkpt lat="47.91731" lon="6.93244">
        <ele>890.4</ele>
        <time>2019-09-17T09:28:45Z</time>
      </trkpt>
      <trkpt lat="47.91733" lon="6.93241">
        <ele>890.7</ele>
        <time>2019-09-17T09:28:47Z</time>
      </trkpt>
      <trkpt lat="47.91736" lon="6.93239">
        <ele>890.9</ele>
        <time>2019-09-17T09:28:49Z</time>
      </trkpt>
      <trkpt lat="47.91738" lon="6.93237">
        <ele>891.1</ele>
        <time>2019-09-17T09:28:51Z</time>
      </trkpt>
      <trkpt lat="47.91741" lon="6.93234">
        <ele>891.3</ele>
        <time>2019-09-17T09:28:53Z</time>
      </trkpt>
      <trkpt lat="47.91743" lon="6.93232">
        <ele>891.5</ele>
        <time>2019-09-17T09:28:55Z</time>
      </trkpt>
      <trkpt lat="47.91746" lon="6.9323">
        <ele>891.8</ele>
        <time>2019-09-17T09:28:57Z</time>
      </trkpt>
      <trkpt lat="47.91748" lon="6.93227">
        <ele>892</ele>
        <time>2019-09-17T09:28:59Z</time>
      </trkpt>
      <trkpt lat="47.91751" lon="6.93224">
        <ele>892.3</ele>
        <time>2019-09-17T09:29:01Z</time>
      </trkpt>
      <trkpt lat="47.91753" lon="6.9322">
        <ele>892.6</ele>
        <time>2019-09-17T09:29:03Z</time>
      </trkpt>
      <trkpt lat="47.91754" lon="6.93216">
        <ele>892.8</ele>
        <time>2019-09-17T09:29:05Z</time>
      </trkpt>
      <trkpt lat="47.91756" lon="6.93212">
        <ele>893</ele>
        <time>2019-09-17T09:29:08Z</time>
      </trkpt>
      <trkpt lat="47.91758" lon="6.93208">
        <ele>893.2</ele>
        <time>2019-09-17T09:29:11Z</time>
      </trkpt>
      <trkpt lat="47.9176" lon="6.93205">
        <ele>893.4</ele>
        <time>2019-09-17T09:29:14Z</time>
      </trkpt>
      <trkpt lat="47.91762" lon="6.93201">
        <ele>893.7</ele>
        <time>2019-09-17T09:29:17Z</time>
      </trkpt>
      <trkpt lat="47.91765" lon="6.93197">
        <ele>894.1</ele>
        <time>2019-09-17T09:29:20Z</time>
      </trkpt>
      <trkpt lat="47.91768" lon="6.93193">
        <ele>894.5</ele>
        <time>2019-09-17T09:29:23Z</time>
      </trkpt>
      <trkpt lat="47.9177" lon="6.9319">
        <ele>894.8</ele>
        <time>2019-09-17T09:29:26Z</time>
      </trkpt>
      <trkpt lat="47.91772" lon="6.93186">
        <ele>895.2</ele>
        <time>2019-09-17T09:29:29Z</time>
      </trkpt>
      <trkpt lat="47.91774" lon="6.93182">
        <ele>895.5</ele>
        <time>2019-09-17T09:29:32Z</time>
      </trkpt>
      <trkpt lat="47.91775" lon="6.93177">
        <ele>896</ele>
        <time>2019-09-17T09:29:35Z</time>
      </trkpt>
      <trkpt lat="47.91777" lon="6.93172">
        <ele>896.5</ele>
        <time>2019-09-17T09:29:38Z</time>
      </trkpt>
      <trkpt lat="47.91778" lon="6.93169">
        <ele>896.9</ele>
        <time>2019-09-17T09:29:41Z</time>
      </trkpt>
      <trkpt lat="47.91779" lon="6.93164">
        <ele>897.4</ele>
        <time>2019-09-17T09:29:44Z</time>
      </trkpt>
      <trkpt lat="47.91781" lon="6.93159">
        <ele>897.9</ele>
        <time>2019-09-17T09:29:47Z</time>
      </trkpt>
      <trkpt lat="47.91782" lon="6.93155">
        <ele>898.2</ele>
        <time>2019-09-17T09:29:49Z</time>
      </trkpt>
      <trkpt lat="47.91783" lon="6.9315">
        <ele>898.5</ele>
        <time>2019-09-17T09:29:52Z</time>
      </trkpt>
      <trkpt lat="47.91785" lon="6.93146">
        <ele>898.8</ele>
        <time>2019-09-17T09:29:55Z</time>
      </trkpt>
      <trkpt lat="47.91787" lon="6.93142">
        <ele>899.1</ele>
        <time>2019-09-17T09:29:58Z</time>
      </trkpt>
      <trkpt lat="47.9179" lon="6.93138">
        <ele>899.4</ele>
        <time>2019-09-17T09:30:01Z</time>
      </trkpt>
      <trkpt lat="47.91792" lon="6.93134">
        <ele>899.7</ele>
        <time>2019-09-17T09:30:04Z</time>
      </trkpt>
      <trkpt lat="47.91794" lon="6.93131">
        <ele>900</ele>
        <time>2019-09-17T09:30:07Z</time>
      </trkpt>
      <trkpt lat="47.91796" lon="6.93128">
        <ele>900.2</ele>
        <time>2019-09-17T09:30:10Z</time>
      </trkpt>
      <trkpt lat="47.91798" lon="6.93125">
        <ele>900.5</ele>
        <time>2019-09-17T09:30:13Z</time>
      </trkpt>
      <trkpt lat="47.918" lon="6.93122">
        <ele>900.7</ele>
        <time>2019-09-17T09:30:17Z</time>
      </trkpt>
      <trkpt lat="47.91803" lon="6.93121">
        <ele>901</ele>
        <time>2019-09-17T09:30:22Z</time>
      </trkpt>
      <trkpt lat="47.91806" lon="6.93117">
        <ele>901.4</ele>
        <time>2019-09-17T09:30:26Z</time>
      </trkpt>
      <trkpt lat="47.91809" lon="6.93115">
        <ele>901.8</ele>
        <time>2019-09-17T09:30:29Z</time>
      </trkpt>
      <trkpt lat="47.91811" lon="6.93113">
        <ele>902.2</ele>
        <time>2019-09-17T09:30:31Z</time>
      </trkpt>
      <trkpt lat="47.91814" lon="6.93111">
        <ele>902.6</ele>
        <time>2019-09-17T09:30:33Z</time>
      </trkpt>
      <trkpt lat="47.91817" lon="6.93108">
        <ele>903</ele>
        <time>2019-09-17T09:30:35Z</time>
      </trkpt>
      <trkpt lat="47.91821" lon="6.93104">
        <ele>903.6</ele>
        <time>2019-09-17T09:30:37Z</time>
      </trkpt>
      <trkpt lat="47.91824" lon="6.931">
        <ele>904.1</ele>
        <time>2019-09-17T09:30:39Z</time>
      </trkpt>
      <trkpt lat="47.91828" lon="6.93095">
        <ele>904.6</ele>
        <time>2019-09-17T09:30:41Z</time>
      </trkpt>
      <trkpt lat="47.9183" lon="6.93091">
        <ele>904.9</ele>
        <time>2019-09-17T09:30:43Z</time>
      </trkpt>
      <trkpt lat="47.91833" lon="6.93087">
        <ele>905.2</ele>
        <time>2019-09-17T09:30:46Z</time>
      </trkpt>
      <trkpt lat="47.91836" lon="6.93084">
        <ele>905.3</ele>
        <time>2019-09-17T09:30:48Z</time>
      </trkpt>
      <trkpt lat="47.91839" lon="6.93081">
        <ele>905.5</ele>
        <time>2019-09-17T09:30:50Z</time>
      </trkpt>
      <trkpt lat="47.91841" lon="6.93077">
        <ele>905.6</ele>
        <time>2019-09-17T09:30:53Z</time>
      </trkpt>
      <trkpt lat="47.91843" lon="6.93073">
        <ele>905.6</ele>
        <time>2019-09-17T09:30:55Z</time>
      </trkpt>
      <trkpt lat="47.91847" lon="6.9307">
        <ele>905.6</ele>
        <time>2019-09-17T09:30:58Z</time>
      </trkpt>
      <trkpt lat="47.9185" lon="6.93068">
        <ele>905.6</ele>
        <time>2019-09-17T09:31:01Z</time>
      </trkpt>
      <trkpt lat="47.91853" lon="6.93066">
        <ele>905.6</ele>
        <time>2019-09-17T09:31:03Z</time>
      </trkpt>
      <trkpt lat="47.91856" lon="6.93063">
        <ele>905.6</ele>
        <time>2019-09-17T09:31:06Z</time>
      </trkpt>
      <trkpt lat="47.91859" lon="6.9306">
        <ele>905.5</ele>
        <time>2019-09-17T09:31:09Z</time>
      </trkpt>
      <trkpt lat="47.91862" lon="6.93056">
        <ele>905.5</ele>
        <time>2019-09-17T09:31:12Z</time>
      </trkpt>
      <trkpt lat="47.91865" lon="6.93054">
        <ele>905.5</ele>
        <time>2019-09-17T09:31:14Z</time>
      </trkpt>
      <trkpt lat="47.91867" lon="6.93052">
        <ele>905.5</ele>
        <time>2019-09-17T09:31:16Z</time>
      </trkpt>
      <trkpt lat="47.91871" lon="6.93049">
        <ele>905.5</ele>
        <time>2019-09-17T09:31:19Z</time>
      </trkpt>
      <trkpt lat="47.91873" lon="6.93047">
        <ele>905.5</ele>
        <time>2019-09-17T09:31:22Z</time>
      </trkpt>
      <trkpt lat="47.91876" lon="6.93043">
        <ele>905.6</ele>
        <time>2019-09-17T09:31:25Z</time>
      </trkpt>
      <trkpt lat="47.91877" lon="6.93039">
        <ele>905.6</ele>
        <time>2019-09-17T09:31:27Z</time>
      </trkpt>
      <trkpt lat="47.91879" lon="6.93035">
        <ele>905.7</ele>
        <time>2019-09-17T09:31:29Z</time>
      </trkpt>
      <trkpt lat="47.9188" lon="6.93031">
        <ele>905.8</ele>
        <time>2019-09-17T09:31:32Z</time>
      </trkpt>
      <trkpt lat="47.91883" lon="6.93028">
        <ele>905.9</ele>
        <time>2019-09-17T09:31:35Z</time>
      </trkpt>
      <trkpt lat="47.91887" lon="6.93026">
        <ele>906</ele>
        <time>2019-09-17T09:31:38Z</time>
      </trkpt>
      <trkpt lat="47.9189" lon="6.93023">
        <ele>906.1</ele>
        <time>2019-09-17T09:31:41Z</time>
      </trkpt>
      <trkpt lat="47.91894" lon="6.9302">
        <ele>906.2</ele>
        <time>2019-09-17T09:31:43Z</time>
      </trkpt>
      <trkpt lat="47.91896" lon="6.93019">
        <ele>906.2</ele>
        <time>2019-09-17T09:31:45Z</time>
      </trkpt>
      <trkpt lat="47.91899" lon="6.93017">
        <ele>906.3</ele>
        <time>2019-09-17T09:31:47Z</time>
      </trkpt>
      <trkpt lat="47.91901" lon="6.93015">
        <ele>906.3</ele>
        <time>2019-09-17T09:31:49Z</time>
      </trkpt>
      <trkpt lat="47.91904" lon="6.93013">
        <ele>906.4</ele>
        <time>2019-09-17T09:31:52Z</time>
      </trkpt>
      <trkpt lat="47.91907" lon="6.9301">
        <ele>906.4</ele>
        <time>2019-09-17T09:31:55Z</time>
      </trkpt>
      <trkpt lat="47.9191" lon="6.93007">
        <ele>906.5</ele>
        <time>2019-09-17T09:31:58Z</time>
      </trkpt>
      <trkpt lat="47.91913" lon="6.93004">
        <ele>906.5</ele>
        <time>2019-09-17T09:32:01Z</time>
      </trkpt>
      <trkpt lat="47.91916" lon="6.93002">
        <ele>906.6</ele>
        <time>2019-09-17T09:32:04Z</time>
      </trkpt>
      <trkpt lat="47.91919" lon="6.93">
        <ele>906.8</ele>
        <time>2019-09-17T09:32:07Z</time>
      </trkpt>
      <trkpt lat="47.91922" lon="6.92998">
        <ele>906.9</ele>
        <time>2019-09-17T09:32:09Z</time>
      </trkpt>
      <trkpt lat="47.91926" lon="6.92997">
        <ele>907.1</ele>
        <time>2019-09-17T09:32:12Z</time>
      </trkpt>
      <trkpt lat="47.91928" lon="6.92996">
        <ele>907.2</ele>
        <time>2019-09-17T09:32:14Z</time>
      </trkpt>
      <trkpt lat="47.91932" lon="6.92995">
        <ele>907.4</ele>
        <time>2019-09-17T09:32:17Z</time>
      </trkpt>
      <trkpt lat="47.91936" lon="6.92993">
        <ele>907.7</ele>
        <time>2019-09-17T09:32:20Z</time>
      </trkpt>
      <trkpt lat="47.91939" lon="6.92991">
        <ele>907.9</ele>
        <time>2019-09-17T09:32:23Z</time>
      </trkpt>
      <trkpt lat="47.91942" lon="6.92988">
        <ele>908.3</ele>
        <time>2019-09-17T09:32:26Z</time>
      </trkpt>
      <trkpt lat="47.91946" lon="6.92985">
        <ele>908.7</ele>
        <time>2019-09-17T09:32:29Z</time>
      </trkpt>
      <trkpt lat="47.91948" lon="6.92983">
        <ele>908.8</ele>
        <time>2019-09-17T09:32:31Z</time>
      </trkpt>
      <trkpt lat="47.9195" lon="6.92978">
        <ele>909.1</ele>
        <time>2019-09-17T09:32:34Z</time>
      </trkpt>
      <trkpt lat="47.91953" lon="6.92975">
        <ele>909.3</ele>
        <time>2019-09-17T09:32:36Z</time>
      </trkpt>
      <trkpt lat="47.91956" lon="6.92972">
        <ele>909.6</ele>
        <time>2019-09-17T09:32:38Z</time>
      </trkpt>
      <trkpt lat="47.91959" lon="6.9297">
        <ele>909.9</ele>
        <time>2019-09-17T09:32:40Z</time>
      </trkpt>
      <trkpt lat="47.91962" lon="6.92968">
        <ele>910.2</ele>
        <time>2019-09-17T09:32:42Z</time>
      </trkpt>
      <trkpt lat="47.91965" lon="6.92965">
        <ele>910.5</ele>
        <time>2019-09-17T09:32:45Z</time>
      </trkpt>
      <trkpt lat="47.91967" lon="6.92961">
        <ele>910.8</ele>
        <time>2019-09-17T09:32:48Z</time>
      </trkpt>
      <trkpt lat="47.91969" lon="6.92958">
        <ele>911.1</ele>
        <time>2019-09-17T09:32:51Z</time>
      </trkpt>
      <trkpt lat="47.91971" lon="6.92954">
        <ele>911.3</ele>
        <time>2019-09-17T09:32:54Z</time>
      </trkpt>
      <trkpt lat="47.91973" lon="6.92949">
        <ele>911.7</ele>
        <time>2019-09-17T09:32:57Z</time>
      </trkpt>
      <trkpt lat="47.91974" lon="6.92945">
        <ele>911.9</ele>
        <time>2019-09-17T09:32:59Z</time>
      </trkpt>
      <trkpt lat="47.91974" lon="6.92941">
        <ele>913.5</ele>
        <time>2019-09-17T09:33:01Z</time>
      </trkpt>
      <trkpt lat="47.91975" lon="6.92936">
        <ele>913.6</ele>
        <time>2019-09-17T09:33:03Z</time>
      </trkpt>
      <trkpt lat="47.91976" lon="6.92932">
        <ele>913.7</ele>
        <time>2019-09-17T09:33:05Z</time>
      </trkpt>
      <trkpt lat="47.91978" lon="6.92927">
        <ele>913.9</ele>
        <time>2019-09-17T09:33:08Z</time>
      </trkpt>
      <trkpt lat="47.9198" lon="6.92924">
        <ele>914</ele>
        <time>2019-09-17T09:33:11Z</time>
      </trkpt>
      <trkpt lat="47.9198" lon="6.92919">
        <ele>914.2</ele>
        <time>2019-09-17T09:33:14Z</time>
      </trkpt>
      <trkpt lat="47.91981" lon="6.92914">
        <ele>914.3</ele>
        <time>2019-09-17T09:33:17Z</time>
      </trkpt>
      <trkpt lat="47.91982" lon="6.9291">
        <ele>914.5</ele>
        <time>2019-09-17T09:33:20Z</time>
      </trkpt>
      <trkpt lat="47.91982" lon="6.92905">
        <ele>914.6</ele>
        <time>2019-09-17T09:33:23Z</time>
      </trkpt>
      <trkpt lat="47.91981" lon="6.92899">
        <ele>914.7</ele>
        <time>2019-09-17T09:33:27Z</time>
      </trkpt>
      <trkpt lat="47.91981" lon="6.92893">
        <ele>914.8</ele>
        <time>2019-09-17T09:33:30Z</time>
      </trkpt>
      <trkpt lat="47.91981" lon="6.92888">
        <ele>915</ele>
        <time>2019-09-17T09:33:33Z</time>
      </trkpt>
      <trkpt lat="47.91982" lon="6.92882">
        <ele>915.1</ele>
        <time>2019-09-17T09:33:36Z</time>
      </trkpt>
      <trkpt lat="47.91981" lon="6.92878">
        <ele>915.2</ele>
        <time>2019-09-17T09:33:38Z</time>
      </trkpt>
      <trkpt lat="47.91981" lon="6.92873">
        <ele>915.4</ele>
        <time>2019-09-17T09:33:41Z</time>
      </trkpt>
      <trkpt lat="47.91981" lon="6.92868">
        <ele>915.6</ele>
        <time>2019-09-17T09:33:44Z</time>
      </trkpt>
      <trkpt lat="47.91981" lon="6.92863">
        <ele>915.8</ele>
        <time>2019-09-17T09:33:47Z</time>
      </trkpt>
      <trkpt lat="47.9198" lon="6.92859">
        <ele>915.9</ele>
        <time>2019-09-17T09:33:50Z</time>
      </trkpt>
      <trkpt lat="47.9198" lon="6.92854">
        <ele>916.1</ele>
        <time>2019-09-17T09:33:53Z</time>
      </trkpt>
      <trkpt lat="47.9198" lon="6.92849">
        <ele>916.2</ele>
        <time>2019-09-17T09:33:56Z</time>
      </trkpt>
      <trkpt lat="47.91979" lon="6.92844">
        <ele>916.4</ele>
        <time>2019-09-17T09:33:59Z</time>
      </trkpt>
      <trkpt lat="47.91978" lon="6.92838">
        <ele>916.6</ele>
        <time>2019-09-17T09:34:02Z</time>
      </trkpt>
      <trkpt lat="47.91977" lon="6.92833">
        <ele>916.8</ele>
        <time>2019-09-17T09:34:04Z</time>
      </trkpt>
      <trkpt lat="47.91976" lon="6.92829">
        <ele>917</ele>
        <time>2019-09-17T09:34:06Z</time>
      </trkpt>
      <trkpt lat="47.91974" lon="6.92824">
        <ele>917.2</ele>
        <time>2019-09-17T09:34:08Z</time>
      </trkpt>
      <trkpt lat="47.91973" lon="6.92819">
        <ele>917.3</ele>
        <time>2019-09-17T09:34:10Z</time>
      </trkpt>
      <trkpt lat="47.91972" lon="6.92814">
        <ele>917.5</ele>
        <time>2019-09-17T09:34:13Z</time>
      </trkpt>
      <trkpt lat="47.91971" lon="6.92808">
        <ele>917.7</ele>
        <time>2019-09-17T09:34:16Z</time>
      </trkpt>
      <trkpt lat="47.91971" lon="6.92804">
        <ele>917.8</ele>
        <time>2019-09-17T09:34:18Z</time>
      </trkpt>
      <trkpt lat="47.91971" lon="6.92799">
        <ele>918</ele>
        <time>2019-09-17T09:34:20Z</time>
      </trkpt>
      <trkpt lat="47.91971" lon="6.92795">
        <ele>918.1</ele>
        <time>2019-09-17T09:34:22Z</time>
      </trkpt>
      <trkpt lat="47.91971" lon="6.9279">
        <ele>918.3</ele>
        <time>2019-09-17T09:34:25Z</time>
      </trkpt>
      <trkpt lat="47.9197" lon="6.92786">
        <ele>918.5</ele>
        <time>2019-09-17T09:34:27Z</time>
      </trkpt>
      <trkpt lat="47.9197" lon="6.92782">
        <ele>918.6</ele>
        <time>2019-09-17T09:34:29Z</time>
      </trkpt>
      <trkpt lat="47.91969" lon="6.92776">
        <ele>918.9</ele>
        <time>2019-09-17T09:34:32Z</time>
      </trkpt>
      <trkpt lat="47.91969" lon="6.92771">
        <ele>919.1</ele>
        <time>2019-09-17T09:34:34Z</time>
      </trkpt>
      <trkpt lat="47.91969" lon="6.92767">
        <ele>919.2</ele>
        <time>2019-09-17T09:34:36Z</time>
      </trkpt>
      <trkpt lat="47.91968" lon="6.92762">
        <ele>919.4</ele>
        <time>2019-09-17T09:34:38Z</time>
      </trkpt>
      <trkpt lat="47.91968" lon="6.92758">
        <ele>919.6</ele>
        <time>2019-09-17T09:34:40Z</time>
      </trkpt>
      <trkpt lat="47.91968" lon="6.92753">
        <ele>919.7</ele>
        <time>2019-09-17T09:34:42Z</time>
      </trkpt>
      <trkpt lat="47.91968" lon="6.92749">
        <ele>919.8</ele>
        <time>2019-09-17T09:34:44Z</time>
      </trkpt>
      <trkpt lat="47.91968" lon="6.92744">
        <ele>919.9</ele>
        <time>2019-09-17T09:34:46Z</time>
      </trkpt>
      <trkpt lat="47.91967" lon="6.92739">
        <ele>920</ele>
        <time>2019-09-17T09:34:48Z</time>
      </trkpt>
      <trkpt lat="47.91967" lon="6.92735">
        <ele>920.2</ele>
        <time>2019-09-17T09:34:50Z</time>
      </trkpt>
      <trkpt lat="47.91967" lon="6.92731">
        <ele>920.2</ele>
        <time>2019-09-17T09:34:52Z</time>
      </trkpt>
      <trkpt lat="47.91965" lon="6.92726">
        <ele>920.3</ele>
        <time>2019-09-17T09:34:55Z</time>
      </trkpt>
      <trkpt lat="47.91964" lon="6.9272">
        <ele>920.4</ele>
        <time>2019-09-17T09:34:58Z</time>
      </trkpt>
      <trkpt lat="47.91963" lon="6.92716">
        <ele>920.5</ele>
        <time>2019-09-17T09:35:00Z</time>
      </trkpt>
      <trkpt lat="47.91962" lon="6.9271">
        <ele>920.5</ele>
        <time>2019-09-17T09:35:02Z</time>
      </trkpt>
      <trkpt lat="47.91961" lon="6.92706">
        <ele>920.6</ele>
        <time>2019-09-17T09:35:04Z</time>
      </trkpt>
      <trkpt lat="47.91961" lon="6.927">
        <ele>920.7</ele>
        <time>2019-09-17T09:35:07Z</time>
      </trkpt>
      <trkpt lat="47.91961" lon="6.92695">
        <ele>920.7</ele>
        <time>2019-09-17T09:35:10Z</time>
      </trkpt>
      <trkpt lat="47.9196" lon="6.9269">
        <ele>920.6</ele>
        <time>2019-09-17T09:35:13Z</time>
      </trkpt>
      <trkpt lat="47.9196" lon="6.92685">
        <ele>920.6</ele>
        <time>2019-09-17T09:35:15Z</time>
      </trkpt>
      <trkpt lat="47.91959" lon="6.92679">
        <ele>920.6</ele>
        <time>2019-09-17T09:35:18Z</time>
      </trkpt>
      <trkpt lat="47.91958" lon="6.92675">
        <ele>920.6</ele>
        <time>2019-09-17T09:35:21Z</time>
      </trkpt>
      <trkpt lat="47.91958" lon="6.92669">
        <ele>920.5</ele>
        <time>2019-09-17T09:35:24Z</time>
      </trkpt>
      <trkpt lat="47.91958" lon="6.92663">
        <ele>920.4</ele>
        <time>2019-09-17T09:35:27Z</time>
      </trkpt>
      <trkpt lat="47.91958" lon="6.92658">
        <ele>920.3</ele>
        <time>2019-09-17T09:35:30Z</time>
      </trkpt>
      <trkpt lat="47.91958" lon="6.92654">
        <ele>920.2</ele>
        <time>2019-09-17T09:35:32Z</time>
      </trkpt>
      <trkpt lat="47.91957" lon="6.92648">
        <ele>920.1</ele>
        <time>2019-09-17T09:35:35Z</time>
      </trkpt>
      <trkpt lat="47.91957" lon="6.92644">
        <ele>920</ele>
        <time>2019-09-17T09:35:37Z</time>
      </trkpt>
      <trkpt lat="47.91957" lon="6.92638">
        <ele>919.9</ele>
        <time>2019-09-17T09:35:40Z</time>
      </trkpt>
      <trkpt lat="47.91956" lon="6.92634">
        <ele>919.8</ele>
        <time>2019-09-17T09:35:42Z</time>
      </trkpt>
      <trkpt lat="47.91955" lon="6.9263">
        <ele>919.6</ele>
        <time>2019-09-17T09:35:44Z</time>
      </trkpt>
      <trkpt lat="47.91955" lon="6.92624">
        <ele>919.4</ele>
        <time>2019-09-17T09:35:46Z</time>
      </trkpt>
      <trkpt lat="47.91955" lon="6.92618">
        <ele>919.2</ele>
        <time>2019-09-17T09:35:48Z</time>
      </trkpt>
      <trkpt lat="47.91954" lon="6.92614">
        <ele>919.1</ele>
        <time>2019-09-17T09:35:50Z</time>
      </trkpt>
      <trkpt lat="47.91953" lon="6.9261">
        <ele>918.9</ele>
        <time>2019-09-17T09:35:52Z</time>
      </trkpt>
      <trkpt lat="47.91953" lon="6.92604">
        <ele>918.7</ele>
        <time>2019-09-17T09:35:55Z</time>
      </trkpt>
      <trkpt lat="47.91952" lon="6.926">
        <ele>918.6</ele>
        <time>2019-09-17T09:35:57Z</time>
      </trkpt>
      <trkpt lat="47.91951" lon="6.92595">
        <ele>918.5</ele>
        <time>2019-09-17T09:35:59Z</time>
      </trkpt>
      <trkpt lat="47.9195" lon="6.9259">
        <ele>918.4</ele>
        <time>2019-09-17T09:36:01Z</time>
      </trkpt>
      <trkpt lat="47.9195" lon="6.92586">
        <ele>918.2</ele>
        <time>2019-09-17T09:36:03Z</time>
      </trkpt>
      <trkpt lat="47.91949" lon="6.92581">
        <ele>918.1</ele>
        <time>2019-09-17T09:36:05Z</time>
      </trkpt>
      <trkpt lat="47.91947" lon="6.92576">
        <ele>918</ele>
        <time>2019-09-17T09:36:07Z</time>
      </trkpt>
      <trkpt lat="47.91946" lon="6.92571">
        <ele>917.8</ele>
        <time>2019-09-17T09:36:09Z</time>
      </trkpt>
      <trkpt lat="47.91945" lon="6.92565">
        <ele>917.7</ele>
        <time>2019-09-17T09:36:12Z</time>
      </trkpt>
      <trkpt lat="47.91945" lon="6.92561">
        <ele>917.6</ele>
        <time>2019-09-17T09:36:14Z</time>
      </trkpt>
      <trkpt lat="47.91944" lon="6.92557">
        <ele>917.5</ele>
        <time>2019-09-17T09:36:16Z</time>
      </trkpt>
      <trkpt lat="47.91944" lon="6.92553">
        <ele>917.4</ele>
        <time>2019-09-17T09:36:18Z</time>
      </trkpt>
      <trkpt lat="47.91943" lon="6.92547">
        <ele>917.2</ele>
        <time>2019-09-17T09:36:21Z</time>
      </trkpt>
      <trkpt lat="47.91943" lon="6.92541">
        <ele>917.1</ele>
        <time>2019-09-17T09:36:24Z</time>
      </trkpt>
      <trkpt lat="47.91944" lon="6.92537">
        <ele>917</ele>
        <time>2019-09-17T09:36:26Z</time>
      </trkpt>
      <trkpt lat="47.91945" lon="6.92531">
        <ele>916.9</ele>
        <time>2019-09-17T09:36:29Z</time>
      </trkpt>
      <trkpt lat="47.91945" lon="6.92525">
        <ele>916.7</ele>
        <time>2019-09-17T09:36:32Z</time>
      </trkpt>
      <trkpt lat="47.91945" lon="6.9252">
        <ele>916.5</ele>
        <time>2019-09-17T09:36:34Z</time>
      </trkpt>
      <trkpt lat="47.91945" lon="6.92514">
        <ele>916.3</ele>
        <time>2019-09-17T09:36:36Z</time>
      </trkpt>
      <trkpt lat="47.91944" lon="6.9251">
        <ele>916.2</ele>
        <time>2019-09-17T09:36:38Z</time>
      </trkpt>
      <trkpt lat="47.91944" lon="6.92505">
        <ele>916</ele>
        <time>2019-09-17T09:36:41Z</time>
      </trkpt>
      <trkpt lat="47.91944" lon="6.92499">
        <ele>915.9</ele>
        <time>2019-09-17T09:36:44Z</time>
      </trkpt>
      <trkpt lat="47.91944" lon="6.92495">
        <ele>915.8</ele>
        <time>2019-09-17T09:36:46Z</time>
      </trkpt>
      <trkpt lat="47.91943" lon="6.92491">
        <ele>915.7</ele>
        <time>2019-09-17T09:36:48Z</time>
      </trkpt>
      <trkpt lat="47.91944" lon="6.92486">
        <ele>915.5</ele>
        <time>2019-09-17T09:36:51Z</time>
      </trkpt>
      <trkpt lat="47.91944" lon="6.92481">
        <ele>915.4</ele>
        <time>2019-09-17T09:36:53Z</time>
      </trkpt>
      <trkpt lat="47.91944" lon="6.92477">
        <ele>915.2</ele>
        <time>2019-09-17T09:36:55Z</time>
      </trkpt>
      <trkpt lat="47.91944" lon="6.92472">
        <ele>915.1</ele>
        <time>2019-09-17T09:36:57Z</time>
      </trkpt>
      <trkpt lat="47.91945" lon="6.92467">
        <ele>914.9</ele>
        <time>2019-09-17T09:36:59Z</time>
      </trkpt>
      <trkpt lat="47.91946" lon="6.92462">
        <ele>914.7</ele>
        <time>2019-09-17T09:37:01Z</time>
      </trkpt>
      <trkpt lat="47.91947" lon="6.92457">
        <ele>914.4</ele>
        <time>2019-09-17T09:37:03Z</time>
      </trkpt>
      <trkpt lat="47.91948" lon="6.92453">
        <ele>914.2</ele>
        <time>2019-09-17T09:37:05Z</time>
      </trkpt>
      <trkpt lat="47.91948" lon="6.92449">
        <ele>914</ele>
        <time>2019-09-17T09:37:07Z</time>
      </trkpt>
      <trkpt lat="47.91948" lon="6.92443">
        <ele>913.7</ele>
        <time>2019-09-17T09:37:10Z</time>
      </trkpt>
      <trkpt lat="47.91948" lon="6.92439">
        <ele>913.5</ele>
        <time>2019-09-17T09:37:12Z</time>
      </trkpt>
      <trkpt lat="47.91948" lon="6.92434">
        <ele>913.3</ele>
        <time>2019-09-17T09:37:15Z</time>
      </trkpt>
      <trkpt lat="47.91949" lon="6.92428">
        <ele>913.1</ele>
        <time>2019-09-17T09:37:18Z</time>
      </trkpt>
      <trkpt lat="47.91948" lon="6.92423">
        <ele>912.8</ele>
        <time>2019-09-17T09:37:21Z</time>
      </trkpt>
      <trkpt lat="47.91947" lon="6.92417">
        <ele>912.6</ele>
        <time>2019-09-17T09:37:24Z</time>
      </trkpt>
      <trkpt lat="47.91946" lon="6.92413">
        <ele>912.4</ele>
        <time>2019-09-17T09:37:26Z</time>
      </trkpt>
      <trkpt lat="47.91946" lon="6.92408">
        <ele>912.2</ele>
        <time>2019-09-17T09:37:28Z</time>
      </trkpt>
      <trkpt lat="47.91945" lon="6.92403">
        <ele>912.1</ele>
        <time>2019-09-17T09:37:30Z</time>
      </trkpt>
      <trkpt lat="47.91945" lon="6.92398">
        <ele>911.9</ele>
        <time>2019-09-17T09:37:32Z</time>
      </trkpt>
      <trkpt lat="47.91944" lon="6.92393">
        <ele>911.7</ele>
        <time>2019-09-17T09:37:34Z</time>
      </trkpt>
      <trkpt lat="47.91944" lon="6.92387">
        <ele>911.6</ele>
        <time>2019-09-17T09:37:36Z</time>
      </trkpt>
      <trkpt lat="47.91944" lon="6.92381">
        <ele>911.4</ele>
        <time>2019-09-17T09:37:39Z</time>
      </trkpt>
      <trkpt lat="47.91944" lon="6.92376">
        <ele>911.3</ele>
        <time>2019-09-17T09:37:42Z</time>
      </trkpt>
      <trkpt lat="47.91944" lon="6.9237">
        <ele>911.1</ele>
        <time>2019-09-17T09:37:45Z</time>
      </trkpt>
      <trkpt lat="47.91944" lon="6.92365">
        <ele>911</ele>
        <time>2019-09-17T09:37:47Z</time>
      </trkpt>
      <trkpt lat="47.91945" lon="6.9236">
        <ele>910.9</ele>
        <time>2019-09-17T09:37:49Z</time>
      </trkpt>
      <trkpt lat="47.91946" lon="6.92356">
        <ele>910.8</ele>
        <time>2019-09-17T09:37:51Z</time>
      </trkpt>
      <trkpt lat="47.91948" lon="6.92352">
        <ele>910.7</ele>
        <time>2019-09-17T09:37:53Z</time>
      </trkpt>
      <trkpt lat="47.91949" lon="6.92347">
        <ele>910.5</ele>
        <time>2019-09-17T09:37:55Z</time>
      </trkpt>
      <trkpt lat="47.91951" lon="6.92341">
        <ele>910.2</ele>
        <time>2019-09-17T09:37:57Z</time>
      </trkpt>
      <trkpt lat="47.91952" lon="6.92336">
        <ele>910</ele>
        <time>2019-09-17T09:37:59Z</time>
      </trkpt>
      <trkpt lat="47.91954" lon="6.92332">
        <ele>909.9</ele>
        <time>2019-09-17T09:38:01Z</time>
      </trkpt>
      <trkpt lat="47.91955" lon="6.92328">
        <ele>909.8</ele>
        <time>2019-09-17T09:38:03Z</time>
      </trkpt>
      <trkpt lat="47.91957" lon="6.92324">
        <ele>909.6</ele>
        <time>2019-09-17T09:38:05Z</time>
      </trkpt>
      <trkpt lat="47.91957" lon="6.9232">
        <ele>909.5</ele>
        <time>2019-09-17T09:38:07Z</time>
      </trkpt>
      <trkpt lat="47.91958" lon="6.92315">
        <ele>909.4</ele>
        <time>2019-09-17T09:38:09Z</time>
      </trkpt>
      <trkpt lat="47.9196" lon="6.9231">
        <ele>909.2</ele>
        <time>2019-09-17T09:38:12Z</time>
      </trkpt>
      <trkpt lat="47.91961" lon="6.92305">
        <ele>909.1</ele>
        <time>2019-09-17T09:38:15Z</time>
      </trkpt>
      <trkpt lat="47.91963" lon="6.92302">
        <ele>908.9</ele>
        <time>2019-09-17T09:38:17Z</time>
      </trkpt>
      <trkpt lat="47.91964" lon="6.92298">
        <ele>908.8</ele>
        <time>2019-09-17T09:38:19Z</time>
      </trkpt>
      <trkpt lat="47.91966" lon="6.92294">
        <ele>908.7</ele>
        <time>2019-09-17T09:38:21Z</time>
      </trkpt>
      <trkpt lat="47.91968" lon="6.92289">
        <ele>908.5</ele>
        <time>2019-09-17T09:38:24Z</time>
      </trkpt>
      <trkpt lat="47.91969" lon="6.92284">
        <ele>908.3</ele>
        <time>2019-09-17T09:38:27Z</time>
      </trkpt>
      <trkpt lat="47.9197" lon="6.9228">
        <ele>908.2</ele>
        <time>2019-09-17T09:38:29Z</time>
      </trkpt>
      <trkpt lat="47.91971" lon="6.92275">
        <ele>908</ele>
        <time>2019-09-17T09:38:32Z</time>
      </trkpt>
      <trkpt lat="47.91972" lon="6.9227">
        <ele>907.8</ele>
        <time>2019-09-17T09:38:35Z</time>
      </trkpt>
      <trkpt lat="47.91973" lon="6.92265">
        <ele>907.6</ele>
        <time>2019-09-17T09:38:38Z</time>
      </trkpt>
      <trkpt lat="47.91973" lon="6.9226">
        <ele>907.5</ele>
        <time>2019-09-17T09:38:41Z</time>
      </trkpt>
      <trkpt lat="47.91974" lon="6.92255">
        <ele>907.3</ele>
        <time>2019-09-17T09:38:44Z</time>
      </trkpt>
      <trkpt lat="47.91974" lon="6.92249">
        <ele>907.2</ele>
        <time>2019-09-17T09:38:47Z</time>
      </trkpt>
      <trkpt lat="47.91974" lon="6.92244">
        <ele>907</ele>
        <time>2019-09-17T09:38:50Z</time>
      </trkpt>
      <trkpt lat="47.91974" lon="6.92239">
        <ele>906.8</ele>
        <time>2019-09-17T09:38:53Z</time>
      </trkpt>
      <trkpt lat="47.91974" lon="6.92234">
        <ele>906.7</ele>
        <time>2019-09-17T09:38:56Z</time>
      </trkpt>
      <trkpt lat="47.91973" lon="6.9223">
        <ele>906.6</ele>
        <time>2019-09-17T09:38:59Z</time>
      </trkpt>
      <trkpt lat="47.91973" lon="6.92224">
        <ele>906.4</ele>
        <time>2019-09-17T09:39:02Z</time>
      </trkpt>
      <trkpt lat="47.91973" lon="6.92218">
        <ele>906.2</ele>
        <time>2019-09-17T09:39:05Z</time>
      </trkpt>
      <trkpt lat="47.91973" lon="6.92212">
        <ele>906</ele>
        <time>2019-09-17T09:39:08Z</time>
      </trkpt>
      <trkpt lat="47.91974" lon="6.92207">
        <ele>905.9</ele>
        <time>2019-09-17T09:39:10Z</time>
      </trkpt>
      <trkpt lat="47.91975" lon="6.92201">
        <ele>905.7</ele>
        <time>2019-09-17T09:39:12Z</time>
      </trkpt>
      <trkpt lat="47.91976" lon="6.92196">
        <ele>905.5</ele>
        <time>2019-09-17T09:39:14Z</time>
      </trkpt>
      <trkpt lat="47.91977" lon="6.92191">
        <ele>905.4</ele>
        <time>2019-09-17T09:39:16Z</time>
      </trkpt>
      <trkpt lat="47.91978" lon="6.92186">
        <ele>905.2</ele>
        <time>2019-09-17T09:39:18Z</time>
      </trkpt>
      <trkpt lat="47.91979" lon="6.92182">
        <ele>905.1</ele>
        <time>2019-09-17T09:39:20Z</time>
      </trkpt>
      <trkpt lat="47.91979" lon="6.92176">
        <ele>904.9</ele>
        <time>2019-09-17T09:39:23Z</time>
      </trkpt>
      <trkpt lat="47.91979" lon="6.92171">
        <ele>904.7</ele>
        <time>2019-09-17T09:39:26Z</time>
      </trkpt>
      <trkpt lat="47.91979" lon="6.92166">
        <ele>904.5</ele>
        <time>2019-09-17T09:39:28Z</time>
      </trkpt>
      <trkpt lat="47.91978" lon="6.92162">
        <ele>904.4</ele>
        <time>2019-09-17T09:39:30Z</time>
      </trkpt>
      <trkpt lat="47.91977" lon="6.92157">
        <ele>904.3</ele>
        <time>2019-09-17T09:39:33Z</time>
      </trkpt>
      <trkpt lat="47.91977" lon="6.92152">
        <ele>904.1</ele>
        <time>2019-09-17T09:39:36Z</time>
      </trkpt>
      <trkpt lat="47.91976" lon="6.92148">
        <ele>904</ele>
        <time>2019-09-17T09:39:38Z</time>
      </trkpt>
      <trkpt lat="47.91975" lon="6.92144">
        <ele>903.9</ele>
        <time>2019-09-17T09:39:40Z</time>
      </trkpt>
      <trkpt lat="47.91974" lon="6.92139">
        <ele>903.7</ele>
        <time>2019-09-17T09:39:42Z</time>
      </trkpt>
      <trkpt lat="47.91972" lon="6.92135">
        <ele>903.5</ele>
        <time>2019-09-17T09:39:44Z</time>
      </trkpt>
      <trkpt lat="47.91972" lon="6.92131">
        <ele>903.4</ele>
        <time>2019-09-17T09:39:46Z</time>
      </trkpt>
      <trkpt lat="47.91971" lon="6.92126">
        <ele>903.2</ele>
        <time>2019-09-17T09:39:48Z</time>
      </trkpt>
      <trkpt lat="47.9197" lon="6.92122">
        <ele>903</ele>
        <time>2019-09-17T09:39:50Z</time>
      </trkpt>
      <trkpt lat="47.91969" lon="6.92117">
        <ele>902.8</ele>
        <time>2019-09-17T09:39:53Z</time>
      </trkpt>
      <trkpt lat="47.91968" lon="6.92112">
        <ele>902.6</ele>
        <time>2019-09-17T09:39:56Z</time>
      </trkpt>
      <trkpt lat="47.91966" lon="6.92107">
        <ele>902.3</ele>
        <time>2019-09-17T09:40:00Z</time>
      </trkpt>
      <trkpt lat="47.91965" lon="6.92102">
        <ele>902.1</ele>
        <time>2019-09-17T09:40:03Z</time>
      </trkpt>
      <trkpt lat="47.91963" lon="6.92098">
        <ele>901.8</ele>
        <time>2019-09-17T09:40:06Z</time>
      </trkpt>
      <trkpt lat="47.91962" lon="6.92093">
        <ele>901.6</ele>
        <time>2019-09-17T09:40:09Z</time>
      </trkpt>
      <trkpt lat="47.91962" lon="6.92089">
        <ele>901.4</ele>
        <time>2019-09-17T09:40:12Z</time>
      </trkpt>
      <trkpt lat="47.91961" lon="6.92083">
        <ele>901.1</ele>
        <time>2019-09-17T09:40:15Z</time>
      </trkpt>
      <trkpt lat="47.91961" lon="6.92078">
        <ele>901</ele>
        <time>2019-09-17T09:40:18Z</time>
      </trkpt>
      <trkpt lat="47.9196" lon="6.92072">
        <ele>900.9</ele>
        <time>2019-09-17T09:40:21Z</time>
      </trkpt>
      <trkpt lat="47.91959" lon="6.92067">
        <ele>900.7</ele>
        <time>2019-09-17T09:40:24Z</time>
      </trkpt>
      <trkpt lat="47.91959" lon="6.92063">
        <ele>900.7</ele>
        <time>2019-09-17T09:40:26Z</time>
      </trkpt>
      <trkpt lat="47.91959" lon="6.92059">
        <ele>900.6</ele>
        <time>2019-09-17T09:40:28Z</time>
      </trkpt>
      <trkpt lat="47.91959" lon="6.92054">
        <ele>900.4</ele>
        <time>2019-09-17T09:40:30Z</time>
      </trkpt>
      <trkpt lat="47.9196" lon="6.9205">
        <ele>900.4</ele>
        <time>2019-09-17T09:40:32Z</time>
      </trkpt>
      <trkpt lat="47.91961" lon="6.92045">
        <ele>900.2</ele>
        <time>2019-09-17T09:40:35Z</time>
      </trkpt>
      <trkpt lat="47.91962" lon="6.92041">
        <ele>900.1</ele>
        <time>2019-09-17T09:40:37Z</time>
      </trkpt>
      <trkpt lat="47.91962" lon="6.92036">
        <ele>900</ele>
        <time>2019-09-17T09:40:39Z</time>
      </trkpt>
      <trkpt lat="47.91963" lon="6.92029">
        <ele>899.9</ele>
        <time>2019-09-17T09:40:41Z</time>
      </trkpt>
      <trkpt lat="47.91963" lon="6.92023">
        <ele>899.8</ele>
        <time>2019-09-17T09:40:43Z</time>
      </trkpt>
      <trkpt lat="47.91964" lon="6.92019">
        <ele>899.7</ele>
        <time>2019-09-17T09:40:45Z</time>
      </trkpt>
      <trkpt lat="47.91965" lon="6.92015">
        <ele>899.6</ele>
        <time>2019-09-17T09:40:48Z</time>
      </trkpt>
      <trkpt lat="47.91968" lon="6.92011">
        <ele>899.6</ele>
        <time>2019-09-17T09:40:51Z</time>
      </trkpt>
      <trkpt lat="47.91971" lon="6.92007">
        <ele>899.5</ele>
        <time>2019-09-17T09:40:54Z</time>
      </trkpt>
      <trkpt lat="47.91973" lon="6.92003">
        <ele>899.5</ele>
        <time>2019-09-17T09:40:57Z</time>
      </trkpt>
      <trkpt lat="47.91975" lon="6.92">
        <ele>899.4</ele>
        <time>2019-09-17T09:41:00Z</time>
      </trkpt>
      <trkpt lat="47.91977" lon="6.91996">
        <ele>899.4</ele>
        <time>2019-09-17T09:41:03Z</time>
      </trkpt>
      <trkpt lat="47.9198" lon="6.9199">
        <ele>899.4</ele>
        <time>2019-09-17T09:41:06Z</time>
      </trkpt>
      <trkpt lat="47.91983" lon="6.91992">
        <ele>899.4</ele>
        <time>2019-09-17T09:41:07Z</time>
      </trkpt>
      <trkpt lat="47.91986" lon="6.91991">
        <ele>899.4</ele>
        <time>2019-09-17T09:41:09Z</time>
      </trkpt>
      <trkpt lat="47.91988" lon="6.91987">
        <ele>899.5</ele>
        <time>2019-09-17T09:41:11Z</time>
      </trkpt>
      <trkpt lat="47.91991" lon="6.91984">
        <ele>899.5</ele>
        <time>2019-09-17T09:41:14Z</time>
      </trkpt>
      <trkpt lat="47.91992" lon="6.91981">
        <ele>899.6</ele>
        <time>2019-09-17T09:41:16Z</time>
      </trkpt>
      <trkpt lat="47.91993" lon="6.91976">
        <ele>899.7</ele>
        <time>2019-09-17T09:41:19Z</time>
      </trkpt>
      <trkpt lat="47.91993" lon="6.91971">
        <ele>899.8</ele>
        <time>2019-09-17T09:41:22Z</time>
      </trkpt>
      <trkpt lat="47.91994" lon="6.91966">
        <ele>899.9</ele>
        <time>2019-09-17T09:41:26Z</time>
      </trkpt>
      <trkpt lat="47.91995" lon="6.91962">
        <ele>900</ele>
        <time>2019-09-17T09:41:28Z</time>
      </trkpt>
      <trkpt lat="47.91996" lon="6.91957">
        <ele>900.1</ele>
        <time>2019-09-17T09:41:30Z</time>
      </trkpt>
      <trkpt lat="47.91997" lon="6.91952">
        <ele>900.4</ele>
        <time>2019-09-17T09:41:32Z</time>
      </trkpt>
      <trkpt lat="47.91998" lon="6.91947">
        <ele>900.5</ele>
        <time>2019-09-17T09:41:34Z</time>
      </trkpt>
      <trkpt lat="47.91999" lon="6.91943">
        <ele>900.7</ele>
        <time>2019-09-17T09:41:36Z</time>
      </trkpt>
      <trkpt lat="47.91999" lon="6.9194">
        <ele>900.9</ele>
        <time>2019-09-17T09:41:38Z</time>
      </trkpt>
      <trkpt lat="47.92" lon="6.91935">
        <ele>901.1</ele>
        <time>2019-09-17T09:41:42Z</time>
      </trkpt>
      <trkpt lat="47.92" lon="6.9193">
        <ele>901.3</ele>
        <time>2019-09-17T09:41:45Z</time>
      </trkpt>
      <trkpt lat="47.92" lon="6.91926">
        <ele>901.6</ele>
        <time>2019-09-17T09:41:47Z</time>
      </trkpt>
      <trkpt lat="47.92" lon="6.91921">
        <ele>902</ele>
        <time>2019-09-17T09:41:49Z</time>
      </trkpt>
      <trkpt lat="47.92" lon="6.91915">
        <ele>902.5</ele>
        <time>2019-09-17T09:41:51Z</time>
      </trkpt>
      <trkpt lat="47.92001" lon="6.9191">
        <ele>902.4</ele>
        <time>2019-09-17T09:41:53Z</time>
      </trkpt>
      <trkpt lat="47.92002" lon="6.91903">
        <ele>902.3</ele>
        <time>2019-09-17T09:41:55Z</time>
      </trkpt>
      <trkpt lat="47.92004" lon="6.91899">
        <ele>902.2</ele>
        <time>2019-09-17T09:41:58Z</time>
      </trkpt>
      <trkpt lat="47.92006" lon="6.91896">
        <ele>902.1</ele>
        <time>2019-09-17T09:42:00Z</time>
      </trkpt>
      <trkpt lat="47.92009" lon="6.91892">
        <ele>901.9</ele>
        <time>2019-09-17T09:42:03Z</time>
      </trkpt>
      <trkpt lat="47.92012" lon="6.91889">
        <ele>901.7</ele>
        <time>2019-09-17T09:42:06Z</time>
      </trkpt>
      <trkpt lat="47.92015" lon="6.91886">
        <ele>901.5</ele>
        <time>2019-09-17T09:42:08Z</time>
      </trkpt>
      <trkpt lat="47.92019" lon="6.91883">
        <ele>901.3</ele>
        <time>2019-09-17T09:42:10Z</time>
      </trkpt>
      <trkpt lat="47.92022" lon="6.9188">
        <ele>901.1</ele>
        <time>2019-09-17T09:42:12Z</time>
      </trkpt>
      <trkpt lat="47.92026" lon="6.91877">
        <ele>901</ele>
        <time>2019-09-17T09:42:14Z</time>
      </trkpt>
      <trkpt lat="47.92028" lon="6.91873">
        <ele>900.9</ele>
        <time>2019-09-17T09:42:16Z</time>
      </trkpt>
      <trkpt lat="47.92031" lon="6.9187">
        <ele>900.8</ele>
        <time>2019-09-17T09:42:18Z</time>
      </trkpt>
      <trkpt lat="47.92033" lon="6.91866">
        <ele>900.7</ele>
        <time>2019-09-17T09:42:20Z</time>
      </trkpt>
      <trkpt lat="47.92036" lon="6.91862">
        <ele>900.7</ele>
        <time>2019-09-17T09:42:23Z</time>
      </trkpt>
      <trkpt lat="47.92039" lon="6.91858">
        <ele>900.7</ele>
        <time>2019-09-17T09:42:26Z</time>
      </trkpt>
      <trkpt lat="47.92041" lon="6.91855">
        <ele>900.7</ele>
        <time>2019-09-17T09:42:28Z</time>
      </trkpt>
      <trkpt lat="47.9204" lon="6.9185">
        <ele>900.7</ele>
        <time>2019-09-17T09:42:33Z</time>
      </trkpt>
      <trkpt lat="47.92039" lon="6.91846">
        <ele>900.7</ele>
        <time>2019-09-17T09:42:36Z</time>
      </trkpt>
      <trkpt lat="47.9204" lon="6.91841">
        <ele>900.7</ele>
        <time>2019-09-17T09:42:39Z</time>
      </trkpt>
      <trkpt lat="47.92043" lon="6.91837">
        <ele>900.8</ele>
        <time>2019-09-17T09:42:42Z</time>
      </trkpt>
      <trkpt lat="47.92046" lon="6.91834">
        <ele>900.8</ele>
        <time>2019-09-17T09:42:45Z</time>
      </trkpt>
      <trkpt lat="47.92049" lon="6.91831">
        <ele>900.8</ele>
        <time>2019-09-17T09:42:47Z</time>
      </trkpt>
      <trkpt lat="47.92051" lon="6.91828">
        <ele>900.8</ele>
        <time>2019-09-17T09:42:49Z</time>
      </trkpt>
      <trkpt lat="47.92053" lon="6.91825">
        <ele>900.9</ele>
        <time>2019-09-17T09:42:51Z</time>
      </trkpt>
      <trkpt lat="47.92055" lon="6.91822">
        <ele>900.9</ele>
        <time>2019-09-17T09:42:53Z</time>
      </trkpt>
      <trkpt lat="47.92057" lon="6.91819">
        <ele>900.8</ele>
        <time>2019-09-17T09:42:55Z</time>
      </trkpt>
      <trkpt lat="47.9206" lon="6.91816">
        <ele>900.8</ele>
        <time>2019-09-17T09:42:57Z</time>
      </trkpt>
      <trkpt lat="47.92062" lon="6.91813">
        <ele>900.8</ele>
        <time>2019-09-17T09:43:00Z</time>
      </trkpt>
      <trkpt lat="47.92064" lon="6.91809">
        <ele>900.8</ele>
        <time>2019-09-17T09:43:03Z</time>
      </trkpt>
      <trkpt lat="47.92067" lon="6.91806">
        <ele>900.7</ele>
        <time>2019-09-17T09:43:05Z</time>
      </trkpt>
      <trkpt lat="47.9207" lon="6.91804">
        <ele>900.7</ele>
        <time>2019-09-17T09:43:07Z</time>
      </trkpt>
      <trkpt lat="47.92073" lon="6.918">
        <ele>900.7</ele>
        <time>2019-09-17T09:43:10Z</time>
      </trkpt>
      <trkpt lat="47.92076" lon="6.91797">
        <ele>900.6</ele>
        <time>2019-09-17T09:43:13Z</time>
      </trkpt>
      <trkpt lat="47.9208" lon="6.91795">
        <ele>900.6</ele>
        <time>2019-09-17T09:43:16Z</time>
      </trkpt>
      <trkpt lat="47.92084" lon="6.91793">
        <ele>900.5</ele>
        <time>2019-09-17T09:43:18Z</time>
      </trkpt>
      <trkpt lat="47.92088" lon="6.91792">
        <ele>900.5</ele>
        <time>2019-09-17T09:43:19Z</time>
      </trkpt>
      <trkpt lat="47.92091" lon="6.91792">
        <ele>900.5</ele>
        <time>2019-09-17T09:43:20Z</time>
      </trkpt>
      <trkpt lat="47.92095" lon="6.91792">
        <ele>900.5</ele>
        <time>2019-09-17T09:43:22Z</time>
      </trkpt>
      <trkpt lat="47.92099" lon="6.91792">
        <ele>900.5</ele>
        <time>2019-09-17T09:43:24Z</time>
      </trkpt>
      <trkpt lat="47.92103" lon="6.91791">
        <ele>900.5</ele>
        <time>2019-09-17T09:43:26Z</time>
      </trkpt>
      <trkpt lat="47.92107" lon="6.9179">
        <ele>900.5</ele>
        <time>2019-09-17T09:43:28Z</time>
      </trkpt>
      <trkpt lat="47.9211" lon="6.9179">
        <ele>900.6</ele>
        <time>2019-09-17T09:43:30Z</time>
      </trkpt>
      <trkpt lat="47.92113" lon="6.9179">
        <ele>900.6</ele>
        <time>2019-09-17T09:43:32Z</time>
      </trkpt>
      <trkpt lat="47.92116" lon="6.91791">
        <ele>900.6</ele>
        <time>2019-09-17T09:43:34Z</time>
      </trkpt>
      <trkpt lat="47.9212" lon="6.91791">
        <ele>900.6</ele>
        <time>2019-09-17T09:43:36Z</time>
      </trkpt>
      <trkpt lat="47.92123" lon="6.91791">
        <ele>900.6</ele>
        <time>2019-09-17T09:43:38Z</time>
      </trkpt>
      <trkpt lat="47.92126" lon="6.91792">
        <ele>900.7</ele>
        <time>2019-09-17T09:43:40Z</time>
      </trkpt>
      <trkpt lat="47.9213" lon="6.91792">
        <ele>900.7</ele>
        <time>2019-09-17T09:43:42Z</time>
      </trkpt>
      <trkpt lat="47.92133" lon="6.91791">
        <ele>900.7</ele>
        <time>2019-09-17T09:43:44Z</time>
      </trkpt>
      <trkpt lat="47.92135" lon="6.91791">
        <ele>900.7</ele>
        <time>2019-09-17T09:43:46Z</time>
      </trkpt>
      <trkpt lat="47.92138" lon="6.91791">
        <ele>900.7</ele>
        <time>2019-09-17T09:43:48Z</time>
      </trkpt>
      <trkpt lat="47.92142" lon="6.9179">
        <ele>900.7</ele>
        <time>2019-09-17T09:43:50Z</time>
      </trkpt>
      <trkpt lat="47.92145" lon="6.9179">
        <ele>900.7</ele>
        <time>2019-09-17T09:43:52Z</time>
      </trkpt>
      <trkpt lat="47.92148" lon="6.91789">
        <ele>900.7</ele>
        <time>2019-09-17T09:43:54Z</time>
      </trkpt>
      <trkpt lat="47.92151" lon="6.91788">
        <ele>900.6</ele>
        <time>2019-09-17T09:43:56Z</time>
      </trkpt>
      <trkpt lat="47.92153" lon="6.91788">
        <ele>900.6</ele>
        <time>2019-09-17T09:43:58Z</time>
      </trkpt>
      <trkpt lat="47.92157" lon="6.91786">
        <ele>900.5</ele>
        <time>2019-09-17T09:44:01Z</time>
      </trkpt>
      <trkpt lat="47.92161" lon="6.91785">
        <ele>900.4</ele>
        <time>2019-09-17T09:44:04Z</time>
      </trkpt>
      <trkpt lat="47.92164" lon="6.91785">
        <ele>900.3</ele>
        <time>2019-09-17T09:44:07Z</time>
      </trkpt>
      <trkpt lat="47.92168" lon="6.91786">
        <ele>900.1</ele>
        <time>2019-09-17T09:44:10Z</time>
      </trkpt>
      <trkpt lat="47.92171" lon="6.91787">
        <ele>899.9</ele>
        <time>2019-09-17T09:44:12Z</time>
      </trkpt>
      <trkpt lat="47.92174" lon="6.91789">
        <ele>899.7</ele>
        <time>2019-09-17T09:44:14Z</time>
      </trkpt>
      <trkpt lat="47.92177" lon="6.9179">
        <ele>899.5</ele>
        <time>2019-09-17T09:44:16Z</time>
      </trkpt>
      <trkpt lat="47.92181" lon="6.91792">
        <ele>899.2</ele>
        <time>2019-09-17T09:44:19Z</time>
      </trkpt>
      <trkpt lat="47.92184" lon="6.91793">
        <ele>898.9</ele>
        <time>2019-09-17T09:44:22Z</time>
      </trkpt>
      <trkpt lat="47.92187" lon="6.91792">
        <ele>898.7</ele>
        <time>2019-09-17T09:44:24Z</time>
      </trkpt>
      <trkpt lat="47.92191" lon="6.91791">
        <ele>898.5</ele>
        <time>2019-09-17T09:44:26Z</time>
      </trkpt>
      <trkpt lat="47.92194" lon="6.91789">
        <ele>898.4</ele>
        <time>2019-09-17T09:44:28Z</time>
      </trkpt>
      <trkpt lat="47.92196" lon="6.91788">
        <ele>898.3</ele>
        <time>2019-09-17T09:44:30Z</time>
      </trkpt>
      <trkpt lat="47.92199" lon="6.91785">
        <ele>898.1</ele>
        <time>2019-09-17T09:44:33Z</time>
      </trkpt>
      <trkpt lat="47.92201" lon="6.91781">
        <ele>898</ele>
        <time>2019-09-17T09:44:35Z</time>
      </trkpt>
      <trkpt lat="47.92203" lon="6.91778">
        <ele>898</ele>
        <time>2019-09-17T09:44:37Z</time>
      </trkpt>
      <trkpt lat="47.92205" lon="6.91773">
        <ele>897.9</ele>
        <time>2019-09-17T09:44:40Z</time>
      </trkpt>
      <trkpt lat="47.92207" lon="6.91768">
        <ele>897.7</ele>
        <time>2019-09-17T09:44:43Z</time>
      </trkpt>
      <trkpt lat="47.92208" lon="6.91762">
        <ele>897.6</ele>
        <time>2019-09-17T09:44:46Z</time>
      </trkpt>
      <trkpt lat="47.9221" lon="6.91759">
        <ele>897.5</ele>
        <time>2019-09-17T09:44:48Z</time>
      </trkpt>
      <trkpt lat="47.92212" lon="6.91754">
        <ele>897.3</ele>
        <time>2019-09-17T09:44:50Z</time>
      </trkpt>
      <trkpt lat="47.92214" lon="6.9175">
        <ele>897.2</ele>
        <time>2019-09-17T09:44:52Z</time>
      </trkpt>
      <trkpt lat="47.92215" lon="6.91747">
        <ele>897.1</ele>
        <time>2019-09-17T09:44:54Z</time>
      </trkpt>
      <trkpt lat="47.92217" lon="6.91742">
        <ele>897</ele>
        <time>2019-09-17T09:44:57Z</time>
      </trkpt>
      <trkpt lat="47.92219" lon="6.91738">
        <ele>896.8</ele>
        <time>2019-09-17T09:45:00Z</time>
      </trkpt>
      <trkpt lat="47.92221" lon="6.91735">
        <ele>896.7</ele>
        <time>2019-09-17T09:45:02Z</time>
      </trkpt>
      <trkpt lat="47.92225" lon="6.91733">
        <ele>896.5</ele>
        <time>2019-09-17T09:45:05Z</time>
      </trkpt>
      <trkpt lat="47.92229" lon="6.91732">
        <ele>896.3</ele>
        <time>2019-09-17T09:45:08Z</time>
      </trkpt>
      <trkpt lat="47.92232" lon="6.91731">
        <ele>896.1</ele>
        <time>2019-09-17T09:45:10Z</time>
      </trkpt>
      <trkpt lat="47.92236" lon="6.91732">
        <ele>895.9</ele>
        <time>2019-09-17T09:45:12Z</time>
      </trkpt>
      <trkpt lat="47.92239" lon="6.91732">
        <ele>895.7</ele>
        <time>2019-09-17T09:45:14Z</time>
      </trkpt>
      <trkpt lat="47.92242" lon="6.91731">
        <ele>895.5</ele>
        <time>2019-09-17T09:45:16Z</time>
      </trkpt>
      <trkpt lat="47.92245" lon="6.91731">
        <ele>895.4</ele>
        <time>2019-09-17T09:45:18Z</time>
      </trkpt>
      <trkpt lat="47.92248" lon="6.91732">
        <ele>895.3</ele>
        <time>2019-09-17T09:45:20Z</time>
      </trkpt>
      <trkpt lat="47.92251" lon="6.91734">
        <ele>895.2</ele>
        <time>2019-09-17T09:45:22Z</time>
      </trkpt>
      <trkpt lat="47.92254" lon="6.91735">
        <ele>895.1</ele>
        <time>2019-09-17T09:45:24Z</time>
      </trkpt>
      <trkpt lat="47.92258" lon="6.91736">
        <ele>895.1</ele>
        <time>2019-09-17T09:45:27Z</time>
      </trkpt>
      <trkpt lat="47.92261" lon="6.91737">
        <ele>895</ele>
        <time>2019-09-17T09:45:30Z</time>
      </trkpt>
      <trkpt lat="47.92263" lon="6.91742">
        <ele>895</ele>
        <time>2019-09-17T09:45:33Z</time>
      </trkpt>
      <trkpt lat="47.92264" lon="6.91746">
        <ele>894.9</ele>
        <time>2019-09-17T09:45:36Z</time>
      </trkpt>
      <trkpt lat="47.92265" lon="6.91752">
        <ele>894.9</ele>
        <time>2019-09-17T09:45:39Z</time>
      </trkpt>
      <trkpt lat="47.92266" lon="6.91757">
        <ele>894.8</ele>
        <time>2019-09-17T09:45:42Z</time>
      </trkpt>
      <trkpt lat="47.92267" lon="6.91761">
        <ele>894.8</ele>
        <time>2019-09-17T09:45:44Z</time>
      </trkpt>
      <trkpt lat="47.92269" lon="6.91765">
        <ele>895.5</ele>
        <time>2019-09-17T09:45:46Z</time>
      </trkpt>
      <trkpt lat="47.92271" lon="6.91769">
        <ele>896.1</ele>
        <time>2019-09-17T09:45:48Z</time>
      </trkpt>
      <trkpt lat="47.92273" lon="6.91773">
        <ele>897.3</ele>
        <time>2019-09-17T09:45:51Z</time>
      </trkpt>
      <trkpt lat="47.92273" lon="6.91777">
        <ele>898.3</ele>
        <time>2019-09-17T09:45:54Z</time>
      </trkpt>
      <trkpt lat="47.92274" lon="6.91781">
        <ele>898.8</ele>
        <time>2019-09-17T09:45:57Z</time>
      </trkpt>
      <trkpt lat="47.92277" lon="6.91781">
        <ele>899.2</ele>
        <time>2019-09-17T09:46:01Z</time>
      </trkpt>
      <trkpt lat="47.92278" lon="6.91777">
        <ele>900.3</ele>
        <time>2019-09-17T09:46:04Z</time>
      </trkpt>
      <trkpt lat="47.9228" lon="6.91774">
        <ele>901.1</ele>
        <time>2019-09-17T09:46:07Z</time>
      </trkpt>
      <trkpt lat="47.92283" lon="6.91773">
        <ele>901.5</ele>
        <time>2019-09-17T09:46:10Z</time>
      </trkpt>
      <trkpt lat="47.92284" lon="6.91777">
        <ele>901.9</ele>
        <time>2019-09-17T09:46:13Z</time>
      </trkpt>
      <trkpt lat="47.92285" lon="6.91782">
        <ele>902.3</ele>
        <time>2019-09-17T09:46:16Z</time>
      </trkpt>
      <trkpt lat="47.92288" lon="6.91782">
        <ele>902.6</ele>
        <time>2019-09-17T09:46:21Z</time>
      </trkpt>
      <trkpt lat="47.9229" lon="6.91779">
        <ele>902.9</ele>
        <time>2019-09-17T09:46:24Z</time>
      </trkpt>
      <trkpt lat="47.92293" lon="6.91776">
        <ele>903.7</ele>
        <time>2019-09-17T09:46:28Z</time>
      </trkpt>
      <trkpt lat="47.92291" lon="6.91779">
        <ele>904.3</ele>
        <time>2019-09-17T09:46:37Z</time>
      </trkpt>
      <trkpt lat="47.92291" lon="6.91775">
        <ele>904.8</ele>
        <time>2019-09-17T09:46:44Z</time>
      </trkpt>
      <trkpt lat="47.92292" lon="6.91771">
        <ele>905.3</ele>
        <time>2019-09-17T09:46:47Z</time>
      </trkpt>
      <trkpt lat="47.92294" lon="6.91768">
        <ele>905.8</ele>
        <time>2019-09-17T09:46:51Z</time>
      </trkpt>
      <trkpt lat="47.92296" lon="6.91771">
        <ele>906.6</ele>
        <time>2019-09-17T09:46:55Z</time>
      </trkpt>
      <trkpt lat="47.92298" lon="6.91774">
        <ele>907.5</ele>
        <time>2019-09-17T09:46:59Z</time>
      </trkpt>
      <trkpt lat="47.923" lon="6.91777">
        <ele>907.8</ele>
        <time>2019-09-17T09:47:05Z</time>
      </trkpt>
      <trkpt lat="47.92303" lon="6.91775">
        <ele>908</ele>
        <time>2019-09-17T09:47:11Z</time>
      </trkpt>
      <trkpt lat="47.92306" lon="6.91777">
        <ele>908.7</ele>
        <time>2019-09-17T09:47:16Z</time>
      </trkpt>
      <trkpt lat="47.92308" lon="6.9178">
        <ele>909.9</ele>
        <time>2019-09-17T09:47:20Z</time>
      </trkpt>
      <trkpt lat="47.92309" lon="6.91784">
        <ele>911.1</ele>
        <time>2019-09-17T09:47:25Z</time>
      </trkpt>
      <trkpt lat="47.9231" lon="6.91788">
        <ele>911.9</ele>
        <time>2019-09-17T09:47:31Z</time>
      </trkpt>
      <trkpt lat="47.92313" lon="6.91792">
        <ele>912.8</ele>
        <time>2019-09-17T09:47:46Z</time>
      </trkpt>
      <trkpt lat="47.92315" lon="6.91788">
        <ele>913.6</ele>
        <time>2019-09-17T09:48:02Z</time>
      </trkpt>
      <trkpt lat="47.92317" lon="6.91786">
        <ele>914.2</ele>
        <time>2019-09-17T09:48:05Z</time>
      </trkpt>
      <trkpt lat="47.9232" lon="6.91788">
        <ele>915</ele>
        <time>2019-09-17T09:48:14Z</time>
      </trkpt>
      <trkpt lat="47.9232" lon="6.91792">
        <ele>915.7</ele>
        <time>2019-09-17T09:48:17Z</time>
      </trkpt>
      <trkpt lat="47.92321" lon="6.91797">
        <ele>916.4</ele>
        <time>2019-09-17T09:48:22Z</time>
      </trkpt>
      <trkpt lat="47.92322" lon="6.91803">
        <ele>917.1</ele>
        <time>2019-09-17T09:48:26Z</time>
      </trkpt>
      <trkpt lat="47.92325" lon="6.91801">
        <ele>917.8</ele>
        <time>2019-09-17T09:48:40Z</time>
      </trkpt>
      <trkpt lat="47.92327" lon="6.91802">
        <ele>918.6</ele>
        <time>2019-09-17T09:48:45Z</time>
      </trkpt>
      <trkpt lat="47.92329" lon="6.91805">
        <ele>919.4</ele>
        <time>2019-09-17T09:48:48Z</time>
      </trkpt>
      <trkpt lat="47.92331" lon="6.91808">
        <ele>919.9</ele>
        <time>2019-09-17T09:48:51Z</time>
      </trkpt>
      <trkpt lat="47.92334" lon="6.91809">
        <ele>920.2</ele>
        <time>2019-09-17T09:48:56Z</time>
      </trkpt>
      <trkpt lat="47.92336" lon="6.91808">
        <ele>920.6</ele>
        <time>2019-09-17T09:49:00Z</time>
      </trkpt>
      <trkpt lat="47.92339" lon="6.9181">
        <ele>921.7</ele>
        <time>2019-09-17T09:49:06Z</time>
      </trkpt>
      <trkpt lat="47.9234" lon="6.91814">
        <ele>923</ele>
        <time>2019-09-17T09:49:09Z</time>
      </trkpt>
      <trkpt lat="47.92343" lon="6.91816">
        <ele>923.9</ele>
        <time>2019-09-17T09:49:21Z</time>
      </trkpt>
      <trkpt lat="47.92345" lon="6.91819">
        <ele>924.3</ele>
        <time>2019-09-17T09:49:25Z</time>
      </trkpt>
      <trkpt lat="47.92346" lon="6.91823">
        <ele>924.8</ele>
        <time>2019-09-17T09:49:27Z</time>
      </trkpt>
      <trkpt lat="47.92348" lon="6.91828">
        <ele>925.6</ele>
        <time>2019-09-17T09:49:30Z</time>
      </trkpt>
      <trkpt lat="47.92348" lon="6.91832">
        <ele>926.3</ele>
        <time>2019-09-17T09:49:37Z</time>
      </trkpt>
      <trkpt lat="47.92347" lon="6.91836">
        <ele>926.8</ele>
        <time>2019-09-17T09:49:44Z</time>
      </trkpt>
      <trkpt lat="47.9235" lon="6.91837">
        <ele>927.1</ele>
        <time>2019-09-17T09:49:48Z</time>
      </trkpt>
      <trkpt lat="47.92353" lon="6.91837">
        <ele>927.3</ele>
        <time>2019-09-17T09:49:50Z</time>
      </trkpt>
      <trkpt lat="47.92356" lon="6.91835">
        <ele>926.9</ele>
        <time>2019-09-17T09:49:55Z</time>
      </trkpt>
      <trkpt lat="47.92358" lon="6.91833">
        <ele>926.6</ele>
        <time>2019-09-17T09:49:59Z</time>
      </trkpt>
      <trkpt lat="47.92361" lon="6.9183">
        <ele>927</ele>
        <time>2019-09-17T09:50:06Z</time>
      </trkpt>
      <trkpt lat="47.92363" lon="6.91826">
        <ele>927.2</ele>
        <time>2019-09-17T09:50:10Z</time>
      </trkpt>
      <trkpt lat="47.92365" lon="6.91828">
        <ele>926.5</ele>
        <time>2019-09-17T09:50:22Z</time>
      </trkpt>
      <trkpt lat="47.92368" lon="6.9183">
        <ele>926.1</ele>
        <time>2019-09-17T09:50:33Z</time>
      </trkpt>
      <trkpt lat="47.92371" lon="6.91834">
        <ele>929</ele>
        <time>2019-09-17T09:50:37Z</time>
      </trkpt>
      <trkpt lat="47.92373" lon="6.91836">
        <ele>930.9</ele>
        <time>2019-09-17T09:50:39Z</time>
      </trkpt>
      <trkpt lat="47.92377" lon="6.9184">
        <ele>933.2</ele>
        <time>2019-09-17T09:50:42Z</time>
      </trkpt>
      <trkpt lat="47.9238" lon="6.91845">
        <ele>935.5</ele>
        <time>2019-09-17T09:50:44Z</time>
      </trkpt>
      <trkpt lat="47.92382" lon="6.91849">
        <ele>937</ele>
        <time>2019-09-17T09:50:46Z</time>
      </trkpt>
      <trkpt lat="47.92384" lon="6.91853">
        <ele>937.9</ele>
        <time>2019-09-17T09:50:50Z</time>
      </trkpt>
      <trkpt lat="47.92385" lon="6.91857">
        <ele>938.5</ele>
        <time>2019-09-17T09:50:55Z</time>
      </trkpt>
      <trkpt lat="47.92388" lon="6.91859">
        <ele>938.7</ele>
        <time>2019-09-17T09:51:04Z</time>
      </trkpt>
      <trkpt lat="47.92391" lon="6.91859">
        <ele>938.4</ele>
        <time>2019-09-17T09:51:11Z</time>
      </trkpt>
      <trkpt lat="47.92393" lon="6.91861">
        <ele>938.2</ele>
        <time>2019-09-17T09:51:14Z</time>
      </trkpt>
      <trkpt lat="47.92395" lon="6.91865">
        <ele>938</ele>
        <time>2019-09-17T09:51:17Z</time>
      </trkpt>
      <trkpt lat="47.92398" lon="6.91868">
        <ele>937.9</ele>
        <time>2019-09-17T09:51:21Z</time>
      </trkpt>
      <trkpt lat="47.92399" lon="6.91872">
        <ele>937.8</ele>
        <time>2019-09-17T09:51:24Z</time>
      </trkpt>
      <trkpt lat="47.92401" lon="6.91876">
        <ele>937.7</ele>
        <time>2019-09-17T09:51:27Z</time>
      </trkpt>
      <trkpt lat="47.92402" lon="6.9188">
        <ele>937.4</ele>
        <time>2019-09-17T09:51:31Z</time>
      </trkpt>
      <trkpt lat="47.92403" lon="6.91885">
        <ele>936.9</ele>
        <time>2019-09-17T09:51:34Z</time>
      </trkpt>
      <trkpt lat="47.92404" lon="6.91889">
        <ele>937.4</ele>
        <time>2019-09-17T09:51:37Z</time>
      </trkpt>
      <trkpt lat="47.92406" lon="6.91892">
        <ele>939.2</ele>
        <time>2019-09-17T09:51:42Z</time>
      </trkpt>
      <trkpt lat="47.92409" lon="6.91893">
        <ele>941</ele>
        <time>2019-09-17T09:51:51Z</time>
      </trkpt>
      <trkpt lat="47.92411" lon="6.9189">
        <ele>941.6</ele>
        <time>2019-09-17T09:51:59Z</time>
      </trkpt>
      <trkpt lat="47.92413" lon="6.91894">
        <ele>942.4</ele>
        <time>2019-09-17T09:52:05Z</time>
      </trkpt>
      <trkpt lat="47.92415" lon="6.91897">
        <ele>943.7</ele>
        <time>2019-09-17T09:52:09Z</time>
      </trkpt>
      <trkpt lat="47.92417" lon="6.91899">
        <ele>945</ele>
        <time>2019-09-17T09:52:14Z</time>
      </trkpt>
      <trkpt lat="47.9242" lon="6.91899">
        <ele>946.2</ele>
        <time>2019-09-17T09:52:17Z</time>
      </trkpt>
      <trkpt lat="47.92423" lon="6.919">
        <ele>947.2</ele>
        <time>2019-09-17T09:52:20Z</time>
      </trkpt>
      <trkpt lat="47.92426" lon="6.91901">
        <ele>948.1</ele>
        <time>2019-09-17T09:52:23Z</time>
      </trkpt>
      <trkpt lat="47.92428" lon="6.91905">
        <ele>949.2</ele>
        <time>2019-09-17T09:52:28Z</time>
      </trkpt>
      <trkpt lat="47.92429" lon="6.9191">
        <ele>950.3</ele>
        <time>2019-09-17T09:52:31Z</time>
      </trkpt>
      <trkpt lat="47.92431" lon="6.91913">
        <ele>950.9</ele>
        <time>2019-09-17T09:52:33Z</time>
      </trkpt>
      <trkpt lat="47.92433" lon="6.91917">
        <ele>951.6</ele>
        <time>2019-09-17T09:52:37Z</time>
      </trkpt>
      <trkpt lat="47.92435" lon="6.9192">
        <ele>952.9</ele>
        <time>2019-09-17T09:52:39Z</time>
      </trkpt>
      <trkpt lat="47.92439" lon="6.91927">
        <ele>955.4</ele>
        <time>2019-09-17T09:52:41Z</time>
      </trkpt>
      <trkpt lat="47.92441" lon="6.91931">
        <ele>956.3</ele>
        <time>2019-09-17T09:52:43Z</time>
      </trkpt>
      <trkpt lat="47.92443" lon="6.91936">
        <ele>957.2</ele>
        <time>2019-09-17T09:52:47Z</time>
      </trkpt>
      <trkpt lat="47.92445" lon="6.91939">
        <ele>957.7</ele>
        <time>2019-09-17T09:52:50Z</time>
      </trkpt>
      <trkpt lat="47.92446" lon="6.91943">
        <ele>958.6</ele>
        <time>2019-09-17T09:52:56Z</time>
      </trkpt>
      <trkpt lat="47.92447" lon="6.91947">
        <ele>959.4</ele>
        <time>2019-09-17T09:52:59Z</time>
      </trkpt>
      <trkpt lat="47.92448" lon="6.91951">
        <ele>960.2</ele>
        <time>2019-09-17T09:53:01Z</time>
      </trkpt>
      <trkpt lat="47.92449" lon="6.91955">
        <ele>960.9</ele>
        <time>2019-09-17T09:53:04Z</time>
      </trkpt>
      <trkpt lat="47.92451" lon="6.91959">
        <ele>961.7</ele>
        <time>2019-09-17T09:53:07Z</time>
      </trkpt>
      <trkpt lat="47.92454" lon="6.91963">
        <ele>962.6</ele>
        <time>2019-09-17T09:53:09Z</time>
      </trkpt>
      <trkpt lat="47.92455" lon="6.91967">
        <ele>963.4</ele>
        <time>2019-09-17T09:53:12Z</time>
      </trkpt>
      <trkpt lat="47.92456" lon="6.91972">
        <ele>964.1</ele>
        <time>2019-09-17T09:53:19Z</time>
      </trkpt>
      <trkpt lat="47.92459" lon="6.91974">
        <ele>964.8</ele>
        <time>2019-09-17T09:53:24Z</time>
      </trkpt>
      <trkpt lat="47.92462" lon="6.91976">
        <ele>965.6</ele>
        <time>2019-09-17T09:53:27Z</time>
      </trkpt>
      <trkpt lat="47.92465" lon="6.91978">
        <ele>966.3</ele>
        <time>2019-09-17T09:53:31Z</time>
      </trkpt>
      <trkpt lat="47.92467" lon="6.9198">
        <ele>966.9</ele>
        <time>2019-09-17T09:53:36Z</time>
      </trkpt>
      <trkpt lat="47.9247" lon="6.91983">
        <ele>967.5</ele>
        <time>2019-09-17T09:53:40Z</time>
      </trkpt>
      <trkpt lat="47.92474" lon="6.91985">
        <ele>968.2</ele>
        <time>2019-09-17T09:53:43Z</time>
      </trkpt>
      <trkpt lat="47.92477" lon="6.91987">
        <ele>968.8</ele>
        <time>2019-09-17T09:53:45Z</time>
      </trkpt>
      <trkpt lat="47.92479" lon="6.91991">
        <ele>969.6</ele>
        <time>2019-09-17T09:53:48Z</time>
      </trkpt>
      <trkpt lat="47.9248" lon="6.91995">
        <ele>970.2</ele>
        <time>2019-09-17T09:53:52Z</time>
      </trkpt>
      <trkpt lat="47.92482" lon="6.91999">
        <ele>970.7</ele>
        <time>2019-09-17T09:53:55Z</time>
      </trkpt>
      <trkpt lat="47.92485" lon="6.92001">
        <ele>971.2</ele>
        <time>2019-09-17T09:53:59Z</time>
      </trkpt>
      <trkpt lat="47.92487" lon="6.92005">
        <ele>972</ele>
        <time>2019-09-17T09:54:02Z</time>
      </trkpt>
      <trkpt lat="47.92489" lon="6.9201">
        <ele>973</ele>
        <time>2019-09-17T09:54:05Z</time>
      </trkpt>
      <trkpt lat="47.9249" lon="6.92014">
        <ele>973.8</ele>
        <time>2019-09-17T09:54:09Z</time>
      </trkpt>
      <trkpt lat="47.92491" lon="6.92019">
        <ele>974.4</ele>
        <time>2019-09-17T09:54:12Z</time>
      </trkpt>
      <trkpt lat="47.92492" lon="6.92023">
        <ele>974.8</ele>
        <time>2019-09-17T09:54:15Z</time>
      </trkpt>
      <trkpt lat="47.92493" lon="6.92027">
        <ele>975.2</ele>
        <time>2019-09-17T09:54:20Z</time>
      </trkpt>
      <trkpt lat="47.92495" lon="6.92031">
        <ele>975.6</ele>
        <time>2019-09-17T09:54:24Z</time>
      </trkpt>
      <trkpt lat="47.92497" lon="6.92035">
        <ele>976</ele>
        <time>2019-09-17T09:54:28Z</time>
      </trkpt>
      <trkpt lat="47.92498" lon="6.92039">
        <ele>976.7</ele>
        <time>2019-09-17T09:54:32Z</time>
      </trkpt>
      <trkpt lat="47.92501" lon="6.92041">
        <ele>977.4</ele>
        <time>2019-09-17T09:54:40Z</time>
      </trkpt>
      <trkpt lat="47.92504" lon="6.92044">
        <ele>978</ele>
        <time>2019-09-17T09:54:45Z</time>
      </trkpt>
      <trkpt lat="47.92506" lon="6.92046">
        <ele>978.4</ele>
        <time>2019-09-17T09:54:49Z</time>
      </trkpt>
      <trkpt lat="47.92509" lon="6.92047">
        <ele>979</ele>
        <time>2019-09-17T09:54:53Z</time>
      </trkpt>
      <trkpt lat="47.92512" lon="6.92048">
        <ele>979.8</ele>
        <time>2019-09-17T09:54:56Z</time>
      </trkpt>
      <trkpt lat="47.92515" lon="6.92049">
        <ele>980.7</ele>
        <time>2019-09-17T09:55:01Z</time>
      </trkpt>
      <trkpt lat="47.92519" lon="6.9205">
        <ele>981.3</ele>
        <time>2019-09-17T09:55:04Z</time>
      </trkpt>
      <trkpt lat="47.92523" lon="6.92052">
        <ele>982.2</ele>
        <time>2019-09-17T09:55:07Z</time>
      </trkpt>
      <trkpt lat="47.92527" lon="6.92053">
        <ele>983.3</ele>
        <time>2019-09-17T09:55:09Z</time>
      </trkpt>
      <trkpt lat="47.9253" lon="6.92054">
        <ele>984.1</ele>
        <time>2019-09-17T09:55:12Z</time>
      </trkpt>
      <trkpt lat="47.92533" lon="6.92055">
        <ele>984.6</ele>
        <time>2019-09-17T09:55:15Z</time>
      </trkpt>
      <trkpt lat="47.92536" lon="6.92056">
        <ele>985.2</ele>
        <time>2019-09-17T09:55:18Z</time>
      </trkpt>
      <trkpt lat="47.92538" lon="6.92058">
        <ele>986.4</ele>
        <time>2019-09-17T09:55:22Z</time>
      </trkpt>
      <trkpt lat="47.92542" lon="6.92061">
        <ele>988.1</ele>
        <time>2019-09-17T09:55:25Z</time>
      </trkpt>
      <trkpt lat="47.92544" lon="6.92063">
        <ele>989.4</ele>
        <time>2019-09-17T09:55:29Z</time>
      </trkpt>
      <trkpt lat="47.92547" lon="6.92065">
        <ele>991</ele>
        <time>2019-09-17T09:55:33Z</time>
      </trkpt>
      <trkpt lat="47.92549" lon="6.92069">
        <ele>992.7</ele>
        <time>2019-09-17T09:55:38Z</time>
      </trkpt>
      <trkpt lat="47.92552" lon="6.92074">
        <ele>994.6</ele>
        <time>2019-09-17T09:55:41Z</time>
      </trkpt>
      <trkpt lat="47.92555" lon="6.92077">
        <ele>995.5</ele>
        <time>2019-09-17T09:55:44Z</time>
      </trkpt>
      <trkpt lat="47.92557" lon="6.9208">
        <ele>996.2</ele>
        <time>2019-09-17T09:55:49Z</time>
      </trkpt>
      <trkpt lat="47.9256" lon="6.92082">
        <ele>997.5</ele>
        <time>2019-09-17T09:55:52Z</time>
      </trkpt>
      <trkpt lat="47.92563" lon="6.92086">
        <ele>999.1</ele>
        <time>2019-09-17T09:55:56Z</time>
      </trkpt>
      <trkpt lat="47.92565" lon="6.9209">
        <ele>1000.7</ele>
        <time>2019-09-17T09:55:59Z</time>
      </trkpt>
      <trkpt lat="47.92567" lon="6.92094">
        <ele>1002</ele>
        <time>2019-09-17T09:56:02Z</time>
      </trkpt>
      <trkpt lat="47.92568" lon="6.92098">
        <ele>1003.3</ele>
        <time>2019-09-17T09:56:07Z</time>
      </trkpt>
      <trkpt lat="47.92568" lon="6.92103">
        <ele>1004.6</ele>
        <time>2019-09-17T09:56:10Z</time>
      </trkpt>
      <trkpt lat="47.92567" lon="6.92107">
        <ele>1005.9</ele>
        <time>2019-09-17T09:56:14Z</time>
      </trkpt>
      <trkpt lat="47.92568" lon="6.92111">
        <ele>1007.2</ele>
        <time>2019-09-17T09:56:20Z</time>
      </trkpt>
      <trkpt lat="47.9257" lon="6.92115">
        <ele>1008.6</ele>
        <time>2019-09-17T09:56:29Z</time>
      </trkpt>
      <trkpt lat="47.92572" lon="6.92117">
        <ele>1009.9</ele>
        <time>2019-09-17T09:56:33Z</time>
      </trkpt>
      <trkpt lat="47.92574" lon="6.92121">
        <ele>1011.1</ele>
        <time>2019-09-17T09:56:36Z</time>
      </trkpt>
      <trkpt lat="47.92576" lon="6.92125">
        <ele>1012.6</ele>
        <time>2019-09-17T09:56:40Z</time>
      </trkpt>
      <trkpt lat="47.92577" lon="6.92129">
        <ele>1013.9</ele>
        <time>2019-09-17T09:56:44Z</time>
      </trkpt>
      <trkpt lat="47.92577" lon="6.92133">
        <ele>1015.2</ele>
        <time>2019-09-17T09:56:49Z</time>
      </trkpt>
      <trkpt lat="47.92577" lon="6.92138">
        <ele>1016.1</ele>
        <time>2019-09-17T09:56:54Z</time>
      </trkpt>
      <trkpt lat="47.92577" lon="6.92143">
        <ele>1017.1</ele>
        <time>2019-09-17T09:56:58Z</time>
      </trkpt>
      <trkpt lat="47.92577" lon="6.92148">
        <ele>1017.9</ele>
        <time>2019-09-17T09:57:01Z</time>
      </trkpt>
      <trkpt lat="47.92577" lon="6.92152">
        <ele>1018.6</ele>
        <time>2019-09-17T09:57:04Z</time>
      </trkpt>
      <trkpt lat="47.92576" lon="6.92156">
        <ele>1019.8</ele>
        <time>2019-09-17T09:57:08Z</time>
      </trkpt>
      <trkpt lat="47.92579" lon="6.92158">
        <ele>1021.3</ele>
        <time>2019-09-17T09:57:12Z</time>
      </trkpt>
      <trkpt lat="47.92581" lon="6.92162">
        <ele>1022.8</ele>
        <time>2019-09-17T09:57:20Z</time>
      </trkpt>
      <trkpt lat="47.92581" lon="6.92167">
        <ele>1024.9</ele>
        <time>2019-09-17T09:57:24Z</time>
      </trkpt>
      <trkpt lat="47.9258" lon="6.92171">
        <ele>1026.3</ele>
        <time>2019-09-17T09:57:28Z</time>
      </trkpt>
      <trkpt lat="47.92579" lon="6.92176">
        <ele>1027.2</ele>
        <time>2019-09-17T09:57:32Z</time>
      </trkpt>
      <trkpt lat="47.92579" lon="6.9218">
        <ele>1028.4</ele>
        <time>2019-09-17T09:57:36Z</time>
      </trkpt>
      <trkpt lat="47.92579" lon="6.92184">
        <ele>1029.7</ele>
        <time>2019-09-17T09:57:41Z</time>
      </trkpt>
      <trkpt lat="47.92579" lon="6.92189">
        <ele>1030.8</ele>
        <time>2019-09-17T09:57:45Z</time>
      </trkpt>
      <trkpt lat="47.92579" lon="6.92194">
        <ele>1031.9</ele>
        <time>2019-09-17T09:57:49Z</time>
      </trkpt>
      <trkpt lat="47.92578" lon="6.92198">
        <ele>1032.5</ele>
        <time>2019-09-17T09:57:52Z</time>
      </trkpt>
      <trkpt lat="47.92578" lon="6.92204">
        <ele>1033.3</ele>
        <time>2019-09-17T09:57:56Z</time>
      </trkpt>
      <trkpt lat="47.92577" lon="6.92208">
        <ele>1034.1</ele>
        <time>2019-09-17T09:57:59Z</time>
      </trkpt>
      <trkpt lat="47.92578" lon="6.92212">
        <ele>1034.9</ele>
        <time>2019-09-17T09:58:02Z</time>
      </trkpt>
      <trkpt lat="47.92581" lon="6.92216">
        <ele>1036.1</ele>
        <time>2019-09-17T09:58:06Z</time>
      </trkpt>
      <trkpt lat="47.92583" lon="6.9222">
        <ele>1037.3</ele>
        <time>2019-09-17T09:58:09Z</time>
      </trkpt>
      <trkpt lat="47.92586" lon="6.92224">
        <ele>1038.7</ele>
        <time>2019-09-17T09:58:12Z</time>
      </trkpt>
      <trkpt lat="47.92588" lon="6.92227">
        <ele>1039.8</ele>
        <time>2019-09-17T09:58:15Z</time>
      </trkpt>
      <trkpt lat="47.92591" lon="6.9223">
        <ele>1040.9</ele>
        <time>2019-09-17T09:58:19Z</time>
      </trkpt>
      <trkpt lat="47.92593" lon="6.92231">
        <ele>1041.7</ele>
        <time>2019-09-17T09:58:22Z</time>
      </trkpt>
      <trkpt lat="47.92597" lon="6.92233">
        <ele>1043.1</ele>
        <time>2019-09-17T09:58:25Z</time>
      </trkpt>
      <trkpt lat="47.92599" lon="6.92234">
        <ele>1044.3</ele>
        <time>2019-09-17T09:58:28Z</time>
      </trkpt>
      <trkpt lat="47.92602" lon="6.92236">
        <ele>1045.4</ele>
        <time>2019-09-17T09:58:31Z</time>
      </trkpt>
      <trkpt lat="47.92605" lon="6.92238">
        <ele>1046.4</ele>
        <time>2019-09-17T09:58:34Z</time>
      </trkpt>
      <trkpt lat="47.92608" lon="6.9224">
        <ele>1047.4</ele>
        <time>2019-09-17T09:58:37Z</time>
      </trkpt>
      <trkpt lat="47.92611" lon="6.92243">
        <ele>1048.5</ele>
        <time>2019-09-17T09:58:40Z</time>
      </trkpt>
      <trkpt lat="47.92614" lon="6.92247">
        <ele>1050.1</ele>
        <time>2019-09-17T09:58:43Z</time>
      </trkpt>
      <trkpt lat="47.92616" lon="6.92251">
        <ele>1050.6</ele>
        <time>2019-09-17T09:58:46Z</time>
      </trkpt>
      <trkpt lat="47.92619" lon="6.92254">
        <ele>1051</ele>
        <time>2019-09-17T09:58:48Z</time>
      </trkpt>
      <trkpt lat="47.92621" lon="6.92258">
        <ele>1051.6</ele>
        <time>2019-09-17T09:58:51Z</time>
      </trkpt>
      <trkpt lat="47.92624" lon="6.92262">
        <ele>1052.2</ele>
        <time>2019-09-17T09:58:54Z</time>
      </trkpt>
      <trkpt lat="47.92625" lon="6.92266">
        <ele>1052.6</ele>
        <time>2019-09-17T09:58:57Z</time>
      </trkpt>
      <trkpt lat="47.92626" lon="6.92271">
        <ele>1053</ele>
        <time>2019-09-17T09:59:00Z</time>
      </trkpt>
      <trkpt lat="47.92627" lon="6.92275">
        <ele>1053.4</ele>
        <time>2019-09-17T09:59:03Z</time>
      </trkpt>
      <trkpt lat="47.92629" lon="6.9228">
        <ele>1053.9</ele>
        <time>2019-09-17T09:59:06Z</time>
      </trkpt>
      <trkpt lat="47.9263" lon="6.92284">
        <ele>1054.2</ele>
        <time>2019-09-17T09:59:08Z</time>
      </trkpt>
      <trkpt lat="47.92631" lon="6.92289">
        <ele>1054.7</ele>
        <time>2019-09-17T09:59:11Z</time>
      </trkpt>
      <trkpt lat="47.92631" lon="6.92294">
        <ele>1055.1</ele>
        <time>2019-09-17T09:59:14Z</time>
      </trkpt>
      <trkpt lat="47.92632" lon="6.92298">
        <ele>1055.5</ele>
        <time>2019-09-17T09:59:17Z</time>
      </trkpt>
      <trkpt lat="47.92632" lon="6.92303">
        <ele>1055.9</ele>
        <time>2019-09-17T09:59:20Z</time>
      </trkpt>
      <trkpt lat="47.92632" lon="6.92308">
        <ele>1056.3</ele>
        <time>2019-09-17T09:59:23Z</time>
      </trkpt>
      <trkpt lat="47.92633" lon="6.92312">
        <ele>1056.7</ele>
        <time>2019-09-17T09:59:26Z</time>
      </trkpt>
      <trkpt lat="47.92634" lon="6.92317">
        <ele>1057</ele>
        <time>2019-09-17T09:59:29Z</time>
      </trkpt>
      <trkpt lat="47.92635" lon="6.92323">
        <ele>1057.4</ele>
        <time>2019-09-17T09:59:32Z</time>
      </trkpt>
      <trkpt lat="47.92636" lon="6.92326">
        <ele>1057.7</ele>
        <time>2019-09-17T09:59:34Z</time>
      </trkpt>
      <trkpt lat="47.92638" lon="6.92332">
        <ele>1058.2</ele>
        <time>2019-09-17T09:59:37Z</time>
      </trkpt>
      <trkpt lat="47.9264" lon="6.92336">
        <ele>1058.6</ele>
        <time>2019-09-17T09:59:39Z</time>
      </trkpt>
      <trkpt lat="47.92642" lon="6.9234">
        <ele>1059</ele>
        <time>2019-09-17T09:59:42Z</time>
      </trkpt>
      <trkpt lat="47.92644" lon="6.92345">
        <ele>1059.4</ele>
        <time>2019-09-17T09:59:45Z</time>
      </trkpt>
      <trkpt lat="47.92645" lon="6.92348">
        <ele>1059.7</ele>
        <time>2019-09-17T09:59:47Z</time>
      </trkpt>
      <trkpt lat="47.92647" lon="6.92352">
        <ele>1060</ele>
        <time>2019-09-17T09:59:49Z</time>
      </trkpt>
      <trkpt lat="47.92649" lon="6.92357">
        <ele>1060.4</ele>
        <time>2019-09-17T09:59:52Z</time>
      </trkpt>
      <trkpt lat="47.9265" lon="6.92362">
        <ele>1060.8</ele>
        <time>2019-09-17T09:59:55Z</time>
      </trkpt>
      <trkpt lat="47.92652" lon="6.92367">
        <ele>1061.3</ele>
        <time>2019-09-17T09:59:58Z</time>
      </trkpt>
      <trkpt lat="47.92653" lon="6.92371">
        <ele>1061.5</ele>
        <time>2019-09-17T10:00:00Z</time>
      </trkpt>
      <trkpt lat="47.92654" lon="6.92375">
        <ele>1061.7</ele>
        <time>2019-09-17T10:00:02Z</time>
      </trkpt>
      <trkpt lat="47.92655" lon="6.92379">
        <ele>1061.9</ele>
        <time>2019-09-17T10:00:04Z</time>
      </trkpt>
      <trkpt lat="47.92657" lon="6.92383">
        <ele>1062.1</ele>
        <time>2019-09-17T10:00:06Z</time>
      </trkpt>
      <trkpt lat="47.92658" lon="6.92388">
        <ele>1062.4</ele>
        <time>2019-09-17T10:00:09Z</time>
      </trkpt>
      <trkpt lat="47.92661" lon="6.92392">
        <ele>1062.7</ele>
        <time>2019-09-17T10:00:12Z</time>
      </trkpt>
      <trkpt lat="47.92662" lon="6.92397">
        <ele>1063</ele>
        <time>2019-09-17T10:00:20Z</time>
      </trkpt>
      <trkpt lat="47.92664" lon="6.92401">
        <ele>1063.3</ele>
        <time>2019-09-17T10:00:23Z</time>
      </trkpt>
      <trkpt lat="47.92667" lon="6.92405">
        <ele>1063.5</ele>
        <time>2019-09-17T10:00:26Z</time>
      </trkpt>
      <trkpt lat="47.9267" lon="6.92408">
        <ele>1063.7</ele>
        <time>2019-09-17T10:00:29Z</time>
      </trkpt>
      <trkpt lat="47.92672" lon="6.92411">
        <ele>1063.9</ele>
        <time>2019-09-17T10:00:31Z</time>
      </trkpt>
      <trkpt lat="47.92675" lon="6.92414">
        <ele>1064.1</ele>
        <time>2019-09-17T10:00:34Z</time>
      </trkpt>
      <trkpt lat="47.92678" lon="6.92419">
        <ele>1064.4</ele>
        <time>2019-09-17T10:00:37Z</time>
      </trkpt>
      <trkpt lat="47.9268" lon="6.92422">
        <ele>1064.6</ele>
        <time>2019-09-17T10:00:39Z</time>
      </trkpt>
      <trkpt lat="47.92682" lon="6.92427">
        <ele>1064.9</ele>
        <time>2019-09-17T10:00:42Z</time>
      </trkpt>
      <trkpt lat="47.92684" lon="6.92432">
        <ele>1065.2</ele>
        <time>2019-09-17T10:00:45Z</time>
      </trkpt>
      <trkpt lat="47.92685" lon="6.92436">
        <ele>1065.3</ele>
        <time>2019-09-17T10:00:47Z</time>
      </trkpt>
      <trkpt lat="47.92686" lon="6.92441">
        <ele>1065.6</ele>
        <time>2019-09-17T10:00:50Z</time>
      </trkpt>
      <trkpt lat="47.92688" lon="6.92445">
        <ele>1065.7</ele>
        <time>2019-09-17T10:00:52Z</time>
      </trkpt>
      <trkpt lat="47.92689" lon="6.9245">
        <ele>1065.9</ele>
        <time>2019-09-17T10:00:55Z</time>
      </trkpt>
      <trkpt lat="47.92691" lon="6.92456">
        <ele>1066.1</ele>
        <time>2019-09-17T10:00:58Z</time>
      </trkpt>
      <trkpt lat="47.92692" lon="6.9246">
        <ele>1066.3</ele>
        <time>2019-09-17T10:01:00Z</time>
      </trkpt>
      <trkpt lat="47.92694" lon="6.92464">
        <ele>1066.5</ele>
        <time>2019-09-17T10:01:03Z</time>
      </trkpt>
      <trkpt lat="47.92695" lon="6.92468">
        <ele>1066.6</ele>
        <time>2019-09-17T10:01:05Z</time>
      </trkpt>
      <trkpt lat="47.92697" lon="6.92471">
        <ele>1066.8</ele>
        <time>2019-09-17T10:01:07Z</time>
      </trkpt>
      <trkpt lat="47.92699" lon="6.92475">
        <ele>1066.9</ele>
        <time>2019-09-17T10:01:09Z</time>
      </trkpt>
      <trkpt lat="47.92701" lon="6.92479">
        <ele>1067.2</ele>
        <time>2019-09-17T10:01:12Z</time>
      </trkpt>
      <trkpt lat="47.92703" lon="6.92483">
        <ele>1067.4</ele>
        <time>2019-09-17T10:01:14Z</time>
      </trkpt>
      <trkpt lat="47.92705" lon="6.92487">
        <ele>1067.6</ele>
        <time>2019-09-17T10:01:17Z</time>
      </trkpt>
      <trkpt lat="47.92707" lon="6.9249">
        <ele>1067.8</ele>
        <time>2019-09-17T10:01:19Z</time>
      </trkpt>
      <trkpt lat="47.92709" lon="6.92494">
        <ele>1068</ele>
        <time>2019-09-17T10:01:21Z</time>
      </trkpt>
      <trkpt lat="47.92711" lon="6.92497">
        <ele>1068.2</ele>
        <time>2019-09-17T10:01:23Z</time>
      </trkpt>
      <trkpt lat="47.92712" lon="6.92502">
        <ele>1068.5</ele>
        <time>2019-09-17T10:01:26Z</time>
      </trkpt>
      <trkpt lat="47.92714" lon="6.92506">
        <ele>1068.6</ele>
        <time>2019-09-17T10:01:28Z</time>
      </trkpt>
      <trkpt lat="47.92716" lon="6.9251">
        <ele>1068.8</ele>
        <time>2019-09-17T10:01:30Z</time>
      </trkpt>
      <trkpt lat="47.92718" lon="6.92513">
        <ele>1069</ele>
        <time>2019-09-17T10:01:32Z</time>
      </trkpt>
      <trkpt lat="47.92721" lon="6.92517">
        <ele>1069.4</ele>
        <time>2019-09-17T10:01:35Z</time>
      </trkpt>
      <trkpt lat="47.92722" lon="6.92521">
        <ele>1069.8</ele>
        <time>2019-09-17T10:01:37Z</time>
      </trkpt>
      <trkpt lat="47.92724" lon="6.92524">
        <ele>1070.1</ele>
        <time>2019-09-17T10:01:39Z</time>
      </trkpt>
      <trkpt lat="47.92727" lon="6.92528">
        <ele>1070.5</ele>
        <time>2019-09-17T10:01:42Z</time>
      </trkpt>
      <trkpt lat="47.9273" lon="6.92531">
        <ele>1070.8</ele>
        <time>2019-09-17T10:01:45Z</time>
      </trkpt>
      <trkpt lat="47.92732" lon="6.92533">
        <ele>1071</ele>
        <time>2019-09-17T10:01:47Z</time>
      </trkpt>
      <trkpt lat="47.92735" lon="6.92536">
        <ele>1071.3</ele>
        <time>2019-09-17T10:01:49Z</time>
      </trkpt>
      <trkpt lat="47.92737" lon="6.92539">
        <ele>1071.7</ele>
        <time>2019-09-17T10:01:52Z</time>
      </trkpt>
      <trkpt lat="47.92739" lon="6.92543">
        <ele>1072.2</ele>
        <time>2019-09-17T10:01:55Z</time>
      </trkpt>
      <trkpt lat="47.92742" lon="6.92547">
        <ele>1072.7</ele>
        <time>2019-09-17T10:01:58Z</time>
      </trkpt>
      <trkpt lat="47.92744" lon="6.9255">
        <ele>1073.5</ele>
        <time>2019-09-17T10:02:01Z</time>
      </trkpt>
      <trkpt lat="47.92746" lon="6.92553">
        <ele>1073.6</ele>
        <time>2019-09-17T10:02:04Z</time>
      </trkpt>
      <trkpt lat="47.92747" lon="6.92557">
        <ele>1073.9</ele>
        <time>2019-09-17T10:02:13Z</time>
      </trkpt>
      <trkpt lat="47.92748" lon="6.92563">
        <ele>1074.1</ele>
        <time>2019-09-17T10:02:16Z</time>
      </trkpt>
      <trkpt lat="47.92749" lon="6.92567">
        <ele>1074.2</ele>
        <time>2019-09-17T10:02:18Z</time>
      </trkpt>
      <trkpt lat="47.9275" lon="6.9257">
        <ele>1074.3</ele>
        <time>2019-09-17T10:02:20Z</time>
      </trkpt>
      <trkpt lat="47.92751" lon="6.92575">
        <ele>1074.4</ele>
        <time>2019-09-17T10:02:23Z</time>
      </trkpt>
      <trkpt lat="47.92751" lon="6.9258">
        <ele>1074.4</ele>
        <time>2019-09-17T10:03:54Z</time>
      </trkpt>
      <trkpt lat="47.92754" lon="6.92579">
        <ele>1074.5</ele>
        <time>2019-09-17T10:04:22Z</time>
      </trkpt>
      <trkpt lat="47.92756" lon="6.92583">
        <ele>1074.5</ele>
        <time>2019-09-17T10:04:25Z</time>
      </trkpt>
      <trkpt lat="47.92759" lon="6.92586">
        <ele>1074.5</ele>
        <time>2019-09-17T10:04:28Z</time>
      </trkpt>
      <trkpt lat="47.92761" lon="6.9259">
        <ele>1074.5</ele>
        <time>2019-09-17T10:04:30Z</time>
      </trkpt>
      <trkpt lat="47.92762" lon="6.92594">
        <ele>1074.5</ele>
        <time>2019-09-17T10:04:32Z</time>
      </trkpt>
      <trkpt lat="47.92763" lon="6.92598">
        <ele>1074.5</ele>
        <time>2019-09-17T10:04:34Z</time>
      </trkpt>
      <trkpt lat="47.92766" lon="6.92602">
        <ele>1074.6</ele>
        <time>2019-09-17T10:04:37Z</time>
      </trkpt>
      <trkpt lat="47.92768" lon="6.92606">
        <ele>1074.6</ele>
        <time>2019-09-17T10:04:39Z</time>
      </trkpt>
      <trkpt lat="47.92769" lon="6.9261">
        <ele>1074.6</ele>
        <time>2019-09-17T10:04:41Z</time>
      </trkpt>
      <trkpt lat="47.92771" lon="6.92614">
        <ele>1074.7</ele>
        <time>2019-09-17T10:04:43Z</time>
      </trkpt>
      <trkpt lat="47.92773" lon="6.92619">
        <ele>1074.7</ele>
        <time>2019-09-17T10:04:46Z</time>
      </trkpt>
      <trkpt lat="47.92774" lon="6.92625">
        <ele>1074.8</ele>
        <time>2019-09-17T10:04:49Z</time>
      </trkpt>
      <trkpt lat="47.92775" lon="6.92629">
        <ele>1074.6</ele>
        <time>2019-09-17T10:04:51Z</time>
      </trkpt>
      <trkpt lat="47.92776" lon="6.92633">
        <ele>1074.5</ele>
        <time>2019-09-17T10:04:53Z</time>
      </trkpt>
      <trkpt lat="47.92777" lon="6.92638">
        <ele>1074.3</ele>
        <time>2019-09-17T10:04:55Z</time>
      </trkpt>
      <trkpt lat="47.92779" lon="6.92642">
        <ele>1074.2</ele>
        <time>2019-09-17T10:04:57Z</time>
      </trkpt>
      <trkpt lat="47.9278" lon="6.92646">
        <ele>1074.1</ele>
        <time>2019-09-17T10:04:59Z</time>
      </trkpt>
      <trkpt lat="47.9278" lon="6.9265">
        <ele>1074</ele>
        <time>2019-09-17T10:05:01Z</time>
      </trkpt>
      <trkpt lat="47.92782" lon="6.92655">
        <ele>1073.8</ele>
        <time>2019-09-17T10:05:04Z</time>
      </trkpt>
      <trkpt lat="47.92784" lon="6.92659">
        <ele>1073.7</ele>
        <time>2019-09-17T10:05:06Z</time>
      </trkpt>
      <trkpt lat="47.92785" lon="6.92662">
        <ele>1073.6</ele>
        <time>2019-09-17T10:05:08Z</time>
      </trkpt>
      <trkpt lat="47.92787" lon="6.92667">
        <ele>1073.4</ele>
        <time>2019-09-17T10:05:11Z</time>
      </trkpt>
      <trkpt lat="47.92789" lon="6.92673">
        <ele>1073.3</ele>
        <time>2019-09-17T10:05:14Z</time>
      </trkpt>
      <trkpt lat="47.9279" lon="6.92676">
        <ele>1073.3</ele>
        <time>2019-09-17T10:05:16Z</time>
      </trkpt>
      <trkpt lat="47.92792" lon="6.92681">
        <ele>1073.2</ele>
        <time>2019-09-17T10:05:19Z</time>
      </trkpt>
      <trkpt lat="47.92794" lon="6.92684">
        <ele>1072.8</ele>
        <time>2019-09-17T10:05:21Z</time>
      </trkpt>
      <trkpt lat="47.92796" lon="6.92687">
        <ele>1072.5</ele>
        <time>2019-09-17T10:05:23Z</time>
      </trkpt>
      <trkpt lat="47.92798" lon="6.92691">
        <ele>1072.5</ele>
        <time>2019-09-17T10:05:26Z</time>
      </trkpt>
      <trkpt lat="47.92801" lon="6.92696">
        <ele>1072.8</ele>
        <time>2019-09-17T10:05:29Z</time>
      </trkpt>
      <trkpt lat="47.92803" lon="6.92701">
        <ele>1072.9</ele>
        <time>2019-09-17T10:05:32Z</time>
      </trkpt>
      <trkpt lat="47.92804" lon="6.92705">
        <ele>1072.8</ele>
        <time>2019-09-17T10:05:34Z</time>
      </trkpt>
      <trkpt lat="47.92807" lon="6.92709">
        <ele>1072.7</ele>
        <time>2019-09-17T10:05:37Z</time>
      </trkpt>
      <trkpt lat="47.92807" lon="6.92713">
        <ele>1072.4</ele>
        <time>2019-09-17T10:05:46Z</time>
      </trkpt>
      <trkpt lat="47.92807" lon="6.92718">
        <ele>1072.1</ele>
        <time>2019-09-17T10:05:49Z</time>
      </trkpt>
      <trkpt lat="47.92809" lon="6.92722">
        <ele>1072.2</ele>
        <time>2019-09-17T10:05:52Z</time>
      </trkpt>
      <trkpt lat="47.92811" lon="6.92728">
        <ele>1072.7</ele>
        <time>2019-09-17T10:05:55Z</time>
      </trkpt>
      <trkpt lat="47.92812" lon="6.92731">
        <ele>1073.1</ele>
        <time>2019-09-17T10:05:57Z</time>
      </trkpt>
      <trkpt lat="47.92814" lon="6.92735">
        <ele>1073.1</ele>
        <time>2019-09-17T10:05:59Z</time>
      </trkpt>
      <trkpt lat="47.92815" lon="6.92739">
        <ele>1073.1</ele>
        <time>2019-09-17T10:06:01Z</time>
      </trkpt>
      <trkpt lat="47.92816" lon="6.92744">
        <ele>1073.2</ele>
        <time>2019-09-17T10:06:03Z</time>
      </trkpt>
      <trkpt lat="47.92817" lon="6.92748">
        <ele>1073.4</ele>
        <time>2019-09-17T10:06:05Z</time>
      </trkpt>
      <trkpt lat="47.92819" lon="6.92753">
        <ele>1073.6</ele>
        <time>2019-09-17T10:06:08Z</time>
      </trkpt>
      <trkpt lat="47.9282" lon="6.92758">
        <ele>1073.5</ele>
        <time>2019-09-17T10:06:11Z</time>
      </trkpt>
      <trkpt lat="47.92822" lon="6.92764">
        <ele>1073.4</ele>
        <time>2019-09-17T10:06:13Z</time>
      </trkpt>
      <trkpt lat="47.92823" lon="6.92769">
        <ele>1073.2</ele>
        <time>2019-09-17T10:06:16Z</time>
      </trkpt>
      <trkpt lat="47.92824" lon="6.92773">
        <ele>1072.9</ele>
        <time>2019-09-17T10:06:18Z</time>
      </trkpt>
      <trkpt lat="47.92826" lon="6.92778">
        <ele>1072.4</ele>
        <time>2019-09-17T10:06:22Z</time>
      </trkpt>
      <trkpt lat="47.92827" lon="6.92782">
        <ele>1071.9</ele>
        <time>2019-09-17T10:06:24Z</time>
      </trkpt>
      <trkpt lat="47.92828" lon="6.92787">
        <ele>1071.5</ele>
        <time>2019-09-17T10:06:27Z</time>
      </trkpt>
      <trkpt lat="47.9283" lon="6.92793">
        <ele>1071.5</ele>
        <time>2019-09-17T10:06:30Z</time>
      </trkpt>
      <trkpt lat="47.9283" lon="6.92798">
        <ele>1071.4</ele>
        <time>2019-09-17T10:06:32Z</time>
      </trkpt>
      <trkpt lat="47.92831" lon="6.92805">
        <ele>1070.8</ele>
        <time>2019-09-17T10:06:34Z</time>
      </trkpt>
      <trkpt lat="47.92831" lon="6.9281">
        <ele>1070.4</ele>
        <time>2019-09-17T10:06:36Z</time>
      </trkpt>
      <trkpt lat="47.92831" lon="6.92814">
        <ele>1070</ele>
        <time>2019-09-17T10:06:38Z</time>
      </trkpt>
      <trkpt lat="47.92832" lon="6.92819">
        <ele>1069.7</ele>
        <time>2019-09-17T10:06:40Z</time>
      </trkpt>
      <trkpt lat="47.92832" lon="6.92824">
        <ele>1069.7</ele>
        <time>2019-09-17T10:06:42Z</time>
      </trkpt>
      <trkpt lat="47.92832" lon="6.92828">
        <ele>1069.9</ele>
        <time>2019-09-17T10:06:44Z</time>
      </trkpt>
      <trkpt lat="47.92833" lon="6.92832">
        <ele>1070.1</ele>
        <time>2019-09-17T10:06:46Z</time>
      </trkpt>
      <trkpt lat="47.92833" lon="6.92837">
        <ele>1069.9</ele>
        <time>2019-09-17T10:06:48Z</time>
      </trkpt>
      <trkpt lat="47.92832" lon="6.92841">
        <ele>1069.8</ele>
        <time>2019-09-17T10:06:50Z</time>
      </trkpt>
      <trkpt lat="47.92832" lon="6.92845">
        <ele>1069.7</ele>
        <time>2019-09-17T10:06:52Z</time>
      </trkpt>
      <trkpt lat="47.92832" lon="6.92851">
        <ele>1069.8</ele>
        <time>2019-09-17T10:06:55Z</time>
      </trkpt>
      <trkpt lat="47.92832" lon="6.92855">
        <ele>1069.8</ele>
        <time>2019-09-17T10:06:57Z</time>
      </trkpt>
      <trkpt lat="47.92832" lon="6.92859">
        <ele>1069.7</ele>
        <time>2019-09-17T10:06:59Z</time>
      </trkpt>
      <trkpt lat="47.92831" lon="6.92863">
        <ele>1069.6</ele>
        <time>2019-09-17T10:07:01Z</time>
      </trkpt>
      <trkpt lat="47.92831" lon="6.92869">
        <ele>1069.4</ele>
        <time>2019-09-17T10:07:04Z</time>
      </trkpt>
      <trkpt lat="47.92831" lon="6.92873">
        <ele>1069.2</ele>
        <time>2019-09-17T10:07:06Z</time>
      </trkpt>
      <trkpt lat="47.92831" lon="6.92877">
        <ele>1069.1</ele>
        <time>2019-09-17T10:07:08Z</time>
      </trkpt>
      <trkpt lat="47.9283" lon="6.92883">
        <ele>1068.9</ele>
        <time>2019-09-17T10:07:11Z</time>
      </trkpt>
      <trkpt lat="47.9283" lon="6.92887">
        <ele>1069</ele>
        <time>2019-09-17T10:07:13Z</time>
      </trkpt>
      <trkpt lat="47.92829" lon="6.92891">
        <ele>1069.1</ele>
        <time>2019-09-17T10:07:15Z</time>
      </trkpt>
      <trkpt lat="47.92828" lon="6.92895">
        <ele>1069.1</ele>
        <time>2019-09-17T10:07:17Z</time>
      </trkpt>
      <trkpt lat="47.92827" lon="6.92901">
        <ele>1069</ele>
        <time>2019-09-17T10:07:20Z</time>
      </trkpt>
      <trkpt lat="47.92826" lon="6.92905">
        <ele>1069</ele>
        <time>2019-09-17T10:07:22Z</time>
      </trkpt>
      <trkpt lat="47.92825" lon="6.92908">
        <ele>1068.9</ele>
        <time>2019-09-17T10:07:24Z</time>
      </trkpt>
      <trkpt lat="47.92823" lon="6.92914">
        <ele>1069.3</ele>
        <time>2019-09-17T10:07:27Z</time>
      </trkpt>
      <trkpt lat="47.92822" lon="6.92918">
        <ele>1069.6</ele>
        <time>2019-09-17T10:07:29Z</time>
      </trkpt>
      <trkpt lat="47.92821" lon="6.92922">
        <ele>1069.9</ele>
        <time>2019-09-17T10:07:31Z</time>
      </trkpt>
      <trkpt lat="47.92819" lon="6.92927">
        <ele>1070.2</ele>
        <time>2019-09-17T10:07:34Z</time>
      </trkpt>
      <trkpt lat="47.92818" lon="6.92931">
        <ele>1070.4</ele>
        <time>2019-09-17T10:07:36Z</time>
      </trkpt>
      <trkpt lat="47.92817" lon="6.92937">
        <ele>1070.8</ele>
        <time>2019-09-17T10:07:39Z</time>
      </trkpt>
      <trkpt lat="47.92816" lon="6.92941">
        <ele>1071</ele>
        <time>2019-09-17T10:07:41Z</time>
      </trkpt>
      <trkpt lat="47.92816" lon="6.92945">
        <ele>1071.3</ele>
        <time>2019-09-17T10:07:43Z</time>
      </trkpt>
      <trkpt lat="47.92815" lon="6.9295">
        <ele>1071.7</ele>
        <time>2019-09-17T10:07:46Z</time>
      </trkpt>
      <trkpt lat="47.92814" lon="6.92954">
        <ele>1072</ele>
        <time>2019-09-17T10:07:48Z</time>
      </trkpt>
      <trkpt lat="47.92812" lon="6.92958">
        <ele>1072.3</ele>
        <time>2019-09-17T10:07:50Z</time>
      </trkpt>
      <trkpt lat="47.92811" lon="6.92963">
        <ele>1072.6</ele>
        <time>2019-09-17T10:07:53Z</time>
      </trkpt>
      <trkpt lat="47.9281" lon="6.92967">
        <ele>1072.8</ele>
        <time>2019-09-17T10:07:55Z</time>
      </trkpt>
      <trkpt lat="47.92808" lon="6.92972">
        <ele>1073.1</ele>
        <time>2019-09-17T10:07:58Z</time>
      </trkpt>
      <trkpt lat="47.92806" lon="6.92976">
        <ele>1073.2</ele>
        <time>2019-09-17T10:08:00Z</time>
      </trkpt>
      <trkpt lat="47.92803" lon="6.9298">
        <ele>1073.5</ele>
        <time>2019-09-17T10:08:03Z</time>
      </trkpt>
      <trkpt lat="47.92801" lon="6.92983">
        <ele>1073.7</ele>
        <time>2019-09-17T10:08:05Z</time>
      </trkpt>
      <trkpt lat="47.92799" lon="6.92986">
        <ele>1073.9</ele>
        <time>2019-09-17T10:08:07Z</time>
      </trkpt>
      <trkpt lat="47.92797" lon="6.9299">
        <ele>1074.1</ele>
        <time>2019-09-17T10:08:09Z</time>
      </trkpt>
      <trkpt lat="47.92795" lon="6.92993">
        <ele>1074.2</ele>
        <time>2019-09-17T10:08:11Z</time>
      </trkpt>
      <trkpt lat="47.92793" lon="6.92997">
        <ele>1074.5</ele>
        <time>2019-09-17T10:08:13Z</time>
      </trkpt>
      <trkpt lat="47.92791" lon="6.93">
        <ele>1074.8</ele>
        <time>2019-09-17T10:08:15Z</time>
      </trkpt>
      <trkpt lat="47.92789" lon="6.93004">
        <ele>1075</ele>
        <time>2019-09-17T10:08:18Z</time>
      </trkpt>
      <trkpt lat="47.92788" lon="6.93009">
        <ele>1075</ele>
        <time>2019-09-17T10:08:21Z</time>
      </trkpt>
      <trkpt lat="47.92786" lon="6.93013">
        <ele>1075</ele>
        <time>2019-09-17T10:08:24Z</time>
      </trkpt>
      <trkpt lat="47.92783" lon="6.93016">
        <ele>1074.8</ele>
        <time>2019-09-17T10:08:28Z</time>
      </trkpt>
      <trkpt lat="47.9278" lon="6.93015">
        <ele>1074.7</ele>
        <time>2019-09-17T10:08:39Z</time>
      </trkpt>
      <trkpt lat="47.92776" lon="6.93015">
        <ele>1074.5</ele>
        <time>2019-09-17T10:08:42Z</time>
      </trkpt>
      <trkpt lat="47.92773" lon="6.93014">
        <ele>1074.2</ele>
        <time>2019-09-17T10:08:45Z</time>
      </trkpt>
      <trkpt lat="47.92769" lon="6.93013">
        <ele>1073.9</ele>
        <time>2019-09-17T10:08:48Z</time>
      </trkpt>
      <trkpt lat="47.92766" lon="6.93012">
        <ele>1073.8</ele>
        <time>2019-09-17T10:08:51Z</time>
      </trkpt>
      <trkpt lat="47.92762" lon="6.93011">
        <ele>1073.8</ele>
        <time>2019-09-17T10:08:54Z</time>
      </trkpt>
      <trkpt lat="47.92759" lon="6.93011">
        <ele>1073.6</ele>
        <time>2019-09-17T10:08:57Z</time>
      </trkpt>
      <trkpt lat="47.92757" lon="6.93015">
        <ele>1074</ele>
        <time>2019-09-17T10:09:01Z</time>
      </trkpt>
      <trkpt lat="47.92754" lon="6.93018">
        <ele>1073.8</ele>
        <time>2019-09-17T10:09:07Z</time>
      </trkpt>
      <trkpt lat="47.92752" lon="6.93021">
        <ele>1074</ele>
        <time>2019-09-17T10:09:09Z</time>
      </trkpt>
      <trkpt lat="47.9275" lon="6.93025">
        <ele>1074.2</ele>
        <time>2019-09-17T10:09:12Z</time>
      </trkpt>
      <trkpt lat="47.92748" lon="6.93029">
        <ele>1074.7</ele>
        <time>2019-09-17T10:09:15Z</time>
      </trkpt>
      <trkpt lat="47.92746" lon="6.93033">
        <ele>1074.8</ele>
        <time>2019-09-17T10:09:19Z</time>
      </trkpt>
      <trkpt lat="47.92743" lon="6.93038">
        <ele>1074.9</ele>
        <time>2019-09-17T10:09:22Z</time>
      </trkpt>
      <trkpt lat="47.92742" lon="6.93041">
        <ele>1075.3</ele>
        <time>2019-09-17T10:09:24Z</time>
      </trkpt>
      <trkpt lat="47.9274" lon="6.93044">
        <ele>1075</ele>
        <time>2019-09-17T10:09:26Z</time>
      </trkpt>
      <trkpt lat="47.92738" lon="6.93047">
        <ele>1075</ele>
        <time>2019-09-17T10:09:28Z</time>
      </trkpt>
      <trkpt lat="47.92736" lon="6.93051">
        <ele>1075.3</ele>
        <time>2019-09-17T10:09:31Z</time>
      </trkpt>
      <trkpt lat="47.92734" lon="6.93055">
        <ele>1075.3</ele>
        <time>2019-09-17T10:09:34Z</time>
      </trkpt>
      <trkpt lat="47.92732" lon="6.93059">
        <ele>1075.3</ele>
        <time>2019-09-17T10:09:37Z</time>
      </trkpt>
      <trkpt lat="47.9273" lon="6.93062">
        <ele>1075.6</ele>
        <time>2019-09-17T10:09:40Z</time>
      </trkpt>
      <trkpt lat="47.92729" lon="6.93066">
        <ele>1075.6</ele>
        <time>2019-09-17T10:09:43Z</time>
      </trkpt>
      <trkpt lat="47.92727" lon="6.9307">
        <ele>1075.7</ele>
        <time>2019-09-17T10:09:47Z</time>
      </trkpt>
      <trkpt lat="47.92726" lon="6.93074">
        <ele>1075.6</ele>
        <time>2019-09-17T10:09:51Z</time>
      </trkpt>
      <trkpt lat="47.92723" lon="6.93078">
        <ele>1075.6</ele>
        <time>2019-09-17T10:09:55Z</time>
      </trkpt>
      <trkpt lat="47.92722" lon="6.93082">
        <ele>1075.9</ele>
        <time>2019-09-17T10:09:58Z</time>
      </trkpt>
      <trkpt lat="47.92721" lon="6.93087">
        <ele>1075.8</ele>
        <time>2019-09-17T10:10:02Z</time>
      </trkpt>
      <trkpt lat="47.92719" lon="6.93091">
        <ele>1076.1</ele>
        <time>2019-09-17T10:10:06Z</time>
      </trkpt>
      <trkpt lat="47.92717" lon="6.93096">
        <ele>1076.1</ele>
        <time>2019-09-17T10:10:13Z</time>
      </trkpt>
      <trkpt lat="47.92716" lon="6.93099">
        <ele>1076.2</ele>
        <time>2019-09-17T10:10:17Z</time>
      </trkpt>
      <trkpt lat="47.92714" lon="6.93104">
        <ele>1076.7</ele>
        <time>2019-09-17T10:10:23Z</time>
      </trkpt>
      <trkpt lat="47.92713" lon="6.93108">
        <ele>1077.2</ele>
        <time>2019-09-17T10:10:28Z</time>
      </trkpt>
      <trkpt lat="47.92712" lon="6.93112">
        <ele>1077.6</ele>
        <time>2019-09-17T10:10:31Z</time>
      </trkpt>
      <trkpt lat="47.92712" lon="6.93117">
        <ele>1078.1</ele>
        <time>2019-09-17T10:10:34Z</time>
      </trkpt>
      <trkpt lat="47.92711" lon="6.93121">
        <ele>1078.5</ele>
        <time>2019-09-17T10:10:38Z</time>
      </trkpt>
      <trkpt lat="47.9271" lon="6.93125">
        <ele>1078.8</ele>
        <time>2019-09-17T10:10:42Z</time>
      </trkpt>
      <trkpt lat="47.92707" lon="6.93127">
        <ele>1079.5</ele>
        <time>2019-09-17T10:10:45Z</time>
      </trkpt>
      <trkpt lat="47.92704" lon="6.93127">
        <ele>1079.8</ele>
        <time>2019-09-17T10:10:55Z</time>
      </trkpt>
      <trkpt lat="47.92702" lon="6.9313">
        <ele>1079.8</ele>
        <time>2019-09-17T10:11:00Z</time>
      </trkpt>
      <trkpt lat="47.927" lon="6.93133">
        <ele>1080.4</ele>
        <time>2019-09-17T10:11:04Z</time>
      </trkpt>
      <trkpt lat="47.92697" lon="6.93135">
        <ele>1080.8</ele>
        <time>2019-09-17T10:11:09Z</time>
      </trkpt>
      <trkpt lat="47.92693" lon="6.93135">
        <ele>1081.2</ele>
        <time>2019-09-17T10:11:12Z</time>
      </trkpt>
      <trkpt lat="47.9269" lon="6.93135">
        <ele>1081.5</ele>
        <time>2019-09-17T10:11:14Z</time>
      </trkpt>
      <trkpt lat="47.92687" lon="6.93135">
        <ele>1081.7</ele>
        <time>2019-09-17T10:11:16Z</time>
      </trkpt>
      <trkpt lat="47.92684" lon="6.93134">
        <ele>1081.3</ele>
        <time>2019-09-17T10:11:19Z</time>
      </trkpt>
      <trkpt lat="47.92681" lon="6.93133">
        <ele>1081.1</ele>
        <time>2019-09-17T10:11:22Z</time>
      </trkpt>
      <trkpt lat="47.92678" lon="6.93131">
        <ele>1080.7</ele>
        <time>2019-09-17T10:11:25Z</time>
      </trkpt>
      <trkpt lat="47.92675" lon="6.93129">
        <ele>1079.3</ele>
        <time>2019-09-17T10:11:28Z</time>
      </trkpt>
      <trkpt lat="47.92673" lon="6.93125">
        <ele>1078.4</ele>
        <time>2019-09-17T10:11:32Z</time>
      </trkpt>
      <trkpt lat="47.92667" lon="6.93126">
        <ele>1077.8</ele>
        <time>2019-09-17T10:15:46Z</time>
      </trkpt>
      <trkpt lat="47.92666" lon="6.9313">
        <ele>1076.9</ele>
        <time>2019-09-17T10:17:44Z</time>
      </trkpt>
      <trkpt lat="47.92668" lon="6.93131">
        <ele>1078.6</ele>
        <time>2019-09-17T10:20:10Z</time>
      </trkpt>
      <trkpt lat="47.9267" lon="6.93126">
        <ele>1078.6</ele>
        <time>2019-09-17T10:20:23Z</time>
      </trkpt>
      <trkpt lat="47.92673" lon="6.93129">
        <ele>1079.4</ele>
        <time>2019-09-17T10:20:26Z</time>
      </trkpt>
      <trkpt lat="47.92672" lon="6.93125">
        <ele>1077.8</ele>
        <time>2019-09-17T10:20:39Z</time>
      </trkpt>
      <trkpt lat="47.92676" lon="6.93128">
        <ele>1080</ele>
        <time>2019-09-17T10:20:42Z</time>
      </trkpt>
      <trkpt lat="47.92673" lon="6.93126">
        <ele>1078.5</ele>
        <time>2019-09-17T10:20:58Z</time>
      </trkpt>
      <trkpt lat="47.92672" lon="6.93121">
        <ele>1076.9</ele>
        <time>2019-09-17T10:21:07Z</time>
      </trkpt>
      <trkpt lat="47.92674" lon="6.93124">
        <ele>1078.5</ele>
        <time>2019-09-17T10:21:18Z</time>
      </trkpt>
      <trkpt lat="47.92673" lon="6.93128">
        <ele>1079.5</ele>
        <time>2019-09-17T10:22:41Z</time>
      </trkpt>
      <trkpt lat="47.92668" lon="6.93136">
        <ele>1079.3</ele>
        <time>2019-09-17T10:30:37Z</time>
      </trkpt>
      <trkpt lat="47.92669" lon="6.93132">
        <ele>1078.7</ele>
        <time>2019-09-17T10:31:14Z</time>
      </trkpt>
      <trkpt lat="47.92672" lon="6.93133">
        <ele>1079.6</ele>
        <time>2019-09-17T10:31:50Z</time>
      </trkpt>
      <trkpt lat="47.92669" lon="6.9313">
        <ele>1078.7</ele>
        <time>2019-09-17T10:32:06Z</time>
      </trkpt>
      <trkpt lat="47.92666" lon="6.93131">
        <ele>1077.8</ele>
        <time>2019-09-17T10:32:09Z</time>
      </trkpt>
      <trkpt lat="47.92662" lon="6.93133">
        <ele>1076.8</ele>
        <time>2019-09-17T10:32:13Z</time>
      </trkpt>
      <trkpt lat="47.92658" lon="6.93134">
        <ele>1075.9</ele>
        <time>2019-09-17T10:32:16Z</time>
      </trkpt>
      <trkpt lat="47.92655" lon="6.93134">
        <ele>1074</ele>
        <time>2019-09-17T10:32:19Z</time>
      </trkpt>
      <trkpt lat="47.92652" lon="6.93135">
        <ele>1073.6</ele>
        <time>2019-09-17T10:32:22Z</time>
      </trkpt>
      <trkpt lat="47.92649" lon="6.93135">
        <ele>1072.7</ele>
        <time>2019-09-17T10:32:25Z</time>
      </trkpt>
      <trkpt lat="47.92646" lon="6.93136">
        <ele>1071.9</ele>
        <time>2019-09-17T10:32:27Z</time>
      </trkpt>
      <trkpt lat="47.92642" lon="6.93138">
        <ele>1071.2</ele>
        <time>2019-09-17T10:32:30Z</time>
      </trkpt>
      <trkpt lat="47.92639" lon="6.9314">
        <ele>1070.5</ele>
        <time>2019-09-17T10:32:33Z</time>
      </trkpt>
      <trkpt lat="47.92636" lon="6.93141">
        <ele>1069.7</ele>
        <time>2019-09-17T10:32:36Z</time>
      </trkpt>
      <trkpt lat="47.92633" lon="6.93142">
        <ele>1069</ele>
        <time>2019-09-17T10:32:39Z</time>
      </trkpt>
      <trkpt lat="47.92629" lon="6.93141">
        <ele>1067.8</ele>
        <time>2019-09-17T10:32:42Z</time>
      </trkpt>
      <trkpt lat="47.92626" lon="6.9314">
        <ele>1067.3</ele>
        <time>2019-09-17T10:32:44Z</time>
      </trkpt>
      <trkpt lat="47.92623" lon="6.93141">
        <ele>1066.9</ele>
        <time>2019-09-17T10:32:47Z</time>
      </trkpt>
      <trkpt lat="47.9262" lon="6.93143">
        <ele>1066.4</ele>
        <time>2019-09-17T10:32:51Z</time>
      </trkpt>
      <trkpt lat="47.92617" lon="6.93139">
        <ele>1065.9</ele>
        <time>2019-09-17T10:34:12Z</time>
      </trkpt>
      <trkpt lat="47.92614" lon="6.93136">
        <ele>1066</ele>
        <time>2019-09-17T10:34:14Z</time>
      </trkpt>
      <trkpt lat="47.92611" lon="6.93136">
        <ele>1065.5</ele>
        <time>2019-09-17T10:34:17Z</time>
      </trkpt>
      <trkpt lat="47.9261" lon="6.9314">
        <ele>1065</ele>
        <time>2019-09-17T10:34:21Z</time>
      </trkpt>
      <trkpt lat="47.9261" lon="6.93135">
        <ele>1065.5</ele>
        <time>2019-09-17T10:34:27Z</time>
      </trkpt>
      <trkpt lat="47.92607" lon="6.93134">
        <ele>1065.5</ele>
        <time>2019-09-17T10:34:29Z</time>
      </trkpt>
      <trkpt lat="47.92604" lon="6.93135">
        <ele>1064.6</ele>
        <time>2019-09-17T10:34:31Z</time>
      </trkpt>
      <trkpt lat="47.92601" lon="6.93134">
        <ele>1064.3</ele>
        <time>2019-09-17T10:34:34Z</time>
      </trkpt>
      <trkpt lat="47.92596" lon="6.93141">
        <ele>1063.3</ele>
        <time>2019-09-17T10:34:47Z</time>
      </trkpt>
      <trkpt lat="47.92594" lon="6.93145">
        <ele>1062.7</ele>
        <time>2019-09-17T10:34:50Z</time>
      </trkpt>
      <trkpt lat="47.92593" lon="6.93149">
        <ele>1062.1</ele>
        <time>2019-09-17T10:34:53Z</time>
      </trkpt>
      <trkpt lat="47.92591" lon="6.93152">
        <ele>1061.4</ele>
        <time>2019-09-17T10:34:57Z</time>
      </trkpt>
      <trkpt lat="47.92589" lon="6.93156">
        <ele>1060.6</ele>
        <time>2019-09-17T10:35:00Z</time>
      </trkpt>
      <trkpt lat="47.92588" lon="6.9316">
        <ele>1059.9</ele>
        <time>2019-09-17T10:35:02Z</time>
      </trkpt>
      <trkpt lat="47.92585" lon="6.93165">
        <ele>1058.8</ele>
        <time>2019-09-17T10:35:05Z</time>
      </trkpt>
      <trkpt lat="47.92584" lon="6.9317">
        <ele>1057.8</ele>
        <time>2019-09-17T10:35:08Z</time>
      </trkpt>
      <trkpt lat="47.92582" lon="6.93173">
        <ele>1057.1</ele>
        <time>2019-09-17T10:35:10Z</time>
      </trkpt>
      <trkpt lat="47.9258" lon="6.93176">
        <ele>1056.5</ele>
        <time>2019-09-17T10:35:12Z</time>
      </trkpt>
      <trkpt lat="47.92577" lon="6.9318">
        <ele>1055.7</ele>
        <time>2019-09-17T10:35:15Z</time>
      </trkpt>
      <trkpt lat="47.92575" lon="6.93183">
        <ele>1054.9</ele>
        <time>2019-09-17T10:35:18Z</time>
      </trkpt>
      <trkpt lat="47.92572" lon="6.93185">
        <ele>1053.8</ele>
        <time>2019-09-17T10:35:22Z</time>
      </trkpt>
      <trkpt lat="47.9257" lon="6.93189">
        <ele>1053.2</ele>
        <time>2019-09-17T10:35:26Z</time>
      </trkpt>
      <trkpt lat="47.92567" lon="6.93193">
        <ele>1052.8</ele>
        <time>2019-09-17T10:35:30Z</time>
      </trkpt>
      <trkpt lat="47.92565" lon="6.93196">
        <ele>1052</ele>
        <time>2019-09-17T10:35:33Z</time>
      </trkpt>
      <trkpt lat="47.92563" lon="6.93201">
        <ele>1051</ele>
        <time>2019-09-17T10:35:37Z</time>
      </trkpt>
      <trkpt lat="47.9256" lon="6.93198">
        <ele>1050.2</ele>
        <time>2019-09-17T10:35:42Z</time>
      </trkpt>
      <trkpt lat="47.92559" lon="6.93203">
        <ele>1049.3</ele>
        <time>2019-09-17T10:35:45Z</time>
      </trkpt>
      <trkpt lat="47.92557" lon="6.93207">
        <ele>1048.6</ele>
        <time>2019-09-17T10:35:50Z</time>
      </trkpt>
      <trkpt lat="47.92556" lon="6.93211">
        <ele>1047.8</ele>
        <time>2019-09-17T10:36:02Z</time>
      </trkpt>
      <trkpt lat="47.92554" lon="6.93215">
        <ele>1047.1</ele>
        <time>2019-09-17T10:36:06Z</time>
      </trkpt>
      <trkpt lat="47.92553" lon="6.93218">
        <ele>1046.4</ele>
        <time>2019-09-17T10:36:09Z</time>
      </trkpt>
      <trkpt lat="47.9255" lon="6.93222">
        <ele>1045.6</ele>
        <time>2019-09-17T10:36:12Z</time>
      </trkpt>
      <trkpt lat="47.92548" lon="6.93225">
        <ele>1044.7</ele>
        <time>2019-09-17T10:36:15Z</time>
      </trkpt>
      <trkpt lat="47.92545" lon="6.93227">
        <ele>1044</ele>
        <time>2019-09-17T10:36:24Z</time>
      </trkpt>
      <trkpt lat="47.92544" lon="6.93232">
        <ele>1043.1</ele>
        <time>2019-09-17T10:36:29Z</time>
      </trkpt>
      <trkpt lat="47.92542" lon="6.93235">
        <ele>1042.3</ele>
        <time>2019-09-17T10:36:31Z</time>
      </trkpt>
      <trkpt lat="47.9254" lon="6.93238">
        <ele>1041.5</ele>
        <time>2019-09-17T10:36:33Z</time>
      </trkpt>
      <trkpt lat="47.92539" lon="6.93242">
        <ele>1040.7</ele>
        <time>2019-09-17T10:36:38Z</time>
      </trkpt>
      <trkpt lat="47.9254" lon="6.93247">
        <ele>1039.8</ele>
        <time>2019-09-17T10:36:41Z</time>
      </trkpt>
      <trkpt lat="47.92538" lon="6.93251">
        <ele>1038.9</ele>
        <time>2019-09-17T10:36:46Z</time>
      </trkpt>
      <trkpt lat="47.92536" lon="6.93253">
        <ele>1038.1</ele>
        <time>2019-09-17T10:36:50Z</time>
      </trkpt>
      <trkpt lat="47.92535" lon="6.93257">
        <ele>1037.2</ele>
        <time>2019-09-17T10:36:56Z</time>
      </trkpt>
      <trkpt lat="47.92532" lon="6.9326">
        <ele>1036.2</ele>
        <time>2019-09-17T10:37:00Z</time>
      </trkpt>
      <trkpt lat="47.9253" lon="6.93265">
        <ele>1035.1</ele>
        <time>2019-09-17T10:37:04Z</time>
      </trkpt>
      <trkpt lat="47.92528" lon="6.93269">
        <ele>1034.1</ele>
        <time>2019-09-17T10:37:07Z</time>
      </trkpt>
      <trkpt lat="47.92527" lon="6.93273">
        <ele>1033.1</ele>
        <time>2019-09-17T10:37:10Z</time>
      </trkpt>
      <trkpt lat="47.92526" lon="6.93277">
        <ele>1031.9</ele>
        <time>2019-09-17T10:37:14Z</time>
      </trkpt>
      <trkpt lat="47.92523" lon="6.9328">
        <ele>1030.9</ele>
        <time>2019-09-17T10:37:18Z</time>
      </trkpt>
      <trkpt lat="47.9252" lon="6.93278">
        <ele>1029.9</ele>
        <time>2019-09-17T10:37:21Z</time>
      </trkpt>
      <trkpt lat="47.9252" lon="6.93272">
        <ele>1029</ele>
        <time>2019-09-17T10:37:24Z</time>
      </trkpt>
      <trkpt lat="47.9252" lon="6.93277">
        <ele>1028.2</ele>
        <time>2019-09-17T10:37:31Z</time>
      </trkpt>
      <trkpt lat="47.92521" lon="6.93281">
        <ele>1027.3</ele>
        <time>2019-09-17T10:37:35Z</time>
      </trkpt>
      <trkpt lat="47.9252" lon="6.93285">
        <ele>1026</ele>
        <time>2019-09-17T10:37:43Z</time>
      </trkpt>
      <trkpt lat="47.92517" lon="6.93287">
        <ele>1024.7</ele>
        <time>2019-09-17T10:37:50Z</time>
      </trkpt>
      <trkpt lat="47.92514" lon="6.93287">
        <ele>1023.4</ele>
        <time>2019-09-17T10:37:54Z</time>
      </trkpt>
      <trkpt lat="47.9251" lon="6.93287">
        <ele>1022.1</ele>
        <time>2019-09-17T10:37:57Z</time>
      </trkpt>
      <trkpt lat="47.92505" lon="6.93288">
        <ele>1020.6</ele>
        <time>2019-09-17T10:37:59Z</time>
      </trkpt>
      <trkpt lat="47.92501" lon="6.93288">
        <ele>1019.2</ele>
        <time>2019-09-17T10:38:01Z</time>
      </trkpt>
      <trkpt lat="47.92497" lon="6.93287">
        <ele>1017.6</ele>
        <time>2019-09-17T10:38:03Z</time>
      </trkpt>
      <trkpt lat="47.92495" lon="6.93286">
        <ele>1016.3</ele>
        <time>2019-09-17T10:38:05Z</time>
      </trkpt>
      <trkpt lat="47.92492" lon="6.93285">
        <ele>1015.2</ele>
        <time>2019-09-17T10:38:08Z</time>
      </trkpt>
      <trkpt lat="47.92489" lon="6.93286">
        <ele>1014.3</ele>
        <time>2019-09-17T10:38:12Z</time>
      </trkpt>
      <trkpt lat="47.92486" lon="6.93289">
        <ele>1013.3</ele>
        <time>2019-09-17T10:38:15Z</time>
      </trkpt>
      <trkpt lat="47.92483" lon="6.93292">
        <ele>1012.3</ele>
        <time>2019-09-17T10:38:18Z</time>
      </trkpt>
      <trkpt lat="47.9248" lon="6.93292">
        <ele>1011</ele>
        <time>2019-09-17T10:38:22Z</time>
      </trkpt>
      <trkpt lat="47.92477" lon="6.93292">
        <ele>1009.7</ele>
        <time>2019-09-17T10:38:25Z</time>
      </trkpt>
      <trkpt lat="47.92474" lon="6.93292">
        <ele>1008.1</ele>
        <time>2019-09-17T10:38:28Z</time>
      </trkpt>
      <trkpt lat="47.9247" lon="6.93292">
        <ele>1006.6</ele>
        <time>2019-09-17T10:38:31Z</time>
      </trkpt>
      <trkpt lat="47.92467" lon="6.93291">
        <ele>1005.4</ele>
        <time>2019-09-17T10:38:34Z</time>
      </trkpt>
      <trkpt lat="47.92464" lon="6.93289">
        <ele>1004.4</ele>
        <time>2019-09-17T10:38:37Z</time>
      </trkpt>
      <trkpt lat="47.92461" lon="6.93285">
        <ele>1003.1</ele>
        <time>2019-09-17T10:38:40Z</time>
      </trkpt>
      <trkpt lat="47.9246" lon="6.93281">
        <ele>1001.7</ele>
        <time>2019-09-17T10:38:42Z</time>
      </trkpt>
      <trkpt lat="47.92457" lon="6.93277">
        <ele>1000.1</ele>
        <time>2019-09-17T10:38:45Z</time>
      </trkpt>
      <trkpt lat="47.92455" lon="6.93273">
        <ele>998.6</ele>
        <time>2019-09-17T10:38:48Z</time>
      </trkpt>
      <trkpt lat="47.92456" lon="6.93278">
        <ele>997.6</ele>
        <time>2019-09-17T10:38:57Z</time>
      </trkpt>
      <trkpt lat="47.92455" lon="6.93283">
        <ele>996.8</ele>
        <time>2019-09-17T10:38:59Z</time>
      </trkpt>
      <trkpt lat="47.92455" lon="6.93287">
        <ele>996</ele>
        <time>2019-09-17T10:39:01Z</time>
      </trkpt>
      <trkpt lat="47.92454" lon="6.93291">
        <ele>995.1</ele>
        <time>2019-09-17T10:39:03Z</time>
      </trkpt>
      <trkpt lat="47.92454" lon="6.93295">
        <ele>994.1</ele>
        <time>2019-09-17T10:39:05Z</time>
      </trkpt>
      <trkpt lat="47.92455" lon="6.933">
        <ele>993</ele>
        <time>2019-09-17T10:39:08Z</time>
      </trkpt>
      <trkpt lat="47.92456" lon="6.93304">
        <ele>991.9</ele>
        <time>2019-09-17T10:39:12Z</time>
      </trkpt>
      <trkpt lat="47.92458" lon="6.93308">
        <ele>991.3</ele>
        <time>2019-09-17T10:39:16Z</time>
      </trkpt>
      <trkpt lat="47.92459" lon="6.93312">
        <ele>990.7</ele>
        <time>2019-09-17T10:39:19Z</time>
      </trkpt>
      <trkpt lat="47.92461" lon="6.93316">
        <ele>990</ele>
        <time>2019-09-17T10:39:22Z</time>
      </trkpt>
      <trkpt lat="47.92462" lon="6.9332">
        <ele>989.4</ele>
        <time>2019-09-17T10:39:24Z</time>
      </trkpt>
      <trkpt lat="47.92464" lon="6.93325">
        <ele>988.3</ele>
        <time>2019-09-17T10:39:27Z</time>
      </trkpt>
      <trkpt lat="47.92466" lon="6.9333">
        <ele>987.3</ele>
        <time>2019-09-17T10:39:30Z</time>
      </trkpt>
      <trkpt lat="47.92466" lon="6.93334">
        <ele>986.4</ele>
        <time>2019-09-17T10:39:33Z</time>
      </trkpt>
      <trkpt lat="47.92467" lon="6.93339">
        <ele>985.6</ele>
        <time>2019-09-17T10:39:36Z</time>
      </trkpt>
      <trkpt lat="47.92467" lon="6.93344">
        <ele>984.6</ele>
        <time>2019-09-17T10:39:39Z</time>
      </trkpt>
      <trkpt lat="47.92467" lon="6.93349">
        <ele>983.7</ele>
        <time>2019-09-17T10:39:42Z</time>
      </trkpt>
      <trkpt lat="47.92468" lon="6.93355">
        <ele>983.2</ele>
        <time>2019-09-17T10:39:45Z</time>
      </trkpt>
      <trkpt lat="47.92468" lon="6.9336">
        <ele>982.7</ele>
        <time>2019-09-17T10:39:48Z</time>
      </trkpt>
      <trkpt lat="47.92468" lon="6.93366">
        <ele>982.1</ele>
        <time>2019-09-17T10:39:51Z</time>
      </trkpt>
      <trkpt lat="47.92468" lon="6.9337">
        <ele>981.6</ele>
        <time>2019-09-17T10:39:53Z</time>
      </trkpt>
      <trkpt lat="47.92468" lon="6.93375">
        <ele>981</ele>
        <time>2019-09-17T10:39:55Z</time>
      </trkpt>
      <trkpt lat="47.92468" lon="6.9338">
        <ele>980.4</ele>
        <time>2019-09-17T10:39:58Z</time>
      </trkpt>
      <trkpt lat="47.92468" lon="6.93385">
        <ele>979.8</ele>
        <time>2019-09-17T10:40:00Z</time>
      </trkpt>
      <trkpt lat="47.92468" lon="6.93389">
        <ele>979.3</ele>
        <time>2019-09-17T10:40:02Z</time>
      </trkpt>
      <trkpt lat="47.92469" lon="6.93394">
        <ele>978.9</ele>
        <time>2019-09-17T10:40:06Z</time>
      </trkpt>
      <trkpt lat="47.92469" lon="6.93398">
        <ele>978.4</ele>
        <time>2019-09-17T10:40:10Z</time>
      </trkpt>
      <trkpt lat="47.9247" lon="6.93403">
        <ele>977.7</ele>
        <time>2019-09-17T10:40:15Z</time>
      </trkpt>
      <trkpt lat="47.92471" lon="6.93408">
        <ele>977.2</ele>
        <time>2019-09-17T10:40:18Z</time>
      </trkpt>
      <trkpt lat="47.92471" lon="6.93412">
        <ele>976.4</ele>
        <time>2019-09-17T10:40:21Z</time>
      </trkpt>
      <trkpt lat="47.92471" lon="6.93417">
        <ele>975.4</ele>
        <time>2019-09-17T10:40:23Z</time>
      </trkpt>
      <trkpt lat="47.9247" lon="6.93423">
        <ele>974.4</ele>
        <time>2019-09-17T10:40:25Z</time>
      </trkpt>
      <trkpt lat="47.92469" lon="6.93429">
        <ele>973.8</ele>
        <time>2019-09-17T10:40:27Z</time>
      </trkpt>
      <trkpt lat="47.92468" lon="6.93434">
        <ele>973.1</ele>
        <time>2019-09-17T10:40:29Z</time>
      </trkpt>
      <trkpt lat="47.92468" lon="6.93439">
        <ele>972.3</ele>
        <time>2019-09-17T10:40:33Z</time>
      </trkpt>
      <trkpt lat="47.92468" lon="6.93445">
        <ele>971.2</ele>
        <time>2019-09-17T10:40:37Z</time>
      </trkpt>
      <trkpt lat="47.92468" lon="6.93449">
        <ele>970.5</ele>
        <time>2019-09-17T10:40:39Z</time>
      </trkpt>
      <trkpt lat="47.92468" lon="6.93455">
        <ele>969.8</ele>
        <time>2019-09-17T10:40:42Z</time>
      </trkpt>
      <trkpt lat="47.92469" lon="6.9346">
        <ele>969.1</ele>
        <time>2019-09-17T10:40:45Z</time>
      </trkpt>
      <trkpt lat="47.9247" lon="6.93466">
        <ele>968.6</ele>
        <time>2019-09-17T10:40:48Z</time>
      </trkpt>
      <trkpt lat="47.9247" lon="6.93471">
        <ele>968</ele>
        <time>2019-09-17T10:40:50Z</time>
      </trkpt>
      <trkpt lat="47.9247" lon="6.93476">
        <ele>967.4</ele>
        <time>2019-09-17T10:40:52Z</time>
      </trkpt>
      <trkpt lat="47.92471" lon="6.93481">
        <ele>966.5</ele>
        <time>2019-09-17T10:40:55Z</time>
      </trkpt>
      <trkpt lat="47.92472" lon="6.93486">
        <ele>965.7</ele>
        <time>2019-09-17T10:40:58Z</time>
      </trkpt>
      <trkpt lat="47.92473" lon="6.93491">
        <ele>965.2</ele>
        <time>2019-09-17T10:41:02Z</time>
      </trkpt>
      <trkpt lat="47.92474" lon="6.93495">
        <ele>964.9</ele>
        <time>2019-09-17T10:41:05Z</time>
      </trkpt>
      <trkpt lat="47.92475" lon="6.935">
        <ele>964.8</ele>
        <time>2019-09-17T10:41:08Z</time>
      </trkpt>
      <trkpt lat="47.92475" lon="6.93505">
        <ele>964.7</ele>
        <time>2019-09-17T10:41:11Z</time>
      </trkpt>
      <trkpt lat="47.92474" lon="6.93511">
        <ele>964.1</ele>
        <time>2019-09-17T10:41:14Z</time>
      </trkpt>
      <trkpt lat="47.92474" lon="6.93515">
        <ele>963.5</ele>
        <time>2019-09-17T10:41:17Z</time>
      </trkpt>
      <trkpt lat="47.92474" lon="6.9352">
        <ele>962.9</ele>
        <time>2019-09-17T10:41:20Z</time>
      </trkpt>
      <trkpt lat="47.92473" lon="6.93524">
        <ele>962.4</ele>
        <time>2019-09-17T10:41:23Z</time>
      </trkpt>
      <trkpt lat="47.92472" lon="6.93529">
        <ele>961.8</ele>
        <time>2019-09-17T10:41:26Z</time>
      </trkpt>
      <trkpt lat="47.9247" lon="6.93533">
        <ele>961.3</ele>
        <time>2019-09-17T10:41:29Z</time>
      </trkpt>
      <trkpt lat="47.9247" lon="6.93538">
        <ele>960.8</ele>
        <time>2019-09-17T10:41:32Z</time>
      </trkpt>
      <trkpt lat="47.92469" lon="6.93543">
        <ele>960.2</ele>
        <time>2019-09-17T10:41:36Z</time>
      </trkpt>
      <trkpt lat="47.92469" lon="6.93548">
        <ele>959.7</ele>
        <time>2019-09-17T10:41:39Z</time>
      </trkpt>
      <trkpt lat="47.92469" lon="6.93553">
        <ele>959.2</ele>
        <time>2019-09-17T10:41:42Z</time>
      </trkpt>
      <trkpt lat="47.92469" lon="6.93557">
        <ele>958.5</ele>
        <time>2019-09-17T10:41:45Z</time>
      </trkpt>
      <trkpt lat="47.9247" lon="6.93561">
        <ele>957.9</ele>
        <time>2019-09-17T10:41:49Z</time>
      </trkpt>
      <trkpt lat="47.9247" lon="6.93567">
        <ele>957</ele>
        <time>2019-09-17T10:41:53Z</time>
      </trkpt>
      <trkpt lat="47.92471" lon="6.93571">
        <ele>956.5</ele>
        <time>2019-09-17T10:41:56Z</time>
      </trkpt>
      <trkpt lat="47.9247" lon="6.93576">
        <ele>955.8</ele>
        <time>2019-09-17T10:41:59Z</time>
      </trkpt>
      <trkpt lat="47.92468" lon="6.93582">
        <ele>955</ele>
        <time>2019-09-17T10:42:02Z</time>
      </trkpt>
      <trkpt lat="47.92465" lon="6.93585">
        <ele>955</ele>
        <time>2019-09-17T10:42:04Z</time>
      </trkpt>
      <trkpt lat="47.92463" lon="6.93587">
        <ele>954.9</ele>
        <time>2019-09-17T10:42:07Z</time>
      </trkpt>
      <trkpt lat="47.92463" lon="6.93592">
        <ele>954.3</ele>
        <time>2019-09-17T10:42:11Z</time>
      </trkpt>
      <trkpt lat="47.92462" lon="6.93596">
        <ele>954.3</ele>
        <time>2019-09-17T10:42:13Z</time>
      </trkpt>
      <trkpt lat="47.9246" lon="6.93598">
        <ele>954.3</ele>
        <time>2019-09-17T10:42:16Z</time>
      </trkpt>
      <trkpt lat="47.92459" lon="6.93603">
        <ele>953.8</ele>
        <time>2019-09-17T10:42:19Z</time>
      </trkpt>
      <trkpt lat="47.92459" lon="6.93608">
        <ele>953.3</ele>
        <time>2019-09-17T10:42:22Z</time>
      </trkpt>
      <trkpt lat="47.92459" lon="6.93613">
        <ele>952.8</ele>
        <time>2019-09-17T10:42:25Z</time>
      </trkpt>
      <trkpt lat="47.92459" lon="6.93618">
        <ele>952.3</ele>
        <time>2019-09-17T10:42:28Z</time>
      </trkpt>
      <trkpt lat="47.92459" lon="6.93623">
        <ele>951.8</ele>
        <time>2019-09-17T10:42:30Z</time>
      </trkpt>
      <trkpt lat="47.92459" lon="6.93631">
        <ele>951</ele>
        <time>2019-09-17T10:42:32Z</time>
      </trkpt>
      <trkpt lat="47.92458" lon="6.93636">
        <ele>950.7</ele>
        <time>2019-09-17T10:42:34Z</time>
      </trkpt>
      <trkpt lat="47.92458" lon="6.93641">
        <ele>950</ele>
        <time>2019-09-17T10:42:36Z</time>
      </trkpt>
      <trkpt lat="47.92457" lon="6.93645">
        <ele>950</ele>
        <time>2019-09-17T10:42:38Z</time>
      </trkpt>
      <trkpt lat="47.92456" lon="6.9365">
        <ele>949.8</ele>
        <time>2019-09-17T10:42:41Z</time>
      </trkpt>
      <trkpt lat="47.92456" lon="6.93656">
        <ele>949.5</ele>
        <time>2019-09-17T10:42:44Z</time>
      </trkpt>
      <trkpt lat="47.92457" lon="6.93661">
        <ele>948.6</ele>
        <time>2019-09-17T10:42:47Z</time>
      </trkpt>
      <trkpt lat="47.92458" lon="6.93666">
        <ele>948.1</ele>
        <time>2019-09-17T10:42:50Z</time>
      </trkpt>
      <trkpt lat="47.92458" lon="6.93671">
        <ele>947.2</ele>
        <time>2019-09-17T10:42:52Z</time>
      </trkpt>
      <trkpt lat="47.92458" lon="6.93676">
        <ele>946.8</ele>
        <time>2019-09-17T10:42:54Z</time>
      </trkpt>
      <trkpt lat="47.92458" lon="6.93681">
        <ele>946.4</ele>
        <time>2019-09-17T10:42:56Z</time>
      </trkpt>
      <trkpt lat="47.92458" lon="6.93685">
        <ele>946.1</ele>
        <time>2019-09-17T10:42:58Z</time>
      </trkpt>
      <trkpt lat="47.92458" lon="6.9369">
        <ele>945.8</ele>
        <time>2019-09-17T10:43:00Z</time>
      </trkpt>
      <trkpt lat="47.92459" lon="6.93694">
        <ele>945.5</ele>
        <time>2019-09-17T10:43:02Z</time>
      </trkpt>
      <trkpt lat="47.92459" lon="6.93699">
        <ele>945.2</ele>
        <time>2019-09-17T10:43:04Z</time>
      </trkpt>
      <trkpt lat="47.92459" lon="6.93703">
        <ele>944.9</ele>
        <time>2019-09-17T10:43:06Z</time>
      </trkpt>
      <trkpt lat="47.9246" lon="6.93708">
        <ele>944.6</ele>
        <time>2019-09-17T10:43:08Z</time>
      </trkpt>
      <trkpt lat="47.9246" lon="6.93713">
        <ele>943.7</ele>
        <time>2019-09-17T10:43:10Z</time>
      </trkpt>
      <trkpt lat="47.9246" lon="6.93718">
        <ele>942.8</ele>
        <time>2019-09-17T10:43:13Z</time>
      </trkpt>
      <trkpt lat="47.92462" lon="6.93722">
        <ele>942.8</ele>
        <time>2019-09-17T10:43:15Z</time>
      </trkpt>
      <trkpt lat="47.92462" lon="6.93726">
        <ele>942.4</ele>
        <time>2019-09-17T10:43:17Z</time>
      </trkpt>
      <trkpt lat="47.92463" lon="6.93731">
        <ele>941</ele>
        <time>2019-09-17T10:43:20Z</time>
      </trkpt>
      <trkpt lat="47.92464" lon="6.93737">
        <ele>940.6</ele>
        <time>2019-09-17T10:43:23Z</time>
      </trkpt>
      <trkpt lat="47.92464" lon="6.93742">
        <ele>940.2</ele>
        <time>2019-09-17T10:43:26Z</time>
      </trkpt>
      <trkpt lat="47.92463" lon="6.93748">
        <ele>939.3</ele>
        <time>2019-09-17T10:43:29Z</time>
      </trkpt>
      <trkpt lat="47.92463" lon="6.93753">
        <ele>938.8</ele>
        <time>2019-09-17T10:43:32Z</time>
      </trkpt>
      <trkpt lat="47.92461" lon="6.93757">
        <ele>938.9</ele>
        <time>2019-09-17T10:43:35Z</time>
      </trkpt>
      <trkpt lat="47.9246" lon="6.93761">
        <ele>938.5</ele>
        <time>2019-09-17T10:43:38Z</time>
      </trkpt>
      <trkpt lat="47.9246" lon="6.93766">
        <ele>938</ele>
        <time>2019-09-17T10:43:42Z</time>
      </trkpt>
      <trkpt lat="47.92461" lon="6.93771">
        <ele>937.5</ele>
        <time>2019-09-17T10:43:45Z</time>
      </trkpt>
      <trkpt lat="47.92462" lon="6.93775">
        <ele>937</ele>
        <time>2019-09-17T10:43:48Z</time>
      </trkpt>
      <trkpt lat="47.92462" lon="6.9378">
        <ele>936.6</ele>
        <time>2019-09-17T10:43:58Z</time>
      </trkpt>
      <trkpt lat="47.9246" lon="6.93785">
        <ele>936</ele>
        <time>2019-09-17T10:44:01Z</time>
      </trkpt>
      <trkpt lat="47.9246" lon="6.93789">
        <ele>936.1</ele>
        <time>2019-09-17T10:44:04Z</time>
      </trkpt>
      <trkpt lat="47.92459" lon="6.93794">
        <ele>935.5</ele>
        <time>2019-09-17T10:44:07Z</time>
      </trkpt>
      <trkpt lat="47.92458" lon="6.93799">
        <ele>934.8</ele>
        <time>2019-09-17T10:44:11Z</time>
      </trkpt>
      <trkpt lat="47.92456" lon="6.93805">
        <ele>933.9</ele>
        <time>2019-09-17T10:44:14Z</time>
      </trkpt>
      <trkpt lat="47.92455" lon="6.93811">
        <ele>933.1</ele>
        <time>2019-09-17T10:44:16Z</time>
      </trkpt>
      <trkpt lat="47.92453" lon="6.93815">
        <ele>933</ele>
        <time>2019-09-17T10:44:18Z</time>
      </trkpt>
      <trkpt lat="47.9245" lon="6.93818">
        <ele>932.8</ele>
        <time>2019-09-17T10:44:23Z</time>
      </trkpt>
      <trkpt lat="47.9245" lon="6.93822">
        <ele>932.1</ele>
        <time>2019-09-17T10:44:27Z</time>
      </trkpt>
      <trkpt lat="47.9245" lon="6.93827">
        <ele>931.5</ele>
        <time>2019-09-17T10:44:30Z</time>
      </trkpt>
      <trkpt lat="47.92451" lon="6.93833">
        <ele>930.3</ele>
        <time>2019-09-17T10:44:33Z</time>
      </trkpt>
      <trkpt lat="47.92452" lon="6.93837">
        <ele>929.6</ele>
        <time>2019-09-17T10:44:36Z</time>
      </trkpt>
      <trkpt lat="47.92452" lon="6.93841">
        <ele>928.9</ele>
        <time>2019-09-17T10:44:39Z</time>
      </trkpt>
      <trkpt lat="47.92453" lon="6.93845">
        <ele>928.1</ele>
        <time>2019-09-17T10:44:41Z</time>
      </trkpt>
      <trkpt lat="47.92455" lon="6.9385">
        <ele>926.7</ele>
        <time>2019-09-17T10:44:43Z</time>
      </trkpt>
      <trkpt lat="47.92456" lon="6.93854">
        <ele>925.8</ele>
        <time>2019-09-17T10:44:45Z</time>
      </trkpt>
      <trkpt lat="47.92456" lon="6.93858">
        <ele>924.8</ele>
        <time>2019-09-17T10:44:47Z</time>
      </trkpt>
      <trkpt lat="47.92457" lon="6.93862">
        <ele>923.4</ele>
        <time>2019-09-17T10:44:50Z</time>
      </trkpt>
      <trkpt lat="47.92458" lon="6.93867">
        <ele>922.5</ele>
        <time>2019-09-17T10:44:54Z</time>
      </trkpt>
      <trkpt lat="47.92457" lon="6.9387">
        <ele>922</ele>
        <time>2019-09-17T10:45:17Z</time>
      </trkpt>
      <trkpt lat="47.92456" lon="6.93875">
        <ele>921.1</ele>
        <time>2019-09-17T10:45:20Z</time>
      </trkpt>
      <trkpt lat="47.92457" lon="6.93879">
        <ele>919.8</ele>
        <time>2019-09-17T10:45:27Z</time>
      </trkpt>
      <trkpt lat="47.92458" lon="6.93883">
        <ele>918.9</ele>
        <time>2019-09-17T10:45:30Z</time>
      </trkpt>
      <trkpt lat="47.92459" lon="6.93888">
        <ele>917.9</ele>
        <time>2019-09-17T10:45:34Z</time>
      </trkpt>
      <trkpt lat="47.92461" lon="6.93893">
        <ele>916.6</ele>
        <time>2019-09-17T10:45:38Z</time>
      </trkpt>
      <trkpt lat="47.92462" lon="6.93898">
        <ele>915.7</ele>
        <time>2019-09-17T10:45:41Z</time>
      </trkpt>
      <trkpt lat="47.92462" lon="6.93902">
        <ele>914.8</ele>
        <time>2019-09-17T10:45:44Z</time>
      </trkpt>
      <trkpt lat="47.92461" lon="6.93906">
        <ele>913.9</ele>
        <time>2019-09-17T10:45:48Z</time>
      </trkpt>
      <trkpt lat="47.92461" lon="6.9391">
        <ele>913</ele>
        <time>2019-09-17T10:45:51Z</time>
      </trkpt>
      <trkpt lat="47.92461" lon="6.93915">
        <ele>912</ele>
        <time>2019-09-17T10:45:54Z</time>
      </trkpt>
      <trkpt lat="47.92462" lon="6.9392">
        <ele>910.1</ele>
        <time>2019-09-17T10:46:01Z</time>
      </trkpt>
      <trkpt lat="47.92462" lon="6.93924">
        <ele>909.2</ele>
        <time>2019-09-17T10:46:04Z</time>
      </trkpt>
      <trkpt lat="47.92462" lon="6.93929">
        <ele>908.2</ele>
        <time>2019-09-17T10:46:07Z</time>
      </trkpt>
      <trkpt lat="47.92464" lon="6.93934">
        <ele>906.9</ele>
        <time>2019-09-17T10:46:11Z</time>
      </trkpt>
      <trkpt lat="47.92464" lon="6.93939">
        <ele>905.9</ele>
        <time>2019-09-17T10:46:14Z</time>
      </trkpt>
      <trkpt lat="47.92464" lon="6.93944">
        <ele>904.9</ele>
        <time>2019-09-17T10:46:18Z</time>
      </trkpt>
      <trkpt lat="47.92464" lon="6.93949">
        <ele>904</ele>
        <time>2019-09-17T10:46:22Z</time>
      </trkpt>
      <trkpt lat="47.92464" lon="6.93953">
        <ele>903.1</ele>
        <time>2019-09-17T10:46:24Z</time>
      </trkpt>
      <trkpt lat="47.92464" lon="6.93957">
        <ele>902.3</ele>
        <time>2019-09-17T10:46:28Z</time>
      </trkpt>
      <trkpt lat="47.92463" lon="6.93963">
        <ele>900.8</ele>
        <time>2019-09-17T10:46:31Z</time>
      </trkpt>
      <trkpt lat="47.92463" lon="6.93968">
        <ele>900</ele>
        <time>2019-09-17T10:46:34Z</time>
      </trkpt>
      <trkpt lat="47.92463" lon="6.93973">
        <ele>899.2</ele>
        <time>2019-09-17T10:46:37Z</time>
      </trkpt>
      <trkpt lat="47.92463" lon="6.9398">
        <ele>898.4</ele>
        <time>2019-09-17T10:46:40Z</time>
      </trkpt>
      <trkpt lat="47.92462" lon="6.93985">
        <ele>897.1</ele>
        <time>2019-09-17T10:46:42Z</time>
      </trkpt>
      <trkpt lat="47.92462" lon="6.93989">
        <ele>896.4</ele>
        <time>2019-09-17T10:46:44Z</time>
      </trkpt>
      <trkpt lat="47.92461" lon="6.93994">
        <ele>895.7</ele>
        <time>2019-09-17T10:46:47Z</time>
      </trkpt>
      <trkpt lat="47.92462" lon="6.93999">
        <ele>895</ele>
        <time>2019-09-17T10:46:50Z</time>
      </trkpt>
      <trkpt lat="47.92463" lon="6.94004">
        <ele>893.9</ele>
        <time>2019-09-17T10:46:54Z</time>
      </trkpt>
      <trkpt lat="47.92464" lon="6.94009">
        <ele>893.3</ele>
        <time>2019-09-17T10:46:58Z</time>
      </trkpt>
      <trkpt lat="47.92463" lon="6.94013">
        <ele>892.6</ele>
        <time>2019-09-17T10:47:03Z</time>
      </trkpt>
      <trkpt lat="47.92461" lon="6.94017">
        <ele>892.3</ele>
        <time>2019-09-17T10:47:06Z</time>
      </trkpt>
      <trkpt lat="47.92459" lon="6.9402">
        <ele>891.9</ele>
        <time>2019-09-17T10:47:09Z</time>
      </trkpt>
      <trkpt lat="47.92456" lon="6.94025">
        <ele>891.5</ele>
        <time>2019-09-17T10:47:12Z</time>
      </trkpt>
      <trkpt lat="47.92455" lon="6.94029">
        <ele>890.8</ele>
        <time>2019-09-17T10:47:15Z</time>
      </trkpt>
      <trkpt lat="47.92455" lon="6.94033">
        <ele>890.2</ele>
        <time>2019-09-17T10:47:19Z</time>
      </trkpt>
      <trkpt lat="47.92454" lon="6.94038">
        <ele>889.6</ele>
        <time>2019-09-17T10:47:22Z</time>
      </trkpt>
      <trkpt lat="47.92454" lon="6.94044">
        <ele>889.4</ele>
        <time>2019-09-17T10:47:25Z</time>
      </trkpt>
      <trkpt lat="47.92453" lon="6.94049">
        <ele>888.6</ele>
        <time>2019-09-17T10:47:27Z</time>
      </trkpt>
      <trkpt lat="47.92453" lon="6.94054">
        <ele>888.2</ele>
        <time>2019-09-17T10:47:31Z</time>
      </trkpt>
      <trkpt lat="47.92452" lon="6.94059">
        <ele>887.8</ele>
        <time>2019-09-17T10:47:34Z</time>
      </trkpt>
      <trkpt lat="47.92452" lon="6.94063">
        <ele>887.4</ele>
        <time>2019-09-17T10:47:36Z</time>
      </trkpt>
      <trkpt lat="47.9245" lon="6.94068">
        <ele>887.2</ele>
        <time>2019-09-17T10:47:38Z</time>
      </trkpt>
      <trkpt lat="47.92449" lon="6.94072">
        <ele>886.7</ele>
        <time>2019-09-17T10:47:41Z</time>
      </trkpt>
      <trkpt lat="47.92447" lon="6.94075">
        <ele>886.4</ele>
        <time>2019-09-17T10:47:43Z</time>
      </trkpt>
      <trkpt lat="47.92446" lon="6.9408">
        <ele>885.9</ele>
        <time>2019-09-17T10:47:45Z</time>
      </trkpt>
      <trkpt lat="47.92444" lon="6.94085">
        <ele>885.6</ele>
        <time>2019-09-17T10:47:48Z</time>
      </trkpt>
      <trkpt lat="47.92443" lon="6.94089">
        <ele>885.1</ele>
        <time>2019-09-17T10:47:50Z</time>
      </trkpt>
      <trkpt lat="47.92442" lon="6.94093">
        <ele>884.7</ele>
        <time>2019-09-17T10:47:52Z</time>
      </trkpt>
      <trkpt lat="47.92441" lon="6.94098">
        <ele>884.2</ele>
        <time>2019-09-17T10:47:55Z</time>
      </trkpt>
      <trkpt lat="47.9244" lon="6.94103">
        <ele>883.7</ele>
        <time>2019-09-17T10:47:58Z</time>
      </trkpt>
      <trkpt lat="47.9244" lon="6.94108">
        <ele>883.2</ele>
        <time>2019-09-17T10:48:01Z</time>
      </trkpt>
      <trkpt lat="47.9244" lon="6.94113">
        <ele>882.6</ele>
        <time>2019-09-17T10:48:04Z</time>
      </trkpt>
      <trkpt lat="47.92441" lon="6.94118">
        <ele>881.4</ele>
        <time>2019-09-17T10:48:08Z</time>
      </trkpt>
      <trkpt lat="47.92442" lon="6.94123">
        <ele>880.5</ele>
        <time>2019-09-17T10:48:11Z</time>
      </trkpt>
      <trkpt lat="47.92444" lon="6.94128">
        <ele>879.9</ele>
        <time>2019-09-17T10:48:14Z</time>
      </trkpt>
      <trkpt lat="47.92446" lon="6.94133">
        <ele>879.1</ele>
        <time>2019-09-17T10:48:16Z</time>
      </trkpt>
      <trkpt lat="47.92447" lon="6.94137">
        <ele>878.4</ele>
        <time>2019-09-17T10:48:18Z</time>
      </trkpt>
      <trkpt lat="47.92448" lon="6.94141">
        <ele>877.8</ele>
        <time>2019-09-17T10:48:20Z</time>
      </trkpt>
      <trkpt lat="47.92448" lon="6.94146">
        <ele>876.8</ele>
        <time>2019-09-17T10:48:23Z</time>
      </trkpt>
      <trkpt lat="47.9245" lon="6.94152">
        <ele>875.5</ele>
        <time>2019-09-17T10:48:26Z</time>
      </trkpt>
      <trkpt lat="47.92451" lon="6.94156">
        <ele>874.6</ele>
        <time>2019-09-17T10:48:29Z</time>
      </trkpt>
      <trkpt lat="47.92453" lon="6.94161">
        <ele>873.9</ele>
        <time>2019-09-17T10:48:33Z</time>
      </trkpt>
      <trkpt lat="47.92454" lon="6.94165">
        <ele>872.9</ele>
        <time>2019-09-17T10:48:36Z</time>
      </trkpt>
      <trkpt lat="47.92455" lon="6.94169">
        <ele>872.3</ele>
        <time>2019-09-17T10:48:38Z</time>
      </trkpt>
      <trkpt lat="47.92456" lon="6.94173">
        <ele>871.7</ele>
        <time>2019-09-17T10:48:40Z</time>
      </trkpt>
      <trkpt lat="47.92457" lon="6.94177">
        <ele>870.8</ele>
        <time>2019-09-17T10:48:42Z</time>
      </trkpt>
      <trkpt lat="47.92458" lon="6.94181">
        <ele>870.8</ele>
        <time>2019-09-17T10:48:44Z</time>
      </trkpt>
      <trkpt lat="47.92458" lon="6.94187">
        <ele>869.7</ele>
        <time>2019-09-17T10:48:47Z</time>
      </trkpt>
      <trkpt lat="47.92459" lon="6.94193">
        <ele>869.1</ele>
        <time>2019-09-17T10:48:50Z</time>
      </trkpt>
      <trkpt lat="47.92459" lon="6.94198">
        <ele>868.4</ele>
        <time>2019-09-17T10:48:54Z</time>
      </trkpt>
      <trkpt lat="47.92459" lon="6.94203">
        <ele>866.9</ele>
        <time>2019-09-17T10:48:57Z</time>
      </trkpt>
      <trkpt lat="47.92458" lon="6.94208">
        <ele>866.1</ele>
        <time>2019-09-17T10:49:00Z</time>
      </trkpt>
      <trkpt lat="47.92456" lon="6.94213">
        <ele>865.7</ele>
        <time>2019-09-17T10:49:03Z</time>
      </trkpt>
      <trkpt lat="47.92455" lon="6.94218">
        <ele>864.9</ele>
        <time>2019-09-17T10:49:06Z</time>
      </trkpt>
      <trkpt lat="47.92454" lon="6.94222">
        <ele>864.6</ele>
        <time>2019-09-17T10:49:09Z</time>
      </trkpt>
      <trkpt lat="47.92453" lon="6.94227">
        <ele>863.8</ele>
        <time>2019-09-17T10:49:12Z</time>
      </trkpt>
      <trkpt lat="47.92452" lon="6.94231">
        <ele>863</ele>
        <time>2019-09-17T10:49:15Z</time>
      </trkpt>
      <trkpt lat="47.92451" lon="6.94236">
        <ele>862.2</ele>
        <time>2019-09-17T10:49:18Z</time>
      </trkpt>
      <trkpt lat="47.9245" lon="6.94239">
        <ele>861.9</ele>
        <time>2019-09-17T10:49:21Z</time>
      </trkpt>
      <trkpt lat="47.92449" lon="6.94244">
        <ele>861.1</ele>
        <time>2019-09-17T10:49:24Z</time>
      </trkpt>
      <trkpt lat="47.92448" lon="6.94249">
        <ele>860.9</ele>
        <time>2019-09-17T10:49:26Z</time>
      </trkpt>
      <trkpt lat="47.92447" lon="6.94253">
        <ele>860.1</ele>
        <time>2019-09-17T10:49:28Z</time>
      </trkpt>
      <trkpt lat="47.92447" lon="6.94258">
        <ele>859.3</ele>
        <time>2019-09-17T10:49:31Z</time>
      </trkpt>
      <trkpt lat="47.92447" lon="6.94263">
        <ele>857.8</ele>
        <time>2019-09-17T10:49:34Z</time>
      </trkpt>
      <trkpt lat="47.92448" lon="6.94269">
        <ele>857.1</ele>
        <time>2019-09-17T10:49:37Z</time>
      </trkpt>
      <trkpt lat="47.92448" lon="6.94275">
        <ele>856.4</ele>
        <time>2019-09-17T10:49:40Z</time>
      </trkpt>
      <trkpt lat="47.92449" lon="6.94281">
        <ele>854.5</ele>
        <time>2019-09-17T10:49:43Z</time>
      </trkpt>
      <trkpt lat="47.92449" lon="6.94285">
        <ele>853.8</ele>
        <time>2019-09-17T10:49:45Z</time>
      </trkpt>
      <trkpt lat="47.9245" lon="6.94289">
        <ele>853.1</ele>
        <time>2019-09-17T10:49:47Z</time>
      </trkpt>
      <trkpt lat="47.9245" lon="6.94294">
        <ele>852.4</ele>
        <time>2019-09-17T10:49:49Z</time>
      </trkpt>
      <trkpt lat="47.9245" lon="6.94298">
        <ele>851.8</ele>
        <time>2019-09-17T10:49:51Z</time>
      </trkpt>
      <trkpt lat="47.92449" lon="6.94302">
        <ele>851.1</ele>
        <time>2019-09-17T10:49:53Z</time>
      </trkpt>
      <trkpt lat="47.92449" lon="6.94308">
        <ele>850.5</ele>
        <time>2019-09-17T10:49:56Z</time>
      </trkpt>
      <trkpt lat="47.92448" lon="6.94318">
        <ele>850</ele>
        <time>2019-09-17T10:49:59Z</time>
      </trkpt>
      <trkpt lat="47.92447" lon="6.94323">
        <ele>849.5</ele>
        <time>2019-09-17T10:50:02Z</time>
      </trkpt>
      <trkpt lat="47.92445" lon="6.94328">
        <ele>848.6</ele>
        <time>2019-09-17T10:50:05Z</time>
      </trkpt>
      <trkpt lat="47.92444" lon="6.94332">
        <ele>848.6</ele>
        <time>2019-09-17T10:50:08Z</time>
      </trkpt>
      <trkpt lat="47.92443" lon="6.94337">
        <ele>847.8</ele>
        <time>2019-09-17T10:50:11Z</time>
      </trkpt>
      <trkpt lat="47.92442" lon="6.94342">
        <ele>847.9</ele>
        <time>2019-09-17T10:50:14Z</time>
      </trkpt>
      <trkpt lat="47.92441" lon="6.94347">
        <ele>847.4</ele>
        <time>2019-09-17T10:50:17Z</time>
      </trkpt>
      <trkpt lat="47.9244" lon="6.94351">
        <ele>847</ele>
        <time>2019-09-17T10:50:20Z</time>
      </trkpt>
      <trkpt lat="47.92439" lon="6.94356">
        <ele>847.1</ele>
        <time>2019-09-17T10:50:23Z</time>
      </trkpt>
      <trkpt lat="47.92438" lon="6.94361">
        <ele>846.7</ele>
        <time>2019-09-17T10:50:26Z</time>
      </trkpt>
      <trkpt lat="47.92437" lon="6.94365">
        <ele>846.3</ele>
        <time>2019-09-17T10:50:29Z</time>
      </trkpt>
      <trkpt lat="47.92436" lon="6.9437">
        <ele>846.4</ele>
        <time>2019-09-17T10:50:31Z</time>
      </trkpt>
      <trkpt lat="47.92435" lon="6.94375">
        <ele>845.7</ele>
        <time>2019-09-17T10:50:33Z</time>
      </trkpt>
      <trkpt lat="47.92434" lon="6.9438">
        <ele>845.7</ele>
        <time>2019-09-17T10:50:37Z</time>
      </trkpt>
      <trkpt lat="47.92433" lon="6.94384">
        <ele>845.3</ele>
        <time>2019-09-17T10:50:41Z</time>
      </trkpt>
      <trkpt lat="47.92431" lon="6.94389">
        <ele>844.9</ele>
        <time>2019-09-17T10:50:42Z</time>
      </trkpt>
      <trkpt lat="47.92434" lon="6.94392">
        <ele>844.9</ele>
        <time>2019-09-17T10:50:44Z</time>
      </trkpt>
      <trkpt lat="47.92435" lon="6.94396">
        <ele>844.2</ele>
        <time>2019-09-17T10:50:50Z</time>
      </trkpt>
      <trkpt lat="47.92437" lon="6.944">
        <ele>843.5</ele>
        <time>2019-09-17T10:50:52Z</time>
      </trkpt>
      <trkpt lat="47.92438" lon="6.94404">
        <ele>843.1</ele>
        <time>2019-09-17T10:50:55Z</time>
      </trkpt>
      <trkpt lat="47.92437" lon="6.94409">
        <ele>842.8</ele>
        <time>2019-09-17T10:50:58Z</time>
      </trkpt>
      <trkpt lat="47.92436" lon="6.94413">
        <ele>842.8</ele>
        <time>2019-09-17T10:51:00Z</time>
      </trkpt>
      <trkpt lat="47.92435" lon="6.94417">
        <ele>842.4</ele>
        <time>2019-09-17T10:51:02Z</time>
      </trkpt>
      <trkpt lat="47.92433" lon="6.94421">
        <ele>842.4</ele>
        <time>2019-09-17T10:51:04Z</time>
      </trkpt>
      <trkpt lat="47.92432" lon="6.94425">
        <ele>842</ele>
        <time>2019-09-17T10:51:06Z</time>
      </trkpt>
      <trkpt lat="47.92431" lon="6.9443">
        <ele>841.9</ele>
        <time>2019-09-17T10:51:08Z</time>
      </trkpt>
      <trkpt lat="47.92429" lon="6.94434">
        <ele>841.5</ele>
        <time>2019-09-17T10:51:10Z</time>
      </trkpt>
      <trkpt lat="47.92428" lon="6.94439">
        <ele>841.3</ele>
        <time>2019-09-17T10:51:12Z</time>
      </trkpt>
      <trkpt lat="47.92426" lon="6.94442">
        <ele>840.9</ele>
        <time>2019-09-17T10:51:14Z</time>
      </trkpt>
      <trkpt lat="47.92424" lon="6.94447">
        <ele>840.8</ele>
        <time>2019-09-17T10:51:17Z</time>
      </trkpt>
      <trkpt lat="47.92423" lon="6.94452">
        <ele>840.4</ele>
        <time>2019-09-17T10:51:20Z</time>
      </trkpt>
      <trkpt lat="47.92421" lon="6.94457">
        <ele>839.7</ele>
        <time>2019-09-17T10:51:23Z</time>
      </trkpt>
      <trkpt lat="47.92419" lon="6.94462">
        <ele>839.4</ele>
        <time>2019-09-17T10:51:26Z</time>
      </trkpt>
      <trkpt lat="47.92417" lon="6.94466">
        <ele>838.9</ele>
        <time>2019-09-17T10:51:28Z</time>
      </trkpt>
      <trkpt lat="47.92414" lon="6.94471">
        <ele>838.4</ele>
        <time>2019-09-17T10:51:30Z</time>
      </trkpt>
      <trkpt lat="47.92411" lon="6.94477">
        <ele>837.8</ele>
        <time>2019-09-17T10:51:32Z</time>
      </trkpt>
      <trkpt lat="47.92408" lon="6.94483">
        <ele>836.5</ele>
        <time>2019-09-17T10:51:34Z</time>
      </trkpt>
      <trkpt lat="47.92404" lon="6.94488">
        <ele>835.8</ele>
        <time>2019-09-17T10:51:36Z</time>
      </trkpt>
      <trkpt lat="47.92402" lon="6.94493">
        <ele>835.2</ele>
        <time>2019-09-17T10:51:38Z</time>
      </trkpt>
      <trkpt lat="47.924" lon="6.94502">
        <ele>834.1</ele>
        <time>2019-09-17T10:51:41Z</time>
      </trkpt>
      <trkpt lat="47.924" lon="6.94506">
        <ele>833.5</ele>
        <time>2019-09-17T10:51:44Z</time>
      </trkpt>
      <trkpt lat="47.924" lon="6.94511">
        <ele>832.9</ele>
        <time>2019-09-17T10:51:46Z</time>
      </trkpt>
      <trkpt lat="47.92399" lon="6.94515">
        <ele>832.1</ele>
        <time>2019-09-17T10:51:47Z</time>
      </trkpt>
      <trkpt lat="47.92401" lon="6.94519">
        <ele>831.6</ele>
        <time>2019-09-17T10:51:48Z</time>
      </trkpt>
      <trkpt lat="47.92404" lon="6.94523">
        <ele>831.1</ele>
        <time>2019-09-17T10:51:50Z</time>
      </trkpt>
      <trkpt lat="47.92406" lon="6.94525">
        <ele>830.5</ele>
        <time>2019-09-17T10:51:57Z</time>
      </trkpt>
      <trkpt lat="47.92407" lon="6.94529">
        <ele>830.5</ele>
        <time>2019-09-17T10:52:02Z</time>
      </trkpt>
      <trkpt lat="47.92408" lon="6.94534">
        <ele>829.4</ele>
        <time>2019-09-17T10:52:05Z</time>
      </trkpt>
      <trkpt lat="47.9241" lon="6.94539">
        <ele>828.7</ele>
        <time>2019-09-17T10:52:08Z</time>
      </trkpt>
      <trkpt lat="47.92412" lon="6.94543">
        <ele>828.4</ele>
        <time>2019-09-17T10:52:10Z</time>
      </trkpt>
      <trkpt lat="47.92413" lon="6.94547">
        <ele>827.8</ele>
        <time>2019-09-17T10:52:13Z</time>
      </trkpt>
      <trkpt lat="47.92411" lon="6.94551">
        <ele>827.8</ele>
        <time>2019-09-17T10:52:18Z</time>
      </trkpt>
      <trkpt lat="47.92411" lon="6.94555">
        <ele>827.2</ele>
        <time>2019-09-17T10:52:25Z</time>
      </trkpt>
      <trkpt lat="47.9241" lon="6.94559">
        <ele>825.8</ele>
        <time>2019-09-17T10:52:29Z</time>
      </trkpt>
      <trkpt lat="47.92409" lon="6.94566">
        <ele>825.2</ele>
        <time>2019-09-17T10:52:31Z</time>
      </trkpt>
      <trkpt lat="47.92409" lon="6.94571">
        <ele>824.6</ele>
        <time>2019-09-17T10:52:33Z</time>
      </trkpt>
      <trkpt lat="47.9241" lon="6.94575">
        <ele>824.1</ele>
        <time>2019-09-17T10:52:36Z</time>
      </trkpt>
      <trkpt lat="47.92411" lon="6.94581">
        <ele>823.4</ele>
        <time>2019-09-17T10:52:39Z</time>
      </trkpt>
      <trkpt lat="47.9241" lon="6.94585">
        <ele>822.6</ele>
        <time>2019-09-17T10:52:41Z</time>
      </trkpt>
      <trkpt lat="47.92409" lon="6.94589">
        <ele>822.1</ele>
        <time>2019-09-17T10:52:44Z</time>
      </trkpt>
      <trkpt lat="47.92407" lon="6.94594">
        <ele>821.5</ele>
        <time>2019-09-17T10:52:48Z</time>
      </trkpt>
      <trkpt lat="47.92406" lon="6.94598">
        <ele>821.1</ele>
        <time>2019-09-17T10:52:50Z</time>
      </trkpt>
      <trkpt lat="47.92405" lon="6.94602">
        <ele>820.4</ele>
        <time>2019-09-17T10:52:53Z</time>
      </trkpt>
      <trkpt lat="47.92403" lon="6.94606">
        <ele>820.1</ele>
        <time>2019-09-17T10:52:56Z</time>
      </trkpt>
      <trkpt lat="47.92402" lon="6.94612">
        <ele>819.4</ele>
        <time>2019-09-17T10:52:58Z</time>
      </trkpt>
      <trkpt lat="47.92402" lon="6.94621">
        <ele>819</ele>
        <time>2019-09-17T10:53:00Z</time>
      </trkpt>
      <trkpt lat="47.92403" lon="6.94625">
        <ele>818.6</ele>
        <time>2019-09-17T10:53:02Z</time>
      </trkpt>
      <trkpt lat="47.92404" lon="6.94629">
        <ele>818.2</ele>
        <time>2019-09-17T10:53:03Z</time>
      </trkpt>
      <trkpt lat="47.92403" lon="6.94633">
        <ele>817.8</ele>
        <time>2019-09-17T10:53:04Z</time>
      </trkpt>
      <trkpt lat="47.92402" lon="6.94638">
        <ele>817.2</ele>
        <time>2019-09-17T10:53:06Z</time>
      </trkpt>
      <trkpt lat="47.924" lon="6.94642">
        <ele>816.7</ele>
        <time>2019-09-17T10:53:09Z</time>
      </trkpt>
      <trkpt lat="47.92398" lon="6.94646">
        <ele>816.1</ele>
        <time>2019-09-17T10:53:11Z</time>
      </trkpt>
      <trkpt lat="47.92397" lon="6.94651">
        <ele>815.6</ele>
        <time>2019-09-17T10:53:14Z</time>
      </trkpt>
      <trkpt lat="47.92396" lon="6.94656">
        <ele>815.1</ele>
        <time>2019-09-17T10:53:16Z</time>
      </trkpt>
      <trkpt lat="47.92395" lon="6.94661">
        <ele>814.7</ele>
        <time>2019-09-17T10:53:19Z</time>
      </trkpt>
      <trkpt lat="47.92393" lon="6.94665">
        <ele>814.3</ele>
        <time>2019-09-17T10:53:22Z</time>
      </trkpt>
      <trkpt lat="47.92391" lon="6.9467">
        <ele>814</ele>
        <time>2019-09-17T10:53:25Z</time>
      </trkpt>
      <trkpt lat="47.92389" lon="6.94677">
        <ele>813.3</ele>
        <time>2019-09-17T10:53:27Z</time>
      </trkpt>
      <trkpt lat="47.92388" lon="6.9468">
        <ele>812.8</ele>
        <time>2019-09-17T10:53:29Z</time>
      </trkpt>
      <trkpt lat="47.92385" lon="6.94683">
        <ele>812.8</ele>
        <time>2019-09-17T10:53:31Z</time>
      </trkpt>
      <trkpt lat="47.92383" lon="6.94687">
        <ele>812.3</ele>
        <time>2019-09-17T10:53:34Z</time>
      </trkpt>
      <trkpt lat="47.92382" lon="6.94692">
        <ele>811.7</ele>
        <time>2019-09-17T10:53:37Z</time>
      </trkpt>
      <trkpt lat="47.92382" lon="6.94696">
        <ele>811.4</ele>
        <time>2019-09-17T10:53:40Z</time>
      </trkpt>
      <trkpt lat="47.92382" lon="6.94701">
        <ele>810.8</ele>
        <time>2019-09-17T10:53:45Z</time>
      </trkpt>
      <trkpt lat="47.9238" lon="6.94705">
        <ele>810.4</ele>
        <time>2019-09-17T10:53:48Z</time>
      </trkpt>
      <trkpt lat="47.92378" lon="6.94709">
        <ele>810</ele>
        <time>2019-09-17T10:53:50Z</time>
      </trkpt>
      <trkpt lat="47.92377" lon="6.94713">
        <ele>809.8</ele>
        <time>2019-09-17T10:53:52Z</time>
      </trkpt>
      <trkpt lat="47.92375" lon="6.94718">
        <ele>809.5</ele>
        <time>2019-09-17T10:53:55Z</time>
      </trkpt>
      <trkpt lat="47.92375" lon="6.94722">
        <ele>809.4</ele>
        <time>2019-09-17T10:53:58Z</time>
      </trkpt>
      <trkpt lat="47.92375" lon="6.94727">
        <ele>809.3</ele>
        <time>2019-09-17T10:54:00Z</time>
      </trkpt>
      <trkpt lat="47.92375" lon="6.94733">
        <ele>809.2</ele>
        <time>2019-09-17T10:54:02Z</time>
      </trkpt>
      <trkpt lat="47.92375" lon="6.94738">
        <ele>809.1</ele>
        <time>2019-09-17T10:54:05Z</time>
      </trkpt>
      <trkpt lat="47.92374" lon="6.94743">
        <ele>808.9</ele>
        <time>2019-09-17T10:54:09Z</time>
      </trkpt>
      <trkpt lat="47.92374" lon="6.94748">
        <ele>808.8</ele>
        <time>2019-09-17T10:54:12Z</time>
      </trkpt>
      <trkpt lat="47.92373" lon="6.94753">
        <ele>808.5</ele>
        <time>2019-09-17T10:54:14Z</time>
      </trkpt>
      <trkpt lat="47.92372" lon="6.94759">
        <ele>808.3</ele>
        <time>2019-09-17T10:54:16Z</time>
      </trkpt>
      <trkpt lat="47.9237" lon="6.94764">
        <ele>808.5</ele>
        <time>2019-09-17T10:54:18Z</time>
      </trkpt>
      <trkpt lat="47.92368" lon="6.94768">
        <ele>808.3</ele>
        <time>2019-09-17T10:54:20Z</time>
      </trkpt>
      <trkpt lat="47.92366" lon="6.94771">
        <ele>808.4</ele>
        <time>2019-09-17T10:54:22Z</time>
      </trkpt>
      <trkpt lat="47.92364" lon="6.94774">
        <ele>808.6</ele>
        <time>2019-09-17T10:54:24Z</time>
      </trkpt>
      <trkpt lat="47.92361" lon="6.94776">
        <ele>808.6</ele>
        <time>2019-09-17T10:54:26Z</time>
      </trkpt>
      <trkpt lat="47.92358" lon="6.94777">
        <ele>808.7</ele>
        <time>2019-09-17T10:54:28Z</time>
      </trkpt>
      <trkpt lat="47.92355" lon="6.94777">
        <ele>808.9</ele>
        <time>2019-09-17T10:54:30Z</time>
      </trkpt>
      <trkpt lat="47.92351" lon="6.94775">
        <ele>809</ele>
        <time>2019-09-17T10:54:33Z</time>
      </trkpt>
      <trkpt lat="47.92348" lon="6.94775">
        <ele>809.1</ele>
        <time>2019-09-17T10:54:35Z</time>
      </trkpt>
      <trkpt lat="47.92344" lon="6.94775">
        <ele>809.1</ele>
        <time>2019-09-17T10:54:37Z</time>
      </trkpt>
      <trkpt lat="47.92339" lon="6.94775">
        <ele>808.9</ele>
        <time>2019-09-17T10:54:39Z</time>
      </trkpt>
      <trkpt lat="47.92335" lon="6.94773">
        <ele>808.8</ele>
        <time>2019-09-17T10:54:41Z</time>
      </trkpt>
      <trkpt lat="47.92332" lon="6.94771">
        <ele>808.7</ele>
        <time>2019-09-17T10:54:43Z</time>
      </trkpt>
      <trkpt lat="47.9233" lon="6.94768">
        <ele>808.5</ele>
        <time>2019-09-17T10:54:46Z</time>
      </trkpt>
      <trkpt lat="47.92327" lon="6.94764">
        <ele>808.6</ele>
        <time>2019-09-17T10:54:49Z</time>
      </trkpt>
      <trkpt lat="47.92326" lon="6.9476">
        <ele>808.3</ele>
        <time>2019-09-17T10:54:51Z</time>
      </trkpt>
      <trkpt lat="47.92327" lon="6.94756">
        <ele>808.3</ele>
        <time>2019-09-17T10:54:53Z</time>
      </trkpt>
      <trkpt lat="47.92326" lon="6.94752">
        <ele>808.2</ele>
        <time>2019-09-17T10:54:56Z</time>
      </trkpt>
      <trkpt lat="47.92325" lon="6.94747">
        <ele>808.1</ele>
        <time>2019-09-17T10:55:00Z</time>
      </trkpt>
      <trkpt lat="47.92321" lon="6.94745">
        <ele>807.7</ele>
        <time>2019-09-17T10:55:03Z</time>
      </trkpt>
      <trkpt lat="47.92319" lon="6.94746">
        <ele>807.7</ele>
        <time>2019-09-17T10:55:06Z</time>
      </trkpt>
      <trkpt lat="47.92316" lon="6.94746">
        <ele>807.5</ele>
        <time>2019-09-17T10:55:10Z</time>
      </trkpt>
      <trkpt lat="47.92313" lon="6.94748">
        <ele>807.2</ele>
        <time>2019-09-17T10:55:15Z</time>
      </trkpt>
      <trkpt lat="47.92313" lon="6.94752">
        <ele>807.4</ele>
        <time>2019-09-17T10:55:20Z</time>
      </trkpt>
      <trkpt lat="47.92312" lon="6.94757">
        <ele>807.2</ele>
        <time>2019-09-17T10:55:23Z</time>
      </trkpt>
      <trkpt lat="47.92311" lon="6.9476">
        <ele>807.2</ele>
        <time>2019-09-17T10:55:25Z</time>
      </trkpt>
      <trkpt lat="47.92308" lon="6.94762">
        <ele>806.9</ele>
        <time>2019-09-17T10:55:28Z</time>
      </trkpt>
      <trkpt lat="47.92311" lon="6.9476">
        <ele>807.2</ele>
        <time>2019-09-17T10:56:00Z</time>
      </trkpt>
      <trkpt lat="47.92313" lon="6.94762">
        <ele>807.3</ele>
        <time>2019-09-17T10:56:02Z</time>
      </trkpt>
      <trkpt lat="47.92314" lon="6.94767">
        <ele>807.5</ele>
        <time>2019-09-17T10:56:05Z</time>
      </trkpt>
      <trkpt lat="47.92314" lon="6.94773">
        <ele>807.5</ele>
        <time>2019-09-17T10:56:08Z</time>
      </trkpt>
      <trkpt lat="47.92315" lon="6.94778">
        <ele>807.2</ele>
        <time>2019-09-17T10:56:11Z</time>
      </trkpt>
      <trkpt lat="47.92316" lon="6.94782">
        <ele>807.4</ele>
        <time>2019-09-17T10:56:14Z</time>
      </trkpt>
      <trkpt lat="47.92316" lon="6.94787">
        <ele>806.9</ele>
        <time>2019-09-17T10:56:18Z</time>
      </trkpt>
      <trkpt lat="47.92317" lon="6.94792">
        <ele>806.7</ele>
        <time>2019-09-17T10:56:20Z</time>
      </trkpt>
      <trkpt lat="47.92318" lon="6.94796">
        <ele>806.4</ele>
        <time>2019-09-17T10:56:23Z</time>
      </trkpt>
      <trkpt lat="47.92319" lon="6.948">
        <ele>806.4</ele>
        <time>2019-09-17T10:56:26Z</time>
      </trkpt>
      <trkpt lat="47.92319" lon="6.94805">
        <ele>806.1</ele>
        <time>2019-09-17T10:56:32Z</time>
      </trkpt>
      <trkpt lat="47.92322" lon="6.94809">
        <ele>805.8</ele>
        <time>2019-09-17T10:56:35Z</time>
      </trkpt>
      <trkpt lat="47.92323" lon="6.94813">
        <ele>805.6</ele>
        <time>2019-09-17T10:56:37Z</time>
      </trkpt>
      <trkpt lat="47.92323" lon="6.94818">
        <ele>805.1</ele>
        <time>2019-09-17T10:56:40Z</time>
      </trkpt>
      <trkpt lat="47.9232" lon="6.94823">
        <ele>804.4</ele>
        <time>2019-09-17T10:56:43Z</time>
      </trkpt>
      <trkpt lat="47.92317" lon="6.94829">
        <ele>804.6</ele>
        <time>2019-09-17T10:56:45Z</time>
      </trkpt>
      <trkpt lat="47.92314" lon="6.94832">
        <ele>804.8</ele>
        <time>2019-09-17T10:56:47Z</time>
      </trkpt>
      <trkpt lat="47.9231" lon="6.94832">
        <ele>804.8</ele>
        <time>2019-09-17T10:56:49Z</time>
      </trkpt>
      <trkpt lat="47.92307" lon="6.9483">
        <ele>804.9</ele>
        <time>2019-09-17T10:56:51Z</time>
      </trkpt>
      <trkpt lat="47.92305" lon="6.94826">
        <ele>804.8</ele>
        <time>2019-09-17T10:56:53Z</time>
      </trkpt>
      <trkpt lat="47.92303" lon="6.94822">
        <ele>804.8</ele>
        <time>2019-09-17T10:56:56Z</time>
      </trkpt>
      <trkpt lat="47.923" lon="6.9482">
        <ele>804.7</ele>
        <time>2019-09-17T10:56:59Z</time>
      </trkpt>
      <trkpt lat="47.92297" lon="6.94819">
        <ele>804.6</ele>
        <time>2019-09-17T10:57:03Z</time>
      </trkpt>
      <trkpt lat="47.92293" lon="6.94817">
        <ele>804.5</ele>
        <time>2019-09-17T10:57:05Z</time>
      </trkpt>
      <trkpt lat="47.92291" lon="6.94815">
        <ele>804.2</ele>
        <time>2019-09-17T10:57:07Z</time>
      </trkpt>
      <trkpt lat="47.92289" lon="6.94811">
        <ele>804</ele>
        <time>2019-09-17T10:57:10Z</time>
      </trkpt>
      <trkpt lat="47.92287" lon="6.94808">
        <ele>803.8</ele>
        <time>2019-09-17T10:57:13Z</time>
      </trkpt>
      <trkpt lat="47.92285" lon="6.94805">
        <ele>803.6</ele>
        <time>2019-09-17T10:57:15Z</time>
      </trkpt>
      <trkpt lat="47.92282" lon="6.94801">
        <ele>803.4</ele>
        <time>2019-09-17T10:57:20Z</time>
      </trkpt>
      <trkpt lat="47.92279" lon="6.94797">
        <ele>803.2</ele>
        <time>2019-09-17T10:57:22Z</time>
      </trkpt>
      <trkpt lat="47.92277" lon="6.94793">
        <ele>802.9</ele>
        <time>2019-09-17T10:57:24Z</time>
      </trkpt>
      <trkpt lat="47.92275" lon="6.94789">
        <ele>802.4</ele>
        <time>2019-09-17T10:57:26Z</time>
      </trkpt>
      <trkpt lat="47.92273" lon="6.94786">
        <ele>801.8</ele>
        <time>2019-09-17T10:57:28Z</time>
      </trkpt>
      <trkpt lat="47.9227" lon="6.94782">
        <ele>801.2</ele>
        <time>2019-09-17T10:57:31Z</time>
      </trkpt>
      <trkpt lat="47.92267" lon="6.94777">
        <ele>800.8</ele>
        <time>2019-09-17T10:57:34Z</time>
      </trkpt>
      <trkpt lat="47.92265" lon="6.94773">
        <ele>800.3</ele>
        <time>2019-09-17T10:57:37Z</time>
      </trkpt>
      <trkpt lat="47.92263" lon="6.9477">
        <ele>799.7</ele>
        <time>2019-09-17T10:57:39Z</time>
      </trkpt>
      <trkpt lat="47.92262" lon="6.94766">
        <ele>799.2</ele>
        <time>2019-09-17T10:57:41Z</time>
      </trkpt>
      <trkpt lat="47.9226" lon="6.94761">
        <ele>798.8</ele>
        <time>2019-09-17T10:57:43Z</time>
      </trkpt>
      <trkpt lat="47.92259" lon="6.94757">
        <ele>798.5</ele>
        <time>2019-09-17T10:57:45Z</time>
      </trkpt>
      <trkpt lat="47.92259" lon="6.94752">
        <ele>798.3</ele>
        <time>2019-09-17T10:57:47Z</time>
      </trkpt>
      <trkpt lat="47.92258" lon="6.94747">
        <ele>797.7</ele>
        <time>2019-09-17T10:57:49Z</time>
      </trkpt>
      <trkpt lat="47.92257" lon="6.94742">
        <ele>797.3</ele>
        <time>2019-09-17T10:57:51Z</time>
      </trkpt>
      <trkpt lat="47.92256" lon="6.94737">
        <ele>796.9</ele>
        <time>2019-09-17T10:57:54Z</time>
      </trkpt>
      <trkpt lat="47.92255" lon="6.94732">
        <ele>796.7</ele>
        <time>2019-09-17T10:57:57Z</time>
      </trkpt>
      <trkpt lat="47.92253" lon="6.94728">
        <ele>796.5</ele>
        <time>2019-09-17T10:58:00Z</time>
      </trkpt>
      <trkpt lat="47.92252" lon="6.94724">
        <ele>796.4</ele>
        <time>2019-09-17T10:58:03Z</time>
      </trkpt>
      <trkpt lat="47.92251" lon="6.94718">
        <ele>796.2</ele>
        <time>2019-09-17T10:58:06Z</time>
      </trkpt>
      <trkpt lat="47.92249" lon="6.94713">
        <ele>796</ele>
        <time>2019-09-17T10:58:09Z</time>
      </trkpt>
      <trkpt lat="47.92248" lon="6.94708">
        <ele>795.8</ele>
        <time>2019-09-17T10:58:12Z</time>
      </trkpt>
      <trkpt lat="47.92246" lon="6.94703">
        <ele>795.6</ele>
        <time>2019-09-17T10:58:15Z</time>
      </trkpt>
      <trkpt lat="47.92245" lon="6.94698">
        <ele>795.4</ele>
        <time>2019-09-17T10:58:17Z</time>
      </trkpt>
      <trkpt lat="47.92244" lon="6.94694">
        <ele>795.2</ele>
        <time>2019-09-17T10:58:18Z</time>
      </trkpt>
      <trkpt lat="47.92243" lon="6.9469">
        <ele>795.1</ele>
        <time>2019-09-17T10:58:19Z</time>
      </trkpt>
      <trkpt lat="47.92242" lon="6.94686">
        <ele>794.8</ele>
        <time>2019-09-17T10:58:20Z</time>
      </trkpt>
      <trkpt lat="47.9224" lon="6.9468">
        <ele>794.2</ele>
        <time>2019-09-17T10:58:22Z</time>
      </trkpt>
      <trkpt lat="47.92239" lon="6.94676">
        <ele>793.8</ele>
        <time>2019-09-17T10:58:24Z</time>
      </trkpt>
      <trkpt lat="47.92237" lon="6.94671">
        <ele>793.8</ele>
        <time>2019-09-17T10:58:27Z</time>
      </trkpt>
      <trkpt lat="47.92235" lon="6.94667">
        <ele>793.9</ele>
        <time>2019-09-17T10:58:30Z</time>
      </trkpt>
      <trkpt lat="47.92233" lon="6.94662">
        <ele>793.9</ele>
        <time>2019-09-17T10:58:33Z</time>
      </trkpt>
      <trkpt lat="47.92231" lon="6.94657">
        <ele>794.1</ele>
        <time>2019-09-17T10:58:36Z</time>
      </trkpt>
      <trkpt lat="47.9223" lon="6.94653">
        <ele>794.2</ele>
        <time>2019-09-17T10:58:38Z</time>
      </trkpt>
      <trkpt lat="47.92228" lon="6.94649">
        <ele>794.4</ele>
        <time>2019-09-17T10:58:40Z</time>
      </trkpt>
      <trkpt lat="47.92226" lon="6.94645">
        <ele>794.6</ele>
        <time>2019-09-17T10:58:42Z</time>
      </trkpt>
      <trkpt lat="47.92225" lon="6.94641">
        <ele>794.8</ele>
        <time>2019-09-17T10:58:44Z</time>
      </trkpt>
      <trkpt lat="47.92225" lon="6.94637">
        <ele>794.8</ele>
        <time>2019-09-17T10:58:46Z</time>
      </trkpt>
      <trkpt lat="47.92227" lon="6.94634">
        <ele>794.7</ele>
        <time>2019-09-17T10:58:49Z</time>
      </trkpt>
      <trkpt lat="47.92227" lon="6.94629">
        <ele>794.6</ele>
        <time>2019-09-17T10:58:51Z</time>
      </trkpt>
      <trkpt lat="47.92228" lon="6.94625">
        <ele>794.8</ele>
        <time>2019-09-17T10:58:52Z</time>
      </trkpt>
      <trkpt lat="47.92228" lon="6.9462">
        <ele>795.2</ele>
        <time>2019-09-17T10:58:53Z</time>
      </trkpt>
      <trkpt lat="47.92229" lon="6.94614">
        <ele>795.6</ele>
        <time>2019-09-17T10:58:55Z</time>
      </trkpt>
      <trkpt lat="47.92228" lon="6.9461">
        <ele>795.8</ele>
        <time>2019-09-17T10:58:57Z</time>
      </trkpt>
      <trkpt lat="47.92228" lon="6.94604">
        <ele>796.1</ele>
        <time>2019-09-17T10:59:00Z</time>
      </trkpt>
      <trkpt lat="47.92227" lon="6.94599">
        <ele>796.3</ele>
        <time>2019-09-17T10:59:03Z</time>
      </trkpt>
      <trkpt lat="47.92225" lon="6.94594">
        <ele>796.5</ele>
        <time>2019-09-17T10:59:06Z</time>
      </trkpt>
      <trkpt lat="47.92224" lon="6.94588">
        <ele>796.8</ele>
        <time>2019-09-17T10:59:08Z</time>
      </trkpt>
      <trkpt lat="47.92224" lon="6.94582">
        <ele>796.6</ele>
        <time>2019-09-17T10:59:10Z</time>
      </trkpt>
      <trkpt lat="47.92223" lon="6.94577">
        <ele>796.4</ele>
        <time>2019-09-17T10:59:12Z</time>
      </trkpt>
      <trkpt lat="47.92223" lon="6.94573">
        <ele>796.3</ele>
        <time>2019-09-17T10:59:14Z</time>
      </trkpt>
      <trkpt lat="47.92222" lon="6.94569">
        <ele>796.7</ele>
        <time>2019-09-17T10:59:16Z</time>
      </trkpt>
      <trkpt lat="47.92221" lon="6.94565">
        <ele>797.1</ele>
        <time>2019-09-17T10:59:18Z</time>
      </trkpt>
      <trkpt lat="47.92219" lon="6.9456">
        <ele>797.4</ele>
        <time>2019-09-17T10:59:20Z</time>
      </trkpt>
      <trkpt lat="47.92218" lon="6.94557">
        <ele>797.8</ele>
        <time>2019-09-17T10:59:22Z</time>
      </trkpt>
      <trkpt lat="47.92216" lon="6.94552">
        <ele>798.2</ele>
        <time>2019-09-17T10:59:25Z</time>
      </trkpt>
      <trkpt lat="47.92213" lon="6.94548">
        <ele>798.7</ele>
        <time>2019-09-17T10:59:28Z</time>
      </trkpt>
      <trkpt lat="47.9221" lon="6.94544">
        <ele>799.1</ele>
        <time>2019-09-17T10:59:31Z</time>
      </trkpt>
      <trkpt lat="47.92207" lon="6.94541">
        <ele>799.6</ele>
        <time>2019-09-17T10:59:34Z</time>
      </trkpt>
      <trkpt lat="47.92205" lon="6.94545">
        <ele>799.3</ele>
        <time>2019-09-17T10:59:38Z</time>
      </trkpt>
      <trkpt lat="47.92201" lon="6.94546">
        <ele>798.8</ele>
        <time>2019-09-17T10:59:42Z</time>
      </trkpt>
      <trkpt lat="47.92198" lon="6.94547">
        <ele>798.5</ele>
        <time>2019-09-17T10:59:45Z</time>
      </trkpt>
      <trkpt lat="47.92196" lon="6.94544">
        <ele>798.1</ele>
        <time>2019-09-17T10:59:49Z</time>
      </trkpt>
      <trkpt lat="47.92193" lon="6.94541">
        <ele>797.6</ele>
        <time>2019-09-17T10:59:52Z</time>
      </trkpt>
      <trkpt lat="47.9219" lon="6.94539">
        <ele>797.4</ele>
        <time>2019-09-17T10:59:55Z</time>
      </trkpt>
      <trkpt lat="47.92187" lon="6.94538">
        <ele>797.3</ele>
        <time>2019-09-17T10:59:57Z</time>
      </trkpt>
      <trkpt lat="47.92184" lon="6.94536">
        <ele>797.2</ele>
        <time>2019-09-17T11:00:00Z</time>
      </trkpt>
      <trkpt lat="47.92181" lon="6.94534">
        <ele>797</ele>
        <time>2019-09-17T11:00:04Z</time>
      </trkpt>
      <trkpt lat="47.92179" lon="6.94531">
        <ele>796.9</ele>
        <time>2019-09-17T11:00:06Z</time>
      </trkpt>
      <trkpt lat="47.92177" lon="6.94528">
        <ele>796.8</ele>
        <time>2019-09-17T11:00:08Z</time>
      </trkpt>
      <trkpt lat="47.92172" lon="6.94524">
        <ele>795.2</ele>
        <time>2019-09-17T11:00:10Z</time>
      </trkpt>
      <trkpt lat="47.92169" lon="6.94523">
        <ele>794.3</ele>
        <time>2019-09-17T11:00:11Z</time>
      </trkpt>
      <trkpt lat="47.92165" lon="6.94521">
        <ele>793.6</ele>
        <time>2019-09-17T11:00:13Z</time>
      </trkpt>
      <trkpt lat="47.92162" lon="6.9452">
        <ele>793</ele>
        <time>2019-09-17T11:00:15Z</time>
      </trkpt>
      <trkpt lat="47.92158" lon="6.9452">
        <ele>791.9</ele>
        <time>2019-09-17T11:00:17Z</time>
      </trkpt>
      <trkpt lat="47.92154" lon="6.9452">
        <ele>790.5</ele>
        <time>2019-09-17T11:00:20Z</time>
      </trkpt>
      <trkpt lat="47.92151" lon="6.9452">
        <ele>789.4</ele>
        <time>2019-09-17T11:00:23Z</time>
      </trkpt>
      <trkpt lat="47.92147" lon="6.94519">
        <ele>788.4</ele>
        <time>2019-09-17T11:00:26Z</time>
      </trkpt>
      <trkpt lat="47.92144" lon="6.94518">
        <ele>787.4</ele>
        <time>2019-09-17T11:00:29Z</time>
      </trkpt>
      <trkpt lat="47.9214" lon="6.94516">
        <ele>786.1</ele>
        <time>2019-09-17T11:00:32Z</time>
      </trkpt>
      <trkpt lat="47.92137" lon="6.94516">
        <ele>785</ele>
        <time>2019-09-17T11:00:34Z</time>
      </trkpt>
      <trkpt lat="47.92134" lon="6.94515">
        <ele>783.9</ele>
        <time>2019-09-17T11:00:37Z</time>
      </trkpt>
      <trkpt lat="47.92131" lon="6.94513">
        <ele>783</ele>
        <time>2019-09-17T11:00:39Z</time>
      </trkpt>
      <trkpt lat="47.92128" lon="6.94512">
        <ele>781.8</ele>
        <time>2019-09-17T11:00:41Z</time>
      </trkpt>
      <trkpt lat="47.92124" lon="6.9451">
        <ele>780.2</ele>
        <time>2019-09-17T11:00:44Z</time>
      </trkpt>
      <trkpt lat="47.92121" lon="6.9451">
        <ele>779.4</ele>
        <time>2019-09-17T11:00:47Z</time>
      </trkpt>
      <trkpt lat="47.92118" lon="6.94508">
        <ele>778.9</ele>
        <time>2019-09-17T11:00:50Z</time>
      </trkpt>
      <trkpt lat="47.92115" lon="6.94507">
        <ele>778.3</ele>
        <time>2019-09-17T11:00:53Z</time>
      </trkpt>
      <trkpt lat="47.92112" lon="6.94506">
        <ele>777.4</ele>
        <time>2019-09-17T11:00:56Z</time>
      </trkpt>
      <trkpt lat="47.92108" lon="6.94504">
        <ele>776.3</ele>
        <time>2019-09-17T11:00:59Z</time>
      </trkpt>
      <trkpt lat="47.92105" lon="6.94503">
        <ele>775.3</ele>
        <time>2019-09-17T11:01:02Z</time>
      </trkpt>
      <trkpt lat="47.92102" lon="6.94502">
        <ele>774.6</ele>
        <time>2019-09-17T11:01:04Z</time>
      </trkpt>
      <trkpt lat="47.92099" lon="6.94501">
        <ele>773.8</ele>
        <time>2019-09-17T11:01:07Z</time>
      </trkpt>
      <trkpt lat="47.92096" lon="6.94501">
        <ele>773.1</ele>
        <time>2019-09-17T11:01:09Z</time>
      </trkpt>
      <trkpt lat="47.92093" lon="6.94501">
        <ele>772.4</ele>
        <time>2019-09-17T11:01:11Z</time>
      </trkpt>
      <trkpt lat="47.9209" lon="6.94502">
        <ele>771.5</ele>
        <time>2019-09-17T11:01:13Z</time>
      </trkpt>
      <trkpt lat="47.92086" lon="6.94501">
        <ele>770.3</ele>
        <time>2019-09-17T11:01:16Z</time>
      </trkpt>
      <trkpt lat="47.92083" lon="6.945">
        <ele>769.5</ele>
        <time>2019-09-17T11:01:18Z</time>
      </trkpt>
      <trkpt lat="47.9208" lon="6.94499">
        <ele>768.9</ele>
        <time>2019-09-17T11:01:20Z</time>
      </trkpt>
      <trkpt lat="47.92076" lon="6.94497">
        <ele>768.1</ele>
        <time>2019-09-17T11:01:22Z</time>
      </trkpt>
      <trkpt lat="47.92073" lon="6.94496">
        <ele>767.1</ele>
        <time>2019-09-17T11:01:24Z</time>
      </trkpt>
      <trkpt lat="47.9207" lon="6.94493">
        <ele>765.9</ele>
        <time>2019-09-17T11:01:26Z</time>
      </trkpt>
      <trkpt lat="47.92067" lon="6.94491">
        <ele>764.7</ele>
        <time>2019-09-17T11:01:28Z</time>
      </trkpt>
      <trkpt lat="47.92064" lon="6.94488">
        <ele>764</ele>
        <time>2019-09-17T11:01:30Z</time>
      </trkpt>
      <trkpt lat="47.92061" lon="6.94485">
        <ele>763.3</ele>
        <time>2019-09-17T11:01:32Z</time>
      </trkpt>
      <trkpt lat="47.92059" lon="6.94483">
        <ele>762.8</ele>
        <time>2019-09-17T11:01:34Z</time>
      </trkpt>
      <trkpt lat="47.92056" lon="6.94479">
        <ele>762.4</ele>
        <time>2019-09-17T11:01:36Z</time>
      </trkpt>
      <trkpt lat="47.92054" lon="6.94474">
        <ele>762</ele>
        <time>2019-09-17T11:01:38Z</time>
      </trkpt>
      <trkpt lat="47.92052" lon="6.94471">
        <ele>761.9</ele>
        <time>2019-09-17T11:01:40Z</time>
      </trkpt>
      <trkpt lat="47.92051" lon="6.94467">
        <ele>761.8</ele>
        <time>2019-09-17T11:01:42Z</time>
      </trkpt>
      <trkpt lat="47.9205" lon="6.94463">
        <ele>761.6</ele>
        <time>2019-09-17T11:01:44Z</time>
      </trkpt>
      <trkpt lat="47.92048" lon="6.9446">
        <ele>761.4</ele>
        <time>2019-09-17T11:01:46Z</time>
      </trkpt>
      <trkpt lat="47.92045" lon="6.94455">
        <ele>761</ele>
        <time>2019-09-17T11:01:49Z</time>
      </trkpt>
      <trkpt lat="47.92043" lon="6.94451">
        <ele>760.5</ele>
        <time>2019-09-17T11:01:52Z</time>
      </trkpt>
      <trkpt lat="47.92041" lon="6.94448">
        <ele>759.9</ele>
        <time>2019-09-17T11:01:55Z</time>
      </trkpt>
      <trkpt lat="47.92038" lon="6.94445">
        <ele>759.5</ele>
        <time>2019-09-17T11:01:58Z</time>
      </trkpt>
      <trkpt lat="47.92036" lon="6.94442">
        <ele>759.2</ele>
        <time>2019-09-17T11:02:01Z</time>
      </trkpt>
      <trkpt lat="47.92033" lon="6.94439">
        <ele>758.9</ele>
        <time>2019-09-17T11:02:04Z</time>
      </trkpt>
      <trkpt lat="47.92031" lon="6.94436">
        <ele>758.8</ele>
        <time>2019-09-17T11:02:06Z</time>
      </trkpt>
      <trkpt lat="47.92028" lon="6.94432">
        <ele>758.8</ele>
        <time>2019-09-17T11:02:09Z</time>
      </trkpt>
      <trkpt lat="47.92026" lon="6.94429">
        <ele>758.4</ele>
        <time>2019-09-17T11:02:11Z</time>
      </trkpt>
      <trkpt lat="47.92024" lon="6.94425">
        <ele>757.9</ele>
        <time>2019-09-17T11:02:13Z</time>
      </trkpt>
      <trkpt lat="47.92022" lon="6.9442">
        <ele>757.5</ele>
        <time>2019-09-17T11:02:16Z</time>
      </trkpt>
      <trkpt lat="47.9202" lon="6.94416">
        <ele>757.4</ele>
        <time>2019-09-17T11:02:18Z</time>
      </trkpt>
      <trkpt lat="47.92018" lon="6.94412">
        <ele>757.3</ele>
        <time>2019-09-17T11:02:20Z</time>
      </trkpt>
      <trkpt lat="47.92017" lon="6.94408">
        <ele>756.8</ele>
        <time>2019-09-17T11:02:22Z</time>
      </trkpt>
      <trkpt lat="47.92014" lon="6.94404">
        <ele>755.9</ele>
        <time>2019-09-17T11:02:25Z</time>
      </trkpt>
      <trkpt lat="47.92013" lon="6.944">
        <ele>755.4</ele>
        <time>2019-09-17T11:02:27Z</time>
      </trkpt>
      <trkpt lat="47.9201" lon="6.94396">
        <ele>755.1</ele>
        <time>2019-09-17T11:02:30Z</time>
      </trkpt>
      <trkpt lat="47.92008" lon="6.94392">
        <ele>754.8</ele>
        <time>2019-09-17T11:02:33Z</time>
      </trkpt>
      <trkpt lat="47.92006" lon="6.94388">
        <ele>754.7</ele>
        <time>2019-09-17T11:02:36Z</time>
      </trkpt>
      <trkpt lat="47.92004" lon="6.94385">
        <ele>754.6</ele>
        <time>2019-09-17T11:02:39Z</time>
      </trkpt>
      <trkpt lat="47.92002" lon="6.94381">
        <ele>754.5</ele>
        <time>2019-09-17T11:02:42Z</time>
      </trkpt>
      <trkpt lat="47.92" lon="6.94376">
        <ele>753.8</ele>
        <time>2019-09-17T11:02:45Z</time>
      </trkpt>
      <trkpt lat="47.91998" lon="6.94372">
        <ele>753</ele>
        <time>2019-09-17T11:02:48Z</time>
      </trkpt>
      <trkpt lat="47.91997" lon="6.94367">
        <ele>752.5</ele>
        <time>2019-09-17T11:02:51Z</time>
      </trkpt>
      <trkpt lat="47.91997" lon="6.94362">
        <ele>752.1</ele>
        <time>2019-09-17T11:02:55Z</time>
      </trkpt>
      <trkpt lat="47.91995" lon="6.94358">
        <ele>751.8</ele>
        <time>2019-09-17T11:02:59Z</time>
      </trkpt>
      <trkpt lat="47.91995" lon="6.94353">
        <ele>751.2</ele>
        <time>2019-09-17T11:03:03Z</time>
      </trkpt>
      <trkpt lat="47.91994" lon="6.94349">
        <ele>750.2</ele>
        <time>2019-09-17T11:03:05Z</time>
      </trkpt>
      <trkpt lat="47.91993" lon="6.94341">
        <ele>748.3</ele>
        <time>2019-09-17T11:03:07Z</time>
      </trkpt>
      <trkpt lat="47.91992" lon="6.94334">
        <ele>747.2</ele>
        <time>2019-09-17T11:03:08Z</time>
      </trkpt>
      <trkpt lat="47.91991" lon="6.94329">
        <ele>746.4</ele>
        <time>2019-09-17T11:03:09Z</time>
      </trkpt>
      <trkpt lat="47.91991" lon="6.94325">
        <ele>745.7</ele>
        <time>2019-09-17T11:03:11Z</time>
      </trkpt>
      <trkpt lat="47.91989" lon="6.94319">
        <ele>744.8</ele>
        <time>2019-09-17T11:03:13Z</time>
      </trkpt>
      <trkpt lat="47.91987" lon="6.94314">
        <ele>744</ele>
        <time>2019-09-17T11:03:15Z</time>
      </trkpt>
      <trkpt lat="47.91986" lon="6.94308">
        <ele>742.7</ele>
        <time>2019-09-17T11:03:17Z</time>
      </trkpt>
      <trkpt lat="47.91986" lon="6.94303">
        <ele>741.5</ele>
        <time>2019-09-17T11:03:19Z</time>
      </trkpt>
      <trkpt lat="47.91984" lon="6.94297">
        <ele>740.4</ele>
        <time>2019-09-17T11:03:21Z</time>
      </trkpt>
      <trkpt lat="47.91983" lon="6.94292">
        <ele>739.9</ele>
        <time>2019-09-17T11:03:23Z</time>
      </trkpt>
      <trkpt lat="47.91983" lon="6.94288">
        <ele>739.4</ele>
        <time>2019-09-17T11:03:25Z</time>
      </trkpt>
      <trkpt lat="47.91983" lon="6.94282">
        <ele>739</ele>
        <time>2019-09-17T11:03:28Z</time>
      </trkpt>
      <trkpt lat="47.91983" lon="6.94278">
        <ele>738.8</ele>
        <time>2019-09-17T11:03:30Z</time>
      </trkpt>
      <trkpt lat="47.91984" lon="6.94273">
        <ele>738.6</ele>
        <time>2019-09-17T11:03:32Z</time>
      </trkpt>
      <trkpt lat="47.91985" lon="6.94269">
        <ele>738.4</ele>
        <time>2019-09-17T11:03:34Z</time>
      </trkpt>
      <trkpt lat="47.91986" lon="6.94264">
        <ele>738</ele>
        <time>2019-09-17T11:03:36Z</time>
      </trkpt>
      <trkpt lat="47.91988" lon="6.94259">
        <ele>737.7</ele>
        <time>2019-09-17T11:03:38Z</time>
      </trkpt>
      <trkpt lat="47.91989" lon="6.94254">
        <ele>737.2</ele>
        <time>2019-09-17T11:03:40Z</time>
      </trkpt>
      <trkpt lat="47.91991" lon="6.94248">
        <ele>736.7</ele>
        <time>2019-09-17T11:03:42Z</time>
      </trkpt>
      <trkpt lat="47.91994" lon="6.94246">
        <ele>736.2</ele>
        <time>2019-09-17T11:03:45Z</time>
      </trkpt>
      <trkpt lat="47.91996" lon="6.94242">
        <ele>735.5</ele>
        <time>2019-09-17T11:03:48Z</time>
      </trkpt>
      <trkpt lat="47.91999" lon="6.94238">
        <ele>734.9</ele>
        <time>2019-09-17T11:03:51Z</time>
      </trkpt>
      <trkpt lat="47.92" lon="6.94234">
        <ele>734.6</ele>
        <time>2019-09-17T11:03:54Z</time>
      </trkpt>
      <trkpt lat="47.92001" lon="6.9423">
        <ele>734.6</ele>
        <time>2019-09-17T11:04:02Z</time>
      </trkpt>
      <trkpt lat="47.92002" lon="6.94226">
        <ele>734.5</ele>
        <time>2019-09-17T11:04:05Z</time>
      </trkpt>
      <trkpt lat="47.92003" lon="6.94221">
        <ele>734.6</ele>
        <time>2019-09-17T11:04:08Z</time>
      </trkpt>
      <trkpt lat="47.92003" lon="6.94216">
        <ele>734.9</ele>
        <time>2019-09-17T11:04:11Z</time>
      </trkpt>
      <trkpt lat="47.92004" lon="6.9421">
        <ele>735.1</ele>
        <time>2019-09-17T11:04:13Z</time>
      </trkpt>
      <trkpt lat="47.92003" lon="6.94207">
        <ele>735</ele>
        <time>2019-09-17T11:04:17Z</time>
      </trkpt>
      <trkpt lat="47.91999" lon="6.94204">
        <ele>734.7</ele>
        <time>2019-09-17T11:04:20Z</time>
      </trkpt>
      <trkpt lat="47.91997" lon="6.94202">
        <ele>734.4</ele>
        <time>2019-09-17T11:04:26Z</time>
      </trkpt>
      <trkpt lat="47.91995" lon="6.94205">
        <ele>733.8</ele>
        <time>2019-09-17T11:04:30Z</time>
      </trkpt>
      <trkpt lat="47.91994" lon="6.9421">
        <ele>727.4</ele>
        <time>2019-09-17T11:04:33Z</time>
      </trkpt>
      <trkpt lat="47.91993" lon="6.94215">
        <ele>727.3</ele>
        <time>2019-09-17T11:04:37Z</time>
      </trkpt>
      <trkpt lat="47.91992" lon="6.9422">
        <ele>727.2</ele>
        <time>2019-09-17T11:04:39Z</time>
      </trkpt>
      <trkpt lat="47.91991" lon="6.94225">
        <ele>727</ele>
        <time>2019-09-17T11:04:41Z</time>
      </trkpt>
      <trkpt lat="47.91991" lon="6.9423">
        <ele>726.9</ele>
        <time>2019-09-17T11:04:43Z</time>
      </trkpt>
      <trkpt lat="47.9199" lon="6.94235">
        <ele>726.8</ele>
        <time>2019-09-17T11:04:45Z</time>
      </trkpt>
      <trkpt lat="47.9199" lon="6.94239">
        <ele>726.7</ele>
        <time>2019-09-17T11:04:47Z</time>
      </trkpt>
      <trkpt lat="47.9199" lon="6.94245">
        <ele>726.6</ele>
        <time>2019-09-17T11:04:50Z</time>
      </trkpt>
      <trkpt lat="47.91989" lon="6.9425">
        <ele>726.5</ele>
        <time>2019-09-17T11:04:53Z</time>
      </trkpt>
      <trkpt lat="47.91987" lon="6.94254">
        <ele>726.4</ele>
        <time>2019-09-17T11:04:55Z</time>
      </trkpt>
      <trkpt lat="47.91984" lon="6.94255">
        <ele>726.3</ele>
        <time>2019-09-17T11:04:57Z</time>
      </trkpt>
      <trkpt lat="47.91981" lon="6.94259">
        <ele>726.1</ele>
        <time>2019-09-17T11:04:59Z</time>
      </trkpt>
      <trkpt lat="47.91979" lon="6.94263">
        <ele>726</ele>
        <time>2019-09-17T11:05:02Z</time>
      </trkpt>
      <trkpt lat="47.91976" lon="6.94264">
        <ele>726</ele>
        <time>2019-09-17T11:05:05Z</time>
      </trkpt>
      <trkpt lat="47.91973" lon="6.94267">
        <ele>725.9</ele>
        <time>2019-09-17T11:05:07Z</time>
      </trkpt>
      <trkpt lat="47.9197" lon="6.94271">
        <ele>725.8</ele>
        <time>2019-09-17T11:05:09Z</time>
      </trkpt>
      <trkpt lat="47.91967" lon="6.94276">
        <ele>725.7</ele>
        <time>2019-09-17T11:05:11Z</time>
      </trkpt>
      <trkpt lat="47.91966" lon="6.94281">
        <ele>725.6</ele>
        <time>2019-09-17T11:05:13Z</time>
      </trkpt>
      <trkpt lat="47.91963" lon="6.94284">
        <ele>725.5</ele>
        <time>2019-09-17T11:05:16Z</time>
      </trkpt>
      <trkpt lat="47.91962" lon="6.94288">
        <ele>725.4</ele>
        <time>2019-09-17T11:05:18Z</time>
      </trkpt>
      <trkpt lat="47.9196" lon="6.94293">
        <ele>725.4</ele>
        <time>2019-09-17T11:05:20Z</time>
      </trkpt>
      <trkpt lat="47.91958" lon="6.94298">
        <ele>725.3</ele>
        <time>2019-09-17T11:05:22Z</time>
      </trkpt>
      <trkpt lat="47.91956" lon="6.94303">
        <ele>725.2</ele>
        <time>2019-09-17T11:05:24Z</time>
      </trkpt>
      <trkpt lat="47.91954" lon="6.94308">
        <ele>725.1</ele>
        <time>2019-09-17T11:05:26Z</time>
      </trkpt>
      <trkpt lat="47.91953" lon="6.94312">
        <ele>725</ele>
        <time>2019-09-17T11:05:28Z</time>
      </trkpt>
      <trkpt lat="47.91953" lon="6.94316">
        <ele>725</ele>
        <time>2019-09-17T11:05:30Z</time>
      </trkpt>
      <trkpt lat="47.91952" lon="6.94322">
        <ele>724.9</ele>
        <time>2019-09-17T11:05:33Z</time>
      </trkpt>
      <trkpt lat="47.91951" lon="6.94328">
        <ele>724.8</ele>
        <time>2019-09-17T11:05:35Z</time>
      </trkpt>
      <trkpt lat="47.9195" lon="6.94333">
        <ele>724.7</ele>
        <time>2019-09-17T11:05:37Z</time>
      </trkpt>
      <trkpt lat="47.91949" lon="6.94337">
        <ele>724.6</ele>
        <time>2019-09-17T11:05:39Z</time>
      </trkpt>
      <trkpt lat="47.91948" lon="6.94342">
        <ele>724.5</ele>
        <time>2019-09-17T11:05:41Z</time>
      </trkpt>
      <trkpt lat="47.91947" lon="6.94346">
        <ele>724.4</ele>
        <time>2019-09-17T11:05:43Z</time>
      </trkpt>
      <trkpt lat="47.91946" lon="6.94351">
        <ele>724.3</ele>
        <time>2019-09-17T11:05:45Z</time>
      </trkpt>
      <trkpt lat="47.91946" lon="6.94356">
        <ele>724.2</ele>
        <time>2019-09-17T11:05:47Z</time>
      </trkpt>
      <trkpt lat="47.91945" lon="6.94362">
        <ele>724.1</ele>
        <time>2019-09-17T11:05:50Z</time>
      </trkpt>
      <trkpt lat="47.91945" lon="6.94366">
        <ele>724</ele>
        <time>2019-09-17T11:05:52Z</time>
      </trkpt>
      <trkpt lat="47.91944" lon="6.94372">
        <ele>723.9</ele>
        <time>2019-09-17T11:05:55Z</time>
      </trkpt>
      <trkpt lat="47.91944" lon="6.94377">
        <ele>723.8</ele>
        <time>2019-09-17T11:05:57Z</time>
      </trkpt>
      <trkpt lat="47.91943" lon="6.94381">
        <ele>723.7</ele>
        <time>2019-09-17T11:06:00Z</time>
      </trkpt>
      <trkpt lat="47.91943" lon="6.94385">
        <ele>723.6</ele>
        <time>2019-09-17T11:06:03Z</time>
      </trkpt>
      <trkpt lat="47.91942" lon="6.9439">
        <ele>723.5</ele>
        <time>2019-09-17T11:06:07Z</time>
      </trkpt>
      <trkpt lat="47.91941" lon="6.94394">
        <ele>723.5</ele>
        <time>2019-09-17T11:06:11Z</time>
      </trkpt>
      <trkpt lat="47.91941" lon="6.94399">
        <ele>723.4</ele>
        <time>2019-09-17T11:06:14Z</time>
      </trkpt>
      <trkpt lat="47.91941" lon="6.94403">
        <ele>723.3</ele>
        <time>2019-09-17T11:06:16Z</time>
      </trkpt>
      <trkpt lat="47.91941" lon="6.94409">
        <ele>723.2</ele>
        <time>2019-09-17T11:06:19Z</time>
      </trkpt>
      <trkpt lat="47.91944" lon="6.94414">
        <ele>723.1</ele>
        <time>2019-09-17T11:06:22Z</time>
      </trkpt>
      <trkpt lat="47.91945" lon="6.94419">
        <ele>723</ele>
        <time>2019-09-17T11:06:24Z</time>
      </trkpt>
      <trkpt lat="47.91946" lon="6.94425">
        <ele>722.8</ele>
        <time>2019-09-17T11:06:27Z</time>
      </trkpt>
      <trkpt lat="47.91947" lon="6.94429">
        <ele>722.7</ele>
        <time>2019-09-17T11:06:29Z</time>
      </trkpt>
      <trkpt lat="47.91947" lon="6.94434">
        <ele>722.6</ele>
        <time>2019-09-17T11:06:31Z</time>
      </trkpt>
      <trkpt lat="47.91947" lon="6.9444">
        <ele>722.4</ele>
        <time>2019-09-17T11:06:33Z</time>
      </trkpt>
      <trkpt lat="47.91947" lon="6.94445">
        <ele>722.3</ele>
        <time>2019-09-17T11:06:37Z</time>
      </trkpt>
      <trkpt lat="47.91943" lon="6.94444">
        <ele>722.1</ele>
        <time>2019-09-17T11:06:42Z</time>
      </trkpt>
      <trkpt lat="47.91941" lon="6.9444">
        <ele>722</ele>
        <time>2019-09-17T11:06:44Z</time>
      </trkpt>
      <trkpt lat="47.91938" lon="6.94438">
        <ele>721.9</ele>
        <time>2019-09-17T11:06:46Z</time>
      </trkpt>
      <trkpt lat="47.91935" lon="6.94438">
        <ele>721.8</ele>
        <time>2019-09-17T11:06:51Z</time>
      </trkpt>
      <trkpt lat="47.91932" lon="6.94437">
        <ele>721.6</ele>
        <time>2019-09-17T11:07:05Z</time>
      </trkpt>
      <trkpt lat="47.91932" lon="6.94432">
        <ele>721.5</ele>
        <time>2019-09-17T11:07:11Z</time>
      </trkpt>
      <trkpt lat="47.91932" lon="6.94427">
        <ele>721.4</ele>
        <time>2019-09-17T11:07:15Z</time>
      </trkpt>
      <trkpt lat="47.91931" lon="6.94417">
        <ele>721.2</ele>
        <time>2019-09-17T11:07:37Z</time>
      </trkpt>
      <trkpt lat="47.91933" lon="6.94424">
        <ele>721</ele>
        <time>2019-09-17T11:08:00Z</time>
      </trkpt>
      <trkpt lat="47.91934" lon="6.94429">
        <ele>720.9</ele>
        <time>2019-09-17T11:08:04Z</time>
      </trkpt>
      <trkpt lat="47.91935" lon="6.94433">
        <ele>720.8</ele>
        <time>2019-09-17T11:08:06Z</time>
      </trkpt>
      <trkpt lat="47.91936" lon="6.94438">
        <ele>720.7</ele>
        <time>2019-09-17T11:08:08Z</time>
      </trkpt>
      <trkpt lat="47.91937" lon="6.94442">
        <ele>720.7</ele>
        <time>2019-09-17T11:08:10Z</time>
      </trkpt>
      <trkpt lat="47.9194" lon="6.94442">
        <ele>720.6</ele>
        <time>2019-09-17T11:08:17Z</time>
      </trkpt>
      <trkpt lat="47.91942" lon="6.94447">
        <ele>720.5</ele>
        <time>2019-09-17T11:09:10Z</time>
      </trkpt>
      <trkpt lat="47.91944" lon="6.94451">
        <ele>720.5</ele>
        <time>2019-09-17T11:09:12Z</time>
      </trkpt>
      <trkpt lat="47.91945" lon="6.94457">
        <ele>720.4</ele>
        <time>2019-09-17T11:09:15Z</time>
      </trkpt>
      <trkpt lat="47.91945" lon="6.94462">
        <ele>720.3</ele>
        <time>2019-09-17T11:09:17Z</time>
      </trkpt>
      <trkpt lat="47.91948" lon="6.94463">
        <ele>720.3</ele>
        <time>2019-09-17T11:09:21Z</time>
      </trkpt>
      <trkpt lat="47.9195" lon="6.94466">
        <ele>720.2</ele>
        <time>2019-09-17T11:09:22Z</time>
      </trkpt>
      <trkpt lat="47.91952" lon="6.94469">
        <ele>720.2</ele>
        <time>2019-09-17T11:09:23Z</time>
      </trkpt>
      <trkpt lat="47.91954" lon="6.94474">
        <ele>720.1</ele>
        <time>2019-09-17T11:09:25Z</time>
      </trkpt>
      <trkpt lat="47.91956" lon="6.94479">
        <ele>720</ele>
        <time>2019-09-17T11:09:28Z</time>
      </trkpt>
      <trkpt lat="47.91957" lon="6.94485">
        <ele>719.9</ele>
        <time>2019-09-17T11:09:30Z</time>
      </trkpt>
      <trkpt lat="47.91958" lon="6.9449">
        <ele>719.9</ele>
        <time>2019-09-17T11:09:32Z</time>
      </trkpt>
      <trkpt lat="47.91957" lon="6.94495">
        <ele>719.8</ele>
        <time>2019-09-17T11:09:34Z</time>
      </trkpt>
      <trkpt lat="47.91957" lon="6.94501">
        <ele>719.7</ele>
        <time>2019-09-17T11:09:36Z</time>
      </trkpt>
      <trkpt lat="47.91956" lon="6.94508">
        <ele>719.6</ele>
        <time>2019-09-17T11:09:38Z</time>
      </trkpt>
      <trkpt lat="47.91957" lon="6.94513">
        <ele>719.5</ele>
        <time>2019-09-17T11:09:41Z</time>
      </trkpt>
      <trkpt lat="47.91957" lon="6.94517">
        <ele>719.4</ele>
        <time>2019-09-17T11:09:43Z</time>
      </trkpt>
      <trkpt lat="47.91959" lon="6.94523">
        <ele>719.3</ele>
        <time>2019-09-17T11:09:45Z</time>
      </trkpt>
      <trkpt lat="47.9196" lon="6.94529">
        <ele>719.2</ele>
        <time>2019-09-17T11:09:47Z</time>
      </trkpt>
      <trkpt lat="47.91961" lon="6.94534">
        <ele>719.1</ele>
        <time>2019-09-17T11:09:50Z</time>
      </trkpt>
      <trkpt lat="47.91962" lon="6.94539">
        <ele>719</ele>
        <time>2019-09-17T11:09:56Z</time>
      </trkpt>
      <trkpt lat="47.91964" lon="6.94542">
        <ele>718.9</ele>
        <time>2019-09-17T11:10:00Z</time>
      </trkpt>
      <trkpt lat="47.91965" lon="6.94547">
        <ele>718.9</ele>
        <time>2019-09-17T11:10:03Z</time>
      </trkpt>
      <trkpt lat="47.91968" lon="6.9455">
        <ele>718.8</ele>
        <time>2019-09-17T11:10:06Z</time>
      </trkpt>
      <trkpt lat="47.9197" lon="6.94553">
        <ele>718.7</ele>
        <time>2019-09-17T11:10:09Z</time>
      </trkpt>
      <trkpt lat="47.91973" lon="6.94557">
        <ele>718.6</ele>
        <time>2019-09-17T11:10:12Z</time>
      </trkpt>
      <trkpt lat="47.91976" lon="6.9456">
        <ele>718.5</ele>
        <time>2019-09-17T11:10:15Z</time>
      </trkpt>
      <trkpt lat="47.91978" lon="6.94564">
        <ele>718.4</ele>
        <time>2019-09-17T11:10:18Z</time>
      </trkpt>
      <trkpt lat="47.9198" lon="6.94567">
        <ele>718.4</ele>
        <time>2019-09-17T11:10:21Z</time>
      </trkpt>
      <trkpt lat="47.91982" lon="6.94573">
        <ele>718.3</ele>
        <time>2019-09-17T11:10:24Z</time>
      </trkpt>
      <trkpt lat="47.91984" lon="6.94577">
        <ele>718.2</ele>
        <time>2019-09-17T11:10:26Z</time>
      </trkpt>
      <trkpt lat="47.91986" lon="6.94581">
        <ele>718.1</ele>
        <time>2019-09-17T11:10:28Z</time>
      </trkpt>
      <trkpt lat="47.91987" lon="6.94585">
        <ele>718</ele>
        <time>2019-09-17T11:10:30Z</time>
      </trkpt>
      <trkpt lat="47.91989" lon="6.9459">
        <ele>717.9</ele>
        <time>2019-09-17T11:10:33Z</time>
      </trkpt>
      <trkpt lat="47.91991" lon="6.94594">
        <ele>717.8</ele>
        <time>2019-09-17T11:10:35Z</time>
      </trkpt>
      <trkpt lat="47.91993" lon="6.94598">
        <ele>716.7</ele>
        <time>2019-09-17T11:10:38Z</time>
      </trkpt>
      <trkpt lat="47.91994" lon="6.94602">
        <ele>717.5</ele>
        <time>2019-09-17T11:10:40Z</time>
      </trkpt>
      <trkpt lat="47.91995" lon="6.94606">
        <ele>716.4</ele>
        <time>2019-09-17T11:10:42Z</time>
      </trkpt>
      <trkpt lat="47.91996" lon="6.94611">
        <ele>715.2</ele>
        <time>2019-09-17T11:10:44Z</time>
      </trkpt>
      <trkpt lat="47.91997" lon="6.94616">
        <ele>713.8</ele>
        <time>2019-09-17T11:10:47Z</time>
      </trkpt>
      <trkpt lat="47.91999" lon="6.9462">
        <ele>712.8</ele>
        <time>2019-09-17T11:10:49Z</time>
      </trkpt>
      <trkpt lat="47.92" lon="6.94623">
        <ele>713.8</ele>
        <time>2019-09-17T11:10:51Z</time>
      </trkpt>
      <trkpt lat="47.92002" lon="6.94628">
        <ele>712.9</ele>
        <time>2019-09-17T11:10:53Z</time>
      </trkpt>
      <trkpt lat="47.92003" lon="6.94632">
        <ele>713.1</ele>
        <time>2019-09-17T11:10:55Z</time>
      </trkpt>
      <trkpt lat="47.92005" lon="6.94637">
        <ele>711.8</ele>
        <time>2019-09-17T11:10:57Z</time>
      </trkpt>
      <trkpt lat="47.92006" lon="6.94642">
        <ele>712.1</ele>
        <time>2019-09-17T11:10:59Z</time>
      </trkpt>
      <trkpt lat="47.92006" lon="6.94646">
        <ele>711.5</ele>
        <time>2019-09-17T11:11:01Z</time>
      </trkpt>
      <trkpt lat="47.92009" lon="6.94649">
        <ele>712.5</ele>
        <time>2019-09-17T11:11:04Z</time>
      </trkpt>
      <trkpt lat="47.92011" lon="6.94652">
        <ele>711.9</ele>
        <time>2019-09-17T11:11:08Z</time>
      </trkpt>
      <trkpt lat="47.92011" lon="6.94656">
        <ele>711.2</ele>
        <time>2019-09-17T11:11:14Z</time>
      </trkpt>
      <trkpt lat="47.92008" lon="6.94659">
        <ele>710.5</ele>
        <time>2019-09-17T11:11:15Z</time>
      </trkpt>
      <trkpt lat="47.92004" lon="6.94662">
        <ele>708.5</ele>
        <time>2019-09-17T11:11:16Z</time>
      </trkpt>
      <trkpt lat="47.92001" lon="6.94663">
        <ele>706.8</ele>
        <time>2019-09-17T11:11:17Z</time>
      </trkpt>
      <trkpt lat="47.91997" lon="6.94663">
        <ele>705.9</ele>
        <time>2019-09-17T11:11:19Z</time>
      </trkpt>
      <trkpt lat="47.91994" lon="6.94664">
        <ele>704.9</ele>
        <time>2019-09-17T11:11:21Z</time>
      </trkpt>
      <trkpt lat="47.9199" lon="6.94665">
        <ele>703.2</ele>
        <time>2019-09-17T11:11:24Z</time>
      </trkpt>
      <trkpt lat="47.91987" lon="6.94664">
        <ele>702.4</ele>
        <time>2019-09-17T11:11:30Z</time>
      </trkpt>
      <trkpt lat="47.91985" lon="6.94661">
        <ele>702.2</ele>
        <time>2019-09-17T11:11:36Z</time>
      </trkpt>
      <trkpt lat="47.91982" lon="6.94658">
        <ele>702</ele>
        <time>2019-09-17T11:11:39Z</time>
      </trkpt>
      <trkpt lat="47.9198" lon="6.94655">
        <ele>702</ele>
        <time>2019-09-17T11:11:44Z</time>
      </trkpt>
      <trkpt lat="47.91983" lon="6.9465">
        <ele>703.6</ele>
        <time>2019-09-17T11:11:47Z</time>
      </trkpt>
      <trkpt lat="47.91986" lon="6.94651">
        <ele>704.4</ele>
        <time>2019-09-17T11:11:49Z</time>
      </trkpt>
      <trkpt lat="47.91989" lon="6.94653">
        <ele>705.2</ele>
        <time>2019-09-17T11:11:52Z</time>
      </trkpt>
      <trkpt lat="47.91989" lon="6.94657">
        <ele>704.5</ele>
        <time>2019-09-17T11:11:55Z</time>
      </trkpt>
      <trkpt lat="47.91989" lon="6.94662">
        <ele>703.2</ele>
        <time>2019-09-17T11:11:58Z</time>
      </trkpt>
      <trkpt lat="47.91989" lon="6.94666">
        <ele>703.2</ele>
        <time>2019-09-17T11:12:01Z</time>
      </trkpt>
      <trkpt lat="47.91987" lon="6.94671">
        <ele>701.8</ele>
        <time>2019-09-17T11:12:03Z</time>
      </trkpt>
      <trkpt lat="47.91985" lon="6.94674">
        <ele>700.5</ele>
        <time>2019-09-17T11:12:05Z</time>
      </trkpt>
      <trkpt lat="47.91983" lon="6.94678">
        <ele>700.1</ele>
        <time>2019-09-17T11:12:07Z</time>
      </trkpt>
      <trkpt lat="47.91981" lon="6.94681">
        <ele>698.8</ele>
        <time>2019-09-17T11:12:09Z</time>
      </trkpt>
      <trkpt lat="47.91977" lon="6.94687">
        <ele>697.5</ele>
        <time>2019-09-17T11:12:11Z</time>
      </trkpt>
      <trkpt lat="47.91975" lon="6.9469">
        <ele>696.2</ele>
        <time>2019-09-17T11:12:13Z</time>
      </trkpt>
      <trkpt lat="47.91972" lon="6.94694">
        <ele>694.9</ele>
        <time>2019-09-17T11:12:15Z</time>
      </trkpt>
      <trkpt lat="47.9197" lon="6.94697">
        <ele>693.7</ele>
        <time>2019-09-17T11:12:17Z</time>
      </trkpt>
      <trkpt lat="47.91968" lon="6.947">
        <ele>693.7</ele>
        <time>2019-09-17T11:12:19Z</time>
      </trkpt>
      <trkpt lat="47.91965" lon="6.94702">
        <ele>691.9</ele>
        <time>2019-09-17T11:12:23Z</time>
      </trkpt>
      <trkpt lat="47.91962" lon="6.94704">
        <ele>691.3</ele>
        <time>2019-09-17T11:12:26Z</time>
      </trkpt>
      <trkpt lat="47.9196" lon="6.94708">
        <ele>691</ele>
        <time>2019-09-17T11:12:29Z</time>
      </trkpt>
      <trkpt lat="47.91958" lon="6.94712">
        <ele>690.2</ele>
        <time>2019-09-17T11:12:33Z</time>
      </trkpt>
      <trkpt lat="47.91957" lon="6.94717">
        <ele>690</ele>
        <time>2019-09-17T11:12:37Z</time>
      </trkpt>
      <trkpt lat="47.91956" lon="6.94721">
        <ele>689.3</ele>
        <time>2019-09-17T11:12:40Z</time>
      </trkpt>
      <trkpt lat="47.91955" lon="6.94726">
        <ele>689.1</ele>
        <time>2019-09-17T11:12:44Z</time>
      </trkpt>
      <trkpt lat="47.91955" lon="6.94731">
        <ele>688.7</ele>
        <time>2019-09-17T11:12:48Z</time>
      </trkpt>
      <trkpt lat="47.91953" lon="6.94735">
        <ele>687.9</ele>
        <time>2019-09-17T11:12:51Z</time>
      </trkpt>
      <trkpt lat="47.91952" lon="6.94739">
        <ele>687.9</ele>
        <time>2019-09-17T11:12:53Z</time>
      </trkpt>
      <trkpt lat="47.91951" lon="6.94743">
        <ele>687.6</ele>
        <time>2019-09-17T11:12:55Z</time>
      </trkpt>
      <trkpt lat="47.91949" lon="6.94747">
        <ele>686.8</ele>
        <time>2019-09-17T11:12:57Z</time>
      </trkpt>
      <trkpt lat="47.91948" lon="6.94751">
        <ele>686.4</ele>
        <time>2019-09-17T11:12:59Z</time>
      </trkpt>
      <trkpt lat="47.91946" lon="6.94755">
        <ele>685.4</ele>
        <time>2019-09-17T11:13:01Z</time>
      </trkpt>
      <trkpt lat="47.91944" lon="6.9476">
        <ele>684.4</ele>
        <time>2019-09-17T11:13:03Z</time>
      </trkpt>
      <trkpt lat="47.91942" lon="6.94765">
        <ele>684</ele>
        <time>2019-09-17T11:13:05Z</time>
      </trkpt>
      <trkpt lat="47.91941" lon="6.94769">
        <ele>682.9</ele>
        <time>2019-09-17T11:13:07Z</time>
      </trkpt>
      <trkpt lat="47.91939" lon="6.94773">
        <ele>682.5</ele>
        <time>2019-09-17T11:13:09Z</time>
      </trkpt>
      <trkpt lat="47.91939" lon="6.94777">
        <ele>681.4</ele>
        <time>2019-09-17T11:13:11Z</time>
      </trkpt>
      <trkpt lat="47.91939" lon="6.94782">
        <ele>680.4</ele>
        <time>2019-09-17T11:13:14Z</time>
      </trkpt>
      <trkpt lat="47.91939" lon="6.94787">
        <ele>680.5</ele>
        <time>2019-09-17T11:13:17Z</time>
      </trkpt>
      <trkpt lat="47.91941" lon="6.94791">
        <ele>679.9</ele>
        <time>2019-09-17T11:13:21Z</time>
      </trkpt>
      <trkpt lat="47.91944" lon="6.94793">
        <ele>680.6</ele>
        <time>2019-09-17T11:13:25Z</time>
      </trkpt>
      <trkpt lat="47.91945" lon="6.94798">
        <ele>680.8</ele>
        <time>2019-09-17T11:13:29Z</time>
      </trkpt>
      <trkpt lat="47.91946" lon="6.94802">
        <ele>680.3</ele>
        <time>2019-09-17T11:13:31Z</time>
      </trkpt>
      <trkpt lat="47.91948" lon="6.94807">
        <ele>679.7</ele>
        <time>2019-09-17T11:13:34Z</time>
      </trkpt>
      <trkpt lat="47.9195" lon="6.94811">
        <ele>680</ele>
        <time>2019-09-17T11:13:38Z</time>
      </trkpt>
      <trkpt lat="47.91953" lon="6.94814">
        <ele>680.2</ele>
        <time>2019-09-17T11:13:42Z</time>
      </trkpt>
      <trkpt lat="47.91955" lon="6.94818">
        <ele>680.3</ele>
        <time>2019-09-17T11:13:46Z</time>
      </trkpt>
      <trkpt lat="47.91956" lon="6.94821">
        <ele>679.9</ele>
        <time>2019-09-17T11:13:49Z</time>
      </trkpt>
      <trkpt lat="47.91957" lon="6.94826">
        <ele>679.9</ele>
        <time>2019-09-17T11:13:52Z</time>
      </trkpt>
      <trkpt lat="47.91956" lon="6.94829">
        <ele>679.4</ele>
        <time>2019-09-17T11:13:55Z</time>
      </trkpt>
      <trkpt lat="47.91954" lon="6.94833">
        <ele>678.8</ele>
        <time>2019-09-17T11:13:57Z</time>
      </trkpt>
      <trkpt lat="47.91955" lon="6.94837">
        <ele>678.3</ele>
        <time>2019-09-17T11:13:59Z</time>
      </trkpt>
      <trkpt lat="47.91958" lon="6.94841">
        <ele>678.4</ele>
        <time>2019-09-17T11:14:03Z</time>
      </trkpt>
      <trkpt lat="47.9196" lon="6.94844">
        <ele>678.5</ele>
        <time>2019-09-17T11:14:09Z</time>
      </trkpt>
      <trkpt lat="47.9196" lon="6.94849">
        <ele>678.1</ele>
        <time>2019-09-17T11:14:13Z</time>
      </trkpt>
      <trkpt lat="47.91961" lon="6.94853">
        <ele>677.8</ele>
        <time>2019-09-17T11:14:17Z</time>
      </trkpt>
      <trkpt lat="47.91962" lon="6.94858">
        <ele>677.5</ele>
        <time>2019-09-17T11:14:21Z</time>
      </trkpt>
      <trkpt lat="47.91962" lon="6.94863">
        <ele>677.9</ele>
        <time>2019-09-17T11:14:24Z</time>
      </trkpt>
      <trkpt lat="47.91962" lon="6.94867">
        <ele>677.6</ele>
        <time>2019-09-17T11:14:27Z</time>
      </trkpt>
      <trkpt lat="47.91962" lon="6.94872">
        <ele>676.2</ele>
        <time>2019-09-17T11:14:30Z</time>
      </trkpt>
      <trkpt lat="47.91962" lon="6.94879">
        <ele>675.8</ele>
        <time>2019-09-17T11:14:33Z</time>
      </trkpt>
      <trkpt lat="47.91959" lon="6.94882">
        <ele>674.5</ele>
        <time>2019-09-17T11:14:36Z</time>
      </trkpt>
      <trkpt lat="47.91957" lon="6.94886">
        <ele>674.1</ele>
        <time>2019-09-17T11:14:39Z</time>
      </trkpt>
      <trkpt lat="47.91955" lon="6.94889">
        <ele>673.3</ele>
        <time>2019-09-17T11:14:41Z</time>
      </trkpt>
      <trkpt lat="47.91953" lon="6.94892">
        <ele>672.1</ele>
        <time>2019-09-17T11:14:43Z</time>
      </trkpt>
      <trkpt lat="47.91952" lon="6.94899">
        <ele>671.1</ele>
        <time>2019-09-17T11:14:45Z</time>
      </trkpt>
      <trkpt lat="47.91948" lon="6.94902">
        <ele>670.2</ele>
        <time>2019-09-17T11:14:47Z</time>
      </trkpt>
      <trkpt lat="47.91945" lon="6.94905">
        <ele>668.7</ele>
        <time>2019-09-17T11:14:49Z</time>
      </trkpt>
      <trkpt lat="47.91943" lon="6.94909">
        <ele>667.1</ele>
        <time>2019-09-17T11:14:52Z</time>
      </trkpt>
      <trkpt lat="47.91941" lon="6.94915">
        <ele>665.5</ele>
        <time>2019-09-17T11:14:55Z</time>
      </trkpt>
      <trkpt lat="47.9194" lon="6.9492">
        <ele>664.2</ele>
        <time>2019-09-17T11:14:57Z</time>
      </trkpt>
      <trkpt lat="47.91941" lon="6.94924">
        <ele>663.6</ele>
        <time>2019-09-17T11:15:00Z</time>
      </trkpt>
      <trkpt lat="47.91944" lon="6.94929">
        <ele>664.2</ele>
        <time>2019-09-17T11:15:03Z</time>
      </trkpt>
      <trkpt lat="47.91945" lon="6.94933">
        <ele>663.8</ele>
        <time>2019-09-17T11:15:07Z</time>
      </trkpt>
      <trkpt lat="47.91946" lon="6.94937">
        <ele>665</ele>
        <time>2019-09-17T11:15:11Z</time>
      </trkpt>
      <trkpt lat="47.91948" lon="6.94941">
        <ele>665.7</ele>
        <time>2019-09-17T11:15:13Z</time>
      </trkpt>
      <trkpt lat="47.91949" lon="6.94946">
        <ele>665.1</ele>
        <time>2019-09-17T11:15:16Z</time>
      </trkpt>
      <trkpt lat="47.91951" lon="6.94951">
        <ele>664.8</ele>
        <time>2019-09-17T11:15:18Z</time>
      </trkpt>
      <trkpt lat="47.91952" lon="6.94956">
        <ele>665.5</ele>
        <time>2019-09-17T11:15:20Z</time>
      </trkpt>
      <trkpt lat="47.91954" lon="6.94961">
        <ele>666.1</ele>
        <time>2019-09-17T11:15:22Z</time>
      </trkpt>
      <trkpt lat="47.91956" lon="6.94969">
        <ele>665.5</ele>
        <time>2019-09-17T11:15:24Z</time>
      </trkpt>
      <trkpt lat="47.91957" lon="6.94977">
        <ele>665.9</ele>
        <time>2019-09-17T11:15:26Z</time>
      </trkpt>
      <trkpt lat="47.91957" lon="6.94983">
        <ele>665.7</ele>
        <time>2019-09-17T11:15:28Z</time>
      </trkpt>
      <trkpt lat="47.91956" lon="6.94989">
        <ele>664.6</ele>
        <time>2019-09-17T11:15:30Z</time>
      </trkpt>
      <trkpt lat="47.91956" lon="6.94993">
        <ele>664.4</ele>
        <time>2019-09-17T11:15:32Z</time>
      </trkpt>
      <trkpt lat="47.91954" lon="6.94998">
        <ele>664.3</ele>
        <time>2019-09-17T11:15:35Z</time>
      </trkpt>
      <trkpt lat="47.91952" lon="6.95004">
        <ele>663.1</ele>
        <time>2019-09-17T11:15:38Z</time>
      </trkpt>
      <trkpt lat="47.91952" lon="6.95008">
        <ele>663</ele>
        <time>2019-09-17T11:15:40Z</time>
      </trkpt>
      <trkpt lat="47.91951" lon="6.95013">
        <ele>662.8</ele>
        <time>2019-09-17T11:15:42Z</time>
      </trkpt>
      <trkpt lat="47.91949" lon="6.95018">
        <ele>661.5</ele>
        <time>2019-09-17T11:15:44Z</time>
      </trkpt>
      <trkpt lat="47.91948" lon="6.95023">
        <ele>660.2</ele>
        <time>2019-09-17T11:15:46Z</time>
      </trkpt>
      <trkpt lat="47.91947" lon="6.95026">
        <ele>660</ele>
        <time>2019-09-17T11:15:48Z</time>
      </trkpt>
      <trkpt lat="47.91945" lon="6.95032">
        <ele>659.5</ele>
        <time>2019-09-17T11:15:51Z</time>
      </trkpt>
      <trkpt lat="47.91943" lon="6.95037">
        <ele>658.2</ele>
        <time>2019-09-17T11:15:54Z</time>
      </trkpt>
      <trkpt lat="47.91941" lon="6.95041">
        <ele>656.9</ele>
        <time>2019-09-17T11:15:56Z</time>
      </trkpt>
      <trkpt lat="47.91939" lon="6.95045">
        <ele>656.6</ele>
        <time>2019-09-17T11:15:58Z</time>
      </trkpt>
      <trkpt lat="47.91938" lon="6.9505">
        <ele>655.3</ele>
        <time>2019-09-17T11:16:01Z</time>
      </trkpt>
      <trkpt lat="47.91937" lon="6.95055">
        <ele>655.1</ele>
        <time>2019-09-17T11:16:04Z</time>
      </trkpt>
      <trkpt lat="47.91935" lon="6.9506">
        <ele>653.8</ele>
        <time>2019-09-17T11:16:07Z</time>
      </trkpt>
      <trkpt lat="47.91934" lon="6.95064">
        <ele>653.4</ele>
        <time>2019-09-17T11:16:09Z</time>
      </trkpt>
      <trkpt lat="47.91931" lon="6.95068">
        <ele>652</ele>
        <time>2019-09-17T11:16:11Z</time>
      </trkpt>
      <trkpt lat="47.9193" lon="6.95072">
        <ele>650.7</ele>
        <time>2019-09-17T11:16:13Z</time>
      </trkpt>
      <trkpt lat="47.91929" lon="6.95077">
        <ele>650.3</ele>
        <time>2019-09-17T11:16:16Z</time>
      </trkpt>
      <trkpt lat="47.91928" lon="6.95083">
        <ele>649.4</ele>
        <time>2019-09-17T11:16:19Z</time>
      </trkpt>
      <trkpt lat="47.91928" lon="6.95087">
        <ele>647.8</ele>
        <time>2019-09-17T11:16:21Z</time>
      </trkpt>
      <trkpt lat="47.91927" lon="6.95092">
        <ele>647.3</ele>
        <time>2019-09-17T11:16:23Z</time>
      </trkpt>
      <trkpt lat="47.91927" lon="6.95097">
        <ele>646.7</ele>
        <time>2019-09-17T11:16:26Z</time>
      </trkpt>
      <trkpt lat="47.91927" lon="6.95102">
        <ele>646.2</ele>
        <time>2019-09-17T11:16:29Z</time>
      </trkpt>
      <trkpt lat="47.91927" lon="6.95106">
        <ele>645.6</ele>
        <time>2019-09-17T11:16:33Z</time>
      </trkpt>
      <trkpt lat="47.91928" lon="6.95111">
        <ele>646.2</ele>
        <time>2019-09-17T11:16:36Z</time>
      </trkpt>
      <trkpt lat="47.91926" lon="6.95116">
        <ele>644.5</ele>
        <time>2019-09-17T11:16:41Z</time>
      </trkpt>
      <trkpt lat="47.91927" lon="6.95121">
        <ele>644</ele>
        <time>2019-09-17T11:16:45Z</time>
      </trkpt>
      <trkpt lat="47.91928" lon="6.95125">
        <ele>644.6</ele>
        <time>2019-09-17T11:16:48Z</time>
      </trkpt>
      <trkpt lat="47.91928" lon="6.95129">
        <ele>644.2</ele>
        <time>2019-09-17T11:16:51Z</time>
      </trkpt>
      <trkpt lat="47.91929" lon="6.95133">
        <ele>643.7</ele>
        <time>2019-09-17T11:16:53Z</time>
      </trkpt>
      <trkpt lat="47.91931" lon="6.95137">
        <ele>644.2</ele>
        <time>2019-09-17T11:16:57Z</time>
      </trkpt>
      <trkpt lat="47.91932" lon="6.95141">
        <ele>643.7</ele>
        <time>2019-09-17T11:17:01Z</time>
      </trkpt>
      <trkpt lat="47.91932" lon="6.95146">
        <ele>643.1</ele>
        <time>2019-09-17T11:17:04Z</time>
      </trkpt>
      <trkpt lat="47.91931" lon="6.9515">
        <ele>642.5</ele>
        <time>2019-09-17T11:17:06Z</time>
      </trkpt>
      <trkpt lat="47.91934" lon="6.95153">
        <ele>642.9</ele>
        <time>2019-09-17T11:17:09Z</time>
      </trkpt>
      <trkpt lat="47.91937" lon="6.95155">
        <ele>643.9</ele>
        <time>2019-09-17T11:17:16Z</time>
      </trkpt>
      <trkpt lat="47.9194" lon="6.95158">
        <ele>644.3</ele>
        <time>2019-09-17T11:17:20Z</time>
      </trkpt>
      <trkpt lat="47.9194" lon="6.95163">
        <ele>643.6</ele>
        <time>2019-09-17T11:17:23Z</time>
      </trkpt>
      <trkpt lat="47.9194" lon="6.95168">
        <ele>643</ele>
        <time>2019-09-17T11:17:26Z</time>
      </trkpt>
      <trkpt lat="47.91938" lon="6.95172">
        <ele>641.5</ele>
        <time>2019-09-17T11:17:29Z</time>
      </trkpt>
      <trkpt lat="47.91936" lon="6.95176">
        <ele>640</ele>
        <time>2019-09-17T11:17:32Z</time>
      </trkpt>
      <trkpt lat="47.91934" lon="6.9518">
        <ele>639.5</ele>
        <time>2019-09-17T11:17:34Z</time>
      </trkpt>
      <trkpt lat="47.91933" lon="6.95185">
        <ele>638.2</ele>
        <time>2019-09-17T11:17:36Z</time>
      </trkpt>
      <trkpt lat="47.91932" lon="6.9519">
        <ele>637.7</ele>
        <time>2019-09-17T11:17:38Z</time>
      </trkpt>
      <trkpt lat="47.91929" lon="6.95191">
        <ele>636.4</ele>
        <time>2019-09-17T11:17:42Z</time>
      </trkpt>
      <trkpt lat="47.91926" lon="6.95193">
        <ele>635.5</ele>
        <time>2019-09-17T11:17:46Z</time>
      </trkpt>
      <trkpt lat="47.91925" lon="6.95197">
        <ele>635</ele>
        <time>2019-09-17T11:17:50Z</time>
      </trkpt>
      <trkpt lat="47.91924" lon="6.95202">
        <ele>633.6</ele>
        <time>2019-09-17T11:17:53Z</time>
      </trkpt>
      <trkpt lat="47.91923" lon="6.95207">
        <ele>633.2</ele>
        <time>2019-09-17T11:17:56Z</time>
      </trkpt>
      <trkpt lat="47.91922" lon="6.95211">
        <ele>632.9</ele>
        <time>2019-09-17T11:17:59Z</time>
      </trkpt>
      <trkpt lat="47.91922" lon="6.95216">
        <ele>631.5</ele>
        <time>2019-09-17T11:18:02Z</time>
      </trkpt>
      <trkpt lat="47.91922" lon="6.95221">
        <ele>631</ele>
        <time>2019-09-17T11:18:05Z</time>
      </trkpt>
      <trkpt lat="47.9192" lon="6.95226">
        <ele>630.7</ele>
        <time>2019-09-17T11:18:08Z</time>
      </trkpt>
      <trkpt lat="47.91918" lon="6.95232">
        <ele>629.5</ele>
        <time>2019-09-17T11:18:11Z</time>
      </trkpt>
      <trkpt lat="47.91917" lon="6.95238">
        <ele>628.9</ele>
        <time>2019-09-17T11:18:13Z</time>
      </trkpt>
      <trkpt lat="47.91916" lon="6.95245">
        <ele>627.8</ele>
        <time>2019-09-17T11:18:15Z</time>
      </trkpt>
      <trkpt lat="47.91914" lon="6.9525">
        <ele>627.3</ele>
        <time>2019-09-17T11:18:17Z</time>
      </trkpt>
      <trkpt lat="47.91912" lon="6.95254">
        <ele>626.2</ele>
        <time>2019-09-17T11:18:19Z</time>
      </trkpt>
      <trkpt lat="47.9191" lon="6.95258">
        <ele>626.2</ele>
        <time>2019-09-17T11:18:21Z</time>
      </trkpt>
      <trkpt lat="47.91909" lon="6.95264">
        <ele>625</ele>
        <time>2019-09-17T11:18:24Z</time>
      </trkpt>
      <trkpt lat="47.91909" lon="6.95269">
        <ele>624.6</ele>
        <time>2019-09-17T11:18:27Z</time>
      </trkpt>
      <trkpt lat="47.91908" lon="6.95275">
        <ele>624.2</ele>
        <time>2019-09-17T11:18:30Z</time>
      </trkpt>
      <trkpt lat="47.91908" lon="6.9528">
        <ele>623.4</ele>
        <time>2019-09-17T11:18:33Z</time>
      </trkpt>
      <trkpt lat="47.91908" lon="6.95284">
        <ele>623.4</ele>
        <time>2019-09-17T11:18:36Z</time>
      </trkpt>
      <trkpt lat="47.91907" lon="6.95288">
        <ele>622.4</ele>
        <time>2019-09-17T11:18:38Z</time>
      </trkpt>
      <trkpt lat="47.91907" lon="6.95293">
        <ele>622</ele>
        <time>2019-09-17T11:18:40Z</time>
      </trkpt>
      <trkpt lat="47.91905" lon="6.95296">
        <ele>621.6</ele>
        <time>2019-09-17T11:18:44Z</time>
      </trkpt>
      <trkpt lat="47.91904" lon="6.95301">
        <ele>620.5</ele>
        <time>2019-09-17T11:18:50Z</time>
      </trkpt>
      <trkpt lat="47.91903" lon="6.95305">
        <ele>620.1</ele>
        <time>2019-09-17T11:18:52Z</time>
      </trkpt>
      <trkpt lat="47.91902" lon="6.95309">
        <ele>619.3</ele>
        <time>2019-09-17T11:18:55Z</time>
      </trkpt>
      <trkpt lat="47.91901" lon="6.95313">
        <ele>618.9</ele>
        <time>2019-09-17T11:18:58Z</time>
      </trkpt>
      <trkpt lat="47.91899" lon="6.95318">
        <ele>618.6</ele>
        <time>2019-09-17T11:19:00Z</time>
      </trkpt>
      <trkpt lat="47.91897" lon="6.95323">
        <ele>617.7</ele>
        <time>2019-09-17T11:19:02Z</time>
      </trkpt>
      <trkpt lat="47.91895" lon="6.95327">
        <ele>616.9</ele>
        <time>2019-09-17T11:19:04Z</time>
      </trkpt>
      <trkpt lat="47.91893" lon="6.95331">
        <ele>616.5</ele>
        <time>2019-09-17T11:19:07Z</time>
      </trkpt>
      <trkpt lat="47.91892" lon="6.95335">
        <ele>615.7</ele>
        <time>2019-09-17T11:19:11Z</time>
      </trkpt>
      <trkpt lat="47.91891" lon="6.95338">
        <ele>615.3</ele>
        <time>2019-09-17T11:19:14Z</time>
      </trkpt>
      <trkpt lat="47.91889" lon="6.95342">
        <ele>614.4</ele>
        <time>2019-09-17T11:19:17Z</time>
      </trkpt>
      <trkpt lat="47.91886" lon="6.95347">
        <ele>613.5</ele>
        <time>2019-09-17T11:19:19Z</time>
      </trkpt>
      <trkpt lat="47.91884" lon="6.9535">
        <ele>612.7</ele>
        <time>2019-09-17T11:19:20Z</time>
      </trkpt>
      <trkpt lat="47.91881" lon="6.95353">
        <ele>611.9</ele>
        <time>2019-09-17T11:19:22Z</time>
      </trkpt>
      <trkpt lat="47.91879" lon="6.95357">
        <ele>611.5</ele>
        <time>2019-09-17T11:19:24Z</time>
      </trkpt>
      <trkpt lat="47.91873" lon="6.95363">
        <ele>610.4</ele>
        <time>2019-09-17T11:19:26Z</time>
      </trkpt>
      <trkpt lat="47.91868" lon="6.95368">
        <ele>609.9</ele>
        <time>2019-09-17T11:19:27Z</time>
      </trkpt>
      <trkpt lat="47.91864" lon="6.95371">
        <ele>609.2</ele>
        <time>2019-09-17T11:19:28Z</time>
      </trkpt>
      <trkpt lat="47.91861" lon="6.95373">
        <ele>608.9</ele>
        <time>2019-09-17T11:19:29Z</time>
      </trkpt>
      <trkpt lat="47.91858" lon="6.95375">
        <ele>608.4</ele>
        <time>2019-09-17T11:19:30Z</time>
      </trkpt>
      <trkpt lat="47.91856" lon="6.95378">
        <ele>608.4</ele>
        <time>2019-09-17T11:19:32Z</time>
      </trkpt>
      <trkpt lat="47.91854" lon="6.95382">
        <ele>608</ele>
        <time>2019-09-17T11:19:34Z</time>
      </trkpt>
      <trkpt lat="47.91851" lon="6.95384">
        <ele>607.7</ele>
        <time>2019-09-17T11:19:36Z</time>
      </trkpt>
      <trkpt lat="47.91848" lon="6.95385">
        <ele>607.4</ele>
        <time>2019-09-17T11:19:38Z</time>
      </trkpt>
      <trkpt lat="47.91846" lon="6.95387">
        <ele>607.2</ele>
        <time>2019-09-17T11:19:41Z</time>
      </trkpt>
      <trkpt lat="47.91849" lon="6.95386">
        <ele>607.4</ele>
        <time>2019-09-17T11:19:47Z</time>
      </trkpt>
      <trkpt lat="47.91851" lon="6.95383">
        <ele>607.7</ele>
        <time>2019-09-17T11:19:51Z</time>
      </trkpt>
      <trkpt lat="47.91854" lon="6.95383">
        <ele>608</ele>
        <time>2019-09-17T11:20:01Z</time>
      </trkpt>
      <trkpt lat="47.91857" lon="6.95382">
        <ele>608.2</ele>
        <time>2019-09-17T11:20:06Z</time>
      </trkpt>
      <trkpt lat="47.91857" lon="6.95388">
        <ele>607.9</ele>
        <time>2019-09-17T11:20:09Z</time>
      </trkpt>
      <trkpt lat="47.91855" lon="6.95393">
        <ele>607.6</ele>
        <time>2019-09-17T11:20:11Z</time>
      </trkpt>
      <trkpt lat="47.91854" lon="6.95397">
        <ele>607.4</ele>
        <time>2019-09-17T11:20:13Z</time>
      </trkpt>
      <trkpt lat="47.91855" lon="6.95402">
        <ele>607.3</ele>
        <time>2019-09-17T11:20:22Z</time>
      </trkpt>
      <trkpt lat="47.91857" lon="6.95405">
        <ele>607.3</ele>
        <time>2019-09-17T11:20:25Z</time>
      </trkpt>
      <trkpt lat="47.91861" lon="6.95408">
        <ele>607.4</ele>
        <time>2019-09-17T11:20:35Z</time>
      </trkpt>
      <trkpt lat="47.91864" lon="6.9541">
        <ele>607.4</ele>
        <time>2019-09-17T11:20:38Z</time>
      </trkpt>
      <trkpt lat="47.91867" lon="6.95413">
        <ele>607.5</ele>
        <time>2019-09-17T11:20:44Z</time>
      </trkpt>
      <trkpt lat="47.91867" lon="6.95417">
        <ele>607.2</ele>
        <time>2019-09-17T11:20:47Z</time>
      </trkpt>
      <trkpt lat="47.91866" lon="6.95423">
        <ele>606.4</ele>
        <time>2019-09-17T11:20:50Z</time>
      </trkpt>
      <trkpt lat="47.91866" lon="6.95431">
        <ele>605.7</ele>
        <time>2019-09-17T11:20:52Z</time>
      </trkpt>
      <trkpt lat="47.91866" lon="6.95438">
        <ele>605</ele>
        <time>2019-09-17T11:20:54Z</time>
      </trkpt>
      <trkpt lat="47.91865" lon="6.95444">
        <ele>604.3</ele>
        <time>2019-09-17T11:20:57Z</time>
      </trkpt>
      <trkpt lat="47.91863" lon="6.95448">
        <ele>604.1</ele>
        <time>2019-09-17T11:21:00Z</time>
      </trkpt>
      <trkpt lat="47.91861" lon="6.9545">
        <ele>604.4</ele>
        <time>2019-09-17T11:21:04Z</time>
      </trkpt>
      <trkpt lat="47.91857" lon="6.95449">
        <ele>604.7</ele>
        <time>2019-09-17T11:21:08Z</time>
      </trkpt>
      <trkpt lat="47.91854" lon="6.95449">
        <ele>605</ele>
        <time>2019-09-17T11:21:11Z</time>
      </trkpt>
      <trkpt lat="47.91856" lon="6.9545">
        <ele>604.7</ele>
        <time>2019-09-17T11:21:20Z</time>
      </trkpt>
      <trkpt lat="47.9186" lon="6.95454">
        <ele>604.1</ele>
        <time>2019-09-17T11:21:24Z</time>
      </trkpt>
      <trkpt lat="47.91863" lon="6.95456">
        <ele>603.4</ele>
        <time>2019-09-17T11:21:26Z</time>
      </trkpt>
      <trkpt lat="47.91867" lon="6.95459">
        <ele>603.1</ele>
        <time>2019-09-17T11:21:28Z</time>
      </trkpt>
      <trkpt lat="47.9187" lon="6.95463">
        <ele>602.1</ele>
        <time>2019-09-17T11:21:30Z</time>
      </trkpt>
      <trkpt lat="47.91874" lon="6.95467">
        <ele>601.4</ele>
        <time>2019-09-17T11:21:32Z</time>
      </trkpt>
      <trkpt lat="47.91877" lon="6.95472">
        <ele>600.7</ele>
        <time>2019-09-17T11:21:34Z</time>
      </trkpt>
      <trkpt lat="47.91879" lon="6.95479">
        <ele>599.6</ele>
        <time>2019-09-17T11:21:36Z</time>
      </trkpt>
      <trkpt lat="47.91881" lon="6.95483">
        <ele>599.4</ele>
        <time>2019-09-17T11:21:38Z</time>
      </trkpt>
      <trkpt lat="47.91883" lon="6.95487">
        <ele>598.7</ele>
        <time>2019-09-17T11:21:40Z</time>
      </trkpt>
      <trkpt lat="47.91886" lon="6.95491">
        <ele>598.1</ele>
        <time>2019-09-17T11:21:43Z</time>
      </trkpt>
      <trkpt lat="47.91888" lon="6.95494">
        <ele>597.6</ele>
        <time>2019-09-17T11:21:45Z</time>
      </trkpt>
      <trkpt lat="47.9189" lon="6.95499">
        <ele>597.1</ele>
        <time>2019-09-17T11:21:48Z</time>
      </trkpt>
      <trkpt lat="47.91891" lon="6.95504">
        <ele>596.5</ele>
        <time>2019-09-17T11:21:51Z</time>
      </trkpt>
      <trkpt lat="47.91893" lon="6.95508">
        <ele>596</ele>
        <time>2019-09-17T11:21:54Z</time>
      </trkpt>
      <trkpt lat="47.91896" lon="6.95512">
        <ele>595.4</ele>
        <time>2019-09-17T11:21:58Z</time>
      </trkpt>
      <trkpt lat="47.91897" lon="6.95516">
        <ele>594.9</ele>
        <time>2019-09-17T11:22:01Z</time>
      </trkpt>
      <trkpt lat="47.919" lon="6.9552">
        <ele>594.3</ele>
        <time>2019-09-17T11:22:04Z</time>
      </trkpt>
      <trkpt lat="47.91903" lon="6.95524">
        <ele>593.8</ele>
        <time>2019-09-17T11:22:07Z</time>
      </trkpt>
      <trkpt lat="47.91905" lon="6.95526">
        <ele>593.5</ele>
        <time>2019-09-17T11:22:10Z</time>
      </trkpt>
      <trkpt lat="47.91907" lon="6.9553">
        <ele>593.1</ele>
        <time>2019-09-17T11:22:12Z</time>
      </trkpt>
      <trkpt lat="47.9191" lon="6.95534">
        <ele>592.8</ele>
        <time>2019-09-17T11:22:15Z</time>
      </trkpt>
      <trkpt lat="47.91912" lon="6.95539">
        <ele>592.4</ele>
        <time>2019-09-17T11:22:18Z</time>
      </trkpt>
      <trkpt lat="47.91915" lon="6.95542">
        <ele>592.2</ele>
        <time>2019-09-17T11:22:20Z</time>
      </trkpt>
      <trkpt lat="47.91919" lon="6.95547">
        <ele>592</ele>
        <time>2019-09-17T11:22:22Z</time>
      </trkpt>
      <trkpt lat="47.91922" lon="6.9555">
        <ele>591.8</ele>
        <time>2019-09-17T11:22:24Z</time>
      </trkpt>
      <trkpt lat="47.91925" lon="6.95553">
        <ele>591.7</ele>
        <time>2019-09-17T11:22:26Z</time>
      </trkpt>
      <trkpt lat="47.91927" lon="6.95555">
        <ele>591.6</ele>
        <time>2019-09-17T11:22:28Z</time>
      </trkpt>
      <trkpt lat="47.91929" lon="6.95558">
        <ele>591.5</ele>
        <time>2019-09-17T11:22:30Z</time>
      </trkpt>
      <trkpt lat="47.91932" lon="6.9556">
        <ele>591.4</ele>
        <time>2019-09-17T11:22:34Z</time>
      </trkpt>
      <trkpt lat="47.91935" lon="6.95564">
        <ele>591.3</ele>
        <time>2019-09-17T11:22:38Z</time>
      </trkpt>
      <trkpt lat="47.91937" lon="6.95567">
        <ele>591.2</ele>
        <time>2019-09-17T11:22:41Z</time>
      </trkpt>
      <trkpt lat="47.9194" lon="6.9557">
        <ele>591.2</ele>
        <time>2019-09-17T11:22:44Z</time>
      </trkpt>
      <trkpt lat="47.91942" lon="6.95575">
        <ele>591.1</ele>
        <time>2019-09-17T11:22:47Z</time>
      </trkpt>
      <trkpt lat="47.91944" lon="6.95579">
        <ele>591</ele>
        <time>2019-09-17T11:22:49Z</time>
      </trkpt>
      <trkpt lat="47.91947" lon="6.95584">
        <ele>590.8</ele>
        <time>2019-09-17T11:22:51Z</time>
      </trkpt>
      <trkpt lat="47.91949" lon="6.95588">
        <ele>590.7</ele>
        <time>2019-09-17T11:22:53Z</time>
      </trkpt>
      <trkpt lat="47.91951" lon="6.95593">
        <ele>590.6</ele>
        <time>2019-09-17T11:22:56Z</time>
      </trkpt>
      <trkpt lat="47.91953" lon="6.95596">
        <ele>590.4</ele>
        <time>2019-09-17T11:22:58Z</time>
      </trkpt>
      <trkpt lat="47.91955" lon="6.95599">
        <ele>590.2</ele>
        <time>2019-09-17T11:23:00Z</time>
      </trkpt>
      <trkpt lat="47.91957" lon="6.95602">
        <ele>590</ele>
        <time>2019-09-17T11:23:02Z</time>
      </trkpt>
      <trkpt lat="47.91958" lon="6.95606">
        <ele>589.8</ele>
        <time>2019-09-17T11:23:04Z</time>
      </trkpt>
      <trkpt lat="47.9196" lon="6.9561">
        <ele>589.6</ele>
        <time>2019-09-17T11:23:06Z</time>
      </trkpt>
      <trkpt lat="47.91962" lon="6.95618">
        <ele>589.2</ele>
        <time>2019-09-17T11:23:08Z</time>
      </trkpt>
      <trkpt lat="47.91963" lon="6.95623">
        <ele>588.9</ele>
        <time>2019-09-17T11:23:10Z</time>
      </trkpt>
      <trkpt lat="47.91964" lon="6.95627">
        <ele>588.6</ele>
        <time>2019-09-17T11:23:12Z</time>
      </trkpt>
      <trkpt lat="47.91965" lon="6.95632">
        <ele>588.2</ele>
        <time>2019-09-17T11:23:14Z</time>
      </trkpt>
      <trkpt lat="47.91967" lon="6.95637">
        <ele>587.7</ele>
        <time>2019-09-17T11:23:17Z</time>
      </trkpt>
      <trkpt lat="47.91968" lon="6.95643">
        <ele>587.1</ele>
        <time>2019-09-17T11:23:20Z</time>
      </trkpt>
      <trkpt lat="47.91968" lon="6.95648">
        <ele>586.6</ele>
        <time>2019-09-17T11:23:22Z</time>
      </trkpt>
      <trkpt lat="47.91968" lon="6.95654">
        <ele>586</ele>
        <time>2019-09-17T11:23:24Z</time>
      </trkpt>
      <trkpt lat="47.91968" lon="6.95658">
        <ele>585.3</ele>
        <time>2019-09-17T11:23:27Z</time>
      </trkpt>
      <trkpt lat="47.91966" lon="6.95661">
        <ele>584.7</ele>
        <time>2019-09-17T11:23:30Z</time>
      </trkpt>
      <trkpt lat="47.91964" lon="6.95664">
        <ele>583.9</ele>
        <time>2019-09-17T11:23:33Z</time>
      </trkpt>
      <trkpt lat="47.91964" lon="6.9567">
        <ele>583.1</ele>
        <time>2019-09-17T11:23:35Z</time>
      </trkpt>
      <trkpt lat="47.91965" lon="6.95674">
        <ele>582.3</ele>
        <time>2019-09-17T11:23:37Z</time>
      </trkpt>
      <trkpt lat="47.91966" lon="6.95678">
        <ele>581.5</ele>
        <time>2019-09-17T11:23:40Z</time>
      </trkpt>
      <trkpt lat="47.91967" lon="6.95682">
        <ele>580.8</ele>
        <time>2019-09-17T11:23:44Z</time>
      </trkpt>
      <trkpt lat="47.9197" lon="6.95682">
        <ele>579.9</ele>
        <time>2019-09-17T11:23:50Z</time>
      </trkpt>
      <trkpt lat="47.91975" lon="6.95681">
        <ele>578.6</ele>
        <time>2019-09-17T11:23:52Z</time>
      </trkpt>
      <trkpt lat="47.91978" lon="6.95685">
        <ele>577.4</ele>
        <time>2019-09-17T11:23:54Z</time>
      </trkpt>
      <trkpt lat="47.91978" lon="6.95689">
        <ele>576.5</ele>
        <time>2019-09-17T11:23:57Z</time>
      </trkpt>
      <trkpt lat="47.91978" lon="6.95694">
        <ele>575.6</ele>
        <time>2019-09-17T11:24:01Z</time>
      </trkpt>
      <trkpt lat="47.91977" lon="6.95698">
        <ele>574.7</ele>
        <time>2019-09-17T11:24:04Z</time>
      </trkpt>
      <trkpt lat="47.91977" lon="6.95703">
        <ele>573.7</ele>
        <time>2019-09-17T11:24:06Z</time>
      </trkpt>
      <trkpt lat="47.91977" lon="6.95707">
        <ele>572.9</ele>
        <time>2019-09-17T11:24:11Z</time>
      </trkpt>
      <trkpt lat="47.91977" lon="6.95712">
        <ele>572.2</ele>
        <time>2019-09-17T11:24:15Z</time>
      </trkpt>
      <trkpt lat="47.91978" lon="6.95716">
        <ele>571.5</ele>
        <time>2019-09-17T11:24:17Z</time>
      </trkpt>
      <trkpt lat="47.91979" lon="6.9572">
        <ele>570.7</ele>
        <time>2019-09-17T11:24:20Z</time>
      </trkpt>
      <trkpt lat="47.91983" lon="6.95724">
        <ele>569.4</ele>
        <time>2019-09-17T11:24:30Z</time>
      </trkpt>
      <trkpt lat="47.91985" lon="6.95727">
        <ele>568.4</ele>
        <time>2019-09-17T11:24:34Z</time>
      </trkpt>
      <trkpt lat="47.91988" lon="6.95729">
        <ele>567.6</ele>
        <time>2019-09-17T11:24:36Z</time>
      </trkpt>
      <trkpt lat="47.91989" lon="6.95734">
        <ele>566.7</ele>
        <time>2019-09-17T11:24:38Z</time>
      </trkpt>
      <trkpt lat="47.9199" lon="6.95738">
        <ele>566</ele>
        <time>2019-09-17T11:24:40Z</time>
      </trkpt>
      <trkpt lat="47.91992" lon="6.95742">
        <ele>565.3</ele>
        <time>2019-09-17T11:24:42Z</time>
      </trkpt>
      <trkpt lat="47.91994" lon="6.95745">
        <ele>564.6</ele>
        <time>2019-09-17T11:24:43Z</time>
      </trkpt>
      <trkpt lat="47.91996" lon="6.95749">
        <ele>563.9</ele>
        <time>2019-09-17T11:24:44Z</time>
      </trkpt>
      <trkpt lat="47.91999" lon="6.95756">
        <ele>562.7</ele>
        <time>2019-09-17T11:24:46Z</time>
      </trkpt>
      <trkpt lat="47.92001" lon="6.95761">
        <ele>561.7</ele>
        <time>2019-09-17T11:24:48Z</time>
      </trkpt>
      <trkpt lat="47.92002" lon="6.95765">
        <ele>561</ele>
        <time>2019-09-17T11:24:51Z</time>
      </trkpt>
      <trkpt lat="47.92003" lon="6.9577">
        <ele>560.2</ele>
        <time>2019-09-17T11:24:56Z</time>
      </trkpt>
      <trkpt lat="47.92003" lon="6.95775">
        <ele>559.5</ele>
        <time>2019-09-17T11:24:59Z</time>
      </trkpt>
      <trkpt lat="47.92003" lon="6.95779">
        <ele>558.8</ele>
        <time>2019-09-17T11:25:02Z</time>
      </trkpt>
      <trkpt lat="47.92003" lon="6.95783">
        <ele>558.3</ele>
        <time>2019-09-17T11:25:04Z</time>
      </trkpt>
      <trkpt lat="47.92003" lon="6.95788">
        <ele>557.7</ele>
        <time>2019-09-17T11:25:06Z</time>
      </trkpt>
      <trkpt lat="47.92004" lon="6.95792">
        <ele>557.1</ele>
        <time>2019-09-17T11:25:08Z</time>
      </trkpt>
      <trkpt lat="47.92005" lon="6.95796">
        <ele>556.5</ele>
        <time>2019-09-17T11:25:10Z</time>
      </trkpt>
      <trkpt lat="47.92007" lon="6.95801">
        <ele>555.9</ele>
        <time>2019-09-17T11:25:15Z</time>
      </trkpt>
      <trkpt lat="47.9201" lon="6.95805">
        <ele>555.1</ele>
        <time>2019-09-17T11:25:18Z</time>
      </trkpt>
      <trkpt lat="47.92012" lon="6.95808">
        <ele>554.1</ele>
        <time>2019-09-17T11:25:20Z</time>
      </trkpt>
      <trkpt lat="47.92014" lon="6.95814">
        <ele>553.2</ele>
        <time>2019-09-17T11:25:23Z</time>
      </trkpt>
      <trkpt lat="47.92016" lon="6.95818">
        <ele>552.5</ele>
        <time>2019-09-17T11:25:25Z</time>
      </trkpt>
      <trkpt lat="47.92017" lon="6.95822">
        <ele>551.8</ele>
        <time>2019-09-17T11:25:27Z</time>
      </trkpt>
      <trkpt lat="47.92016" lon="6.95826">
        <ele>551.2</ele>
        <time>2019-09-17T11:25:31Z</time>
      </trkpt>
      <trkpt lat="47.92016" lon="6.95831">
        <ele>550.5</ele>
        <time>2019-09-17T11:25:35Z</time>
      </trkpt>
      <trkpt lat="47.92017" lon="6.95835">
        <ele>549.8</ele>
        <time>2019-09-17T11:25:38Z</time>
      </trkpt>
      <trkpt lat="47.92018" lon="6.95839">
        <ele>549.4</ele>
        <time>2019-09-17T11:25:42Z</time>
      </trkpt>
      <trkpt lat="47.9202" lon="6.95844">
        <ele>548.8</ele>
        <time>2019-09-17T11:25:46Z</time>
      </trkpt>
      <trkpt lat="47.92021" lon="6.95848">
        <ele>548.2</ele>
        <time>2019-09-17T11:25:48Z</time>
      </trkpt>
      <trkpt lat="47.92022" lon="6.95852">
        <ele>547.7</ele>
        <time>2019-09-17T11:25:50Z</time>
      </trkpt>
      <trkpt lat="47.92023" lon="6.95856">
        <ele>547.1</ele>
        <time>2019-09-17T11:25:52Z</time>
      </trkpt>
      <trkpt lat="47.92024" lon="6.95861">
        <ele>546.3</ele>
        <time>2019-09-17T11:25:54Z</time>
      </trkpt>
      <trkpt lat="47.92024" lon="6.95865">
        <ele>545.3</ele>
        <time>2019-09-17T11:25:56Z</time>
      </trkpt>
      <trkpt lat="47.92024" lon="6.95871">
        <ele>544</ele>
        <time>2019-09-17T11:25:58Z</time>
      </trkpt>
      <trkpt lat="47.92023" lon="6.95876">
        <ele>543.1</ele>
        <time>2019-09-17T11:26:00Z</time>
      </trkpt>
      <trkpt lat="47.92023" lon="6.95881">
        <ele>542.6</ele>
        <time>2019-09-17T11:26:02Z</time>
      </trkpt>
      <trkpt lat="47.92025" lon="6.95886">
        <ele>541.8</ele>
        <time>2019-09-17T11:26:05Z</time>
      </trkpt>
      <trkpt lat="47.92026" lon="6.95891">
        <ele>541</ele>
        <time>2019-09-17T11:26:08Z</time>
      </trkpt>
      <trkpt lat="47.92026" lon="6.95895">
        <ele>540.2</ele>
        <time>2019-09-17T11:26:11Z</time>
      </trkpt>
      <trkpt lat="47.92026" lon="6.95899">
        <ele>539.5</ele>
        <time>2019-09-17T11:26:13Z</time>
      </trkpt>
      <trkpt lat="47.92027" lon="6.95903">
        <ele>538.8</ele>
        <time>2019-09-17T11:26:18Z</time>
      </trkpt>
      <trkpt lat="47.9203" lon="6.95906">
        <ele>538</ele>
        <time>2019-09-17T11:26:21Z</time>
      </trkpt>
      <trkpt lat="47.92032" lon="6.95905">
        <ele>537.2</ele>
        <time>2019-09-17T11:26:25Z</time>
      </trkpt>
      <trkpt lat="47.92035" lon="6.95907">
        <ele>536.5</ele>
        <time>2019-09-17T11:26:29Z</time>
      </trkpt>
      <trkpt lat="47.92037" lon="6.95912">
        <ele>535.7</ele>
        <time>2019-09-17T11:26:32Z</time>
      </trkpt>
      <trkpt lat="47.92039" lon="6.95916">
        <ele>535</ele>
        <time>2019-09-17T11:26:34Z</time>
      </trkpt>
      <trkpt lat="47.9204" lon="6.9592">
        <ele>534</ele>
        <time>2019-09-17T11:26:37Z</time>
      </trkpt>
      <trkpt lat="47.92042" lon="6.95924">
        <ele>533.2</ele>
        <time>2019-09-17T11:26:39Z</time>
      </trkpt>
      <trkpt lat="47.92044" lon="6.95929">
        <ele>532</ele>
        <time>2019-09-17T11:26:41Z</time>
      </trkpt>
      <trkpt lat="47.92045" lon="6.95934">
        <ele>531.1</ele>
        <time>2019-09-17T11:26:45Z</time>
      </trkpt>
      <trkpt lat="47.92044" lon="6.95939">
        <ele>530.2</ele>
        <time>2019-09-17T11:26:47Z</time>
      </trkpt>
      <trkpt lat="47.92045" lon="6.95944">
        <ele>529.2</ele>
        <time>2019-09-17T11:26:49Z</time>
      </trkpt>
      <trkpt lat="47.92045" lon="6.95949">
        <ele>528.5</ele>
        <time>2019-09-17T11:26:53Z</time>
      </trkpt>
      <trkpt lat="47.92048" lon="6.95951">
        <ele>527.8</ele>
        <time>2019-09-17T11:26:59Z</time>
      </trkpt>
      <trkpt lat="47.92052" lon="6.95952">
        <ele>526.9</ele>
        <time>2019-09-17T11:27:03Z</time>
      </trkpt>
      <trkpt lat="47.92054" lon="6.95954">
        <ele>525.9</ele>
        <time>2019-09-17T11:27:06Z</time>
      </trkpt>
      <trkpt lat="47.92056" lon="6.95957">
        <ele>524.9</ele>
        <time>2019-09-17T11:27:14Z</time>
      </trkpt>
      <trkpt lat="47.92057" lon="6.9596">
        <ele>523.9</ele>
        <time>2019-09-17T11:27:20Z</time>
      </trkpt>
      <trkpt lat="47.92059" lon="6.95963">
        <ele>523.1</ele>
        <time>2019-09-17T11:27:24Z</time>
      </trkpt>
      <trkpt lat="47.92062" lon="6.95968">
        <ele>522</ele>
        <time>2019-09-17T11:27:28Z</time>
      </trkpt>
      <trkpt lat="47.92062" lon="6.95972">
        <ele>521.3</ele>
        <time>2019-09-17T11:27:30Z</time>
      </trkpt>
      <trkpt lat="47.92064" lon="6.95975">
        <ele>520.4</ele>
        <time>2019-09-17T11:27:34Z</time>
      </trkpt>
      <trkpt lat="47.92066" lon="6.95977">
        <ele>519.6</ele>
        <time>2019-09-17T11:27:37Z</time>
      </trkpt>
      <trkpt lat="47.92068" lon="6.95981">
        <ele>518.8</ele>
        <time>2019-09-17T11:27:39Z</time>
      </trkpt>
      <trkpt lat="47.9207" lon="6.95985">
        <ele>518.1</ele>
        <time>2019-09-17T11:27:42Z</time>
      </trkpt>
      <trkpt lat="47.92073" lon="6.95993">
        <ele>516.9</ele>
        <time>2019-09-17T11:27:44Z</time>
      </trkpt>
      <trkpt lat="47.92075" lon="6.95997">
        <ele>516.2</ele>
        <time>2019-09-17T11:27:45Z</time>
      </trkpt>
      <trkpt lat="47.92076" lon="6.96003">
        <ele>515.2</ele>
        <time>2019-09-17T11:27:47Z</time>
      </trkpt>
      <trkpt lat="47.92077" lon="6.96007">
        <ele>514.5</ele>
        <time>2019-09-17T11:27:49Z</time>
      </trkpt>
      <trkpt lat="47.92077" lon="6.96013">
        <ele>513.4</ele>
        <time>2019-09-17T11:27:52Z</time>
      </trkpt>
      <trkpt lat="47.92077" lon="6.96017">
        <ele>512.4</ele>
        <time>2019-09-17T11:27:54Z</time>
      </trkpt>
      <trkpt lat="47.92077" lon="6.96021">
        <ele>511.6</ele>
        <time>2019-09-17T11:27:56Z</time>
      </trkpt>
      <trkpt lat="47.92077" lon="6.96025">
        <ele>510.8</ele>
        <time>2019-09-17T11:27:58Z</time>
      </trkpt>
      <trkpt lat="47.92076" lon="6.96029">
        <ele>510.1</ele>
        <time>2019-09-17T11:28:00Z</time>
      </trkpt>
      <trkpt lat="47.92076" lon="6.96033">
        <ele>509.3</ele>
        <time>2019-09-17T11:28:06Z</time>
      </trkpt>
      <trkpt lat="47.92078" lon="6.96037">
        <ele>508.8</ele>
        <time>2019-09-17T11:28:12Z</time>
      </trkpt>
      <trkpt lat="47.92081" lon="6.96039">
        <ele>508.3</ele>
        <time>2019-09-17T11:28:15Z</time>
      </trkpt>
      <trkpt lat="47.92085" lon="6.96039">
        <ele>507.7</ele>
        <time>2019-09-17T11:28:18Z</time>
      </trkpt>
      <trkpt lat="47.92089" lon="6.96039">
        <ele>506.6</ele>
        <time>2019-09-17T11:28:21Z</time>
      </trkpt>
      <trkpt lat="47.92092" lon="6.96039">
        <ele>505.7</ele>
        <time>2019-09-17T11:28:23Z</time>
      </trkpt>
      <trkpt lat="47.92096" lon="6.96038">
        <ele>504.5</ele>
        <time>2019-09-17T11:28:25Z</time>
      </trkpt>
      <trkpt lat="47.92099" lon="6.96038">
        <ele>503.9</ele>
        <time>2019-09-17T11:28:28Z</time>
      </trkpt>
      <trkpt lat="47.92104" lon="6.96037">
        <ele>502.8</ele>
        <time>2019-09-17T11:28:31Z</time>
      </trkpt>
      <trkpt lat="47.92108" lon="6.96036">
        <ele>502.1</ele>
        <time>2019-09-17T11:28:33Z</time>
      </trkpt>
      <trkpt lat="47.92111" lon="6.96034">
        <ele>501.6</ele>
        <time>2019-09-17T11:28:35Z</time>
      </trkpt>
      <trkpt lat="47.92115" lon="6.96033">
        <ele>501</ele>
        <time>2019-09-17T11:28:37Z</time>
      </trkpt>
      <trkpt lat="47.92119" lon="6.96031">
        <ele>500.4</ele>
        <time>2019-09-17T11:28:39Z</time>
      </trkpt>
      <trkpt lat="47.92122" lon="6.9603">
        <ele>500</ele>
        <time>2019-09-17T11:28:41Z</time>
      </trkpt>
      <trkpt lat="47.92124" lon="6.96029">
        <ele>499.7</ele>
        <time>2019-09-17T11:28:43Z</time>
      </trkpt>
      <trkpt lat="47.92128" lon="6.96027">
        <ele>499.4</ele>
        <time>2019-09-17T11:28:46Z</time>
      </trkpt>
      <trkpt lat="47.92132" lon="6.96026">
        <ele>499.1</ele>
        <time>2019-09-17T11:28:49Z</time>
      </trkpt>
      <trkpt lat="47.92135" lon="6.96027">
        <ele>498.8</ele>
        <time>2019-09-17T11:28:52Z</time>
      </trkpt>
      <trkpt lat="47.92139" lon="6.96027">
        <ele>498.5</ele>
        <time>2019-09-17T11:28:55Z</time>
      </trkpt>
      <trkpt lat="47.92143" lon="6.96027">
        <ele>498.1</ele>
        <time>2019-09-17T11:28:58Z</time>
      </trkpt>
      <trkpt lat="47.92146" lon="6.96025">
        <ele>497.9</ele>
        <time>2019-09-17T11:29:00Z</time>
      </trkpt>
      <trkpt lat="47.92149" lon="6.96024">
        <ele>497.6</ele>
        <time>2019-09-17T11:29:02Z</time>
      </trkpt>
      <trkpt lat="47.92152" lon="6.96022">
        <ele>497.3</ele>
        <time>2019-09-17T11:29:04Z</time>
      </trkpt>
      <trkpt lat="47.92156" lon="6.9602">
        <ele>497</ele>
        <time>2019-09-17T11:29:06Z</time>
      </trkpt>
      <trkpt lat="47.92159" lon="6.9602">
        <ele>496.8</ele>
        <time>2019-09-17T11:29:08Z</time>
      </trkpt>
      <trkpt lat="47.92162" lon="6.96018">
        <ele>496.2</ele>
        <time>2019-09-17T11:29:11Z</time>
      </trkpt>
      <trkpt lat="47.92165" lon="6.96018">
        <ele>495.7</ele>
        <time>2019-09-17T11:29:14Z</time>
      </trkpt>
      <trkpt lat="47.92169" lon="6.96016">
        <ele>495</ele>
        <time>2019-09-17T11:29:17Z</time>
      </trkpt>
      <trkpt lat="47.92173" lon="6.96017">
        <ele>494.7</ele>
        <time>2019-09-17T11:29:20Z</time>
      </trkpt>
      <trkpt lat="47.92176" lon="6.96017">
        <ele>494.4</ele>
        <time>2019-09-17T11:29:22Z</time>
      </trkpt>
      <trkpt lat="47.9218" lon="6.96017">
        <ele>494.1</ele>
        <time>2019-09-17T11:29:24Z</time>
      </trkpt>
      <trkpt lat="47.92185" lon="6.96019">
        <ele>493.7</ele>
        <time>2019-09-17T11:29:26Z</time>
      </trkpt>
      <trkpt lat="47.92188" lon="6.9602">
        <ele>493.5</ele>
        <time>2019-09-17T11:29:27Z</time>
      </trkpt>
      <trkpt lat="47.92192" lon="6.96022">
        <ele>493.5</ele>
        <time>2019-09-17T11:29:29Z</time>
      </trkpt>
      <trkpt lat="47.92196" lon="6.9602">
        <ele>493.5</ele>
        <time>2019-09-17T11:29:32Z</time>
      </trkpt>
      <trkpt lat="47.92197" lon="6.96024">
        <ele>493.5</ele>
        <time>2019-09-17T11:29:35Z</time>
      </trkpt>
      <trkpt lat="47.92198" lon="6.96029">
        <ele>493.2</ele>
        <time>2019-09-17T11:29:37Z</time>
      </trkpt>
      <trkpt lat="47.92202" lon="6.96035">
        <ele>492.6</ele>
        <time>2019-09-17T11:29:39Z</time>
      </trkpt>
      <trkpt lat="47.92204" lon="6.96039">
        <ele>492.3</ele>
        <time>2019-09-17T11:29:40Z</time>
      </trkpt>
      <trkpt lat="47.92206" lon="6.96044">
        <ele>491.9</ele>
        <time>2019-09-17T11:29:41Z</time>
      </trkpt>
      <trkpt lat="47.92206" lon="6.96047">
        <ele>491.7</ele>
        <time>2019-09-17T11:29:42Z</time>
      </trkpt>
      <trkpt lat="47.92206" lon="6.96052">
        <ele>491.5</ele>
        <time>2019-09-17T11:29:45Z</time>
      </trkpt>
      <trkpt lat="47.92206" lon="6.96058">
        <ele>491.1</ele>
        <time>2019-09-17T11:29:49Z</time>
      </trkpt>
      <trkpt lat="47.92206" lon="6.96066">
        <ele>490.7</ele>
        <time>2019-09-17T11:29:51Z</time>
      </trkpt>
      <trkpt lat="47.92206" lon="6.96071">
        <ele>490.4</ele>
        <time>2019-09-17T11:29:53Z</time>
      </trkpt>
      <trkpt lat="47.92207" lon="6.96077">
        <ele>490.1</ele>
        <time>2019-09-17T11:29:56Z</time>
      </trkpt>
      <trkpt lat="47.92207" lon="6.96081">
        <ele>489.9</ele>
        <time>2019-09-17T11:29:58Z</time>
      </trkpt>
      <trkpt lat="47.92208" lon="6.96087">
        <ele>489.6</ele>
        <time>2019-09-17T11:30:01Z</time>
      </trkpt>
      <trkpt lat="47.92209" lon="6.96094">
        <ele>489.3</ele>
        <time>2019-09-17T11:30:03Z</time>
      </trkpt>
      <trkpt lat="47.92209" lon="6.961">
        <ele>489</ele>
        <time>2019-09-17T11:30:05Z</time>
      </trkpt>
      <trkpt lat="47.92209" lon="6.96104">
        <ele>488.8</ele>
        <time>2019-09-17T11:30:07Z</time>
      </trkpt>
      <trkpt lat="47.92209" lon="6.96109">
        <ele>488.6</ele>
        <time>2019-09-17T11:30:09Z</time>
      </trkpt>
      <trkpt lat="47.92208" lon="6.96114">
        <ele>488.3</ele>
        <time>2019-09-17T11:30:11Z</time>
      </trkpt>
      <trkpt lat="47.92207" lon="6.96119">
        <ele>488</ele>
        <time>2019-09-17T11:30:13Z</time>
      </trkpt>
      <trkpt lat="47.92207" lon="6.96126">
        <ele>487.8</ele>
        <time>2019-09-17T11:30:15Z</time>
      </trkpt>
      <trkpt lat="47.92207" lon="6.96131">
        <ele>487.5</ele>
        <time>2019-09-17T11:30:17Z</time>
      </trkpt>
      <trkpt lat="47.92207" lon="6.96136">
        <ele>487.3</ele>
        <time>2019-09-17T11:30:19Z</time>
      </trkpt>
      <trkpt lat="47.92207" lon="6.96141">
        <ele>487</ele>
        <time>2019-09-17T11:30:22Z</time>
      </trkpt>
      <trkpt lat="47.92207" lon="6.96147">
        <ele>486.8</ele>
        <time>2019-09-17T11:30:25Z</time>
      </trkpt>
      <trkpt lat="47.92207" lon="6.96153">
        <ele>486.5</ele>
        <time>2019-09-17T11:30:28Z</time>
      </trkpt>
      <trkpt lat="47.92206" lon="6.96158">
        <ele>486.3</ele>
        <time>2019-09-17T11:30:31Z</time>
      </trkpt>
      <trkpt lat="47.92205" lon="6.96163">
        <ele>486</ele>
        <time>2019-09-17T11:30:34Z</time>
      </trkpt>
      <trkpt lat="47.92204" lon="6.96169">
        <ele>485.8</ele>
        <time>2019-09-17T11:30:37Z</time>
      </trkpt>
      <trkpt lat="47.92204" lon="6.96173">
        <ele>485.5</ele>
        <time>2019-09-17T11:30:39Z</time>
      </trkpt>
      <trkpt lat="47.92204" lon="6.96178">
        <ele>485.1</ele>
        <time>2019-09-17T11:30:42Z</time>
      </trkpt>
      <trkpt lat="47.92205" lon="6.96185">
        <ele>484.7</ele>
        <time>2019-09-17T11:30:45Z</time>
      </trkpt>
      <trkpt lat="47.92206" lon="6.9619">
        <ele>484.4</ele>
        <time>2019-09-17T11:30:47Z</time>
      </trkpt>
      <trkpt lat="47.92207" lon="6.96194">
        <ele>484.2</ele>
        <time>2019-09-17T11:30:49Z</time>
      </trkpt>
      <trkpt lat="47.92207" lon="6.96198">
        <ele>484</ele>
        <time>2019-09-17T11:30:51Z</time>
      </trkpt>
      <trkpt lat="47.92207" lon="6.96203">
        <ele>483.8</ele>
        <time>2019-09-17T11:30:53Z</time>
      </trkpt>
      <trkpt lat="47.92206" lon="6.96207">
        <ele>483.6</ele>
        <time>2019-09-17T11:30:55Z</time>
      </trkpt>
      <trkpt lat="47.92206" lon="6.96212">
        <ele>483.4</ele>
        <time>2019-09-17T11:30:57Z</time>
      </trkpt>
      <trkpt lat="47.92206" lon="6.96217">
        <ele>483.2</ele>
        <time>2019-09-17T11:30:59Z</time>
      </trkpt>
      <trkpt lat="47.92206" lon="6.96222">
        <ele>483</ele>
        <time>2019-09-17T11:31:01Z</time>
      </trkpt>
      <trkpt lat="47.92206" lon="6.96228">
        <ele>482.7</ele>
        <time>2019-09-17T11:31:04Z</time>
      </trkpt>
      <trkpt lat="47.92205" lon="6.96234">
        <ele>482.4</ele>
        <time>2019-09-17T11:31:07Z</time>
      </trkpt>
      <trkpt lat="47.92205" lon="6.96239">
        <ele>482.1</ele>
        <time>2019-09-17T11:31:09Z</time>
      </trkpt>
      <trkpt lat="47.92205" lon="6.96244">
        <ele>481.9</ele>
        <time>2019-09-17T11:31:11Z</time>
      </trkpt>
      <trkpt lat="47.92204" lon="6.96249">
        <ele>481.6</ele>
        <time>2019-09-17T11:31:13Z</time>
      </trkpt>
      <trkpt lat="47.92204" lon="6.96254">
        <ele>481.4</ele>
        <time>2019-09-17T11:31:15Z</time>
      </trkpt>
      <trkpt lat="47.92203" lon="6.96258">
        <ele>481.1</ele>
        <time>2019-09-17T11:31:17Z</time>
      </trkpt>
      <trkpt lat="47.92202" lon="6.96262">
        <ele>480.9</ele>
        <time>2019-09-17T11:31:19Z</time>
      </trkpt>
      <trkpt lat="47.92201" lon="6.96266">
        <ele>480.7</ele>
        <time>2019-09-17T11:31:21Z</time>
      </trkpt>
      <trkpt lat="47.922" lon="6.96271">
        <ele>480.5</ele>
        <time>2019-09-17T11:31:23Z</time>
      </trkpt>
      <trkpt lat="47.922" lon="6.96275">
        <ele>480.3</ele>
        <time>2019-09-17T11:31:25Z</time>
      </trkpt>
      <trkpt lat="47.92199" lon="6.96279">
        <ele>480.1</ele>
        <time>2019-09-17T11:31:27Z</time>
      </trkpt>
      <trkpt lat="47.92197" lon="6.96284">
        <ele>479.9</ele>
        <time>2019-09-17T11:31:29Z</time>
      </trkpt>
      <trkpt lat="47.92195" lon="6.96289">
        <ele>479.6</ele>
        <time>2019-09-17T11:31:31Z</time>
      </trkpt>
      <trkpt lat="47.92193" lon="6.96294">
        <ele>479.4</ele>
        <time>2019-09-17T11:31:33Z</time>
      </trkpt>
      <trkpt lat="47.92191" lon="6.96298">
        <ele>479.2</ele>
        <time>2019-09-17T11:31:35Z</time>
      </trkpt>
      <trkpt lat="47.92189" lon="6.96302">
        <ele>479</ele>
        <time>2019-09-17T11:31:37Z</time>
      </trkpt>
      <trkpt lat="47.92187" lon="6.96305">
        <ele>478.8</ele>
        <time>2019-09-17T11:31:39Z</time>
      </trkpt>
      <trkpt lat="47.92185" lon="6.96308">
        <ele>478.6</ele>
        <time>2019-09-17T11:31:41Z</time>
      </trkpt>
      <trkpt lat="47.92181" lon="6.9631">
        <ele>478.4</ele>
        <time>2019-09-17T11:31:44Z</time>
      </trkpt>
      <trkpt lat="47.92178" lon="6.96313">
        <ele>478.2</ele>
        <time>2019-09-17T11:31:46Z</time>
      </trkpt>
      <trkpt lat="47.92174" lon="6.96315">
        <ele>477.9</ele>
        <time>2019-09-17T11:31:48Z</time>
      </trkpt>
      <trkpt lat="47.92171" lon="6.96318">
        <ele>477.5</ele>
        <time>2019-09-17T11:31:50Z</time>
      </trkpt>
      <trkpt lat="47.92168" lon="6.96321">
        <ele>477.3</ele>
        <time>2019-09-17T11:31:52Z</time>
      </trkpt>
      <trkpt lat="47.92165" lon="6.96324">
        <ele>477.1</ele>
        <time>2019-09-17T11:31:54Z</time>
      </trkpt>
      <trkpt lat="47.92163" lon="6.96327">
        <ele>476.9</ele>
        <time>2019-09-17T11:31:56Z</time>
      </trkpt>
      <trkpt lat="47.9216" lon="6.9633">
        <ele>476.7</ele>
        <time>2019-09-17T11:31:59Z</time>
      </trkpt>
      <trkpt lat="47.92158" lon="6.96334">
        <ele>476.5</ele>
        <time>2019-09-17T11:32:02Z</time>
      </trkpt>
      <trkpt lat="47.92156" lon="6.96337">
        <ele>476.4</ele>
        <time>2019-09-17T11:32:04Z</time>
      </trkpt>
      <trkpt lat="47.92153" lon="6.96341">
        <ele>476.2</ele>
        <time>2019-09-17T11:32:07Z</time>
      </trkpt>
      <trkpt lat="47.92151" lon="6.96344">
        <ele>475.9</ele>
        <time>2019-09-17T11:32:09Z</time>
      </trkpt>
      <trkpt lat="47.92148" lon="6.96347">
        <ele>475.7</ele>
        <time>2019-09-17T11:32:11Z</time>
      </trkpt>
      <trkpt lat="47.92145" lon="6.96351">
        <ele>475.4</ele>
        <time>2019-09-17T11:32:14Z</time>
      </trkpt>
      <trkpt lat="47.92142" lon="6.96355">
        <ele>475.1</ele>
        <time>2019-09-17T11:32:17Z</time>
      </trkpt>
      <trkpt lat="47.9214" lon="6.96359">
        <ele>474.7</ele>
        <time>2019-09-17T11:32:20Z</time>
      </trkpt>
      <trkpt lat="47.92138" lon="6.96363">
        <ele>474.4</ele>
        <time>2019-09-17T11:32:22Z</time>
      </trkpt>
      <trkpt lat="47.92137" lon="6.96366">
        <ele>474.3</ele>
        <time>2019-09-17T11:32:24Z</time>
      </trkpt>
      <trkpt lat="47.92135" lon="6.9637">
        <ele>474.1</ele>
        <time>2019-09-17T11:32:27Z</time>
      </trkpt>
      <trkpt lat="47.92133" lon="6.96375">
        <ele>473.8</ele>
        <time>2019-09-17T11:32:30Z</time>
      </trkpt>
      <trkpt lat="47.9213" lon="6.9638">
        <ele>473.6</ele>
        <time>2019-09-17T11:32:33Z</time>
      </trkpt>
      <trkpt lat="47.92128" lon="6.96383">
        <ele>473.4</ele>
        <time>2019-09-17T11:32:35Z</time>
      </trkpt>
      <trkpt lat="47.92127" lon="6.96387">
        <ele>473.1</ele>
        <time>2019-09-17T11:32:37Z</time>
      </trkpt>
      <trkpt lat="47.92125" lon="6.9639">
        <ele>472.9</ele>
        <time>2019-09-17T11:32:39Z</time>
      </trkpt>
      <trkpt lat="47.92123" lon="6.96395">
        <ele>472.5</ele>
        <time>2019-09-17T11:32:42Z</time>
      </trkpt>
      <trkpt lat="47.9212" lon="6.96399">
        <ele>472.1</ele>
        <time>2019-09-17T11:32:45Z</time>
      </trkpt>
      <trkpt lat="47.92119" lon="6.96403">
        <ele>471.8</ele>
        <time>2019-09-17T11:32:47Z</time>
      </trkpt>
      <trkpt lat="47.92116" lon="6.96407">
        <ele>471.4</ele>
        <time>2019-09-17T11:32:50Z</time>
      </trkpt>
      <trkpt lat="47.92114" lon="6.96411">
        <ele>471</ele>
        <time>2019-09-17T11:32:53Z</time>
      </trkpt>
      <trkpt lat="47.92111" lon="6.96415">
        <ele>470.8</ele>
        <time>2019-09-17T11:32:56Z</time>
      </trkpt>
      <trkpt lat="47.92108" lon="6.96418">
        <ele>470.5</ele>
        <time>2019-09-17T11:32:58Z</time>
      </trkpt>
      <trkpt lat="47.92104" lon="6.9642">
        <ele>470.2</ele>
        <time>2019-09-17T11:33:00Z</time>
      </trkpt>
      <trkpt lat="47.92101" lon="6.96423">
        <ele>470</ele>
        <time>2019-09-17T11:33:02Z</time>
      </trkpt>
      <trkpt lat="47.92098" lon="6.96426">
        <ele>470</ele>
        <time>2019-09-17T11:33:04Z</time>
      </trkpt>
      <trkpt lat="47.92095" lon="6.96428">
        <ele>470</ele>
        <time>2019-09-17T11:33:06Z</time>
      </trkpt>
      <trkpt lat="47.92093" lon="6.9643">
        <ele>470</ele>
        <time>2019-09-17T11:33:08Z</time>
      </trkpt>
      <trkpt lat="47.9209" lon="6.96432">
        <ele>470</ele>
        <time>2019-09-17T11:33:10Z</time>
      </trkpt>
      <trkpt lat="47.92087" lon="6.96434">
        <ele>469.9</ele>
        <time>2019-09-17T11:33:13Z</time>
      </trkpt>
      <trkpt lat="47.92085" lon="6.96436">
        <ele>469.9</ele>
        <time>2019-09-17T11:33:15Z</time>
      </trkpt>
      <trkpt lat="47.92082" lon="6.96439">
        <ele>469.9</ele>
        <time>2019-09-17T11:33:18Z</time>
      </trkpt>
      <trkpt lat="47.92079" lon="6.96441">
        <ele>469.9</ele>
        <time>2019-09-17T11:33:21Z</time>
      </trkpt>
      <trkpt lat="47.92074" lon="6.96442">
        <ele>469.8</ele>
        <time>2019-09-17T11:33:24Z</time>
      </trkpt>
      <trkpt lat="47.92071" lon="6.96442">
        <ele>469.8</ele>
        <time>2019-09-17T11:33:26Z</time>
      </trkpt>
      <trkpt lat="47.92067" lon="6.96444">
        <ele>469.7</ele>
        <time>2019-09-17T11:33:28Z</time>
      </trkpt>
      <trkpt lat="47.92064" lon="6.96444">
        <ele>469.7</ele>
        <time>2019-09-17T11:33:30Z</time>
      </trkpt>
      <trkpt lat="47.92061" lon="6.96444">
        <ele>469.7</ele>
        <time>2019-09-17T11:33:32Z</time>
      </trkpt>
      <trkpt lat="47.92057" lon="6.96445">
        <ele>469.7</ele>
        <time>2019-09-17T11:33:34Z</time>
      </trkpt>
      <trkpt lat="47.92052" lon="6.96445">
        <ele>469.7</ele>
        <time>2019-09-17T11:33:36Z</time>
      </trkpt>
      <trkpt lat="47.92049" lon="6.96446">
        <ele>469.7</ele>
        <time>2019-09-17T11:33:40Z</time>
      </trkpt>
      <trkpt lat="47.92046" lon="6.96448">
        <ele>469.7</ele>
        <time>2019-09-17T11:33:42Z</time>
      </trkpt>
      <trkpt lat="47.92043" lon="6.96448">
        <ele>469.7</ele>
        <time>2019-09-17T11:33:45Z</time>
      </trkpt>
      <trkpt lat="47.92041" lon="6.96449">
        <ele>469.7</ele>
        <time>2019-09-17T11:33:47Z</time>
      </trkpt>
      <trkpt lat="47.92037" lon="6.96451">
        <ele>469.7</ele>
        <time>2019-09-17T11:33:50Z</time>
      </trkpt>
      <trkpt lat="47.92035" lon="6.96453">
        <ele>469.6</ele>
        <time>2019-09-17T11:33:53Z</time>
      </trkpt>
      <trkpt lat="47.92032" lon="6.96457">
        <ele>469.6</ele>
        <time>2019-09-17T11:33:55Z</time>
      </trkpt>
      <trkpt lat="47.92028" lon="6.96461">
        <ele>469.6</ele>
        <time>2019-09-17T11:33:57Z</time>
      </trkpt>
      <trkpt lat="47.92025" lon="6.96465">
        <ele>469.6</ele>
        <time>2019-09-17T11:33:59Z</time>
      </trkpt>
      <trkpt lat="47.92023" lon="6.96468">
        <ele>469.6</ele>
        <time>2019-09-17T11:34:01Z</time>
      </trkpt>
      <trkpt lat="47.92021" lon="6.96471">
        <ele>469.6</ele>
        <time>2019-09-17T11:34:03Z</time>
      </trkpt>
      <trkpt lat="47.92018" lon="6.96473">
        <ele>469.5</ele>
        <time>2019-09-17T11:34:05Z</time>
      </trkpt>
      <trkpt lat="47.92015" lon="6.96476">
        <ele>469.5</ele>
        <time>2019-09-17T11:34:07Z</time>
      </trkpt>
      <trkpt lat="47.92012" lon="6.96478">
        <ele>469.5</ele>
        <time>2019-09-17T11:34:09Z</time>
      </trkpt>
      <trkpt lat="47.9201" lon="6.96481">
        <ele>469.5</ele>
        <time>2019-09-17T11:34:11Z</time>
      </trkpt>
      <trkpt lat="47.92007" lon="6.96484">
        <ele>469.4</ele>
        <time>2019-09-17T11:34:13Z</time>
      </trkpt>
      <trkpt lat="47.92004" lon="6.96486">
        <ele>469.4</ele>
        <time>2019-09-17T11:34:15Z</time>
      </trkpt>
      <trkpt lat="47.92002" lon="6.96488">
        <ele>469.4</ele>
        <time>2019-09-17T11:34:17Z</time>
      </trkpt>
      <trkpt lat="47.91999" lon="6.9649">
        <ele>469.4</ele>
        <time>2019-09-17T11:34:19Z</time>
      </trkpt>
      <trkpt lat="47.91997" lon="6.96492">
        <ele>469.3</ele>
        <time>2019-09-17T11:34:21Z</time>
      </trkpt>
      <trkpt lat="47.91994" lon="6.96495">
        <ele>469.3</ele>
        <time>2019-09-17T11:34:23Z</time>
      </trkpt>
      <trkpt lat="47.91991" lon="6.96497">
        <ele>469.2</ele>
        <time>2019-09-17T11:34:25Z</time>
      </trkpt>
      <trkpt lat="47.91988" lon="6.96499">
        <ele>469.2</ele>
        <time>2019-09-17T11:34:27Z</time>
      </trkpt>
      <trkpt lat="47.91985" lon="6.96501">
        <ele>469.1</ele>
        <time>2019-09-17T11:34:29Z</time>
      </trkpt>
      <trkpt lat="47.91983" lon="6.96503">
        <ele>469.1</ele>
        <time>2019-09-17T11:34:31Z</time>
      </trkpt>
      <trkpt lat="47.9198" lon="6.96506">
        <ele>469</ele>
        <time>2019-09-17T11:34:34Z</time>
      </trkpt>
      <trkpt lat="47.91976" lon="6.96508">
        <ele>468.9</ele>
        <time>2019-09-17T11:34:37Z</time>
      </trkpt>
      <trkpt lat="47.91974" lon="6.9651">
        <ele>468.9</ele>
        <time>2019-09-17T11:34:39Z</time>
      </trkpt>
      <trkpt lat="47.91971" lon="6.96512">
        <ele>468.8</ele>
        <time>2019-09-17T11:34:41Z</time>
      </trkpt>
      <trkpt lat="47.91968" lon="6.96514">
        <ele>468.8</ele>
        <time>2019-09-17T11:34:43Z</time>
      </trkpt>
      <trkpt lat="47.91965" lon="6.96518">
        <ele>468.7</ele>
        <time>2019-09-17T11:34:46Z</time>
      </trkpt>
      <trkpt lat="47.91961" lon="6.96521">
        <ele>468.6</ele>
        <time>2019-09-17T11:34:49Z</time>
      </trkpt>
      <trkpt lat="47.91958" lon="6.96523">
        <ele>468.6</ele>
        <time>2019-09-17T11:34:51Z</time>
      </trkpt>
      <trkpt lat="47.91955" lon="6.96523">
        <ele>468.5</ele>
        <time>2019-09-17T11:34:53Z</time>
      </trkpt>
      <trkpt lat="47.91951" lon="6.96525">
        <ele>468.4</ele>
        <time>2019-09-17T11:34:56Z</time>
      </trkpt>
      <trkpt lat="47.91947" lon="6.96527">
        <ele>468.4</ele>
        <time>2019-09-17T11:34:59Z</time>
      </trkpt>
      <trkpt lat="47.91945" lon="6.9653">
        <ele>468.3</ele>
        <time>2019-09-17T11:35:01Z</time>
      </trkpt>
      <trkpt lat="47.91942" lon="6.96533">
        <ele>468.2</ele>
        <time>2019-09-17T11:35:04Z</time>
      </trkpt>
      <trkpt lat="47.91939" lon="6.96535">
        <ele>468.2</ele>
        <time>2019-09-17T11:35:06Z</time>
      </trkpt>
      <trkpt lat="47.91936" lon="6.96536">
        <ele>468.1</ele>
        <time>2019-09-17T11:35:08Z</time>
      </trkpt>
      <trkpt lat="47.91933" lon="6.96537">
        <ele>468.1</ele>
        <time>2019-09-17T11:35:10Z</time>
      </trkpt>
      <trkpt lat="47.9193" lon="6.9654">
        <ele>468</ele>
        <time>2019-09-17T11:35:12Z</time>
      </trkpt>
      <trkpt lat="47.91927" lon="6.96542">
        <ele>467.9</ele>
        <time>2019-09-17T11:35:14Z</time>
      </trkpt>
      <trkpt lat="47.91924" lon="6.96546">
        <ele>467.9</ele>
        <time>2019-09-17T11:35:17Z</time>
      </trkpt>
      <trkpt lat="47.91921" lon="6.96548">
        <ele>467.8</ele>
        <time>2019-09-17T11:35:19Z</time>
      </trkpt>
      <trkpt lat="47.91918" lon="6.96551">
        <ele>467.8</ele>
        <time>2019-09-17T11:35:21Z</time>
      </trkpt>
      <trkpt lat="47.91915" lon="6.96554">
        <ele>467.7</ele>
        <time>2019-09-17T11:35:23Z</time>
      </trkpt>
      <trkpt lat="47.91913" lon="6.96556">
        <ele>467.7</ele>
        <time>2019-09-17T11:35:25Z</time>
      </trkpt>
      <trkpt lat="47.91911" lon="6.96559">
        <ele>467.7</ele>
        <time>2019-09-17T11:35:27Z</time>
      </trkpt>
      <trkpt lat="47.91908" lon="6.96562">
        <ele>467.6</ele>
        <time>2019-09-17T11:35:30Z</time>
      </trkpt>
      <trkpt lat="47.91905" lon="6.96566">
        <ele>467.7</ele>
        <time>2019-09-17T11:35:33Z</time>
      </trkpt>
      <trkpt lat="47.91903" lon="6.96569">
        <ele>467.7</ele>
        <time>2019-09-17T11:35:35Z</time>
      </trkpt>
      <trkpt lat="47.91901" lon="6.96571">
        <ele>467.7</ele>
        <time>2019-09-17T11:35:37Z</time>
      </trkpt>
      <trkpt lat="47.91898" lon="6.96574">
        <ele>467.7</ele>
        <time>2019-09-17T11:35:39Z</time>
      </trkpt>
      <trkpt lat="47.91895" lon="6.96577">
        <ele>467.7</ele>
        <time>2019-09-17T11:35:41Z</time>
      </trkpt>
      <trkpt lat="47.91893" lon="6.96579">
        <ele>467.7</ele>
        <time>2019-09-17T11:35:43Z</time>
      </trkpt>
      <trkpt lat="47.9189" lon="6.96582">
        <ele>467.8</ele>
        <time>2019-09-17T11:35:46Z</time>
      </trkpt>
      <trkpt lat="47.91887" lon="6.96586">
        <ele>467.8</ele>
        <time>2019-09-17T11:35:49Z</time>
      </trkpt>
      <trkpt lat="47.91885" lon="6.9659">
        <ele>467.8</ele>
        <time>2019-09-17T11:35:51Z</time>
      </trkpt>
      <trkpt lat="47.91884" lon="6.96595">
        <ele>467.7</ele>
        <time>2019-09-17T11:35:54Z</time>
      </trkpt>
      <trkpt lat="47.91883" lon="6.96599">
        <ele>467.7</ele>
        <time>2019-09-17T11:35:56Z</time>
      </trkpt>
      <trkpt lat="47.91883" lon="6.96604">
        <ele>467.6</ele>
        <time>2019-09-17T11:35:58Z</time>
      </trkpt>
      <trkpt lat="47.91882" lon="6.96608">
        <ele>467.6</ele>
        <time>2019-09-17T11:36:00Z</time>
      </trkpt>
      <trkpt lat="47.9188" lon="6.96613">
        <ele>467.5</ele>
        <time>2019-09-17T11:36:03Z</time>
      </trkpt>
      <trkpt lat="47.91879" lon="6.96617">
        <ele>467.5</ele>
        <time>2019-09-17T11:36:06Z</time>
      </trkpt>
      <trkpt lat="47.91877" lon="6.96623">
        <ele>467.4</ele>
        <time>2019-09-17T11:36:09Z</time>
      </trkpt>
      <trkpt lat="47.91877" lon="6.96627">
        <ele>467.4</ele>
        <time>2019-09-17T11:36:11Z</time>
      </trkpt>
      <trkpt lat="47.91876" lon="6.96631">
        <ele>467.3</ele>
        <time>2019-09-17T11:36:13Z</time>
      </trkpt>
      <trkpt lat="47.91876" lon="6.96635">
        <ele>467.3</ele>
        <time>2019-09-17T11:36:15Z</time>
      </trkpt>
      <trkpt lat="47.91875" lon="6.96639">
        <ele>467.2</ele>
        <time>2019-09-17T11:36:17Z</time>
      </trkpt>
      <trkpt lat="47.91876" lon="6.96644">
        <ele>467.1</ele>
        <time>2019-09-17T11:36:19Z</time>
      </trkpt>
      <trkpt lat="47.91875" lon="6.96648">
        <ele>467</ele>
        <time>2019-09-17T11:36:21Z</time>
      </trkpt>
      <trkpt lat="47.91874" lon="6.96654">
        <ele>467</ele>
        <time>2019-09-17T11:36:24Z</time>
      </trkpt>
      <trkpt lat="47.91871" lon="6.96658">
        <ele>466.9</ele>
        <time>2019-09-17T11:36:27Z</time>
      </trkpt>
      <trkpt lat="47.91869" lon="6.96663">
        <ele>466.8</ele>
        <time>2019-09-17T11:36:30Z</time>
      </trkpt>
      <trkpt lat="47.91866" lon="6.96666">
        <ele>466.8</ele>
        <time>2019-09-17T11:36:32Z</time>
      </trkpt>
      <trkpt lat="47.91863" lon="6.96669">
        <ele>466.7</ele>
        <time>2019-09-17T11:36:34Z</time>
      </trkpt>
      <trkpt lat="47.91861" lon="6.96672">
        <ele>466.7</ele>
        <time>2019-09-17T11:36:36Z</time>
      </trkpt>
      <trkpt lat="47.91858" lon="6.96675">
        <ele>466.7</ele>
        <time>2019-09-17T11:36:38Z</time>
      </trkpt>
      <trkpt lat="47.91856" lon="6.96679">
        <ele>466.7</ele>
        <time>2019-09-17T11:36:41Z</time>
      </trkpt>
      <trkpt lat="47.91853" lon="6.96682">
        <ele>466.6</ele>
        <time>2019-09-17T11:36:43Z</time>
      </trkpt>
      <trkpt lat="47.91851" lon="6.96685">
        <ele>466.6</ele>
        <time>2019-09-17T11:36:45Z</time>
      </trkpt>
      <trkpt lat="47.91848" lon="6.96688">
        <ele>466.6</ele>
        <time>2019-09-17T11:36:47Z</time>
      </trkpt>
      <trkpt lat="47.91846" lon="6.96691">
        <ele>466.6</ele>
        <time>2019-09-17T11:36:49Z</time>
      </trkpt>
      <trkpt lat="47.91844" lon="6.96695">
        <ele>466.5</ele>
        <time>2019-09-17T11:36:51Z</time>
      </trkpt>
      <trkpt lat="47.91842" lon="6.96698">
        <ele>466.5</ele>
        <time>2019-09-17T11:36:53Z</time>
      </trkpt>
      <trkpt lat="47.9184" lon="6.96703">
        <ele>466.4</ele>
        <time>2019-09-17T11:36:56Z</time>
      </trkpt>
      <trkpt lat="47.91839" lon="6.96707">
        <ele>466.4</ele>
        <time>2019-09-17T11:36:58Z</time>
      </trkpt>
      <trkpt lat="47.91837" lon="6.9671">
        <ele>466.3</ele>
        <time>2019-09-17T11:37:00Z</time>
      </trkpt>
      <trkpt lat="47.91836" lon="6.96714">
        <ele>466.3</ele>
        <time>2019-09-17T11:37:02Z</time>
      </trkpt>
      <trkpt lat="47.91834" lon="6.96717">
        <ele>466.2</ele>
        <time>2019-09-17T11:37:04Z</time>
      </trkpt>
      <trkpt lat="47.91832" lon="6.96721">
        <ele>466.2</ele>
        <time>2019-09-17T11:37:06Z</time>
      </trkpt>
      <trkpt lat="47.91831" lon="6.96727">
        <ele>466.1</ele>
        <time>2019-09-17T11:37:09Z</time>
      </trkpt>
      <trkpt lat="47.9183" lon="6.96731">
        <ele>466.1</ele>
        <time>2019-09-17T11:37:11Z</time>
      </trkpt>
      <trkpt lat="47.91829" lon="6.96735">
        <ele>466</ele>
        <time>2019-09-17T11:37:13Z</time>
      </trkpt>
      <trkpt lat="47.91826" lon="6.96739">
        <ele>466</ele>
        <time>2019-09-17T11:37:16Z</time>
      </trkpt>
      <trkpt lat="47.91824" lon="6.96744">
        <ele>465.9</ele>
        <time>2019-09-17T11:37:19Z</time>
      </trkpt>
      <trkpt lat="47.91821" lon="6.96749">
        <ele>465.9</ele>
        <time>2019-09-17T11:37:21Z</time>
      </trkpt>
      <trkpt lat="47.91819" lon="6.96753">
        <ele>465.9</ele>
        <time>2019-09-17T11:37:23Z</time>
      </trkpt>
      <trkpt lat="47.91817" lon="6.96758">
        <ele>465.8</ele>
        <time>2019-09-17T11:37:26Z</time>
      </trkpt>
      <trkpt lat="47.91815" lon="6.96762">
        <ele>465.8</ele>
        <time>2019-09-17T11:37:28Z</time>
      </trkpt>
      <trkpt lat="47.91813" lon="6.96766">
        <ele>465.8</ele>
        <time>2019-09-17T11:37:30Z</time>
      </trkpt>
      <trkpt lat="47.91812" lon="6.9677">
        <ele>465.8</ele>
        <time>2019-09-17T11:37:32Z</time>
      </trkpt>
      <trkpt lat="47.9181" lon="6.96774">
        <ele>465.8</ele>
        <time>2019-09-17T11:37:34Z</time>
      </trkpt>
      <trkpt lat="47.91809" lon="6.96778">
        <ele>465.8</ele>
        <time>2019-09-17T11:37:36Z</time>
      </trkpt>
      <trkpt lat="47.91808" lon="6.96782">
        <ele>465.8</ele>
        <time>2019-09-17T11:37:38Z</time>
      </trkpt>
      <trkpt lat="47.91806" lon="6.96787">
        <ele>465.8</ele>
        <time>2019-09-17T11:37:41Z</time>
      </trkpt>
      <trkpt lat="47.91804" lon="6.96792">
        <ele>465.9</ele>
        <time>2019-09-17T11:37:44Z</time>
      </trkpt>
      <trkpt lat="47.91803" lon="6.96796">
        <ele>465.9</ele>
        <time>2019-09-17T11:37:46Z</time>
      </trkpt>
      <trkpt lat="47.91802" lon="6.96801">
        <ele>465.9</ele>
        <time>2019-09-17T11:37:48Z</time>
      </trkpt>
      <trkpt lat="47.918" lon="6.96805">
        <ele>465.9</ele>
        <time>2019-09-17T11:37:50Z</time>
      </trkpt>
      <trkpt lat="47.91799" lon="6.9681">
        <ele>465.9</ele>
        <time>2019-09-17T11:37:52Z</time>
      </trkpt>
      <trkpt lat="47.91797" lon="6.96814">
        <ele>465.8</ele>
        <time>2019-09-17T11:37:54Z</time>
      </trkpt>
      <trkpt lat="47.91795" lon="6.96817">
        <ele>465.8</ele>
        <time>2019-09-17T11:37:56Z</time>
      </trkpt>
      <trkpt lat="47.91792" lon="6.96821">
        <ele>465.7</ele>
        <time>2019-09-17T11:37:59Z</time>
      </trkpt>
      <trkpt lat="47.9179" lon="6.96826">
        <ele>465.7</ele>
        <time>2019-09-17T11:38:02Z</time>
      </trkpt>
      <trkpt lat="47.91788" lon="6.9683">
        <ele>465.6</ele>
        <time>2019-09-17T11:38:05Z</time>
      </trkpt>
      <trkpt lat="47.91787" lon="6.96835">
        <ele>465.5</ele>
        <time>2019-09-17T11:38:08Z</time>
      </trkpt>
      <trkpt lat="47.91785" lon="6.96838">
        <ele>465.5</ele>
        <time>2019-09-17T11:38:10Z</time>
      </trkpt>
      <trkpt lat="47.91783" lon="6.96842">
        <ele>465.4</ele>
        <time>2019-09-17T11:38:12Z</time>
      </trkpt>
      <trkpt lat="47.91781" lon="6.96846">
        <ele>465.4</ele>
        <time>2019-09-17T11:38:14Z</time>
      </trkpt>
      <trkpt lat="47.91779" lon="6.9685">
        <ele>465.3</ele>
        <time>2019-09-17T11:38:16Z</time>
      </trkpt>
      <trkpt lat="47.91778" lon="6.96854">
        <ele>465.3</ele>
        <time>2019-09-17T11:38:18Z</time>
      </trkpt>
      <trkpt lat="47.91775" lon="6.96858">
        <ele>465.3</ele>
        <time>2019-09-17T11:38:21Z</time>
      </trkpt>
      <trkpt lat="47.91773" lon="6.96863">
        <ele>465.3</ele>
        <time>2019-09-17T11:38:24Z</time>
      </trkpt>
      <trkpt lat="47.91772" lon="6.96866">
        <ele>465.3</ele>
        <time>2019-09-17T11:38:26Z</time>
      </trkpt>
      <trkpt lat="47.91769" lon="6.96868">
        <ele>465.3</ele>
        <time>2019-09-17T11:38:29Z</time>
      </trkpt>
      <trkpt lat="47.91766" lon="6.9687">
        <ele>465.3</ele>
        <time>2019-09-17T11:38:38Z</time>
      </trkpt>
      <trkpt lat="47.91765" lon="6.96875">
        <ele>465.2</ele>
        <time>2019-09-17T11:38:41Z</time>
      </trkpt>
      <trkpt lat="47.91764" lon="6.96879">
        <ele>465.2</ele>
        <time>2019-09-17T11:38:43Z</time>
      </trkpt>
      <trkpt lat="47.91763" lon="6.96884">
        <ele>465.2</ele>
        <time>2019-09-17T11:38:45Z</time>
      </trkpt>
      <trkpt lat="47.91763" lon="6.96888">
        <ele>465.2</ele>
        <time>2019-09-17T11:38:47Z</time>
      </trkpt>
      <trkpt lat="47.91762" lon="6.96893">
        <ele>465.1</ele>
        <time>2019-09-17T11:38:49Z</time>
      </trkpt>
      <trkpt lat="47.9176" lon="6.96897">
        <ele>465.1</ele>
        <time>2019-09-17T11:38:51Z</time>
      </trkpt>
      <trkpt lat="47.91759" lon="6.96901">
        <ele>465</ele>
        <time>2019-09-17T11:38:53Z</time>
      </trkpt>
      <trkpt lat="47.91757" lon="6.96906">
        <ele>465</ele>
        <time>2019-09-17T11:38:56Z</time>
      </trkpt>
      <trkpt lat="47.91756" lon="6.9691">
        <ele>464.9</ele>
        <time>2019-09-17T11:38:58Z</time>
      </trkpt>
      <trkpt lat="47.91755" lon="6.96914">
        <ele>464.8</ele>
        <time>2019-09-17T11:39:00Z</time>
      </trkpt>
      <trkpt lat="47.91754" lon="6.96918">
        <ele>464.8</ele>
        <time>2019-09-17T11:39:02Z</time>
      </trkpt>
      <trkpt lat="47.91752" lon="6.96922">
        <ele>464.7</ele>
        <time>2019-09-17T11:39:04Z</time>
      </trkpt>
      <trkpt lat="47.9175" lon="6.96926">
        <ele>464.6</ele>
        <time>2019-09-17T11:39:06Z</time>
      </trkpt>
      <trkpt lat="47.91749" lon="6.9693">
        <ele>464.5</ele>
        <time>2019-09-17T11:39:08Z</time>
      </trkpt>
      <trkpt lat="47.91747" lon="6.96935">
        <ele>464.4</ele>
        <time>2019-09-17T11:39:11Z</time>
      </trkpt>
      <trkpt lat="47.91744" lon="6.96938">
        <ele>464.4</ele>
        <time>2019-09-17T11:39:13Z</time>
      </trkpt>
      <trkpt lat="47.91742" lon="6.96941">
        <ele>464.3</ele>
        <time>2019-09-17T11:39:15Z</time>
      </trkpt>
      <trkpt lat="47.91739" lon="6.96945">
        <ele>464.2</ele>
        <time>2019-09-17T11:39:18Z</time>
      </trkpt>
      <trkpt lat="47.91737" lon="6.9695">
        <ele>464.2</ele>
        <time>2019-09-17T11:39:21Z</time>
      </trkpt>
      <trkpt lat="47.91735" lon="6.96953">
        <ele>464.2</ele>
        <time>2019-09-17T11:39:23Z</time>
      </trkpt>
      <trkpt lat="47.91733" lon="6.96956">
        <ele>464.2</ele>
        <time>2019-09-17T11:39:25Z</time>
      </trkpt>
      <trkpt lat="47.91731" lon="6.9696">
        <ele>464.2</ele>
        <time>2019-09-17T11:39:27Z</time>
      </trkpt>
      <trkpt lat="47.91729" lon="6.96964">
        <ele>464.2</ele>
        <time>2019-09-17T11:39:29Z</time>
      </trkpt>
      <trkpt lat="47.91727" lon="6.96968">
        <ele>464.3</ele>
        <time>2019-09-17T11:39:31Z</time>
      </trkpt>
      <trkpt lat="47.91725" lon="6.96972">
        <ele>464.3</ele>
        <time>2019-09-17T11:39:33Z</time>
      </trkpt>
      <trkpt lat="47.91723" lon="6.96975">
        <ele>464.3</ele>
        <time>2019-09-17T11:39:35Z</time>
      </trkpt>
      <trkpt lat="47.91722" lon="6.96979">
        <ele>464.3</ele>
        <time>2019-09-17T11:39:37Z</time>
      </trkpt>
      <trkpt lat="47.9172" lon="6.96983">
        <ele>464.3</ele>
        <time>2019-09-17T11:39:39Z</time>
      </trkpt>
      <trkpt lat="47.91718" lon="6.96987">
        <ele>464.2</ele>
        <time>2019-09-17T11:39:42Z</time>
      </trkpt>
      <trkpt lat="47.91716" lon="6.96992">
        <ele>464.2</ele>
        <time>2019-09-17T11:39:44Z</time>
      </trkpt>
      <trkpt lat="47.91713" lon="6.96996">
        <ele>464.1</ele>
        <time>2019-09-17T11:39:46Z</time>
      </trkpt>
      <trkpt lat="47.91711" lon="6.96999">
        <ele>464.1</ele>
        <time>2019-09-17T11:39:48Z</time>
      </trkpt>
      <trkpt lat="47.91709" lon="6.97003">
        <ele>464.1</ele>
        <time>2019-09-17T11:39:51Z</time>
      </trkpt>
      <trkpt lat="47.91706" lon="6.97007">
        <ele>464</ele>
        <time>2019-09-17T11:39:54Z</time>
      </trkpt>
      <trkpt lat="47.91704" lon="6.97011">
        <ele>464</ele>
        <time>2019-09-17T11:39:56Z</time>
      </trkpt>
      <trkpt lat="47.91702" lon="6.97015">
        <ele>464</ele>
        <time>2019-09-17T11:39:59Z</time>
      </trkpt>
      <trkpt lat="47.917" lon="6.97019">
        <ele>464</ele>
        <time>2019-09-17T11:40:02Z</time>
      </trkpt>
      <trkpt lat="47.91697" lon="6.97024">
        <ele>463.9</ele>
        <time>2019-09-17T11:40:05Z</time>
      </trkpt>
      <trkpt lat="47.91695" lon="6.97028">
        <ele>463.8</ele>
        <time>2019-09-17T11:40:07Z</time>
      </trkpt>
      <trkpt lat="47.91693" lon="6.97032">
        <ele>463.7</ele>
        <time>2019-09-17T11:40:09Z</time>
      </trkpt>
      <trkpt lat="47.91692" lon="6.97035">
        <ele>463.6</ele>
        <time>2019-09-17T11:40:11Z</time>
      </trkpt>
      <trkpt lat="47.9169" lon="6.97038">
        <ele>463.5</ele>
        <time>2019-09-17T11:40:13Z</time>
      </trkpt>
      <trkpt lat="47.91687" lon="6.97042">
        <ele>463.4</ele>
        <time>2019-09-17T11:40:16Z</time>
      </trkpt>
      <trkpt lat="47.91684" lon="6.97046">
        <ele>463.2</ele>
        <time>2019-09-17T11:40:19Z</time>
      </trkpt>
      <trkpt lat="47.91682" lon="6.97049">
        <ele>463.2</ele>
        <time>2019-09-17T11:40:21Z</time>
      </trkpt>
      <trkpt lat="47.9168" lon="6.97052">
        <ele>463.1</ele>
        <time>2019-09-17T11:40:23Z</time>
      </trkpt>
      <trkpt lat="47.91678" lon="6.97056">
        <ele>463.1</ele>
        <time>2019-09-17T11:40:26Z</time>
      </trkpt>
      <trkpt lat="47.91675" lon="6.9706">
        <ele>463.1</ele>
        <time>2019-09-17T11:40:29Z</time>
      </trkpt>
      <trkpt lat="47.91673" lon="6.97065">
        <ele>463.1</ele>
        <time>2019-09-17T11:40:32Z</time>
      </trkpt>
      <trkpt lat="47.91671" lon="6.97068">
        <ele>463.1</ele>
        <time>2019-09-17T11:40:34Z</time>
      </trkpt>
      <trkpt lat="47.91669" lon="6.97071">
        <ele>463.2</ele>
        <time>2019-09-17T11:40:36Z</time>
      </trkpt>
      <trkpt lat="47.91666" lon="6.97075">
        <ele>463.2</ele>
        <time>2019-09-17T11:40:39Z</time>
      </trkpt>
      <trkpt lat="47.91664" lon="6.97078">
        <ele>463.2</ele>
        <time>2019-09-17T11:40:41Z</time>
      </trkpt>
      <trkpt lat="47.91662" lon="6.97082">
        <ele>463.1</ele>
        <time>2019-09-17T11:40:43Z</time>
      </trkpt>
      <trkpt lat="47.9166" lon="6.97087">
        <ele>463.1</ele>
        <time>2019-09-17T11:40:45Z</time>
      </trkpt>
      <trkpt lat="47.91659" lon="6.97091">
        <ele>463.1</ele>
        <time>2019-09-17T11:40:47Z</time>
      </trkpt>
      <trkpt lat="47.91657" lon="6.97095">
        <ele>463.1</ele>
        <time>2019-09-17T11:40:49Z</time>
      </trkpt>
      <trkpt lat="47.91655" lon="6.97099">
        <ele>463.1</ele>
        <time>2019-09-17T11:40:52Z</time>
      </trkpt>
      <trkpt lat="47.91653" lon="6.97104">
        <ele>463.1</ele>
        <time>2019-09-17T11:40:55Z</time>
      </trkpt>
      <trkpt lat="47.91652" lon="6.97108">
        <ele>463.1</ele>
        <time>2019-09-17T11:40:57Z</time>
      </trkpt>
      <trkpt lat="47.91649" lon="6.97113">
        <ele>463</ele>
        <time>2019-09-17T11:41:00Z</time>
      </trkpt>
      <trkpt lat="47.91648" lon="6.97117">
        <ele>463</ele>
        <time>2019-09-17T11:41:02Z</time>
      </trkpt>
      <trkpt lat="47.91646" lon="6.97121">
        <ele>463</ele>
        <time>2019-09-17T11:41:04Z</time>
      </trkpt>
      <trkpt lat="47.91644" lon="6.97124">
        <ele>463</ele>
        <time>2019-09-17T11:41:06Z</time>
      </trkpt>
      <trkpt lat="47.91642" lon="6.97127">
        <ele>463</ele>
        <time>2019-09-17T11:41:08Z</time>
      </trkpt>
      <trkpt lat="47.91639" lon="6.97132">
        <ele>463</ele>
        <time>2019-09-17T11:41:11Z</time>
      </trkpt>
      <trkpt lat="47.91637" lon="6.97137">
        <ele>463</ele>
        <time>2019-09-17T11:41:14Z</time>
      </trkpt>
      <trkpt lat="47.91635" lon="6.97141">
        <ele>463</ele>
        <time>2019-09-17T11:41:16Z</time>
      </trkpt>
      <trkpt lat="47.91633" lon="6.97144">
        <ele>463</ele>
        <time>2019-09-17T11:41:18Z</time>
      </trkpt>
      <trkpt lat="47.9163" lon="6.97148">
        <ele>463</ele>
        <time>2019-09-17T11:41:21Z</time>
      </trkpt>
      <trkpt lat="47.91627" lon="6.9715">
        <ele>463</ele>
        <time>2019-09-17T11:41:23Z</time>
      </trkpt>
      <trkpt lat="47.91625" lon="6.97152">
        <ele>462.9</ele>
        <time>2019-09-17T11:41:25Z</time>
      </trkpt>
      <trkpt lat="47.91622" lon="6.97154">
        <ele>462.9</ele>
        <time>2019-09-17T11:41:27Z</time>
      </trkpt>
      <trkpt lat="47.91619" lon="6.97155">
        <ele>462.9</ele>
        <time>2019-09-17T11:41:29Z</time>
      </trkpt>
      <trkpt lat="47.91616" lon="6.97156">
        <ele>462.8</ele>
        <time>2019-09-17T11:41:31Z</time>
      </trkpt>
      <trkpt lat="47.91612" lon="6.97157">
        <ele>462.8</ele>
        <time>2019-09-17T11:41:33Z</time>
      </trkpt>
      <trkpt lat="47.91608" lon="6.97158">
        <ele>462.7</ele>
        <time>2019-09-17T11:41:35Z</time>
      </trkpt>
      <trkpt lat="47.91605" lon="6.97159">
        <ele>462.7</ele>
        <time>2019-09-17T11:41:37Z</time>
      </trkpt>
      <trkpt lat="47.91602" lon="6.97159">
        <ele>462.7</ele>
        <time>2019-09-17T11:41:39Z</time>
      </trkpt>
      <trkpt lat="47.91599" lon="6.9716">
        <ele>462.7</ele>
        <time>2019-09-17T11:41:41Z</time>
      </trkpt>
      <trkpt lat="47.91596" lon="6.9716">
        <ele>462.8</ele>
        <time>2019-09-17T11:41:43Z</time>
      </trkpt>
      <trkpt lat="47.91592" lon="6.97161">
        <ele>462.9</ele>
        <time>2019-09-17T11:41:46Z</time>
      </trkpt>
      <trkpt lat="47.91589" lon="6.97161">
        <ele>463</ele>
        <time>2019-09-17T11:41:48Z</time>
      </trkpt>
      <trkpt lat="47.91586" lon="6.97162">
        <ele>463.2</ele>
        <time>2019-09-17T11:41:50Z</time>
      </trkpt>
      <trkpt lat="47.91583" lon="6.97164">
        <ele>463.5</ele>
        <time>2019-09-17T11:41:52Z</time>
      </trkpt>
      <trkpt lat="47.9158" lon="6.97166">
        <ele>463.4</ele>
        <time>2019-09-17T11:41:55Z</time>
      </trkpt>
      <trkpt lat="47.91577" lon="6.97168">
        <ele>463.4</ele>
        <time>2019-09-17T11:41:58Z</time>
      </trkpt>
      <trkpt lat="47.91573" lon="6.97171">
        <ele>463.3</ele>
        <time>2019-09-17T11:42:01Z</time>
      </trkpt>
      <trkpt lat="47.9157" lon="6.97175">
        <ele>463.2</ele>
        <time>2019-09-17T11:42:04Z</time>
      </trkpt>
      <trkpt lat="47.91569" lon="6.97179">
        <ele>463.2</ele>
        <time>2019-09-17T11:42:06Z</time>
      </trkpt>
      <trkpt lat="47.91568" lon="6.97183">
        <ele>463.2</ele>
        <time>2019-09-17T11:42:08Z</time>
      </trkpt>
      <trkpt lat="47.91568" lon="6.97188">
        <ele>463.2</ele>
        <time>2019-09-17T11:42:10Z</time>
      </trkpt>
      <trkpt lat="47.91568" lon="6.97194">
        <ele>463.2</ele>
        <time>2019-09-17T11:42:13Z</time>
      </trkpt>
      <trkpt lat="47.91568" lon="6.97199">
        <ele>463.2</ele>
        <time>2019-09-17T11:42:15Z</time>
      </trkpt>
      <trkpt lat="47.91567" lon="6.97203">
        <ele>463.5</ele>
        <time>2019-09-17T11:42:17Z</time>
      </trkpt>
      <trkpt lat="47.91566" lon="6.97207">
        <ele>463.6</ele>
        <time>2019-09-17T11:42:19Z</time>
      </trkpt>
      <trkpt lat="47.91566" lon="6.97212">
        <ele>463.7</ele>
        <time>2019-09-17T11:42:21Z</time>
      </trkpt>
      <trkpt lat="47.91565" lon="6.97217">
        <ele>463.8</ele>
        <time>2019-09-17T11:42:23Z</time>
      </trkpt>
      <trkpt lat="47.91564" lon="6.97222">
        <ele>464</ele>
        <time>2019-09-17T11:42:25Z</time>
      </trkpt>
      <trkpt lat="47.91563" lon="6.97227">
        <ele>464.1</ele>
        <time>2019-09-17T11:42:27Z</time>
      </trkpt>
      <trkpt lat="47.91562" lon="6.97231">
        <ele>464.2</ele>
        <time>2019-09-17T11:42:29Z</time>
      </trkpt>
      <trkpt lat="47.91562" lon="6.97235">
        <ele>464.3</ele>
        <time>2019-09-17T11:42:31Z</time>
      </trkpt>
      <trkpt lat="47.91561" lon="6.97239">
        <ele>464.4</ele>
        <time>2019-09-17T11:42:33Z</time>
      </trkpt>
      <trkpt lat="47.9156" lon="6.97243">
        <ele>464.5</ele>
        <time>2019-09-17T11:42:35Z</time>
      </trkpt>
      <trkpt lat="47.91559" lon="6.97248">
        <ele>464.7</ele>
        <time>2019-09-17T11:42:37Z</time>
      </trkpt>
      <trkpt lat="47.91557" lon="6.97253">
        <ele>464.8</ele>
        <time>2019-09-17T11:42:39Z</time>
      </trkpt>
      <trkpt lat="47.91556" lon="6.97257">
        <ele>465</ele>
        <time>2019-09-17T11:42:41Z</time>
      </trkpt>
      <trkpt lat="47.91555" lon="6.97261">
        <ele>465.1</ele>
        <time>2019-09-17T11:42:44Z</time>
      </trkpt>
      <trkpt lat="47.91555" lon="6.97266">
        <ele>465.2</ele>
        <time>2019-09-17T11:42:50Z</time>
      </trkpt>
      <trkpt lat="47.91555" lon="6.9727">
        <ele>465.3</ele>
        <time>2019-09-17T11:42:54Z</time>
      </trkpt>
      <trkpt lat="47.91557" lon="6.97275">
        <ele>465.4</ele>
        <time>2019-09-17T11:42:57Z</time>
      </trkpt>
      <trkpt lat="47.91558" lon="6.97278">
        <ele>465.5</ele>
        <time>2019-09-17T11:42:59Z</time>
      </trkpt>
      <trkpt lat="47.9156" lon="6.97282">
        <ele>465.6</ele>
        <time>2019-09-17T11:43:01Z</time>
      </trkpt>
      <trkpt lat="47.91562" lon="6.97285">
        <ele>465.7</ele>
        <time>2019-09-17T11:43:03Z</time>
      </trkpt>
      <trkpt lat="47.91563" lon="6.9729">
        <ele>465.9</ele>
        <time>2019-09-17T11:43:06Z</time>
      </trkpt>
      <trkpt lat="47.91565" lon="6.97296">
        <ele>466.1</ele>
        <time>2019-09-17T11:43:08Z</time>
      </trkpt>
      <trkpt lat="47.91566" lon="6.97302">
        <ele>466.3</ele>
        <time>2019-09-17T11:43:10Z</time>
      </trkpt>
      <trkpt lat="47.91567" lon="6.97306">
        <ele>466.5</ele>
        <time>2019-09-17T11:43:11Z</time>
      </trkpt>
      <trkpt lat="47.91569" lon="6.97312">
        <ele>466.7</ele>
        <time>2019-09-17T11:43:13Z</time>
      </trkpt>
      <trkpt lat="47.9157" lon="6.97318">
        <ele>467</ele>
        <time>2019-09-17T11:43:15Z</time>
      </trkpt>
      <trkpt lat="47.91572" lon="6.97323">
        <ele>467.3</ele>
        <time>2019-09-17T11:43:17Z</time>
      </trkpt>
      <trkpt lat="47.91573" lon="6.97327">
        <ele>467.5</ele>
        <time>2019-09-17T11:43:19Z</time>
      </trkpt>
      <trkpt lat="47.91575" lon="6.97332">
        <ele>467.7</ele>
        <time>2019-09-17T11:43:22Z</time>
      </trkpt>
      <trkpt lat="47.91576" lon="6.97335">
        <ele>467.9</ele>
        <time>2019-09-17T11:43:24Z</time>
      </trkpt>
      <trkpt lat="47.91578" lon="6.97339">
        <ele>468</ele>
        <time>2019-09-17T11:43:26Z</time>
      </trkpt>
      <trkpt lat="47.91579" lon="6.97343">
        <ele>468.1</ele>
        <time>2019-09-17T11:43:28Z</time>
      </trkpt>
      <trkpt lat="47.9158" lon="6.97349">
        <ele>468.4</ele>
        <time>2019-09-17T11:43:31Z</time>
      </trkpt>
      <trkpt lat="47.91579" lon="6.97353">
        <ele>468.5</ele>
        <time>2019-09-17T11:43:33Z</time>
      </trkpt>
      <trkpt lat="47.91579" lon="6.97358">
        <ele>468.7</ele>
        <time>2019-09-17T11:43:35Z</time>
      </trkpt>
      <trkpt lat="47.91578" lon="6.97363">
        <ele>468.9</ele>
        <time>2019-09-17T11:43:37Z</time>
      </trkpt>
      <trkpt lat="47.91578" lon="6.97367">
        <ele>469.1</ele>
        <time>2019-09-17T11:43:39Z</time>
      </trkpt>
      <trkpt lat="47.91577" lon="6.97371">
        <ele>469.3</ele>
        <time>2019-09-17T11:43:41Z</time>
      </trkpt>
      <trkpt lat="47.91575" lon="6.97374">
        <ele>469.6</ele>
        <time>2019-09-17T11:43:43Z</time>
      </trkpt>
      <trkpt lat="47.91572" lon="6.97376">
        <ele>469.8</ele>
        <time>2019-09-17T11:43:45Z</time>
      </trkpt>
      <trkpt lat="47.91569" lon="6.97379">
        <ele>469.9</ele>
        <time>2019-09-17T11:43:47Z</time>
      </trkpt>
      <trkpt lat="47.91567" lon="6.97382">
        <ele>469.9</ele>
        <time>2019-09-17T11:43:49Z</time>
      </trkpt>
      <trkpt lat="47.91564" lon="6.97387">
        <ele>469.8</ele>
        <time>2019-09-17T11:43:51Z</time>
      </trkpt>
      <trkpt lat="47.91563" lon="6.97392">
        <ele>469.8</ele>
        <time>2019-09-17T11:43:53Z</time>
      </trkpt>
      <trkpt lat="47.91561" lon="6.97395">
        <ele>469.8</ele>
        <time>2019-09-17T11:43:55Z</time>
      </trkpt>
      <trkpt lat="47.91559" lon="6.97399">
        <ele>469.8</ele>
        <time>2019-09-17T11:43:57Z</time>
      </trkpt>
      <trkpt lat="47.91556" lon="6.974">
        <ele>469.8</ele>
        <time>2019-09-17T11:43:59Z</time>
      </trkpt>
      <trkpt lat="47.91553" lon="6.97401">
        <ele>469.8</ele>
        <time>2019-09-17T11:44:01Z</time>
      </trkpt>
      <trkpt lat="47.91549" lon="6.97403">
        <ele>469.7</ele>
        <time>2019-09-17T11:44:03Z</time>
      </trkpt>
      <trkpt lat="47.91546" lon="6.97404">
        <ele>469.7</ele>
        <time>2019-09-17T11:44:05Z</time>
      </trkpt>
      <trkpt lat="47.91543" lon="6.97404">
        <ele>469.7</ele>
        <time>2019-09-17T11:44:09Z</time>
      </trkpt>
      <trkpt lat="47.91539" lon="6.97405">
        <ele>469.6</ele>
        <time>2019-09-17T11:44:11Z</time>
      </trkpt>
      <trkpt lat="47.91536" lon="6.97407">
        <ele>469.6</ele>
        <time>2019-09-17T11:44:13Z</time>
      </trkpt>
      <trkpt lat="47.91533" lon="6.97409">
        <ele>469.5</ele>
        <time>2019-09-17T11:44:15Z</time>
      </trkpt>
      <trkpt lat="47.91531" lon="6.97412">
        <ele>469.5</ele>
        <time>2019-09-17T11:44:20Z</time>
      </trkpt>
      <trkpt lat="47.91531" lon="6.97416">
        <ele>469.9</ele>
        <time>2019-09-17T11:44:23Z</time>
      </trkpt>
      <trkpt lat="47.91531" lon="6.97421">
        <ele>470</ele>
        <time>2019-09-17T11:44:25Z</time>
      </trkpt>
      <trkpt lat="47.91532" lon="6.97425">
        <ele>470.2</ele>
        <time>2019-09-17T11:44:27Z</time>
      </trkpt>
      <trkpt lat="47.91534" lon="6.9743">
        <ele>470.5</ele>
        <time>2019-09-17T11:44:30Z</time>
      </trkpt>
      <trkpt lat="47.91533" lon="6.97435">
        <ele>470.8</ele>
        <time>2019-09-17T11:44:34Z</time>
      </trkpt>
      <trkpt lat="47.91534" lon="6.97439">
        <ele>471</ele>
        <time>2019-09-17T11:44:39Z</time>
      </trkpt>
      <trkpt lat="47.91531" lon="6.97436">
        <ele>471.3</ele>
        <time>2019-09-17T11:44:47Z</time>
      </trkpt>
      <trkpt lat="47.91531" lon="6.97432">
        <ele>471.5</ele>
        <time>2019-09-17T11:44:51Z</time>
      </trkpt>
      <trkpt lat="47.91536" lon="6.9743">
        <ele>471.8</ele>
        <time>2019-09-17T11:44:54Z</time>
      </trkpt>
      <trkpt lat="47.91539" lon="6.97427">
        <ele>472.1</ele>
        <time>2019-09-17T11:44:56Z</time>
      </trkpt>
      <trkpt lat="47.91543" lon="6.97427">
        <ele>472.3</ele>
        <time>2019-09-17T11:44:58Z</time>
      </trkpt>
      <trkpt lat="47.91547" lon="6.97428">
        <ele>472.4</ele>
        <time>2019-09-17T11:45:00Z</time>
      </trkpt>
      <trkpt lat="47.9155" lon="6.97428">
        <ele>472.5</ele>
        <time>2019-09-17T11:45:03Z</time>
      </trkpt>
      <trkpt lat="47.91553" lon="6.97427">
        <ele>472.6</ele>
        <time>2019-09-17T11:45:05Z</time>
      </trkpt>
      <trkpt lat="47.91557" lon="6.97425">
        <ele>472.7</ele>
        <time>2019-09-17T11:45:07Z</time>
      </trkpt>
      <trkpt lat="47.9156" lon="6.97423">
        <ele>472.8</ele>
        <time>2019-09-17T11:45:09Z</time>
      </trkpt>
      <trkpt lat="47.91563" lon="6.97423">
        <ele>472.9</ele>
        <time>2019-09-17T11:45:11Z</time>
      </trkpt>
      <trkpt lat="47.91566" lon="6.97423">
        <ele>473</ele>
        <time>2019-09-17T11:45:15Z</time>
      </trkpt>
      <trkpt lat="47.91569" lon="6.97423">
        <ele>473.2</ele>
        <time>2019-09-17T11:45:18Z</time>
      </trkpt>
      <trkpt lat="47.91575" lon="6.97424">
        <ele>473.3</ele>
        <time>2019-09-17T11:45:20Z</time>
      </trkpt>
      <trkpt lat="47.91579" lon="6.97425">
        <ele>473.6</ele>
        <time>2019-09-17T11:45:22Z</time>
      </trkpt>
      <trkpt lat="47.91582" lon="6.97426">
        <ele>473.8</ele>
        <time>2019-09-17T11:45:24Z</time>
      </trkpt>
      <trkpt lat="47.91585" lon="6.97429">
        <ele>474</ele>
        <time>2019-09-17T11:45:27Z</time>
      </trkpt>
      <trkpt lat="47.91588" lon="6.9743">
        <ele>474.2</ele>
        <time>2019-09-17T11:45:33Z</time>
      </trkpt>
      <trkpt lat="47.91592" lon="6.9743">
        <ele>474.5</ele>
        <time>2019-09-17T11:45:37Z</time>
      </trkpt>
      <trkpt lat="47.91596" lon="6.97429">
        <ele>474.8</ele>
        <time>2019-09-17T11:45:40Z</time>
      </trkpt>
      <trkpt lat="47.91598" lon="6.97429">
        <ele>475</ele>
        <time>2019-09-17T11:45:42Z</time>
      </trkpt>
      <trkpt lat="47.91601" lon="6.97429">
        <ele>475.2</ele>
        <time>2019-09-17T11:45:44Z</time>
      </trkpt>
      <trkpt lat="47.91605" lon="6.97429">
        <ele>475.6</ele>
        <time>2019-09-17T11:45:47Z</time>
      </trkpt>
      <trkpt lat="47.91608" lon="6.97428">
        <ele>475.9</ele>
        <time>2019-09-17T11:45:50Z</time>
      </trkpt>
      <trkpt lat="47.91611" lon="6.97427">
        <ele>476.2</ele>
        <time>2019-09-17T11:45:53Z</time>
      </trkpt>
      <trkpt lat="47.91615" lon="6.97425">
        <ele>476.6</ele>
        <time>2019-09-17T11:45:56Z</time>
      </trkpt>
      <trkpt lat="47.91619" lon="6.97424">
        <ele>477</ele>
        <time>2019-09-17T11:45:59Z</time>
      </trkpt>
      <trkpt lat="47.91622" lon="6.97423">
        <ele>477.3</ele>
        <time>2019-09-17T11:46:01Z</time>
      </trkpt>
      <trkpt lat="47.91624" lon="6.97425">
        <ele>478.1</ele>
        <time>2019-09-17T11:46:03Z</time>
      </trkpt>
      <trkpt lat="47.91625" lon="6.97429">
        <ele>478.1</ele>
        <time>2019-09-17T11:46:07Z</time>
      </trkpt>
      <trkpt lat="47.91629" lon="6.97432">
        <ele>478.1</ele>
        <time>2019-09-17T11:46:11Z</time>
      </trkpt>
      <trkpt lat="47.91632" lon="6.97433">
        <ele>478.1</ele>
        <time>2019-09-17T11:46:18Z</time>
      </trkpt>
      <trkpt lat="47.91635" lon="6.97434">
        <ele>478.3</ele>
        <time>2019-09-17T11:46:21Z</time>
      </trkpt>
      <trkpt lat="47.91638" lon="6.97435">
        <ele>478.5</ele>
        <time>2019-09-17T11:46:25Z</time>
      </trkpt>
      <trkpt lat="47.91641" lon="6.97434">
        <ele>478.7</ele>
        <time>2019-09-17T11:46:29Z</time>
      </trkpt>
      <trkpt lat="47.91645" lon="6.97434">
        <ele>479.2</ele>
        <time>2019-09-17T11:46:32Z</time>
      </trkpt>
      <trkpt lat="47.91648" lon="6.97436">
        <ele>479.3</ele>
        <time>2019-09-17T11:46:36Z</time>
      </trkpt>
      <trkpt lat="47.91648" lon="6.97441">
        <ele>479.4</ele>
        <time>2019-09-17T11:46:41Z</time>
      </trkpt>
      <trkpt lat="47.91648" lon="6.97445">
        <ele>481.7</ele>
        <time>2019-09-17T11:46:44Z</time>
      </trkpt>
      <trkpt lat="47.91647" lon="6.97449">
        <ele>482.6</ele>
        <time>2019-09-17T11:46:46Z</time>
      </trkpt>
      <trkpt lat="47.91646" lon="6.97454">
        <ele>483.5</ele>
        <time>2019-09-17T11:46:48Z</time>
      </trkpt>
      <trkpt lat="47.91646" lon="6.97458">
        <ele>484.2</ele>
        <time>2019-09-17T11:46:58Z</time>
      </trkpt>
      <trkpt lat="47.91644" lon="6.97461">
        <ele>484.8</ele>
        <time>2019-09-17T11:47:06Z</time>
      </trkpt>
      <trkpt lat="47.91641" lon="6.97463">
        <ele>485.5</ele>
        <time>2019-09-17T11:47:10Z</time>
      </trkpt>
      <trkpt lat="47.91643" lon="6.9746">
        <ele>486.3</ele>
        <time>2019-09-17T11:47:19Z</time>
      </trkpt>
      <trkpt lat="47.91646" lon="6.97463">
        <ele>487.3</ele>
        <time>2019-09-17T11:47:28Z</time>
      </trkpt>
      <trkpt lat="47.91647" lon="6.97466">
        <ele>488.2</ele>
        <time>2019-09-17T11:47:31Z</time>
      </trkpt>
      <trkpt lat="47.91649" lon="6.9747">
        <ele>489.2</ele>
        <time>2019-09-17T11:47:33Z</time>
      </trkpt>
      <trkpt lat="47.9165" lon="6.97475">
        <ele>490.4</ele>
        <time>2019-09-17T11:47:36Z</time>
      </trkpt>
      <trkpt lat="47.9165" lon="6.9748">
        <ele>492.1</ele>
        <time>2019-09-17T11:47:39Z</time>
      </trkpt>
      <trkpt lat="47.91651" lon="6.97484">
        <ele>494</ele>
        <time>2019-09-17T11:47:42Z</time>
      </trkpt>
      <trkpt lat="47.91648" lon="6.97485">
        <ele>494.2</ele>
        <time>2019-09-17T11:47:49Z</time>
      </trkpt>
      <trkpt lat="47.91646" lon="6.97482">
        <ele>494.2</ele>
        <time>2019-09-17T11:47:58Z</time>
      </trkpt>
      <trkpt lat="47.91649" lon="6.97481">
        <ele>494.7</ele>
        <time>2019-09-17T11:48:04Z</time>
      </trkpt>
      <trkpt lat="47.91651" lon="6.97484">
        <ele>495.5</ele>
        <time>2019-09-17T11:48:09Z</time>
      </trkpt>
      <trkpt lat="47.91652" lon="6.97488">
        <ele>496.3</ele>
        <time>2019-09-17T11:48:12Z</time>
      </trkpt>
      <trkpt lat="47.91653" lon="6.97492">
        <ele>497.1</ele>
        <time>2019-09-17T11:48:15Z</time>
      </trkpt>
      <trkpt lat="47.91653" lon="6.97496">
        <ele>498.1</ele>
        <time>2019-09-17T11:48:18Z</time>
      </trkpt>
      <trkpt lat="47.91653" lon="6.97501">
        <ele>498.4</ele>
        <time>2019-09-17T11:48:22Z</time>
      </trkpt>
      <trkpt lat="47.91653" lon="6.97506">
        <ele>498.7</ele>
        <time>2019-09-17T11:48:25Z</time>
      </trkpt>
      <trkpt lat="47.91652" lon="6.97512">
        <ele>499.7</ele>
        <time>2019-09-17T11:48:28Z</time>
      </trkpt>
      <trkpt lat="47.91651" lon="6.97516">
        <ele>500.6</ele>
        <time>2019-09-17T11:48:31Z</time>
      </trkpt>
      <trkpt lat="47.91648" lon="6.9752">
        <ele>501.4</ele>
        <time>2019-09-17T11:48:36Z</time>
      </trkpt>
      <trkpt lat="47.91646" lon="6.97523">
        <ele>501.5</ele>
        <time>2019-09-17T11:48:40Z</time>
      </trkpt>
      <trkpt lat="47.91644" lon="6.97526">
        <ele>501.6</ele>
        <time>2019-09-17T11:48:42Z</time>
      </trkpt>
      <trkpt lat="47.91642" lon="6.9753">
        <ele>501.7</ele>
        <time>2019-09-17T11:48:44Z</time>
      </trkpt>
      <trkpt lat="47.91641" lon="6.97535">
        <ele>502</ele>
        <time>2019-09-17T11:48:46Z</time>
      </trkpt>
      <trkpt lat="47.9164" lon="6.97539">
        <ele>502.3</ele>
        <time>2019-09-17T11:48:48Z</time>
      </trkpt>
      <trkpt lat="47.9164" lon="6.97544">
        <ele>502.6</ele>
        <time>2019-09-17T11:48:50Z</time>
      </trkpt>
      <trkpt lat="47.91637" lon="6.97547">
        <ele>502.9</ele>
        <time>2019-09-17T11:48:52Z</time>
      </trkpt>
      <trkpt lat="47.91635" lon="6.9755">
        <ele>503</ele>
        <time>2019-09-17T11:48:54Z</time>
      </trkpt>
      <trkpt lat="47.91632" lon="6.97554">
        <ele>503.1</ele>
        <time>2019-09-17T11:48:57Z</time>
      </trkpt>
      <trkpt lat="47.9163" lon="6.97555">
        <ele>503.4</ele>
        <time>2019-09-17T11:49:00Z</time>
      </trkpt>
      <trkpt lat="47.91627" lon="6.97559">
        <ele>504</ele>
        <time>2019-09-17T11:49:07Z</time>
      </trkpt>
      <trkpt lat="47.91626" lon="6.97564">
        <ele>504.5</ele>
        <time>2019-09-17T11:49:15Z</time>
      </trkpt>
      <trkpt lat="47.91626" lon="6.97569">
        <ele>505.4</ele>
        <time>2019-09-17T11:49:18Z</time>
      </trkpt>
      <trkpt lat="47.91626" lon="6.97574">
        <ele>506.3</ele>
        <time>2019-09-17T11:49:20Z</time>
      </trkpt>
      <trkpt lat="47.91625" lon="6.9758">
        <ele>507.3</ele>
        <time>2019-09-17T11:49:23Z</time>
      </trkpt>
      <trkpt lat="47.91625" lon="6.97584">
        <ele>508.1</ele>
        <time>2019-09-17T11:49:27Z</time>
      </trkpt>
      <trkpt lat="47.91624" lon="6.97588">
        <ele>508.6</ele>
        <time>2019-09-17T11:49:30Z</time>
      </trkpt>
      <trkpt lat="47.91622" lon="6.97592">
        <ele>509.2</ele>
        <time>2019-09-17T11:49:35Z</time>
      </trkpt>
      <trkpt lat="47.9162" lon="6.97596">
        <ele>509.9</ele>
        <time>2019-09-17T11:49:38Z</time>
      </trkpt>
      <trkpt lat="47.91617" lon="6.97597">
        <ele>510.7</ele>
        <time>2019-09-17T11:49:41Z</time>
      </trkpt>
      <trkpt lat="47.91614" lon="6.97597">
        <ele>511.4</ele>
        <time>2019-09-17T11:49:45Z</time>
      </trkpt>
      <trkpt lat="47.91614" lon="6.97592">
        <ele>512.2</ele>
        <time>2019-09-17T11:49:54Z</time>
      </trkpt>
      <trkpt lat="47.91617" lon="6.97588">
        <ele>512.9</ele>
        <time>2019-09-17T11:49:57Z</time>
      </trkpt>
      <trkpt lat="47.9162" lon="6.97585">
        <ele>517.5</ele>
        <time>2019-09-17T11:49:59Z</time>
      </trkpt>
      <trkpt lat="47.91623" lon="6.9758">
        <ele>517.6</ele>
        <time>2019-09-17T11:50:01Z</time>
      </trkpt>
      <trkpt lat="47.91625" lon="6.97578">
        <ele>517.8</ele>
        <time>2019-09-17T11:50:03Z</time>
      </trkpt>
      <trkpt lat="47.91627" lon="6.97574">
        <ele>518.2</ele>
        <time>2019-09-17T11:50:06Z</time>
      </trkpt>
      <trkpt lat="47.91629" lon="6.97569">
        <ele>518.5</ele>
        <time>2019-09-17T11:50:09Z</time>
      </trkpt>
      <trkpt lat="47.9163" lon="6.97564">
        <ele>517.9</ele>
        <time>2019-09-17T11:50:12Z</time>
      </trkpt>
      <trkpt lat="47.91631" lon="6.97559">
        <ele>517.2</ele>
        <time>2019-09-17T11:50:14Z</time>
      </trkpt>
      <trkpt lat="47.91632" lon="6.97554">
        <ele>516.8</ele>
        <time>2019-09-17T11:50:16Z</time>
      </trkpt>
      <trkpt lat="47.91634" lon="6.9755">
        <ele>516.6</ele>
        <time>2019-09-17T11:50:19Z</time>
      </trkpt>
      <trkpt lat="47.91636" lon="6.97546">
        <ele>516.3</ele>
        <time>2019-09-17T11:50:21Z</time>
      </trkpt>
      <trkpt lat="47.91638" lon="6.97543">
        <ele>516.7</ele>
        <time>2019-09-17T11:50:23Z</time>
      </trkpt>
      <trkpt lat="47.91642" lon="6.97544">
        <ele>517.4</ele>
        <time>2019-09-17T11:50:24Z</time>
      </trkpt>
      <trkpt lat="47.91645" lon="6.97545">
        <ele>517.9</ele>
        <time>2019-09-17T11:50:25Z</time>
      </trkpt>
      <trkpt lat="47.91648" lon="6.97547">
        <ele>518.2</ele>
        <time>2019-09-17T11:50:27Z</time>
      </trkpt>
      <trkpt lat="47.91651" lon="6.9755">
        <ele>518.5</ele>
        <time>2019-09-17T11:50:29Z</time>
      </trkpt>
      <trkpt lat="47.91652" lon="6.97554">
        <ele>518.8</ele>
        <time>2019-09-17T11:50:31Z</time>
      </trkpt>
      <trkpt lat="47.91652" lon="6.97558">
        <ele>519.2</ele>
        <time>2019-09-17T11:50:34Z</time>
      </trkpt>
      <trkpt lat="47.91654" lon="6.97561">
        <ele>519.3</ele>
        <time>2019-09-17T11:50:45Z</time>
      </trkpt>
      <trkpt lat="47.91656" lon="6.97565">
        <ele>518.4</ele>
        <time>2019-09-17T11:50:49Z</time>
      </trkpt>
      <trkpt lat="47.91655" lon="6.97569">
        <ele>517.8</ele>
        <time>2019-09-17T11:50:53Z</time>
      </trkpt>
      <trkpt lat="47.91656" lon="6.97564">
        <ele>519.9</ele>
        <time>2019-09-17T11:51:00Z</time>
      </trkpt>
      <trkpt lat="47.91657" lon="6.97559">
        <ele>522.6</ele>
        <time>2019-09-17T11:51:03Z</time>
      </trkpt>
      <trkpt lat="47.91657" lon="6.97555">
        <ele>524.3</ele>
        <time>2019-09-17T11:51:07Z</time>
      </trkpt>
      <trkpt lat="47.91658" lon="6.9755">
        <ele>525.7</ele>
        <time>2019-09-17T11:51:11Z</time>
      </trkpt>
      <trkpt lat="47.91659" lon="6.97544">
        <ele>527.3</ele>
        <time>2019-09-17T11:51:14Z</time>
      </trkpt>
      <trkpt lat="47.91661" lon="6.97541">
        <ele>529.2</ele>
        <time>2019-09-17T11:51:18Z</time>
      </trkpt>
      <trkpt lat="47.91664" lon="6.97541">
        <ele>531</ele>
        <time>2019-09-17T11:51:21Z</time>
      </trkpt>
      <trkpt lat="47.91667" lon="6.97541">
        <ele>533.1</ele>
        <time>2019-09-17T11:51:25Z</time>
      </trkpt>
      <trkpt lat="47.9167" lon="6.97544">
        <ele>535.2</ele>
        <time>2019-09-17T11:51:29Z</time>
      </trkpt>
      <trkpt lat="47.91671" lon="6.97549">
        <ele>536.6</ele>
        <time>2019-09-17T11:51:33Z</time>
      </trkpt>
      <trkpt lat="47.91672" lon="6.97553">
        <ele>535.7</ele>
        <time>2019-09-17T11:51:36Z</time>
      </trkpt>
      <trkpt lat="47.91672" lon="6.97559">
        <ele>534.6</ele>
        <time>2019-09-17T11:51:39Z</time>
      </trkpt>
      <trkpt lat="47.91671" lon="6.97565">
        <ele>533.5</ele>
        <time>2019-09-17T11:51:42Z</time>
      </trkpt>
      <trkpt lat="47.9167" lon="6.97569">
        <ele>532.9</ele>
        <time>2019-09-17T11:51:46Z</time>
      </trkpt>
      <trkpt lat="47.91671" lon="6.97564">
        <ele>532</ele>
        <time>2019-09-17T11:51:54Z</time>
      </trkpt>
      <trkpt lat="47.91673" lon="6.9756">
        <ele>531.6</ele>
        <time>2019-09-17T11:51:56Z</time>
      </trkpt>
      <trkpt lat="47.91675" lon="6.97557">
        <ele>531.3</ele>
        <time>2019-09-17T11:52:01Z</time>
      </trkpt>
      <trkpt lat="47.91676" lon="6.97553">
        <ele>531.1</ele>
        <time>2019-09-17T11:52:06Z</time>
      </trkpt>
      <trkpt lat="47.91678" lon="6.9755">
        <ele>531.1</ele>
        <time>2019-09-17T11:52:10Z</time>
      </trkpt>
      <trkpt lat="47.91682" lon="6.9755">
        <ele>532.4</ele>
        <time>2019-09-17T11:52:12Z</time>
      </trkpt>
      <trkpt lat="47.91687" lon="6.9755">
        <ele>535.8</ele>
        <time>2019-09-17T11:52:14Z</time>
      </trkpt>
      <trkpt lat="47.9169" lon="6.97552">
        <ele>537.7</ele>
        <time>2019-09-17T11:52:16Z</time>
      </trkpt>
      <trkpt lat="47.91692" lon="6.97554">
        <ele>538.4</ele>
        <time>2019-09-17T11:52:19Z</time>
      </trkpt>
      <trkpt lat="47.91695" lon="6.97557">
        <ele>539.1</ele>
        <time>2019-09-17T11:52:22Z</time>
      </trkpt>
      <trkpt lat="47.91697" lon="6.97561">
        <ele>539.8</ele>
        <time>2019-09-17T11:52:25Z</time>
      </trkpt>
      <trkpt lat="47.91697" lon="6.97565">
        <ele>540.5</ele>
        <time>2019-09-17T11:52:29Z</time>
      </trkpt>
      <trkpt lat="47.91697" lon="6.9757">
        <ele>541.3</ele>
        <time>2019-09-17T11:52:32Z</time>
      </trkpt>
      <trkpt lat="47.91696" lon="6.97574">
        <ele>542</ele>
        <time>2019-09-17T11:52:35Z</time>
      </trkpt>
      <trkpt lat="47.91695" lon="6.97578">
        <ele>542.9</ele>
        <time>2019-09-17T11:52:38Z</time>
      </trkpt>
      <trkpt lat="47.91694" lon="6.97582">
        <ele>543.7</ele>
        <time>2019-09-17T11:52:41Z</time>
      </trkpt>
      <trkpt lat="47.91692" lon="6.97587">
        <ele>544.8</ele>
        <time>2019-09-17T11:52:47Z</time>
      </trkpt>
      <trkpt lat="47.91691" lon="6.97591">
        <ele>545.3</ele>
        <time>2019-09-17T11:52:50Z</time>
      </trkpt>
      <trkpt lat="47.91689" lon="6.97595">
        <ele>545.7</ele>
        <time>2019-09-17T11:52:52Z</time>
      </trkpt>
      <trkpt lat="47.91687" lon="6.976">
        <ele>546.3</ele>
        <time>2019-09-17T11:52:54Z</time>
      </trkpt>
      <trkpt lat="47.91685" lon="6.97604">
        <ele>547</ele>
        <time>2019-09-17T11:52:56Z</time>
      </trkpt>
      <trkpt lat="47.91684" lon="6.97608">
        <ele>547.7</ele>
        <time>2019-09-17T11:52:58Z</time>
      </trkpt>
      <trkpt lat="47.91683" lon="6.97614">
        <ele>550.2</ele>
        <time>2019-09-17T11:53:00Z</time>
      </trkpt>
      <trkpt lat="47.91683" lon="6.97618">
        <ele>551.4</ele>
        <time>2019-09-17T11:53:02Z</time>
      </trkpt>
      <trkpt lat="47.91685" lon="6.97616">
        <ele>551.5</ele>
        <time>2019-09-17T11:53:06Z</time>
      </trkpt>
      <trkpt lat="47.91684" lon="6.97612">
        <ele>551.6</ele>
        <time>2019-09-17T11:53:12Z</time>
      </trkpt>
      <trkpt lat="47.91682" lon="6.97608">
        <ele>551.7</ele>
        <time>2019-09-17T11:53:16Z</time>
      </trkpt>
      <trkpt lat="47.9168" lon="6.97604">
        <ele>551.7</ele>
        <time>2019-09-17T11:53:20Z</time>
      </trkpt>
      <trkpt lat="47.91682" lon="6.976">
        <ele>551.7</ele>
        <time>2019-09-17T11:53:25Z</time>
      </trkpt>
      <trkpt lat="47.91684" lon="6.97596">
        <ele>551.1</ele>
        <time>2019-09-17T11:53:29Z</time>
      </trkpt>
      <trkpt lat="47.91686" lon="6.97592">
        <ele>550.4</ele>
        <time>2019-09-17T11:53:33Z</time>
      </trkpt>
      <trkpt lat="47.91688" lon="6.97588">
        <ele>550.8</ele>
        <time>2019-09-17T11:53:36Z</time>
      </trkpt>
      <trkpt lat="47.91689" lon="6.97591">
        <ele>551.9</ele>
        <time>2019-09-17T11:53:40Z</time>
      </trkpt>
      <trkpt lat="47.91688" lon="6.97596">
        <ele>553.1</ele>
        <time>2019-09-17T11:53:44Z</time>
      </trkpt>
      <trkpt lat="47.91691" lon="6.97598">
        <ele>554</ele>
        <time>2019-09-17T11:53:47Z</time>
      </trkpt>
      <trkpt lat="47.91693" lon="6.97596">
        <ele>554.8</ele>
        <time>2019-09-17T11:53:49Z</time>
      </trkpt>
      <trkpt lat="47.91696" lon="6.97594">
        <ele>555.7</ele>
        <time>2019-09-17T11:53:52Z</time>
      </trkpt>
      <trkpt lat="47.91698" lon="6.97592">
        <ele>556.6</ele>
        <time>2019-09-17T11:53:55Z</time>
      </trkpt>
      <trkpt lat="47.91701" lon="6.97595">
        <ele>557.6</ele>
        <time>2019-09-17T11:53:59Z</time>
      </trkpt>
      <trkpt lat="47.917" lon="6.97599">
        <ele>558.6</ele>
        <time>2019-09-17T11:54:02Z</time>
      </trkpt>
      <trkpt lat="47.91702" lon="6.97603">
        <ele>559.5</ele>
        <time>2019-09-17T11:54:05Z</time>
      </trkpt>
      <trkpt lat="47.91705" lon="6.97603">
        <ele>560.7</ele>
        <time>2019-09-17T11:54:08Z</time>
      </trkpt>
      <trkpt lat="47.91708" lon="6.976">
        <ele>562</ele>
        <time>2019-09-17T11:54:12Z</time>
      </trkpt>
      <trkpt lat="47.91711" lon="6.97598">
        <ele>563.5</ele>
        <time>2019-09-17T11:54:16Z</time>
      </trkpt>
      <trkpt lat="47.91712" lon="6.97594">
        <ele>564.9</ele>
        <time>2019-09-17T11:54:20Z</time>
      </trkpt>
      <trkpt lat="47.91712" lon="6.97589">
        <ele>565.9</ele>
        <time>2019-09-17T11:54:26Z</time>
      </trkpt>
      <trkpt lat="47.91716" lon="6.97589">
        <ele>566.4</ele>
        <time>2019-09-17T11:54:33Z</time>
      </trkpt>
      <trkpt lat="47.91718" lon="6.97593">
        <ele>566.9</ele>
        <time>2019-09-17T11:54:36Z</time>
      </trkpt>
      <trkpt lat="47.91719" lon="6.97598">
        <ele>567.9</ele>
        <time>2019-09-17T11:54:40Z</time>
      </trkpt>
      <trkpt lat="47.91719" lon="6.97604">
        <ele>569.1</ele>
        <time>2019-09-17T11:54:43Z</time>
      </trkpt>
      <trkpt lat="47.91718" lon="6.97608">
        <ele>569.7</ele>
        <time>2019-09-17T11:54:45Z</time>
      </trkpt>
      <trkpt lat="47.91718" lon="6.97614">
        <ele>569.9</ele>
        <time>2019-09-17T11:54:48Z</time>
      </trkpt>
      <trkpt lat="47.91717" lon="6.97618">
        <ele>570.1</ele>
        <time>2019-09-17T11:54:51Z</time>
      </trkpt>
      <trkpt lat="47.91717" lon="6.97623">
        <ele>570.2</ele>
        <time>2019-09-17T11:54:56Z</time>
      </trkpt>
      <trkpt lat="47.91715" lon="6.97627">
        <ele>570.4</ele>
        <time>2019-09-17T11:55:01Z</time>
      </trkpt>
      <trkpt lat="47.91713" lon="6.97633">
        <ele>570.4</ele>
        <time>2019-09-17T11:55:04Z</time>
      </trkpt>
      <trkpt lat="47.91712" lon="6.97637">
        <ele>570.2</ele>
        <time>2019-09-17T11:55:06Z</time>
      </trkpt>
      <trkpt lat="47.91711" lon="6.97642">
        <ele>570</ele>
        <time>2019-09-17T11:55:09Z</time>
      </trkpt>
      <trkpt lat="47.9171" lon="6.97646">
        <ele>569.9</ele>
        <time>2019-09-17T11:55:12Z</time>
      </trkpt>
      <trkpt lat="47.91708" lon="6.97647">
        <ele>569.8</ele>
        <time>2019-09-17T11:55:17Z</time>
      </trkpt>
      <trkpt lat="47.91704" lon="6.97648">
        <ele>569.6</ele>
        <time>2019-09-17T11:55:20Z</time>
      </trkpt>
      <trkpt lat="47.91706" lon="6.97654">
        <ele>571.5</ele>
        <time>2019-09-17T11:55:32Z</time>
      </trkpt>
      <trkpt lat="47.91708" lon="6.97659">
        <ele>573.4</ele>
        <time>2019-09-17T11:55:34Z</time>
      </trkpt>
      <trkpt lat="47.91709" lon="6.97665">
        <ele>575</ele>
        <time>2019-09-17T11:55:36Z</time>
      </trkpt>
      <trkpt lat="47.9171" lon="6.97669">
        <ele>576.2</ele>
        <time>2019-09-17T11:55:40Z</time>
      </trkpt>
      <trkpt lat="47.9171" lon="6.97673">
        <ele>576.9</ele>
        <time>2019-09-17T11:55:44Z</time>
      </trkpt>
      <trkpt lat="47.91711" lon="6.97677">
        <ele>577.5</ele>
        <time>2019-09-17T11:55:50Z</time>
      </trkpt>
      <trkpt lat="47.91709" lon="6.9768">
        <ele>578.3</ele>
        <time>2019-09-17T11:55:55Z</time>
      </trkpt>
      <trkpt lat="47.91708" lon="6.97684">
        <ele>578.9</ele>
        <time>2019-09-17T11:55:59Z</time>
      </trkpt>
      <trkpt lat="47.91709" lon="6.97688">
        <ele>579.6</ele>
        <time>2019-09-17T11:56:04Z</time>
      </trkpt>
      <trkpt lat="47.91711" lon="6.97692">
        <ele>580.3</ele>
        <time>2019-09-17T11:56:07Z</time>
      </trkpt>
      <trkpt lat="47.91713" lon="6.97696">
        <ele>581</ele>
        <time>2019-09-17T11:56:09Z</time>
      </trkpt>
      <trkpt lat="47.91715" lon="6.97699">
        <ele>581.7</ele>
        <time>2019-09-17T11:56:12Z</time>
      </trkpt>
      <trkpt lat="47.91717" lon="6.97702">
        <ele>582.3</ele>
        <time>2019-09-17T11:56:15Z</time>
      </trkpt>
      <trkpt lat="47.91719" lon="6.97706">
        <ele>583.2</ele>
        <time>2019-09-17T11:56:18Z</time>
      </trkpt>
      <trkpt lat="47.91718" lon="6.97711">
        <ele>584.4</ele>
        <time>2019-09-17T11:56:24Z</time>
      </trkpt>
      <trkpt lat="47.91716" lon="6.97714">
        <ele>585.4</ele>
        <time>2019-09-17T11:56:27Z</time>
      </trkpt>
      <trkpt lat="47.91719" lon="6.97712">
        <ele>586.6</ele>
        <time>2019-09-17T11:56:40Z</time>
      </trkpt>
      <trkpt lat="47.91722" lon="6.97713">
        <ele>587.6</ele>
        <time>2019-09-17T11:56:43Z</time>
      </trkpt>
      <trkpt lat="47.91726" lon="6.97714">
        <ele>588.3</ele>
        <time>2019-09-17T11:56:46Z</time>
      </trkpt>
      <trkpt lat="47.91729" lon="6.97715">
        <ele>589.4</ele>
        <time>2019-09-17T11:56:49Z</time>
      </trkpt>
      <trkpt lat="47.91731" lon="6.9772">
        <ele>590.3</ele>
        <time>2019-09-17T11:56:53Z</time>
      </trkpt>
      <trkpt lat="47.91732" lon="6.97723">
        <ele>590.1</ele>
        <time>2019-09-17T11:56:56Z</time>
      </trkpt>
      <trkpt lat="47.91734" lon="6.97727">
        <ele>589.9</ele>
        <time>2019-09-17T11:57:00Z</time>
      </trkpt>
      <trkpt lat="47.91735" lon="6.97731">
        <ele>589.7</ele>
        <time>2019-09-17T11:57:03Z</time>
      </trkpt>
      <trkpt lat="47.91737" lon="6.97735">
        <ele>589.7</ele>
        <time>2019-09-17T11:57:07Z</time>
      </trkpt>
      <trkpt lat="47.91735" lon="6.97738">
        <ele>589.8</ele>
        <time>2019-09-17T11:57:13Z</time>
      </trkpt>
      <trkpt lat="47.91732" lon="6.97741">
        <ele>589.8</ele>
        <time>2019-09-17T11:57:16Z</time>
      </trkpt>
      <trkpt lat="47.91732" lon="6.97746">
        <ele>589.8</ele>
        <time>2019-09-17T11:57:21Z</time>
      </trkpt>
      <trkpt lat="47.91733" lon="6.9775">
        <ele>589.8</ele>
        <time>2019-09-17T11:57:24Z</time>
      </trkpt>
      <trkpt lat="47.91736" lon="6.97754">
        <ele>590.1</ele>
        <time>2019-09-17T11:57:27Z</time>
      </trkpt>
      <trkpt lat="47.91738" lon="6.97758">
        <ele>590.5</ele>
        <time>2019-09-17T11:57:31Z</time>
      </trkpt>
      <trkpt lat="47.9174" lon="6.97761">
        <ele>590.8</ele>
        <time>2019-09-17T11:57:34Z</time>
      </trkpt>
      <trkpt lat="47.91738" lon="6.97764">
        <ele>591.2</ele>
        <time>2019-09-17T11:57:43Z</time>
      </trkpt>
      <trkpt lat="47.91736" lon="6.97767">
        <ele>591.5</ele>
        <time>2019-09-17T11:57:46Z</time>
      </trkpt>
      <trkpt lat="47.91736" lon="6.97763">
        <ele>591.8</ele>
        <time>2019-09-17T11:57:57Z</time>
      </trkpt>
      <trkpt lat="47.91737" lon="6.97759">
        <ele>592.2</ele>
        <time>2019-09-17T11:58:00Z</time>
      </trkpt>
      <trkpt lat="47.91737" lon="6.97754">
        <ele>592.7</ele>
        <time>2019-09-17T11:58:03Z</time>
      </trkpt>
      <trkpt lat="47.91737" lon="6.9775">
        <ele>593.1</ele>
        <time>2019-09-17T11:58:05Z</time>
      </trkpt>
      <trkpt lat="47.91738" lon="6.97745">
        <ele>593.5</ele>
        <time>2019-09-17T11:58:07Z</time>
      </trkpt>
      <trkpt lat="47.9174" lon="6.97742">
        <ele>593.9</ele>
        <time>2019-09-17T11:58:09Z</time>
      </trkpt>
      <trkpt lat="47.91743" lon="6.97737">
        <ele>594.6</ele>
        <time>2019-09-17T11:58:12Z</time>
      </trkpt>
      <trkpt lat="47.91744" lon="6.97734">
        <ele>595.2</ele>
        <time>2019-09-17T11:58:14Z</time>
      </trkpt>
      <trkpt lat="47.91746" lon="6.97731">
        <ele>595.8</ele>
        <time>2019-09-17T11:58:17Z</time>
      </trkpt>
      <trkpt lat="47.91748" lon="6.97728">
        <ele>596.4</ele>
        <time>2019-09-17T11:58:19Z</time>
      </trkpt>
      <trkpt lat="47.91751" lon="6.97724">
        <ele>597.2</ele>
        <time>2019-09-17T11:58:22Z</time>
      </trkpt>
      <trkpt lat="47.91752" lon="6.97719">
        <ele>598.7</ele>
        <time>2019-09-17T11:58:25Z</time>
      </trkpt>
      <trkpt lat="47.91754" lon="6.97714">
        <ele>600.3</ele>
        <time>2019-09-17T11:58:28Z</time>
      </trkpt>
      <trkpt lat="47.91757" lon="6.97711">
        <ele>601.1</ele>
        <time>2019-09-17T11:58:31Z</time>
      </trkpt>
      <trkpt lat="47.91758" lon="6.97715">
        <ele>601.9</ele>
        <time>2019-09-17T11:58:34Z</time>
      </trkpt>
      <trkpt lat="47.9176" lon="6.97719">
        <ele>602.8</ele>
        <time>2019-09-17T11:58:37Z</time>
      </trkpt>
      <trkpt lat="47.91762" lon="6.97721">
        <ele>603.7</ele>
        <time>2019-09-17T11:58:39Z</time>
      </trkpt>
      <trkpt lat="47.91764" lon="6.97725">
        <ele>604.1</ele>
        <time>2019-09-17T11:58:42Z</time>
      </trkpt>
      <trkpt lat="47.91767" lon="6.97728">
        <ele>604.2</ele>
        <time>2019-09-17T11:58:45Z</time>
      </trkpt>
      <trkpt lat="47.9177" lon="6.9773">
        <ele>604.3</ele>
        <time>2019-09-17T11:58:48Z</time>
      </trkpt>
      <trkpt lat="47.91773" lon="6.97733">
        <ele>604.2</ele>
        <time>2019-09-17T11:58:51Z</time>
      </trkpt>
      <trkpt lat="47.91775" lon="6.97736">
        <ele>604.2</ele>
        <time>2019-09-17T11:58:54Z</time>
      </trkpt>
      <trkpt lat="47.91777" lon="6.97741">
        <ele>605.2</ele>
        <time>2019-09-17T11:58:57Z</time>
      </trkpt>
      <trkpt lat="47.91779" lon="6.97744">
        <ele>606.2</ele>
        <time>2019-09-17T11:59:00Z</time>
      </trkpt>
      <trkpt lat="47.91781" lon="6.97747">
        <ele>607.3</ele>
        <time>2019-09-17T11:59:05Z</time>
      </trkpt>
      <trkpt lat="47.91778" lon="6.97744">
        <ele>606.3</ele>
        <time>2019-09-17T11:59:12Z</time>
      </trkpt>
      <trkpt lat="47.91776" lon="6.97741">
        <ele>605.5</ele>
        <time>2019-09-17T11:59:16Z</time>
      </trkpt>
      <trkpt lat="47.91775" lon="6.97737">
        <ele>604.5</ele>
        <time>2019-09-17T11:59:25Z</time>
      </trkpt>
      <trkpt lat="47.91773" lon="6.97733">
        <ele>604.7</ele>
        <time>2019-09-17T11:59:33Z</time>
      </trkpt>
      <trkpt lat="47.91774" lon="6.97729">
        <ele>604.8</ele>
        <time>2019-09-17T11:59:40Z</time>
      </trkpt>
      <trkpt lat="47.91777" lon="6.97726">
        <ele>605.9</ele>
        <time>2019-09-17T11:59:43Z</time>
      </trkpt>
      <trkpt lat="47.91779" lon="6.97723">
        <ele>607.1</ele>
        <time>2019-09-17T11:59:46Z</time>
      </trkpt>
      <trkpt lat="47.9178" lon="6.97727">
        <ele>607.2</ele>
        <time>2019-09-17T11:59:49Z</time>
      </trkpt>
      <trkpt lat="47.91781" lon="6.97731">
        <ele>607.2</ele>
        <time>2019-09-17T11:59:52Z</time>
      </trkpt>
      <trkpt lat="47.91784" lon="6.97734">
        <ele>608.4</ele>
        <time>2019-09-17T11:59:56Z</time>
      </trkpt>
      <trkpt lat="47.91787" lon="6.97733">
        <ele>610.5</ele>
        <time>2019-09-17T11:59:59Z</time>
      </trkpt>
      <trkpt lat="47.91787" lon="6.97728">
        <ele>610.6</ele>
        <time>2019-09-17T12:00:02Z</time>
      </trkpt>
      <trkpt lat="47.91788" lon="6.97723">
        <ele>610.7</ele>
        <time>2019-09-17T12:00:07Z</time>
      </trkpt>
      <trkpt lat="47.91789" lon="6.9772">
        <ele>610.7</ele>
        <time>2019-09-17T12:00:10Z</time>
      </trkpt>
      <trkpt lat="47.91793" lon="6.97722">
        <ele>612.7</ele>
        <time>2019-09-17T12:00:13Z</time>
      </trkpt>
      <trkpt lat="47.91797" lon="6.97722">
        <ele>613.7</ele>
        <time>2019-09-17T12:00:16Z</time>
      </trkpt>
      <trkpt lat="47.918" lon="6.97721">
        <ele>614.8</ele>
        <time>2019-09-17T12:00:19Z</time>
      </trkpt>
      <trkpt lat="47.91802" lon="6.97723">
        <ele>615.9</ele>
        <time>2019-09-17T12:00:24Z</time>
      </trkpt>
      <trkpt lat="47.91802" lon="6.97728">
        <ele>615.8</ele>
        <time>2019-09-17T12:00:29Z</time>
      </trkpt>
      <trkpt lat="47.91801" lon="6.97723">
        <ele>616</ele>
        <time>2019-09-17T12:00:34Z</time>
      </trkpt>
      <trkpt lat="47.91802" lon="6.97719">
        <ele>616.1</ele>
        <time>2019-09-17T12:00:38Z</time>
      </trkpt>
      <trkpt lat="47.91802" lon="6.97713">
        <ele>616.2</ele>
        <time>2019-09-17T12:00:42Z</time>
      </trkpt>
      <trkpt lat="47.91803" lon="6.97709">
        <ele>616.1</ele>
        <time>2019-09-17T12:00:46Z</time>
      </trkpt>
      <trkpt lat="47.91805" lon="6.97706">
        <ele>617.4</ele>
        <time>2019-09-17T12:00:50Z</time>
      </trkpt>
      <trkpt lat="47.91807" lon="6.97703">
        <ele>617.4</ele>
        <time>2019-09-17T12:00:53Z</time>
      </trkpt>
      <trkpt lat="47.91809" lon="6.97701">
        <ele>618.7</ele>
        <time>2019-09-17T12:00:56Z</time>
      </trkpt>
      <trkpt lat="47.91813" lon="6.977">
        <ele>619.8</ele>
        <time>2019-09-17T12:00:59Z</time>
      </trkpt>
      <trkpt lat="47.91816" lon="6.97701">
        <ele>622.2</ele>
        <time>2019-09-17T12:01:01Z</time>
      </trkpt>
      <trkpt lat="47.91819" lon="6.97703">
        <ele>623.2</ele>
        <time>2019-09-17T12:01:03Z</time>
      </trkpt>
      <trkpt lat="47.91821" lon="6.97705">
        <ele>624.3</ele>
        <time>2019-09-17T12:01:05Z</time>
      </trkpt>
      <trkpt lat="47.91824" lon="6.97707">
        <ele>624.4</ele>
        <time>2019-09-17T12:01:08Z</time>
      </trkpt>
      <trkpt lat="47.91825" lon="6.97711">
        <ele>625.4</ele>
        <time>2019-09-17T12:01:11Z</time>
      </trkpt>
      <trkpt lat="47.91825" lon="6.97715">
        <ele>625.3</ele>
        <time>2019-09-17T12:01:14Z</time>
      </trkpt>
      <trkpt lat="47.91824" lon="6.97719">
        <ele>624.2</ele>
        <time>2019-09-17T12:01:18Z</time>
      </trkpt>
      <trkpt lat="47.91822" lon="6.97723">
        <ele>624</ele>
        <time>2019-09-17T12:01:21Z</time>
      </trkpt>
      <trkpt lat="47.9182" lon="6.97728">
        <ele>622.9</ele>
        <time>2019-09-17T12:01:24Z</time>
      </trkpt>
      <trkpt lat="47.91821" lon="6.97732">
        <ele>622.7</ele>
        <time>2019-09-17T12:01:29Z</time>
      </trkpt>
      <trkpt lat="47.91824" lon="6.97735">
        <ele>623.7</ele>
        <time>2019-09-17T12:01:32Z</time>
      </trkpt>
      <trkpt lat="47.91827" lon="6.97737">
        <ele>624.4</ele>
        <time>2019-09-17T12:01:35Z</time>
      </trkpt>
      <trkpt lat="47.91829" lon="6.9774">
        <ele>625.1</ele>
        <time>2019-09-17T12:01:38Z</time>
      </trkpt>
      <trkpt lat="47.91831" lon="6.97744">
        <ele>625.8</ele>
        <time>2019-09-17T12:01:43Z</time>
      </trkpt>
      <trkpt lat="47.91831" lon="6.97748">
        <ele>625.3</ele>
        <time>2019-09-17T12:01:48Z</time>
      </trkpt>
      <trkpt lat="47.91829" lon="6.97745">
        <ele>624.8</ele>
        <time>2019-09-17T12:01:59Z</time>
      </trkpt>
      <trkpt lat="47.91829" lon="6.9774">
        <ele>625.3</ele>
        <time>2019-09-17T12:02:01Z</time>
      </trkpt>
      <trkpt lat="47.91829" lon="6.97735">
        <ele>625.8</ele>
        <time>2019-09-17T12:02:04Z</time>
      </trkpt>
      <trkpt lat="47.91829" lon="6.97731">
        <ele>626.2</ele>
        <time>2019-09-17T12:02:08Z</time>
      </trkpt>
      <trkpt lat="47.9183" lon="6.97726">
        <ele>627.7</ele>
        <time>2019-09-17T12:02:12Z</time>
      </trkpt>
      <trkpt lat="47.91832" lon="6.9772">
        <ele>628.3</ele>
        <time>2019-09-17T12:02:14Z</time>
      </trkpt>
      <trkpt lat="47.91833" lon="6.97715">
        <ele>629.7</ele>
        <time>2019-09-17T12:02:16Z</time>
      </trkpt>
      <trkpt lat="47.91833" lon="6.97709">
        <ele>629.9</ele>
        <time>2019-09-17T12:02:18Z</time>
      </trkpt>
      <trkpt lat="47.91834" lon="6.97704">
        <ele>630.1</ele>
        <time>2019-09-17T12:02:21Z</time>
      </trkpt>
      <trkpt lat="47.91834" lon="6.977">
        <ele>630.1</ele>
        <time>2019-09-17T12:02:24Z</time>
      </trkpt>
      <trkpt lat="47.91834" lon="6.97695">
        <ele>630.1</ele>
        <time>2019-09-17T12:02:27Z</time>
      </trkpt>
      <trkpt lat="47.91834" lon="6.9769">
        <ele>630</ele>
        <time>2019-09-17T12:02:30Z</time>
      </trkpt>
      <trkpt lat="47.91835" lon="6.97685">
        <ele>629.8</ele>
        <time>2019-09-17T12:02:32Z</time>
      </trkpt>
      <trkpt lat="47.91836" lon="6.97679">
        <ele>630.9</ele>
        <time>2019-09-17T12:02:35Z</time>
      </trkpt>
      <trkpt lat="47.91837" lon="6.97675">
        <ele>630.1</ele>
        <time>2019-09-17T12:02:37Z</time>
      </trkpt>
      <trkpt lat="47.91838" lon="6.9767">
        <ele>629.5</ele>
        <time>2019-09-17T12:02:41Z</time>
      </trkpt>
      <trkpt lat="47.91841" lon="6.97667">
        <ele>630.9</ele>
        <time>2019-09-17T12:02:44Z</time>
      </trkpt>
      <trkpt lat="47.91842" lon="6.97663">
        <ele>631.6</ele>
        <time>2019-09-17T12:02:47Z</time>
      </trkpt>
      <trkpt lat="47.91845" lon="6.97665">
        <ele>633</ele>
        <time>2019-09-17T12:02:50Z</time>
      </trkpt>
      <trkpt lat="47.91848" lon="6.97667">
        <ele>634.9</ele>
        <time>2019-09-17T12:02:53Z</time>
      </trkpt>
      <trkpt lat="47.91851" lon="6.97671">
        <ele>636.7</ele>
        <time>2019-09-17T12:02:56Z</time>
      </trkpt>
      <trkpt lat="47.91854" lon="6.97674">
        <ele>638</ele>
        <time>2019-09-17T12:03:01Z</time>
      </trkpt>
      <trkpt lat="47.91855" lon="6.97678">
        <ele>638.4</ele>
        <time>2019-09-17T12:03:05Z</time>
      </trkpt>
      <trkpt lat="47.91856" lon="6.97682">
        <ele>639.9</ele>
        <time>2019-09-17T12:03:07Z</time>
      </trkpt>
      <trkpt lat="47.91857" lon="6.97687">
        <ele>640.1</ele>
        <time>2019-09-17T12:03:10Z</time>
      </trkpt>
      <trkpt lat="47.91857" lon="6.97691">
        <ele>640.1</ele>
        <time>2019-09-17T12:03:14Z</time>
      </trkpt>
      <trkpt lat="47.91858" lon="6.97696">
        <ele>640.1</ele>
        <time>2019-09-17T12:03:17Z</time>
      </trkpt>
      <trkpt lat="47.9186" lon="6.977">
        <ele>641.3</ele>
        <time>2019-09-17T12:03:22Z</time>
      </trkpt>
      <trkpt lat="47.91861" lon="6.97703">
        <ele>641.1</ele>
        <time>2019-09-17T12:03:25Z</time>
      </trkpt>
      <trkpt lat="47.91863" lon="6.97708">
        <ele>642.2</ele>
        <time>2019-09-17T12:03:28Z</time>
      </trkpt>
      <trkpt lat="47.91862" lon="6.97713">
        <ele>642</ele>
        <time>2019-09-17T12:03:33Z</time>
      </trkpt>
      <trkpt lat="47.9186" lon="6.97717">
        <ele>640.5</ele>
        <time>2019-09-17T12:03:36Z</time>
      </trkpt>
      <trkpt lat="47.9186" lon="6.97712">
        <ele>640.9</ele>
        <time>2019-09-17T12:03:53Z</time>
      </trkpt>
      <trkpt lat="47.91863" lon="6.97709">
        <ele>642.1</ele>
        <time>2019-09-17T12:03:58Z</time>
      </trkpt>
      <trkpt lat="47.91865" lon="6.97707">
        <ele>643.8</ele>
        <time>2019-09-17T12:04:01Z</time>
      </trkpt>
      <trkpt lat="47.91868" lon="6.97705">
        <ele>645.4</ele>
        <time>2019-09-17T12:04:07Z</time>
      </trkpt>
      <trkpt lat="47.91868" lon="6.97699">
        <ele>645.7</ele>
        <time>2019-09-17T12:04:11Z</time>
      </trkpt>
      <trkpt lat="47.91868" lon="6.97694">
        <ele>645.9</ele>
        <time>2019-09-17T12:04:14Z</time>
      </trkpt>
      <trkpt lat="47.91868" lon="6.97689">
        <ele>646.1</ele>
        <time>2019-09-17T12:04:17Z</time>
      </trkpt>
      <trkpt lat="47.91871" lon="6.97687">
        <ele>647.5</ele>
        <time>2019-09-17T12:04:20Z</time>
      </trkpt>
      <trkpt lat="47.91874" lon="6.97688">
        <ele>648.7</ele>
        <time>2019-09-17T12:04:23Z</time>
      </trkpt>
      <trkpt lat="47.91876" lon="6.9769">
        <ele>649.8</ele>
        <time>2019-09-17T12:04:25Z</time>
      </trkpt>
      <trkpt lat="47.91879" lon="6.97693">
        <ele>650.8</ele>
        <time>2019-09-17T12:04:28Z</time>
      </trkpt>
      <trkpt lat="47.91882" lon="6.97697">
        <ele>651.9</ele>
        <time>2019-09-17T12:04:31Z</time>
      </trkpt>
      <trkpt lat="47.91882" lon="6.97702">
        <ele>651.6</ele>
        <time>2019-09-17T12:04:40Z</time>
      </trkpt>
      <trkpt lat="47.9188" lon="6.97697">
        <ele>650.8</ele>
        <time>2019-09-17T12:04:54Z</time>
      </trkpt>
      <trkpt lat="47.9188" lon="6.97693">
        <ele>651.1</ele>
        <time>2019-09-17T12:04:57Z</time>
      </trkpt>
      <trkpt lat="47.91881" lon="6.97688">
        <ele>651.3</ele>
        <time>2019-09-17T12:05:01Z</time>
      </trkpt>
      <trkpt lat="47.9188" lon="6.97684">
        <ele>651.5</ele>
        <time>2019-09-17T12:05:05Z</time>
      </trkpt>
      <trkpt lat="47.9188" lon="6.97678">
        <ele>651.6</ele>
        <time>2019-09-17T12:05:08Z</time>
      </trkpt>
      <trkpt lat="47.9188" lon="6.97673">
        <ele>651.5</ele>
        <time>2019-09-17T12:05:11Z</time>
      </trkpt>
      <trkpt lat="47.91879" lon="6.97667">
        <ele>651.4</ele>
        <time>2019-09-17T12:05:14Z</time>
      </trkpt>
      <trkpt lat="47.91878" lon="6.9766">
        <ele>651.1</ele>
        <time>2019-09-17T12:05:16Z</time>
      </trkpt>
      <trkpt lat="47.91877" lon="6.97654">
        <ele>650.6</ele>
        <time>2019-09-17T12:05:18Z</time>
      </trkpt>
      <trkpt lat="47.91877" lon="6.9765">
        <ele>650.2</ele>
        <time>2019-09-17T12:05:20Z</time>
      </trkpt>
      <trkpt lat="47.91878" lon="6.97645">
        <ele>649.8</ele>
        <time>2019-09-17T12:05:23Z</time>
      </trkpt>
      <trkpt lat="47.9188" lon="6.97641">
        <ele>649.9</ele>
        <time>2019-09-17T12:05:26Z</time>
      </trkpt>
      <trkpt lat="47.91882" lon="6.97638">
        <ele>649.9</ele>
        <time>2019-09-17T12:05:28Z</time>
      </trkpt>
      <trkpt lat="47.91884" lon="6.97635">
        <ele>650</ele>
        <time>2019-09-17T12:05:30Z</time>
      </trkpt>
      <trkpt lat="47.91887" lon="6.97632">
        <ele>649.7</ele>
        <time>2019-09-17T12:05:35Z</time>
      </trkpt>
      <trkpt lat="47.91889" lon="6.97628">
        <ele>649.3</ele>
        <time>2019-09-17T12:05:39Z</time>
      </trkpt>
      <trkpt lat="47.9189" lon="6.97624">
        <ele>648.9</ele>
        <time>2019-09-17T12:05:41Z</time>
      </trkpt>
      <trkpt lat="47.91892" lon="6.9762">
        <ele>648.5</ele>
        <time>2019-09-17T12:05:43Z</time>
      </trkpt>
      <trkpt lat="47.91894" lon="6.97615">
        <ele>647.3</ele>
        <time>2019-09-17T12:05:46Z</time>
      </trkpt>
      <trkpt lat="47.91894" lon="6.9761">
        <ele>646.3</ele>
        <time>2019-09-17T12:05:50Z</time>
      </trkpt>
      <trkpt lat="47.91895" lon="6.97606">
        <ele>645.4</ele>
        <time>2019-09-17T12:05:55Z</time>
      </trkpt>
      <trkpt lat="47.91894" lon="6.976">
        <ele>644.2</ele>
        <time>2019-09-17T12:05:58Z</time>
      </trkpt>
      <trkpt lat="47.91892" lon="6.97596">
        <ele>643.2</ele>
        <time>2019-09-17T12:06:00Z</time>
      </trkpt>
      <trkpt lat="47.9189" lon="6.97592">
        <ele>642.3</ele>
        <time>2019-09-17T12:06:02Z</time>
      </trkpt>
      <trkpt lat="47.91889" lon="6.97587">
        <ele>641.2</ele>
        <time>2019-09-17T12:06:05Z</time>
      </trkpt>
      <trkpt lat="47.91886" lon="6.97584">
        <ele>640.3</ele>
        <time>2019-09-17T12:06:08Z</time>
      </trkpt>
      <trkpt lat="47.91885" lon="6.9758">
        <ele>639.2</ele>
        <time>2019-09-17T12:06:11Z</time>
      </trkpt>
      <trkpt lat="47.91884" lon="6.97575">
        <ele>638.4</ele>
        <time>2019-09-17T12:06:14Z</time>
      </trkpt>
      <trkpt lat="47.91886" lon="6.97571">
        <ele>637.4</ele>
        <time>2019-09-17T12:06:17Z</time>
      </trkpt>
      <trkpt lat="47.91887" lon="6.97565">
        <ele>636.2</ele>
        <time>2019-09-17T12:06:20Z</time>
      </trkpt>
      <trkpt lat="47.91888" lon="6.97561">
        <ele>635.3</ele>
        <time>2019-09-17T12:06:22Z</time>
      </trkpt>
      <trkpt lat="47.9189" lon="6.97557">
        <ele>634.3</ele>
        <time>2019-09-17T12:06:25Z</time>
      </trkpt>
      <trkpt lat="47.9189" lon="6.97553">
        <ele>633.5</ele>
        <time>2019-09-17T12:06:28Z</time>
      </trkpt>
      <trkpt lat="47.9189" lon="6.97557">
        <ele>632.6</ele>
        <time>2019-09-17T12:07:34Z</time>
      </trkpt>
      <trkpt lat="47.91892" lon="6.97561">
        <ele>631.6</ele>
        <time>2019-09-17T12:08:11Z</time>
      </trkpt>
      <trkpt lat="47.91889" lon="6.97563">
        <ele>630.7</ele>
        <time>2019-09-17T12:08:19Z</time>
      </trkpt>
      <trkpt lat="47.91888" lon="6.97567">
        <ele>631.9</ele>
        <time>2019-09-17T12:08:24Z</time>
      </trkpt>
      <trkpt lat="47.9189" lon="6.97571">
        <ele>633.4</ele>
        <time>2019-09-17T12:08:28Z</time>
      </trkpt>
      <trkpt lat="47.91891" lon="6.97575">
        <ele>634.7</ele>
        <time>2019-09-17T12:08:35Z</time>
      </trkpt>
      <trkpt lat="47.91893" lon="6.97578">
        <ele>635.9</ele>
        <time>2019-09-17T12:08:40Z</time>
      </trkpt>
      <trkpt lat="47.91895" lon="6.97583">
        <ele>637.4</ele>
        <time>2019-09-17T12:08:43Z</time>
      </trkpt>
      <trkpt lat="47.91896" lon="6.97587">
        <ele>638.8</ele>
        <time>2019-09-17T12:08:48Z</time>
      </trkpt>
      <trkpt lat="47.91898" lon="6.97591">
        <ele>640</ele>
        <time>2019-09-17T12:08:51Z</time>
      </trkpt>
      <trkpt lat="47.91897" lon="6.97597">
        <ele>641.8</ele>
        <time>2019-09-17T12:08:54Z</time>
      </trkpt>
      <trkpt lat="47.91897" lon="6.97601">
        <ele>643.2</ele>
        <time>2019-09-17T12:08:56Z</time>
      </trkpt>
      <trkpt lat="47.91897" lon="6.97605">
        <ele>644.4</ele>
        <time>2019-09-17T12:08:58Z</time>
      </trkpt>
      <trkpt lat="47.91899" lon="6.97607">
        <ele>645.6</ele>
        <time>2019-09-17T12:09:02Z</time>
      </trkpt>
      <trkpt lat="47.91902" lon="6.97607">
        <ele>647.6</ele>
        <time>2019-09-17T12:09:08Z</time>
      </trkpt>
      <trkpt lat="47.91906" lon="6.97609">
        <ele>647.9</ele>
        <time>2019-09-17T12:09:13Z</time>
      </trkpt>
      <trkpt lat="47.91909" lon="6.97611">
        <ele>648.4</ele>
        <time>2019-09-17T12:09:16Z</time>
      </trkpt>
      <trkpt lat="47.91913" lon="6.97612">
        <ele>648.8</ele>
        <time>2019-09-17T12:09:19Z</time>
      </trkpt>
      <trkpt lat="47.91916" lon="6.97611">
        <ele>649.1</ele>
        <time>2019-09-17T12:09:21Z</time>
      </trkpt>
      <trkpt lat="47.91919" lon="6.97609">
        <ele>649.5</ele>
        <time>2019-09-17T12:09:24Z</time>
      </trkpt>
      <trkpt lat="47.91923" lon="6.97608">
        <ele>649.8</ele>
        <time>2019-09-17T12:09:27Z</time>
      </trkpt>
      <trkpt lat="47.91925" lon="6.97606">
        <ele>650.1</ele>
        <time>2019-09-17T12:09:31Z</time>
      </trkpt>
      <trkpt lat="47.91927" lon="6.97601">
        <ele>650.3</ele>
        <time>2019-09-17T12:09:35Z</time>
      </trkpt>
      <trkpt lat="47.91928" lon="6.97596">
        <ele>650.6</ele>
        <time>2019-09-17T12:09:38Z</time>
      </trkpt>
      <trkpt lat="47.91929" lon="6.97591">
        <ele>650.9</ele>
        <time>2019-09-17T12:09:42Z</time>
      </trkpt>
      <trkpt lat="47.91932" lon="6.9759">
        <ele>651.1</ele>
        <time>2019-09-17T12:09:45Z</time>
      </trkpt>
      <trkpt lat="47.91936" lon="6.97587">
        <ele>651.3</ele>
        <time>2019-09-17T12:09:48Z</time>
      </trkpt>
      <trkpt lat="47.91939" lon="6.97585">
        <ele>651.5</ele>
        <time>2019-09-17T12:09:50Z</time>
      </trkpt>
      <trkpt lat="47.91942" lon="6.97583">
        <ele>651.7</ele>
        <time>2019-09-17T12:09:52Z</time>
      </trkpt>
      <trkpt lat="47.91945" lon="6.9758">
        <ele>652</ele>
        <time>2019-09-17T12:09:54Z</time>
      </trkpt>
      <trkpt lat="47.91948" lon="6.97578">
        <ele>652.1</ele>
        <time>2019-09-17T12:09:56Z</time>
      </trkpt>
      <trkpt lat="47.91951" lon="6.97575">
        <ele>652.3</ele>
        <time>2019-09-17T12:09:59Z</time>
      </trkpt>
      <trkpt lat="47.91955" lon="6.97573">
        <ele>652.5</ele>
        <time>2019-09-17T12:10:02Z</time>
      </trkpt>
      <trkpt lat="47.91957" lon="6.97571">
        <ele>652.6</ele>
        <time>2019-09-17T12:10:04Z</time>
      </trkpt>
      <trkpt lat="47.91961" lon="6.97569">
        <ele>652.8</ele>
        <time>2019-09-17T12:10:07Z</time>
      </trkpt>
      <trkpt lat="47.91965" lon="6.97566">
        <ele>653</ele>
        <time>2019-09-17T12:10:10Z</time>
      </trkpt>
      <trkpt lat="47.91968" lon="6.97565">
        <ele>653.2</ele>
        <time>2019-09-17T12:10:12Z</time>
      </trkpt>
      <trkpt lat="47.91972" lon="6.97564">
        <ele>653.4</ele>
        <time>2019-09-17T12:10:14Z</time>
      </trkpt>
      <trkpt lat="47.91975" lon="6.97563">
        <ele>653.6</ele>
        <time>2019-09-17T12:10:16Z</time>
      </trkpt>
      <trkpt lat="47.91978" lon="6.97561">
        <ele>653.9</ele>
        <time>2019-09-17T12:10:19Z</time>
      </trkpt>
      <trkpt lat="47.91981" lon="6.97559">
        <ele>654.1</ele>
        <time>2019-09-17T12:10:22Z</time>
      </trkpt>
      <trkpt lat="47.91984" lon="6.97558">
        <ele>654.3</ele>
        <time>2019-09-17T12:10:25Z</time>
      </trkpt>
      <trkpt lat="47.91987" lon="6.97556">
        <ele>654.5</ele>
        <time>2019-09-17T12:10:28Z</time>
      </trkpt>
      <trkpt lat="47.91991" lon="6.97555">
        <ele>654.7</ele>
        <time>2019-09-17T12:10:31Z</time>
      </trkpt>
      <trkpt lat="47.91993" lon="6.97553">
        <ele>654.9</ele>
        <time>2019-09-17T12:10:33Z</time>
      </trkpt>
      <trkpt lat="47.91996" lon="6.97552">
        <ele>655.1</ele>
        <time>2019-09-17T12:10:35Z</time>
      </trkpt>
      <trkpt lat="47.92" lon="6.9755">
        <ele>655.3</ele>
        <time>2019-09-17T12:10:37Z</time>
      </trkpt>
      <trkpt lat="47.92002" lon="6.97548">
        <ele>655.5</ele>
        <time>2019-09-17T12:10:39Z</time>
      </trkpt>
      <trkpt lat="47.92005" lon="6.97547">
        <ele>655.7</ele>
        <time>2019-09-17T12:10:41Z</time>
      </trkpt>
      <trkpt lat="47.92007" lon="6.97544">
        <ele>655.9</ele>
        <time>2019-09-17T12:10:43Z</time>
      </trkpt>
      <trkpt lat="47.9201" lon="6.9754">
        <ele>656.1</ele>
        <time>2019-09-17T12:10:46Z</time>
      </trkpt>
      <trkpt lat="47.92012" lon="6.97536">
        <ele>656.3</ele>
        <time>2019-09-17T12:10:50Z</time>
      </trkpt>
      <trkpt lat="47.92015" lon="6.97533">
        <ele>656.4</ele>
        <time>2019-09-17T12:10:54Z</time>
      </trkpt>
      <trkpt lat="47.92017" lon="6.97529">
        <ele>656.5</ele>
        <time>2019-09-17T12:10:58Z</time>
      </trkpt>
      <trkpt lat="47.92019" lon="6.97533">
        <ele>656.6</ele>
        <time>2019-09-17T12:11:02Z</time>
      </trkpt>
      <trkpt lat="47.92023" lon="6.97533">
        <ele>656.7</ele>
        <time>2019-09-17T12:11:05Z</time>
      </trkpt>
      <trkpt lat="47.92029" lon="6.97534">
        <ele>656.9</ele>
        <time>2019-09-17T12:11:07Z</time>
      </trkpt>
      <trkpt lat="47.92032" lon="6.97534">
        <ele>657</ele>
        <time>2019-09-17T12:11:08Z</time>
      </trkpt>
      <trkpt lat="47.92037" lon="6.97534">
        <ele>657.2</ele>
        <time>2019-09-17T12:11:10Z</time>
      </trkpt>
      <trkpt lat="47.92041" lon="6.97534">
        <ele>657.3</ele>
        <time>2019-09-17T12:11:12Z</time>
      </trkpt>
      <trkpt lat="47.92044" lon="6.97534">
        <ele>657.3</ele>
        <time>2019-09-17T12:11:14Z</time>
      </trkpt>
      <trkpt lat="47.92047" lon="6.97534">
        <ele>657.4</ele>
        <time>2019-09-17T12:11:17Z</time>
      </trkpt>
      <trkpt lat="47.9205" lon="6.97535">
        <ele>657.5</ele>
        <time>2019-09-17T12:11:20Z</time>
      </trkpt>
      <trkpt lat="47.92053" lon="6.97536">
        <ele>657.6</ele>
        <time>2019-09-17T12:11:22Z</time>
      </trkpt>
      <trkpt lat="47.92056" lon="6.97537">
        <ele>657.7</ele>
        <time>2019-09-17T12:11:25Z</time>
      </trkpt>
      <trkpt lat="47.92059" lon="6.97537">
        <ele>657.8</ele>
        <time>2019-09-17T12:11:30Z</time>
      </trkpt>
      <trkpt lat="47.92062" lon="6.97537">
        <ele>657.9</ele>
        <time>2019-09-17T12:11:33Z</time>
      </trkpt>
      <trkpt lat="47.92066" lon="6.97537">
        <ele>658.1</ele>
        <time>2019-09-17T12:11:37Z</time>
      </trkpt>
      <trkpt lat="47.92069" lon="6.97537">
        <ele>658.2</ele>
        <time>2019-09-17T12:11:39Z</time>
      </trkpt>
      <trkpt lat="47.92073" lon="6.97538">
        <ele>658.4</ele>
        <time>2019-09-17T12:11:41Z</time>
      </trkpt>
      <trkpt lat="47.92077" lon="6.97538">
        <ele>658.6</ele>
        <time>2019-09-17T12:11:43Z</time>
      </trkpt>
      <trkpt lat="47.9208" lon="6.97538">
        <ele>658.8</ele>
        <time>2019-09-17T12:11:45Z</time>
      </trkpt>
      <trkpt lat="47.92084" lon="6.97538">
        <ele>659</ele>
        <time>2019-09-17T12:11:48Z</time>
      </trkpt>
      <trkpt lat="47.92088" lon="6.97539">
        <ele>659.3</ele>
        <time>2019-09-17T12:11:51Z</time>
      </trkpt>
      <trkpt lat="47.92092" lon="6.97539">
        <ele>659.6</ele>
        <time>2019-09-17T12:11:54Z</time>
      </trkpt>
      <trkpt lat="47.92096" lon="6.97539">
        <ele>659.9</ele>
        <time>2019-09-17T12:11:56Z</time>
      </trkpt>
      <trkpt lat="47.92101" lon="6.97538">
        <ele>660.2</ele>
        <time>2019-09-17T12:11:58Z</time>
      </trkpt>
      <trkpt lat="47.92104" lon="6.97538">
        <ele>660.4</ele>
        <time>2019-09-17T12:12:00Z</time>
      </trkpt>
      <trkpt lat="47.92107" lon="6.97539">
        <ele>660.5</ele>
        <time>2019-09-17T12:12:02Z</time>
      </trkpt>
      <trkpt lat="47.92111" lon="6.9754">
        <ele>660.7</ele>
        <time>2019-09-17T12:12:05Z</time>
      </trkpt>
      <trkpt lat="47.92114" lon="6.9754">
        <ele>660.9</ele>
        <time>2019-09-17T12:12:07Z</time>
      </trkpt>
      <trkpt lat="47.92118" lon="6.97541">
        <ele>661.2</ele>
        <time>2019-09-17T12:12:10Z</time>
      </trkpt>
      <trkpt lat="47.92121" lon="6.97542">
        <ele>661.5</ele>
        <time>2019-09-17T12:12:13Z</time>
      </trkpt>
      <trkpt lat="47.92124" lon="6.97544">
        <ele>661.8</ele>
        <time>2019-09-17T12:12:16Z</time>
      </trkpt>
      <trkpt lat="47.92128" lon="6.97547">
        <ele>662.1</ele>
        <time>2019-09-17T12:12:19Z</time>
      </trkpt>
      <trkpt lat="47.92131" lon="6.9755">
        <ele>662.4</ele>
        <time>2019-09-17T12:12:22Z</time>
      </trkpt>
      <trkpt lat="47.92134" lon="6.97552">
        <ele>662.7</ele>
        <time>2019-09-17T12:12:25Z</time>
      </trkpt>
      <trkpt lat="47.92137" lon="6.97554">
        <ele>663</ele>
        <time>2019-09-17T12:12:28Z</time>
      </trkpt>
      <trkpt lat="47.9214" lon="6.97555">
        <ele>663.3</ele>
        <time>2019-09-17T12:12:31Z</time>
      </trkpt>
      <trkpt lat="47.92143" lon="6.97556">
        <ele>663.6</ele>
        <time>2019-09-17T12:12:34Z</time>
      </trkpt>
      <trkpt lat="47.92147" lon="6.97557">
        <ele>664</ele>
        <time>2019-09-17T12:12:37Z</time>
      </trkpt>
      <trkpt lat="47.9215" lon="6.97558">
        <ele>664.3</ele>
        <time>2019-09-17T12:12:39Z</time>
      </trkpt>
      <trkpt lat="47.92153" lon="6.97559">
        <ele>664.7</ele>
        <time>2019-09-17T12:12:41Z</time>
      </trkpt>
      <trkpt lat="47.92156" lon="6.97562">
        <ele>665.1</ele>
        <time>2019-09-17T12:12:43Z</time>
      </trkpt>
      <trkpt lat="47.92159" lon="6.97566">
        <ele>665.6</ele>
        <time>2019-09-17T12:12:45Z</time>
      </trkpt>
      <trkpt lat="47.92162" lon="6.97569">
        <ele>666</ele>
        <time>2019-09-17T12:12:47Z</time>
      </trkpt>
      <trkpt lat="47.92164" lon="6.97571">
        <ele>666.3</ele>
        <time>2019-09-17T12:12:49Z</time>
      </trkpt>
      <trkpt lat="47.92167" lon="6.97573">
        <ele>666.7</ele>
        <time>2019-09-17T12:12:52Z</time>
      </trkpt>
      <trkpt lat="47.9217" lon="6.97576">
        <ele>667.1</ele>
        <time>2019-09-17T12:12:55Z</time>
      </trkpt>
      <trkpt lat="47.92173" lon="6.9758">
        <ele>667.6</ele>
        <time>2019-09-17T12:12:58Z</time>
      </trkpt>
      <trkpt lat="47.92176" lon="6.97583">
        <ele>668</ele>
        <time>2019-09-17T12:13:01Z</time>
      </trkpt>
      <trkpt lat="47.92179" lon="6.97585">
        <ele>668.4</ele>
        <time>2019-09-17T12:13:04Z</time>
      </trkpt>
      <trkpt lat="47.92181" lon="6.97588">
        <ele>668.7</ele>
        <time>2019-09-17T12:13:07Z</time>
      </trkpt>
      <trkpt lat="47.92184" lon="6.97591">
        <ele>669.1</ele>
        <time>2019-09-17T12:13:10Z</time>
      </trkpt>
      <trkpt lat="47.92186" lon="6.97594">
        <ele>669.4</ele>
        <time>2019-09-17T12:13:12Z</time>
      </trkpt>
      <trkpt lat="47.92189" lon="6.97597">
        <ele>669.7</ele>
        <time>2019-09-17T12:13:15Z</time>
      </trkpt>
      <trkpt lat="47.92193" lon="6.97599">
        <ele>670</ele>
        <time>2019-09-17T12:13:18Z</time>
      </trkpt>
      <trkpt lat="47.92195" lon="6.97602">
        <ele>670.3</ele>
        <time>2019-09-17T12:13:21Z</time>
      </trkpt>
      <trkpt lat="47.92197" lon="6.97605">
        <ele>670.6</ele>
        <time>2019-09-17T12:13:24Z</time>
      </trkpt>
      <trkpt lat="47.922" lon="6.97609">
        <ele>671</ele>
        <time>2019-09-17T12:13:27Z</time>
      </trkpt>
      <trkpt lat="47.92203" lon="6.97612">
        <ele>671.2</ele>
        <time>2019-09-17T12:13:29Z</time>
      </trkpt>
      <trkpt lat="47.92205" lon="6.97616">
        <ele>671.6</ele>
        <time>2019-09-17T12:13:32Z</time>
      </trkpt>
      <trkpt lat="47.92208" lon="6.97619">
        <ele>671.9</ele>
        <time>2019-09-17T12:13:35Z</time>
      </trkpt>
      <trkpt lat="47.9221" lon="6.97623">
        <ele>672.2</ele>
        <time>2019-09-17T12:13:38Z</time>
      </trkpt>
      <trkpt lat="47.92213" lon="6.97627">
        <ele>672.5</ele>
        <time>2019-09-17T12:13:40Z</time>
      </trkpt>
      <trkpt lat="47.92216" lon="6.9763">
        <ele>672.8</ele>
        <time>2019-09-17T12:13:42Z</time>
      </trkpt>
      <trkpt lat="47.92218" lon="6.97632">
        <ele>673.1</ele>
        <time>2019-09-17T12:13:44Z</time>
      </trkpt>
      <trkpt lat="47.92221" lon="6.97636">
        <ele>673.4</ele>
        <time>2019-09-17T12:13:46Z</time>
      </trkpt>
      <trkpt lat="47.92223" lon="6.97638">
        <ele>673.6</ele>
        <time>2019-09-17T12:13:48Z</time>
      </trkpt>
      <trkpt lat="47.92225" lon="6.97642">
        <ele>673.9</ele>
        <time>2019-09-17T12:13:50Z</time>
      </trkpt>
      <trkpt lat="47.92227" lon="6.97645">
        <ele>674.1</ele>
        <time>2019-09-17T12:13:52Z</time>
      </trkpt>
      <trkpt lat="47.92229" lon="6.97649">
        <ele>674.4</ele>
        <time>2019-09-17T12:13:54Z</time>
      </trkpt>
      <trkpt lat="47.92232" lon="6.97652">
        <ele>674.7</ele>
        <time>2019-09-17T12:13:56Z</time>
      </trkpt>
      <trkpt lat="47.92234" lon="6.97655">
        <ele>674.9</ele>
        <time>2019-09-17T12:13:58Z</time>
      </trkpt>
      <trkpt lat="47.92237" lon="6.97658">
        <ele>675.2</ele>
        <time>2019-09-17T12:14:00Z</time>
      </trkpt>
      <trkpt lat="47.9224" lon="6.9766">
        <ele>675.5</ele>
        <time>2019-09-17T12:14:03Z</time>
      </trkpt>
      <trkpt lat="47.92242" lon="6.97661">
        <ele>675.7</ele>
        <time>2019-09-17T12:14:06Z</time>
      </trkpt>
      <trkpt lat="47.92245" lon="6.97663">
        <ele>676</ele>
        <time>2019-09-17T12:14:09Z</time>
      </trkpt>
      <trkpt lat="47.92248" lon="6.97665">
        <ele>676.2</ele>
        <time>2019-09-17T12:14:11Z</time>
      </trkpt>
      <trkpt lat="47.92251" lon="6.97668">
        <ele>676.4</ele>
        <time>2019-09-17T12:14:13Z</time>
      </trkpt>
      <trkpt lat="47.92254" lon="6.9767">
        <ele>676.6</ele>
        <time>2019-09-17T12:14:15Z</time>
      </trkpt>
      <trkpt lat="47.92256" lon="6.97671">
        <ele>676.8</ele>
        <time>2019-09-17T12:14:17Z</time>
      </trkpt>
      <trkpt lat="47.92259" lon="6.97674">
        <ele>677</ele>
        <time>2019-09-17T12:14:19Z</time>
      </trkpt>
      <trkpt lat="47.9226" lon="6.97677">
        <ele>677.2</ele>
        <time>2019-09-17T12:14:21Z</time>
      </trkpt>
      <trkpt lat="47.92263" lon="6.97681">
        <ele>677.3</ele>
        <time>2019-09-17T12:14:24Z</time>
      </trkpt>
      <trkpt lat="47.92265" lon="6.97684">
        <ele>677.5</ele>
        <time>2019-09-17T12:14:27Z</time>
      </trkpt>
      <trkpt lat="47.92268" lon="6.97686">
        <ele>677.7</ele>
        <time>2019-09-17T12:14:30Z</time>
      </trkpt>
      <trkpt lat="47.92271" lon="6.9769">
        <ele>677.6</ele>
        <time>2019-09-17T12:14:33Z</time>
      </trkpt>
      <trkpt lat="47.92274" lon="6.97694">
        <ele>677.5</ele>
        <time>2019-09-17T12:14:35Z</time>
      </trkpt>
      <trkpt lat="47.92275" lon="6.97697">
        <ele>677.5</ele>
        <time>2019-09-17T12:14:37Z</time>
      </trkpt>
      <trkpt lat="47.92277" lon="6.977">
        <ele>677.4</ele>
        <time>2019-09-17T12:14:42Z</time>
      </trkpt>
      <trkpt lat="47.92277" lon="6.97704">
        <ele>677.3</ele>
        <time>2019-09-17T12:14:57Z</time>
      </trkpt>
      <trkpt lat="47.92273" lon="6.97705">
        <ele>677.2</ele>
        <time>2019-09-17T12:14:59Z</time>
      </trkpt>
      <trkpt lat="47.92271" lon="6.97704">
        <ele>677.1</ele>
        <time>2019-09-17T12:15:01Z</time>
      </trkpt>
      <trkpt lat="47.92267" lon="6.97704">
        <ele>677</ele>
        <time>2019-09-17T12:15:04Z</time>
      </trkpt>
      <trkpt lat="47.92264" lon="6.97704">
        <ele>676.9</ele>
        <time>2019-09-17T12:15:06Z</time>
      </trkpt>
      <trkpt lat="47.92261" lon="6.97705">
        <ele>676.8</ele>
        <time>2019-09-17T12:15:10Z</time>
      </trkpt>
      <trkpt lat="47.92257" lon="6.97704">
        <ele>676.7</ele>
        <time>2019-09-17T12:15:13Z</time>
      </trkpt>
      <trkpt lat="47.92254" lon="6.97704">
        <ele>676.6</ele>
        <time>2019-09-17T12:15:18Z</time>
      </trkpt>
      <trkpt lat="47.9225" lon="6.97705">
        <ele>676.5</ele>
        <time>2019-09-17T12:15:20Z</time>
      </trkpt>
      <trkpt lat="47.92246" lon="6.97706">
        <ele>676.4</ele>
        <time>2019-09-17T12:15:22Z</time>
      </trkpt>
      <trkpt lat="47.92243" lon="6.97708">
        <ele>676.3</ele>
        <time>2019-09-17T12:15:25Z</time>
      </trkpt>
      <trkpt lat="47.92246" lon="6.97708">
        <ele>676.2</ele>
        <time>2019-09-17T12:16:01Z</time>
      </trkpt>
      <trkpt lat="47.92249" lon="6.97707">
        <ele>676.1</ele>
        <time>2019-09-17T12:16:03Z</time>
      </trkpt>
      <trkpt lat="47.92253" lon="6.97707">
        <ele>676</ele>
        <time>2019-09-17T12:16:06Z</time>
      </trkpt>
      <trkpt lat="47.92256" lon="6.97706">
        <ele>676</ele>
        <time>2019-09-17T12:16:09Z</time>
      </trkpt>
      <trkpt lat="47.9226" lon="6.97705">
        <ele>675.9</ele>
        <time>2019-09-17T12:16:13Z</time>
      </trkpt>
      <trkpt lat="47.92263" lon="6.97705">
        <ele>675.8</ele>
        <time>2019-09-17T12:16:15Z</time>
      </trkpt>
      <trkpt lat="47.92265" lon="6.97704">
        <ele>675.7</ele>
        <time>2019-09-17T12:16:17Z</time>
      </trkpt>
      <trkpt lat="47.92268" lon="6.97703">
        <ele>675.6</ele>
        <time>2019-09-17T12:16:19Z</time>
      </trkpt>
      <trkpt lat="47.9227" lon="6.97706">
        <ele>675.5</ele>
        <time>2019-09-17T12:16:27Z</time>
      </trkpt>
      <trkpt lat="47.92273" lon="6.9771">
        <ele>675.4</ele>
        <time>2019-09-17T12:16:30Z</time>
      </trkpt>
      <trkpt lat="47.92276" lon="6.97708">
        <ele>675.3</ele>
        <time>2019-09-17T12:16:32Z</time>
      </trkpt>
      <trkpt lat="47.92278" lon="6.97704">
        <ele>675.2</ele>
        <time>2019-09-17T12:16:36Z</time>
      </trkpt>
      <trkpt lat="47.9228" lon="6.97701">
        <ele>675.1</ele>
        <time>2019-09-17T12:16:40Z</time>
      </trkpt>
      <trkpt lat="47.92283" lon="6.977">
        <ele>675</ele>
        <time>2019-09-17T12:16:43Z</time>
      </trkpt>
      <trkpt lat="47.92287" lon="6.97697">
        <ele>674.9</ele>
        <time>2019-09-17T12:16:46Z</time>
      </trkpt>
      <trkpt lat="47.9229" lon="6.97696">
        <ele>674.8</ele>
        <time>2019-09-17T12:16:48Z</time>
      </trkpt>
      <trkpt lat="47.92292" lon="6.97692">
        <ele>674.7</ele>
        <time>2019-09-17T12:16:52Z</time>
      </trkpt>
      <trkpt lat="47.92296" lon="6.9769">
        <ele>674.5</ele>
        <time>2019-09-17T12:16:55Z</time>
      </trkpt>
      <trkpt lat="47.92299" lon="6.9769">
        <ele>674.5</ele>
        <time>2019-09-17T12:16:57Z</time>
      </trkpt>
      <trkpt lat="47.92302" lon="6.97688">
        <ele>674.4</ele>
        <time>2019-09-17T12:17:00Z</time>
      </trkpt>
      <trkpt lat="47.92305" lon="6.97687">
        <ele>674.3</ele>
        <time>2019-09-17T12:17:03Z</time>
      </trkpt>
      <trkpt lat="47.92308" lon="6.97686">
        <ele>674.2</ele>
        <time>2019-09-17T12:17:06Z</time>
      </trkpt>
      <trkpt lat="47.92312" lon="6.97686">
        <ele>674.1</ele>
        <time>2019-09-17T12:17:08Z</time>
      </trkpt>
      <trkpt lat="47.92315" lon="6.97687">
        <ele>674</ele>
        <time>2019-09-17T12:17:11Z</time>
      </trkpt>
      <trkpt lat="47.92318" lon="6.97689">
        <ele>674</ele>
        <time>2019-09-17T12:17:43Z</time>
      </trkpt>
      <trkpt lat="47.92321" lon="6.9769">
        <ele>673.9</ele>
        <time>2019-09-17T12:17:46Z</time>
      </trkpt>
      <trkpt lat="47.92324" lon="6.97691">
        <ele>673.8</ele>
        <time>2019-09-17T12:17:48Z</time>
      </trkpt>
      <trkpt lat="47.92328" lon="6.97693">
        <ele>673.8</ele>
        <time>2019-09-17T12:17:50Z</time>
      </trkpt>
      <trkpt lat="47.92331" lon="6.97696">
        <ele>673.7</ele>
        <time>2019-09-17T12:17:52Z</time>
      </trkpt>
      <trkpt lat="47.92334" lon="6.97699">
        <ele>673.7</ele>
        <time>2019-09-17T12:17:54Z</time>
      </trkpt>
      <trkpt lat="47.92336" lon="6.97703">
        <ele>673.6</ele>
        <time>2019-09-17T12:17:56Z</time>
      </trkpt>
      <trkpt lat="47.92339" lon="6.97708">
        <ele>673.6</ele>
        <time>2019-09-17T12:17:58Z</time>
      </trkpt>
      <trkpt lat="47.92341" lon="6.97713">
        <ele>673.6</ele>
        <time>2019-09-17T12:18:00Z</time>
      </trkpt>
      <trkpt lat="47.9234" lon="6.97717">
        <ele>673.5</ele>
        <time>2019-09-17T12:18:02Z</time>
      </trkpt>
      <trkpt lat="47.9234" lon="6.97722">
        <ele>673.5</ele>
        <time>2019-09-17T12:18:04Z</time>
      </trkpt>
      <trkpt lat="47.92341" lon="6.97726">
        <ele>673.5</ele>
        <time>2019-09-17T12:18:08Z</time>
      </trkpt>
      <trkpt lat="47.92344" lon="6.97726">
        <ele>673.5</ele>
        <time>2019-09-17T12:18:58Z</time>
      </trkpt>
      <trkpt lat="47.92348" lon="6.97726">
        <ele>673.5</ele>
        <time>2019-09-17T12:19:01Z</time>
      </trkpt>
      <trkpt lat="47.9235" lon="6.97726">
        <ele>673.5</ele>
        <time>2019-09-17T12:19:03Z</time>
      </trkpt>
      <trkpt lat="47.92354" lon="6.97724">
        <ele>673.6</ele>
        <time>2019-09-17T12:19:06Z</time>
      </trkpt>
      <trkpt lat="47.92356" lon="6.9772">
        <ele>673.6</ele>
        <time>2019-09-17T12:19:21Z</time>
      </trkpt>
      <trkpt lat="47.92359" lon="6.97722">
        <ele>673.6</ele>
        <time>2019-09-17T12:19:26Z</time>
      </trkpt>
      <trkpt lat="47.92362" lon="6.97725">
        <ele>673.7</ele>
        <time>2019-09-17T12:19:29Z</time>
      </trkpt>
      <trkpt lat="47.92365" lon="6.97728">
        <ele>673.7</ele>
        <time>2019-09-17T12:19:33Z</time>
      </trkpt>
      <trkpt lat="47.92368" lon="6.9773">
        <ele>673.7</ele>
        <time>2019-09-17T12:19:36Z</time>
      </trkpt>
      <trkpt lat="47.92371" lon="6.97732">
        <ele>673.8</ele>
        <time>2019-09-17T12:19:39Z</time>
      </trkpt>
      <trkpt lat="47.92373" lon="6.97734">
        <ele>674</ele>
        <time>2019-09-17T12:19:42Z</time>
      </trkpt>
      <trkpt lat="47.92376" lon="6.97736">
        <ele>674.8</ele>
        <time>2019-09-17T12:19:45Z</time>
      </trkpt>
      <trkpt lat="47.92379" lon="6.97737">
        <ele>675.6</ele>
        <time>2019-09-17T12:19:49Z</time>
      </trkpt>
      <trkpt lat="47.92382" lon="6.97736">
        <ele>676.4</ele>
        <time>2019-09-17T12:19:55Z</time>
      </trkpt>
      <trkpt lat="47.92385" lon="6.97738">
        <ele>677.2</ele>
        <time>2019-09-17T12:20:04Z</time>
      </trkpt>
      <trkpt lat="47.92388" lon="6.9774">
        <ele>677.9</ele>
        <time>2019-09-17T12:20:08Z</time>
      </trkpt>
      <trkpt lat="47.9239" lon="6.97741">
        <ele>678.6</ele>
        <time>2019-09-17T12:20:11Z</time>
      </trkpt>
      <trkpt lat="47.92394" lon="6.97743">
        <ele>679.5</ele>
        <time>2019-09-17T12:20:15Z</time>
      </trkpt>
      <trkpt lat="47.92397" lon="6.97743">
        <ele>680.3</ele>
        <time>2019-09-17T12:20:17Z</time>
      </trkpt>
      <trkpt lat="47.924" lon="6.97744">
        <ele>681.1</ele>
        <time>2019-09-17T12:20:19Z</time>
      </trkpt>
      <trkpt lat="47.92403" lon="6.97745">
        <ele>681.8</ele>
        <time>2019-09-17T12:20:21Z</time>
      </trkpt>
      <trkpt lat="47.92406" lon="6.97745">
        <ele>682.5</ele>
        <time>2019-09-17T12:20:23Z</time>
      </trkpt>
      <trkpt lat="47.9241" lon="6.97745">
        <ele>683.2</ele>
        <time>2019-09-17T12:20:25Z</time>
      </trkpt>
      <trkpt lat="47.92413" lon="6.97744">
        <ele>683.8</ele>
        <time>2019-09-17T12:20:27Z</time>
      </trkpt>
      <trkpt lat="47.92416" lon="6.97744">
        <ele>684.4</ele>
        <time>2019-09-17T12:20:29Z</time>
      </trkpt>
      <trkpt lat="47.92419" lon="6.97745">
        <ele>685.2</ele>
        <time>2019-09-17T12:20:32Z</time>
      </trkpt>
      <trkpt lat="47.92422" lon="6.97746">
        <ele>685.9</ele>
        <time>2019-09-17T12:20:35Z</time>
      </trkpt>
      <trkpt lat="47.92426" lon="6.97746">
        <ele>686.7</ele>
        <time>2019-09-17T12:20:38Z</time>
      </trkpt>
      <trkpt lat="47.9243" lon="6.97747">
        <ele>687.4</ele>
        <time>2019-09-17T12:20:41Z</time>
      </trkpt>
      <trkpt lat="47.92433" lon="6.97748">
        <ele>688.2</ele>
        <time>2019-09-17T12:20:44Z</time>
      </trkpt>
      <trkpt lat="47.92436" lon="6.97747">
        <ele>688.9</ele>
        <time>2019-09-17T12:20:48Z</time>
      </trkpt>
      <trkpt lat="47.9244" lon="6.97746">
        <ele>689.6</ele>
        <time>2019-09-17T12:20:52Z</time>
      </trkpt>
      <trkpt lat="47.92443" lon="6.97744">
        <ele>690.4</ele>
        <time>2019-09-17T12:20:56Z</time>
      </trkpt>
      <trkpt lat="47.92446" lon="6.97741">
        <ele>691.1</ele>
        <time>2019-09-17T12:20:59Z</time>
      </trkpt>
      <trkpt lat="47.92448" lon="6.97739">
        <ele>691.7</ele>
        <time>2019-09-17T12:21:01Z</time>
      </trkpt>
      <trkpt lat="47.92451" lon="6.97735">
        <ele>692.7</ele>
        <time>2019-09-17T12:21:04Z</time>
      </trkpt>
      <trkpt lat="47.92454" lon="6.97732">
        <ele>692.6</ele>
        <time>2019-09-17T12:21:07Z</time>
      </trkpt>
      <trkpt lat="47.92457" lon="6.9773">
        <ele>693.5</ele>
        <time>2019-09-17T12:21:10Z</time>
      </trkpt>
      <trkpt lat="47.9246" lon="6.9773">
        <ele>694</ele>
        <time>2019-09-17T12:21:13Z</time>
      </trkpt>
      <trkpt lat="47.92462" lon="6.97735">
        <ele>694.6</ele>
        <time>2019-09-17T12:21:16Z</time>
      </trkpt>
      <trkpt lat="47.92463" lon="6.97741">
        <ele>695.5</ele>
        <time>2019-09-17T12:21:19Z</time>
      </trkpt>
      <trkpt lat="47.92464" lon="6.97745">
        <ele>695.8</ele>
        <time>2019-09-17T12:21:22Z</time>
      </trkpt>
      <trkpt lat="47.92465" lon="6.97749">
        <ele>696.9</ele>
        <time>2019-09-17T12:21:24Z</time>
      </trkpt>
      <trkpt lat="47.92469" lon="6.97752">
        <ele>697.6</ele>
        <time>2019-09-17T12:21:26Z</time>
      </trkpt>
      <trkpt lat="47.9247" lon="6.97759">
        <ele>698.5</ele>
        <time>2019-09-17T12:21:28Z</time>
      </trkpt>
      <trkpt lat="47.92471" lon="6.97764">
        <ele>699.8</ele>
        <time>2019-09-17T12:21:30Z</time>
      </trkpt>
      <trkpt lat="47.92472" lon="6.97768">
        <ele>700.2</ele>
        <time>2019-09-17T12:21:32Z</time>
      </trkpt>
      <trkpt lat="47.92471" lon="6.97773">
        <ele>699.6</ele>
        <time>2019-09-17T12:21:36Z</time>
      </trkpt>
      <trkpt lat="47.92469" lon="6.97776">
        <ele>700</ele>
        <time>2019-09-17T12:21:39Z</time>
      </trkpt>
      <trkpt lat="47.92467" lon="6.97779">
        <ele>699.4</ele>
        <time>2019-09-17T12:21:42Z</time>
      </trkpt>
      <trkpt lat="47.92464" lon="6.97784">
        <ele>698.9</ele>
        <time>2019-09-17T12:21:45Z</time>
      </trkpt>
      <trkpt lat="47.92462" lon="6.9779">
        <ele>698.3</ele>
        <time>2019-09-17T12:21:47Z</time>
      </trkpt>
      <trkpt lat="47.92461" lon="6.97797">
        <ele>698.8</ele>
        <time>2019-09-17T12:21:49Z</time>
      </trkpt>
      <trkpt lat="47.92459" lon="6.97801">
        <ele>698</ele>
        <time>2019-09-17T12:21:51Z</time>
      </trkpt>
      <trkpt lat="47.92458" lon="6.97805">
        <ele>698</ele>
        <time>2019-09-17T12:21:53Z</time>
      </trkpt>
      <trkpt lat="47.92456" lon="6.97809">
        <ele>697.2</ele>
        <time>2019-09-17T12:21:55Z</time>
      </trkpt>
      <trkpt lat="47.92454" lon="6.97813">
        <ele>697.1</ele>
        <time>2019-09-17T12:21:58Z</time>
      </trkpt>
      <trkpt lat="47.92453" lon="6.97817">
        <ele>696.1</ele>
        <time>2019-09-17T12:22:01Z</time>
      </trkpt>
      <trkpt lat="47.92451" lon="6.9782">
        <ele>695</ele>
        <time>2019-09-17T12:22:03Z</time>
      </trkpt>
      <trkpt lat="47.92448" lon="6.97822">
        <ele>694.9</ele>
        <time>2019-09-17T12:22:10Z</time>
      </trkpt>
      <trkpt lat="47.9245" lon="6.97827">
        <ele>694.7</ele>
        <time>2019-09-17T12:22:18Z</time>
      </trkpt>
      <trkpt lat="47.92452" lon="6.9783">
        <ele>695.6</ele>
        <time>2019-09-17T12:22:23Z</time>
      </trkpt>
      <trkpt lat="47.92454" lon="6.97834">
        <ele>695.4</ele>
        <time>2019-09-17T12:22:28Z</time>
      </trkpt>
      <trkpt lat="47.92456" lon="6.97838">
        <ele>696.2</ele>
        <time>2019-09-17T12:22:32Z</time>
      </trkpt>
      <trkpt lat="47.92457" lon="6.97842">
        <ele>697.1</ele>
        <time>2019-09-17T12:22:35Z</time>
      </trkpt>
      <trkpt lat="47.92455" lon="6.97847">
        <ele>695.5</ele>
        <time>2019-09-17T12:22:40Z</time>
      </trkpt>
      <trkpt lat="47.92452" lon="6.97851">
        <ele>695.6</ele>
        <time>2019-09-17T12:22:42Z</time>
      </trkpt>
      <trkpt lat="47.92453" lon="6.97855">
        <ele>695.6</ele>
        <time>2019-09-17T12:22:44Z</time>
      </trkpt>
      <trkpt lat="47.92455" lon="6.9786">
        <ele>695.7</ele>
        <time>2019-09-17T12:22:46Z</time>
      </trkpt>
      <trkpt lat="47.92458" lon="6.97864">
        <ele>695.7</ele>
        <time>2019-09-17T12:22:48Z</time>
      </trkpt>
      <trkpt lat="47.9246" lon="6.97867">
        <ele>695.8</ele>
        <time>2019-09-17T12:22:50Z</time>
      </trkpt>
      <trkpt lat="47.92462" lon="6.97872">
        <ele>695.9</ele>
        <time>2019-09-17T12:22:53Z</time>
      </trkpt>
      <trkpt lat="47.92465" lon="6.97877">
        <ele>696</ele>
        <time>2019-09-17T12:22:55Z</time>
      </trkpt>
      <trkpt lat="47.92467" lon="6.9788">
        <ele>696.1</ele>
        <time>2019-09-17T12:22:57Z</time>
      </trkpt>
      <trkpt lat="47.9247" lon="6.97885">
        <ele>696.4</ele>
        <time>2019-09-17T12:23:00Z</time>
      </trkpt>
      <trkpt lat="47.92472" lon="6.97889">
        <ele>696.6</ele>
        <time>2019-09-17T12:23:03Z</time>
      </trkpt>
      <trkpt lat="47.92475" lon="6.97893">
        <ele>696.8</ele>
        <time>2019-09-17T12:23:06Z</time>
      </trkpt>
      <trkpt lat="47.92477" lon="6.97896">
        <ele>697</ele>
        <time>2019-09-17T12:23:08Z</time>
      </trkpt>
      <trkpt lat="47.9248" lon="6.97899">
        <ele>697.2</ele>
        <time>2019-09-17T12:23:11Z</time>
      </trkpt>
      <trkpt lat="47.92482" lon="6.97903">
        <ele>697.5</ele>
        <time>2019-09-17T12:23:13Z</time>
      </trkpt>
      <trkpt lat="47.92484" lon="6.97905">
        <ele>697.8</ele>
        <time>2019-09-17T12:23:16Z</time>
      </trkpt>
      <trkpt lat="47.92487" lon="6.97908">
        <ele>698</ele>
        <time>2019-09-17T12:23:20Z</time>
      </trkpt>
      <trkpt lat="47.9249" lon="6.97911">
        <ele>698.3</ele>
        <time>2019-09-17T12:23:23Z</time>
      </trkpt>
      <trkpt lat="47.92491" lon="6.97917">
        <ele>698.5</ele>
        <time>2019-09-17T12:23:26Z</time>
      </trkpt>
      <trkpt lat="47.92492" lon="6.97921">
        <ele>698.7</ele>
        <time>2019-09-17T12:23:28Z</time>
      </trkpt>
      <trkpt lat="47.92495" lon="6.97928">
        <ele>699.2</ele>
        <time>2019-09-17T12:23:30Z</time>
      </trkpt>
      <trkpt lat="47.92496" lon="6.97931">
        <ele>699.5</ele>
        <time>2019-09-17T12:23:31Z</time>
      </trkpt>
      <trkpt lat="47.92499" lon="6.97937">
        <ele>700</ele>
        <time>2019-09-17T12:23:33Z</time>
      </trkpt>
      <trkpt lat="47.925" lon="6.97942">
        <ele>700.5</ele>
        <time>2019-09-17T12:23:35Z</time>
      </trkpt>
      <trkpt lat="47.92501" lon="6.97946">
        <ele>701.1</ele>
        <time>2019-09-17T12:23:37Z</time>
      </trkpt>
      <trkpt lat="47.92504" lon="6.97952">
        <ele>702</ele>
        <time>2019-09-17T12:23:39Z</time>
      </trkpt>
      <trkpt lat="47.92505" lon="6.97957">
        <ele>702.8</ele>
        <time>2019-09-17T12:23:41Z</time>
      </trkpt>
      <trkpt lat="47.92507" lon="6.97962">
        <ele>703.5</ele>
        <time>2019-09-17T12:23:43Z</time>
      </trkpt>
      <trkpt lat="47.92509" lon="6.97965">
        <ele>704.2</ele>
        <time>2019-09-17T12:23:45Z</time>
      </trkpt>
      <trkpt lat="47.92512" lon="6.97968">
        <ele>704.9</ele>
        <time>2019-09-17T12:23:48Z</time>
      </trkpt>
      <trkpt lat="47.92515" lon="6.9797">
        <ele>705.8</ele>
        <time>2019-09-17T12:23:51Z</time>
      </trkpt>
      <trkpt lat="47.92518" lon="6.97972">
        <ele>706.5</ele>
        <time>2019-09-17T12:23:53Z</time>
      </trkpt>
      <trkpt lat="47.92521" lon="6.97973">
        <ele>707.1</ele>
        <time>2019-09-17T12:23:55Z</time>
      </trkpt>
      <trkpt lat="47.92524" lon="6.97975">
        <ele>707.9</ele>
        <time>2019-09-17T12:23:58Z</time>
      </trkpt>
      <trkpt lat="47.92526" lon="6.97978">
        <ele>708.5</ele>
        <time>2019-09-17T12:24:01Z</time>
      </trkpt>
      <trkpt lat="47.92529" lon="6.9798">
        <ele>709.3</ele>
        <time>2019-09-17T12:24:05Z</time>
      </trkpt>
      <trkpt lat="47.92532" lon="6.97982">
        <ele>710</ele>
        <time>2019-09-17T12:24:08Z</time>
      </trkpt>
      <trkpt lat="47.92535" lon="6.97982">
        <ele>711.1</ele>
        <time>2019-09-17T12:24:11Z</time>
      </trkpt>
      <trkpt lat="47.92538" lon="6.97983">
        <ele>712</ele>
        <time>2019-09-17T12:24:14Z</time>
      </trkpt>
      <trkpt lat="47.92542" lon="6.97983">
        <ele>713</ele>
        <time>2019-09-17T12:24:17Z</time>
      </trkpt>
      <trkpt lat="47.92545" lon="6.97984">
        <ele>713.8</ele>
        <time>2019-09-17T12:24:20Z</time>
      </trkpt>
      <trkpt lat="47.92547" lon="6.97984">
        <ele>714.6</ele>
        <time>2019-09-17T12:24:23Z</time>
      </trkpt>
      <trkpt lat="47.92551" lon="6.97985">
        <ele>715.4</ele>
        <time>2019-09-17T12:24:27Z</time>
      </trkpt>
      <trkpt lat="47.92554" lon="6.97986">
        <ele>716.2</ele>
        <time>2019-09-17T12:24:30Z</time>
      </trkpt>
      <trkpt lat="47.92557" lon="6.97988">
        <ele>716.8</ele>
        <time>2019-09-17T12:24:34Z</time>
      </trkpt>
      <trkpt lat="47.92558" lon="6.97992">
        <ele>717.4</ele>
        <time>2019-09-17T12:24:40Z</time>
      </trkpt>
      <trkpt lat="47.92561" lon="6.97993">
        <ele>718</ele>
        <time>2019-09-17T12:24:47Z</time>
      </trkpt>
      <trkpt lat="47.92563" lon="6.97989">
        <ele>718.9</ele>
        <time>2019-09-17T12:24:51Z</time>
      </trkpt>
      <trkpt lat="47.92564" lon="6.97984">
        <ele>719.7</ele>
        <time>2019-09-17T12:24:56Z</time>
      </trkpt>
      <trkpt lat="47.92567" lon="6.97984">
        <ele>720.4</ele>
        <time>2019-09-17T12:25:01Z</time>
      </trkpt>
      <trkpt lat="47.92571" lon="6.97986">
        <ele>721.4</ele>
        <time>2019-09-17T12:25:04Z</time>
      </trkpt>
      <trkpt lat="47.92574" lon="6.97987">
        <ele>722.2</ele>
        <time>2019-09-17T12:25:07Z</time>
      </trkpt>
      <trkpt lat="47.92578" lon="6.97988">
        <ele>723.3</ele>
        <time>2019-09-17T12:25:09Z</time>
      </trkpt>
      <trkpt lat="47.92582" lon="6.9799">
        <ele>724.6</ele>
        <time>2019-09-17T12:25:11Z</time>
      </trkpt>
      <trkpt lat="47.92585" lon="6.97992">
        <ele>725.8</ele>
        <time>2019-09-17T12:25:13Z</time>
      </trkpt>
      <trkpt lat="47.92588" lon="6.97994">
        <ele>726.9</ele>
        <time>2019-09-17T12:25:15Z</time>
      </trkpt>
      <trkpt lat="47.92591" lon="6.97997">
        <ele>728</ele>
        <time>2019-09-17T12:25:18Z</time>
      </trkpt>
      <trkpt lat="47.92593" lon="6.97998">
        <ele>728.8</ele>
        <time>2019-09-17T12:25:20Z</time>
      </trkpt>
      <trkpt lat="47.92597" lon="6.98">
        <ele>729.7</ele>
        <time>2019-09-17T12:25:22Z</time>
      </trkpt>
      <trkpt lat="47.92599" lon="6.98001">
        <ele>730.5</ele>
        <time>2019-09-17T12:25:24Z</time>
      </trkpt>
      <trkpt lat="47.92603" lon="6.98002">
        <ele>731.6</ele>
        <time>2019-09-17T12:25:27Z</time>
      </trkpt>
      <trkpt lat="47.92606" lon="6.98004">
        <ele>732.6</ele>
        <time>2019-09-17T12:25:30Z</time>
      </trkpt>
      <trkpt lat="47.92608" lon="6.98007">
        <ele>733.6</ele>
        <time>2019-09-17T12:25:34Z</time>
      </trkpt>
      <trkpt lat="47.9261" lon="6.98011">
        <ele>734.5</ele>
        <time>2019-09-17T12:25:37Z</time>
      </trkpt>
      <trkpt lat="47.92612" lon="6.98014">
        <ele>735.3</ele>
        <time>2019-09-17T12:25:40Z</time>
      </trkpt>
      <trkpt lat="47.92615" lon="6.98017">
        <ele>736.3</ele>
        <time>2019-09-17T12:25:43Z</time>
      </trkpt>
      <trkpt lat="47.92618" lon="6.98019">
        <ele>737.1</ele>
        <time>2019-09-17T12:25:45Z</time>
      </trkpt>
      <trkpt lat="47.9262" lon="6.98021">
        <ele>737.9</ele>
        <time>2019-09-17T12:25:47Z</time>
      </trkpt>
      <trkpt lat="47.92622" lon="6.98025">
        <ele>738.8</ele>
        <time>2019-09-17T12:25:50Z</time>
      </trkpt>
      <trkpt lat="47.92625" lon="6.98028">
        <ele>739.6</ele>
        <time>2019-09-17T12:25:53Z</time>
      </trkpt>
      <trkpt lat="47.92627" lon="6.98031">
        <ele>740.3</ele>
        <time>2019-09-17T12:25:56Z</time>
      </trkpt>
      <trkpt lat="47.9263" lon="6.98033">
        <ele>741</ele>
        <time>2019-09-17T12:25:59Z</time>
      </trkpt>
      <trkpt lat="47.92633" lon="6.98034">
        <ele>741.8</ele>
        <time>2019-09-17T12:26:03Z</time>
      </trkpt>
      <trkpt lat="47.92636" lon="6.98035">
        <ele>742.7</ele>
        <time>2019-09-17T12:26:06Z</time>
      </trkpt>
      <trkpt lat="47.92638" lon="6.98037">
        <ele>743.5</ele>
        <time>2019-09-17T12:26:10Z</time>
      </trkpt>
      <trkpt lat="47.92641" lon="6.9804">
        <ele>744.5</ele>
        <time>2019-09-17T12:26:17Z</time>
      </trkpt>
      <trkpt lat="47.92644" lon="6.98042">
        <ele>745.3</ele>
        <time>2019-09-17T12:26:20Z</time>
      </trkpt>
      <trkpt lat="47.92645" lon="6.98046">
        <ele>746</ele>
        <time>2019-09-17T12:26:23Z</time>
      </trkpt>
      <trkpt lat="47.92646" lon="6.9805">
        <ele>746.6</ele>
        <time>2019-09-17T12:26:29Z</time>
      </trkpt>
      <trkpt lat="47.92648" lon="6.98053">
        <ele>747.2</ele>
        <time>2019-09-17T12:26:33Z</time>
      </trkpt>
      <trkpt lat="47.9265" lon="6.98058">
        <ele>747.9</ele>
        <time>2019-09-17T12:26:37Z</time>
      </trkpt>
      <trkpt lat="47.92652" lon="6.98063">
        <ele>748.9</ele>
        <time>2019-09-17T12:26:39Z</time>
      </trkpt>
      <trkpt lat="47.92655" lon="6.98067">
        <ele>749.9</ele>
        <time>2019-09-17T12:26:41Z</time>
      </trkpt>
      <trkpt lat="47.92657" lon="6.9807">
        <ele>750.6</ele>
        <time>2019-09-17T12:26:43Z</time>
      </trkpt>
      <trkpt lat="47.9266" lon="6.98074">
        <ele>751.4</ele>
        <time>2019-09-17T12:26:46Z</time>
      </trkpt>
      <trkpt lat="47.92662" lon="6.98073">
        <ele>751.9</ele>
        <time>2019-09-17T12:26:54Z</time>
      </trkpt>
      <trkpt lat="47.92664" lon="6.98078">
        <ele>752.6</ele>
        <time>2019-09-17T12:26:59Z</time>
      </trkpt>
      <trkpt lat="47.92666" lon="6.98082">
        <ele>753.2</ele>
        <time>2019-09-17T12:27:04Z</time>
      </trkpt>
      <trkpt lat="47.92669" lon="6.98085">
        <ele>753.9</ele>
        <time>2019-09-17T12:27:06Z</time>
      </trkpt>
      <trkpt lat="47.92671" lon="6.98089">
        <ele>754.6</ele>
        <time>2019-09-17T12:27:09Z</time>
      </trkpt>
      <trkpt lat="47.92674" lon="6.98087">
        <ele>755.2</ele>
        <time>2019-09-17T12:27:13Z</time>
      </trkpt>
      <trkpt lat="47.92675" lon="6.98083">
        <ele>755.7</ele>
        <time>2019-09-17T12:27:17Z</time>
      </trkpt>
      <trkpt lat="47.92672" lon="6.98084">
        <ele>756.3</ele>
        <time>2019-09-17T12:27:25Z</time>
      </trkpt>
      <trkpt lat="47.92672" lon="6.9808">
        <ele>756.9</ele>
        <time>2019-09-17T12:27:42Z</time>
      </trkpt>
      <trkpt lat="47.92671" lon="6.98075">
        <ele>757.5</ele>
        <time>2019-09-17T12:27:47Z</time>
      </trkpt>
      <trkpt lat="47.92671" lon="6.9807">
        <ele>758</ele>
        <time>2019-09-17T12:27:50Z</time>
      </trkpt>
      <trkpt lat="47.92669" lon="6.98066">
        <ele>758.6</ele>
        <time>2019-09-17T12:27:53Z</time>
      </trkpt>
      <trkpt lat="47.92668" lon="6.98062">
        <ele>759.2</ele>
        <time>2019-09-17T12:27:56Z</time>
      </trkpt>
      <trkpt lat="47.92668" lon="6.98057">
        <ele>759.8</ele>
        <time>2019-09-17T12:27:59Z</time>
      </trkpt>
      <trkpt lat="47.92668" lon="6.98051">
        <ele>760.5</ele>
        <time>2019-09-17T12:28:02Z</time>
      </trkpt>
      <trkpt lat="47.92667" lon="6.98046">
        <ele>761.1</ele>
        <time>2019-09-17T12:28:05Z</time>
      </trkpt>
      <trkpt lat="47.92666" lon="6.9804">
        <ele>761.7</ele>
        <time>2019-09-17T12:28:08Z</time>
      </trkpt>
      <trkpt lat="47.92666" lon="6.98035">
        <ele>762.2</ele>
        <time>2019-09-17T12:28:10Z</time>
      </trkpt>
      <trkpt lat="47.92665" lon="6.9803">
        <ele>762.8</ele>
        <time>2019-09-17T12:28:13Z</time>
      </trkpt>
      <trkpt lat="47.92664" lon="6.98026">
        <ele>763.1</ele>
        <time>2019-09-17T12:28:15Z</time>
      </trkpt>
      <trkpt lat="47.92663" lon="6.98021">
        <ele>763.4</ele>
        <time>2019-09-17T12:28:17Z</time>
      </trkpt>
      <trkpt lat="47.92663" lon="6.98016">
        <ele>763.7</ele>
        <time>2019-09-17T12:28:19Z</time>
      </trkpt>
      <trkpt lat="47.92664" lon="6.9801">
        <ele>764.2</ele>
        <time>2019-09-17T12:28:21Z</time>
      </trkpt>
      <trkpt lat="47.92665" lon="6.98006">
        <ele>764.7</ele>
        <time>2019-09-17T12:28:23Z</time>
      </trkpt>
      <trkpt lat="47.92668" lon="6.98003">
        <ele>765.2</ele>
        <time>2019-09-17T12:28:25Z</time>
      </trkpt>
      <trkpt lat="47.92671" lon="6.98005">
        <ele>765.6</ele>
        <time>2019-09-17T12:28:28Z</time>
      </trkpt>
      <trkpt lat="47.92674" lon="6.98009">
        <ele>766.1</ele>
        <time>2019-09-17T12:28:31Z</time>
      </trkpt>
      <trkpt lat="47.92675" lon="6.98014">
        <ele>766.7</ele>
        <time>2019-09-17T12:28:34Z</time>
      </trkpt>
      <trkpt lat="47.92679" lon="6.98011">
        <ele>767.4</ele>
        <time>2019-09-17T12:28:38Z</time>
      </trkpt>
      <trkpt lat="47.9268" lon="6.98007">
        <ele>768</ele>
        <time>2019-09-17T12:28:41Z</time>
      </trkpt>
      <trkpt lat="47.92682" lon="6.9801">
        <ele>768.4</ele>
        <time>2019-09-17T12:28:47Z</time>
      </trkpt>
      <trkpt lat="47.92685" lon="6.98013">
        <ele>768.8</ele>
        <time>2019-09-17T12:28:52Z</time>
      </trkpt>
      <trkpt lat="47.92688" lon="6.98014">
        <ele>769.3</ele>
        <time>2019-09-17T12:28:55Z</time>
      </trkpt>
      <trkpt lat="47.92691" lon="6.98015">
        <ele>769.8</ele>
        <time>2019-09-17T12:28:57Z</time>
      </trkpt>
      <trkpt lat="47.92694" lon="6.98016">
        <ele>770.4</ele>
        <time>2019-09-17T12:28:59Z</time>
      </trkpt>
      <trkpt lat="47.92698" lon="6.98019">
        <ele>770.8</ele>
        <time>2019-09-17T12:29:02Z</time>
      </trkpt>
      <trkpt lat="47.92697" lon="6.98023">
        <ele>771.2</ele>
        <time>2019-09-17T12:29:06Z</time>
      </trkpt>
      <trkpt lat="47.927" lon="6.98027">
        <ele>771.6</ele>
        <time>2019-09-17T12:29:10Z</time>
      </trkpt>
      <trkpt lat="47.92702" lon="6.9803">
        <ele>772.1</ele>
        <time>2019-09-17T12:29:15Z</time>
      </trkpt>
      <trkpt lat="47.92704" lon="6.98033">
        <ele>772.7</ele>
        <time>2019-09-17T12:29:18Z</time>
      </trkpt>
      <trkpt lat="47.92707" lon="6.98036">
        <ele>773.4</ele>
        <time>2019-09-17T12:29:21Z</time>
      </trkpt>
      <trkpt lat="47.9271" lon="6.9804">
        <ele>774.1</ele>
        <time>2019-09-17T12:29:23Z</time>
      </trkpt>
      <trkpt lat="47.92712" lon="6.98043">
        <ele>774.7</ele>
        <time>2019-09-17T12:29:25Z</time>
      </trkpt>
      <trkpt lat="47.92715" lon="6.98045">
        <ele>775.3</ele>
        <time>2019-09-17T12:29:28Z</time>
      </trkpt>
      <trkpt lat="47.92718" lon="6.98049">
        <ele>776</ele>
        <time>2019-09-17T12:29:32Z</time>
      </trkpt>
      <trkpt lat="47.92719" lon="6.98052">
        <ele>776.5</ele>
        <time>2019-09-17T12:29:34Z</time>
      </trkpt>
      <trkpt lat="47.92722" lon="6.98056">
        <ele>777.2</ele>
        <time>2019-09-17T12:29:37Z</time>
      </trkpt>
      <trkpt lat="47.92725" lon="6.9806">
        <ele>777.8</ele>
        <time>2019-09-17T12:29:41Z</time>
      </trkpt>
      <trkpt lat="47.92727" lon="6.98063">
        <ele>778.4</ele>
        <time>2019-09-17T12:29:44Z</time>
      </trkpt>
      <trkpt lat="47.92729" lon="6.98066">
        <ele>779</ele>
        <time>2019-09-17T12:29:47Z</time>
      </trkpt>
      <trkpt lat="47.92732" lon="6.98069">
        <ele>779.9</ele>
        <time>2019-09-17T12:29:50Z</time>
      </trkpt>
      <trkpt lat="47.92735" lon="6.98072">
        <ele>780.6</ele>
        <time>2019-09-17T12:29:59Z</time>
      </trkpt>
      <trkpt lat="47.92737" lon="6.98074">
        <ele>781.2</ele>
        <time>2019-09-17T12:30:02Z</time>
      </trkpt>
      <trkpt lat="47.92741" lon="6.98078">
        <ele>782.2</ele>
        <time>2019-09-17T12:30:05Z</time>
      </trkpt>
      <trkpt lat="47.92745" lon="6.98082">
        <ele>783</ele>
        <time>2019-09-17T12:30:07Z</time>
      </trkpt>
      <trkpt lat="47.92747" lon="6.98085">
        <ele>783.5</ele>
        <time>2019-09-17T12:30:09Z</time>
      </trkpt>
      <trkpt lat="47.9275" lon="6.98085">
        <ele>784.2</ele>
        <time>2019-09-17T12:30:12Z</time>
      </trkpt>
      <trkpt lat="47.92753" lon="6.98089">
        <ele>785.1</ele>
        <time>2019-09-17T12:30:17Z</time>
      </trkpt>
      <trkpt lat="47.92755" lon="6.98091">
        <ele>785.7</ele>
        <time>2019-09-17T12:30:21Z</time>
      </trkpt>
      <trkpt lat="47.92756" lon="6.98095">
        <ele>786.3</ele>
        <time>2019-09-17T12:30:25Z</time>
      </trkpt>
      <trkpt lat="47.92759" lon="6.98097">
        <ele>786.9</ele>
        <time>2019-09-17T12:30:34Z</time>
      </trkpt>
      <trkpt lat="47.92762" lon="6.981">
        <ele>787.4</ele>
        <time>2019-09-17T12:30:39Z</time>
      </trkpt>
      <trkpt lat="47.92764" lon="6.98103">
        <ele>787.9</ele>
        <time>2019-09-17T12:30:42Z</time>
      </trkpt>
      <trkpt lat="47.92767" lon="6.98105">
        <ele>788.4</ele>
        <time>2019-09-17T12:30:44Z</time>
      </trkpt>
      <trkpt lat="47.92771" lon="6.98107">
        <ele>789</ele>
        <time>2019-09-17T12:30:46Z</time>
      </trkpt>
      <trkpt lat="47.92774" lon="6.98108">
        <ele>789.4</ele>
        <time>2019-09-17T12:30:48Z</time>
      </trkpt>
      <trkpt lat="47.92778" lon="6.98109">
        <ele>790</ele>
        <time>2019-09-17T12:30:51Z</time>
      </trkpt>
      <trkpt lat="47.92781" lon="6.9811">
        <ele>790.4</ele>
        <time>2019-09-17T12:30:53Z</time>
      </trkpt>
      <trkpt lat="47.92785" lon="6.98111">
        <ele>790.9</ele>
        <time>2019-09-17T12:30:56Z</time>
      </trkpt>
      <trkpt lat="47.92788" lon="6.98109">
        <ele>791.2</ele>
        <time>2019-09-17T12:30:59Z</time>
      </trkpt>
      <trkpt lat="47.92791" lon="6.98108">
        <ele>791.7</ele>
        <time>2019-09-17T12:31:02Z</time>
      </trkpt>
      <trkpt lat="47.92795" lon="6.98107">
        <ele>792.2</ele>
        <time>2019-09-17T12:31:05Z</time>
      </trkpt>
      <trkpt lat="47.92798" lon="6.98107">
        <ele>792.6</ele>
        <time>2019-09-17T12:31:08Z</time>
      </trkpt>
      <trkpt lat="47.92801" lon="6.98106">
        <ele>793.1</ele>
        <time>2019-09-17T12:31:12Z</time>
      </trkpt>
      <trkpt lat="47.92804" lon="6.98106">
        <ele>793.5</ele>
        <time>2019-09-17T12:31:15Z</time>
      </trkpt>
      <trkpt lat="47.92808" lon="6.98106">
        <ele>793.9</ele>
        <time>2019-09-17T12:31:18Z</time>
      </trkpt>
      <trkpt lat="47.92811" lon="6.98106">
        <ele>794.3</ele>
        <time>2019-09-17T12:31:21Z</time>
      </trkpt>
      <trkpt lat="47.92814" lon="6.98105">
        <ele>794.6</ele>
        <time>2019-09-17T12:31:25Z</time>
      </trkpt>
      <trkpt lat="47.92817" lon="6.98105">
        <ele>795</ele>
        <time>2019-09-17T12:31:29Z</time>
      </trkpt>
      <trkpt lat="47.92821" lon="6.98104">
        <ele>795.4</ele>
        <time>2019-09-17T12:31:32Z</time>
      </trkpt>
      <trkpt lat="47.92824" lon="6.98103">
        <ele>795.7</ele>
        <time>2019-09-17T12:31:35Z</time>
      </trkpt>
      <trkpt lat="47.92827" lon="6.98104">
        <ele>796</ele>
        <time>2019-09-17T12:31:38Z</time>
      </trkpt>
      <trkpt lat="47.92829" lon="6.98106">
        <ele>796.4</ele>
        <time>2019-09-17T12:31:42Z</time>
      </trkpt>
      <trkpt lat="47.92832" lon="6.98105">
        <ele>796.7</ele>
        <time>2019-09-17T12:31:45Z</time>
      </trkpt>
      <trkpt lat="47.92835" lon="6.98104">
        <ele>797.1</ele>
        <time>2019-09-17T12:31:48Z</time>
      </trkpt>
      <trkpt lat="47.92838" lon="6.98102">
        <ele>797.6</ele>
        <time>2019-09-17T12:31:51Z</time>
      </trkpt>
      <trkpt lat="47.92841" lon="6.98101">
        <ele>797.8</ele>
        <time>2019-09-17T12:31:53Z</time>
      </trkpt>
      <trkpt lat="47.92844" lon="6.981">
        <ele>798.1</ele>
        <time>2019-09-17T12:31:56Z</time>
      </trkpt>
      <trkpt lat="47.92847" lon="6.98099">
        <ele>798.3</ele>
        <time>2019-09-17T12:31:59Z</time>
      </trkpt>
      <trkpt lat="47.9285" lon="6.98096">
        <ele>798.4</ele>
        <time>2019-09-17T12:32:04Z</time>
      </trkpt>
      <trkpt lat="47.92853" lon="6.98094">
        <ele>798.5</ele>
        <time>2019-09-17T12:32:07Z</time>
      </trkpt>
      <trkpt lat="47.92856" lon="6.98092">
        <ele>798.7</ele>
        <time>2019-09-17T12:32:11Z</time>
      </trkpt>
      <trkpt lat="47.9286" lon="6.98091">
        <ele>798.8</ele>
        <time>2019-09-17T12:32:15Z</time>
      </trkpt>
      <trkpt lat="47.92864" lon="6.98092">
        <ele>799</ele>
        <time>2019-09-17T12:32:18Z</time>
      </trkpt>
      <trkpt lat="47.92866" lon="6.98093">
        <ele>799.1</ele>
        <time>2019-09-17T12:32:20Z</time>
      </trkpt>
      <trkpt lat="47.92869" lon="6.98094">
        <ele>799.2</ele>
        <time>2019-09-17T12:32:22Z</time>
      </trkpt>
      <trkpt lat="47.92872" lon="6.98096">
        <ele>799.3</ele>
        <time>2019-09-17T12:32:25Z</time>
      </trkpt>
      <trkpt lat="47.92873" lon="6.981">
        <ele>799.4</ele>
        <time>2019-09-17T12:32:28Z</time>
      </trkpt>
      <trkpt lat="47.92875" lon="6.98105">
        <ele>799.6</ele>
        <time>2019-09-17T12:32:31Z</time>
      </trkpt>
      <trkpt lat="47.92876" lon="6.98108">
        <ele>799.6</ele>
        <time>2019-09-17T12:32:34Z</time>
      </trkpt>
      <trkpt lat="47.92878" lon="6.98105">
        <ele>799.7</ele>
        <time>2019-09-17T12:32:41Z</time>
      </trkpt>
      <trkpt lat="47.9288" lon="6.98102">
        <ele>799.7</ele>
        <time>2019-09-17T12:32:48Z</time>
      </trkpt>
      <trkpt lat="47.92883" lon="6.981">
        <ele>799.8</ele>
        <time>2019-09-17T12:32:53Z</time>
      </trkpt>
      <trkpt lat="47.92883" lon="6.98104">
        <ele>799.9</ele>
        <time>2019-09-17T12:32:58Z</time>
      </trkpt>
      <trkpt lat="47.92883" lon="6.98109">
        <ele>799.9</ele>
        <time>2019-09-17T12:33:01Z</time>
      </trkpt>
      <trkpt lat="47.92886" lon="6.98113">
        <ele>800.3</ele>
        <time>2019-09-17T12:33:04Z</time>
      </trkpt>
      <trkpt lat="47.92888" lon="6.98116">
        <ele>800.5</ele>
        <time>2019-09-17T12:33:07Z</time>
      </trkpt>
      <trkpt lat="47.92886" lon="6.98118">
        <ele>800.6</ele>
        <time>2019-09-17T12:33:09Z</time>
      </trkpt>
      <trkpt lat="47.92884" lon="6.98121">
        <ele>800.6</ele>
        <time>2019-09-17T12:33:24Z</time>
      </trkpt>
      <trkpt lat="47.92884" lon="6.98126">
        <ele>800.9</ele>
        <time>2019-09-17T12:33:27Z</time>
      </trkpt>
      <trkpt lat="47.92884" lon="6.98133">
        <ele>801.2</ele>
        <time>2019-09-17T12:33:30Z</time>
      </trkpt>
      <trkpt lat="47.92884" lon="6.98137">
        <ele>801.6</ele>
        <time>2019-09-17T12:33:32Z</time>
      </trkpt>
      <trkpt lat="47.92884" lon="6.98141">
        <ele>802</ele>
        <time>2019-09-17T12:33:44Z</time>
      </trkpt>
      <trkpt lat="47.92887" lon="6.98144">
        <ele>802.8</ele>
        <time>2019-09-17T12:33:52Z</time>
      </trkpt>
      <trkpt lat="47.92889" lon="6.98144">
        <ele>803.1</ele>
        <time>2019-09-17T12:33:58Z</time>
      </trkpt>
      <trkpt lat="47.92891" lon="6.98147">
        <ele>803.9</ele>
        <time>2019-09-17T12:34:14Z</time>
      </trkpt>
      <trkpt lat="47.92894" lon="6.9815">
        <ele>804.1</ele>
        <time>2019-09-17T12:34:22Z</time>
      </trkpt>
      <trkpt lat="47.92895" lon="6.98153">
        <ele>804.9</ele>
        <time>2019-09-17T12:34:27Z</time>
      </trkpt>
      <trkpt lat="47.92894" lon="6.98159">
        <ele>805.8</ele>
        <time>2019-09-17T12:34:37Z</time>
      </trkpt>
      <trkpt lat="47.92893" lon="6.98164">
        <ele>806.6</ele>
        <time>2019-09-17T12:34:39Z</time>
      </trkpt>
      <trkpt lat="47.92894" lon="6.98168">
        <ele>807.7</ele>
        <time>2019-09-17T12:34:46Z</time>
      </trkpt>
      <trkpt lat="47.92895" lon="6.98172">
        <ele>808.9</ele>
        <time>2019-09-17T12:34:52Z</time>
      </trkpt>
      <trkpt lat="47.92898" lon="6.98176">
        <ele>810.1</ele>
        <time>2019-09-17T12:34:58Z</time>
      </trkpt>
      <trkpt lat="47.92899" lon="6.9818">
        <ele>811.2</ele>
        <time>2019-09-17T12:35:00Z</time>
      </trkpt>
      <trkpt lat="47.92899" lon="6.98185">
        <ele>812.3</ele>
        <time>2019-09-17T12:35:02Z</time>
      </trkpt>
      <trkpt lat="47.92899" lon="6.98189">
        <ele>813.4</ele>
        <time>2019-09-17T12:35:04Z</time>
      </trkpt>
      <trkpt lat="47.92899" lon="6.98194">
        <ele>814.6</ele>
        <time>2019-09-17T12:35:07Z</time>
      </trkpt>
      <trkpt lat="47.92898" lon="6.98198">
        <ele>815.7</ele>
        <time>2019-09-17T12:35:12Z</time>
      </trkpt>
      <trkpt lat="47.92899" lon="6.98203">
        <ele>817.7</ele>
        <time>2019-09-17T12:35:15Z</time>
      </trkpt>
      <trkpt lat="47.92898" lon="6.98208">
        <ele>818.7</ele>
        <time>2019-09-17T12:35:20Z</time>
      </trkpt>
      <trkpt lat="47.92898" lon="6.98212">
        <ele>819.6</ele>
        <time>2019-09-17T12:35:23Z</time>
      </trkpt>
      <trkpt lat="47.92898" lon="6.98218">
        <ele>820.5</ele>
        <time>2019-09-17T12:35:26Z</time>
      </trkpt>
      <trkpt lat="47.92897" lon="6.98223">
        <ele>821.3</ele>
        <time>2019-09-17T12:35:29Z</time>
      </trkpt>
      <trkpt lat="47.92897" lon="6.98229">
        <ele>822.3</ele>
        <time>2019-09-17T12:35:32Z</time>
      </trkpt>
      <trkpt lat="47.92896" lon="6.98233">
        <ele>822.9</ele>
        <time>2019-09-17T12:35:34Z</time>
      </trkpt>
      <trkpt lat="47.92896" lon="6.98237">
        <ele>823.3</ele>
        <time>2019-09-17T12:35:37Z</time>
      </trkpt>
      <trkpt lat="47.92895" lon="6.98242">
        <ele>823.8</ele>
        <time>2019-09-17T12:35:41Z</time>
      </trkpt>
      <trkpt lat="47.92895" lon="6.98246">
        <ele>824.2</ele>
        <time>2019-09-17T12:35:44Z</time>
      </trkpt>
      <trkpt lat="47.92897" lon="6.9825">
        <ele>824.7</ele>
        <time>2019-09-17T12:35:48Z</time>
      </trkpt>
      <trkpt lat="47.929" lon="6.98251">
        <ele>824.8</ele>
        <time>2019-09-17T12:35:51Z</time>
      </trkpt>
      <trkpt lat="47.92903" lon="6.98253">
        <ele>824.7</ele>
        <time>2019-09-17T12:35:54Z</time>
      </trkpt>
      <trkpt lat="47.92907" lon="6.98253">
        <ele>824.6</ele>
        <time>2019-09-17T12:35:57Z</time>
      </trkpt>
      <trkpt lat="47.9291" lon="6.98254">
        <ele>824.2</ele>
        <time>2019-09-17T12:36:01Z</time>
      </trkpt>
      <trkpt lat="47.92911" lon="6.98258">
        <ele>823.8</ele>
        <time>2019-09-17T12:36:07Z</time>
      </trkpt>
      <trkpt lat="47.92908" lon="6.98258">
        <ele>823.4</ele>
        <time>2019-09-17T12:36:12Z</time>
      </trkpt>
      <trkpt lat="47.92905" lon="6.98258">
        <ele>822.8</ele>
        <time>2019-09-17T12:36:17Z</time>
      </trkpt>
      <trkpt lat="47.92902" lon="6.98259">
        <ele>822.2</ele>
        <time>2019-09-17T12:36:20Z</time>
      </trkpt>
      <trkpt lat="47.92898" lon="6.98258">
        <ele>821.4</ele>
        <time>2019-09-17T12:36:23Z</time>
      </trkpt>
      <trkpt lat="47.92895" lon="6.98257">
        <ele>820.4</ele>
        <time>2019-09-17T12:36:27Z</time>
      </trkpt>
      <trkpt lat="47.92892" lon="6.9826">
        <ele>818.8</ele>
        <time>2019-09-17T12:36:30Z</time>
      </trkpt>
      <trkpt lat="47.92888" lon="6.98259">
        <ele>817.3</ele>
        <time>2019-09-17T12:36:47Z</time>
      </trkpt>
      <trkpt lat="47.92886" lon="6.98255">
        <ele>815.6</ele>
        <time>2019-09-17T12:36:51Z</time>
      </trkpt>
      <trkpt lat="47.92883" lon="6.98251">
        <ele>814.3</ele>
        <time>2019-09-17T12:36:54Z</time>
      </trkpt>
      <trkpt lat="47.9288" lon="6.98249">
        <ele>813.7</ele>
        <time>2019-09-17T12:36:56Z</time>
      </trkpt>
      <trkpt lat="47.92875" lon="6.98247">
        <ele>813.7</ele>
        <time>2019-09-17T12:36:59Z</time>
      </trkpt>
      <trkpt lat="47.92871" lon="6.98245">
        <ele>812.7</ele>
        <time>2019-09-17T12:37:01Z</time>
      </trkpt>
      <trkpt lat="47.92868" lon="6.98244">
        <ele>812.6</ele>
        <time>2019-09-17T12:37:03Z</time>
      </trkpt>
      <trkpt lat="47.92865" lon="6.98242">
        <ele>812.8</ele>
        <time>2019-09-17T12:37:06Z</time>
      </trkpt>
      <trkpt lat="47.92862" lon="6.98241">
        <ele>812.8</ele>
        <time>2019-09-17T12:37:08Z</time>
      </trkpt>
      <trkpt lat="47.92858" lon="6.9824">
        <ele>812.6</ele>
        <time>2019-09-17T12:37:11Z</time>
      </trkpt>
      <trkpt lat="47.92855" lon="6.9824">
        <ele>813.6</ele>
        <time>2019-09-17T12:37:14Z</time>
      </trkpt>
      <trkpt lat="47.92852" lon="6.9824">
        <ele>814.5</ele>
        <time>2019-09-17T12:37:17Z</time>
      </trkpt>
      <trkpt lat="47.92849" lon="6.98244">
        <ele>815.8</ele>
        <time>2019-09-17T12:37:20Z</time>
      </trkpt>
      <trkpt lat="47.92847" lon="6.98248">
        <ele>817.4</ele>
        <time>2019-09-17T12:37:23Z</time>
      </trkpt>
      <trkpt lat="47.92845" lon="6.98251">
        <ele>818.4</ele>
        <time>2019-09-17T12:37:27Z</time>
      </trkpt>
      <trkpt lat="47.92843" lon="6.98254">
        <ele>819.3</ele>
        <time>2019-09-17T12:37:30Z</time>
      </trkpt>
      <trkpt lat="47.92842" lon="6.98257">
        <ele>820.2</ele>
        <time>2019-09-17T12:37:32Z</time>
      </trkpt>
      <trkpt lat="47.9284" lon="6.9826">
        <ele>821.4</ele>
        <time>2019-09-17T12:37:34Z</time>
      </trkpt>
      <trkpt lat="47.92837" lon="6.98266">
        <ele>823</ele>
        <time>2019-09-17T12:37:36Z</time>
      </trkpt>
      <trkpt lat="47.92836" lon="6.98271">
        <ele>823.8</ele>
        <time>2019-09-17T12:37:38Z</time>
      </trkpt>
      <trkpt lat="47.92835" lon="6.98275">
        <ele>824.4</ele>
        <time>2019-09-17T12:37:40Z</time>
      </trkpt>
      <trkpt lat="47.92837" lon="6.98279">
        <ele>825.2</ele>
        <time>2019-09-17T12:37:46Z</time>
      </trkpt>
      <trkpt lat="47.92839" lon="6.98283">
        <ele>825.6</ele>
        <time>2019-09-17T12:37:50Z</time>
      </trkpt>
      <trkpt lat="47.92842" lon="6.98288">
        <ele>826</ele>
        <time>2019-09-17T12:37:54Z</time>
      </trkpt>
      <trkpt lat="47.92844" lon="6.98291">
        <ele>826</ele>
        <time>2019-09-17T12:37:56Z</time>
      </trkpt>
      <trkpt lat="47.92847" lon="6.98295">
        <ele>825.9</ele>
        <time>2019-09-17T12:37:58Z</time>
      </trkpt>
      <trkpt lat="47.92849" lon="6.98298">
        <ele>825.4</ele>
        <time>2019-09-17T12:38:00Z</time>
      </trkpt>
      <trkpt lat="47.92853" lon="6.98302">
        <ele>824.5</ele>
        <time>2019-09-17T12:38:02Z</time>
      </trkpt>
      <trkpt lat="47.92856" lon="6.98304">
        <ele>823.9</ele>
        <time>2019-09-17T12:38:04Z</time>
      </trkpt>
      <trkpt lat="47.92859" lon="6.98306">
        <ele>823.1</ele>
        <time>2019-09-17T12:38:06Z</time>
      </trkpt>
      <trkpt lat="47.92862" lon="6.98308">
        <ele>822.1</ele>
        <time>2019-09-17T12:38:09Z</time>
      </trkpt>
      <trkpt lat="47.92865" lon="6.98312">
        <ele>822</ele>
        <time>2019-09-17T12:38:12Z</time>
      </trkpt>
      <trkpt lat="47.92867" lon="6.98313">
        <ele>822.7</ele>
        <time>2019-09-17T12:38:15Z</time>
      </trkpt>
      <trkpt lat="47.9287" lon="6.98315">
        <ele>823.7</ele>
        <time>2019-09-17T12:38:23Z</time>
      </trkpt>
      <trkpt lat="47.92873" lon="6.98317">
        <ele>824.7</ele>
        <time>2019-09-17T12:38:26Z</time>
      </trkpt>
      <trkpt lat="47.92874" lon="6.98321">
        <ele>825.4</ele>
        <time>2019-09-17T12:38:30Z</time>
      </trkpt>
      <trkpt lat="47.92874" lon="6.98325">
        <ele>826.2</ele>
        <time>2019-09-17T12:38:34Z</time>
      </trkpt>
      <trkpt lat="47.92874" lon="6.9833">
        <ele>827.3</ele>
        <time>2019-09-17T12:38:39Z</time>
      </trkpt>
      <trkpt lat="47.92876" lon="6.98334">
        <ele>828.4</ele>
        <time>2019-09-17T12:38:43Z</time>
      </trkpt>
      <trkpt lat="47.92878" lon="6.98338">
        <ele>829</ele>
        <time>2019-09-17T12:38:46Z</time>
      </trkpt>
      <trkpt lat="47.9288" lon="6.98342">
        <ele>829.7</ele>
        <time>2019-09-17T12:38:51Z</time>
      </trkpt>
      <trkpt lat="47.92883" lon="6.98345">
        <ele>830.5</ele>
        <time>2019-09-17T12:38:54Z</time>
      </trkpt>
      <trkpt lat="47.92885" lon="6.98349">
        <ele>831.3</ele>
        <time>2019-09-17T12:38:57Z</time>
      </trkpt>
      <trkpt lat="47.92888" lon="6.98351">
        <ele>831.8</ele>
        <time>2019-09-17T12:39:00Z</time>
      </trkpt>
      <trkpt lat="47.9289" lon="6.98353">
        <ele>832.1</ele>
        <time>2019-09-17T12:39:05Z</time>
      </trkpt>
      <trkpt lat="47.92893" lon="6.98356">
        <ele>832.3</ele>
        <time>2019-09-17T12:39:13Z</time>
      </trkpt>
      <trkpt lat="47.92895" lon="6.9836">
        <ele>832.3</ele>
        <time>2019-09-17T12:39:17Z</time>
      </trkpt>
      <trkpt lat="47.92899" lon="6.98362">
        <ele>831.8</ele>
        <time>2019-09-17T12:39:19Z</time>
      </trkpt>
      <trkpt lat="47.92902" lon="6.98364">
        <ele>832.4</ele>
        <time>2019-09-17T12:39:21Z</time>
      </trkpt>
      <trkpt lat="47.92904" lon="6.98367">
        <ele>832.9</ele>
        <time>2019-09-17T12:39:23Z</time>
      </trkpt>
      <trkpt lat="47.92906" lon="6.98371">
        <ele>833.5</ele>
        <time>2019-09-17T12:39:25Z</time>
      </trkpt>
      <trkpt lat="47.92908" lon="6.98375">
        <ele>834</ele>
        <time>2019-09-17T12:39:27Z</time>
      </trkpt>
      <trkpt lat="47.92911" lon="6.98381">
        <ele>834.4</ele>
        <time>2019-09-17T12:39:29Z</time>
      </trkpt>
      <trkpt lat="47.92914" lon="6.98386">
        <ele>834.9</ele>
        <time>2019-09-17T12:39:31Z</time>
      </trkpt>
      <trkpt lat="47.92916" lon="6.98388">
        <ele>835.1</ele>
        <time>2019-09-17T12:39:34Z</time>
      </trkpt>
      <trkpt lat="47.92919" lon="6.98388">
        <ele>835.6</ele>
        <time>2019-09-17T12:39:40Z</time>
      </trkpt>
      <trkpt lat="47.92923" lon="6.98388">
        <ele>836.1</ele>
        <time>2019-09-17T12:39:44Z</time>
      </trkpt>
      <trkpt lat="47.92927" lon="6.98391">
        <ele>836.6</ele>
        <time>2019-09-17T12:39:47Z</time>
      </trkpt>
      <trkpt lat="47.92929" lon="6.98394">
        <ele>837</ele>
        <time>2019-09-17T12:39:49Z</time>
      </trkpt>
      <trkpt lat="47.92933" lon="6.98397">
        <ele>837.4</ele>
        <time>2019-09-17T12:39:52Z</time>
      </trkpt>
      <trkpt lat="47.92936" lon="6.98399">
        <ele>837.7</ele>
        <time>2019-09-17T12:39:55Z</time>
      </trkpt>
      <trkpt lat="47.92938" lon="6.98401">
        <ele>838.1</ele>
        <time>2019-09-17T12:39:58Z</time>
      </trkpt>
      <trkpt lat="47.92941" lon="6.98403">
        <ele>838.4</ele>
        <time>2019-09-17T12:40:01Z</time>
      </trkpt>
      <trkpt lat="47.92944" lon="6.98407">
        <ele>839</ele>
        <time>2019-09-17T12:40:04Z</time>
      </trkpt>
      <trkpt lat="47.92947" lon="6.9841">
        <ele>839.3</ele>
        <time>2019-09-17T12:40:07Z</time>
      </trkpt>
      <trkpt lat="47.9295" lon="6.98413">
        <ele>839.6</ele>
        <time>2019-09-17T12:40:10Z</time>
      </trkpt>
      <trkpt lat="47.92953" lon="6.98414">
        <ele>839.9</ele>
        <time>2019-09-17T12:40:14Z</time>
      </trkpt>
      <trkpt lat="47.92956" lon="6.98415">
        <ele>840.2</ele>
        <time>2019-09-17T12:40:18Z</time>
      </trkpt>
      <trkpt lat="47.92954" lon="6.98417">
        <ele>840.6</ele>
        <time>2019-09-17T12:40:23Z</time>
      </trkpt>
      <trkpt lat="47.92955" lon="6.98422">
        <ele>840.9</ele>
        <time>2019-09-17T12:40:27Z</time>
      </trkpt>
      <trkpt lat="47.92958" lon="6.98424">
        <ele>841.3</ele>
        <time>2019-09-17T12:40:30Z</time>
      </trkpt>
      <trkpt lat="47.9296" lon="6.98424">
        <ele>841.6</ele>
        <time>2019-09-17T12:40:34Z</time>
      </trkpt>
      <trkpt lat="47.92963" lon="6.98424">
        <ele>841.9</ele>
        <time>2019-09-17T12:40:39Z</time>
      </trkpt>
      <trkpt lat="47.92965" lon="6.98428">
        <ele>842.2</ele>
        <time>2019-09-17T12:40:43Z</time>
      </trkpt>
      <trkpt lat="47.92967" lon="6.98432">
        <ele>842.7</ele>
        <time>2019-09-17T12:40:47Z</time>
      </trkpt>
      <trkpt lat="47.92968" lon="6.98435">
        <ele>843.1</ele>
        <time>2019-09-17T12:40:50Z</time>
      </trkpt>
      <trkpt lat="47.9297" lon="6.98439">
        <ele>843.4</ele>
        <time>2019-09-17T12:40:53Z</time>
      </trkpt>
      <trkpt lat="47.92971" lon="6.98444">
        <ele>843.9</ele>
        <time>2019-09-17T12:40:56Z</time>
      </trkpt>
      <trkpt lat="47.92974" lon="6.98447">
        <ele>844.2</ele>
        <time>2019-09-17T12:40:58Z</time>
      </trkpt>
      <trkpt lat="47.92976" lon="6.9845">
        <ele>844.9</ele>
        <time>2019-09-17T12:41:00Z</time>
      </trkpt>
      <trkpt lat="47.9298" lon="6.98454">
        <ele>845.8</ele>
        <time>2019-09-17T12:41:03Z</time>
      </trkpt>
      <trkpt lat="47.92983" lon="6.98458">
        <ele>846.6</ele>
        <time>2019-09-17T12:41:06Z</time>
      </trkpt>
      <trkpt lat="47.92985" lon="6.9846">
        <ele>847.1</ele>
        <time>2019-09-17T12:41:11Z</time>
      </trkpt>
      <trkpt lat="47.92986" lon="6.98465">
        <ele>847.9</ele>
        <time>2019-09-17T12:41:16Z</time>
      </trkpt>
      <trkpt lat="47.92987" lon="6.9847">
        <ele>848.6</ele>
        <time>2019-09-17T12:41:20Z</time>
      </trkpt>
      <trkpt lat="47.92988" lon="6.98474">
        <ele>849.2</ele>
        <time>2019-09-17T12:41:23Z</time>
      </trkpt>
      <trkpt lat="47.92989" lon="6.98479">
        <ele>849.8</ele>
        <time>2019-09-17T12:41:27Z</time>
      </trkpt>
      <trkpt lat="47.9299" lon="6.98483">
        <ele>850.4</ele>
        <time>2019-09-17T12:41:31Z</time>
      </trkpt>
      <trkpt lat="47.92992" lon="6.98487">
        <ele>850.8</ele>
        <time>2019-09-17T12:41:35Z</time>
      </trkpt>
      <trkpt lat="47.92994" lon="6.98491">
        <ele>851.3</ele>
        <time>2019-09-17T12:41:38Z</time>
      </trkpt>
      <trkpt lat="47.92996" lon="6.98494">
        <ele>851.6</ele>
        <time>2019-09-17T12:41:41Z</time>
      </trkpt>
      <trkpt lat="47.92997" lon="6.98498">
        <ele>852</ele>
        <time>2019-09-17T12:41:43Z</time>
      </trkpt>
      <trkpt lat="47.92999" lon="6.98502">
        <ele>852.3</ele>
        <time>2019-09-17T12:41:45Z</time>
      </trkpt>
      <trkpt lat="47.93" lon="6.98507">
        <ele>852.7</ele>
        <time>2019-09-17T12:41:49Z</time>
      </trkpt>
      <trkpt lat="47.93001" lon="6.98511">
        <ele>853.1</ele>
        <time>2019-09-17T12:41:53Z</time>
      </trkpt>
      <trkpt lat="47.93002" lon="6.98517">
        <ele>853.6</ele>
        <time>2019-09-17T12:41:55Z</time>
      </trkpt>
      <trkpt lat="47.93004" lon="6.98522">
        <ele>854.1</ele>
        <time>2019-09-17T12:41:57Z</time>
      </trkpt>
      <trkpt lat="47.93005" lon="6.98526">
        <ele>854.4</ele>
        <time>2019-09-17T12:41:59Z</time>
      </trkpt>
      <trkpt lat="47.93007" lon="6.9853">
        <ele>854.7</ele>
        <time>2019-09-17T12:42:01Z</time>
      </trkpt>
      <trkpt lat="47.93008" lon="6.98534">
        <ele>855.1</ele>
        <time>2019-09-17T12:42:03Z</time>
      </trkpt>
      <trkpt lat="47.93009" lon="6.98538">
        <ele>855.5</ele>
        <time>2019-09-17T12:42:05Z</time>
      </trkpt>
      <trkpt lat="47.93011" lon="6.98542">
        <ele>856</ele>
        <time>2019-09-17T12:42:09Z</time>
      </trkpt>
      <trkpt lat="47.93013" lon="6.98546">
        <ele>856.5</ele>
        <time>2019-09-17T12:42:14Z</time>
      </trkpt>
      <trkpt lat="47.93015" lon="6.9855">
        <ele>856.9</ele>
        <time>2019-09-17T12:42:17Z</time>
      </trkpt>
      <trkpt lat="47.93012" lon="6.98553">
        <ele>857.3</ele>
        <time>2019-09-17T12:42:20Z</time>
      </trkpt>
      <trkpt lat="47.9301" lon="6.98556">
        <ele>858.9</ele>
        <time>2019-09-17T12:42:23Z</time>
      </trkpt>
      <trkpt lat="47.93008" lon="6.98561">
        <ele>860.5</ele>
        <time>2019-09-17T12:42:25Z</time>
      </trkpt>
      <trkpt lat="47.93007" lon="6.98568">
        <ele>862.5</ele>
        <time>2019-09-17T12:43:13Z</time>
      </trkpt>
      <trkpt lat="47.93004" lon="6.9857">
        <ele>863.2</ele>
        <time>2019-09-17T12:43:19Z</time>
      </trkpt>
      <trkpt lat="47.93001" lon="6.98568">
        <ele>864</ele>
        <time>2019-09-17T12:43:21Z</time>
      </trkpt>
      <trkpt lat="47.92998" lon="6.9857">
        <ele>864.8</ele>
        <time>2019-09-17T12:43:25Z</time>
      </trkpt>
      <trkpt lat="47.92995" lon="6.98573">
        <ele>866.6</ele>
        <time>2019-09-17T12:43:29Z</time>
      </trkpt>
      <trkpt lat="47.92994" lon="6.98577">
        <ele>868.3</ele>
        <time>2019-09-17T12:43:33Z</time>
      </trkpt>
      <trkpt lat="47.92992" lon="6.9858">
        <ele>869.1</ele>
        <time>2019-09-17T12:43:37Z</time>
      </trkpt>
      <trkpt lat="47.92989" lon="6.98583">
        <ele>870.7</ele>
        <time>2019-09-17T12:43:41Z</time>
      </trkpt>
      <trkpt lat="47.92986" lon="6.98583">
        <ele>871.5</ele>
        <time>2019-09-17T12:43:45Z</time>
      </trkpt>
      <trkpt lat="47.92983" lon="6.98584">
        <ele>872.2</ele>
        <time>2019-09-17T12:43:49Z</time>
      </trkpt>
      <trkpt lat="47.9298" lon="6.98588">
        <ele>873.1</ele>
        <time>2019-09-17T12:43:57Z</time>
      </trkpt>
      <trkpt lat="47.92978" lon="6.9859">
        <ele>874.8</ele>
        <time>2019-09-17T12:43:59Z</time>
      </trkpt>
      <trkpt lat="47.92976" lon="6.98593">
        <ele>875.6</ele>
        <time>2019-09-17T12:44:04Z</time>
      </trkpt>
      <trkpt lat="47.92974" lon="6.98596">
        <ele>876.4</ele>
        <time>2019-09-17T12:44:10Z</time>
      </trkpt>
      <trkpt lat="47.92974" lon="6.98601">
        <ele>878.2</ele>
        <time>2019-09-17T12:44:17Z</time>
      </trkpt>
      <trkpt lat="47.92973" lon="6.98605">
        <ele>879.1</ele>
        <time>2019-09-17T12:44:22Z</time>
      </trkpt>
      <trkpt lat="47.9297" lon="6.98607">
        <ele>880.9</ele>
        <time>2019-09-17T12:44:26Z</time>
      </trkpt>
      <trkpt lat="47.92968" lon="6.98609">
        <ele>881.8</ele>
        <time>2019-09-17T12:44:32Z</time>
      </trkpt>
      <trkpt lat="47.92967" lon="6.98613">
        <ele>882.7</ele>
        <time>2019-09-17T12:44:35Z</time>
      </trkpt>
      <trkpt lat="47.92964" lon="6.98615">
        <ele>884.4</ele>
        <time>2019-09-17T12:44:42Z</time>
      </trkpt>
      <trkpt lat="47.9296" lon="6.98616">
        <ele>886.1</ele>
        <time>2019-09-17T12:44:46Z</time>
      </trkpt>
      <trkpt lat="47.92957" lon="6.9862">
        <ele>887.7</ele>
        <time>2019-09-17T12:44:50Z</time>
      </trkpt>
      <trkpt lat="47.92955" lon="6.98623">
        <ele>888.3</ele>
        <time>2019-09-17T12:44:52Z</time>
      </trkpt>
      <trkpt lat="47.92953" lon="6.98627">
        <ele>889.2</ele>
        <time>2019-09-17T12:44:56Z</time>
      </trkpt>
      <trkpt lat="47.92953" lon="6.98631">
        <ele>889.7</ele>
        <time>2019-09-17T12:45:04Z</time>
      </trkpt>
      <trkpt lat="47.92951" lon="6.98634">
        <ele>890.1</ele>
        <time>2019-09-17T12:45:10Z</time>
      </trkpt>
      <trkpt lat="47.92949" lon="6.98636">
        <ele>891.6</ele>
        <time>2019-09-17T12:45:19Z</time>
      </trkpt>
      <trkpt lat="47.92946" lon="6.9864">
        <ele>892.7</ele>
        <time>2019-09-17T12:45:25Z</time>
      </trkpt>
      <trkpt lat="47.92944" lon="6.98643">
        <ele>894.4</ele>
        <time>2019-09-17T12:45:27Z</time>
      </trkpt>
      <trkpt lat="47.9294" lon="6.98646">
        <ele>896.1</ele>
        <time>2019-09-17T12:45:30Z</time>
      </trkpt>
      <trkpt lat="47.92937" lon="6.98648">
        <ele>898.2</ele>
        <time>2019-09-17T12:45:33Z</time>
      </trkpt>
      <trkpt lat="47.92934" lon="6.98651">
        <ele>898.7</ele>
        <time>2019-09-17T12:45:36Z</time>
      </trkpt>
      <trkpt lat="47.92932" lon="6.98653">
        <ele>899.7</ele>
        <time>2019-09-17T12:45:43Z</time>
      </trkpt>
      <trkpt lat="47.9293" lon="6.98656">
        <ele>901.3</ele>
        <time>2019-09-17T12:45:47Z</time>
      </trkpt>
      <trkpt lat="47.92927" lon="6.98657">
        <ele>902.3</ele>
        <time>2019-09-17T12:45:53Z</time>
      </trkpt>
      <trkpt lat="47.92924" lon="6.98658">
        <ele>903.9</ele>
        <time>2019-09-17T12:45:58Z</time>
      </trkpt>
      <trkpt lat="47.92922" lon="6.98659">
        <ele>905.1</ele>
        <time>2019-09-17T12:46:02Z</time>
      </trkpt>
      <trkpt lat="47.92919" lon="6.98661">
        <ele>906.2</ele>
        <time>2019-09-17T12:46:07Z</time>
      </trkpt>
      <trkpt lat="47.92916" lon="6.98663">
        <ele>907.8</ele>
        <time>2019-09-17T12:46:11Z</time>
      </trkpt>
      <trkpt lat="47.92913" lon="6.98666">
        <ele>908.9</ele>
        <time>2019-09-17T12:46:18Z</time>
      </trkpt>
      <trkpt lat="47.9291" lon="6.98668">
        <ele>910.5</ele>
        <time>2019-09-17T12:46:22Z</time>
      </trkpt>
      <trkpt lat="47.92907" lon="6.98671">
        <ele>912</ele>
        <time>2019-09-17T12:46:27Z</time>
      </trkpt>
      <trkpt lat="47.92906" lon="6.98674">
        <ele>912</ele>
        <time>2019-09-17T12:46:33Z</time>
      </trkpt>
      <trkpt lat="47.92904" lon="6.98678">
        <ele>913.4</ele>
        <time>2019-09-17T12:46:39Z</time>
      </trkpt>
      <trkpt lat="47.92902" lon="6.98681">
        <ele>914.7</ele>
        <time>2019-09-17T12:46:45Z</time>
      </trkpt>
      <trkpt lat="47.92899" lon="6.98682">
        <ele>915.6</ele>
        <time>2019-09-17T12:47:02Z</time>
      </trkpt>
      <trkpt lat="47.92896" lon="6.98684">
        <ele>916.9</ele>
        <time>2019-09-17T12:47:08Z</time>
      </trkpt>
      <trkpt lat="47.92893" lon="6.98686">
        <ele>917.9</ele>
        <time>2019-09-17T12:47:13Z</time>
      </trkpt>
      <trkpt lat="47.9289" lon="6.98689">
        <ele>919.4</ele>
        <time>2019-09-17T12:47:19Z</time>
      </trkpt>
      <trkpt lat="47.92887" lon="6.9869">
        <ele>920.4</ele>
        <time>2019-09-17T12:47:21Z</time>
      </trkpt>
      <trkpt lat="47.92884" lon="6.98691">
        <ele>921.4</ele>
        <time>2019-09-17T12:47:24Z</time>
      </trkpt>
      <trkpt lat="47.92882" lon="6.98694">
        <ele>922.8</ele>
        <time>2019-09-17T12:47:28Z</time>
      </trkpt>
      <trkpt lat="47.92881" lon="6.98698">
        <ele>923.4</ele>
        <time>2019-09-17T12:47:32Z</time>
      </trkpt>
      <trkpt lat="47.92879" lon="6.98702">
        <ele>924.9</ele>
        <time>2019-09-17T12:47:35Z</time>
      </trkpt>
      <trkpt lat="47.92877" lon="6.98705">
        <ele>926.4</ele>
        <time>2019-09-17T12:47:38Z</time>
      </trkpt>
      <trkpt lat="47.92873" lon="6.98708">
        <ele>927.3</ele>
        <time>2019-09-17T12:47:41Z</time>
      </trkpt>
      <trkpt lat="47.92872" lon="6.98712">
        <ele>927.8</ele>
        <time>2019-09-17T12:47:44Z</time>
      </trkpt>
      <trkpt lat="47.9287" lon="6.98716">
        <ele>929.5</ele>
        <time>2019-09-17T12:47:47Z</time>
      </trkpt>
      <trkpt lat="47.92869" lon="6.9872">
        <ele>930</ele>
        <time>2019-09-17T12:47:53Z</time>
      </trkpt>
      <trkpt lat="47.92867" lon="6.98724">
        <ele>931.7</ele>
        <time>2019-09-17T12:47:59Z</time>
      </trkpt>
      <trkpt lat="47.92865" lon="6.98727">
        <ele>932.3</ele>
        <time>2019-09-17T12:48:04Z</time>
      </trkpt>
      <trkpt lat="47.92862" lon="6.98729">
        <ele>934.5</ele>
        <time>2019-09-17T12:48:09Z</time>
      </trkpt>
      <trkpt lat="47.9286" lon="6.98727">
        <ele>934.4</ele>
        <time>2019-09-17T12:48:12Z</time>
      </trkpt>
      <trkpt lat="47.92857" lon="6.98728">
        <ele>935.4</ele>
        <time>2019-09-17T12:48:15Z</time>
      </trkpt>
      <trkpt lat="47.92854" lon="6.98729">
        <ele>936.3</ele>
        <time>2019-09-17T12:48:19Z</time>
      </trkpt>
      <trkpt lat="47.92852" lon="6.98727">
        <ele>937.2</ele>
        <time>2019-09-17T12:48:23Z</time>
      </trkpt>
      <trkpt lat="47.92849" lon="6.98728">
        <ele>938</ele>
        <time>2019-09-17T12:48:28Z</time>
      </trkpt>
      <trkpt lat="47.9285" lon="6.98733">
        <ele>939</ele>
        <time>2019-09-17T12:48:36Z</time>
      </trkpt>
      <trkpt lat="47.9285" lon="6.98737">
        <ele>939.7</ele>
        <time>2019-09-17T12:48:39Z</time>
      </trkpt>
      <trkpt lat="47.92848" lon="6.98738">
        <ele>940.5</ele>
        <time>2019-09-17T12:48:44Z</time>
      </trkpt>
      <trkpt lat="47.92846" lon="6.98734">
        <ele>939.7</ele>
        <time>2019-09-17T12:48:50Z</time>
      </trkpt>
      <trkpt lat="47.92846" lon="6.98739">
        <ele>940.4</ele>
        <time>2019-09-17T12:48:57Z</time>
      </trkpt>
      <trkpt lat="47.92845" lon="6.98743">
        <ele>941.1</ele>
        <time>2019-09-17T12:49:01Z</time>
      </trkpt>
      <trkpt lat="47.92844" lon="6.98748">
        <ele>942.7</ele>
        <time>2019-09-17T12:49:04Z</time>
      </trkpt>
      <trkpt lat="47.92842" lon="6.98751">
        <ele>943.4</ele>
        <time>2019-09-17T12:49:08Z</time>
      </trkpt>
      <trkpt lat="47.9284" lon="6.98754">
        <ele>944.9</ele>
        <time>2019-09-17T12:49:11Z</time>
      </trkpt>
      <trkpt lat="47.92838" lon="6.98757">
        <ele>946.2</ele>
        <time>2019-09-17T12:49:15Z</time>
      </trkpt>
      <trkpt lat="47.92835" lon="6.98759">
        <ele>946.9</ele>
        <time>2019-09-17T12:49:19Z</time>
      </trkpt>
      <trkpt lat="47.92833" lon="6.98762">
        <ele>948.2</ele>
        <time>2019-09-17T12:49:23Z</time>
      </trkpt>
      <trkpt lat="47.92831" lon="6.98765">
        <ele>948.8</ele>
        <time>2019-09-17T12:49:27Z</time>
      </trkpt>
      <trkpt lat="47.92828" lon="6.98768">
        <ele>949.3</ele>
        <time>2019-09-17T12:49:32Z</time>
      </trkpt>
      <trkpt lat="47.92827" lon="6.98771">
        <ele>950.5</ele>
        <time>2019-09-17T12:49:37Z</time>
      </trkpt>
      <trkpt lat="47.92827" lon="6.98776">
        <ele>951.1</ele>
        <time>2019-09-17T12:49:42Z</time>
      </trkpt>
      <trkpt lat="47.92828" lon="6.98781">
        <ele>951.7</ele>
        <time>2019-09-17T12:49:46Z</time>
      </trkpt>
      <trkpt lat="47.92827" lon="6.98785">
        <ele>952.4</ele>
        <time>2019-09-17T12:49:50Z</time>
      </trkpt>
      <trkpt lat="47.92826" lon="6.9879">
        <ele>953</ele>
        <time>2019-09-17T12:49:54Z</time>
      </trkpt>
      <trkpt lat="47.92825" lon="6.98794">
        <ele>953.6</ele>
        <time>2019-09-17T12:49:58Z</time>
      </trkpt>
      <trkpt lat="47.92825" lon="6.98798">
        <ele>954.2</ele>
        <time>2019-09-17T12:50:02Z</time>
      </trkpt>
      <trkpt lat="47.92825" lon="6.98803">
        <ele>954.9</ele>
        <time>2019-09-17T12:50:06Z</time>
      </trkpt>
      <trkpt lat="47.92823" lon="6.98806">
        <ele>956.1</ele>
        <time>2019-09-17T12:50:12Z</time>
      </trkpt>
      <trkpt lat="47.92822" lon="6.9881">
        <ele>957.4</ele>
        <time>2019-09-17T12:50:17Z</time>
      </trkpt>
      <trkpt lat="47.92819" lon="6.98812">
        <ele>958.5</ele>
        <time>2019-09-17T12:50:23Z</time>
      </trkpt>
      <trkpt lat="47.92817" lon="6.98815">
        <ele>958.5</ele>
        <time>2019-09-17T12:50:26Z</time>
      </trkpt>
      <trkpt lat="47.92815" lon="6.98818">
        <ele>959.7</ele>
        <time>2019-09-17T12:50:37Z</time>
      </trkpt>
      <trkpt lat="47.92814" lon="6.98823">
        <ele>960.3</ele>
        <time>2019-09-17T12:50:41Z</time>
      </trkpt>
      <trkpt lat="47.92813" lon="6.98827">
        <ele>961.6</ele>
        <time>2019-09-17T12:50:44Z</time>
      </trkpt>
      <trkpt lat="47.9281" lon="6.98832">
        <ele>962.9</ele>
        <time>2019-09-17T12:50:47Z</time>
      </trkpt>
      <trkpt lat="47.92808" lon="6.98835">
        <ele>963.7</ele>
        <time>2019-09-17T12:50:50Z</time>
      </trkpt>
      <trkpt lat="47.92806" lon="6.98838">
        <ele>964.3</ele>
        <time>2019-09-17T12:50:53Z</time>
      </trkpt>
      <trkpt lat="47.92805" lon="6.98842">
        <ele>965</ele>
        <time>2019-09-17T12:50:56Z</time>
      </trkpt>
      <trkpt lat="47.92805" lon="6.98847">
        <ele>966.4</ele>
        <time>2019-09-17T12:51:00Z</time>
      </trkpt>
      <trkpt lat="47.92804" lon="6.98852">
        <ele>967.7</ele>
        <time>2019-09-17T12:51:04Z</time>
      </trkpt>
      <trkpt lat="47.92805" lon="6.98857">
        <ele>968.3</ele>
        <time>2019-09-17T12:51:11Z</time>
      </trkpt>
      <trkpt lat="47.92803" lon="6.98861">
        <ele>969</ele>
        <time>2019-09-17T12:51:15Z</time>
      </trkpt>
      <trkpt lat="47.92802" lon="6.98865">
        <ele>969.6</ele>
        <time>2019-09-17T12:51:19Z</time>
      </trkpt>
      <trkpt lat="47.92802" lon="6.9887">
        <ele>970.8</ele>
        <time>2019-09-17T12:51:26Z</time>
      </trkpt>
      <trkpt lat="47.92801" lon="6.98874">
        <ele>971.4</ele>
        <time>2019-09-17T12:51:30Z</time>
      </trkpt>
      <trkpt lat="47.92799" lon="6.98877">
        <ele>972</ele>
        <time>2019-09-17T12:51:33Z</time>
      </trkpt>
      <trkpt lat="47.92798" lon="6.98881">
        <ele>973.1</ele>
        <time>2019-09-17T12:51:37Z</time>
      </trkpt>
      <trkpt lat="47.92796" lon="6.98885">
        <ele>973.7</ele>
        <time>2019-09-17T12:51:41Z</time>
      </trkpt>
      <trkpt lat="47.92795" lon="6.98889">
        <ele>974.1</ele>
        <time>2019-09-17T12:51:45Z</time>
      </trkpt>
      <trkpt lat="47.92794" lon="6.98893">
        <ele>974.7</ele>
        <time>2019-09-17T12:51:50Z</time>
      </trkpt>
      <trkpt lat="47.92794" lon="6.98898">
        <ele>975.3</ele>
        <time>2019-09-17T12:51:54Z</time>
      </trkpt>
      <trkpt lat="47.92793" lon="6.98902">
        <ele>977</ele>
        <time>2019-09-17T12:51:59Z</time>
      </trkpt>
      <trkpt lat="47.92792" lon="6.98907">
        <ele>977.6</ele>
        <time>2019-09-17T12:52:05Z</time>
      </trkpt>
      <trkpt lat="47.9279" lon="6.9891">
        <ele>978</ele>
        <time>2019-09-17T12:52:10Z</time>
      </trkpt>
      <trkpt lat="47.92788" lon="6.98915">
        <ele>979.4</ele>
        <time>2019-09-17T12:52:14Z</time>
      </trkpt>
      <trkpt lat="47.92787" lon="6.98919">
        <ele>979.7</ele>
        <time>2019-09-17T12:52:17Z</time>
      </trkpt>
      <trkpt lat="47.92786" lon="6.98923">
        <ele>980.4</ele>
        <time>2019-09-17T12:52:21Z</time>
      </trkpt>
      <trkpt lat="47.92785" lon="6.98927">
        <ele>981.1</ele>
        <time>2019-09-17T12:52:24Z</time>
      </trkpt>
      <trkpt lat="47.92784" lon="6.98931">
        <ele>982.1</ele>
        <time>2019-09-17T12:52:27Z</time>
      </trkpt>
      <trkpt lat="47.92782" lon="6.98935">
        <ele>982.7</ele>
        <time>2019-09-17T12:52:31Z</time>
      </trkpt>
      <trkpt lat="47.92781" lon="6.9894">
        <ele>983.5</ele>
        <time>2019-09-17T12:52:35Z</time>
      </trkpt>
      <trkpt lat="47.9278" lon="6.98944">
        <ele>984.1</ele>
        <time>2019-09-17T12:52:38Z</time>
      </trkpt>
      <trkpt lat="47.92779" lon="6.98949">
        <ele>984.9</ele>
        <time>2019-09-17T12:52:44Z</time>
      </trkpt>
      <trkpt lat="47.92777" lon="6.98952">
        <ele>985.4</ele>
        <time>2019-09-17T12:52:47Z</time>
      </trkpt>
      <trkpt lat="47.92775" lon="6.98954">
        <ele>986.2</ele>
        <time>2019-09-17T12:52:50Z</time>
      </trkpt>
      <trkpt lat="47.92772" lon="6.98957">
        <ele>986.3</ele>
        <time>2019-09-17T12:52:53Z</time>
      </trkpt>
      <trkpt lat="47.92769" lon="6.98959">
        <ele>987.1</ele>
        <time>2019-09-17T12:52:58Z</time>
      </trkpt>
      <trkpt lat="47.92767" lon="6.98962">
        <ele>987.8</ele>
        <time>2019-09-17T12:53:01Z</time>
      </trkpt>
      <trkpt lat="47.92765" lon="6.98966">
        <ele>987.8</ele>
        <time>2019-09-17T12:53:05Z</time>
      </trkpt>
      <trkpt lat="47.92763" lon="6.9897">
        <ele>988.6</ele>
        <time>2019-09-17T12:53:09Z</time>
      </trkpt>
      <trkpt lat="47.92764" lon="6.98974">
        <ele>989.3</ele>
        <time>2019-09-17T12:53:14Z</time>
      </trkpt>
      <trkpt lat="47.92764" lon="6.98978">
        <ele>990</ele>
        <time>2019-09-17T12:53:20Z</time>
      </trkpt>
      <trkpt lat="47.92763" lon="6.98983">
        <ele>990.7</ele>
        <time>2019-09-17T12:53:25Z</time>
      </trkpt>
      <trkpt lat="47.9276" lon="6.98985">
        <ele>991.5</ele>
        <time>2019-09-17T12:53:28Z</time>
      </trkpt>
      <trkpt lat="47.92757" lon="6.98986">
        <ele>991.5</ele>
        <time>2019-09-17T12:53:32Z</time>
      </trkpt>
      <trkpt lat="47.92755" lon="6.98989">
        <ele>992.3</ele>
        <time>2019-09-17T12:53:35Z</time>
      </trkpt>
      <trkpt lat="47.92754" lon="6.98993">
        <ele>993</ele>
        <time>2019-09-17T12:53:38Z</time>
      </trkpt>
      <trkpt lat="47.92752" lon="6.98997">
        <ele>993.8</ele>
        <time>2019-09-17T12:53:45Z</time>
      </trkpt>
      <trkpt lat="47.92751" lon="6.99001">
        <ele>994.5</ele>
        <time>2019-09-17T12:53:50Z</time>
      </trkpt>
      <trkpt lat="47.9275" lon="6.99006">
        <ele>995.3</ele>
        <time>2019-09-17T12:53:55Z</time>
      </trkpt>
      <trkpt lat="47.9275" lon="6.9901">
        <ele>996</ele>
        <time>2019-09-17T12:53:58Z</time>
      </trkpt>
      <trkpt lat="47.92751" lon="6.99014">
        <ele>996.7</ele>
        <time>2019-09-17T12:54:02Z</time>
      </trkpt>
      <trkpt lat="47.92749" lon="6.99016">
        <ele>996.8</ele>
        <time>2019-09-17T12:54:14Z</time>
      </trkpt>
      <trkpt lat="47.92747" lon="6.99019">
        <ele>997.6</ele>
        <time>2019-09-17T12:54:20Z</time>
      </trkpt>
      <trkpt lat="47.92747" lon="6.99025">
        <ele>998.4</ele>
        <time>2019-09-17T12:54:26Z</time>
      </trkpt>
      <trkpt lat="47.92747" lon="6.99029">
        <ele>999.1</ele>
        <time>2019-09-17T12:54:29Z</time>
      </trkpt>
      <trkpt lat="47.92747" lon="6.99033">
        <ele>999.7</ele>
        <time>2019-09-17T12:54:31Z</time>
      </trkpt>
      <trkpt lat="47.92747" lon="6.99038">
        <ele>1000.3</ele>
        <time>2019-09-17T12:54:34Z</time>
      </trkpt>
      <trkpt lat="47.92746" lon="6.99043">
        <ele>1001.2</ele>
        <time>2019-09-17T12:54:37Z</time>
      </trkpt>
      <trkpt lat="47.92744" lon="6.99046">
        <ele>1002.1</ele>
        <time>2019-09-17T12:54:40Z</time>
      </trkpt>
      <trkpt lat="47.92743" lon="6.9905">
        <ele>1002.8</ele>
        <time>2019-09-17T12:54:44Z</time>
      </trkpt>
      <trkpt lat="47.92742" lon="6.99054">
        <ele>1003.6</ele>
        <time>2019-09-17T12:54:47Z</time>
      </trkpt>
      <trkpt lat="47.92742" lon="6.99058">
        <ele>1004.3</ele>
        <time>2019-09-17T12:54:52Z</time>
      </trkpt>
      <trkpt lat="47.92742" lon="6.99063">
        <ele>1005</ele>
        <time>2019-09-17T12:54:58Z</time>
      </trkpt>
      <trkpt lat="47.92741" lon="6.99068">
        <ele>1005.9</ele>
        <time>2019-09-17T12:55:02Z</time>
      </trkpt>
      <trkpt lat="47.9274" lon="6.99072">
        <ele>1006.4</ele>
        <time>2019-09-17T12:55:05Z</time>
      </trkpt>
      <trkpt lat="47.92739" lon="6.99076">
        <ele>1006.9</ele>
        <time>2019-09-17T12:55:09Z</time>
      </trkpt>
      <trkpt lat="47.92737" lon="6.9908">
        <ele>1007.6</ele>
        <time>2019-09-17T12:55:14Z</time>
      </trkpt>
      <trkpt lat="47.92738" lon="6.99084">
        <ele>1008.2</ele>
        <time>2019-09-17T12:55:28Z</time>
      </trkpt>
      <trkpt lat="47.92738" lon="6.99088">
        <ele>1008.7</ele>
        <time>2019-09-17T12:55:32Z</time>
      </trkpt>
      <trkpt lat="47.92739" lon="6.99094">
        <ele>1009.1</ele>
        <time>2019-09-17T12:55:36Z</time>
      </trkpt>
      <trkpt lat="47.92739" lon="6.99098">
        <ele>1009.8</ele>
        <time>2019-09-17T12:55:39Z</time>
      </trkpt>
      <trkpt lat="47.92739" lon="6.99103">
        <ele>1010.5</ele>
        <time>2019-09-17T12:55:41Z</time>
      </trkpt>
      <trkpt lat="47.92737" lon="6.99108">
        <ele>1012.3</ele>
        <time>2019-09-17T12:55:43Z</time>
      </trkpt>
      <trkpt lat="47.92736" lon="6.99112">
        <ele>1012.4</ele>
        <time>2019-09-17T12:55:45Z</time>
      </trkpt>
      <trkpt lat="47.92734" lon="6.99116">
        <ele>1013.2</ele>
        <time>2019-09-17T12:55:47Z</time>
      </trkpt>
      <trkpt lat="47.92732" lon="6.9912">
        <ele>1014.3</ele>
        <time>2019-09-17T12:55:50Z</time>
      </trkpt>
      <trkpt lat="47.9273" lon="6.99123">
        <ele>1015.3</ele>
        <time>2019-09-17T12:55:53Z</time>
      </trkpt>
      <trkpt lat="47.92727" lon="6.99125">
        <ele>1015.2</ele>
        <time>2019-09-17T12:55:56Z</time>
      </trkpt>
      <trkpt lat="47.92725" lon="6.9913">
        <ele>1016.3</ele>
        <time>2019-09-17T12:55:59Z</time>
      </trkpt>
      <trkpt lat="47.92725" lon="6.99134">
        <ele>1017.2</ele>
        <time>2019-09-17T12:56:02Z</time>
      </trkpt>
      <trkpt lat="47.92724" lon="6.99138">
        <ele>1019.2</ele>
        <time>2019-09-17T12:56:16Z</time>
      </trkpt>
      <trkpt lat="47.92724" lon="6.99144">
        <ele>1020.1</ele>
        <time>2019-09-17T12:56:21Z</time>
      </trkpt>
      <trkpt lat="47.92723" lon="6.99149">
        <ele>1020.9</ele>
        <time>2019-09-17T12:56:24Z</time>
      </trkpt>
      <trkpt lat="47.92721" lon="6.99154">
        <ele>1021.7</ele>
        <time>2019-09-17T12:56:28Z</time>
      </trkpt>
      <trkpt lat="47.92721" lon="6.99158">
        <ele>1022.7</ele>
        <time>2019-09-17T12:56:32Z</time>
      </trkpt>
      <trkpt lat="47.92718" lon="6.99161">
        <ele>1023.7</ele>
        <time>2019-09-17T12:56:36Z</time>
      </trkpt>
      <trkpt lat="47.92717" lon="6.99165">
        <ele>1024.3</ele>
        <time>2019-09-17T12:56:39Z</time>
      </trkpt>
      <trkpt lat="47.92715" lon="6.99169">
        <ele>1025.2</ele>
        <time>2019-09-17T12:56:43Z</time>
      </trkpt>
      <trkpt lat="47.92713" lon="6.99172">
        <ele>1025.1</ele>
        <time>2019-09-17T12:56:47Z</time>
      </trkpt>
      <trkpt lat="47.92712" lon="6.99177">
        <ele>1026.4</ele>
        <time>2019-09-17T12:56:50Z</time>
      </trkpt>
      <trkpt lat="47.92711" lon="6.99181">
        <ele>1026.4</ele>
        <time>2019-09-17T12:56:52Z</time>
      </trkpt>
      <trkpt lat="47.9271" lon="6.99185">
        <ele>1026.8</ele>
        <time>2019-09-17T12:56:55Z</time>
      </trkpt>
      <trkpt lat="47.9271" lon="6.9919">
        <ele>1028</ele>
        <time>2019-09-17T12:56:59Z</time>
      </trkpt>
      <trkpt lat="47.92709" lon="6.99194">
        <ele>1028.4</ele>
        <time>2019-09-17T12:57:04Z</time>
      </trkpt>
      <trkpt lat="47.92709" lon="6.99199">
        <ele>1028.7</ele>
        <time>2019-09-17T12:57:10Z</time>
      </trkpt>
      <trkpt lat="47.9271" lon="6.99203">
        <ele>1028.7</ele>
        <time>2019-09-17T12:57:14Z</time>
      </trkpt>
      <trkpt lat="47.92712" lon="6.99207">
        <ele>1028.9</ele>
        <time>2019-09-17T12:57:17Z</time>
      </trkpt>
      <trkpt lat="47.92714" lon="6.99212">
        <ele>1028.8</ele>
        <time>2019-09-17T12:57:20Z</time>
      </trkpt>
      <trkpt lat="47.92714" lon="6.99218">
        <ele>1029</ele>
        <time>2019-09-17T12:57:23Z</time>
      </trkpt>
      <trkpt lat="47.92714" lon="6.99223">
        <ele>1029.2</ele>
        <time>2019-09-17T12:57:27Z</time>
      </trkpt>
      <trkpt lat="47.92714" lon="6.99227">
        <ele>1029.5</ele>
        <time>2019-09-17T12:57:30Z</time>
      </trkpt>
      <trkpt lat="47.92714" lon="6.99231">
        <ele>1029.9</ele>
        <time>2019-09-17T12:57:33Z</time>
      </trkpt>
      <trkpt lat="47.92712" lon="6.99235">
        <ele>1030.6</ele>
        <time>2019-09-17T12:57:36Z</time>
      </trkpt>
      <trkpt lat="47.92711" lon="6.99239">
        <ele>1031.1</ele>
        <time>2019-09-17T12:57:38Z</time>
      </trkpt>
      <trkpt lat="47.92709" lon="6.99244">
        <ele>1031.8</ele>
        <time>2019-09-17T12:57:41Z</time>
      </trkpt>
      <trkpt lat="47.92706" lon="6.99248">
        <ele>1032.5</ele>
        <time>2019-09-17T12:57:44Z</time>
      </trkpt>
      <trkpt lat="47.92705" lon="6.99251">
        <ele>1033.1</ele>
        <time>2019-09-17T12:57:46Z</time>
      </trkpt>
      <trkpt lat="47.92702" lon="6.99254">
        <ele>1033.8</ele>
        <time>2019-09-17T12:57:50Z</time>
      </trkpt>
      <trkpt lat="47.927" lon="6.99257">
        <ele>1033.8</ele>
        <time>2019-09-17T12:57:55Z</time>
      </trkpt>
      <trkpt lat="47.92697" lon="6.9926">
        <ele>1034.4</ele>
        <time>2019-09-17T12:57:59Z</time>
      </trkpt>
      <trkpt lat="47.92695" lon="6.99264">
        <ele>1035.1</ele>
        <time>2019-09-17T12:58:03Z</time>
      </trkpt>
      <trkpt lat="47.92693" lon="6.99267">
        <ele>1035.6</ele>
        <time>2019-09-17T12:58:07Z</time>
      </trkpt>
      <trkpt lat="47.92691" lon="6.99271">
        <ele>1035.5</ele>
        <time>2019-09-17T12:58:10Z</time>
      </trkpt>
      <trkpt lat="47.92691" lon="6.99276">
        <ele>1036.7</ele>
        <time>2019-09-17T12:58:14Z</time>
      </trkpt>
      <trkpt lat="47.9269" lon="6.9928">
        <ele>1037.3</ele>
        <time>2019-09-17T12:58:17Z</time>
      </trkpt>
      <trkpt lat="47.92689" lon="6.99286">
        <ele>1037.7</ele>
        <time>2019-09-17T12:58:20Z</time>
      </trkpt>
      <trkpt lat="47.92689" lon="6.99292">
        <ele>1038.3</ele>
        <time>2019-09-17T12:58:23Z</time>
      </trkpt>
      <trkpt lat="47.92688" lon="6.99297">
        <ele>1039.5</ele>
        <time>2019-09-17T12:58:26Z</time>
      </trkpt>
      <trkpt lat="47.92686" lon="6.99302">
        <ele>1039.9</ele>
        <time>2019-09-17T12:58:30Z</time>
      </trkpt>
      <trkpt lat="47.92685" lon="6.99305">
        <ele>1039.8</ele>
        <time>2019-09-17T12:58:34Z</time>
      </trkpt>
      <trkpt lat="47.92683" lon="6.9931">
        <ele>1040.1</ele>
        <time>2019-09-17T12:58:38Z</time>
      </trkpt>
      <trkpt lat="47.92682" lon="6.99314">
        <ele>1040.7</ele>
        <time>2019-09-17T12:58:41Z</time>
      </trkpt>
      <trkpt lat="47.9268" lon="6.99319">
        <ele>1041.5</ele>
        <time>2019-09-17T12:58:45Z</time>
      </trkpt>
      <trkpt lat="47.92679" lon="6.99324">
        <ele>1041.9</ele>
        <time>2019-09-17T12:58:49Z</time>
      </trkpt>
      <trkpt lat="47.92679" lon="6.99329">
        <ele>1042.3</ele>
        <time>2019-09-17T12:58:53Z</time>
      </trkpt>
      <trkpt lat="47.9268" lon="6.99335">
        <ele>1042.6</ele>
        <time>2019-09-17T12:58:58Z</time>
      </trkpt>
      <trkpt lat="47.9268" lon="6.99339">
        <ele>1042.9</ele>
        <time>2019-09-17T12:59:01Z</time>
      </trkpt>
      <trkpt lat="47.9268" lon="6.99344">
        <ele>1043.2</ele>
        <time>2019-09-17T12:59:05Z</time>
      </trkpt>
      <trkpt lat="47.9268" lon="6.99349">
        <ele>1043.8</ele>
        <time>2019-09-17T12:59:08Z</time>
      </trkpt>
      <trkpt lat="47.9268" lon="6.99355">
        <ele>1044</ele>
        <time>2019-09-17T12:59:11Z</time>
      </trkpt>
      <trkpt lat="47.92679" lon="6.99359">
        <ele>1044.2</ele>
        <time>2019-09-17T12:59:13Z</time>
      </trkpt>
      <trkpt lat="47.92678" lon="6.99364">
        <ele>1044.5</ele>
        <time>2019-09-17T12:59:15Z</time>
      </trkpt>
      <trkpt lat="47.92677" lon="6.99368">
        <ele>1044.4</ele>
        <time>2019-09-17T12:59:17Z</time>
      </trkpt>
      <trkpt lat="47.92676" lon="6.99373">
        <ele>1044.7</ele>
        <time>2019-09-17T12:59:20Z</time>
      </trkpt>
      <trkpt lat="47.92674" lon="6.99377">
        <ele>1044.5</ele>
        <time>2019-09-17T12:59:23Z</time>
      </trkpt>
      <trkpt lat="47.92672" lon="6.99382">
        <ele>1044.4</ele>
        <time>2019-09-17T12:59:26Z</time>
      </trkpt>
      <trkpt lat="47.9267" lon="6.99386">
        <ele>1044.4</ele>
        <time>2019-09-17T12:59:28Z</time>
      </trkpt>
      <trkpt lat="47.92668" lon="6.9939">
        <ele>1044.2</ele>
        <time>2019-09-17T12:59:31Z</time>
      </trkpt>
      <trkpt lat="47.92666" lon="6.99394">
        <ele>1043.9</ele>
        <time>2019-09-17T12:59:34Z</time>
      </trkpt>
      <trkpt lat="47.92665" lon="6.99399">
        <ele>1043.9</ele>
        <time>2019-09-17T12:59:38Z</time>
      </trkpt>
      <trkpt lat="47.92664" lon="6.99404">
        <ele>1043.9</ele>
        <time>2019-09-17T12:59:41Z</time>
      </trkpt>
      <trkpt lat="47.92664" lon="6.99408">
        <ele>1043.6</ele>
        <time>2019-09-17T12:59:44Z</time>
      </trkpt>
      <trkpt lat="47.92663" lon="6.99413">
        <ele>1043.6</ele>
        <time>2019-09-17T12:59:47Z</time>
      </trkpt>
      <trkpt lat="47.92663" lon="6.99418">
        <ele>1043.6</ele>
        <time>2019-09-17T12:59:50Z</time>
      </trkpt>
      <trkpt lat="47.92662" lon="6.99423">
        <ele>1043.6</ele>
        <time>2019-09-17T12:59:53Z</time>
      </trkpt>
      <trkpt lat="47.92662" lon="6.99427">
        <ele>1043.5</ele>
        <time>2019-09-17T12:59:56Z</time>
      </trkpt>
      <trkpt lat="47.92661" lon="6.99432">
        <ele>1043</ele>
        <time>2019-09-17T12:59:59Z</time>
      </trkpt>
      <trkpt lat="47.92659" lon="6.99436">
        <ele>1042.9</ele>
        <time>2019-09-17T13:00:02Z</time>
      </trkpt>
      <trkpt lat="47.92658" lon="6.99441">
        <ele>1042.4</ele>
        <time>2019-09-17T13:00:05Z</time>
      </trkpt>
      <trkpt lat="47.92657" lon="6.99446">
        <ele>1042.3</ele>
        <time>2019-09-17T13:00:08Z</time>
      </trkpt>
      <trkpt lat="47.92656" lon="6.99451">
        <ele>1042.2</ele>
        <time>2019-09-17T13:00:11Z</time>
      </trkpt>
      <trkpt lat="47.92655" lon="6.99455">
        <ele>1041.6</ele>
        <time>2019-09-17T13:00:13Z</time>
      </trkpt>
      <trkpt lat="47.92653" lon="6.99461">
        <ele>1041.5</ele>
        <time>2019-09-17T13:00:16Z</time>
      </trkpt>
      <trkpt lat="47.92651" lon="6.99464">
        <ele>1041.1</ele>
        <time>2019-09-17T13:00:24Z</time>
      </trkpt>
      <trkpt lat="47.92649" lon="6.99468">
        <ele>1040.6</ele>
        <time>2019-09-17T13:00:27Z</time>
      </trkpt>
      <trkpt lat="47.92647" lon="6.99473">
        <ele>1040.5</ele>
        <time>2019-09-17T13:00:30Z</time>
      </trkpt>
      <trkpt lat="47.92645" lon="6.99477">
        <ele>1039.9</ele>
        <time>2019-09-17T13:00:32Z</time>
      </trkpt>
      <trkpt lat="47.92644" lon="6.99482">
        <ele>1039.3</ele>
        <time>2019-09-17T13:00:34Z</time>
      </trkpt>
      <trkpt lat="47.92642" lon="6.99487">
        <ele>1039.1</ele>
        <time>2019-09-17T13:00:36Z</time>
      </trkpt>
      <trkpt lat="47.92641" lon="6.99491">
        <ele>1038.6</ele>
        <time>2019-09-17T13:00:38Z</time>
      </trkpt>
      <trkpt lat="47.92639" lon="6.99496">
        <ele>1038.4</ele>
        <time>2019-09-17T13:00:40Z</time>
      </trkpt>
      <trkpt lat="47.92638" lon="6.99499">
        <ele>1037.8</ele>
        <time>2019-09-17T13:00:42Z</time>
      </trkpt>
      <trkpt lat="47.92637" lon="6.99503">
        <ele>1037.7</ele>
        <time>2019-09-17T13:00:44Z</time>
      </trkpt>
      <trkpt lat="47.92636" lon="6.99508">
        <ele>1037.5</ele>
        <time>2019-09-17T13:00:47Z</time>
      </trkpt>
      <trkpt lat="47.92634" lon="6.99512">
        <ele>1037.1</ele>
        <time>2019-09-17T13:00:50Z</time>
      </trkpt>
      <trkpt lat="47.92632" lon="6.99517">
        <ele>1036.9</ele>
        <time>2019-09-17T13:00:53Z</time>
      </trkpt>
      <trkpt lat="47.92631" lon="6.99522">
        <ele>1036.6</ele>
        <time>2019-09-17T13:00:56Z</time>
      </trkpt>
      <trkpt lat="47.92629" lon="6.99527">
        <ele>1036.4</ele>
        <time>2019-09-17T13:00:59Z</time>
      </trkpt>
      <trkpt lat="47.9263" lon="6.99531">
        <ele>1036.3</ele>
        <time>2019-09-17T13:01:01Z</time>
      </trkpt>
      <trkpt lat="47.9263" lon="6.99536">
        <ele>1036.2</ele>
        <time>2019-09-17T13:01:03Z</time>
      </trkpt>
      <trkpt lat="47.92632" lon="6.99541">
        <ele>1036.1</ele>
        <time>2019-09-17T13:01:06Z</time>
      </trkpt>
      <trkpt lat="47.92634" lon="6.99544">
        <ele>1036.3</ele>
        <time>2019-09-17T13:01:08Z</time>
      </trkpt>
      <trkpt lat="47.92635" lon="6.99549">
        <ele>1036.6</ele>
        <time>2019-09-17T13:01:11Z</time>
      </trkpt>
      <trkpt lat="47.92636" lon="6.99553">
        <ele>1036.6</ele>
        <time>2019-09-17T13:01:14Z</time>
      </trkpt>
      <trkpt lat="47.92636" lon="6.99558">
        <ele>1036.7</ele>
        <time>2019-09-17T13:01:17Z</time>
      </trkpt>
      <trkpt lat="47.92637" lon="6.99562">
        <ele>1036.7</ele>
        <time>2019-09-17T13:01:20Z</time>
      </trkpt>
      <trkpt lat="47.92634" lon="6.99564">
        <ele>1036.5</ele>
        <time>2019-09-17T13:01:26Z</time>
      </trkpt>
      <trkpt lat="47.92631" lon="6.99566">
        <ele>1036.1</ele>
        <time>2019-09-17T13:01:29Z</time>
      </trkpt>
      <trkpt lat="47.92628" lon="6.9957">
        <ele>1035.8</ele>
        <time>2019-09-17T13:01:32Z</time>
      </trkpt>
      <trkpt lat="47.92626" lon="6.99573">
        <ele>1035.6</ele>
        <time>2019-09-17T13:01:41Z</time>
      </trkpt>
      <trkpt lat="47.92625" lon="6.99577">
        <ele>1035.8</ele>
        <time>2019-09-17T13:01:44Z</time>
      </trkpt>
      <trkpt lat="47.92624" lon="6.99581">
        <ele>1035.9</ele>
        <time>2019-09-17T13:01:48Z</time>
      </trkpt>
      <trkpt lat="47.92622" lon="6.99585">
        <ele>1035.7</ele>
        <time>2019-09-17T13:01:51Z</time>
      </trkpt>
      <trkpt lat="47.9262" lon="6.9959">
        <ele>1035.5</ele>
        <time>2019-09-17T13:01:54Z</time>
      </trkpt>
      <trkpt lat="47.92619" lon="6.99594">
        <ele>1035.6</ele>
        <time>2019-09-17T13:01:56Z</time>
      </trkpt>
      <trkpt lat="47.92617" lon="6.996">
        <ele>1035.2</ele>
        <time>2019-09-17T13:01:58Z</time>
      </trkpt>
      <trkpt lat="47.92616" lon="6.99605">
        <ele>1035.3</ele>
        <time>2019-09-17T13:02:00Z</time>
      </trkpt>
      <trkpt lat="47.92616" lon="6.99609">
        <ele>1035.4</ele>
        <time>2019-09-17T13:02:02Z</time>
      </trkpt>
      <trkpt lat="47.92614" lon="6.99615">
        <ele>1034.9</ele>
        <time>2019-09-17T13:02:05Z</time>
      </trkpt>
      <trkpt lat="47.92613" lon="6.9962">
        <ele>1035</ele>
        <time>2019-09-17T13:02:07Z</time>
      </trkpt>
      <trkpt lat="47.92611" lon="6.99625">
        <ele>1034.5</ele>
        <time>2019-09-17T13:02:09Z</time>
      </trkpt>
      <trkpt lat="47.9261" lon="6.9963">
        <ele>1034.6</ele>
        <time>2019-09-17T13:02:11Z</time>
      </trkpt>
      <trkpt lat="47.92609" lon="6.99634">
        <ele>1034</ele>
        <time>2019-09-17T13:02:13Z</time>
      </trkpt>
      <trkpt lat="47.92606" lon="6.99638">
        <ele>1033.5</ele>
        <time>2019-09-17T13:02:15Z</time>
      </trkpt>
      <trkpt lat="47.92604" lon="6.99642">
        <ele>1033.6</ele>
        <time>2019-09-17T13:02:18Z</time>
      </trkpt>
      <trkpt lat="47.92603" lon="6.99646">
        <ele>1033.1</ele>
        <time>2019-09-17T13:02:20Z</time>
      </trkpt>
      <trkpt lat="47.92602" lon="6.9965">
        <ele>1033.3</ele>
        <time>2019-09-17T13:02:22Z</time>
      </trkpt>
      <trkpt lat="47.926" lon="6.99654">
        <ele>1032.8</ele>
        <time>2019-09-17T13:02:24Z</time>
      </trkpt>
      <trkpt lat="47.92599" lon="6.99658">
        <ele>1032.9</ele>
        <time>2019-09-17T13:02:26Z</time>
      </trkpt>
      <trkpt lat="47.92598" lon="6.99663">
        <ele>1033.1</ele>
        <time>2019-09-17T13:02:30Z</time>
      </trkpt>
      <trkpt lat="47.92597" lon="6.99667">
        <ele>1032.8</ele>
        <time>2019-09-17T13:02:33Z</time>
      </trkpt>
      <trkpt lat="47.92595" lon="6.99671">
        <ele>1033.1</ele>
        <time>2019-09-17T13:02:36Z</time>
      </trkpt>
      <trkpt lat="47.92595" lon="6.99677">
        <ele>1033.5</ele>
        <time>2019-09-17T13:02:40Z</time>
      </trkpt>
      <trkpt lat="47.92594" lon="6.99683">
        <ele>1033.3</ele>
        <time>2019-09-17T13:02:43Z</time>
      </trkpt>
      <trkpt lat="47.92594" lon="6.99687">
        <ele>1033.9</ele>
        <time>2019-09-17T13:02:46Z</time>
      </trkpt>
      <trkpt lat="47.92594" lon="6.99692">
        <ele>1035.3</ele>
        <time>2019-09-17T13:02:49Z</time>
      </trkpt>
      <trkpt lat="47.92595" lon="6.99697">
        <ele>1036</ele>
        <time>2019-09-17T13:02:52Z</time>
      </trkpt>
      <trkpt lat="47.92594" lon="6.99703">
        <ele>1036.7</ele>
        <time>2019-09-17T13:02:55Z</time>
      </trkpt>
      <trkpt lat="47.92593" lon="6.99708">
        <ele>1037.3</ele>
        <time>2019-09-17T13:02:58Z</time>
      </trkpt>
      <trkpt lat="47.92592" lon="6.99713">
        <ele>1037.9</ele>
        <time>2019-09-17T13:03:01Z</time>
      </trkpt>
      <trkpt lat="47.92591" lon="6.99717">
        <ele>1037.9</ele>
        <time>2019-09-17T13:03:04Z</time>
      </trkpt>
      <trkpt lat="47.9259" lon="6.99723">
        <ele>1039.2</ele>
        <time>2019-09-17T13:03:08Z</time>
      </trkpt>
      <trkpt lat="47.92589" lon="6.99728">
        <ele>1039.8</ele>
        <time>2019-09-17T13:03:11Z</time>
      </trkpt>
      <trkpt lat="47.92588" lon="6.99733">
        <ele>1039.9</ele>
        <time>2019-09-17T13:03:14Z</time>
      </trkpt>
      <trkpt lat="47.92587" lon="6.99737">
        <ele>1040.5</ele>
        <time>2019-09-17T13:03:17Z</time>
      </trkpt>
      <trkpt lat="47.92586" lon="6.99742">
        <ele>1040.6</ele>
        <time>2019-09-17T13:03:21Z</time>
      </trkpt>
      <trkpt lat="47.92586" lon="6.99748">
        <ele>1042</ele>
        <time>2019-09-17T13:03:24Z</time>
      </trkpt>
      <trkpt lat="47.92585" lon="6.99754">
        <ele>1042.6</ele>
        <time>2019-09-17T13:03:27Z</time>
      </trkpt>
      <trkpt lat="47.92585" lon="6.99759">
        <ele>1043.3</ele>
        <time>2019-09-17T13:03:30Z</time>
      </trkpt>
      <trkpt lat="47.92584" lon="6.99763">
        <ele>1044</ele>
        <time>2019-09-17T13:03:33Z</time>
      </trkpt>
      <trkpt lat="47.92582" lon="6.99766">
        <ele>1044.1</ele>
        <time>2019-09-17T13:03:37Z</time>
      </trkpt>
      <trkpt lat="47.92579" lon="6.99768">
        <ele>1043.3</ele>
        <time>2019-09-17T13:03:41Z</time>
      </trkpt>
      <trkpt lat="47.92576" lon="6.99771">
        <ele>1043.4</ele>
        <time>2019-09-17T13:03:44Z</time>
      </trkpt>
      <trkpt lat="47.92575" lon="6.99775">
        <ele>1044.1</ele>
        <time>2019-09-17T13:03:47Z</time>
      </trkpt>
      <trkpt lat="47.92574" lon="6.9978">
        <ele>1044.2</ele>
        <time>2019-09-17T13:03:50Z</time>
      </trkpt>
      <trkpt lat="47.92574" lon="6.99785">
        <ele>1045</ele>
        <time>2019-09-17T13:03:54Z</time>
      </trkpt>
      <trkpt lat="47.92573" lon="6.9979">
        <ele>1045.8</ele>
        <time>2019-09-17T13:04:03Z</time>
      </trkpt>
      <trkpt lat="47.92571" lon="6.99793">
        <ele>1045.9</ele>
        <time>2019-09-17T13:04:06Z</time>
      </trkpt>
      <trkpt lat="47.9257" lon="6.99797">
        <ele>1046.6</ele>
        <time>2019-09-17T13:04:13Z</time>
      </trkpt>
      <trkpt lat="47.92569" lon="6.998">
        <ele>1046.7</ele>
        <time>2019-09-17T13:04:16Z</time>
      </trkpt>
      <trkpt lat="47.92566" lon="6.99804">
        <ele>1047.5</ele>
        <time>2019-09-17T13:04:20Z</time>
      </trkpt>
      <trkpt lat="47.92565" lon="6.99807">
        <ele>1046.7</ele>
        <time>2019-09-17T13:04:24Z</time>
      </trkpt>
      <trkpt lat="47.92565" lon="6.99811">
        <ele>1047.6</ele>
        <time>2019-09-17T13:04:28Z</time>
      </trkpt>
      <trkpt lat="47.92564" lon="6.99816">
        <ele>1048.5</ele>
        <time>2019-09-17T13:04:30Z</time>
      </trkpt>
      <trkpt lat="47.92563" lon="6.99821">
        <ele>1049.5</ele>
        <time>2019-09-17T13:04:32Z</time>
      </trkpt>
      <trkpt lat="47.92563" lon="6.99825">
        <ele>1050.4</ele>
        <time>2019-09-17T13:04:34Z</time>
      </trkpt>
      <trkpt lat="47.92563" lon="6.99829">
        <ele>1051.7</ele>
        <time>2019-09-17T13:04:37Z</time>
      </trkpt>
      <trkpt lat="47.92563" lon="6.99835">
        <ele>1052.5</ele>
        <time>2019-09-17T13:04:41Z</time>
      </trkpt>
      <trkpt lat="47.92562" lon="6.99839">
        <ele>1053.3</ele>
        <time>2019-09-17T13:04:44Z</time>
      </trkpt>
      <trkpt lat="47.92561" lon="6.99843">
        <ele>1054.1</ele>
        <time>2019-09-17T13:04:47Z</time>
      </trkpt>
      <trkpt lat="47.92559" lon="6.99847">
        <ele>1054.1</ele>
        <time>2019-09-17T13:04:52Z</time>
      </trkpt>
      <trkpt lat="47.92558" lon="6.99852">
        <ele>1054.9</ele>
        <time>2019-09-17T13:04:57Z</time>
      </trkpt>
      <trkpt lat="47.92556" lon="6.99856">
        <ele>1054.9</ele>
        <time>2019-09-17T13:05:01Z</time>
      </trkpt>
      <trkpt lat="47.92554" lon="6.9986">
        <ele>1054.9</ele>
        <time>2019-09-17T13:05:06Z</time>
      </trkpt>
      <trkpt lat="47.92552" lon="6.99864">
        <ele>1055.8</ele>
        <time>2019-09-17T13:05:09Z</time>
      </trkpt>
      <trkpt lat="47.9255" lon="6.99867">
        <ele>1054.9</ele>
        <time>2019-09-17T13:05:13Z</time>
      </trkpt>
      <trkpt lat="47.92548" lon="6.99871">
        <ele>1054.8</ele>
        <time>2019-09-17T13:05:18Z</time>
      </trkpt>
      <trkpt lat="47.92546" lon="6.99874">
        <ele>1054.9</ele>
        <time>2019-09-17T13:05:21Z</time>
      </trkpt>
      <trkpt lat="47.92545" lon="6.99879">
        <ele>1055.7</ele>
        <time>2019-09-17T13:05:25Z</time>
      </trkpt>
      <trkpt lat="47.92545" lon="6.99883">
        <ele>1056.6</ele>
        <time>2019-09-17T13:05:29Z</time>
      </trkpt>
      <trkpt lat="47.92545" lon="6.99888">
        <ele>1057.4</ele>
        <time>2019-09-17T13:05:33Z</time>
      </trkpt>
      <trkpt lat="47.92544" lon="6.99892">
        <ele>1058.2</ele>
        <time>2019-09-17T13:05:36Z</time>
      </trkpt>
      <trkpt lat="47.92543" lon="6.99897">
        <ele>1058.9</ele>
        <time>2019-09-17T13:05:40Z</time>
      </trkpt>
      <trkpt lat="47.92543" lon="6.99901">
        <ele>1059</ele>
        <time>2019-09-17T13:05:44Z</time>
      </trkpt>
      <trkpt lat="47.92543" lon="6.99906">
        <ele>1059.8</ele>
        <time>2019-09-17T13:05:47Z</time>
      </trkpt>
      <trkpt lat="47.92542" lon="6.9991">
        <ele>1060.5</ele>
        <time>2019-09-17T13:05:50Z</time>
      </trkpt>
      <trkpt lat="47.92541" lon="6.99915">
        <ele>1061.9</ele>
        <time>2019-09-17T13:05:53Z</time>
      </trkpt>
      <trkpt lat="47.9254" lon="6.9992">
        <ele>1061.9</ele>
        <time>2019-09-17T13:05:58Z</time>
      </trkpt>
      <trkpt lat="47.92538" lon="6.99924">
        <ele>1062.5</ele>
        <time>2019-09-17T13:06:03Z</time>
      </trkpt>
      <trkpt lat="47.92536" lon="6.99928">
        <ele>1062.6</ele>
        <time>2019-09-17T13:06:06Z</time>
      </trkpt>
      <trkpt lat="47.92535" lon="6.99933">
        <ele>1063.3</ele>
        <time>2019-09-17T13:06:09Z</time>
      </trkpt>
      <trkpt lat="47.92533" lon="6.99937">
        <ele>1063.4</ele>
        <time>2019-09-17T13:06:12Z</time>
      </trkpt>
      <trkpt lat="47.92534" lon="6.99941">
        <ele>1064.8</ele>
        <time>2019-09-17T13:06:24Z</time>
      </trkpt>
      <trkpt lat="47.92535" lon="6.99946">
        <ele>1065.6</ele>
        <time>2019-09-17T13:06:29Z</time>
      </trkpt>
      <trkpt lat="47.92533" lon="6.99951">
        <ele>1065.9</ele>
        <time>2019-09-17T13:06:33Z</time>
      </trkpt>
      <trkpt lat="47.92532" lon="6.99955">
        <ele>1066.8</ele>
        <time>2019-09-17T13:06:35Z</time>
      </trkpt>
      <trkpt lat="47.92531" lon="6.99959">
        <ele>1067</ele>
        <time>2019-09-17T13:06:38Z</time>
      </trkpt>
      <trkpt lat="47.92529" lon="6.99964">
        <ele>1067.1</ele>
        <time>2019-09-17T13:06:41Z</time>
      </trkpt>
      <trkpt lat="47.92527" lon="6.99968">
        <ele>1067.9</ele>
        <time>2019-09-17T13:06:43Z</time>
      </trkpt>
      <trkpt lat="47.92527" lon="6.99974">
        <ele>1068.6</ele>
        <time>2019-09-17T13:06:46Z</time>
      </trkpt>
      <trkpt lat="47.92526" lon="6.99978">
        <ele>1069.2</ele>
        <time>2019-09-17T13:06:48Z</time>
      </trkpt>
      <trkpt lat="47.92525" lon="6.99983">
        <ele>1069.2</ele>
        <time>2019-09-17T13:06:50Z</time>
      </trkpt>
      <trkpt lat="47.92526" lon="6.99987">
        <ele>1069.8</ele>
        <time>2019-09-17T13:06:52Z</time>
      </trkpt>
      <trkpt lat="47.92525" lon="6.99992">
        <ele>1070.4</ele>
        <time>2019-09-17T13:06:55Z</time>
      </trkpt>
      <trkpt lat="47.92523" lon="6.99994">
        <ele>1071.1</ele>
        <time>2019-09-17T13:07:00Z</time>
      </trkpt>
      <trkpt lat="47.92521" lon="6.99998">
        <ele>1071.1</ele>
        <time>2019-09-17T13:07:04Z</time>
      </trkpt>
      <trkpt lat="47.92519" lon="7.00002">
        <ele>1071.2</ele>
        <time>2019-09-17T13:07:08Z</time>
      </trkpt>
      <trkpt lat="47.92516" lon="7.00005">
        <ele>1070.5</ele>
        <time>2019-09-17T13:07:11Z</time>
      </trkpt>
      <trkpt lat="47.92515" lon="7.00008">
        <ele>1071.2</ele>
        <time>2019-09-17T13:07:14Z</time>
      </trkpt>
      <trkpt lat="47.92513" lon="7.00013">
        <ele>1071.4</ele>
        <time>2019-09-17T13:07:17Z</time>
      </trkpt>
      <trkpt lat="47.92512" lon="7.00018">
        <ele>1072.1</ele>
        <time>2019-09-17T13:07:20Z</time>
      </trkpt>
      <trkpt lat="47.92512" lon="7.00022">
        <ele>1072.7</ele>
        <time>2019-09-17T13:07:24Z</time>
      </trkpt>
      <trkpt lat="47.92511" lon="7.00026">
        <ele>1072.9</ele>
        <time>2019-09-17T13:07:29Z</time>
      </trkpt>
      <trkpt lat="47.92511" lon="7.0003">
        <ele>1073.5</ele>
        <time>2019-09-17T13:07:32Z</time>
      </trkpt>
      <trkpt lat="47.9251" lon="7.00035">
        <ele>1074.1</ele>
        <time>2019-09-17T13:07:35Z</time>
      </trkpt>
      <trkpt lat="47.92508" lon="7.00038">
        <ele>1074.3</ele>
        <time>2019-09-17T13:07:40Z</time>
      </trkpt>
      <trkpt lat="47.92506" lon="7.00041">
        <ele>1074.4</ele>
        <time>2019-09-17T13:07:48Z</time>
      </trkpt>
      <trkpt lat="47.92504" lon="7.00045">
        <ele>1075</ele>
        <time>2019-09-17T13:07:51Z</time>
      </trkpt>
      <trkpt lat="47.92503" lon="7.00049">
        <ele>1075.1</ele>
        <time>2019-09-17T13:07:54Z</time>
      </trkpt>
      <trkpt lat="47.925" lon="7.00053">
        <ele>1075.6</ele>
        <time>2019-09-17T13:07:58Z</time>
      </trkpt>
      <trkpt lat="47.92499" lon="7.00057">
        <ele>1075.6</ele>
        <time>2019-09-17T13:08:01Z</time>
      </trkpt>
      <trkpt lat="47.92498" lon="7.00062">
        <ele>1076</ele>
        <time>2019-09-17T13:08:04Z</time>
      </trkpt>
      <trkpt lat="47.92498" lon="7.00066">
        <ele>1076.5</ele>
        <time>2019-09-17T13:08:11Z</time>
      </trkpt>
      <trkpt lat="47.92498" lon="7.0007">
        <ele>1077</ele>
        <time>2019-09-17T13:08:19Z</time>
      </trkpt>
      <trkpt lat="47.92498" lon="7.00075">
        <ele>1077.5</ele>
        <time>2019-09-17T13:08:24Z</time>
      </trkpt>
      <trkpt lat="47.92498" lon="7.00079">
        <ele>1078</ele>
        <time>2019-09-17T13:08:27Z</time>
      </trkpt>
      <trkpt lat="47.92498" lon="7.00084">
        <ele>1078.7</ele>
        <time>2019-09-17T13:08:30Z</time>
      </trkpt>
      <trkpt lat="47.92498" lon="7.00089">
        <ele>1079.4</ele>
        <time>2019-09-17T13:08:33Z</time>
      </trkpt>
      <trkpt lat="47.92498" lon="7.00094">
        <ele>1080.1</ele>
        <time>2019-09-17T13:08:35Z</time>
      </trkpt>
      <trkpt lat="47.92498" lon="7.001">
        <ele>1081.7</ele>
        <time>2019-09-17T13:08:37Z</time>
      </trkpt>
      <trkpt lat="47.92497" lon="7.00105">
        <ele>1082.4</ele>
        <time>2019-09-17T13:08:39Z</time>
      </trkpt>
      <trkpt lat="47.92497" lon="7.0011">
        <ele>1083.2</ele>
        <time>2019-09-17T13:08:42Z</time>
      </trkpt>
      <trkpt lat="47.92497" lon="7.00115">
        <ele>1083.6</ele>
        <time>2019-09-17T13:08:45Z</time>
      </trkpt>
      <trkpt lat="47.92496" lon="7.00121">
        <ele>1084.3</ele>
        <time>2019-09-17T13:08:48Z</time>
      </trkpt>
      <trkpt lat="47.92495" lon="7.00125">
        <ele>1084.9</ele>
        <time>2019-09-17T13:08:51Z</time>
      </trkpt>
      <trkpt lat="47.92496" lon="7.0013">
        <ele>1085.5</ele>
        <time>2019-09-17T13:08:54Z</time>
      </trkpt>
      <trkpt lat="47.92495" lon="7.00134">
        <ele>1086.7</ele>
        <time>2019-09-17T13:08:57Z</time>
      </trkpt>
      <trkpt lat="47.92495" lon="7.00138">
        <ele>1087.1</ele>
        <time>2019-09-17T13:09:00Z</time>
      </trkpt>
      <trkpt lat="47.92495" lon="7.00143">
        <ele>1087.5</ele>
        <time>2019-09-17T13:09:03Z</time>
      </trkpt>
      <trkpt lat="47.92494" lon="7.00148">
        <ele>1087.4</ele>
        <time>2019-09-17T13:09:07Z</time>
      </trkpt>
      <trkpt lat="47.92493" lon="7.00152">
        <ele>1087.7</ele>
        <time>2019-09-17T13:09:12Z</time>
      </trkpt>
      <trkpt lat="47.92492" lon="7.00157">
        <ele>1087.9</ele>
        <time>2019-09-17T13:09:15Z</time>
      </trkpt>
      <trkpt lat="47.92491" lon="7.00161">
        <ele>1088.2</ele>
        <time>2019-09-17T13:09:17Z</time>
      </trkpt>
      <trkpt lat="47.9249" lon="7.00166">
        <ele>1088.1</ele>
        <time>2019-09-17T13:09:20Z</time>
      </trkpt>
      <trkpt lat="47.9249" lon="7.00172">
        <ele>1088.4</ele>
        <time>2019-09-17T13:09:23Z</time>
      </trkpt>
      <trkpt lat="47.92488" lon="7.00177">
        <ele>1088.5</ele>
        <time>2019-09-17T13:09:26Z</time>
      </trkpt>
      <trkpt lat="47.92487" lon="7.00182">
        <ele>1089.1</ele>
        <time>2019-09-17T13:09:29Z</time>
      </trkpt>
      <trkpt lat="47.92487" lon="7.00186">
        <ele>1089.4</ele>
        <time>2019-09-17T13:09:32Z</time>
      </trkpt>
      <trkpt lat="47.92486" lon="7.00191">
        <ele>1089.7</ele>
        <time>2019-09-17T13:09:37Z</time>
      </trkpt>
      <trkpt lat="47.92485" lon="7.00194">
        <ele>1089.8</ele>
        <time>2019-09-17T13:09:45Z</time>
      </trkpt>
      <trkpt lat="47.92487" lon="7.00198">
        <ele>1089.9</ele>
        <time>2019-09-17T13:09:49Z</time>
      </trkpt>
      <trkpt lat="47.92483" lon="7.00198">
        <ele>1089.6</ele>
        <time>2019-09-17T13:09:53Z</time>
      </trkpt>
      <trkpt lat="47.92482" lon="7.00202">
        <ele>1089.7</ele>
        <time>2019-09-17T13:10:03Z</time>
      </trkpt>
      <trkpt lat="47.92484" lon="7.00206">
        <ele>1090.3</ele>
        <time>2019-09-17T13:10:06Z</time>
      </trkpt>
      <trkpt lat="47.92485" lon="7.0021">
        <ele>1090.6</ele>
        <time>2019-09-17T13:10:12Z</time>
      </trkpt>
      <trkpt lat="47.92487" lon="7.00214">
        <ele>1091.3</ele>
        <time>2019-09-17T13:10:16Z</time>
      </trkpt>
      <trkpt lat="47.92488" lon="7.00217">
        <ele>1091.8</ele>
        <time>2019-09-17T13:10:22Z</time>
      </trkpt>
      <trkpt lat="47.92489" lon="7.00222">
        <ele>1092.5</ele>
        <time>2019-09-17T13:10:26Z</time>
      </trkpt>
      <trkpt lat="47.92491" lon="7.00226">
        <ele>1093.1</ele>
        <time>2019-09-17T13:10:32Z</time>
      </trkpt>
      <trkpt lat="47.92492" lon="7.0023">
        <ele>1093.9</ele>
        <time>2019-09-17T13:10:35Z</time>
      </trkpt>
      <trkpt lat="47.92494" lon="7.00235">
        <ele>1094.5</ele>
        <time>2019-09-17T13:10:38Z</time>
      </trkpt>
      <trkpt lat="47.92495" lon="7.00239">
        <ele>1095.2</ele>
        <time>2019-09-17T13:10:41Z</time>
      </trkpt>
      <trkpt lat="47.92497" lon="7.00243">
        <ele>1095.8</ele>
        <time>2019-09-17T13:10:45Z</time>
      </trkpt>
      <trkpt lat="47.92498" lon="7.00247">
        <ele>1096.3</ele>
        <time>2019-09-17T13:10:49Z</time>
      </trkpt>
      <trkpt lat="47.92499" lon="7.00252">
        <ele>1096.8</ele>
        <time>2019-09-17T13:10:51Z</time>
      </trkpt>
      <trkpt lat="47.92501" lon="7.00256">
        <ele>1097.4</ele>
        <time>2019-09-17T13:10:54Z</time>
      </trkpt>
      <trkpt lat="47.92503" lon="7.0026">
        <ele>1097.9</ele>
        <time>2019-09-17T13:10:58Z</time>
      </trkpt>
      <trkpt lat="47.92504" lon="7.00264">
        <ele>1098.4</ele>
        <time>2019-09-17T13:11:02Z</time>
      </trkpt>
      <trkpt lat="47.92504" lon="7.00269">
        <ele>1099.1</ele>
        <time>2019-09-17T13:11:07Z</time>
      </trkpt>
      <trkpt lat="47.92505" lon="7.00273">
        <ele>1099.7</ele>
        <time>2019-09-17T13:11:11Z</time>
      </trkpt>
      <trkpt lat="47.92505" lon="7.00278">
        <ele>1100.4</ele>
        <time>2019-09-17T13:11:14Z</time>
      </trkpt>
      <trkpt lat="47.92506" lon="7.00282">
        <ele>1100.9</ele>
        <time>2019-09-17T13:11:18Z</time>
      </trkpt>
      <trkpt lat="47.92507" lon="7.00286">
        <ele>1101.5</ele>
        <time>2019-09-17T13:11:22Z</time>
      </trkpt>
      <trkpt lat="47.92508" lon="7.0029">
        <ele>1102.1</ele>
        <time>2019-09-17T13:11:26Z</time>
      </trkpt>
      <trkpt lat="47.92509" lon="7.00295">
        <ele>1102.5</ele>
        <time>2019-09-17T13:11:40Z</time>
      </trkpt>
      <trkpt lat="47.92509" lon="7.00299">
        <ele>1103.1</ele>
        <time>2019-09-17T13:11:43Z</time>
      </trkpt>
      <trkpt lat="47.92509" lon="7.00304">
        <ele>1103.6</ele>
        <time>2019-09-17T13:11:46Z</time>
      </trkpt>
      <trkpt lat="47.92509" lon="7.00308">
        <ele>1104.1</ele>
        <time>2019-09-17T13:11:49Z</time>
      </trkpt>
      <trkpt lat="47.92509" lon="7.00313">
        <ele>1104.6</ele>
        <time>2019-09-17T13:11:52Z</time>
      </trkpt>
      <trkpt lat="47.9251" lon="7.00318">
        <ele>1105.1</ele>
        <time>2019-09-17T13:11:56Z</time>
      </trkpt>
      <trkpt lat="47.9251" lon="7.00323">
        <ele>1105.9</ele>
        <time>2019-09-17T13:12:00Z</time>
      </trkpt>
      <trkpt lat="47.92511" lon="7.00327">
        <ele>1106.1</ele>
        <time>2019-09-17T13:12:03Z</time>
      </trkpt>
      <trkpt lat="47.92512" lon="7.00332">
        <ele>1106.3</ele>
        <time>2019-09-17T13:12:06Z</time>
      </trkpt>
      <trkpt lat="47.92513" lon="7.00337">
        <ele>1106.5</ele>
        <time>2019-09-17T13:12:09Z</time>
      </trkpt>
      <trkpt lat="47.92513" lon="7.00341">
        <ele>1106.6</ele>
        <time>2019-09-17T13:12:12Z</time>
      </trkpt>
      <trkpt lat="47.92512" lon="7.00345">
        <ele>1106.8</ele>
        <time>2019-09-17T13:12:15Z</time>
      </trkpt>
      <trkpt lat="47.92512" lon="7.0035">
        <ele>1107</ele>
        <time>2019-09-17T13:12:18Z</time>
      </trkpt>
      <trkpt lat="47.92511" lon="7.00355">
        <ele>1107.2</ele>
        <time>2019-09-17T13:12:21Z</time>
      </trkpt>
      <trkpt lat="47.92511" lon="7.00359">
        <ele>1107.3</ele>
        <time>2019-09-17T13:12:24Z</time>
      </trkpt>
      <trkpt lat="47.92511" lon="7.00363">
        <ele>1107.5</ele>
        <time>2019-09-17T13:12:27Z</time>
      </trkpt>
      <trkpt lat="47.92511" lon="7.00369">
        <ele>1107.7</ele>
        <time>2019-09-17T13:12:30Z</time>
      </trkpt>
      <trkpt lat="47.92511" lon="7.00374">
        <ele>1107.9</ele>
        <time>2019-09-17T13:12:33Z</time>
      </trkpt>
      <trkpt lat="47.9251" lon="7.00379">
        <ele>1108.2</ele>
        <time>2019-09-17T13:12:36Z</time>
      </trkpt>
      <trkpt lat="47.9251" lon="7.00384">
        <ele>1108.4</ele>
        <time>2019-09-17T13:12:39Z</time>
      </trkpt>
      <trkpt lat="47.9251" lon="7.00389">
        <ele>1108.6</ele>
        <time>2019-09-17T13:12:41Z</time>
      </trkpt>
      <trkpt lat="47.92511" lon="7.00393">
        <ele>1108.7</ele>
        <time>2019-09-17T13:12:43Z</time>
      </trkpt>
      <trkpt lat="47.92511" lon="7.00398">
        <ele>1108.9</ele>
        <time>2019-09-17T13:12:46Z</time>
      </trkpt>
      <trkpt lat="47.92512" lon="7.00403">
        <ele>1109.1</ele>
        <time>2019-09-17T13:12:49Z</time>
      </trkpt>
      <trkpt lat="47.92512" lon="7.00407">
        <ele>1109.3</ele>
        <time>2019-09-17T13:12:51Z</time>
      </trkpt>
      <trkpt lat="47.92513" lon="7.00412">
        <ele>1109.5</ele>
        <time>2019-09-17T13:12:54Z</time>
      </trkpt>
      <trkpt lat="47.92514" lon="7.00417">
        <ele>1109.7</ele>
        <time>2019-09-17T13:12:57Z</time>
      </trkpt>
      <trkpt lat="47.92515" lon="7.00421">
        <ele>1109.9</ele>
        <time>2019-09-17T13:12:59Z</time>
      </trkpt>
      <trkpt lat="47.92517" lon="7.00427">
        <ele>1110.2</ele>
        <time>2019-09-17T13:13:02Z</time>
      </trkpt>
      <trkpt lat="47.92517" lon="7.00432">
        <ele>1110.3</ele>
        <time>2019-09-17T13:13:04Z</time>
      </trkpt>
      <trkpt lat="47.92518" lon="7.00436">
        <ele>1110.5</ele>
        <time>2019-09-17T13:13:06Z</time>
      </trkpt>
      <trkpt lat="47.9252" lon="7.00441">
        <ele>1110.8</ele>
        <time>2019-09-17T13:13:09Z</time>
      </trkpt>
      <trkpt lat="47.9252" lon="7.00446">
        <ele>1111</ele>
        <time>2019-09-17T13:13:12Z</time>
      </trkpt>
      <trkpt lat="47.92521" lon="7.0045">
        <ele>1111.1</ele>
        <time>2019-09-17T13:13:15Z</time>
      </trkpt>
      <trkpt lat="47.92522" lon="7.00455">
        <ele>1111.3</ele>
        <time>2019-09-17T13:13:18Z</time>
      </trkpt>
      <trkpt lat="47.92523" lon="7.0046">
        <ele>1111.6</ele>
        <time>2019-09-17T13:13:21Z</time>
      </trkpt>
      <trkpt lat="47.92523" lon="7.00465">
        <ele>1111.8</ele>
        <time>2019-09-17T13:13:24Z</time>
      </trkpt>
      <trkpt lat="47.92523" lon="7.0047">
        <ele>1112.1</ele>
        <time>2019-09-17T13:13:27Z</time>
      </trkpt>
      <trkpt lat="47.92524" lon="7.00475">
        <ele>1112.3</ele>
        <time>2019-09-17T13:13:30Z</time>
      </trkpt>
      <trkpt lat="47.92527" lon="7.00477">
        <ele>1112.5</ele>
        <time>2019-09-17T13:13:34Z</time>
      </trkpt>
      <trkpt lat="47.92529" lon="7.00481">
        <ele>1112.8</ele>
        <time>2019-09-17T13:13:38Z</time>
      </trkpt>
      <trkpt lat="47.92529" lon="7.00486">
        <ele>1113.1</ele>
        <time>2019-09-17T13:13:41Z</time>
      </trkpt>
      <trkpt lat="47.9253" lon="7.00492">
        <ele>1113.5</ele>
        <time>2019-09-17T13:13:44Z</time>
      </trkpt>
      <trkpt lat="47.9253" lon="7.00497">
        <ele>1113.8</ele>
        <time>2019-09-17T13:13:46Z</time>
      </trkpt>
      <trkpt lat="47.9253" lon="7.00502">
        <ele>1114.1</ele>
        <time>2019-09-17T13:13:49Z</time>
      </trkpt>
      <trkpt lat="47.92531" lon="7.00507">
        <ele>1114.4</ele>
        <time>2019-09-17T13:13:52Z</time>
      </trkpt>
      <trkpt lat="47.92532" lon="7.00512">
        <ele>1114.8</ele>
        <time>2019-09-17T13:13:55Z</time>
      </trkpt>
      <trkpt lat="47.92533" lon="7.00518">
        <ele>1115.3</ele>
        <time>2019-09-17T13:13:58Z</time>
      </trkpt>
      <trkpt lat="47.92534" lon="7.00522">
        <ele>1115.6</ele>
        <time>2019-09-17T13:14:00Z</time>
      </trkpt>
      <trkpt lat="47.92536" lon="7.00525">
        <ele>1116</ele>
        <time>2019-09-17T13:14:02Z</time>
      </trkpt>
      <trkpt lat="47.92539" lon="7.00527">
        <ele>1116.6</ele>
        <time>2019-09-17T13:14:05Z</time>
      </trkpt>
      <trkpt lat="47.92542" lon="7.00527">
        <ele>1117.1</ele>
        <time>2019-09-17T13:14:08Z</time>
      </trkpt>
      <trkpt lat="47.92542" lon="7.00532">
        <ele>1117.6</ele>
        <time>2019-09-17T13:14:11Z</time>
      </trkpt>
      <trkpt lat="47.92542" lon="7.00536">
        <ele>1118.1</ele>
        <time>2019-09-17T13:14:13Z</time>
      </trkpt>
      <trkpt lat="47.92543" lon="7.00541">
        <ele>1118.6</ele>
        <time>2019-09-17T13:14:15Z</time>
      </trkpt>
      <trkpt lat="47.92543" lon="7.00546">
        <ele>1119.1</ele>
        <time>2019-09-17T13:14:17Z</time>
      </trkpt>
      <trkpt lat="47.92544" lon="7.00551">
        <ele>1119.5</ele>
        <time>2019-09-17T13:14:19Z</time>
      </trkpt>
      <trkpt lat="47.92546" lon="7.00554">
        <ele>1119.9</ele>
        <time>2019-09-17T13:14:21Z</time>
      </trkpt>
      <trkpt lat="47.92548" lon="7.00558">
        <ele>1120.2</ele>
        <time>2019-09-17T13:14:23Z</time>
      </trkpt>
      <trkpt lat="47.9255" lon="7.00561">
        <ele>1120.6</ele>
        <time>2019-09-17T13:14:25Z</time>
      </trkpt>
      <trkpt lat="47.92552" lon="7.00565">
        <ele>1120.8</ele>
        <time>2019-09-17T13:14:28Z</time>
      </trkpt>
      <trkpt lat="47.92555" lon="7.00569">
        <ele>1121.3</ele>
        <time>2019-09-17T13:14:31Z</time>
      </trkpt>
      <trkpt lat="47.92557" lon="7.00573">
        <ele>1121.4</ele>
        <time>2019-09-17T13:14:34Z</time>
      </trkpt>
      <trkpt lat="47.92559" lon="7.00578">
        <ele>1121.5</ele>
        <time>2019-09-17T13:14:37Z</time>
      </trkpt>
      <trkpt lat="47.9256" lon="7.00583">
        <ele>1121.5</ele>
        <time>2019-09-17T13:14:40Z</time>
      </trkpt>
      <trkpt lat="47.92559" lon="7.00589">
        <ele>1121.6</ele>
        <time>2019-09-17T13:14:43Z</time>
      </trkpt>
      <trkpt lat="47.92559" lon="7.00594">
        <ele>1121.7</ele>
        <time>2019-09-17T13:14:45Z</time>
      </trkpt>
      <trkpt lat="47.92559" lon="7.00599">
        <ele>1121.7</ele>
        <time>2019-09-17T13:14:47Z</time>
      </trkpt>
      <trkpt lat="47.92558" lon="7.00606">
        <ele>1121.8</ele>
        <time>2019-09-17T13:14:49Z</time>
      </trkpt>
      <trkpt lat="47.92557" lon="7.00612">
        <ele>1121.8</ele>
        <time>2019-09-17T13:14:51Z</time>
      </trkpt>
      <trkpt lat="47.92557" lon="7.00618">
        <ele>1121.9</ele>
        <time>2019-09-17T13:14:53Z</time>
      </trkpt>
      <trkpt lat="47.92556" lon="7.00623">
        <ele>1121.9</ele>
        <time>2019-09-17T13:14:55Z</time>
      </trkpt>
      <trkpt lat="47.92556" lon="7.00627">
        <ele>1122</ele>
        <time>2019-09-17T13:14:57Z</time>
      </trkpt>
      <trkpt lat="47.92555" lon="7.00631">
        <ele>1122.1</ele>
        <time>2019-09-17T13:14:59Z</time>
      </trkpt>
      <trkpt lat="47.92555" lon="7.00635">
        <ele>1122.2</ele>
        <time>2019-09-17T13:15:01Z</time>
      </trkpt>
      <trkpt lat="47.92555" lon="7.00641">
        <ele>1122.4</ele>
        <time>2019-09-17T13:15:04Z</time>
      </trkpt>
      <trkpt lat="47.92555" lon="7.00646">
        <ele>1122.5</ele>
        <time>2019-09-17T13:15:06Z</time>
      </trkpt>
      <trkpt lat="47.92555" lon="7.00651">
        <ele>1122.6</ele>
        <time>2019-09-17T13:15:08Z</time>
      </trkpt>
      <trkpt lat="47.92554" lon="7.00655">
        <ele>1122.7</ele>
        <time>2019-09-17T13:15:10Z</time>
      </trkpt>
      <trkpt lat="47.92554" lon="7.0066">
        <ele>1122.8</ele>
        <time>2019-09-17T13:15:12Z</time>
      </trkpt>
      <trkpt lat="47.92554" lon="7.00665">
        <ele>1123</ele>
        <time>2019-09-17T13:15:15Z</time>
      </trkpt>
      <trkpt lat="47.92554" lon="7.0067">
        <ele>1123.1</ele>
        <time>2019-09-17T13:15:18Z</time>
      </trkpt>
      <trkpt lat="47.92553" lon="7.00674">
        <ele>1123.3</ele>
        <time>2019-09-17T13:15:20Z</time>
      </trkpt>
      <trkpt lat="47.92552" lon="7.00678">
        <ele>1123.4</ele>
        <time>2019-09-17T13:15:22Z</time>
      </trkpt>
      <trkpt lat="47.92551" lon="7.00682">
        <ele>1123.6</ele>
        <time>2019-09-17T13:15:24Z</time>
      </trkpt>
      <trkpt lat="47.9255" lon="7.00687">
        <ele>1123.7</ele>
        <time>2019-09-17T13:15:26Z</time>
      </trkpt>
      <trkpt lat="47.92549" lon="7.00691">
        <ele>1123.9</ele>
        <time>2019-09-17T13:15:28Z</time>
      </trkpt>
      <trkpt lat="47.92549" lon="7.00696">
        <ele>1124</ele>
        <time>2019-09-17T13:15:30Z</time>
      </trkpt>
      <trkpt lat="47.92548" lon="7.007">
        <ele>1124.1</ele>
        <time>2019-09-17T13:15:32Z</time>
      </trkpt>
      <trkpt lat="47.92548" lon="7.00706">
        <ele>1124.2</ele>
        <time>2019-09-17T13:15:35Z</time>
      </trkpt>
      <trkpt lat="47.92547" lon="7.00711">
        <ele>1124.3</ele>
        <time>2019-09-17T13:15:38Z</time>
      </trkpt>
      <trkpt lat="47.92547" lon="7.00716">
        <ele>1124.4</ele>
        <time>2019-09-17T13:15:41Z</time>
      </trkpt>
      <trkpt lat="47.92546" lon="7.00722">
        <ele>1124.5</ele>
        <time>2019-09-17T13:15:44Z</time>
      </trkpt>
      <trkpt lat="47.92546" lon="7.00728">
        <ele>1124.5</ele>
        <time>2019-09-17T13:15:47Z</time>
      </trkpt>
      <trkpt lat="47.92546" lon="7.00734">
        <ele>1124.6</ele>
        <time>2019-09-17T13:15:50Z</time>
      </trkpt>
      <trkpt lat="47.92546" lon="7.00738">
        <ele>1124.7</ele>
        <time>2019-09-17T13:15:52Z</time>
      </trkpt>
      <trkpt lat="47.92546" lon="7.00742">
        <ele>1124.7</ele>
        <time>2019-09-17T13:15:54Z</time>
      </trkpt>
      <trkpt lat="47.92545" lon="7.00747">
        <ele>1124.8</ele>
        <time>2019-09-17T13:15:56Z</time>
      </trkpt>
      <trkpt lat="47.92545" lon="7.00751">
        <ele>1124.9</ele>
        <time>2019-09-17T13:15:58Z</time>
      </trkpt>
      <trkpt lat="47.92545" lon="7.00756">
        <ele>1125</ele>
        <time>2019-09-17T13:16:00Z</time>
      </trkpt>
      <trkpt lat="47.92544" lon="7.00761">
        <ele>1125.1</ele>
        <time>2019-09-17T13:16:02Z</time>
      </trkpt>
      <trkpt lat="47.92543" lon="7.00765">
        <ele>1125.2</ele>
        <time>2019-09-17T13:16:04Z</time>
      </trkpt>
      <trkpt lat="47.92542" lon="7.0077">
        <ele>1125.2</ele>
        <time>2019-09-17T13:16:06Z</time>
      </trkpt>
      <trkpt lat="47.92539" lon="7.00772">
        <ele>1125.4</ele>
        <time>2019-09-17T13:16:10Z</time>
      </trkpt>
      <trkpt lat="47.92536" lon="7.00776">
        <ele>1125.5</ele>
        <time>2019-09-17T13:16:14Z</time>
      </trkpt>
      <trkpt lat="47.92534" lon="7.0078">
        <ele>1125.7</ele>
        <time>2019-09-17T13:16:16Z</time>
      </trkpt>
      <trkpt lat="47.92532" lon="7.00784">
        <ele>1125.8</ele>
        <time>2019-09-17T13:16:18Z</time>
      </trkpt>
      <trkpt lat="47.9253" lon="7.00788">
        <ele>1125.9</ele>
        <time>2019-09-17T13:16:20Z</time>
      </trkpt>
      <trkpt lat="47.92527" lon="7.00793">
        <ele>1126.1</ele>
        <time>2019-09-17T13:16:23Z</time>
      </trkpt>
      <trkpt lat="47.92525" lon="7.00798">
        <ele>1126.3</ele>
        <time>2019-09-17T13:16:25Z</time>
      </trkpt>
      <trkpt lat="47.92523" lon="7.00802">
        <ele>1126.4</ele>
        <time>2019-09-17T13:16:27Z</time>
      </trkpt>
      <trkpt lat="47.9252" lon="7.00806">
        <ele>1126.6</ele>
        <time>2019-09-17T13:16:29Z</time>
      </trkpt>
      <trkpt lat="47.92518" lon="7.00811">
        <ele>1126.8</ele>
        <time>2019-09-17T13:16:31Z</time>
      </trkpt>
      <trkpt lat="47.92516" lon="7.00814">
        <ele>1127</ele>
        <time>2019-09-17T13:16:33Z</time>
      </trkpt>
      <trkpt lat="47.92514" lon="7.00819">
        <ele>1127.2</ele>
        <time>2019-09-17T13:16:36Z</time>
      </trkpt>
      <trkpt lat="47.92513" lon="7.00823">
        <ele>1127.3</ele>
        <time>2019-09-17T13:16:39Z</time>
      </trkpt>
      <trkpt lat="47.92511" lon="7.00828">
        <ele>1127.5</ele>
        <time>2019-09-17T13:16:43Z</time>
      </trkpt>
      <trkpt lat="47.92508" lon="7.00832">
        <ele>1127.6</ele>
        <time>2019-09-17T13:16:46Z</time>
      </trkpt>
      <trkpt lat="47.92506" lon="7.00836">
        <ele>1127.7</ele>
        <time>2019-09-17T13:16:49Z</time>
      </trkpt>
      <trkpt lat="47.92503" lon="7.00839">
        <ele>1127.9</ele>
        <time>2019-09-17T13:16:52Z</time>
      </trkpt>
      <trkpt lat="47.925" lon="7.00842">
        <ele>1128</ele>
        <time>2019-09-17T13:16:54Z</time>
      </trkpt>
      <trkpt lat="47.92498" lon="7.00845">
        <ele>1128</ele>
        <time>2019-09-17T13:16:56Z</time>
      </trkpt>
      <trkpt lat="47.92495" lon="7.00847">
        <ele>1128.1</ele>
        <time>2019-09-17T13:16:59Z</time>
      </trkpt>
      <trkpt lat="47.92492" lon="7.00849">
        <ele>1128.2</ele>
        <time>2019-09-17T13:17:02Z</time>
      </trkpt>
      <trkpt lat="47.92489" lon="7.00851">
        <ele>1128.3</ele>
        <time>2019-09-17T13:17:04Z</time>
      </trkpt>
      <trkpt lat="47.92486" lon="7.00852">
        <ele>1128.3</ele>
        <time>2019-09-17T13:17:06Z</time>
      </trkpt>
      <trkpt lat="47.92483" lon="7.00854">
        <ele>1128.4</ele>
        <time>2019-09-17T13:17:08Z</time>
      </trkpt>
      <trkpt lat="47.92481" lon="7.00855">
        <ele>1128.5</ele>
        <time>2019-09-17T13:17:10Z</time>
      </trkpt>
      <trkpt lat="47.92477" lon="7.00857">
        <ele>1128.6</ele>
        <time>2019-09-17T13:17:13Z</time>
      </trkpt>
      <trkpt lat="47.92473" lon="7.00859">
        <ele>1128.8</ele>
        <time>2019-09-17T13:17:16Z</time>
      </trkpt>
      <trkpt lat="47.9247" lon="7.00861">
        <ele>1128.9</ele>
        <time>2019-09-17T13:17:18Z</time>
      </trkpt>
      <trkpt lat="47.92467" lon="7.00862">
        <ele>1129</ele>
        <time>2019-09-17T13:17:20Z</time>
      </trkpt>
      <trkpt lat="47.92465" lon="7.00863">
        <ele>1129.1</ele>
        <time>2019-09-17T13:17:23Z</time>
      </trkpt>
      <trkpt lat="47.92461" lon="7.00864">
        <ele>1129.2</ele>
        <time>2019-09-17T13:17:26Z</time>
      </trkpt>
      <trkpt lat="47.92458" lon="7.00865">
        <ele>1129.3</ele>
        <time>2019-09-17T13:17:28Z</time>
      </trkpt>
      <trkpt lat="47.92455" lon="7.00866">
        <ele>1129.4</ele>
        <time>2019-09-17T13:17:30Z</time>
      </trkpt>
      <trkpt lat="47.9245" lon="7.00868">
        <ele>1129.5</ele>
        <time>2019-09-17T13:17:32Z</time>
      </trkpt>
      <trkpt lat="47.92446" lon="7.00869">
        <ele>1129.7</ele>
        <time>2019-09-17T13:17:34Z</time>
      </trkpt>
      <trkpt lat="47.92443" lon="7.0087">
        <ele>1129.8</ele>
        <time>2019-09-17T13:17:36Z</time>
      </trkpt>
      <trkpt lat="47.9244" lon="7.00871">
        <ele>1129.8</ele>
        <time>2019-09-17T13:17:38Z</time>
      </trkpt>
      <trkpt lat="47.92437" lon="7.00872">
        <ele>1129.9</ele>
        <time>2019-09-17T13:17:41Z</time>
      </trkpt>
      <trkpt lat="47.92434" lon="7.00873">
        <ele>1130</ele>
        <time>2019-09-17T13:17:44Z</time>
      </trkpt>
      <trkpt lat="47.92431" lon="7.00874">
        <ele>1130.1</ele>
        <time>2019-09-17T13:17:47Z</time>
      </trkpt>
      <trkpt lat="47.92427" lon="7.00874">
        <ele>1130.3</ele>
        <time>2019-09-17T13:17:50Z</time>
      </trkpt>
      <trkpt lat="47.92425" lon="7.00874">
        <ele>1130.3</ele>
        <time>2019-09-17T13:17:52Z</time>
      </trkpt>
      <trkpt lat="47.92422" lon="7.00875">
        <ele>1130.4</ele>
        <time>2019-09-17T13:17:54Z</time>
      </trkpt>
      <trkpt lat="47.92418" lon="7.00876">
        <ele>1130.5</ele>
        <time>2019-09-17T13:17:57Z</time>
      </trkpt>
      <trkpt lat="47.92416" lon="7.00878">
        <ele>1130.6</ele>
        <time>2019-09-17T13:17:59Z</time>
      </trkpt>
      <trkpt lat="47.92413" lon="7.00879">
        <ele>1130.7</ele>
        <time>2019-09-17T13:18:03Z</time>
      </trkpt>
      <trkpt lat="47.9241" lon="7.0088">
        <ele>1130.8</ele>
        <time>2019-09-17T13:18:06Z</time>
      </trkpt>
      <trkpt lat="47.92407" lon="7.0088">
        <ele>1130.9</ele>
        <time>2019-09-17T13:18:09Z</time>
      </trkpt>
      <trkpt lat="47.92403" lon="7.0088">
        <ele>1131</ele>
        <time>2019-09-17T13:18:14Z</time>
      </trkpt>
      <trkpt lat="47.924" lon="7.00881">
        <ele>1131.1</ele>
        <time>2019-09-17T13:18:16Z</time>
      </trkpt>
      <trkpt lat="47.92396" lon="7.00883">
        <ele>1131.2</ele>
        <time>2019-09-17T13:18:19Z</time>
      </trkpt>
      <trkpt lat="47.92393" lon="7.00883">
        <ele>1131.3</ele>
        <time>2019-09-17T13:18:22Z</time>
      </trkpt>
      <trkpt lat="47.9239" lon="7.00883">
        <ele>1131.4</ele>
        <time>2019-09-17T13:18:25Z</time>
      </trkpt>
      <trkpt lat="47.92388" lon="7.00887">
        <ele>1132.7</ele>
        <time>2019-09-17T13:18:31Z</time>
      </trkpt>
      <trkpt lat="47.92388" lon="7.00892">
        <ele>1134.1</ele>
        <time>2019-09-17T13:18:37Z</time>
      </trkpt>
      <trkpt lat="47.92389" lon="7.00897">
        <ele>1135.5</ele>
        <time>2019-09-17T13:18:40Z</time>
      </trkpt>
      <trkpt lat="47.9239" lon="7.00902">
        <ele>1136.9</ele>
        <time>2019-09-17T13:18:42Z</time>
      </trkpt>
      <trkpt lat="47.92391" lon="7.00906">
        <ele>1138.5</ele>
        <time>2019-09-17T13:18:44Z</time>
      </trkpt>
      <trkpt lat="47.92391" lon="7.0091">
        <ele>1139.9</ele>
        <time>2019-09-17T13:18:47Z</time>
      </trkpt>
      <trkpt lat="47.92392" lon="7.00914">
        <ele>1141.2</ele>
        <time>2019-09-17T13:18:50Z</time>
      </trkpt>
      <trkpt lat="47.92394" lon="7.00918">
        <ele>1142.8</ele>
        <time>2019-09-17T13:18:54Z</time>
      </trkpt>
      <trkpt lat="47.92396" lon="7.00921">
        <ele>1144</ele>
        <time>2019-09-17T13:18:57Z</time>
      </trkpt>
      <trkpt lat="47.92396" lon="7.00925">
        <ele>1145.5</ele>
        <time>2019-09-17T13:19:03Z</time>
      </trkpt>
      <trkpt lat="47.92397" lon="7.0093">
        <ele>1147.2</ele>
        <time>2019-09-17T13:19:07Z</time>
      </trkpt>
      <trkpt lat="47.92397" lon="7.00935">
        <ele>1148.3</ele>
        <time>2019-09-17T13:19:11Z</time>
      </trkpt>
      <trkpt lat="47.92394" lon="7.00936">
        <ele>1149.1</ele>
        <time>2019-09-17T13:19:15Z</time>
      </trkpt>
      <trkpt lat="47.92396" lon="7.00941">
        <ele>1149.4</ele>
        <time>2019-09-17T13:19:26Z</time>
      </trkpt>
      <trkpt lat="47.92398" lon="7.00945">
        <ele>1150.5</ele>
        <time>2019-09-17T13:19:31Z</time>
      </trkpt>
      <trkpt lat="47.924" lon="7.00948">
        <ele>1151.7</ele>
        <time>2019-09-17T13:19:35Z</time>
      </trkpt>
      <trkpt lat="47.92402" lon="7.00952">
        <ele>1152.9</ele>
        <time>2019-09-17T13:19:38Z</time>
      </trkpt>
      <trkpt lat="47.92403" lon="7.00957">
        <ele>1153.8</ele>
        <time>2019-09-17T13:19:42Z</time>
      </trkpt>
      <trkpt lat="47.92403" lon="7.00961">
        <ele>1154.6</ele>
        <time>2019-09-17T13:19:46Z</time>
      </trkpt>
      <trkpt lat="47.92404" lon="7.00965">
        <ele>1155.4</ele>
        <time>2019-09-17T13:19:50Z</time>
      </trkpt>
      <trkpt lat="47.92405" lon="7.00971">
        <ele>1156.8</ele>
        <time>2019-09-17T13:19:53Z</time>
      </trkpt>
      <trkpt lat="47.92405" lon="7.00975">
        <ele>1156.8</ele>
        <time>2019-09-17T13:19:56Z</time>
      </trkpt>
      <trkpt lat="47.92404" lon="7.0098">
        <ele>1158.3</ele>
        <time>2019-09-17T13:20:00Z</time>
      </trkpt>
      <trkpt lat="47.92405" lon="7.00984">
        <ele>1159.4</ele>
        <time>2019-09-17T13:20:07Z</time>
      </trkpt>
      <trkpt lat="47.92408" lon="7.00989">
        <ele>1160.1</ele>
        <time>2019-09-17T13:20:10Z</time>
      </trkpt>
      <trkpt lat="47.9241" lon="7.00992">
        <ele>1161.3</ele>
        <time>2019-09-17T13:20:13Z</time>
      </trkpt>
      <trkpt lat="47.9241" lon="7.00998">
        <ele>1162</ele>
        <time>2019-09-17T13:20:17Z</time>
      </trkpt>
      <trkpt lat="47.9241" lon="7.01003">
        <ele>1162.8</ele>
        <time>2019-09-17T13:20:21Z</time>
      </trkpt>
      <trkpt lat="47.9241" lon="7.01008">
        <ele>1163.5</ele>
        <time>2019-09-17T13:20:25Z</time>
      </trkpt>
      <trkpt lat="47.9241" lon="7.01012">
        <ele>1164.2</ele>
        <time>2019-09-17T13:20:28Z</time>
      </trkpt>
      <trkpt lat="47.92411" lon="7.01016">
        <ele>1165.3</ele>
        <time>2019-09-17T13:20:31Z</time>
      </trkpt>
      <trkpt lat="47.92413" lon="7.01019">
        <ele>1166</ele>
        <time>2019-09-17T13:20:34Z</time>
      </trkpt>
      <trkpt lat="47.92415" lon="7.01022">
        <ele>1166.5</ele>
        <time>2019-09-17T13:20:37Z</time>
      </trkpt>
      <trkpt lat="47.92418" lon="7.01025">
        <ele>1167.8</ele>
        <time>2019-09-17T13:20:41Z</time>
      </trkpt>
      <trkpt lat="47.9242" lon="7.01021">
        <ele>1167.5</ele>
        <time>2019-09-17T13:21:00Z</time>
      </trkpt>
      <trkpt lat="47.92422" lon="7.01016">
        <ele>1166.8</ele>
        <time>2019-09-17T13:21:17Z</time>
      </trkpt>
      <trkpt lat="47.92425" lon="7.01016">
        <ele>1167.2</ele>
        <time>2019-09-17T13:21:33Z</time>
      </trkpt>
    </trkseg>
  </trk>
</gpx>